<?xml version="1.0" encoding="UTF-8" standalone="no" ?>
<gpx xmlns="http://www.topografix.com/GPX/1/1" xmlns:xsi="http://www.w3.org/2001/XMLSchema-instance" xsi:schemaLocation="http://www.topografix.com/GPX/1/1 http://www.topografix.com/GPX/1/1/gpx.xsd" version="1.1" creator="VisuGPX - https://www.visugpx.com">
  <metadata>
    <name>GTMC J5: de Chalinargues à Neussargues</name>
    <desc><![CDATA[Grande Traversée du Massif Central
Jour 5: de Chalinargues à Neussargues par une variante de la GTMC.]]></desc>
  </metadata>
  <trk>
    <name><![CDATA[2021-07-23 09:47]]></name>
    <desc><![CDATA[<p>Heure de départ: 07/23/2021 09:50<br/>Heure d'arrivée: 07/23/2021 18:49<br/>Distance: 53,2 km (08:58)<br/>Temps déplacement: 04:55<br/>Vitesse moyenne: 5,94 km/h<br/>Vitesse moyenne mouv.: 10,81 km/h<br/>Vitesse Max.: 54,63 km/h<br/>Altitude minimale: 861 m<br/>Altitude maximale: 1459 m<br/>Vitesse de montée: 322,5 m/h<br/>Vitesse de descente: -304,4 m/h<br/>Gain d'altitude: 1261 m<br/>Perte d'altitude: -1521 m<br/>Temps de montée: 03:54<br/>Temps de descente: 04:59<br/></p><hr align="center" width="480" style="height: 2px; width: 517px"/>]]></desc>
    <trkseg>
      <trkpt lat="45.15401" lon="2.93159">
        <ele>1066.9</ele>
        <time>2021-07-23T07:50:47Z</time>
      </trkpt>
      <trkpt lat="45.15405" lon="2.93151">
        <ele>1067.7</ele>
        <time>2021-07-23T07:50:53Z</time>
      </trkpt>
      <trkpt lat="45.15402" lon="2.93146">
        <ele>1068</ele>
        <time>2021-07-23T07:50:55Z</time>
      </trkpt>
      <trkpt lat="45.15399" lon="2.93134">
        <ele>1068.8</ele>
        <time>2021-07-23T07:50:59Z</time>
      </trkpt>
      <trkpt lat="45.15402" lon="2.93128">
        <ele>1069.5</ele>
        <time>2021-07-23T07:51:01Z</time>
      </trkpt>
      <trkpt lat="45.15404" lon="2.93121">
        <ele>1070.3</ele>
        <time>2021-07-23T07:51:03Z</time>
      </trkpt>
      <trkpt lat="45.15407" lon="2.9311">
        <ele>1071.5</ele>
        <time>2021-07-23T07:51:07Z</time>
      </trkpt>
      <trkpt lat="45.15409" lon="2.931">
        <ele>1072.6</ele>
        <time>2021-07-23T07:51:11Z</time>
      </trkpt>
      <trkpt lat="45.15411" lon="2.93092">
        <ele>1073.6</ele>
        <time>2021-07-23T07:51:15Z</time>
      </trkpt>
      <trkpt lat="45.15409" lon="2.93083">
        <ele>1074.1</ele>
        <time>2021-07-23T07:51:19Z</time>
      </trkpt>
      <trkpt lat="45.15405" lon="2.93078">
        <ele>1073.9</ele>
        <time>2021-07-23T07:51:23Z</time>
      </trkpt>
      <trkpt lat="45.15399" lon="2.93075">
        <ele>1073.3</ele>
        <time>2021-07-23T07:51:27Z</time>
      </trkpt>
      <trkpt lat="45.15393" lon="2.9307">
        <ele>1072.8</ele>
        <time>2021-07-23T07:51:31Z</time>
      </trkpt>
      <trkpt lat="45.15388" lon="2.93065">
        <ele>1072.4</ele>
        <time>2021-07-23T07:51:35Z</time>
      </trkpt>
      <trkpt lat="45.15383" lon="2.9306">
        <ele>1072.1</ele>
        <time>2021-07-23T07:51:39Z</time>
      </trkpt>
      <trkpt lat="45.15387" lon="2.93054">
        <ele>1072.9</ele>
        <time>2021-07-23T07:51:45Z</time>
      </trkpt>
      <trkpt lat="45.15391" lon="2.93049">
        <ele>1073.5</ele>
        <time>2021-07-23T07:51:49Z</time>
      </trkpt>
      <trkpt lat="45.15394" lon="2.93042">
        <ele>1074.2</ele>
        <time>2021-07-23T07:51:55Z</time>
      </trkpt>
      <trkpt lat="45.15399" lon="2.93038">
        <ele>1075.1</ele>
        <time>2021-07-23T07:51:59Z</time>
      </trkpt>
      <trkpt lat="45.15403" lon="2.93035">
        <ele>1075.7</ele>
        <time>2021-07-23T07:52:03Z</time>
      </trkpt>
      <trkpt lat="45.15407" lon="2.9303">
        <ele>1076.4</ele>
        <time>2021-07-23T07:52:07Z</time>
      </trkpt>
      <trkpt lat="45.15411" lon="2.93025">
        <ele>1077.1</ele>
        <time>2021-07-23T07:52:11Z</time>
      </trkpt>
      <trkpt lat="45.15414" lon="2.93019">
        <ele>1077.8</ele>
        <time>2021-07-23T07:52:15Z</time>
      </trkpt>
      <trkpt lat="45.15417" lon="2.93012">
        <ele>1078.5</ele>
        <time>2021-07-23T07:52:19Z</time>
      </trkpt>
      <trkpt lat="45.15421" lon="2.93004">
        <ele>1078.9</ele>
        <time>2021-07-23T07:52:23Z</time>
      </trkpt>
      <trkpt lat="45.15425" lon="2.92996">
        <ele>1079.3</ele>
        <time>2021-07-23T07:52:27Z</time>
      </trkpt>
      <trkpt lat="45.15433" lon="2.92992">
        <ele>1079.6</ele>
        <time>2021-07-23T07:52:31Z</time>
      </trkpt>
      <trkpt lat="45.15437" lon="2.92989">
        <ele>1079.8</ele>
        <time>2021-07-23T07:52:33Z</time>
      </trkpt>
      <trkpt lat="45.15443" lon="2.92981">
        <ele>1080.1</ele>
        <time>2021-07-23T07:52:37Z</time>
      </trkpt>
      <trkpt lat="45.15449" lon="2.92974">
        <ele>1080.4</ele>
        <time>2021-07-23T07:52:41Z</time>
      </trkpt>
      <trkpt lat="45.15456" lon="2.92968">
        <ele>1080.7</ele>
        <time>2021-07-23T07:52:45Z</time>
      </trkpt>
      <trkpt lat="45.15463" lon="2.92965">
        <ele>1081</ele>
        <time>2021-07-23T07:52:49Z</time>
      </trkpt>
      <trkpt lat="45.1547" lon="2.92962">
        <ele>1081.2</ele>
        <time>2021-07-23T07:52:53Z</time>
      </trkpt>
      <trkpt lat="45.15475" lon="2.92956">
        <ele>1081.4</ele>
        <time>2021-07-23T07:52:57Z</time>
      </trkpt>
      <trkpt lat="45.1548" lon="2.92952">
        <ele>1081.7</ele>
        <time>2021-07-23T07:53:01Z</time>
      </trkpt>
      <trkpt lat="45.15485" lon="2.92947">
        <ele>1081.9</ele>
        <time>2021-07-23T07:53:05Z</time>
      </trkpt>
      <trkpt lat="45.1549" lon="2.92943">
        <ele>1082.1</ele>
        <time>2021-07-23T07:53:09Z</time>
      </trkpt>
      <trkpt lat="45.15493" lon="2.92937">
        <ele>1082.4</ele>
        <time>2021-07-23T07:53:13Z</time>
      </trkpt>
      <trkpt lat="45.15494" lon="2.9293">
        <ele>1082.5</ele>
        <time>2021-07-23T07:53:43Z</time>
      </trkpt>
      <trkpt lat="45.15493" lon="2.92922">
        <ele>1082.7</ele>
        <time>2021-07-23T07:53:49Z</time>
      </trkpt>
      <trkpt lat="45.15493" lon="2.92914">
        <ele>1082.9</ele>
        <time>2021-07-23T07:53:53Z</time>
      </trkpt>
      <trkpt lat="45.15491" lon="2.92904">
        <ele>1083.1</ele>
        <time>2021-07-23T07:53:57Z</time>
      </trkpt>
      <trkpt lat="45.15488" lon="2.92893">
        <ele>1083.2</ele>
        <time>2021-07-23T07:54:01Z</time>
      </trkpt>
      <trkpt lat="45.15486" lon="2.92887">
        <ele>1083.3</ele>
        <time>2021-07-23T07:54:03Z</time>
      </trkpt>
      <trkpt lat="45.15483" lon="2.92881">
        <ele>1083.4</ele>
        <time>2021-07-23T07:54:05Z</time>
      </trkpt>
      <trkpt lat="45.1548" lon="2.92874">
        <ele>1083.4</ele>
        <time>2021-07-23T07:54:07Z</time>
      </trkpt>
      <trkpt lat="45.15476" lon="2.92869">
        <ele>1083.4</ele>
        <time>2021-07-23T07:54:09Z</time>
      </trkpt>
      <trkpt lat="45.1547" lon="2.9286">
        <ele>1083.4</ele>
        <time>2021-07-23T07:54:13Z</time>
      </trkpt>
      <trkpt lat="45.15467" lon="2.92855">
        <ele>1083.4</ele>
        <time>2021-07-23T07:54:15Z</time>
      </trkpt>
      <trkpt lat="45.15461" lon="2.92848">
        <ele>1083.3</ele>
        <time>2021-07-23T07:54:19Z</time>
      </trkpt>
      <trkpt lat="45.15455" lon="2.92839">
        <ele>1083.3</ele>
        <time>2021-07-23T07:54:23Z</time>
      </trkpt>
      <trkpt lat="45.1545" lon="2.9283">
        <ele>1083.3</ele>
        <time>2021-07-23T07:54:27Z</time>
      </trkpt>
      <trkpt lat="45.15446" lon="2.92819">
        <ele>1083.3</ele>
        <time>2021-07-23T07:54:31Z</time>
      </trkpt>
      <trkpt lat="45.15443" lon="2.92809">
        <ele>1083.3</ele>
        <time>2021-07-23T07:54:35Z</time>
      </trkpt>
      <trkpt lat="45.1544" lon="2.92798">
        <ele>1083.3</ele>
        <time>2021-07-23T07:54:39Z</time>
      </trkpt>
      <trkpt lat="45.15439" lon="2.92792">
        <ele>1083.3</ele>
        <time>2021-07-23T07:54:41Z</time>
      </trkpt>
      <trkpt lat="45.15438" lon="2.92786">
        <ele>1083.3</ele>
        <time>2021-07-23T07:54:43Z</time>
      </trkpt>
      <trkpt lat="45.15436" lon="2.92778">
        <ele>1083.3</ele>
        <time>2021-07-23T07:54:45Z</time>
      </trkpt>
      <trkpt lat="45.15435" lon="2.92769">
        <ele>1083.3</ele>
        <time>2021-07-23T07:54:47Z</time>
      </trkpt>
      <trkpt lat="45.15434" lon="2.92758">
        <ele>1083.3</ele>
        <time>2021-07-23T07:54:49Z</time>
      </trkpt>
      <trkpt lat="45.15433" lon="2.92747">
        <ele>1083.3</ele>
        <time>2021-07-23T07:54:51Z</time>
      </trkpt>
      <trkpt lat="45.15432" lon="2.92737">
        <ele>1083.2</ele>
        <time>2021-07-23T07:54:53Z</time>
      </trkpt>
      <trkpt lat="45.15431" lon="2.92726">
        <ele>1083.1</ele>
        <time>2021-07-23T07:54:55Z</time>
      </trkpt>
      <trkpt lat="45.15432" lon="2.92714">
        <ele>1083.2</ele>
        <time>2021-07-23T07:54:57Z</time>
      </trkpt>
      <trkpt lat="45.15434" lon="2.927">
        <ele>1083.3</ele>
        <time>2021-07-23T07:54:59Z</time>
      </trkpt>
      <trkpt lat="45.15435" lon="2.92689">
        <ele>1083.5</ele>
        <time>2021-07-23T07:55:01Z</time>
      </trkpt>
      <trkpt lat="45.15437" lon="2.92677">
        <ele>1083.7</ele>
        <time>2021-07-23T07:55:03Z</time>
      </trkpt>
      <trkpt lat="45.1544" lon="2.92667">
        <ele>1084.1</ele>
        <time>2021-07-23T07:55:05Z</time>
      </trkpt>
      <trkpt lat="45.15445" lon="2.92656">
        <ele>1084.6</ele>
        <time>2021-07-23T07:55:07Z</time>
      </trkpt>
      <trkpt lat="45.15449" lon="2.92646">
        <ele>1085.1</ele>
        <time>2021-07-23T07:55:09Z</time>
      </trkpt>
      <trkpt lat="45.15455" lon="2.92637">
        <ele>1085.7</ele>
        <time>2021-07-23T07:55:11Z</time>
      </trkpt>
      <trkpt lat="45.1546" lon="2.92628">
        <ele>1086.2</ele>
        <time>2021-07-23T07:55:13Z</time>
      </trkpt>
      <trkpt lat="45.15465" lon="2.92617">
        <ele>1086.7</ele>
        <time>2021-07-23T07:55:15Z</time>
      </trkpt>
      <trkpt lat="45.15469" lon="2.92606">
        <ele>1086.9</ele>
        <time>2021-07-23T07:55:17Z</time>
      </trkpt>
      <trkpt lat="45.15471" lon="2.92594">
        <ele>1087</ele>
        <time>2021-07-23T07:55:19Z</time>
      </trkpt>
      <trkpt lat="45.15472" lon="2.92583">
        <ele>1087</ele>
        <time>2021-07-23T07:55:21Z</time>
      </trkpt>
      <trkpt lat="45.15473" lon="2.92572">
        <ele>1087.3</ele>
        <time>2021-07-23T07:55:23Z</time>
      </trkpt>
      <trkpt lat="45.15473" lon="2.92563">
        <ele>1087.5</ele>
        <time>2021-07-23T07:55:25Z</time>
      </trkpt>
      <trkpt lat="45.15473" lon="2.92554">
        <ele>1087.7</ele>
        <time>2021-07-23T07:55:27Z</time>
      </trkpt>
      <trkpt lat="45.15473" lon="2.92546">
        <ele>1087.8</ele>
        <time>2021-07-23T07:55:29Z</time>
      </trkpt>
      <trkpt lat="45.15474" lon="2.92538">
        <ele>1088.1</ele>
        <time>2021-07-23T07:55:31Z</time>
      </trkpt>
      <trkpt lat="45.15475" lon="2.9253">
        <ele>1088.3</ele>
        <time>2021-07-23T07:55:33Z</time>
      </trkpt>
      <trkpt lat="45.15476" lon="2.92521">
        <ele>1088.6</ele>
        <time>2021-07-23T07:55:35Z</time>
      </trkpt>
      <trkpt lat="45.15478" lon="2.92512">
        <ele>1088.9</ele>
        <time>2021-07-23T07:55:37Z</time>
      </trkpt>
      <trkpt lat="45.15478" lon="2.92502">
        <ele>1089.1</ele>
        <time>2021-07-23T07:55:39Z</time>
      </trkpt>
      <trkpt lat="45.15479" lon="2.92493">
        <ele>1089.5</ele>
        <time>2021-07-23T07:55:41Z</time>
      </trkpt>
      <trkpt lat="45.1548" lon="2.92483">
        <ele>1089.8</ele>
        <time>2021-07-23T07:55:43Z</time>
      </trkpt>
      <trkpt lat="45.15481" lon="2.92474">
        <ele>1090.2</ele>
        <time>2021-07-23T07:55:45Z</time>
      </trkpt>
      <trkpt lat="45.15481" lon="2.92465">
        <ele>1090.5</ele>
        <time>2021-07-23T07:55:47Z</time>
      </trkpt>
      <trkpt lat="45.15481" lon="2.92457">
        <ele>1090.8</ele>
        <time>2021-07-23T07:55:49Z</time>
      </trkpt>
      <trkpt lat="45.15482" lon="2.92448">
        <ele>1091.1</ele>
        <time>2021-07-23T07:55:51Z</time>
      </trkpt>
      <trkpt lat="45.15482" lon="2.92439">
        <ele>1091.4</ele>
        <time>2021-07-23T07:55:53Z</time>
      </trkpt>
      <trkpt lat="45.15482" lon="2.9243">
        <ele>1091.6</ele>
        <time>2021-07-23T07:55:55Z</time>
      </trkpt>
      <trkpt lat="45.15481" lon="2.92421">
        <ele>1091.9</ele>
        <time>2021-07-23T07:55:57Z</time>
      </trkpt>
      <trkpt lat="45.15481" lon="2.92412">
        <ele>1092.1</ele>
        <time>2021-07-23T07:55:59Z</time>
      </trkpt>
      <trkpt lat="45.15479" lon="2.92404">
        <ele>1092.4</ele>
        <time>2021-07-23T07:56:01Z</time>
      </trkpt>
      <trkpt lat="45.15478" lon="2.92395">
        <ele>1092.8</ele>
        <time>2021-07-23T07:56:03Z</time>
      </trkpt>
      <trkpt lat="45.15477" lon="2.92388">
        <ele>1093</ele>
        <time>2021-07-23T07:56:05Z</time>
      </trkpt>
      <trkpt lat="45.15476" lon="2.9238">
        <ele>1093.3</ele>
        <time>2021-07-23T07:56:07Z</time>
      </trkpt>
      <trkpt lat="45.15475" lon="2.92373">
        <ele>1093.6</ele>
        <time>2021-07-23T07:56:09Z</time>
      </trkpt>
      <trkpt lat="45.15474" lon="2.92366">
        <ele>1093.9</ele>
        <time>2021-07-23T07:56:11Z</time>
      </trkpt>
      <trkpt lat="45.15473" lon="2.92358">
        <ele>1094.1</ele>
        <time>2021-07-23T07:56:13Z</time>
      </trkpt>
      <trkpt lat="45.15472" lon="2.9235">
        <ele>1094.4</ele>
        <time>2021-07-23T07:56:15Z</time>
      </trkpt>
      <trkpt lat="45.15471" lon="2.92342">
        <ele>1094.7</ele>
        <time>2021-07-23T07:56:17Z</time>
      </trkpt>
      <trkpt lat="45.1547" lon="2.92334">
        <ele>1095</ele>
        <time>2021-07-23T07:56:19Z</time>
      </trkpt>
      <trkpt lat="45.15469" lon="2.92327">
        <ele>1095.2</ele>
        <time>2021-07-23T07:56:21Z</time>
      </trkpt>
      <trkpt lat="45.15469" lon="2.9232">
        <ele>1095.5</ele>
        <time>2021-07-23T07:56:23Z</time>
      </trkpt>
      <trkpt lat="45.1547" lon="2.92313">
        <ele>1095.9</ele>
        <time>2021-07-23T07:56:25Z</time>
      </trkpt>
      <trkpt lat="45.1547" lon="2.92305">
        <ele>1096.3</ele>
        <time>2021-07-23T07:56:27Z</time>
      </trkpt>
      <trkpt lat="45.15471" lon="2.92298">
        <ele>1096.7</ele>
        <time>2021-07-23T07:56:29Z</time>
      </trkpt>
      <trkpt lat="45.15471" lon="2.9229">
        <ele>1097.1</ele>
        <time>2021-07-23T07:56:31Z</time>
      </trkpt>
      <trkpt lat="45.15472" lon="2.92282">
        <ele>1097.5</ele>
        <time>2021-07-23T07:56:33Z</time>
      </trkpt>
      <trkpt lat="45.15473" lon="2.92273">
        <ele>1098</ele>
        <time>2021-07-23T07:56:35Z</time>
      </trkpt>
      <trkpt lat="45.15474" lon="2.92265">
        <ele>1098.5</ele>
        <time>2021-07-23T07:56:37Z</time>
      </trkpt>
      <trkpt lat="45.15476" lon="2.92257">
        <ele>1099</ele>
        <time>2021-07-23T07:56:39Z</time>
      </trkpt>
      <trkpt lat="45.15477" lon="2.9225">
        <ele>1099.5</ele>
        <time>2021-07-23T07:56:41Z</time>
      </trkpt>
      <trkpt lat="45.15478" lon="2.92243">
        <ele>1099.7</ele>
        <time>2021-07-23T07:56:43Z</time>
      </trkpt>
      <trkpt lat="45.15479" lon="2.92235">
        <ele>1099.9</ele>
        <time>2021-07-23T07:56:45Z</time>
      </trkpt>
      <trkpt lat="45.1548" lon="2.92228">
        <ele>1100.2</ele>
        <time>2021-07-23T07:56:47Z</time>
      </trkpt>
      <trkpt lat="45.15481" lon="2.92221">
        <ele>1100.3</ele>
        <time>2021-07-23T07:56:49Z</time>
      </trkpt>
      <trkpt lat="45.15481" lon="2.92214">
        <ele>1100.5</ele>
        <time>2021-07-23T07:56:51Z</time>
      </trkpt>
      <trkpt lat="45.15482" lon="2.92207">
        <ele>1100.6</ele>
        <time>2021-07-23T07:56:53Z</time>
      </trkpt>
      <trkpt lat="45.15482" lon="2.922">
        <ele>1100.8</ele>
        <time>2021-07-23T07:56:55Z</time>
      </trkpt>
      <trkpt lat="45.15482" lon="2.92194">
        <ele>1100.9</ele>
        <time>2021-07-23T07:56:57Z</time>
      </trkpt>
      <trkpt lat="45.15483" lon="2.92187">
        <ele>1101.1</ele>
        <time>2021-07-23T07:56:59Z</time>
      </trkpt>
      <trkpt lat="45.15483" lon="2.9218">
        <ele>1101.1</ele>
        <time>2021-07-23T07:57:01Z</time>
      </trkpt>
      <trkpt lat="45.15483" lon="2.92174">
        <ele>1101.2</ele>
        <time>2021-07-23T07:57:03Z</time>
      </trkpt>
      <trkpt lat="45.15482" lon="2.92167">
        <ele>1101.3</ele>
        <time>2021-07-23T07:57:05Z</time>
      </trkpt>
      <trkpt lat="45.15484" lon="2.92161">
        <ele>1101.5</ele>
        <time>2021-07-23T07:57:07Z</time>
      </trkpt>
      <trkpt lat="45.15484" lon="2.92154">
        <ele>1101.7</ele>
        <time>2021-07-23T07:57:09Z</time>
      </trkpt>
      <trkpt lat="45.15485" lon="2.92148">
        <ele>1101.8</ele>
        <time>2021-07-23T07:57:11Z</time>
      </trkpt>
      <trkpt lat="45.15486" lon="2.92141">
        <ele>1102</ele>
        <time>2021-07-23T07:57:13Z</time>
      </trkpt>
      <trkpt lat="45.15487" lon="2.92134">
        <ele>1102.2</ele>
        <time>2021-07-23T07:57:15Z</time>
      </trkpt>
      <trkpt lat="45.15488" lon="2.92128">
        <ele>1102.3</ele>
        <time>2021-07-23T07:57:17Z</time>
      </trkpt>
      <trkpt lat="45.15489" lon="2.92121">
        <ele>1102.5</ele>
        <time>2021-07-23T07:57:19Z</time>
      </trkpt>
      <trkpt lat="45.1549" lon="2.92114">
        <ele>1102.7</ele>
        <time>2021-07-23T07:57:21Z</time>
      </trkpt>
      <trkpt lat="45.15492" lon="2.92108">
        <ele>1102.9</ele>
        <time>2021-07-23T07:57:23Z</time>
      </trkpt>
      <trkpt lat="45.15494" lon="2.92103">
        <ele>1103.2</ele>
        <time>2021-07-23T07:57:25Z</time>
      </trkpt>
      <trkpt lat="45.15498" lon="2.92092">
        <ele>1103.7</ele>
        <time>2021-07-23T07:57:29Z</time>
      </trkpt>
      <trkpt lat="45.15499" lon="2.92085">
        <ele>1103.9</ele>
        <time>2021-07-23T07:57:31Z</time>
      </trkpt>
      <trkpt lat="45.155" lon="2.92078">
        <ele>1104</ele>
        <time>2021-07-23T07:57:33Z</time>
      </trkpt>
      <trkpt lat="45.15502" lon="2.92072">
        <ele>1104.2</ele>
        <time>2021-07-23T07:57:35Z</time>
      </trkpt>
      <trkpt lat="45.15503" lon="2.92065">
        <ele>1104.2</ele>
        <time>2021-07-23T07:57:37Z</time>
      </trkpt>
      <trkpt lat="45.15505" lon="2.92058">
        <ele>1104.4</ele>
        <time>2021-07-23T07:57:39Z</time>
      </trkpt>
      <trkpt lat="45.15506" lon="2.92051">
        <ele>1104.5</ele>
        <time>2021-07-23T07:57:41Z</time>
      </trkpt>
      <trkpt lat="45.15507" lon="2.92044">
        <ele>1104.5</ele>
        <time>2021-07-23T07:57:43Z</time>
      </trkpt>
      <trkpt lat="45.15509" lon="2.92037">
        <ele>1104.7</ele>
        <time>2021-07-23T07:57:45Z</time>
      </trkpt>
      <trkpt lat="45.1551" lon="2.92031">
        <ele>1104.8</ele>
        <time>2021-07-23T07:57:47Z</time>
      </trkpt>
      <trkpt lat="45.15511" lon="2.92023">
        <ele>1104.8</ele>
        <time>2021-07-23T07:57:49Z</time>
      </trkpt>
      <trkpt lat="45.15512" lon="2.92015">
        <ele>1104.8</ele>
        <time>2021-07-23T07:57:51Z</time>
      </trkpt>
      <trkpt lat="45.15513" lon="2.92007">
        <ele>1104.9</ele>
        <time>2021-07-23T07:57:53Z</time>
      </trkpt>
      <trkpt lat="45.15515" lon="2.91999">
        <ele>1105</ele>
        <time>2021-07-23T07:57:55Z</time>
      </trkpt>
      <trkpt lat="45.15516" lon="2.9199">
        <ele>1105.2</ele>
        <time>2021-07-23T07:57:57Z</time>
      </trkpt>
      <trkpt lat="45.15517" lon="2.91981">
        <ele>1105.3</ele>
        <time>2021-07-23T07:57:59Z</time>
      </trkpt>
      <trkpt lat="45.15518" lon="2.91972">
        <ele>1105.5</ele>
        <time>2021-07-23T07:58:01Z</time>
      </trkpt>
      <trkpt lat="45.15518" lon="2.91961">
        <ele>1105.5</ele>
        <time>2021-07-23T07:58:03Z</time>
      </trkpt>
      <trkpt lat="45.15519" lon="2.91951">
        <ele>1105.7</ele>
        <time>2021-07-23T07:58:05Z</time>
      </trkpt>
      <trkpt lat="45.15522" lon="2.91942">
        <ele>1106</ele>
        <time>2021-07-23T07:58:07Z</time>
      </trkpt>
      <trkpt lat="45.15524" lon="2.91933">
        <ele>1106.3</ele>
        <time>2021-07-23T07:58:09Z</time>
      </trkpt>
      <trkpt lat="45.15527" lon="2.91925">
        <ele>1106.6</ele>
        <time>2021-07-23T07:58:11Z</time>
      </trkpt>
      <trkpt lat="45.15529" lon="2.91917">
        <ele>1106.8</ele>
        <time>2021-07-23T07:58:13Z</time>
      </trkpt>
      <trkpt lat="45.1553" lon="2.91908">
        <ele>1106.8</ele>
        <time>2021-07-23T07:58:15Z</time>
      </trkpt>
      <trkpt lat="45.15531" lon="2.91898">
        <ele>1106.7</ele>
        <time>2021-07-23T07:58:17Z</time>
      </trkpt>
      <trkpt lat="45.15532" lon="2.91889">
        <ele>1106.6</ele>
        <time>2021-07-23T07:58:19Z</time>
      </trkpt>
      <trkpt lat="45.15533" lon="2.91881">
        <ele>1106.5</ele>
        <time>2021-07-23T07:58:21Z</time>
      </trkpt>
      <trkpt lat="45.15532" lon="2.91872">
        <ele>1106.3</ele>
        <time>2021-07-23T07:58:23Z</time>
      </trkpt>
      <trkpt lat="45.15532" lon="2.91863">
        <ele>1106.2</ele>
        <time>2021-07-23T07:58:25Z</time>
      </trkpt>
      <trkpt lat="45.15532" lon="2.91853">
        <ele>1106.1</ele>
        <time>2021-07-23T07:58:27Z</time>
      </trkpt>
      <trkpt lat="45.15532" lon="2.91844">
        <ele>1105.9</ele>
        <time>2021-07-23T07:58:29Z</time>
      </trkpt>
      <trkpt lat="45.15531" lon="2.91835">
        <ele>1105.6</ele>
        <time>2021-07-23T07:58:31Z</time>
      </trkpt>
      <trkpt lat="45.15531" lon="2.91826">
        <ele>1105.6</ele>
        <time>2021-07-23T07:58:33Z</time>
      </trkpt>
      <trkpt lat="45.1553" lon="2.91817">
        <ele>1105.5</ele>
        <time>2021-07-23T07:58:35Z</time>
      </trkpt>
      <trkpt lat="45.1553" lon="2.91808">
        <ele>1105.4</ele>
        <time>2021-07-23T07:58:37Z</time>
      </trkpt>
      <trkpt lat="45.1553" lon="2.91799">
        <ele>1105.3</ele>
        <time>2021-07-23T07:58:39Z</time>
      </trkpt>
      <trkpt lat="45.15531" lon="2.9179">
        <ele>1105.4</ele>
        <time>2021-07-23T07:58:41Z</time>
      </trkpt>
      <trkpt lat="45.15531" lon="2.91782">
        <ele>1105.3</ele>
        <time>2021-07-23T07:58:43Z</time>
      </trkpt>
      <trkpt lat="45.15532" lon="2.91775">
        <ele>1105.4</ele>
        <time>2021-07-23T07:58:45Z</time>
      </trkpt>
      <trkpt lat="45.15533" lon="2.91766">
        <ele>1105.4</ele>
        <time>2021-07-23T07:58:47Z</time>
      </trkpt>
      <trkpt lat="45.15533" lon="2.91758">
        <ele>1105.4</ele>
        <time>2021-07-23T07:58:49Z</time>
      </trkpt>
      <trkpt lat="45.15533" lon="2.91749">
        <ele>1105.4</ele>
        <time>2021-07-23T07:58:51Z</time>
      </trkpt>
      <trkpt lat="45.15533" lon="2.91741">
        <ele>1105.7</ele>
        <time>2021-07-23T07:58:53Z</time>
      </trkpt>
      <trkpt lat="45.15534" lon="2.91732">
        <ele>1106.1</ele>
        <time>2021-07-23T07:58:55Z</time>
      </trkpt>
      <trkpt lat="45.15534" lon="2.91724">
        <ele>1106.4</ele>
        <time>2021-07-23T07:58:57Z</time>
      </trkpt>
      <trkpt lat="45.15534" lon="2.91716">
        <ele>1106.7</ele>
        <time>2021-07-23T07:58:59Z</time>
      </trkpt>
      <trkpt lat="45.15535" lon="2.91708">
        <ele>1107</ele>
        <time>2021-07-23T07:59:01Z</time>
      </trkpt>
      <trkpt lat="45.15535" lon="2.917">
        <ele>1107.4</ele>
        <time>2021-07-23T07:59:03Z</time>
      </trkpt>
      <trkpt lat="45.15536" lon="2.91691">
        <ele>1107.7</ele>
        <time>2021-07-23T07:59:05Z</time>
      </trkpt>
      <trkpt lat="45.15537" lon="2.91683">
        <ele>1108.1</ele>
        <time>2021-07-23T07:59:07Z</time>
      </trkpt>
      <trkpt lat="45.15537" lon="2.91675">
        <ele>1108.4</ele>
        <time>2021-07-23T07:59:09Z</time>
      </trkpt>
      <trkpt lat="45.15538" lon="2.91667">
        <ele>1108.8</ele>
        <time>2021-07-23T07:59:11Z</time>
      </trkpt>
      <trkpt lat="45.15539" lon="2.91659">
        <ele>1109</ele>
        <time>2021-07-23T07:59:13Z</time>
      </trkpt>
      <trkpt lat="45.15539" lon="2.91652">
        <ele>1109.3</ele>
        <time>2021-07-23T07:59:15Z</time>
      </trkpt>
      <trkpt lat="45.15539" lon="2.91644">
        <ele>1109.5</ele>
        <time>2021-07-23T07:59:17Z</time>
      </trkpt>
      <trkpt lat="45.1554" lon="2.91637">
        <ele>1109.8</ele>
        <time>2021-07-23T07:59:19Z</time>
      </trkpt>
      <trkpt lat="45.1554" lon="2.91629">
        <ele>1110</ele>
        <time>2021-07-23T07:59:21Z</time>
      </trkpt>
      <trkpt lat="45.1554" lon="2.91621">
        <ele>1110.3</ele>
        <time>2021-07-23T07:59:23Z</time>
      </trkpt>
      <trkpt lat="45.15542" lon="2.91613">
        <ele>1110.6</ele>
        <time>2021-07-23T07:59:25Z</time>
      </trkpt>
      <trkpt lat="45.15542" lon="2.91605">
        <ele>1110.9</ele>
        <time>2021-07-23T07:59:27Z</time>
      </trkpt>
      <trkpt lat="45.15543" lon="2.91596">
        <ele>1111.2</ele>
        <time>2021-07-23T07:59:29Z</time>
      </trkpt>
      <trkpt lat="45.15543" lon="2.91587">
        <ele>1111.5</ele>
        <time>2021-07-23T07:59:31Z</time>
      </trkpt>
      <trkpt lat="45.15544" lon="2.91579">
        <ele>1111.7</ele>
        <time>2021-07-23T07:59:33Z</time>
      </trkpt>
      <trkpt lat="45.15544" lon="2.91571">
        <ele>1111.7</ele>
        <time>2021-07-23T07:59:35Z</time>
      </trkpt>
      <trkpt lat="45.15544" lon="2.91563">
        <ele>1111.6</ele>
        <time>2021-07-23T07:59:37Z</time>
      </trkpt>
      <trkpt lat="45.15544" lon="2.91554">
        <ele>1111.6</ele>
        <time>2021-07-23T07:59:39Z</time>
      </trkpt>
      <trkpt lat="45.15545" lon="2.91547">
        <ele>1111.7</ele>
        <time>2021-07-23T07:59:41Z</time>
      </trkpt>
      <trkpt lat="45.15544" lon="2.9154">
        <ele>1111.6</ele>
        <time>2021-07-23T07:59:43Z</time>
      </trkpt>
      <trkpt lat="45.15544" lon="2.91534">
        <ele>1111.6</ele>
        <time>2021-07-23T07:59:45Z</time>
      </trkpt>
      <trkpt lat="45.15544" lon="2.91526">
        <ele>1111.6</ele>
        <time>2021-07-23T07:59:47Z</time>
      </trkpt>
      <trkpt lat="45.15544" lon="2.91517">
        <ele>1111.6</ele>
        <time>2021-07-23T07:59:49Z</time>
      </trkpt>
      <trkpt lat="45.15545" lon="2.91508">
        <ele>1111.6</ele>
        <time>2021-07-23T07:59:51Z</time>
      </trkpt>
      <trkpt lat="45.15547" lon="2.91497">
        <ele>1111.5</ele>
        <time>2021-07-23T07:59:53Z</time>
      </trkpt>
      <trkpt lat="45.15551" lon="2.91486">
        <ele>1110.9</ele>
        <time>2021-07-23T07:59:55Z</time>
      </trkpt>
      <trkpt lat="45.15554" lon="2.91473">
        <ele>1110.2</ele>
        <time>2021-07-23T07:59:57Z</time>
      </trkpt>
      <trkpt lat="45.15558" lon="2.91462">
        <ele>1109.7</ele>
        <time>2021-07-23T07:59:59Z</time>
      </trkpt>
      <trkpt lat="45.1556" lon="2.91453">
        <ele>1109.1</ele>
        <time>2021-07-23T08:00:01Z</time>
      </trkpt>
      <trkpt lat="45.15562" lon="2.91439">
        <ele>1108.2</ele>
        <time>2021-07-23T08:00:03Z</time>
      </trkpt>
      <trkpt lat="45.15564" lon="2.91422">
        <ele>1107.1</ele>
        <time>2021-07-23T08:00:05Z</time>
      </trkpt>
      <trkpt lat="45.15566" lon="2.91404">
        <ele>1106.3</ele>
        <time>2021-07-23T08:00:07Z</time>
      </trkpt>
      <trkpt lat="45.15569" lon="2.91385">
        <ele>1105.6</ele>
        <time>2021-07-23T08:00:09Z</time>
      </trkpt>
      <trkpt lat="45.15572" lon="2.91366">
        <ele>1104.7</ele>
        <time>2021-07-23T08:00:11Z</time>
      </trkpt>
      <trkpt lat="45.15574" lon="2.91348">
        <ele>1104</ele>
        <time>2021-07-23T08:00:13Z</time>
      </trkpt>
      <trkpt lat="45.15577" lon="2.91331">
        <ele>1103.1</ele>
        <time>2021-07-23T08:00:15Z</time>
      </trkpt>
      <trkpt lat="45.1558" lon="2.91315">
        <ele>1102.2</ele>
        <time>2021-07-23T08:00:17Z</time>
      </trkpt>
      <trkpt lat="45.15583" lon="2.91299">
        <ele>1101.4</ele>
        <time>2021-07-23T08:00:19Z</time>
      </trkpt>
      <trkpt lat="45.15585" lon="2.91283">
        <ele>1100.7</ele>
        <time>2021-07-23T08:00:21Z</time>
      </trkpt>
      <trkpt lat="45.15586" lon="2.91266">
        <ele>1099.8</ele>
        <time>2021-07-23T08:00:23Z</time>
      </trkpt>
      <trkpt lat="45.15588" lon="2.91247">
        <ele>1099</ele>
        <time>2021-07-23T08:00:25Z</time>
      </trkpt>
      <trkpt lat="45.15586" lon="2.91226">
        <ele>1098.4</ele>
        <time>2021-07-23T08:00:27Z</time>
      </trkpt>
      <trkpt lat="45.15584" lon="2.91205">
        <ele>1097.9</ele>
        <time>2021-07-23T08:00:29Z</time>
      </trkpt>
      <trkpt lat="45.15583" lon="2.91183">
        <ele>1097.4</ele>
        <time>2021-07-23T08:00:31Z</time>
      </trkpt>
      <trkpt lat="45.15585" lon="2.91163">
        <ele>1097.2</ele>
        <time>2021-07-23T08:00:33Z</time>
      </trkpt>
      <trkpt lat="45.15585" lon="2.91145">
        <ele>1098.5</ele>
        <time>2021-07-23T08:00:35Z</time>
      </trkpt>
      <trkpt lat="45.15583" lon="2.9113">
        <ele>1099.7</ele>
        <time>2021-07-23T08:00:37Z</time>
      </trkpt>
      <trkpt lat="45.15581" lon="2.91116">
        <ele>1100.6</ele>
        <time>2021-07-23T08:00:39Z</time>
      </trkpt>
      <trkpt lat="45.1558" lon="2.91105">
        <ele>1101.4</ele>
        <time>2021-07-23T08:00:41Z</time>
      </trkpt>
      <trkpt lat="45.15579" lon="2.91095">
        <ele>1102.1</ele>
        <time>2021-07-23T08:00:43Z</time>
      </trkpt>
      <trkpt lat="45.15579" lon="2.91086">
        <ele>1102.8</ele>
        <time>2021-07-23T08:00:45Z</time>
      </trkpt>
      <trkpt lat="45.1558" lon="2.91078">
        <ele>1103.1</ele>
        <time>2021-07-23T08:00:47Z</time>
      </trkpt>
      <trkpt lat="45.1558" lon="2.9107">
        <ele>1103.3</ele>
        <time>2021-07-23T08:00:49Z</time>
      </trkpt>
      <trkpt lat="45.1558" lon="2.91062">
        <ele>1103.5</ele>
        <time>2021-07-23T08:00:51Z</time>
      </trkpt>
      <trkpt lat="45.1558" lon="2.91054">
        <ele>1103.7</ele>
        <time>2021-07-23T08:00:53Z</time>
      </trkpt>
      <trkpt lat="45.15581" lon="2.91046">
        <ele>1103.9</ele>
        <time>2021-07-23T08:00:55Z</time>
      </trkpt>
      <trkpt lat="45.15581" lon="2.9104">
        <ele>1104.1</ele>
        <time>2021-07-23T08:00:57Z</time>
      </trkpt>
      <trkpt lat="45.15581" lon="2.91033">
        <ele>1104.2</ele>
        <time>2021-07-23T08:00:59Z</time>
      </trkpt>
      <trkpt lat="45.15581" lon="2.91025">
        <ele>1104.4</ele>
        <time>2021-07-23T08:01:01Z</time>
      </trkpt>
      <trkpt lat="45.15581" lon="2.91019">
        <ele>1104.6</ele>
        <time>2021-07-23T08:01:03Z</time>
      </trkpt>
      <trkpt lat="45.15582" lon="2.91007">
        <ele>1104.9</ele>
        <time>2021-07-23T08:01:07Z</time>
      </trkpt>
      <trkpt lat="45.15582" lon="2.90997">
        <ele>1105.2</ele>
        <time>2021-07-23T08:01:11Z</time>
      </trkpt>
      <trkpt lat="45.15582" lon="2.90985">
        <ele>1105.7</ele>
        <time>2021-07-23T08:01:15Z</time>
      </trkpt>
      <trkpt lat="45.15579" lon="2.90973">
        <ele>1106.3</ele>
        <time>2021-07-23T08:01:19Z</time>
      </trkpt>
      <trkpt lat="45.15578" lon="2.90963">
        <ele>1106.8</ele>
        <time>2021-07-23T08:01:23Z</time>
      </trkpt>
      <trkpt lat="45.15578" lon="2.90951">
        <ele>1107.3</ele>
        <time>2021-07-23T08:01:27Z</time>
      </trkpt>
      <trkpt lat="45.1558" lon="2.90941">
        <ele>1107.8</ele>
        <time>2021-07-23T08:01:31Z</time>
      </trkpt>
      <trkpt lat="45.15581" lon="2.90931">
        <ele>1108.3</ele>
        <time>2021-07-23T08:01:35Z</time>
      </trkpt>
      <trkpt lat="45.15584" lon="2.9092">
        <ele>1108.8</ele>
        <time>2021-07-23T08:01:39Z</time>
      </trkpt>
      <trkpt lat="45.15587" lon="2.9091">
        <ele>1109.5</ele>
        <time>2021-07-23T08:01:43Z</time>
      </trkpt>
      <trkpt lat="45.15589" lon="2.90904">
        <ele>1110</ele>
        <time>2021-07-23T08:01:45Z</time>
      </trkpt>
      <trkpt lat="45.15594" lon="2.90894">
        <ele>1110.7</ele>
        <time>2021-07-23T08:01:49Z</time>
      </trkpt>
      <trkpt lat="45.15598" lon="2.90886">
        <ele>1111.4</ele>
        <time>2021-07-23T08:01:53Z</time>
      </trkpt>
      <trkpt lat="45.15602" lon="2.90875">
        <ele>1112.2</ele>
        <time>2021-07-23T08:01:57Z</time>
      </trkpt>
      <trkpt lat="45.15606" lon="2.90864">
        <ele>1113</ele>
        <time>2021-07-23T08:02:01Z</time>
      </trkpt>
      <trkpt lat="45.15611" lon="2.90855">
        <ele>1113.6</ele>
        <time>2021-07-23T08:02:05Z</time>
      </trkpt>
      <trkpt lat="45.15614" lon="2.9085">
        <ele>1114</ele>
        <time>2021-07-23T08:02:07Z</time>
      </trkpt>
      <trkpt lat="45.15618" lon="2.90839">
        <ele>1114.7</ele>
        <time>2021-07-23T08:02:11Z</time>
      </trkpt>
      <trkpt lat="45.1562" lon="2.90827">
        <ele>1115.4</ele>
        <time>2021-07-23T08:02:15Z</time>
      </trkpt>
      <trkpt lat="45.15625" lon="2.90817">
        <ele>1115.8</ele>
        <time>2021-07-23T08:02:19Z</time>
      </trkpt>
      <trkpt lat="45.15626" lon="2.9081">
        <ele>1116.1</ele>
        <time>2021-07-23T08:02:21Z</time>
      </trkpt>
      <trkpt lat="45.15627" lon="2.90804">
        <ele>1116.4</ele>
        <time>2021-07-23T08:02:23Z</time>
      </trkpt>
      <trkpt lat="45.15629" lon="2.90797">
        <ele>1116.6</ele>
        <time>2021-07-23T08:02:25Z</time>
      </trkpt>
      <trkpt lat="45.1563" lon="2.90791">
        <ele>1116.9</ele>
        <time>2021-07-23T08:02:27Z</time>
      </trkpt>
      <trkpt lat="45.15631" lon="2.90784">
        <ele>1117.2</ele>
        <time>2021-07-23T08:02:29Z</time>
      </trkpt>
      <trkpt lat="45.15632" lon="2.90778">
        <ele>1117.5</ele>
        <time>2021-07-23T08:02:31Z</time>
      </trkpt>
      <trkpt lat="45.15633" lon="2.90765">
        <ele>1118.1</ele>
        <time>2021-07-23T08:02:35Z</time>
      </trkpt>
      <trkpt lat="45.15637" lon="2.90753">
        <ele>1118.6</ele>
        <time>2021-07-23T08:02:39Z</time>
      </trkpt>
      <trkpt lat="45.15639" lon="2.90741">
        <ele>1119.1</ele>
        <time>2021-07-23T08:02:43Z</time>
      </trkpt>
      <trkpt lat="45.1564" lon="2.90734">
        <ele>1119.3</ele>
        <time>2021-07-23T08:02:45Z</time>
      </trkpt>
      <trkpt lat="45.15641" lon="2.90723">
        <ele>1119.8</ele>
        <time>2021-07-23T08:02:49Z</time>
      </trkpt>
      <trkpt lat="45.15639" lon="2.90714">
        <ele>1120.2</ele>
        <time>2021-07-23T08:02:53Z</time>
      </trkpt>
      <trkpt lat="45.15633" lon="2.90712">
        <ele>1120.5</ele>
        <time>2021-07-23T08:02:57Z</time>
      </trkpt>
      <trkpt lat="45.15628" lon="2.90711">
        <ele>1120.6</ele>
        <time>2021-07-23T08:03:01Z</time>
      </trkpt>
      <trkpt lat="45.15624" lon="2.90708">
        <ele>1120.8</ele>
        <time>2021-07-23T08:06:09Z</time>
      </trkpt>
      <trkpt lat="45.15616" lon="2.90706">
        <ele>1121</ele>
        <time>2021-07-23T08:06:13Z</time>
      </trkpt>
      <trkpt lat="45.15609" lon="2.90706">
        <ele>1121.1</ele>
        <time>2021-07-23T08:06:17Z</time>
      </trkpt>
      <trkpt lat="45.156" lon="2.90706">
        <ele>1121.3</ele>
        <time>2021-07-23T08:06:21Z</time>
      </trkpt>
      <trkpt lat="45.15595" lon="2.90707">
        <ele>1121.3</ele>
        <time>2021-07-23T08:06:23Z</time>
      </trkpt>
      <trkpt lat="45.1559" lon="2.90706">
        <ele>1121.5</ele>
        <time>2021-07-23T08:06:25Z</time>
      </trkpt>
      <trkpt lat="45.15583" lon="2.90704">
        <ele>1121.7</ele>
        <time>2021-07-23T08:06:29Z</time>
      </trkpt>
      <trkpt lat="45.15575" lon="2.90702">
        <ele>1121.7</ele>
        <time>2021-07-23T08:06:33Z</time>
      </trkpt>
      <trkpt lat="45.1557" lon="2.90702">
        <ele>1121.8</ele>
        <time>2021-07-23T08:06:35Z</time>
      </trkpt>
      <trkpt lat="45.15565" lon="2.907">
        <ele>1121.8</ele>
        <time>2021-07-23T08:06:37Z</time>
      </trkpt>
      <trkpt lat="45.15557" lon="2.90701">
        <ele>1121.8</ele>
        <time>2021-07-23T08:06:39Z</time>
      </trkpt>
      <trkpt lat="45.15552" lon="2.90701">
        <ele>1121.8</ele>
        <time>2021-07-23T08:06:41Z</time>
      </trkpt>
      <trkpt lat="45.15547" lon="2.90701">
        <ele>1121.9</ele>
        <time>2021-07-23T08:06:43Z</time>
      </trkpt>
      <trkpt lat="45.15542" lon="2.90702">
        <ele>1121.8</ele>
        <time>2021-07-23T08:06:45Z</time>
      </trkpt>
      <trkpt lat="45.15536" lon="2.90705">
        <ele>1121.7</ele>
        <time>2021-07-23T08:06:47Z</time>
      </trkpt>
      <trkpt lat="45.1553" lon="2.90706">
        <ele>1121.6</ele>
        <time>2021-07-23T08:06:49Z</time>
      </trkpt>
      <trkpt lat="45.15523" lon="2.90709">
        <ele>1121.5</ele>
        <time>2021-07-23T08:06:51Z</time>
      </trkpt>
      <trkpt lat="45.15516" lon="2.90712">
        <ele>1121.3</ele>
        <time>2021-07-23T08:06:53Z</time>
      </trkpt>
      <trkpt lat="45.15507" lon="2.90714">
        <ele>1121.2</ele>
        <time>2021-07-23T08:06:55Z</time>
      </trkpt>
      <trkpt lat="45.15498" lon="2.90718">
        <ele>1120.9</ele>
        <time>2021-07-23T08:06:57Z</time>
      </trkpt>
      <trkpt lat="45.1549" lon="2.9072">
        <ele>1120.3</ele>
        <time>2021-07-23T08:06:59Z</time>
      </trkpt>
      <trkpt lat="45.1548" lon="2.90722">
        <ele>1119.8</ele>
        <time>2021-07-23T08:07:01Z</time>
      </trkpt>
      <trkpt lat="45.15469" lon="2.90721">
        <ele>1119.4</ele>
        <time>2021-07-23T08:07:03Z</time>
      </trkpt>
      <trkpt lat="45.15461" lon="2.90716">
        <ele>1119.4</ele>
        <time>2021-07-23T08:07:05Z</time>
      </trkpt>
      <trkpt lat="45.15452" lon="2.90709">
        <ele>1119.4</ele>
        <time>2021-07-23T08:07:07Z</time>
      </trkpt>
      <trkpt lat="45.15444" lon="2.90706">
        <ele>1119.3</ele>
        <time>2021-07-23T08:07:09Z</time>
      </trkpt>
      <trkpt lat="45.15435" lon="2.90707">
        <ele>1118.8</ele>
        <time>2021-07-23T08:07:11Z</time>
      </trkpt>
      <trkpt lat="45.15426" lon="2.9071">
        <ele>1118.3</ele>
        <time>2021-07-23T08:07:13Z</time>
      </trkpt>
      <trkpt lat="45.15415" lon="2.90714">
        <ele>1117.6</ele>
        <time>2021-07-23T08:07:15Z</time>
      </trkpt>
      <trkpt lat="45.15407" lon="2.90715">
        <ele>1117.2</ele>
        <time>2021-07-23T08:07:17Z</time>
      </trkpt>
      <trkpt lat="45.15397" lon="2.90722">
        <ele>1116.4</ele>
        <time>2021-07-23T08:07:19Z</time>
      </trkpt>
      <trkpt lat="45.15389" lon="2.90721">
        <ele>1116.2</ele>
        <time>2021-07-23T08:07:21Z</time>
      </trkpt>
      <trkpt lat="45.15379" lon="2.90723">
        <ele>1115.7</ele>
        <time>2021-07-23T08:07:23Z</time>
      </trkpt>
      <trkpt lat="45.15371" lon="2.90727">
        <ele>1115.2</ele>
        <time>2021-07-23T08:07:25Z</time>
      </trkpt>
      <trkpt lat="45.15364" lon="2.90731">
        <ele>1114.8</ele>
        <time>2021-07-23T08:07:27Z</time>
      </trkpt>
      <trkpt lat="45.15356" lon="2.90735">
        <ele>1114.4</ele>
        <time>2021-07-23T08:07:29Z</time>
      </trkpt>
      <trkpt lat="45.15349" lon="2.9074">
        <ele>1113.9</ele>
        <time>2021-07-23T08:07:31Z</time>
      </trkpt>
      <trkpt lat="45.15342" lon="2.90746">
        <ele>1113.4</ele>
        <time>2021-07-23T08:07:33Z</time>
      </trkpt>
      <trkpt lat="45.15335" lon="2.90753">
        <ele>1113</ele>
        <time>2021-07-23T08:07:35Z</time>
      </trkpt>
      <trkpt lat="45.15326" lon="2.90759">
        <ele>1112.6</ele>
        <time>2021-07-23T08:07:37Z</time>
      </trkpt>
      <trkpt lat="45.15321" lon="2.90766">
        <ele>1112.3</ele>
        <time>2021-07-23T08:07:39Z</time>
      </trkpt>
      <trkpt lat="45.15314" lon="2.90771">
        <ele>1111.9</ele>
        <time>2021-07-23T08:07:41Z</time>
      </trkpt>
      <trkpt lat="45.15308" lon="2.90778">
        <ele>1111.6</ele>
        <time>2021-07-23T08:07:43Z</time>
      </trkpt>
      <trkpt lat="45.15302" lon="2.9078">
        <ele>1111.3</ele>
        <time>2021-07-23T08:07:45Z</time>
      </trkpt>
      <trkpt lat="45.15296" lon="2.90786">
        <ele>1111</ele>
        <time>2021-07-23T08:07:47Z</time>
      </trkpt>
      <trkpt lat="45.15289" lon="2.90793">
        <ele>1110.6</ele>
        <time>2021-07-23T08:07:49Z</time>
      </trkpt>
      <trkpt lat="45.15281" lon="2.908">
        <ele>1110.3</ele>
        <time>2021-07-23T08:07:51Z</time>
      </trkpt>
      <trkpt lat="45.15276" lon="2.90807">
        <ele>1110</ele>
        <time>2021-07-23T08:07:53Z</time>
      </trkpt>
      <trkpt lat="45.15269" lon="2.90814">
        <ele>1109.7</ele>
        <time>2021-07-23T08:07:55Z</time>
      </trkpt>
      <trkpt lat="45.15265" lon="2.90823">
        <ele>1109.6</ele>
        <time>2021-07-23T08:07:57Z</time>
      </trkpt>
      <trkpt lat="45.1526" lon="2.9083">
        <ele>1109.4</ele>
        <time>2021-07-23T08:07:59Z</time>
      </trkpt>
      <trkpt lat="45.15253" lon="2.90837">
        <ele>1109.2</ele>
        <time>2021-07-23T08:08:01Z</time>
      </trkpt>
      <trkpt lat="45.15246" lon="2.90842">
        <ele>1109</ele>
        <time>2021-07-23T08:08:03Z</time>
      </trkpt>
      <trkpt lat="45.15241" lon="2.90848">
        <ele>1109</ele>
        <time>2021-07-23T08:08:05Z</time>
      </trkpt>
      <trkpt lat="45.15238" lon="2.90856">
        <ele>1109.1</ele>
        <time>2021-07-23T08:08:07Z</time>
      </trkpt>
      <trkpt lat="45.15232" lon="2.9086">
        <ele>1109</ele>
        <time>2021-07-23T08:08:09Z</time>
      </trkpt>
      <trkpt lat="45.15226" lon="2.90864">
        <ele>1109</ele>
        <time>2021-07-23T08:08:11Z</time>
      </trkpt>
      <trkpt lat="45.15219" lon="2.9087">
        <ele>1109</ele>
        <time>2021-07-23T08:08:13Z</time>
      </trkpt>
      <trkpt lat="45.15212" lon="2.90876">
        <ele>1109.1</ele>
        <time>2021-07-23T08:08:15Z</time>
      </trkpt>
      <trkpt lat="45.15204" lon="2.90882">
        <ele>1109.1</ele>
        <time>2021-07-23T08:08:17Z</time>
      </trkpt>
      <trkpt lat="45.15198" lon="2.9089">
        <ele>1109.3</ele>
        <time>2021-07-23T08:08:19Z</time>
      </trkpt>
      <trkpt lat="45.1519" lon="2.90897">
        <ele>1109.4</ele>
        <time>2021-07-23T08:08:21Z</time>
      </trkpt>
      <trkpt lat="45.15183" lon="2.90901">
        <ele>1109.5</ele>
        <time>2021-07-23T08:08:23Z</time>
      </trkpt>
      <trkpt lat="45.15176" lon="2.90907">
        <ele>1109.7</ele>
        <time>2021-07-23T08:08:25Z</time>
      </trkpt>
      <trkpt lat="45.15169" lon="2.90914">
        <ele>1109.9</ele>
        <time>2021-07-23T08:08:27Z</time>
      </trkpt>
      <trkpt lat="45.15163" lon="2.90919">
        <ele>1109.8</ele>
        <time>2021-07-23T08:08:29Z</time>
      </trkpt>
      <trkpt lat="45.15156" lon="2.90925">
        <ele>1109.4</ele>
        <time>2021-07-23T08:08:31Z</time>
      </trkpt>
      <trkpt lat="45.15149" lon="2.9093">
        <ele>1109.1</ele>
        <time>2021-07-23T08:08:33Z</time>
      </trkpt>
      <trkpt lat="45.15141" lon="2.90934">
        <ele>1108.9</ele>
        <time>2021-07-23T08:08:35Z</time>
      </trkpt>
      <trkpt lat="45.15133" lon="2.90939">
        <ele>1108.6</ele>
        <time>2021-07-23T08:08:37Z</time>
      </trkpt>
      <trkpt lat="45.15124" lon="2.90944">
        <ele>1108.4</ele>
        <time>2021-07-23T08:08:39Z</time>
      </trkpt>
      <trkpt lat="45.15114" lon="2.90949">
        <ele>1108.3</ele>
        <time>2021-07-23T08:08:41Z</time>
      </trkpt>
      <trkpt lat="45.15105" lon="2.90954">
        <ele>1108.3</ele>
        <time>2021-07-23T08:08:43Z</time>
      </trkpt>
      <trkpt lat="45.15094" lon="2.90959">
        <ele>1108.3</ele>
        <time>2021-07-23T08:08:45Z</time>
      </trkpt>
      <trkpt lat="45.15083" lon="2.90967">
        <ele>1108.6</ele>
        <time>2021-07-23T08:08:47Z</time>
      </trkpt>
      <trkpt lat="45.15073" lon="2.90973">
        <ele>1107.7</ele>
        <time>2021-07-23T08:08:49Z</time>
      </trkpt>
      <trkpt lat="45.15061" lon="2.9098">
        <ele>1106.7</ele>
        <time>2021-07-23T08:08:51Z</time>
      </trkpt>
      <trkpt lat="45.15049" lon="2.90987">
        <ele>1105.8</ele>
        <time>2021-07-23T08:08:53Z</time>
      </trkpt>
      <trkpt lat="45.15037" lon="2.90995">
        <ele>1105</ele>
        <time>2021-07-23T08:08:55Z</time>
      </trkpt>
      <trkpt lat="45.15025" lon="2.91001">
        <ele>1104</ele>
        <time>2021-07-23T08:08:57Z</time>
      </trkpt>
      <trkpt lat="45.15013" lon="2.91006">
        <ele>1103</ele>
        <time>2021-07-23T08:08:59Z</time>
      </trkpt>
      <trkpt lat="45.14999" lon="2.91012">
        <ele>1101.9</ele>
        <time>2021-07-23T08:09:01Z</time>
      </trkpt>
      <trkpt lat="45.14986" lon="2.91013">
        <ele>1100.2</ele>
        <time>2021-07-23T08:09:03Z</time>
      </trkpt>
      <trkpt lat="45.14973" lon="2.91018">
        <ele>1098.7</ele>
        <time>2021-07-23T08:09:05Z</time>
      </trkpt>
      <trkpt lat="45.14963" lon="2.91022">
        <ele>1097.4</ele>
        <time>2021-07-23T08:09:07Z</time>
      </trkpt>
      <trkpt lat="45.14953" lon="2.91025">
        <ele>1096.2</ele>
        <time>2021-07-23T08:09:09Z</time>
      </trkpt>
      <trkpt lat="45.14941" lon="2.91029">
        <ele>1094.7</ele>
        <time>2021-07-23T08:09:11Z</time>
      </trkpt>
      <trkpt lat="45.14926" lon="2.91035">
        <ele>1092.7</ele>
        <time>2021-07-23T08:09:13Z</time>
      </trkpt>
      <trkpt lat="45.14913" lon="2.91042">
        <ele>1091.3</ele>
        <time>2021-07-23T08:09:15Z</time>
      </trkpt>
      <trkpt lat="45.14899" lon="2.91053">
        <ele>1090.7</ele>
        <time>2021-07-23T08:09:17Z</time>
      </trkpt>
      <trkpt lat="45.14886" lon="2.91063">
        <ele>1089.9</ele>
        <time>2021-07-23T08:09:19Z</time>
      </trkpt>
      <trkpt lat="45.14869" lon="2.91072">
        <ele>1088.9</ele>
        <time>2021-07-23T08:09:21Z</time>
      </trkpt>
      <trkpt lat="45.14853" lon="2.91077">
        <ele>1087.6</ele>
        <time>2021-07-23T08:09:23Z</time>
      </trkpt>
      <trkpt lat="45.14836" lon="2.9108">
        <ele>1086.2</ele>
        <time>2021-07-23T08:09:25Z</time>
      </trkpt>
      <trkpt lat="45.14821" lon="2.91079">
        <ele>1085.5</ele>
        <time>2021-07-23T08:09:27Z</time>
      </trkpt>
      <trkpt lat="45.14806" lon="2.91074">
        <ele>1085</ele>
        <time>2021-07-23T08:09:29Z</time>
      </trkpt>
      <trkpt lat="45.14793" lon="2.91072">
        <ele>1084.5</ele>
        <time>2021-07-23T08:09:31Z</time>
      </trkpt>
      <trkpt lat="45.14779" lon="2.9107">
        <ele>1084.1</ele>
        <time>2021-07-23T08:09:33Z</time>
      </trkpt>
      <trkpt lat="45.14767" lon="2.91067">
        <ele>1083.6</ele>
        <time>2021-07-23T08:09:35Z</time>
      </trkpt>
      <trkpt lat="45.14757" lon="2.91062">
        <ele>1083.2</ele>
        <time>2021-07-23T08:09:37Z</time>
      </trkpt>
      <trkpt lat="45.14748" lon="2.91054">
        <ele>1083</ele>
        <time>2021-07-23T08:09:39Z</time>
      </trkpt>
      <trkpt lat="45.1474" lon="2.91046">
        <ele>1083.1</ele>
        <time>2021-07-23T08:09:41Z</time>
      </trkpt>
      <trkpt lat="45.14733" lon="2.91037">
        <ele>1083.2</ele>
        <time>2021-07-23T08:09:43Z</time>
      </trkpt>
      <trkpt lat="45.14727" lon="2.91027">
        <ele>1083.4</ele>
        <time>2021-07-23T08:09:45Z</time>
      </trkpt>
      <trkpt lat="45.14722" lon="2.91019">
        <ele>1083.5</ele>
        <time>2021-07-23T08:09:47Z</time>
      </trkpt>
      <trkpt lat="45.14716" lon="2.91011">
        <ele>1083.7</ele>
        <time>2021-07-23T08:09:49Z</time>
      </trkpt>
      <trkpt lat="45.1471" lon="2.91003">
        <ele>1083.9</ele>
        <time>2021-07-23T08:09:51Z</time>
      </trkpt>
      <trkpt lat="45.14705" lon="2.90997">
        <ele>1084.2</ele>
        <time>2021-07-23T08:09:53Z</time>
      </trkpt>
      <trkpt lat="45.14699" lon="2.90991">
        <ele>1084.4</ele>
        <time>2021-07-23T08:09:55Z</time>
      </trkpt>
      <trkpt lat="45.14695" lon="2.90985">
        <ele>1084.7</ele>
        <time>2021-07-23T08:09:57Z</time>
      </trkpt>
      <trkpt lat="45.1469" lon="2.90981">
        <ele>1084.9</ele>
        <time>2021-07-23T08:09:59Z</time>
      </trkpt>
      <trkpt lat="45.14686" lon="2.90976">
        <ele>1085.1</ele>
        <time>2021-07-23T08:10:01Z</time>
      </trkpt>
      <trkpt lat="45.14681" lon="2.90972">
        <ele>1085.3</ele>
        <time>2021-07-23T08:10:03Z</time>
      </trkpt>
      <trkpt lat="45.14677" lon="2.90967">
        <ele>1085.5</ele>
        <time>2021-07-23T08:10:05Z</time>
      </trkpt>
      <trkpt lat="45.14674" lon="2.90963">
        <ele>1085.7</ele>
        <time>2021-07-23T08:10:07Z</time>
      </trkpt>
      <trkpt lat="45.14669" lon="2.90959">
        <ele>1085.9</ele>
        <time>2021-07-23T08:10:09Z</time>
      </trkpt>
      <trkpt lat="45.14665" lon="2.90956">
        <ele>1086</ele>
        <time>2021-07-23T08:10:11Z</time>
      </trkpt>
      <trkpt lat="45.1466" lon="2.90946">
        <ele>1086</ele>
        <time>2021-07-23T08:10:15Z</time>
      </trkpt>
      <trkpt lat="45.14667" lon="2.90939">
        <ele>1086.5</ele>
        <time>2021-07-23T08:10:19Z</time>
      </trkpt>
      <trkpt lat="45.1467" lon="2.90934">
        <ele>1086.5</ele>
        <time>2021-07-23T08:10:21Z</time>
      </trkpt>
      <trkpt lat="45.14672" lon="2.90929">
        <ele>1086.6</ele>
        <time>2021-07-23T08:10:23Z</time>
      </trkpt>
      <trkpt lat="45.14675" lon="2.90923">
        <ele>1086.6</ele>
        <time>2021-07-23T08:10:25Z</time>
      </trkpt>
      <trkpt lat="45.14677" lon="2.90917">
        <ele>1086.7</ele>
        <time>2021-07-23T08:10:27Z</time>
      </trkpt>
      <trkpt lat="45.1468" lon="2.90906">
        <ele>1086.8</ele>
        <time>2021-07-23T08:10:31Z</time>
      </trkpt>
      <trkpt lat="45.14683" lon="2.909">
        <ele>1086.9</ele>
        <time>2021-07-23T08:10:33Z</time>
      </trkpt>
      <trkpt lat="45.14686" lon="2.9089">
        <ele>1087</ele>
        <time>2021-07-23T08:10:37Z</time>
      </trkpt>
      <trkpt lat="45.14691" lon="2.90881">
        <ele>1087.1</ele>
        <time>2021-07-23T08:10:41Z</time>
      </trkpt>
      <trkpt lat="45.14695" lon="2.90871">
        <ele>1087.2</ele>
        <time>2021-07-23T08:10:45Z</time>
      </trkpt>
      <trkpt lat="45.14696" lon="2.90859">
        <ele>1087.5</ele>
        <time>2021-07-23T08:10:49Z</time>
      </trkpt>
      <trkpt lat="45.14696" lon="2.90848">
        <ele>1087.7</ele>
        <time>2021-07-23T08:10:53Z</time>
      </trkpt>
      <trkpt lat="45.14694" lon="2.90836">
        <ele>1087.9</ele>
        <time>2021-07-23T08:10:57Z</time>
      </trkpt>
      <trkpt lat="45.14694" lon="2.90825">
        <ele>1088.1</ele>
        <time>2021-07-23T08:11:01Z</time>
      </trkpt>
      <trkpt lat="45.14693" lon="2.90814">
        <ele>1088.2</ele>
        <time>2021-07-23T08:11:05Z</time>
      </trkpt>
      <trkpt lat="45.14692" lon="2.90804">
        <ele>1088.4</ele>
        <time>2021-07-23T08:11:09Z</time>
      </trkpt>
      <trkpt lat="45.14692" lon="2.90793">
        <ele>1088.5</ele>
        <time>2021-07-23T08:11:13Z</time>
      </trkpt>
      <trkpt lat="45.14693" lon="2.90783">
        <ele>1088.6</ele>
        <time>2021-07-23T08:11:17Z</time>
      </trkpt>
      <trkpt lat="45.14693" lon="2.90773">
        <ele>1088.7</ele>
        <time>2021-07-23T08:11:21Z</time>
      </trkpt>
      <trkpt lat="45.14695" lon="2.90762">
        <ele>1088.9</ele>
        <time>2021-07-23T08:11:25Z</time>
      </trkpt>
      <trkpt lat="45.14696" lon="2.90749">
        <ele>1089</ele>
        <time>2021-07-23T08:11:29Z</time>
      </trkpt>
      <trkpt lat="45.14697" lon="2.90742">
        <ele>1089.1</ele>
        <time>2021-07-23T08:11:31Z</time>
      </trkpt>
      <trkpt lat="45.14699" lon="2.9073">
        <ele>1089.3</ele>
        <time>2021-07-23T08:11:35Z</time>
      </trkpt>
      <trkpt lat="45.14699" lon="2.90723">
        <ele>1089.5</ele>
        <time>2021-07-23T08:11:37Z</time>
      </trkpt>
      <trkpt lat="45.147" lon="2.90716">
        <ele>1089.6</ele>
        <time>2021-07-23T08:11:39Z</time>
      </trkpt>
      <trkpt lat="45.14701" lon="2.90709">
        <ele>1089.7</ele>
        <time>2021-07-23T08:11:41Z</time>
      </trkpt>
      <trkpt lat="45.14701" lon="2.90702">
        <ele>1089.8</ele>
        <time>2021-07-23T08:11:43Z</time>
      </trkpt>
      <trkpt lat="45.14702" lon="2.90694">
        <ele>1090</ele>
        <time>2021-07-23T08:11:45Z</time>
      </trkpt>
      <trkpt lat="45.14704" lon="2.90686">
        <ele>1090.1</ele>
        <time>2021-07-23T08:11:47Z</time>
      </trkpt>
      <trkpt lat="45.14704" lon="2.90678">
        <ele>1090.3</ele>
        <time>2021-07-23T08:11:49Z</time>
      </trkpt>
      <trkpt lat="45.14704" lon="2.9067">
        <ele>1090.4</ele>
        <time>2021-07-23T08:11:51Z</time>
      </trkpt>
      <trkpt lat="45.14705" lon="2.90662">
        <ele>1090.5</ele>
        <time>2021-07-23T08:11:53Z</time>
      </trkpt>
      <trkpt lat="45.14705" lon="2.90654">
        <ele>1090.5</ele>
        <time>2021-07-23T08:11:55Z</time>
      </trkpt>
      <trkpt lat="45.14705" lon="2.90647">
        <ele>1090.6</ele>
        <time>2021-07-23T08:11:57Z</time>
      </trkpt>
      <trkpt lat="45.14705" lon="2.90639">
        <ele>1090.6</ele>
        <time>2021-07-23T08:11:59Z</time>
      </trkpt>
      <trkpt lat="45.14705" lon="2.90631">
        <ele>1090.7</ele>
        <time>2021-07-23T08:12:01Z</time>
      </trkpt>
      <trkpt lat="45.14706" lon="2.90624">
        <ele>1090.7</ele>
        <time>2021-07-23T08:12:03Z</time>
      </trkpt>
      <trkpt lat="45.14707" lon="2.90615">
        <ele>1090.8</ele>
        <time>2021-07-23T08:12:05Z</time>
      </trkpt>
      <trkpt lat="45.14708" lon="2.90607">
        <ele>1090.9</ele>
        <time>2021-07-23T08:12:07Z</time>
      </trkpt>
      <trkpt lat="45.14709" lon="2.90599">
        <ele>1090.9</ele>
        <time>2021-07-23T08:12:09Z</time>
      </trkpt>
      <trkpt lat="45.1471" lon="2.90591">
        <ele>1091</ele>
        <time>2021-07-23T08:12:11Z</time>
      </trkpt>
      <trkpt lat="45.14711" lon="2.90582">
        <ele>1091</ele>
        <time>2021-07-23T08:12:13Z</time>
      </trkpt>
      <trkpt lat="45.14712" lon="2.90573">
        <ele>1090.9</ele>
        <time>2021-07-23T08:12:15Z</time>
      </trkpt>
      <trkpt lat="45.14713" lon="2.90564">
        <ele>1090.8</ele>
        <time>2021-07-23T08:12:17Z</time>
      </trkpt>
      <trkpt lat="45.14714" lon="2.90554">
        <ele>1090.6</ele>
        <time>2021-07-23T08:12:19Z</time>
      </trkpt>
      <trkpt lat="45.14715" lon="2.90544">
        <ele>1090.5</ele>
        <time>2021-07-23T08:12:21Z</time>
      </trkpt>
      <trkpt lat="45.14715" lon="2.90535">
        <ele>1090.4</ele>
        <time>2021-07-23T08:12:23Z</time>
      </trkpt>
      <trkpt lat="45.14715" lon="2.90525">
        <ele>1090.3</ele>
        <time>2021-07-23T08:12:25Z</time>
      </trkpt>
      <trkpt lat="45.14715" lon="2.90515">
        <ele>1090.2</ele>
        <time>2021-07-23T08:12:27Z</time>
      </trkpt>
      <trkpt lat="45.14715" lon="2.90505">
        <ele>1090.1</ele>
        <time>2021-07-23T08:12:29Z</time>
      </trkpt>
      <trkpt lat="45.14714" lon="2.90496">
        <ele>1090</ele>
        <time>2021-07-23T08:12:31Z</time>
      </trkpt>
      <trkpt lat="45.14714" lon="2.90488">
        <ele>1090.1</ele>
        <time>2021-07-23T08:12:33Z</time>
      </trkpt>
      <trkpt lat="45.14714" lon="2.90479">
        <ele>1090.2</ele>
        <time>2021-07-23T08:12:35Z</time>
      </trkpt>
      <trkpt lat="45.14714" lon="2.90471">
        <ele>1090.3</ele>
        <time>2021-07-23T08:12:37Z</time>
      </trkpt>
      <trkpt lat="45.14714" lon="2.90462">
        <ele>1090.4</ele>
        <time>2021-07-23T08:12:39Z</time>
      </trkpt>
      <trkpt lat="45.14713" lon="2.90453">
        <ele>1090.5</ele>
        <time>2021-07-23T08:12:41Z</time>
      </trkpt>
      <trkpt lat="45.14713" lon="2.90445">
        <ele>1090.6</ele>
        <time>2021-07-23T08:12:43Z</time>
      </trkpt>
      <trkpt lat="45.14713" lon="2.90436">
        <ele>1090.7</ele>
        <time>2021-07-23T08:12:45Z</time>
      </trkpt>
      <trkpt lat="45.14713" lon="2.90427">
        <ele>1090.8</ele>
        <time>2021-07-23T08:12:47Z</time>
      </trkpt>
      <trkpt lat="45.14713" lon="2.90418">
        <ele>1090.9</ele>
        <time>2021-07-23T08:12:49Z</time>
      </trkpt>
      <trkpt lat="45.14713" lon="2.90409">
        <ele>1091.2</ele>
        <time>2021-07-23T08:12:51Z</time>
      </trkpt>
      <trkpt lat="45.14713" lon="2.90401">
        <ele>1091.5</ele>
        <time>2021-07-23T08:12:53Z</time>
      </trkpt>
      <trkpt lat="45.14713" lon="2.90392">
        <ele>1091.8</ele>
        <time>2021-07-23T08:12:55Z</time>
      </trkpt>
      <trkpt lat="45.14714" lon="2.90384">
        <ele>1092.1</ele>
        <time>2021-07-23T08:12:57Z</time>
      </trkpt>
      <trkpt lat="45.14714" lon="2.90376">
        <ele>1092.3</ele>
        <time>2021-07-23T08:12:59Z</time>
      </trkpt>
      <trkpt lat="45.14715" lon="2.90368">
        <ele>1092.6</ele>
        <time>2021-07-23T08:13:01Z</time>
      </trkpt>
      <trkpt lat="45.14716" lon="2.9036">
        <ele>1092.9</ele>
        <time>2021-07-23T08:13:03Z</time>
      </trkpt>
      <trkpt lat="45.14717" lon="2.90352">
        <ele>1093.1</ele>
        <time>2021-07-23T08:13:05Z</time>
      </trkpt>
      <trkpt lat="45.14718" lon="2.90344">
        <ele>1093.4</ele>
        <time>2021-07-23T08:13:07Z</time>
      </trkpt>
      <trkpt lat="45.14718" lon="2.90337">
        <ele>1093.6</ele>
        <time>2021-07-23T08:13:09Z</time>
      </trkpt>
      <trkpt lat="45.14719" lon="2.9033">
        <ele>1093.8</ele>
        <time>2021-07-23T08:13:11Z</time>
      </trkpt>
      <trkpt lat="45.14719" lon="2.90323">
        <ele>1094.1</ele>
        <time>2021-07-23T08:13:13Z</time>
      </trkpt>
      <trkpt lat="45.1472" lon="2.90316">
        <ele>1094.3</ele>
        <time>2021-07-23T08:13:15Z</time>
      </trkpt>
      <trkpt lat="45.14721" lon="2.90304">
        <ele>1094.6</ele>
        <time>2021-07-23T08:13:19Z</time>
      </trkpt>
      <trkpt lat="45.14722" lon="2.90292">
        <ele>1095</ele>
        <time>2021-07-23T08:13:23Z</time>
      </trkpt>
      <trkpt lat="45.14722" lon="2.90286">
        <ele>1095.2</ele>
        <time>2021-07-23T08:13:25Z</time>
      </trkpt>
      <trkpt lat="45.14724" lon="2.90274">
        <ele>1095.5</ele>
        <time>2021-07-23T08:13:29Z</time>
      </trkpt>
      <trkpt lat="45.14725" lon="2.90265">
        <ele>1095.8</ele>
        <time>2021-07-23T08:13:33Z</time>
      </trkpt>
      <trkpt lat="45.14725" lon="2.90253">
        <ele>1096.2</ele>
        <time>2021-07-23T08:13:37Z</time>
      </trkpt>
      <trkpt lat="45.14726" lon="2.90243">
        <ele>1096.5</ele>
        <time>2021-07-23T08:13:41Z</time>
      </trkpt>
      <trkpt lat="45.14726" lon="2.90232">
        <ele>1096.8</ele>
        <time>2021-07-23T08:13:45Z</time>
      </trkpt>
      <trkpt lat="45.14726" lon="2.90221">
        <ele>1097</ele>
        <time>2021-07-23T08:13:49Z</time>
      </trkpt>
      <trkpt lat="45.14727" lon="2.90211">
        <ele>1097.3</ele>
        <time>2021-07-23T08:13:53Z</time>
      </trkpt>
      <trkpt lat="45.14728" lon="2.902">
        <ele>1097.6</ele>
        <time>2021-07-23T08:13:57Z</time>
      </trkpt>
      <trkpt lat="45.1473" lon="2.90188">
        <ele>1097.9</ele>
        <time>2021-07-23T08:14:01Z</time>
      </trkpt>
      <trkpt lat="45.14731" lon="2.90175">
        <ele>1098.3</ele>
        <time>2021-07-23T08:14:05Z</time>
      </trkpt>
      <trkpt lat="45.14733" lon="2.90164">
        <ele>1098.6</ele>
        <time>2021-07-23T08:14:09Z</time>
      </trkpt>
      <trkpt lat="45.14733" lon="2.90152">
        <ele>1098.5</ele>
        <time>2021-07-23T08:14:13Z</time>
      </trkpt>
      <trkpt lat="45.14734" lon="2.90145">
        <ele>1098.5</ele>
        <time>2021-07-23T08:14:15Z</time>
      </trkpt>
      <trkpt lat="45.14734" lon="2.90138">
        <ele>1098.4</ele>
        <time>2021-07-23T08:14:17Z</time>
      </trkpt>
      <trkpt lat="45.14734" lon="2.90131">
        <ele>1098.4</ele>
        <time>2021-07-23T08:14:19Z</time>
      </trkpt>
      <trkpt lat="45.14735" lon="2.90124">
        <ele>1098.4</ele>
        <time>2021-07-23T08:14:21Z</time>
      </trkpt>
      <trkpt lat="45.14735" lon="2.90117">
        <ele>1098.3</ele>
        <time>2021-07-23T08:14:23Z</time>
      </trkpt>
      <trkpt lat="45.14736" lon="2.9011">
        <ele>1098.3</ele>
        <time>2021-07-23T08:14:25Z</time>
      </trkpt>
      <trkpt lat="45.14737" lon="2.90102">
        <ele>1098.3</ele>
        <time>2021-07-23T08:14:27Z</time>
      </trkpt>
      <trkpt lat="45.1474" lon="2.90095">
        <ele>1098.4</ele>
        <time>2021-07-23T08:14:29Z</time>
      </trkpt>
      <trkpt lat="45.14743" lon="2.90089">
        <ele>1098.6</ele>
        <time>2021-07-23T08:14:31Z</time>
      </trkpt>
      <trkpt lat="45.14747" lon="2.90083">
        <ele>1098.8</ele>
        <time>2021-07-23T08:14:33Z</time>
      </trkpt>
      <trkpt lat="45.14751" lon="2.90078">
        <ele>1099.1</ele>
        <time>2021-07-23T08:14:35Z</time>
      </trkpt>
      <trkpt lat="45.14755" lon="2.90073">
        <ele>1099.6</ele>
        <time>2021-07-23T08:14:37Z</time>
      </trkpt>
      <trkpt lat="45.1476" lon="2.90068">
        <ele>1100.2</ele>
        <time>2021-07-23T08:14:39Z</time>
      </trkpt>
      <trkpt lat="45.14765" lon="2.90062">
        <ele>1100.7</ele>
        <time>2021-07-23T08:14:41Z</time>
      </trkpt>
      <trkpt lat="45.14768" lon="2.90058">
        <ele>1101.1</ele>
        <time>2021-07-23T08:14:43Z</time>
      </trkpt>
      <trkpt lat="45.14773" lon="2.90053">
        <ele>1101.6</ele>
        <time>2021-07-23T08:14:45Z</time>
      </trkpt>
      <trkpt lat="45.14777" lon="2.90047">
        <ele>1102.2</ele>
        <time>2021-07-23T08:14:47Z</time>
      </trkpt>
      <trkpt lat="45.14782" lon="2.9004">
        <ele>1102.6</ele>
        <time>2021-07-23T08:14:49Z</time>
      </trkpt>
      <trkpt lat="45.14784" lon="2.90033">
        <ele>1102.9</ele>
        <time>2021-07-23T08:14:51Z</time>
      </trkpt>
      <trkpt lat="45.14788" lon="2.90025">
        <ele>1103.3</ele>
        <time>2021-07-23T08:14:53Z</time>
      </trkpt>
      <trkpt lat="45.14791" lon="2.90017">
        <ele>1103.6</ele>
        <time>2021-07-23T08:14:55Z</time>
      </trkpt>
      <trkpt lat="45.14795" lon="2.90009">
        <ele>1104</ele>
        <time>2021-07-23T08:14:57Z</time>
      </trkpt>
      <trkpt lat="45.14799" lon="2.90001">
        <ele>1104.5</ele>
        <time>2021-07-23T08:14:59Z</time>
      </trkpt>
      <trkpt lat="45.14801" lon="2.89994">
        <ele>1104.5</ele>
        <time>2021-07-23T08:15:01Z</time>
      </trkpt>
      <trkpt lat="45.14804" lon="2.89986">
        <ele>1104.6</ele>
        <time>2021-07-23T08:15:03Z</time>
      </trkpt>
      <trkpt lat="45.14805" lon="2.89977">
        <ele>1104.4</ele>
        <time>2021-07-23T08:15:05Z</time>
      </trkpt>
      <trkpt lat="45.14806" lon="2.89969">
        <ele>1104.2</ele>
        <time>2021-07-23T08:15:07Z</time>
      </trkpt>
      <trkpt lat="45.14806" lon="2.89959">
        <ele>1103.9</ele>
        <time>2021-07-23T08:15:09Z</time>
      </trkpt>
      <trkpt lat="45.14805" lon="2.8995">
        <ele>1103.5</ele>
        <time>2021-07-23T08:15:11Z</time>
      </trkpt>
      <trkpt lat="45.14805" lon="2.89942">
        <ele>1103.2</ele>
        <time>2021-07-23T08:15:13Z</time>
      </trkpt>
      <trkpt lat="45.14806" lon="2.8993">
        <ele>1102.9</ele>
        <time>2021-07-23T08:15:17Z</time>
      </trkpt>
      <trkpt lat="45.14807" lon="2.89924">
        <ele>1102.7</ele>
        <time>2021-07-23T08:15:19Z</time>
      </trkpt>
      <trkpt lat="45.14807" lon="2.89916">
        <ele>1102.5</ele>
        <time>2021-07-23T08:15:21Z</time>
      </trkpt>
      <trkpt lat="45.14809" lon="2.89908">
        <ele>1102.7</ele>
        <time>2021-07-23T08:15:23Z</time>
      </trkpt>
      <trkpt lat="45.14812" lon="2.89901">
        <ele>1102.9</ele>
        <time>2021-07-23T08:15:25Z</time>
      </trkpt>
      <trkpt lat="45.14815" lon="2.89896">
        <ele>1103.2</ele>
        <time>2021-07-23T08:15:27Z</time>
      </trkpt>
      <trkpt lat="45.14819" lon="2.8989">
        <ele>1103.5</ele>
        <time>2021-07-23T08:15:29Z</time>
      </trkpt>
      <trkpt lat="45.14822" lon="2.89884">
        <ele>1103.8</ele>
        <time>2021-07-23T08:15:31Z</time>
      </trkpt>
      <trkpt lat="45.14825" lon="2.89879">
        <ele>1104</ele>
        <time>2021-07-23T08:15:33Z</time>
      </trkpt>
      <trkpt lat="45.14831" lon="2.89868">
        <ele>1104.5</ele>
        <time>2021-07-23T08:15:37Z</time>
      </trkpt>
      <trkpt lat="45.14834" lon="2.89862">
        <ele>1104.8</ele>
        <time>2021-07-23T08:15:39Z</time>
      </trkpt>
      <trkpt lat="45.14836" lon="2.89856">
        <ele>1104.9</ele>
        <time>2021-07-23T08:15:41Z</time>
      </trkpt>
      <trkpt lat="45.1484" lon="2.89846">
        <ele>1105.1</ele>
        <time>2021-07-23T08:15:45Z</time>
      </trkpt>
      <trkpt lat="45.14843" lon="2.89838">
        <ele>1105.2</ele>
        <time>2021-07-23T08:15:49Z</time>
      </trkpt>
      <trkpt lat="45.14846" lon="2.89828">
        <ele>1105.2</ele>
        <time>2021-07-23T08:15:53Z</time>
      </trkpt>
      <trkpt lat="45.14848" lon="2.89817">
        <ele>1105</ele>
        <time>2021-07-23T08:15:57Z</time>
      </trkpt>
      <trkpt lat="45.14849" lon="2.89811">
        <ele>1104.9</ele>
        <time>2021-07-23T08:15:59Z</time>
      </trkpt>
      <trkpt lat="45.14851" lon="2.89804">
        <ele>1104.8</ele>
        <time>2021-07-23T08:16:01Z</time>
      </trkpt>
      <trkpt lat="45.14852" lon="2.89798">
        <ele>1104.7</ele>
        <time>2021-07-23T08:16:03Z</time>
      </trkpt>
      <trkpt lat="45.14854" lon="2.89791">
        <ele>1104.6</ele>
        <time>2021-07-23T08:16:05Z</time>
      </trkpt>
      <trkpt lat="45.14858" lon="2.89781">
        <ele>1104.5</ele>
        <time>2021-07-23T08:16:09Z</time>
      </trkpt>
      <trkpt lat="45.14862" lon="2.8977">
        <ele>1104.4</ele>
        <time>2021-07-23T08:16:13Z</time>
      </trkpt>
      <trkpt lat="45.14865" lon="2.89765">
        <ele>1104.4</ele>
        <time>2021-07-23T08:16:15Z</time>
      </trkpt>
      <trkpt lat="45.14868" lon="2.8976">
        <ele>1104.4</ele>
        <time>2021-07-23T08:16:17Z</time>
      </trkpt>
      <trkpt lat="45.14871" lon="2.89756">
        <ele>1104.5</ele>
        <time>2021-07-23T08:16:19Z</time>
      </trkpt>
      <trkpt lat="45.14878" lon="2.8975">
        <ele>1104.8</ele>
        <time>2021-07-23T08:16:23Z</time>
      </trkpt>
      <trkpt lat="45.14886" lon="2.89742">
        <ele>1105</ele>
        <time>2021-07-23T08:16:27Z</time>
      </trkpt>
      <trkpt lat="45.1489" lon="2.89739">
        <ele>1105.1</ele>
        <time>2021-07-23T08:16:29Z</time>
      </trkpt>
      <trkpt lat="45.14894" lon="2.89734">
        <ele>1105.3</ele>
        <time>2021-07-23T08:16:31Z</time>
      </trkpt>
      <trkpt lat="45.14899" lon="2.89729">
        <ele>1105.3</ele>
        <time>2021-07-23T08:16:33Z</time>
      </trkpt>
      <trkpt lat="45.14904" lon="2.89722">
        <ele>1105.3</ele>
        <time>2021-07-23T08:16:35Z</time>
      </trkpt>
      <trkpt lat="45.14908" lon="2.89713">
        <ele>1105.2</ele>
        <time>2021-07-23T08:16:37Z</time>
      </trkpt>
      <trkpt lat="45.14914" lon="2.89705">
        <ele>1105.1</ele>
        <time>2021-07-23T08:16:39Z</time>
      </trkpt>
      <trkpt lat="45.14919" lon="2.89695">
        <ele>1104.9</ele>
        <time>2021-07-23T08:16:41Z</time>
      </trkpt>
      <trkpt lat="45.14925" lon="2.89684">
        <ele>1104.6</ele>
        <time>2021-07-23T08:16:43Z</time>
      </trkpt>
      <trkpt lat="45.1493" lon="2.89674">
        <ele>1104.4</ele>
        <time>2021-07-23T08:16:45Z</time>
      </trkpt>
      <trkpt lat="45.14934" lon="2.89664">
        <ele>1104.1</ele>
        <time>2021-07-23T08:16:47Z</time>
      </trkpt>
      <trkpt lat="45.14938" lon="2.89651">
        <ele>1103.7</ele>
        <time>2021-07-23T08:16:49Z</time>
      </trkpt>
      <trkpt lat="45.14942" lon="2.89636">
        <ele>1103.2</ele>
        <time>2021-07-23T08:16:51Z</time>
      </trkpt>
      <trkpt lat="45.14946" lon="2.89621">
        <ele>1102.5</ele>
        <time>2021-07-23T08:16:53Z</time>
      </trkpt>
      <trkpt lat="45.14953" lon="2.89606">
        <ele>1101.8</ele>
        <time>2021-07-23T08:16:55Z</time>
      </trkpt>
      <trkpt lat="45.14959" lon="2.89591">
        <ele>1101</ele>
        <time>2021-07-23T08:16:57Z</time>
      </trkpt>
      <trkpt lat="45.14973" lon="2.89578">
        <ele>1100.1</ele>
        <time>2021-07-23T08:16:59Z</time>
      </trkpt>
      <trkpt lat="45.14986" lon="2.89567">
        <ele>1099.4</ele>
        <time>2021-07-23T08:17:01Z</time>
      </trkpt>
      <trkpt lat="45.14998" lon="2.89556">
        <ele>1098.7</ele>
        <time>2021-07-23T08:17:03Z</time>
      </trkpt>
      <trkpt lat="45.15006" lon="2.89547">
        <ele>1097.9</ele>
        <time>2021-07-23T08:17:05Z</time>
      </trkpt>
      <trkpt lat="45.15011" lon="2.8954">
        <ele>1097.2</ele>
        <time>2021-07-23T08:17:07Z</time>
      </trkpt>
      <trkpt lat="45.15014" lon="2.89534">
        <ele>1096.6</ele>
        <time>2021-07-23T08:17:09Z</time>
      </trkpt>
      <trkpt lat="45.15017" lon="2.89523">
        <ele>1095.6</ele>
        <time>2021-07-23T08:17:13Z</time>
      </trkpt>
      <trkpt lat="45.15015" lon="2.89515">
        <ele>1095</ele>
        <time>2021-07-23T08:17:17Z</time>
      </trkpt>
      <trkpt lat="45.15011" lon="2.89511">
        <ele>1094.6</ele>
        <time>2021-07-23T08:17:23Z</time>
      </trkpt>
      <trkpt lat="45.15007" lon="2.89507">
        <ele>1094.4</ele>
        <time>2021-07-23T08:18:27Z</time>
      </trkpt>
      <trkpt lat="45.15002" lon="2.89503">
        <ele>1094.2</ele>
        <time>2021-07-23T08:20:35Z</time>
      </trkpt>
      <trkpt lat="45.14997" lon="2.89499">
        <ele>1093.8</ele>
        <time>2021-07-23T08:20:39Z</time>
      </trkpt>
      <trkpt lat="45.14991" lon="2.89492">
        <ele>1093.2</ele>
        <time>2021-07-23T08:20:45Z</time>
      </trkpt>
      <trkpt lat="45.14988" lon="2.89487">
        <ele>1092.7</ele>
        <time>2021-07-23T08:20:47Z</time>
      </trkpt>
      <trkpt lat="45.14984" lon="2.8948">
        <ele>1092.1</ele>
        <time>2021-07-23T08:20:49Z</time>
      </trkpt>
      <trkpt lat="45.1498" lon="2.89472">
        <ele>1091.4</ele>
        <time>2021-07-23T08:20:51Z</time>
      </trkpt>
      <trkpt lat="45.14976" lon="2.89464">
        <ele>1090.6</ele>
        <time>2021-07-23T08:20:53Z</time>
      </trkpt>
      <trkpt lat="45.14971" lon="2.89455">
        <ele>1089.7</ele>
        <time>2021-07-23T08:20:55Z</time>
      </trkpt>
      <trkpt lat="45.14964" lon="2.89446">
        <ele>1088.6</ele>
        <time>2021-07-23T08:20:57Z</time>
      </trkpt>
      <trkpt lat="45.14955" lon="2.89436">
        <ele>1087.3</ele>
        <time>2021-07-23T08:20:59Z</time>
      </trkpt>
      <trkpt lat="45.14944" lon="2.89425">
        <ele>1085.7</ele>
        <time>2021-07-23T08:21:01Z</time>
      </trkpt>
      <trkpt lat="45.1493" lon="2.89417">
        <ele>1084</ele>
        <time>2021-07-23T08:21:03Z</time>
      </trkpt>
      <trkpt lat="45.14918" lon="2.89411">
        <ele>1082.8</ele>
        <time>2021-07-23T08:21:05Z</time>
      </trkpt>
      <trkpt lat="45.1491" lon="2.89407">
        <ele>1082.1</ele>
        <time>2021-07-23T08:21:07Z</time>
      </trkpt>
      <trkpt lat="45.14907" lon="2.894">
        <ele>1081.5</ele>
        <time>2021-07-23T08:21:09Z</time>
      </trkpt>
      <trkpt lat="45.14904" lon="2.89391">
        <ele>1080.7</ele>
        <time>2021-07-23T08:21:11Z</time>
      </trkpt>
      <trkpt lat="45.14899" lon="2.89378">
        <ele>1079.7</ele>
        <time>2021-07-23T08:21:13Z</time>
      </trkpt>
      <trkpt lat="45.14894" lon="2.89362">
        <ele>1078.3</ele>
        <time>2021-07-23T08:21:15Z</time>
      </trkpt>
      <trkpt lat="45.14889" lon="2.89342">
        <ele>1076.6</ele>
        <time>2021-07-23T08:21:17Z</time>
      </trkpt>
      <trkpt lat="45.14879" lon="2.89324">
        <ele>1075.2</ele>
        <time>2021-07-23T08:21:19Z</time>
      </trkpt>
      <trkpt lat="45.14867" lon="2.89312">
        <ele>1074.2</ele>
        <time>2021-07-23T08:21:21Z</time>
      </trkpt>
      <trkpt lat="45.14853" lon="2.89301">
        <ele>1073.5</ele>
        <time>2021-07-23T08:21:23Z</time>
      </trkpt>
      <trkpt lat="45.14843" lon="2.89286">
        <ele>1073</ele>
        <time>2021-07-23T08:21:25Z</time>
      </trkpt>
      <trkpt lat="45.14835" lon="2.89265">
        <ele>1072.9</ele>
        <time>2021-07-23T08:21:27Z</time>
      </trkpt>
      <trkpt lat="45.14828" lon="2.8924">
        <ele>1073</ele>
        <time>2021-07-23T08:21:29Z</time>
      </trkpt>
      <trkpt lat="45.14815" lon="2.89222">
        <ele>1073.1</ele>
        <time>2021-07-23T08:21:31Z</time>
      </trkpt>
      <trkpt lat="45.14803" lon="2.89211">
        <ele>1073.1</ele>
        <time>2021-07-23T08:21:33Z</time>
      </trkpt>
      <trkpt lat="45.14791" lon="2.89215">
        <ele>1072.3</ele>
        <time>2021-07-23T08:21:35Z</time>
      </trkpt>
      <trkpt lat="45.14781" lon="2.89223">
        <ele>1071.2</ele>
        <time>2021-07-23T08:21:37Z</time>
      </trkpt>
      <trkpt lat="45.1477" lon="2.89224">
        <ele>1070.6</ele>
        <time>2021-07-23T08:21:39Z</time>
      </trkpt>
      <trkpt lat="45.14759" lon="2.89216">
        <ele>1070.7</ele>
        <time>2021-07-23T08:21:41Z</time>
      </trkpt>
      <trkpt lat="45.14749" lon="2.89205">
        <ele>1071.2</ele>
        <time>2021-07-23T08:21:43Z</time>
      </trkpt>
      <trkpt lat="45.14737" lon="2.89198">
        <ele>1071</ele>
        <time>2021-07-23T08:21:45Z</time>
      </trkpt>
      <trkpt lat="45.14726" lon="2.89192">
        <ele>1070.6</ele>
        <time>2021-07-23T08:21:47Z</time>
      </trkpt>
      <trkpt lat="45.14716" lon="2.89185">
        <ele>1070.4</ele>
        <time>2021-07-23T08:21:49Z</time>
      </trkpt>
      <trkpt lat="45.14707" lon="2.89176">
        <ele>1070.2</ele>
        <time>2021-07-23T08:21:51Z</time>
      </trkpt>
      <trkpt lat="45.14696" lon="2.89166">
        <ele>1069.8</ele>
        <time>2021-07-23T08:21:53Z</time>
      </trkpt>
      <trkpt lat="45.14685" lon="2.89155">
        <ele>1069.3</ele>
        <time>2021-07-23T08:21:55Z</time>
      </trkpt>
      <trkpt lat="45.14675" lon="2.89142">
        <ele>1068.6</ele>
        <time>2021-07-23T08:21:57Z</time>
      </trkpt>
      <trkpt lat="45.14665" lon="2.8913">
        <ele>1067.8</ele>
        <time>2021-07-23T08:21:59Z</time>
      </trkpt>
      <trkpt lat="45.14653" lon="2.89118">
        <ele>1067.5</ele>
        <time>2021-07-23T08:22:01Z</time>
      </trkpt>
      <trkpt lat="45.14641" lon="2.89105">
        <ele>1067.2</ele>
        <time>2021-07-23T08:22:03Z</time>
      </trkpt>
      <trkpt lat="45.1463" lon="2.89093">
        <ele>1067</ele>
        <time>2021-07-23T08:22:05Z</time>
      </trkpt>
      <trkpt lat="45.1462" lon="2.89082">
        <ele>1066.8</ele>
        <time>2021-07-23T08:22:07Z</time>
      </trkpt>
      <trkpt lat="45.14612" lon="2.89068">
        <ele>1067.3</ele>
        <time>2021-07-23T08:22:09Z</time>
      </trkpt>
      <trkpt lat="45.14608" lon="2.89054">
        <ele>1068</ele>
        <time>2021-07-23T08:22:11Z</time>
      </trkpt>
      <trkpt lat="45.14604" lon="2.89043">
        <ele>1068.6</ele>
        <time>2021-07-23T08:22:13Z</time>
      </trkpt>
      <trkpt lat="45.14599" lon="2.89033">
        <ele>1069</ele>
        <time>2021-07-23T08:22:15Z</time>
      </trkpt>
      <trkpt lat="45.14594" lon="2.89025">
        <ele>1069.4</ele>
        <time>2021-07-23T08:22:17Z</time>
      </trkpt>
      <trkpt lat="45.14587" lon="2.89016">
        <ele>1069.9</ele>
        <time>2021-07-23T08:22:19Z</time>
      </trkpt>
      <trkpt lat="45.14579" lon="2.89008">
        <ele>1070.9</ele>
        <time>2021-07-23T08:22:21Z</time>
      </trkpt>
      <trkpt lat="45.14573" lon="2.89">
        <ele>1072.2</ele>
        <time>2021-07-23T08:22:23Z</time>
      </trkpt>
      <trkpt lat="45.14568" lon="2.88993">
        <ele>1074</ele>
        <time>2021-07-23T08:22:25Z</time>
      </trkpt>
      <trkpt lat="45.14562" lon="2.88989">
        <ele>1075.5</ele>
        <time>2021-07-23T08:22:27Z</time>
      </trkpt>
      <trkpt lat="45.14557" lon="2.88986">
        <ele>1076.7</ele>
        <time>2021-07-23T08:22:29Z</time>
      </trkpt>
      <trkpt lat="45.14549" lon="2.88983">
        <ele>1078.3</ele>
        <time>2021-07-23T08:22:33Z</time>
      </trkpt>
      <trkpt lat="45.14546" lon="2.88974">
        <ele>1080.5</ele>
        <time>2021-07-23T08:22:37Z</time>
      </trkpt>
      <trkpt lat="45.1455" lon="2.88968">
        <ele>1081.1</ele>
        <time>2021-07-23T08:22:41Z</time>
      </trkpt>
      <trkpt lat="45.14556" lon="2.88962">
        <ele>1081.4</ele>
        <time>2021-07-23T08:22:47Z</time>
      </trkpt>
      <trkpt lat="45.14562" lon="2.88959">
        <ele>1081.3</ele>
        <time>2021-07-23T08:22:51Z</time>
      </trkpt>
      <trkpt lat="45.1457" lon="2.88956">
        <ele>1080.6</ele>
        <time>2021-07-23T08:22:55Z</time>
      </trkpt>
      <trkpt lat="45.14578" lon="2.88952">
        <ele>1079.9</ele>
        <time>2021-07-23T08:22:59Z</time>
      </trkpt>
      <trkpt lat="45.14586" lon="2.88949">
        <ele>1079.4</ele>
        <time>2021-07-23T08:23:03Z</time>
      </trkpt>
      <trkpt lat="45.14592" lon="2.88946">
        <ele>1079.5</ele>
        <time>2021-07-23T08:23:07Z</time>
      </trkpt>
      <trkpt lat="45.14599" lon="2.88943">
        <ele>1079.5</ele>
        <time>2021-07-23T08:23:11Z</time>
      </trkpt>
      <trkpt lat="45.14606" lon="2.88943">
        <ele>1079.1</ele>
        <time>2021-07-23T08:23:15Z</time>
      </trkpt>
      <trkpt lat="45.14613" lon="2.88942">
        <ele>1078.9</ele>
        <time>2021-07-23T08:23:19Z</time>
      </trkpt>
      <trkpt lat="45.14621" lon="2.88938">
        <ele>1078.9</ele>
        <time>2021-07-23T08:23:23Z</time>
      </trkpt>
      <trkpt lat="45.14627" lon="2.88934">
        <ele>1078.9</ele>
        <time>2021-07-23T08:23:27Z</time>
      </trkpt>
      <trkpt lat="45.14634" lon="2.88929">
        <ele>1078.9</ele>
        <time>2021-07-23T08:23:31Z</time>
      </trkpt>
      <trkpt lat="45.14641" lon="2.88926">
        <ele>1078.6</ele>
        <time>2021-07-23T08:23:35Z</time>
      </trkpt>
      <trkpt lat="45.14646" lon="2.88921">
        <ele>1078.6</ele>
        <time>2021-07-23T08:23:39Z</time>
      </trkpt>
      <trkpt lat="45.14651" lon="2.88915">
        <ele>1078.7</ele>
        <time>2021-07-23T08:23:43Z</time>
      </trkpt>
      <trkpt lat="45.14655" lon="2.88909">
        <ele>1078.8</ele>
        <time>2021-07-23T08:23:47Z</time>
      </trkpt>
      <trkpt lat="45.1466" lon="2.88901">
        <ele>1079</ele>
        <time>2021-07-23T08:23:51Z</time>
      </trkpt>
      <trkpt lat="45.14665" lon="2.88893">
        <ele>1079</ele>
        <time>2021-07-23T08:23:55Z</time>
      </trkpt>
      <trkpt lat="45.14669" lon="2.88883">
        <ele>1079.5</ele>
        <time>2021-07-23T08:23:59Z</time>
      </trkpt>
      <trkpt lat="45.14672" lon="2.88875">
        <ele>1080.3</ele>
        <time>2021-07-23T08:24:03Z</time>
      </trkpt>
      <trkpt lat="45.14675" lon="2.88867">
        <ele>1080.9</ele>
        <time>2021-07-23T08:24:07Z</time>
      </trkpt>
      <trkpt lat="45.14678" lon="2.88858">
        <ele>1081.6</ele>
        <time>2021-07-23T08:24:11Z</time>
      </trkpt>
      <trkpt lat="45.1468" lon="2.88847">
        <ele>1082.3</ele>
        <time>2021-07-23T08:24:15Z</time>
      </trkpt>
      <trkpt lat="45.14682" lon="2.88839">
        <ele>1082.8</ele>
        <time>2021-07-23T08:24:19Z</time>
      </trkpt>
      <trkpt lat="45.14687" lon="2.88832">
        <ele>1083.3</ele>
        <time>2021-07-23T08:24:23Z</time>
      </trkpt>
      <trkpt lat="45.1469" lon="2.88827">
        <ele>1083.8</ele>
        <time>2021-07-23T08:24:27Z</time>
      </trkpt>
      <trkpt lat="45.14693" lon="2.88819">
        <ele>1084.6</ele>
        <time>2021-07-23T08:24:31Z</time>
      </trkpt>
      <trkpt lat="45.14695" lon="2.8881">
        <ele>1085.4</ele>
        <time>2021-07-23T08:24:35Z</time>
      </trkpt>
      <trkpt lat="45.14697" lon="2.88803">
        <ele>1086</ele>
        <time>2021-07-23T08:24:39Z</time>
      </trkpt>
      <trkpt lat="45.14699" lon="2.88797">
        <ele>1086.5</ele>
        <time>2021-07-23T08:24:43Z</time>
      </trkpt>
      <trkpt lat="45.14702" lon="2.88791">
        <ele>1087</ele>
        <time>2021-07-23T08:24:47Z</time>
      </trkpt>
      <trkpt lat="45.14704" lon="2.88783">
        <ele>1087.6</ele>
        <time>2021-07-23T08:24:51Z</time>
      </trkpt>
      <trkpt lat="45.14707" lon="2.88774">
        <ele>1088.2</ele>
        <time>2021-07-23T08:24:55Z</time>
      </trkpt>
      <trkpt lat="45.14709" lon="2.88766">
        <ele>1088.7</ele>
        <time>2021-07-23T08:24:59Z</time>
      </trkpt>
      <trkpt lat="45.14712" lon="2.88759">
        <ele>1089.1</ele>
        <time>2021-07-23T08:25:03Z</time>
      </trkpt>
      <trkpt lat="45.14715" lon="2.88753">
        <ele>1089.3</ele>
        <time>2021-07-23T08:25:07Z</time>
      </trkpt>
      <trkpt lat="45.14719" lon="2.88748">
        <ele>1089.5</ele>
        <time>2021-07-23T08:25:11Z</time>
      </trkpt>
      <trkpt lat="45.14724" lon="2.8874">
        <ele>1089.8</ele>
        <time>2021-07-23T08:25:15Z</time>
      </trkpt>
      <trkpt lat="45.14729" lon="2.88733">
        <ele>1089.9</ele>
        <time>2021-07-23T08:25:19Z</time>
      </trkpt>
      <trkpt lat="45.14733" lon="2.88727">
        <ele>1090</ele>
        <time>2021-07-23T08:25:23Z</time>
      </trkpt>
      <trkpt lat="45.14736" lon="2.88722">
        <ele>1090.1</ele>
        <time>2021-07-23T08:25:27Z</time>
      </trkpt>
      <trkpt lat="45.14741" lon="2.88717">
        <ele>1089.9</ele>
        <time>2021-07-23T08:25:31Z</time>
      </trkpt>
      <trkpt lat="45.14745" lon="2.88712">
        <ele>1089.9</ele>
        <time>2021-07-23T08:25:35Z</time>
      </trkpt>
      <trkpt lat="45.14749" lon="2.88702">
        <ele>1089.9</ele>
        <time>2021-07-23T08:25:39Z</time>
      </trkpt>
      <trkpt lat="45.14752" lon="2.88696">
        <ele>1090.5</ele>
        <time>2021-07-23T08:25:41Z</time>
      </trkpt>
      <trkpt lat="45.14757" lon="2.88685">
        <ele>1091.8</ele>
        <time>2021-07-23T08:25:45Z</time>
      </trkpt>
      <trkpt lat="45.14759" lon="2.88679">
        <ele>1092.3</ele>
        <time>2021-07-23T08:25:47Z</time>
      </trkpt>
      <trkpt lat="45.14761" lon="2.88668">
        <ele>1093</ele>
        <time>2021-07-23T08:25:51Z</time>
      </trkpt>
      <trkpt lat="45.14764" lon="2.88656">
        <ele>1093.8</ele>
        <time>2021-07-23T08:25:55Z</time>
      </trkpt>
      <trkpt lat="45.14766" lon="2.8865">
        <ele>1094.1</ele>
        <time>2021-07-23T08:25:57Z</time>
      </trkpt>
      <trkpt lat="45.14768" lon="2.88644">
        <ele>1094.4</ele>
        <time>2021-07-23T08:25:59Z</time>
      </trkpt>
      <trkpt lat="45.14772" lon="2.88635">
        <ele>1094.9</ele>
        <time>2021-07-23T08:26:03Z</time>
      </trkpt>
      <trkpt lat="45.14775" lon="2.88625">
        <ele>1095.2</ele>
        <time>2021-07-23T08:26:07Z</time>
      </trkpt>
      <trkpt lat="45.14777" lon="2.88613">
        <ele>1095.5</ele>
        <time>2021-07-23T08:26:11Z</time>
      </trkpt>
      <trkpt lat="45.14779" lon="2.88607">
        <ele>1095.6</ele>
        <time>2021-07-23T08:26:13Z</time>
      </trkpt>
      <trkpt lat="45.14781" lon="2.88601">
        <ele>1095.7</ele>
        <time>2021-07-23T08:26:15Z</time>
      </trkpt>
      <trkpt lat="45.14782" lon="2.88594">
        <ele>1095.7</ele>
        <time>2021-07-23T08:26:17Z</time>
      </trkpt>
      <trkpt lat="45.14785" lon="2.88586">
        <ele>1095.7</ele>
        <time>2021-07-23T08:26:19Z</time>
      </trkpt>
      <trkpt lat="45.14789" lon="2.8858">
        <ele>1095.6</ele>
        <time>2021-07-23T08:26:21Z</time>
      </trkpt>
      <trkpt lat="45.14791" lon="2.88574">
        <ele>1095.5</ele>
        <time>2021-07-23T08:26:23Z</time>
      </trkpt>
      <trkpt lat="45.14794" lon="2.88567">
        <ele>1095.4</ele>
        <time>2021-07-23T08:26:25Z</time>
      </trkpt>
      <trkpt lat="45.14797" lon="2.88559">
        <ele>1095.2</ele>
        <time>2021-07-23T08:26:27Z</time>
      </trkpt>
      <trkpt lat="45.14799" lon="2.8855">
        <ele>1095</ele>
        <time>2021-07-23T08:26:29Z</time>
      </trkpt>
      <trkpt lat="45.14802" lon="2.88542">
        <ele>1094.6</ele>
        <time>2021-07-23T08:26:31Z</time>
      </trkpt>
      <trkpt lat="45.14806" lon="2.88536">
        <ele>1094.2</ele>
        <time>2021-07-23T08:26:33Z</time>
      </trkpt>
      <trkpt lat="45.1481" lon="2.88532">
        <ele>1093.7</ele>
        <time>2021-07-23T08:26:35Z</time>
      </trkpt>
      <trkpt lat="45.14815" lon="2.88527">
        <ele>1093.1</ele>
        <time>2021-07-23T08:26:37Z</time>
      </trkpt>
      <trkpt lat="45.14819" lon="2.8852">
        <ele>1092.5</ele>
        <time>2021-07-23T08:26:39Z</time>
      </trkpt>
      <trkpt lat="45.14824" lon="2.88514">
        <ele>1091.8</ele>
        <time>2021-07-23T08:26:41Z</time>
      </trkpt>
      <trkpt lat="45.14829" lon="2.88509">
        <ele>1091</ele>
        <time>2021-07-23T08:26:43Z</time>
      </trkpt>
      <trkpt lat="45.14834" lon="2.88504">
        <ele>1090.2</ele>
        <time>2021-07-23T08:26:45Z</time>
      </trkpt>
      <trkpt lat="45.1484" lon="2.88499">
        <ele>1089.9</ele>
        <time>2021-07-23T08:26:47Z</time>
      </trkpt>
      <trkpt lat="45.14846" lon="2.88496">
        <ele>1089.8</ele>
        <time>2021-07-23T08:26:49Z</time>
      </trkpt>
      <trkpt lat="45.14854" lon="2.88492">
        <ele>1089.6</ele>
        <time>2021-07-23T08:26:51Z</time>
      </trkpt>
      <trkpt lat="45.1486" lon="2.88486">
        <ele>1089.3</ele>
        <time>2021-07-23T08:26:53Z</time>
      </trkpt>
      <trkpt lat="45.14864" lon="2.88477">
        <ele>1088.8</ele>
        <time>2021-07-23T08:26:55Z</time>
      </trkpt>
      <trkpt lat="45.14868" lon="2.88464">
        <ele>1088.2</ele>
        <time>2021-07-23T08:26:57Z</time>
      </trkpt>
      <trkpt lat="45.14872" lon="2.8845">
        <ele>1087.3</ele>
        <time>2021-07-23T08:26:59Z</time>
      </trkpt>
      <trkpt lat="45.14878" lon="2.88435">
        <ele>1086.1</ele>
        <time>2021-07-23T08:27:01Z</time>
      </trkpt>
      <trkpt lat="45.14885" lon="2.88424">
        <ele>1084.8</ele>
        <time>2021-07-23T08:27:03Z</time>
      </trkpt>
      <trkpt lat="45.14894" lon="2.88418">
        <ele>1083.6</ele>
        <time>2021-07-23T08:27:05Z</time>
      </trkpt>
      <trkpt lat="45.14903" lon="2.8841">
        <ele>1082.4</ele>
        <time>2021-07-23T08:27:07Z</time>
      </trkpt>
      <trkpt lat="45.14913" lon="2.88401">
        <ele>1081.1</ele>
        <time>2021-07-23T08:27:09Z</time>
      </trkpt>
      <trkpt lat="45.14924" lon="2.88392">
        <ele>1080.2</ele>
        <time>2021-07-23T08:27:11Z</time>
      </trkpt>
      <trkpt lat="45.14934" lon="2.88383">
        <ele>1079.6</ele>
        <time>2021-07-23T08:27:13Z</time>
      </trkpt>
      <trkpt lat="45.14946" lon="2.88374">
        <ele>1079.1</ele>
        <time>2021-07-23T08:27:15Z</time>
      </trkpt>
      <trkpt lat="45.14957" lon="2.88366">
        <ele>1078.6</ele>
        <time>2021-07-23T08:27:17Z</time>
      </trkpt>
      <trkpt lat="45.14967" lon="2.88357">
        <ele>1078.2</ele>
        <time>2021-07-23T08:27:19Z</time>
      </trkpt>
      <trkpt lat="45.14976" lon="2.88345">
        <ele>1077.8</ele>
        <time>2021-07-23T08:27:21Z</time>
      </trkpt>
      <trkpt lat="45.14983" lon="2.88333">
        <ele>1077.4</ele>
        <time>2021-07-23T08:27:23Z</time>
      </trkpt>
      <trkpt lat="45.1499" lon="2.88322">
        <ele>1077.5</ele>
        <time>2021-07-23T08:27:25Z</time>
      </trkpt>
      <trkpt lat="45.14995" lon="2.88312">
        <ele>1077.5</ele>
        <time>2021-07-23T08:27:27Z</time>
      </trkpt>
      <trkpt lat="45.14997" lon="2.88301">
        <ele>1077.5</ele>
        <time>2021-07-23T08:27:29Z</time>
      </trkpt>
      <trkpt lat="45.14999" lon="2.8829">
        <ele>1077.6</ele>
        <time>2021-07-23T08:27:31Z</time>
      </trkpt>
      <trkpt lat="45.15003" lon="2.88278">
        <ele>1077.6</ele>
        <time>2021-07-23T08:27:33Z</time>
      </trkpt>
      <trkpt lat="45.15007" lon="2.88266">
        <ele>1077.6</ele>
        <time>2021-07-23T08:27:35Z</time>
      </trkpt>
      <trkpt lat="45.15011" lon="2.88256">
        <ele>1077.5</ele>
        <time>2021-07-23T08:27:37Z</time>
      </trkpt>
      <trkpt lat="45.15015" lon="2.88245">
        <ele>1077.5</ele>
        <time>2021-07-23T08:27:39Z</time>
      </trkpt>
      <trkpt lat="45.15017" lon="2.88234">
        <ele>1077.6</ele>
        <time>2021-07-23T08:27:41Z</time>
      </trkpt>
      <trkpt lat="45.15019" lon="2.88222">
        <ele>1077.7</ele>
        <time>2021-07-23T08:27:43Z</time>
      </trkpt>
      <trkpt lat="45.15021" lon="2.8821">
        <ele>1077.8</ele>
        <time>2021-07-23T08:27:45Z</time>
      </trkpt>
      <trkpt lat="45.15024" lon="2.882">
        <ele>1077.9</ele>
        <time>2021-07-23T08:27:47Z</time>
      </trkpt>
      <trkpt lat="45.15026" lon="2.8819">
        <ele>1078</ele>
        <time>2021-07-23T08:27:49Z</time>
      </trkpt>
      <trkpt lat="45.15029" lon="2.88181">
        <ele>1078.1</ele>
        <time>2021-07-23T08:27:51Z</time>
      </trkpt>
      <trkpt lat="45.15032" lon="2.88173">
        <ele>1078.1</ele>
        <time>2021-07-23T08:27:53Z</time>
      </trkpt>
      <trkpt lat="45.15035" lon="2.88165">
        <ele>1078.2</ele>
        <time>2021-07-23T08:27:55Z</time>
      </trkpt>
      <trkpt lat="45.15038" lon="2.88159">
        <ele>1078.2</ele>
        <time>2021-07-23T08:27:57Z</time>
      </trkpt>
      <trkpt lat="45.15041" lon="2.88153">
        <ele>1078.2</ele>
        <time>2021-07-23T08:27:59Z</time>
      </trkpt>
      <trkpt lat="45.15047" lon="2.88145">
        <ele>1078.1</ele>
        <time>2021-07-23T08:28:03Z</time>
      </trkpt>
      <trkpt lat="45.15051" lon="2.88144">
        <ele>1078</ele>
        <time>2021-07-23T08:28:17Z</time>
      </trkpt>
      <trkpt lat="45.15046" lon="2.88141">
        <ele>1078.2</ele>
        <time>2021-07-23T08:32:23Z</time>
      </trkpt>
      <trkpt lat="45.15039" lon="2.88141">
        <ele>1078.4</ele>
        <time>2021-07-23T08:32:27Z</time>
      </trkpt>
      <trkpt lat="45.15034" lon="2.88143">
        <ele>1078.5</ele>
        <time>2021-07-23T08:32:29Z</time>
      </trkpt>
      <trkpt lat="45.15029" lon="2.88146">
        <ele>1078.6</ele>
        <time>2021-07-23T08:32:31Z</time>
      </trkpt>
      <trkpt lat="45.15023" lon="2.88149">
        <ele>1078.6</ele>
        <time>2021-07-23T08:32:33Z</time>
      </trkpt>
      <trkpt lat="45.15018" lon="2.88151">
        <ele>1078.7</ele>
        <time>2021-07-23T08:32:35Z</time>
      </trkpt>
      <trkpt lat="45.15013" lon="2.88153">
        <ele>1078.9</ele>
        <time>2021-07-23T08:32:37Z</time>
      </trkpt>
      <trkpt lat="45.15008" lon="2.88155">
        <ele>1079</ele>
        <time>2021-07-23T08:32:39Z</time>
      </trkpt>
      <trkpt lat="45.15003" lon="2.88157">
        <ele>1079.1</ele>
        <time>2021-07-23T08:32:41Z</time>
      </trkpt>
      <trkpt lat="45.14994" lon="2.88159">
        <ele>1080.2</ele>
        <time>2021-07-23T08:32:45Z</time>
      </trkpt>
      <trkpt lat="45.1499" lon="2.8816">
        <ele>1080.9</ele>
        <time>2021-07-23T08:32:47Z</time>
      </trkpt>
      <trkpt lat="45.14983" lon="2.88163">
        <ele>1082</ele>
        <time>2021-07-23T08:32:51Z</time>
      </trkpt>
      <trkpt lat="45.14976" lon="2.88164">
        <ele>1083.1</ele>
        <time>2021-07-23T08:32:55Z</time>
      </trkpt>
      <trkpt lat="45.14971" lon="2.88165">
        <ele>1084</ele>
        <time>2021-07-23T08:32:59Z</time>
      </trkpt>
      <trkpt lat="45.14966" lon="2.88166">
        <ele>1084.8</ele>
        <time>2021-07-23T08:33:03Z</time>
      </trkpt>
      <trkpt lat="45.14961" lon="2.88168">
        <ele>1085.4</ele>
        <time>2021-07-23T08:33:07Z</time>
      </trkpt>
      <trkpt lat="45.14956" lon="2.88169">
        <ele>1086.3</ele>
        <time>2021-07-23T08:33:11Z</time>
      </trkpt>
      <trkpt lat="45.1495" lon="2.88171">
        <ele>1087.2</ele>
        <time>2021-07-23T08:33:15Z</time>
      </trkpt>
      <trkpt lat="45.14945" lon="2.88174">
        <ele>1087.8</ele>
        <time>2021-07-23T08:33:19Z</time>
      </trkpt>
      <trkpt lat="45.14941" lon="2.88178">
        <ele>1088.2</ele>
        <time>2021-07-23T08:33:23Z</time>
      </trkpt>
      <trkpt lat="45.14935" lon="2.88182">
        <ele>1088.7</ele>
        <time>2021-07-23T08:33:27Z</time>
      </trkpt>
      <trkpt lat="45.1493" lon="2.88184">
        <ele>1089.4</ele>
        <time>2021-07-23T08:33:31Z</time>
      </trkpt>
      <trkpt lat="45.14925" lon="2.88189">
        <ele>1089.7</ele>
        <time>2021-07-23T08:33:35Z</time>
      </trkpt>
      <trkpt lat="45.14919" lon="2.88195">
        <ele>1089.9</ele>
        <time>2021-07-23T08:33:39Z</time>
      </trkpt>
      <trkpt lat="45.14914" lon="2.88202">
        <ele>1090.1</ele>
        <time>2021-07-23T08:33:43Z</time>
      </trkpt>
      <trkpt lat="45.14909" lon="2.88207">
        <ele>1090.6</ele>
        <time>2021-07-23T08:33:47Z</time>
      </trkpt>
      <trkpt lat="45.14904" lon="2.88212">
        <ele>1091.2</ele>
        <time>2021-07-23T08:33:51Z</time>
      </trkpt>
      <trkpt lat="45.14899" lon="2.88215">
        <ele>1091.7</ele>
        <time>2021-07-23T08:33:55Z</time>
      </trkpt>
      <trkpt lat="45.14893" lon="2.8822">
        <ele>1092.6</ele>
        <time>2021-07-23T08:33:59Z</time>
      </trkpt>
      <trkpt lat="45.14887" lon="2.88222">
        <ele>1093.5</ele>
        <time>2021-07-23T08:34:03Z</time>
      </trkpt>
      <trkpt lat="45.14881" lon="2.88223">
        <ele>1094.6</ele>
        <time>2021-07-23T08:34:07Z</time>
      </trkpt>
      <trkpt lat="45.14875" lon="2.88223">
        <ele>1095.8</ele>
        <time>2021-07-23T08:34:11Z</time>
      </trkpt>
      <trkpt lat="45.1487" lon="2.88222">
        <ele>1096.7</ele>
        <time>2021-07-23T08:34:19Z</time>
      </trkpt>
      <trkpt lat="45.14864" lon="2.88223">
        <ele>1097.8</ele>
        <time>2021-07-23T08:34:25Z</time>
      </trkpt>
      <trkpt lat="45.14859" lon="2.88224">
        <ele>1098.8</ele>
        <time>2021-07-23T08:34:31Z</time>
      </trkpt>
      <trkpt lat="45.14853" lon="2.88223">
        <ele>1100</ele>
        <time>2021-07-23T08:34:39Z</time>
      </trkpt>
      <trkpt lat="45.14851" lon="2.88215">
        <ele>1101.3</ele>
        <time>2021-07-23T08:34:45Z</time>
      </trkpt>
      <trkpt lat="45.14853" lon="2.88207">
        <ele>1101.8</ele>
        <time>2021-07-23T08:34:53Z</time>
      </trkpt>
      <trkpt lat="45.14856" lon="2.88199">
        <ele>1102.1</ele>
        <time>2021-07-23T08:35:07Z</time>
      </trkpt>
      <trkpt lat="45.14857" lon="2.88191">
        <ele>1102.6</ele>
        <time>2021-07-23T08:35:11Z</time>
      </trkpt>
      <trkpt lat="45.14858" lon="2.88183">
        <ele>1103.2</ele>
        <time>2021-07-23T08:35:15Z</time>
      </trkpt>
      <trkpt lat="45.14858" lon="2.88175">
        <ele>1104</ele>
        <time>2021-07-23T08:35:19Z</time>
      </trkpt>
      <trkpt lat="45.14857" lon="2.88168">
        <ele>1105</ele>
        <time>2021-07-23T08:35:23Z</time>
      </trkpt>
      <trkpt lat="45.14854" lon="2.88161">
        <ele>1106.4</ele>
        <time>2021-07-23T08:35:27Z</time>
      </trkpt>
      <trkpt lat="45.1485" lon="2.88157">
        <ele>1107.7</ele>
        <time>2021-07-23T08:35:31Z</time>
      </trkpt>
      <trkpt lat="45.14845" lon="2.88151">
        <ele>1109.6</ele>
        <time>2021-07-23T08:35:37Z</time>
      </trkpt>
      <trkpt lat="45.14838" lon="2.88149">
        <ele>1111.2</ele>
        <time>2021-07-23T08:35:43Z</time>
      </trkpt>
      <trkpt lat="45.14834" lon="2.88143">
        <ele>1112.7</ele>
        <time>2021-07-23T08:35:47Z</time>
      </trkpt>
      <trkpt lat="45.14831" lon="2.88137">
        <ele>1113.7</ele>
        <time>2021-07-23T08:35:51Z</time>
      </trkpt>
      <trkpt lat="45.14826" lon="2.88134">
        <ele>1114.5</ele>
        <time>2021-07-23T08:35:55Z</time>
      </trkpt>
      <trkpt lat="45.14821" lon="2.88133">
        <ele>1115.1</ele>
        <time>2021-07-23T08:35:59Z</time>
      </trkpt>
      <trkpt lat="45.14816" lon="2.88129">
        <ele>1116.1</ele>
        <time>2021-07-23T08:36:05Z</time>
      </trkpt>
      <trkpt lat="45.1481" lon="2.88128">
        <ele>1116.6</ele>
        <time>2021-07-23T08:36:11Z</time>
      </trkpt>
      <trkpt lat="45.14805" lon="2.88125">
        <ele>1117.4</ele>
        <time>2021-07-23T08:36:17Z</time>
      </trkpt>
      <trkpt lat="45.148" lon="2.88125">
        <ele>1117.8</ele>
        <time>2021-07-23T08:36:21Z</time>
      </trkpt>
      <trkpt lat="45.14795" lon="2.88122">
        <ele>1118.5</ele>
        <time>2021-07-23T08:36:25Z</time>
      </trkpt>
      <trkpt lat="45.1479" lon="2.8812">
        <ele>1119.1</ele>
        <time>2021-07-23T08:36:31Z</time>
      </trkpt>
      <trkpt lat="45.14786" lon="2.88117">
        <ele>1119.7</ele>
        <time>2021-07-23T08:36:35Z</time>
      </trkpt>
      <trkpt lat="45.1478" lon="2.88115">
        <ele>1120.3</ele>
        <time>2021-07-23T08:36:39Z</time>
      </trkpt>
      <trkpt lat="45.14776" lon="2.88111">
        <ele>1121.1</ele>
        <time>2021-07-23T08:36:45Z</time>
      </trkpt>
      <trkpt lat="45.14771" lon="2.88107">
        <ele>1121.8</ele>
        <time>2021-07-23T08:36:53Z</time>
      </trkpt>
      <trkpt lat="45.14769" lon="2.88101">
        <ele>1122.4</ele>
        <time>2021-07-23T08:37:01Z</time>
      </trkpt>
      <trkpt lat="45.14766" lon="2.88096">
        <ele>1123</ele>
        <time>2021-07-23T08:37:11Z</time>
      </trkpt>
      <trkpt lat="45.14762" lon="2.8809">
        <ele>1123.8</ele>
        <time>2021-07-23T08:37:19Z</time>
      </trkpt>
      <trkpt lat="45.14759" lon="2.88084">
        <ele>1124.4</ele>
        <time>2021-07-23T08:37:25Z</time>
      </trkpt>
      <trkpt lat="45.14756" lon="2.88077">
        <ele>1125.1</ele>
        <time>2021-07-23T08:37:31Z</time>
      </trkpt>
      <trkpt lat="45.14752" lon="2.8807">
        <ele>1125.8</ele>
        <time>2021-07-23T08:37:37Z</time>
      </trkpt>
      <trkpt lat="45.1475" lon="2.88063">
        <ele>1126.5</ele>
        <time>2021-07-23T08:37:43Z</time>
      </trkpt>
      <trkpt lat="45.14748" lon="2.88056">
        <ele>1127.3</ele>
        <time>2021-07-23T08:37:51Z</time>
      </trkpt>
      <trkpt lat="45.14745" lon="2.88048">
        <ele>1128.1</ele>
        <time>2021-07-23T08:37:57Z</time>
      </trkpt>
      <trkpt lat="45.14742" lon="2.8804">
        <ele>1129</ele>
        <time>2021-07-23T08:38:01Z</time>
      </trkpt>
      <trkpt lat="45.14738" lon="2.88034">
        <ele>1129.8</ele>
        <time>2021-07-23T08:38:05Z</time>
      </trkpt>
      <trkpt lat="45.14734" lon="2.88029">
        <ele>1130.6</ele>
        <time>2021-07-23T08:38:09Z</time>
      </trkpt>
      <trkpt lat="45.14728" lon="2.88026">
        <ele>1131.4</ele>
        <time>2021-07-23T08:38:13Z</time>
      </trkpt>
      <trkpt lat="45.14722" lon="2.88025">
        <ele>1132.1</ele>
        <time>2021-07-23T08:38:17Z</time>
      </trkpt>
      <trkpt lat="45.14718" lon="2.88021">
        <ele>1132.7</ele>
        <time>2021-07-23T08:38:21Z</time>
      </trkpt>
      <trkpt lat="45.14713" lon="2.88017">
        <ele>1133.5</ele>
        <time>2021-07-23T08:38:25Z</time>
      </trkpt>
      <trkpt lat="45.14708" lon="2.88015">
        <ele>1134.2</ele>
        <time>2021-07-23T08:38:29Z</time>
      </trkpt>
      <trkpt lat="45.14702" lon="2.88012">
        <ele>1134.9</ele>
        <time>2021-07-23T08:38:33Z</time>
      </trkpt>
      <trkpt lat="45.14696" lon="2.88008">
        <ele>1135.8</ele>
        <time>2021-07-23T08:38:37Z</time>
      </trkpt>
      <trkpt lat="45.14691" lon="2.88004">
        <ele>1136.5</ele>
        <time>2021-07-23T08:38:41Z</time>
      </trkpt>
      <trkpt lat="45.14685" lon="2.88001">
        <ele>1137.2</ele>
        <time>2021-07-23T08:38:45Z</time>
      </trkpt>
      <trkpt lat="45.14679" lon="2.87996">
        <ele>1138.1</ele>
        <time>2021-07-23T08:38:51Z</time>
      </trkpt>
      <trkpt lat="45.14675" lon="2.87993">
        <ele>1138.6</ele>
        <time>2021-07-23T08:38:55Z</time>
      </trkpt>
      <trkpt lat="45.14671" lon="2.87991">
        <ele>1139.3</ele>
        <time>2021-07-23T08:38:59Z</time>
      </trkpt>
      <trkpt lat="45.14665" lon="2.87989">
        <ele>1140.1</ele>
        <time>2021-07-23T08:39:03Z</time>
      </trkpt>
      <trkpt lat="45.1466" lon="2.87985">
        <ele>1141.2</ele>
        <time>2021-07-23T08:39:07Z</time>
      </trkpt>
      <trkpt lat="45.14655" lon="2.87983">
        <ele>1142.3</ele>
        <time>2021-07-23T08:39:11Z</time>
      </trkpt>
      <trkpt lat="45.1465" lon="2.87982">
        <ele>1143.4</ele>
        <time>2021-07-23T08:39:15Z</time>
      </trkpt>
      <trkpt lat="45.14644" lon="2.87981">
        <ele>1144.4</ele>
        <time>2021-07-23T08:39:19Z</time>
      </trkpt>
      <trkpt lat="45.14638" lon="2.87981">
        <ele>1145.5</ele>
        <time>2021-07-23T08:39:25Z</time>
      </trkpt>
      <trkpt lat="45.14632" lon="2.87981">
        <ele>1146.5</ele>
        <time>2021-07-23T08:39:29Z</time>
      </trkpt>
      <trkpt lat="45.14625" lon="2.87984">
        <ele>1147.7</ele>
        <time>2021-07-23T08:39:35Z</time>
      </trkpt>
      <trkpt lat="45.14621" lon="2.87987">
        <ele>1148.2</ele>
        <time>2021-07-23T08:39:41Z</time>
      </trkpt>
      <trkpt lat="45.14616" lon="2.87988">
        <ele>1149.1</ele>
        <time>2021-07-23T08:39:45Z</time>
      </trkpt>
      <trkpt lat="45.14612" lon="2.87994">
        <ele>1149.7</ele>
        <time>2021-07-23T08:39:51Z</time>
      </trkpt>
      <trkpt lat="45.14608" lon="2.87999">
        <ele>1150.4</ele>
        <time>2021-07-23T08:39:55Z</time>
      </trkpt>
      <trkpt lat="45.14602" lon="2.88003">
        <ele>1151.5</ele>
        <time>2021-07-23T08:40:01Z</time>
      </trkpt>
      <trkpt lat="45.14598" lon="2.88008">
        <ele>1152.2</ele>
        <time>2021-07-23T08:40:05Z</time>
      </trkpt>
      <trkpt lat="45.14594" lon="2.88014">
        <ele>1152.9</ele>
        <time>2021-07-23T08:40:09Z</time>
      </trkpt>
      <trkpt lat="45.14592" lon="2.88022">
        <ele>1153.3</ele>
        <time>2021-07-23T08:40:13Z</time>
      </trkpt>
      <trkpt lat="45.14588" lon="2.8803">
        <ele>1153.9</ele>
        <time>2021-07-23T08:40:17Z</time>
      </trkpt>
      <trkpt lat="45.14589" lon="2.88039">
        <ele>1153.8</ele>
        <time>2021-07-23T08:40:21Z</time>
      </trkpt>
      <trkpt lat="45.14587" lon="2.88046">
        <ele>1154.2</ele>
        <time>2021-07-23T08:40:25Z</time>
      </trkpt>
      <trkpt lat="45.14586" lon="2.88054">
        <ele>1154.4</ele>
        <time>2021-07-23T08:40:29Z</time>
      </trkpt>
      <trkpt lat="45.14581" lon="2.88058">
        <ele>1155.3</ele>
        <time>2021-07-23T08:40:33Z</time>
      </trkpt>
      <trkpt lat="45.14578" lon="2.88066">
        <ele>1155.6</ele>
        <time>2021-07-23T08:40:39Z</time>
      </trkpt>
      <trkpt lat="45.14575" lon="2.88072">
        <ele>1156.1</ele>
        <time>2021-07-23T08:40:43Z</time>
      </trkpt>
      <trkpt lat="45.1457" lon="2.88077">
        <ele>1156.6</ele>
        <time>2021-07-23T08:40:47Z</time>
      </trkpt>
      <trkpt lat="45.14564" lon="2.8808">
        <ele>1157.3</ele>
        <time>2021-07-23T08:40:51Z</time>
      </trkpt>
      <trkpt lat="45.14559" lon="2.88084">
        <ele>1157.9</ele>
        <time>2021-07-23T08:40:57Z</time>
      </trkpt>
      <trkpt lat="45.14553" lon="2.88086">
        <ele>1158.6</ele>
        <time>2021-07-23T08:41:03Z</time>
      </trkpt>
      <trkpt lat="45.14547" lon="2.88088">
        <ele>1159.4</ele>
        <time>2021-07-23T08:41:07Z</time>
      </trkpt>
      <trkpt lat="45.1454" lon="2.88091">
        <ele>1160.3</ele>
        <time>2021-07-23T08:41:13Z</time>
      </trkpt>
      <trkpt lat="45.14534" lon="2.88093">
        <ele>1161</ele>
        <time>2021-07-23T08:41:17Z</time>
      </trkpt>
      <trkpt lat="45.14529" lon="2.88093">
        <ele>1161.6</ele>
        <time>2021-07-23T08:41:21Z</time>
      </trkpt>
      <trkpt lat="45.14525" lon="2.88095">
        <ele>1162.2</ele>
        <time>2021-07-23T08:41:25Z</time>
      </trkpt>
      <trkpt lat="45.1452" lon="2.88099">
        <ele>1162.9</ele>
        <time>2021-07-23T08:41:29Z</time>
      </trkpt>
      <trkpt lat="45.14515" lon="2.88104">
        <ele>1163.6</ele>
        <time>2021-07-23T08:41:33Z</time>
      </trkpt>
      <trkpt lat="45.1451" lon="2.8811">
        <ele>1164.4</ele>
        <time>2021-07-23T08:41:39Z</time>
      </trkpt>
      <trkpt lat="45.14507" lon="2.88117">
        <ele>1164.9</ele>
        <time>2021-07-23T08:41:43Z</time>
      </trkpt>
      <trkpt lat="45.14503" lon="2.88121">
        <ele>1165.5</ele>
        <time>2021-07-23T08:41:47Z</time>
      </trkpt>
      <trkpt lat="45.145" lon="2.88129">
        <ele>1166.1</ele>
        <time>2021-07-23T08:41:51Z</time>
      </trkpt>
      <trkpt lat="45.14498" lon="2.88135">
        <ele>1166.5</ele>
        <time>2021-07-23T08:41:55Z</time>
      </trkpt>
      <trkpt lat="45.14498" lon="2.88143">
        <ele>1166.8</ele>
        <time>2021-07-23T08:41:59Z</time>
      </trkpt>
      <trkpt lat="45.14498" lon="2.88151">
        <ele>1167</ele>
        <time>2021-07-23T08:42:03Z</time>
      </trkpt>
      <trkpt lat="45.14499" lon="2.88159">
        <ele>1167</ele>
        <time>2021-07-23T08:42:07Z</time>
      </trkpt>
      <trkpt lat="45.14501" lon="2.88167">
        <ele>1166.9</ele>
        <time>2021-07-23T08:42:11Z</time>
      </trkpt>
      <trkpt lat="45.14501" lon="2.88175">
        <ele>1166.9</ele>
        <time>2021-07-23T08:42:15Z</time>
      </trkpt>
      <trkpt lat="45.14498" lon="2.88185">
        <ele>1167.2</ele>
        <time>2021-07-23T08:42:19Z</time>
      </trkpt>
      <trkpt lat="45.14495" lon="2.88194">
        <ele>1167.7</ele>
        <time>2021-07-23T08:42:23Z</time>
      </trkpt>
      <trkpt lat="45.14491" lon="2.882">
        <ele>1168.2</ele>
        <time>2021-07-23T08:42:27Z</time>
      </trkpt>
      <trkpt lat="45.14485" lon="2.88206">
        <ele>1169</ele>
        <time>2021-07-23T08:42:31Z</time>
      </trkpt>
      <trkpt lat="45.14478" lon="2.88212">
        <ele>1169.9</ele>
        <time>2021-07-23T08:42:35Z</time>
      </trkpt>
      <trkpt lat="45.1447" lon="2.88219">
        <ele>1170.9</ele>
        <time>2021-07-23T08:42:39Z</time>
      </trkpt>
      <trkpt lat="45.14464" lon="2.88225">
        <ele>1171.7</ele>
        <time>2021-07-23T08:42:43Z</time>
      </trkpt>
      <trkpt lat="45.14459" lon="2.88225">
        <ele>1172.4</ele>
        <time>2021-07-23T08:42:47Z</time>
      </trkpt>
      <trkpt lat="45.14458" lon="2.88218">
        <ele>1172.5</ele>
        <time>2021-07-23T08:42:51Z</time>
      </trkpt>
      <trkpt lat="45.14455" lon="2.88211">
        <ele>1172.9</ele>
        <time>2021-07-23T08:42:55Z</time>
      </trkpt>
      <trkpt lat="45.14451" lon="2.88203">
        <ele>1173.4</ele>
        <time>2021-07-23T08:43:01Z</time>
      </trkpt>
      <trkpt lat="45.14449" lon="2.88192">
        <ele>1173.7</ele>
        <time>2021-07-23T08:43:09Z</time>
      </trkpt>
      <trkpt lat="45.14447" lon="2.88183">
        <ele>1174</ele>
        <time>2021-07-23T08:43:13Z</time>
      </trkpt>
      <trkpt lat="45.14445" lon="2.88173">
        <ele>1174.3</ele>
        <time>2021-07-23T08:43:17Z</time>
      </trkpt>
      <trkpt lat="45.14443" lon="2.88162">
        <ele>1174.7</ele>
        <time>2021-07-23T08:43:21Z</time>
      </trkpt>
      <trkpt lat="45.1444" lon="2.88151">
        <ele>1175.4</ele>
        <time>2021-07-23T08:43:25Z</time>
      </trkpt>
      <trkpt lat="45.14437" lon="2.88142">
        <ele>1176.3</ele>
        <time>2021-07-23T08:43:29Z</time>
      </trkpt>
      <trkpt lat="45.14433" lon="2.88134">
        <ele>1177.2</ele>
        <time>2021-07-23T08:43:33Z</time>
      </trkpt>
      <trkpt lat="45.14434" lon="2.88124">
        <ele>1177.6</ele>
        <time>2021-07-23T08:43:37Z</time>
      </trkpt>
      <trkpt lat="45.14436" lon="2.88113">
        <ele>1177.7</ele>
        <time>2021-07-23T08:43:41Z</time>
      </trkpt>
      <trkpt lat="45.14435" lon="2.88106">
        <ele>1178</ele>
        <time>2021-07-23T08:43:43Z</time>
      </trkpt>
      <trkpt lat="45.14436" lon="2.88096">
        <ele>1178.4</ele>
        <time>2021-07-23T08:43:47Z</time>
      </trkpt>
      <trkpt lat="45.14435" lon="2.88087">
        <ele>1178.9</ele>
        <time>2021-07-23T08:43:51Z</time>
      </trkpt>
      <trkpt lat="45.14434" lon="2.8808">
        <ele>1179.6</ele>
        <time>2021-07-23T08:43:55Z</time>
      </trkpt>
      <trkpt lat="45.14434" lon="2.88071">
        <ele>1180.2</ele>
        <time>2021-07-23T08:43:59Z</time>
      </trkpt>
      <trkpt lat="45.14434" lon="2.88064">
        <ele>1180.8</ele>
        <time>2021-07-23T08:44:03Z</time>
      </trkpt>
      <trkpt lat="45.14434" lon="2.88056">
        <ele>1181.5</ele>
        <time>2021-07-23T08:44:09Z</time>
      </trkpt>
      <trkpt lat="45.14432" lon="2.88048">
        <ele>1182.3</ele>
        <time>2021-07-23T08:44:13Z</time>
      </trkpt>
      <trkpt lat="45.14431" lon="2.88041">
        <ele>1183.3</ele>
        <time>2021-07-23T08:44:17Z</time>
      </trkpt>
      <trkpt lat="45.14429" lon="2.88034">
        <ele>1184.2</ele>
        <time>2021-07-23T08:44:21Z</time>
      </trkpt>
      <trkpt lat="45.14428" lon="2.88025">
        <ele>1185.2</ele>
        <time>2021-07-23T08:44:27Z</time>
      </trkpt>
      <trkpt lat="45.14427" lon="2.88018">
        <ele>1186</ele>
        <time>2021-07-23T08:44:31Z</time>
      </trkpt>
      <trkpt lat="45.14424" lon="2.88013">
        <ele>1187.2</ele>
        <time>2021-07-23T08:44:41Z</time>
      </trkpt>
      <trkpt lat="45.14421" lon="2.88006">
        <ele>1188.5</ele>
        <time>2021-07-23T08:44:49Z</time>
      </trkpt>
      <trkpt lat="45.14419" lon="2.88">
        <ele>1189.5</ele>
        <time>2021-07-23T08:44:57Z</time>
      </trkpt>
      <trkpt lat="45.14417" lon="2.87994">
        <ele>1189.8</ele>
        <time>2021-07-23T08:45:11Z</time>
      </trkpt>
      <trkpt lat="45.14416" lon="2.87985">
        <ele>1189.8</ele>
        <time>2021-07-23T08:45:21Z</time>
      </trkpt>
      <trkpt lat="45.14412" lon="2.87977">
        <ele>1189.9</ele>
        <time>2021-07-23T08:45:29Z</time>
      </trkpt>
      <trkpt lat="45.14409" lon="2.87969">
        <ele>1190.2</ele>
        <time>2021-07-23T08:45:35Z</time>
      </trkpt>
      <trkpt lat="45.14407" lon="2.87961">
        <ele>1190.4</ele>
        <time>2021-07-23T08:45:41Z</time>
      </trkpt>
      <trkpt lat="45.14404" lon="2.87954">
        <ele>1190.6</ele>
        <time>2021-07-23T08:45:47Z</time>
      </trkpt>
      <trkpt lat="45.14399" lon="2.87949">
        <ele>1191.2</ele>
        <time>2021-07-23T08:45:53Z</time>
      </trkpt>
      <trkpt lat="45.14394" lon="2.87946">
        <ele>1191.8</ele>
        <time>2021-07-23T08:45:57Z</time>
      </trkpt>
      <trkpt lat="45.14391" lon="2.87943">
        <ele>1192.3</ele>
        <time>2021-07-23T08:46:15Z</time>
      </trkpt>
      <trkpt lat="45.14387" lon="2.87936">
        <ele>1192.8</ele>
        <time>2021-07-23T08:51:41Z</time>
      </trkpt>
      <trkpt lat="45.14381" lon="2.87933">
        <ele>1193.6</ele>
        <time>2021-07-23T08:51:45Z</time>
      </trkpt>
      <trkpt lat="45.14377" lon="2.87928">
        <ele>1194.3</ele>
        <time>2021-07-23T08:51:49Z</time>
      </trkpt>
      <trkpt lat="45.14373" lon="2.87922">
        <ele>1194.7</ele>
        <time>2021-07-23T08:51:53Z</time>
      </trkpt>
      <trkpt lat="45.14369" lon="2.87917">
        <ele>1195.4</ele>
        <time>2021-07-23T08:51:57Z</time>
      </trkpt>
      <trkpt lat="45.14364" lon="2.87912">
        <ele>1196</ele>
        <time>2021-07-23T08:52:01Z</time>
      </trkpt>
      <trkpt lat="45.14359" lon="2.87906">
        <ele>1196.8</ele>
        <time>2021-07-23T08:52:05Z</time>
      </trkpt>
      <trkpt lat="45.14355" lon="2.879">
        <ele>1197.4</ele>
        <time>2021-07-23T08:52:09Z</time>
      </trkpt>
      <trkpt lat="45.14352" lon="2.87894">
        <ele>1197.9</ele>
        <time>2021-07-23T08:52:13Z</time>
      </trkpt>
      <trkpt lat="45.14348" lon="2.87886">
        <ele>1198.5</ele>
        <time>2021-07-23T08:52:17Z</time>
      </trkpt>
      <trkpt lat="45.14344" lon="2.87881">
        <ele>1199.2</ele>
        <time>2021-07-23T08:52:21Z</time>
      </trkpt>
      <trkpt lat="45.1434" lon="2.87874">
        <ele>1200.1</ele>
        <time>2021-07-23T08:52:25Z</time>
      </trkpt>
      <trkpt lat="45.14337" lon="2.87869">
        <ele>1200.9</ele>
        <time>2021-07-23T08:52:29Z</time>
      </trkpt>
      <trkpt lat="45.14334" lon="2.87863">
        <ele>1201.5</ele>
        <time>2021-07-23T08:52:33Z</time>
      </trkpt>
      <trkpt lat="45.14329" lon="2.87857">
        <ele>1201.9</ele>
        <time>2021-07-23T08:52:37Z</time>
      </trkpt>
      <trkpt lat="45.14325" lon="2.87848">
        <ele>1202.2</ele>
        <time>2021-07-23T08:52:41Z</time>
      </trkpt>
      <trkpt lat="45.14321" lon="2.8784">
        <ele>1202.5</ele>
        <time>2021-07-23T08:52:45Z</time>
      </trkpt>
      <trkpt lat="45.14317" lon="2.87833">
        <ele>1202.8</ele>
        <time>2021-07-23T08:52:49Z</time>
      </trkpt>
      <trkpt lat="45.14313" lon="2.87828">
        <ele>1203</ele>
        <time>2021-07-23T08:52:53Z</time>
      </trkpt>
      <trkpt lat="45.1431" lon="2.87822">
        <ele>1203.1</ele>
        <time>2021-07-23T08:56:45Z</time>
      </trkpt>
      <trkpt lat="45.14309" lon="2.87815">
        <ele>1203.1</ele>
        <time>2021-07-23T08:56:49Z</time>
      </trkpt>
      <trkpt lat="45.14307" lon="2.87808">
        <ele>1203.2</ele>
        <time>2021-07-23T08:56:53Z</time>
      </trkpt>
      <trkpt lat="45.14303" lon="2.87799">
        <ele>1203.3</ele>
        <time>2021-07-23T08:56:57Z</time>
      </trkpt>
      <trkpt lat="45.143" lon="2.87794">
        <ele>1203.4</ele>
        <time>2021-07-23T08:57:01Z</time>
      </trkpt>
      <trkpt lat="45.14296" lon="2.87786">
        <ele>1203.5</ele>
        <time>2021-07-23T08:57:05Z</time>
      </trkpt>
      <trkpt lat="45.14293" lon="2.87778">
        <ele>1203.6</ele>
        <time>2021-07-23T08:57:09Z</time>
      </trkpt>
      <trkpt lat="45.14291" lon="2.8777">
        <ele>1203.6</ele>
        <time>2021-07-23T08:57:13Z</time>
      </trkpt>
      <trkpt lat="45.14289" lon="2.87764">
        <ele>1203.7</ele>
        <time>2021-07-23T08:57:15Z</time>
      </trkpt>
      <trkpt lat="45.14287" lon="2.87758">
        <ele>1203.7</ele>
        <time>2021-07-23T08:57:17Z</time>
      </trkpt>
      <trkpt lat="45.14287" lon="2.8775">
        <ele>1203.7</ele>
        <time>2021-07-23T08:57:21Z</time>
      </trkpt>
      <trkpt lat="45.14287" lon="2.87741">
        <ele>1203.6</ele>
        <time>2021-07-23T08:57:25Z</time>
      </trkpt>
      <trkpt lat="45.14289" lon="2.87732">
        <ele>1203.6</ele>
        <time>2021-07-23T08:57:29Z</time>
      </trkpt>
      <trkpt lat="45.14289" lon="2.87723">
        <ele>1203.6</ele>
        <time>2021-07-23T08:57:33Z</time>
      </trkpt>
      <trkpt lat="45.1429" lon="2.87711">
        <ele>1203.5</ele>
        <time>2021-07-23T08:57:37Z</time>
      </trkpt>
      <trkpt lat="45.14293" lon="2.87701">
        <ele>1203.5</ele>
        <time>2021-07-23T08:57:41Z</time>
      </trkpt>
      <trkpt lat="45.14296" lon="2.87694">
        <ele>1203.4</ele>
        <time>2021-07-23T08:57:45Z</time>
      </trkpt>
      <trkpt lat="45.14298" lon="2.87683">
        <ele>1203.4</ele>
        <time>2021-07-23T08:57:49Z</time>
      </trkpt>
      <trkpt lat="45.14299" lon="2.87676">
        <ele>1203.4</ele>
        <time>2021-07-23T08:57:51Z</time>
      </trkpt>
      <trkpt lat="45.143" lon="2.87669">
        <ele>1203.4</ele>
        <time>2021-07-23T08:57:53Z</time>
      </trkpt>
      <trkpt lat="45.14301" lon="2.87663">
        <ele>1203.4</ele>
        <time>2021-07-23T08:57:55Z</time>
      </trkpt>
      <trkpt lat="45.14303" lon="2.87657">
        <ele>1203.4</ele>
        <time>2021-07-23T08:57:57Z</time>
      </trkpt>
      <trkpt lat="45.14306" lon="2.87648">
        <ele>1203.3</ele>
        <time>2021-07-23T08:58:01Z</time>
      </trkpt>
      <trkpt lat="45.14307" lon="2.87634">
        <ele>1203.3</ele>
        <time>2021-07-23T08:58:05Z</time>
      </trkpt>
      <trkpt lat="45.14309" lon="2.87628">
        <ele>1203.3</ele>
        <time>2021-07-23T08:58:07Z</time>
      </trkpt>
      <trkpt lat="45.14312" lon="2.87616">
        <ele>1203.3</ele>
        <time>2021-07-23T08:58:11Z</time>
      </trkpt>
      <trkpt lat="45.14312" lon="2.87609">
        <ele>1203.3</ele>
        <time>2021-07-23T08:58:13Z</time>
      </trkpt>
      <trkpt lat="45.14314" lon="2.87602">
        <ele>1203.2</ele>
        <time>2021-07-23T08:58:17Z</time>
      </trkpt>
      <trkpt lat="45.14317" lon="2.87591">
        <ele>1203.2</ele>
        <time>2021-07-23T08:58:21Z</time>
      </trkpt>
      <trkpt lat="45.14316" lon="2.87584">
        <ele>1203.2</ele>
        <time>2021-07-23T08:58:23Z</time>
      </trkpt>
      <trkpt lat="45.14315" lon="2.87575">
        <ele>1203.3</ele>
        <time>2021-07-23T08:58:27Z</time>
      </trkpt>
      <trkpt lat="45.14316" lon="2.87563">
        <ele>1203.4</ele>
        <time>2021-07-23T08:58:31Z</time>
      </trkpt>
      <trkpt lat="45.14317" lon="2.87552">
        <ele>1203.5</ele>
        <time>2021-07-23T08:58:35Z</time>
      </trkpt>
      <trkpt lat="45.1432" lon="2.87544">
        <ele>1203.6</ele>
        <time>2021-07-23T08:58:39Z</time>
      </trkpt>
      <trkpt lat="45.1432" lon="2.87535">
        <ele>1203.7</ele>
        <time>2021-07-23T08:58:43Z</time>
      </trkpt>
      <trkpt lat="45.1432" lon="2.87526">
        <ele>1203.7</ele>
        <time>2021-07-23T08:58:47Z</time>
      </trkpt>
      <trkpt lat="45.14319" lon="2.87519">
        <ele>1203.8</ele>
        <time>2021-07-23T08:58:51Z</time>
      </trkpt>
      <trkpt lat="45.14319" lon="2.87513">
        <ele>1203.9</ele>
        <time>2021-07-23T08:58:55Z</time>
      </trkpt>
      <trkpt lat="45.14317" lon="2.87505">
        <ele>1204</ele>
        <time>2021-07-23T08:59:01Z</time>
      </trkpt>
      <trkpt lat="45.14318" lon="2.87497">
        <ele>1204.3</ele>
        <time>2021-07-23T08:59:05Z</time>
      </trkpt>
      <trkpt lat="45.1432" lon="2.87489">
        <ele>1205.1</ele>
        <time>2021-07-23T08:59:09Z</time>
      </trkpt>
      <trkpt lat="45.1432" lon="2.87482">
        <ele>1205.8</ele>
        <time>2021-07-23T08:59:13Z</time>
      </trkpt>
      <trkpt lat="45.14321" lon="2.87474">
        <ele>1206.6</ele>
        <time>2021-07-23T08:59:19Z</time>
      </trkpt>
      <trkpt lat="45.14322" lon="2.87467">
        <ele>1207.4</ele>
        <time>2021-07-23T08:59:23Z</time>
      </trkpt>
      <trkpt lat="45.14323" lon="2.8746">
        <ele>1208.1</ele>
        <time>2021-07-23T08:59:27Z</time>
      </trkpt>
      <trkpt lat="45.14322" lon="2.87453">
        <ele>1208.7</ele>
        <time>2021-07-23T08:59:31Z</time>
      </trkpt>
      <trkpt lat="45.14323" lon="2.87445">
        <ele>1209.6</ele>
        <time>2021-07-23T08:59:37Z</time>
      </trkpt>
      <trkpt lat="45.14323" lon="2.87437">
        <ele>1210.4</ele>
        <time>2021-07-23T08:59:43Z</time>
      </trkpt>
      <trkpt lat="45.14321" lon="2.8743">
        <ele>1211.1</ele>
        <time>2021-07-23T08:59:49Z</time>
      </trkpt>
      <trkpt lat="45.14317" lon="2.87422">
        <ele>1211.7</ele>
        <time>2021-07-23T08:59:55Z</time>
      </trkpt>
      <trkpt lat="45.14312" lon="2.87416">
        <ele>1212</ele>
        <time>2021-07-23T09:00:01Z</time>
      </trkpt>
      <trkpt lat="45.14308" lon="2.87411">
        <ele>1212.4</ele>
        <time>2021-07-23T09:00:07Z</time>
      </trkpt>
      <trkpt lat="45.14304" lon="2.87406">
        <ele>1212.9</ele>
        <time>2021-07-23T09:00:13Z</time>
      </trkpt>
      <trkpt lat="45.14302" lon="2.874">
        <ele>1213.6</ele>
        <time>2021-07-23T09:00:17Z</time>
      </trkpt>
      <trkpt lat="45.14299" lon="2.87393">
        <ele>1214.4</ele>
        <time>2021-07-23T09:00:23Z</time>
      </trkpt>
      <trkpt lat="45.14299" lon="2.87385">
        <ele>1215.3</ele>
        <time>2021-07-23T09:00:29Z</time>
      </trkpt>
      <trkpt lat="45.14297" lon="2.87377">
        <ele>1216.2</ele>
        <time>2021-07-23T09:00:35Z</time>
      </trkpt>
      <trkpt lat="45.14294" lon="2.87372">
        <ele>1216.7</ele>
        <time>2021-07-23T09:00:39Z</time>
      </trkpt>
      <trkpt lat="45.1429" lon="2.87365">
        <ele>1217.4</ele>
        <time>2021-07-23T09:00:45Z</time>
      </trkpt>
      <trkpt lat="45.14287" lon="2.8736">
        <ele>1217.9</ele>
        <time>2021-07-23T09:00:49Z</time>
      </trkpt>
      <trkpt lat="45.14284" lon="2.87354">
        <ele>1218.7</ele>
        <time>2021-07-23T09:00:53Z</time>
      </trkpt>
      <trkpt lat="45.14283" lon="2.87347">
        <ele>1219.4</ele>
        <time>2021-07-23T09:00:57Z</time>
      </trkpt>
      <trkpt lat="45.14282" lon="2.87339">
        <ele>1220.4</ele>
        <time>2021-07-23T09:01:01Z</time>
      </trkpt>
      <trkpt lat="45.14283" lon="2.87332">
        <ele>1221.2</ele>
        <time>2021-07-23T09:01:05Z</time>
      </trkpt>
      <trkpt lat="45.14285" lon="2.87325">
        <ele>1221.5</ele>
        <time>2021-07-23T09:01:09Z</time>
      </trkpt>
      <trkpt lat="45.14286" lon="2.87316">
        <ele>1221.7</ele>
        <time>2021-07-23T09:01:15Z</time>
      </trkpt>
      <trkpt lat="45.14287" lon="2.87309">
        <ele>1221.9</ele>
        <time>2021-07-23T09:01:19Z</time>
      </trkpt>
      <trkpt lat="45.14288" lon="2.873">
        <ele>1222.2</ele>
        <time>2021-07-23T09:01:23Z</time>
      </trkpt>
      <trkpt lat="45.14289" lon="2.87294">
        <ele>1222.4</ele>
        <time>2021-07-23T09:01:27Z</time>
      </trkpt>
      <trkpt lat="45.14287" lon="2.87284">
        <ele>1222.6</ele>
        <time>2021-07-23T09:01:31Z</time>
      </trkpt>
      <trkpt lat="45.14286" lon="2.87277">
        <ele>1222.7</ele>
        <time>2021-07-23T09:01:33Z</time>
      </trkpt>
      <trkpt lat="45.14285" lon="2.87267">
        <ele>1223</ele>
        <time>2021-07-23T09:01:37Z</time>
      </trkpt>
      <trkpt lat="45.14286" lon="2.8726">
        <ele>1223.2</ele>
        <time>2021-07-23T09:01:39Z</time>
      </trkpt>
      <trkpt lat="45.14288" lon="2.87253">
        <ele>1223.4</ele>
        <time>2021-07-23T09:01:41Z</time>
      </trkpt>
      <trkpt lat="45.14291" lon="2.87245">
        <ele>1223.4</ele>
        <time>2021-07-23T09:01:43Z</time>
      </trkpt>
      <trkpt lat="45.14296" lon="2.87234">
        <ele>1223.3</ele>
        <time>2021-07-23T09:01:45Z</time>
      </trkpt>
      <trkpt lat="45.14301" lon="2.87224">
        <ele>1223.2</ele>
        <time>2021-07-23T09:01:47Z</time>
      </trkpt>
      <trkpt lat="45.14305" lon="2.87211">
        <ele>1223</ele>
        <time>2021-07-23T09:01:49Z</time>
      </trkpt>
      <trkpt lat="45.14307" lon="2.87199">
        <ele>1222.8</ele>
        <time>2021-07-23T09:01:51Z</time>
      </trkpt>
      <trkpt lat="45.14307" lon="2.8719">
        <ele>1222.7</ele>
        <time>2021-07-23T09:01:53Z</time>
      </trkpt>
      <trkpt lat="45.14305" lon="2.87183">
        <ele>1222.6</ele>
        <time>2021-07-23T09:01:55Z</time>
      </trkpt>
      <trkpt lat="45.14306" lon="2.87173">
        <ele>1222.4</ele>
        <time>2021-07-23T09:01:59Z</time>
      </trkpt>
      <trkpt lat="45.14305" lon="2.8716">
        <ele>1222.4</ele>
        <time>2021-07-23T09:02:03Z</time>
      </trkpt>
      <trkpt lat="45.14304" lon="2.8715">
        <ele>1222.5</ele>
        <time>2021-07-23T09:02:07Z</time>
      </trkpt>
      <trkpt lat="45.14305" lon="2.87139">
        <ele>1222.6</ele>
        <time>2021-07-23T09:02:11Z</time>
      </trkpt>
      <trkpt lat="45.14304" lon="2.87131">
        <ele>1222.6</ele>
        <time>2021-07-23T09:02:13Z</time>
      </trkpt>
      <trkpt lat="45.14306" lon="2.87119">
        <ele>1222.7</ele>
        <time>2021-07-23T09:02:17Z</time>
      </trkpt>
      <trkpt lat="45.14306" lon="2.8711">
        <ele>1222.8</ele>
        <time>2021-07-23T09:02:21Z</time>
      </trkpt>
      <trkpt lat="45.14306" lon="2.87101">
        <ele>1222.9</ele>
        <time>2021-07-23T09:02:25Z</time>
      </trkpt>
      <trkpt lat="45.14306" lon="2.87088">
        <ele>1222.9</ele>
        <time>2021-07-23T09:02:29Z</time>
      </trkpt>
      <trkpt lat="45.14308" lon="2.87083">
        <ele>1222.9</ele>
        <time>2021-07-23T09:02:31Z</time>
      </trkpt>
      <trkpt lat="45.14314" lon="2.87076">
        <ele>1222.8</ele>
        <time>2021-07-23T09:02:35Z</time>
      </trkpt>
      <trkpt lat="45.14317" lon="2.87067">
        <ele>1222.8</ele>
        <time>2021-07-23T09:02:39Z</time>
      </trkpt>
      <trkpt lat="45.14319" lon="2.87058">
        <ele>1222.9</ele>
        <time>2021-07-23T09:02:43Z</time>
      </trkpt>
      <trkpt lat="45.14321" lon="2.87048">
        <ele>1222.9</ele>
        <time>2021-07-23T09:02:47Z</time>
      </trkpt>
      <trkpt lat="45.14322" lon="2.87038">
        <ele>1223</ele>
        <time>2021-07-23T09:02:51Z</time>
      </trkpt>
      <trkpt lat="45.14323" lon="2.8703">
        <ele>1223.1</ele>
        <time>2021-07-23T09:02:55Z</time>
      </trkpt>
      <trkpt lat="45.14319" lon="2.87021">
        <ele>1223.4</ele>
        <time>2021-07-23T09:02:59Z</time>
      </trkpt>
      <trkpt lat="45.14317" lon="2.87012">
        <ele>1223.6</ele>
        <time>2021-07-23T09:03:03Z</time>
      </trkpt>
      <trkpt lat="45.14318" lon="2.87005">
        <ele>1223.7</ele>
        <time>2021-07-23T09:03:05Z</time>
      </trkpt>
      <trkpt lat="45.14319" lon="2.86998">
        <ele>1223.8</ele>
        <time>2021-07-23T09:03:07Z</time>
      </trkpt>
      <trkpt lat="45.14321" lon="2.86989">
        <ele>1224.3</ele>
        <time>2021-07-23T09:03:11Z</time>
      </trkpt>
      <trkpt lat="45.14319" lon="2.86981">
        <ele>1225</ele>
        <time>2021-07-23T09:03:15Z</time>
      </trkpt>
      <trkpt lat="45.14319" lon="2.86973">
        <ele>1225.5</ele>
        <time>2021-07-23T09:03:19Z</time>
      </trkpt>
      <trkpt lat="45.14322" lon="2.86966">
        <ele>1225.8</ele>
        <time>2021-07-23T09:03:27Z</time>
      </trkpt>
      <trkpt lat="45.14326" lon="2.8696">
        <ele>1226.1</ele>
        <time>2021-07-23T09:03:35Z</time>
      </trkpt>
      <trkpt lat="45.14328" lon="2.86951">
        <ele>1226.7</ele>
        <time>2021-07-23T09:03:43Z</time>
      </trkpt>
      <trkpt lat="45.14331" lon="2.86945">
        <ele>1227</ele>
        <time>2021-07-23T09:03:47Z</time>
      </trkpt>
      <trkpt lat="45.14336" lon="2.86938">
        <ele>1227.3</ele>
        <time>2021-07-23T09:03:51Z</time>
      </trkpt>
      <trkpt lat="45.1434" lon="2.86933">
        <ele>1227.2</ele>
        <time>2021-07-23T09:04:01Z</time>
      </trkpt>
      <trkpt lat="45.14342" lon="2.86926">
        <ele>1227.6</ele>
        <time>2021-07-23T09:04:09Z</time>
      </trkpt>
      <trkpt lat="45.1434" lon="2.86919">
        <ele>1228.3</ele>
        <time>2021-07-23T09:04:15Z</time>
      </trkpt>
      <trkpt lat="45.14341" lon="2.86912">
        <ele>1228.5</ele>
        <time>2021-07-23T09:04:23Z</time>
      </trkpt>
      <trkpt lat="45.14342" lon="2.86906">
        <ele>1228.5</ele>
        <time>2021-07-23T09:04:31Z</time>
      </trkpt>
      <trkpt lat="45.14342" lon="2.86897">
        <ele>1228.7</ele>
        <time>2021-07-23T09:04:37Z</time>
      </trkpt>
      <trkpt lat="45.14345" lon="2.86892">
        <ele>1228.6</ele>
        <time>2021-07-23T09:04:41Z</time>
      </trkpt>
      <trkpt lat="45.14344" lon="2.86884">
        <ele>1228.8</ele>
        <time>2021-07-23T09:04:51Z</time>
      </trkpt>
      <trkpt lat="45.14342" lon="2.86878">
        <ele>1229.1</ele>
        <time>2021-07-23T09:04:57Z</time>
      </trkpt>
      <trkpt lat="45.14338" lon="2.86875">
        <ele>1229.6</ele>
        <time>2021-07-23T09:05:01Z</time>
      </trkpt>
      <trkpt lat="45.14335" lon="2.86869">
        <ele>1230</ele>
        <time>2021-07-23T09:05:07Z</time>
      </trkpt>
      <trkpt lat="45.14335" lon="2.86862">
        <ele>1230.2</ele>
        <time>2021-07-23T09:05:11Z</time>
      </trkpt>
      <trkpt lat="45.14335" lon="2.86853">
        <ele>1230.4</ele>
        <time>2021-07-23T09:05:17Z</time>
      </trkpt>
      <trkpt lat="45.14336" lon="2.86846">
        <ele>1230.4</ele>
        <time>2021-07-23T09:05:23Z</time>
      </trkpt>
      <trkpt lat="45.14336" lon="2.86839">
        <ele>1230.6</ele>
        <time>2021-07-23T09:05:29Z</time>
      </trkpt>
      <trkpt lat="45.14337" lon="2.86831">
        <ele>1230.7</ele>
        <time>2021-07-23T09:05:33Z</time>
      </trkpt>
      <trkpt lat="45.14337" lon="2.86821">
        <ele>1230.7</ele>
        <time>2021-07-23T09:05:37Z</time>
      </trkpt>
      <trkpt lat="45.14337" lon="2.86812">
        <ele>1230.6</ele>
        <time>2021-07-23T09:05:45Z</time>
      </trkpt>
      <trkpt lat="45.14338" lon="2.86803">
        <ele>1230.6</ele>
        <time>2021-07-23T09:05:51Z</time>
      </trkpt>
      <trkpt lat="45.14339" lon="2.86796">
        <ele>1230.5</ele>
        <time>2021-07-23T09:06:03Z</time>
      </trkpt>
      <trkpt lat="45.14337" lon="2.86789">
        <ele>1230.7</ele>
        <time>2021-07-23T09:06:11Z</time>
      </trkpt>
      <trkpt lat="45.14336" lon="2.86782">
        <ele>1230.8</ele>
        <time>2021-07-23T09:06:17Z</time>
      </trkpt>
      <trkpt lat="45.14333" lon="2.86772">
        <ele>1231</ele>
        <time>2021-07-23T09:06:21Z</time>
      </trkpt>
      <trkpt lat="45.14333" lon="2.86764">
        <ele>1231</ele>
        <time>2021-07-23T09:06:25Z</time>
      </trkpt>
      <trkpt lat="45.14335" lon="2.86755">
        <ele>1230.9</ele>
        <time>2021-07-23T09:06:29Z</time>
      </trkpt>
      <trkpt lat="45.14336" lon="2.86747">
        <ele>1231</ele>
        <time>2021-07-23T09:06:33Z</time>
      </trkpt>
      <trkpt lat="45.1434" lon="2.8674">
        <ele>1230.9</ele>
        <time>2021-07-23T09:06:43Z</time>
      </trkpt>
      <trkpt lat="45.14345" lon="2.86733">
        <ele>1230.9</ele>
        <time>2021-07-23T09:06:51Z</time>
      </trkpt>
      <trkpt lat="45.14347" lon="2.86727">
        <ele>1230.9</ele>
        <time>2021-07-23T09:06:55Z</time>
      </trkpt>
      <trkpt lat="45.14349" lon="2.86721">
        <ele>1231.1</ele>
        <time>2021-07-23T09:06:59Z</time>
      </trkpt>
      <trkpt lat="45.14348" lon="2.86714">
        <ele>1231.5</ele>
        <time>2021-07-23T09:07:05Z</time>
      </trkpt>
      <trkpt lat="45.14345" lon="2.86707">
        <ele>1232.1</ele>
        <time>2021-07-23T09:07:11Z</time>
      </trkpt>
      <trkpt lat="45.14343" lon="2.86697">
        <ele>1232.7</ele>
        <time>2021-07-23T09:07:17Z</time>
      </trkpt>
      <trkpt lat="45.14339" lon="2.86692">
        <ele>1233.3</ele>
        <time>2021-07-23T09:07:23Z</time>
      </trkpt>
      <trkpt lat="45.14337" lon="2.86685">
        <ele>1233.8</ele>
        <time>2021-07-23T09:07:29Z</time>
      </trkpt>
      <trkpt lat="45.14332" lon="2.86681">
        <ele>1234.3</ele>
        <time>2021-07-23T09:07:39Z</time>
      </trkpt>
      <trkpt lat="45.14328" lon="2.86678">
        <ele>1234.4</ele>
        <time>2021-07-23T09:07:45Z</time>
      </trkpt>
      <trkpt lat="45.14324" lon="2.86674">
        <ele>1234.5</ele>
        <time>2021-07-23T09:07:55Z</time>
      </trkpt>
      <trkpt lat="45.14323" lon="2.86666">
        <ele>1234.7</ele>
        <time>2021-07-23T09:08:01Z</time>
      </trkpt>
      <trkpt lat="45.1432" lon="2.86661">
        <ele>1234.7</ele>
        <time>2021-07-23T09:08:09Z</time>
      </trkpt>
      <trkpt lat="45.14318" lon="2.86652">
        <ele>1234.7</ele>
        <time>2021-07-23T09:08:17Z</time>
      </trkpt>
      <trkpt lat="45.14315" lon="2.86647">
        <ele>1234.7</ele>
        <time>2021-07-23T09:08:23Z</time>
      </trkpt>
      <trkpt lat="45.14312" lon="2.86641">
        <ele>1234.7</ele>
        <time>2021-07-23T09:08:29Z</time>
      </trkpt>
      <trkpt lat="45.14311" lon="2.86634">
        <ele>1234.8</ele>
        <time>2021-07-23T09:08:35Z</time>
      </trkpt>
      <trkpt lat="45.14308" lon="2.86628">
        <ele>1234.8</ele>
        <time>2021-07-23T09:08:43Z</time>
      </trkpt>
      <trkpt lat="45.14309" lon="2.8662">
        <ele>1234.9</ele>
        <time>2021-07-23T09:08:57Z</time>
      </trkpt>
      <trkpt lat="45.14307" lon="2.86614">
        <ele>1235</ele>
        <time>2021-07-23T09:09:11Z</time>
      </trkpt>
      <trkpt lat="45.14306" lon="2.86608">
        <ele>1235</ele>
        <time>2021-07-23T09:09:19Z</time>
      </trkpt>
      <trkpt lat="45.14303" lon="2.86597">
        <ele>1235.2</ele>
        <time>2021-07-23T09:09:33Z</time>
      </trkpt>
      <trkpt lat="45.14304" lon="2.86586">
        <ele>1235.3</ele>
        <time>2021-07-23T09:09:37Z</time>
      </trkpt>
      <trkpt lat="45.14302" lon="2.86576">
        <ele>1235.4</ele>
        <time>2021-07-23T09:09:41Z</time>
      </trkpt>
      <trkpt lat="45.14299" lon="2.8657">
        <ele>1235.4</ele>
        <time>2021-07-23T09:09:43Z</time>
      </trkpt>
      <trkpt lat="45.14298" lon="2.8656">
        <ele>1235.4</ele>
        <time>2021-07-23T09:09:47Z</time>
      </trkpt>
      <trkpt lat="45.14297" lon="2.86551">
        <ele>1235.4</ele>
        <time>2021-07-23T09:09:51Z</time>
      </trkpt>
      <trkpt lat="45.14297" lon="2.86543">
        <ele>1235.4</ele>
        <time>2021-07-23T09:09:55Z</time>
      </trkpt>
      <trkpt lat="45.14297" lon="2.86537">
        <ele>1235.4</ele>
        <time>2021-07-23T09:10:03Z</time>
      </trkpt>
      <trkpt lat="45.14296" lon="2.8653">
        <ele>1235.4</ele>
        <time>2021-07-23T09:10:07Z</time>
      </trkpt>
      <trkpt lat="45.14297" lon="2.86524">
        <ele>1235.4</ele>
        <time>2021-07-23T09:10:11Z</time>
      </trkpt>
      <trkpt lat="45.14296" lon="2.86516">
        <ele>1235.4</ele>
        <time>2021-07-23T09:10:15Z</time>
      </trkpt>
      <trkpt lat="45.14297" lon="2.86508">
        <ele>1235.4</ele>
        <time>2021-07-23T09:10:21Z</time>
      </trkpt>
      <trkpt lat="45.14298" lon="2.86499">
        <ele>1235.4</ele>
        <time>2021-07-23T09:10:25Z</time>
      </trkpt>
      <trkpt lat="45.14299" lon="2.86492">
        <ele>1235.5</ele>
        <time>2021-07-23T09:10:31Z</time>
      </trkpt>
      <trkpt lat="45.14298" lon="2.86485">
        <ele>1235.6</ele>
        <time>2021-07-23T09:10:47Z</time>
      </trkpt>
      <trkpt lat="45.14299" lon="2.86478">
        <ele>1235.7</ele>
        <time>2021-07-23T09:10:59Z</time>
      </trkpt>
      <trkpt lat="45.14298" lon="2.86472">
        <ele>1235.8</ele>
        <time>2021-07-23T09:11:57Z</time>
      </trkpt>
      <trkpt lat="45.14299" lon="2.86464">
        <ele>1235.8</ele>
        <time>2021-07-23T09:12:35Z</time>
      </trkpt>
      <trkpt lat="45.14301" lon="2.86454">
        <ele>1235.9</ele>
        <time>2021-07-23T09:12:39Z</time>
      </trkpt>
      <trkpt lat="45.143" lon="2.86447">
        <ele>1236</ele>
        <time>2021-07-23T09:12:43Z</time>
      </trkpt>
      <trkpt lat="45.143" lon="2.86439">
        <ele>1236.1</ele>
        <time>2021-07-23T09:12:47Z</time>
      </trkpt>
      <trkpt lat="45.143" lon="2.8643">
        <ele>1236.2</ele>
        <time>2021-07-23T09:12:51Z</time>
      </trkpt>
      <trkpt lat="45.14299" lon="2.8642">
        <ele>1236.4</ele>
        <time>2021-07-23T09:12:55Z</time>
      </trkpt>
      <trkpt lat="45.14298" lon="2.86413">
        <ele>1236.5</ele>
        <time>2021-07-23T09:12:59Z</time>
      </trkpt>
      <trkpt lat="45.14297" lon="2.86407">
        <ele>1236.6</ele>
        <time>2021-07-23T09:13:03Z</time>
      </trkpt>
      <trkpt lat="45.14296" lon="2.864">
        <ele>1236.7</ele>
        <time>2021-07-23T09:13:07Z</time>
      </trkpt>
      <trkpt lat="45.14295" lon="2.86392">
        <ele>1236.8</ele>
        <time>2021-07-23T09:13:11Z</time>
      </trkpt>
      <trkpt lat="45.14294" lon="2.86383">
        <ele>1236.9</ele>
        <time>2021-07-23T09:13:15Z</time>
      </trkpt>
      <trkpt lat="45.14293" lon="2.86375">
        <ele>1237</ele>
        <time>2021-07-23T09:13:19Z</time>
      </trkpt>
      <trkpt lat="45.14292" lon="2.86366">
        <ele>1237.1</ele>
        <time>2021-07-23T09:13:23Z</time>
      </trkpt>
      <trkpt lat="45.14291" lon="2.8636">
        <ele>1237.2</ele>
        <time>2021-07-23T09:13:27Z</time>
      </trkpt>
      <trkpt lat="45.14288" lon="2.86351">
        <ele>1237.3</ele>
        <time>2021-07-23T09:13:31Z</time>
      </trkpt>
      <trkpt lat="45.14285" lon="2.86344">
        <ele>1237.5</ele>
        <time>2021-07-23T09:13:35Z</time>
      </trkpt>
      <trkpt lat="45.14283" lon="2.86337">
        <ele>1237.6</ele>
        <time>2021-07-23T09:13:39Z</time>
      </trkpt>
      <trkpt lat="45.14279" lon="2.86331">
        <ele>1237.5</ele>
        <time>2021-07-23T09:13:45Z</time>
      </trkpt>
      <trkpt lat="45.14276" lon="2.86323">
        <ele>1236.9</ele>
        <time>2021-07-23T09:13:51Z</time>
      </trkpt>
      <trkpt lat="45.1427" lon="2.86316">
        <ele>1236.5</ele>
        <time>2021-07-23T09:13:57Z</time>
      </trkpt>
      <trkpt lat="45.14266" lon="2.86308">
        <ele>1236.1</ele>
        <time>2021-07-23T09:14:01Z</time>
      </trkpt>
      <trkpt lat="45.14261" lon="2.863">
        <ele>1235.9</ele>
        <time>2021-07-23T09:14:05Z</time>
      </trkpt>
      <trkpt lat="45.14258" lon="2.86296">
        <ele>1235.8</ele>
        <time>2021-07-23T09:14:07Z</time>
      </trkpt>
      <trkpt lat="45.14251" lon="2.86289">
        <ele>1235.8</ele>
        <time>2021-07-23T09:14:11Z</time>
      </trkpt>
      <trkpt lat="45.14247" lon="2.86285">
        <ele>1235.7</ele>
        <time>2021-07-23T09:14:13Z</time>
      </trkpt>
      <trkpt lat="45.14239" lon="2.86278">
        <ele>1235.3</ele>
        <time>2021-07-23T09:14:17Z</time>
      </trkpt>
      <trkpt lat="45.14235" lon="2.86276">
        <ele>1235.3</ele>
        <time>2021-07-23T09:14:19Z</time>
      </trkpt>
      <trkpt lat="45.14231" lon="2.86272">
        <ele>1235.2</ele>
        <time>2021-07-23T09:14:21Z</time>
      </trkpt>
      <trkpt lat="45.14227" lon="2.86271">
        <ele>1235.2</ele>
        <time>2021-07-23T09:14:29Z</time>
      </trkpt>
      <trkpt lat="45.1422" lon="2.86268">
        <ele>1235.1</ele>
        <time>2021-07-23T09:31:07Z</time>
      </trkpt>
      <trkpt lat="45.14215" lon="2.86266">
        <ele>1235.1</ele>
        <time>2021-07-23T09:31:09Z</time>
      </trkpt>
      <trkpt lat="45.14208" lon="2.8626">
        <ele>1235.1</ele>
        <time>2021-07-23T09:31:11Z</time>
      </trkpt>
      <trkpt lat="45.14203" lon="2.86253">
        <ele>1235.2</ele>
        <time>2021-07-23T09:31:13Z</time>
      </trkpt>
      <trkpt lat="45.14197" lon="2.86246">
        <ele>1235</ele>
        <time>2021-07-23T09:31:15Z</time>
      </trkpt>
      <trkpt lat="45.14193" lon="2.86239">
        <ele>1234.8</ele>
        <time>2021-07-23T09:31:17Z</time>
      </trkpt>
      <trkpt lat="45.14189" lon="2.86231">
        <ele>1234.6</ele>
        <time>2021-07-23T09:31:21Z</time>
      </trkpt>
      <trkpt lat="45.14184" lon="2.86225">
        <ele>1234.6</ele>
        <time>2021-07-23T09:31:25Z</time>
      </trkpt>
      <trkpt lat="45.1418" lon="2.86217">
        <ele>1234.6</ele>
        <time>2021-07-23T09:31:29Z</time>
      </trkpt>
      <trkpt lat="45.14176" lon="2.86208">
        <ele>1234.6</ele>
        <time>2021-07-23T09:31:33Z</time>
      </trkpt>
      <trkpt lat="45.14172" lon="2.862">
        <ele>1234.8</ele>
        <time>2021-07-23T09:31:37Z</time>
      </trkpt>
      <trkpt lat="45.14169" lon="2.86195">
        <ele>1235.1</ele>
        <time>2021-07-23T09:31:41Z</time>
      </trkpt>
      <trkpt lat="45.14163" lon="2.86185">
        <ele>1235</ele>
        <time>2021-07-23T09:32:15Z</time>
      </trkpt>
      <trkpt lat="45.1416" lon="2.8618">
        <ele>1234.7</ele>
        <time>2021-07-23T09:32:17Z</time>
      </trkpt>
      <trkpt lat="45.14154" lon="2.86168">
        <ele>1234.1</ele>
        <time>2021-07-23T09:32:21Z</time>
      </trkpt>
      <trkpt lat="45.14149" lon="2.86161">
        <ele>1233.2</ele>
        <time>2021-07-23T09:32:23Z</time>
      </trkpt>
      <trkpt lat="45.14145" lon="2.86154">
        <ele>1232.4</ele>
        <time>2021-07-23T09:32:25Z</time>
      </trkpt>
      <trkpt lat="45.14139" lon="2.86146">
        <ele>1231.6</ele>
        <time>2021-07-23T09:32:27Z</time>
      </trkpt>
      <trkpt lat="45.14134" lon="2.86138">
        <ele>1231</ele>
        <time>2021-07-23T09:32:29Z</time>
      </trkpt>
      <trkpt lat="45.14129" lon="2.8613">
        <ele>1230.5</ele>
        <time>2021-07-23T09:32:31Z</time>
      </trkpt>
      <trkpt lat="45.14124" lon="2.86123">
        <ele>1230.2</ele>
        <time>2021-07-23T09:32:33Z</time>
      </trkpt>
      <trkpt lat="45.1412" lon="2.86117">
        <ele>1230</ele>
        <time>2021-07-23T09:32:35Z</time>
      </trkpt>
      <trkpt lat="45.14116" lon="2.86112">
        <ele>1230</ele>
        <time>2021-07-23T09:32:37Z</time>
      </trkpt>
      <trkpt lat="45.14112" lon="2.86107">
        <ele>1230</ele>
        <time>2021-07-23T09:32:39Z</time>
      </trkpt>
      <trkpt lat="45.14107" lon="2.86102">
        <ele>1230.2</ele>
        <time>2021-07-23T09:32:41Z</time>
      </trkpt>
      <trkpt lat="45.14103" lon="2.86098">
        <ele>1230.4</ele>
        <time>2021-07-23T09:32:43Z</time>
      </trkpt>
      <trkpt lat="45.14099" lon="2.86095">
        <ele>1230.6</ele>
        <time>2021-07-23T09:32:45Z</time>
      </trkpt>
      <trkpt lat="45.14093" lon="2.86087">
        <ele>1231.1</ele>
        <time>2021-07-23T09:32:49Z</time>
      </trkpt>
      <trkpt lat="45.14086" lon="2.86079">
        <ele>1231.7</ele>
        <time>2021-07-23T09:32:53Z</time>
      </trkpt>
      <trkpt lat="45.14082" lon="2.86073">
        <ele>1231.7</ele>
        <time>2021-07-23T09:32:55Z</time>
      </trkpt>
      <trkpt lat="45.14079" lon="2.86069">
        <ele>1231.5</ele>
        <time>2021-07-23T09:32:57Z</time>
      </trkpt>
      <trkpt lat="45.14075" lon="2.86064">
        <ele>1231.3</ele>
        <time>2021-07-23T09:32:59Z</time>
      </trkpt>
      <trkpt lat="45.14068" lon="2.86056">
        <ele>1231.1</ele>
        <time>2021-07-23T09:33:03Z</time>
      </trkpt>
      <trkpt lat="45.14065" lon="2.86052">
        <ele>1231.1</ele>
        <time>2021-07-23T09:33:05Z</time>
      </trkpt>
      <trkpt lat="45.14062" lon="2.86047">
        <ele>1231.2</ele>
        <time>2021-07-23T09:33:07Z</time>
      </trkpt>
      <trkpt lat="45.14058" lon="2.86042">
        <ele>1231.3</ele>
        <time>2021-07-23T09:33:09Z</time>
      </trkpt>
      <trkpt lat="45.14053" lon="2.86033">
        <ele>1231.6</ele>
        <time>2021-07-23T09:33:13Z</time>
      </trkpt>
      <trkpt lat="45.1405" lon="2.86024">
        <ele>1232</ele>
        <time>2021-07-23T09:33:17Z</time>
      </trkpt>
      <trkpt lat="45.14049" lon="2.86016">
        <ele>1232.3</ele>
        <time>2021-07-23T09:33:21Z</time>
      </trkpt>
      <trkpt lat="45.14049" lon="2.86008">
        <ele>1232.6</ele>
        <time>2021-07-23T09:33:25Z</time>
      </trkpt>
      <trkpt lat="45.14048" lon="2.85997">
        <ele>1232.8</ele>
        <time>2021-07-23T09:33:29Z</time>
      </trkpt>
      <trkpt lat="45.1405" lon="2.85991">
        <ele>1232.5</ele>
        <time>2021-07-23T09:33:31Z</time>
      </trkpt>
      <trkpt lat="45.14051" lon="2.85984">
        <ele>1232.1</ele>
        <time>2021-07-23T09:33:33Z</time>
      </trkpt>
      <trkpt lat="45.14051" lon="2.85976">
        <ele>1231.8</ele>
        <time>2021-07-23T09:33:35Z</time>
      </trkpt>
      <trkpt lat="45.14053" lon="2.8597">
        <ele>1231.4</ele>
        <time>2021-07-23T09:33:37Z</time>
      </trkpt>
      <trkpt lat="45.14054" lon="2.85963">
        <ele>1230.9</ele>
        <time>2021-07-23T09:33:39Z</time>
      </trkpt>
      <trkpt lat="45.14056" lon="2.85955">
        <ele>1230.3</ele>
        <time>2021-07-23T09:33:41Z</time>
      </trkpt>
      <trkpt lat="45.14058" lon="2.85947">
        <ele>1229.6</ele>
        <time>2021-07-23T09:33:43Z</time>
      </trkpt>
      <trkpt lat="45.14059" lon="2.85938">
        <ele>1228.9</ele>
        <time>2021-07-23T09:33:45Z</time>
      </trkpt>
      <trkpt lat="45.14061" lon="2.8593">
        <ele>1228.2</ele>
        <time>2021-07-23T09:33:47Z</time>
      </trkpt>
      <trkpt lat="45.14063" lon="2.85922">
        <ele>1227.5</ele>
        <time>2021-07-23T09:33:49Z</time>
      </trkpt>
      <trkpt lat="45.14064" lon="2.85914">
        <ele>1227.1</ele>
        <time>2021-07-23T09:33:51Z</time>
      </trkpt>
      <trkpt lat="45.14064" lon="2.85906">
        <ele>1227</ele>
        <time>2021-07-23T09:33:53Z</time>
      </trkpt>
      <trkpt lat="45.14066" lon="2.85897">
        <ele>1226.8</ele>
        <time>2021-07-23T09:33:55Z</time>
      </trkpt>
      <trkpt lat="45.14068" lon="2.85888">
        <ele>1226.5</ele>
        <time>2021-07-23T09:33:57Z</time>
      </trkpt>
      <trkpt lat="45.1407" lon="2.85878">
        <ele>1226.1</ele>
        <time>2021-07-23T09:34:01Z</time>
      </trkpt>
      <trkpt lat="45.14073" lon="2.85866">
        <ele>1225.7</ele>
        <time>2021-07-23T09:34:05Z</time>
      </trkpt>
      <trkpt lat="45.14076" lon="2.85854">
        <ele>1225.2</ele>
        <time>2021-07-23T09:34:09Z</time>
      </trkpt>
      <trkpt lat="45.14078" lon="2.85845">
        <ele>1224.9</ele>
        <time>2021-07-23T09:34:11Z</time>
      </trkpt>
      <trkpt lat="45.1408" lon="2.85835">
        <ele>1224.6</ele>
        <time>2021-07-23T09:34:13Z</time>
      </trkpt>
      <trkpt lat="45.14082" lon="2.85824">
        <ele>1224.5</ele>
        <time>2021-07-23T09:34:15Z</time>
      </trkpt>
      <trkpt lat="45.14084" lon="2.85813">
        <ele>1224.4</ele>
        <time>2021-07-23T09:34:17Z</time>
      </trkpt>
      <trkpt lat="45.14086" lon="2.85803">
        <ele>1224.3</ele>
        <time>2021-07-23T09:34:19Z</time>
      </trkpt>
      <trkpt lat="45.14088" lon="2.85793">
        <ele>1224.3</ele>
        <time>2021-07-23T09:34:21Z</time>
      </trkpt>
      <trkpt lat="45.14091" lon="2.85784">
        <ele>1224.1</ele>
        <time>2021-07-23T09:34:23Z</time>
      </trkpt>
      <trkpt lat="45.14093" lon="2.85776">
        <ele>1224</ele>
        <time>2021-07-23T09:34:25Z</time>
      </trkpt>
      <trkpt lat="45.14097" lon="2.85766">
        <ele>1223.6</ele>
        <time>2021-07-23T09:34:29Z</time>
      </trkpt>
      <trkpt lat="45.14099" lon="2.85761">
        <ele>1223.3</ele>
        <time>2021-07-23T09:34:31Z</time>
      </trkpt>
      <trkpt lat="45.14104" lon="2.85752">
        <ele>1222.7</ele>
        <time>2021-07-23T09:34:35Z</time>
      </trkpt>
      <trkpt lat="45.14107" lon="2.85747">
        <ele>1222.3</ele>
        <time>2021-07-23T09:34:37Z</time>
      </trkpt>
      <trkpt lat="45.1411" lon="2.85741">
        <ele>1222</ele>
        <time>2021-07-23T09:34:39Z</time>
      </trkpt>
      <trkpt lat="45.14115" lon="2.85734">
        <ele>1221.4</ele>
        <time>2021-07-23T09:34:41Z</time>
      </trkpt>
      <trkpt lat="45.1412" lon="2.85723">
        <ele>1221</ele>
        <time>2021-07-23T09:34:43Z</time>
      </trkpt>
      <trkpt lat="45.14122" lon="2.85712">
        <ele>1221.1</ele>
        <time>2021-07-23T09:34:45Z</time>
      </trkpt>
      <trkpt lat="45.14124" lon="2.85703">
        <ele>1221.1</ele>
        <time>2021-07-23T09:34:47Z</time>
      </trkpt>
      <trkpt lat="45.14125" lon="2.85692">
        <ele>1221.2</ele>
        <time>2021-07-23T09:34:49Z</time>
      </trkpt>
      <trkpt lat="45.14126" lon="2.85682">
        <ele>1221.4</ele>
        <time>2021-07-23T09:34:51Z</time>
      </trkpt>
      <trkpt lat="45.14126" lon="2.85674">
        <ele>1221.7</ele>
        <time>2021-07-23T09:34:53Z</time>
      </trkpt>
      <trkpt lat="45.14126" lon="2.85667">
        <ele>1221.8</ele>
        <time>2021-07-23T09:34:55Z</time>
      </trkpt>
      <trkpt lat="45.14129" lon="2.85656">
        <ele>1221.6</ele>
        <time>2021-07-23T09:34:59Z</time>
      </trkpt>
      <trkpt lat="45.14132" lon="2.8565">
        <ele>1221.3</ele>
        <time>2021-07-23T09:35:01Z</time>
      </trkpt>
      <trkpt lat="45.14135" lon="2.85643">
        <ele>1221</ele>
        <time>2021-07-23T09:35:03Z</time>
      </trkpt>
      <trkpt lat="45.14139" lon="2.85635">
        <ele>1220.7</ele>
        <time>2021-07-23T09:35:05Z</time>
      </trkpt>
      <trkpt lat="45.14142" lon="2.85629">
        <ele>1220.4</ele>
        <time>2021-07-23T09:35:07Z</time>
      </trkpt>
      <trkpt lat="45.14146" lon="2.85624">
        <ele>1220.2</ele>
        <time>2021-07-23T09:35:15Z</time>
      </trkpt>
      <trkpt lat="45.14145" lon="2.85618">
        <ele>1220.4</ele>
        <time>2021-07-23T09:35:29Z</time>
      </trkpt>
      <trkpt lat="45.14145" lon="2.85611">
        <ele>1220.5</ele>
        <time>2021-07-23T09:36:07Z</time>
      </trkpt>
      <trkpt lat="45.14146" lon="2.85601">
        <ele>1220.5</ele>
        <time>2021-07-23T09:36:11Z</time>
      </trkpt>
      <trkpt lat="45.14146" lon="2.85594">
        <ele>1220.5</ele>
        <time>2021-07-23T09:36:13Z</time>
      </trkpt>
      <trkpt lat="45.14146" lon="2.85588">
        <ele>1220.6</ele>
        <time>2021-07-23T09:36:15Z</time>
      </trkpt>
      <trkpt lat="45.14147" lon="2.8558">
        <ele>1220.6</ele>
        <time>2021-07-23T09:36:17Z</time>
      </trkpt>
      <trkpt lat="45.14148" lon="2.85573">
        <ele>1220.5</ele>
        <time>2021-07-23T09:36:19Z</time>
      </trkpt>
      <trkpt lat="45.14148" lon="2.85567">
        <ele>1220.3</ele>
        <time>2021-07-23T09:36:21Z</time>
      </trkpt>
      <trkpt lat="45.14149" lon="2.8556">
        <ele>1220.2</ele>
        <time>2021-07-23T09:36:23Z</time>
      </trkpt>
      <trkpt lat="45.1415" lon="2.85547">
        <ele>1219.9</ele>
        <time>2021-07-23T09:36:27Z</time>
      </trkpt>
      <trkpt lat="45.1415" lon="2.85536">
        <ele>1219.7</ele>
        <time>2021-07-23T09:36:31Z</time>
      </trkpt>
      <trkpt lat="45.14148" lon="2.85525">
        <ele>1219.7</ele>
        <time>2021-07-23T09:36:35Z</time>
      </trkpt>
      <trkpt lat="45.14147" lon="2.85514">
        <ele>1219.6</ele>
        <time>2021-07-23T09:36:39Z</time>
      </trkpt>
      <trkpt lat="45.14145" lon="2.85503">
        <ele>1219.6</ele>
        <time>2021-07-23T09:36:43Z</time>
      </trkpt>
      <trkpt lat="45.14144" lon="2.85497">
        <ele>1219.5</ele>
        <time>2021-07-23T09:36:45Z</time>
      </trkpt>
      <trkpt lat="45.14141" lon="2.85486">
        <ele>1219.3</ele>
        <time>2021-07-23T09:36:49Z</time>
      </trkpt>
      <trkpt lat="45.14138" lon="2.85474">
        <ele>1219</ele>
        <time>2021-07-23T09:36:53Z</time>
      </trkpt>
      <trkpt lat="45.14135" lon="2.85463">
        <ele>1218.8</ele>
        <time>2021-07-23T09:36:57Z</time>
      </trkpt>
      <trkpt lat="45.14132" lon="2.85452">
        <ele>1218.5</ele>
        <time>2021-07-23T09:37:01Z</time>
      </trkpt>
      <trkpt lat="45.14129" lon="2.85442">
        <ele>1218.3</ele>
        <time>2021-07-23T09:37:05Z</time>
      </trkpt>
      <trkpt lat="45.14124" lon="2.85433">
        <ele>1218.2</ele>
        <time>2021-07-23T09:37:09Z</time>
      </trkpt>
      <trkpt lat="45.14119" lon="2.85427">
        <ele>1218.3</ele>
        <time>2021-07-23T09:37:13Z</time>
      </trkpt>
      <trkpt lat="45.14114" lon="2.85422">
        <ele>1218.4</ele>
        <time>2021-07-23T09:37:17Z</time>
      </trkpt>
      <trkpt lat="45.1411" lon="2.85417">
        <ele>1218.4</ele>
        <time>2021-07-23T09:37:21Z</time>
      </trkpt>
      <trkpt lat="45.14108" lon="2.85408">
        <ele>1218</ele>
        <time>2021-07-23T09:37:25Z</time>
      </trkpt>
      <trkpt lat="45.14105" lon="2.85396">
        <ele>1217.4</ele>
        <time>2021-07-23T09:37:29Z</time>
      </trkpt>
      <trkpt lat="45.14103" lon="2.85391">
        <ele>1217.1</ele>
        <time>2021-07-23T09:37:31Z</time>
      </trkpt>
      <trkpt lat="45.14101" lon="2.85384">
        <ele>1216.8</ele>
        <time>2021-07-23T09:37:33Z</time>
      </trkpt>
      <trkpt lat="45.14097" lon="2.85373">
        <ele>1216.2</ele>
        <time>2021-07-23T09:37:37Z</time>
      </trkpt>
      <trkpt lat="45.14094" lon="2.85367">
        <ele>1215.9</ele>
        <time>2021-07-23T09:37:39Z</time>
      </trkpt>
      <trkpt lat="45.14091" lon="2.85362">
        <ele>1215.7</ele>
        <time>2021-07-23T09:37:41Z</time>
      </trkpt>
      <trkpt lat="45.14085" lon="2.85355">
        <ele>1215.5</ele>
        <time>2021-07-23T09:37:45Z</time>
      </trkpt>
      <trkpt lat="45.1408" lon="2.85353">
        <ele>1215.2</ele>
        <time>2021-07-23T09:37:53Z</time>
      </trkpt>
      <trkpt lat="45.14077" lon="2.85347">
        <ele>1214.7</ele>
        <time>2021-07-23T09:39:01Z</time>
      </trkpt>
      <trkpt lat="45.1407" lon="2.85343">
        <ele>1214</ele>
        <time>2021-07-23T09:40:01Z</time>
      </trkpt>
      <trkpt lat="45.14066" lon="2.85339">
        <ele>1213.5</ele>
        <time>2021-07-23T09:40:03Z</time>
      </trkpt>
      <trkpt lat="45.14063" lon="2.85333">
        <ele>1212.7</ele>
        <time>2021-07-23T09:40:05Z</time>
      </trkpt>
      <trkpt lat="45.14056" lon="2.85328">
        <ele>1211.8</ele>
        <time>2021-07-23T09:40:07Z</time>
      </trkpt>
      <trkpt lat="45.14048" lon="2.85327">
        <ele>1211.2</ele>
        <time>2021-07-23T09:40:09Z</time>
      </trkpt>
      <trkpt lat="45.14039" lon="2.85327">
        <ele>1210.5</ele>
        <time>2021-07-23T09:40:11Z</time>
      </trkpt>
      <trkpt lat="45.14033" lon="2.85328">
        <ele>1210.4</ele>
        <time>2021-07-23T09:40:13Z</time>
      </trkpt>
      <trkpt lat="45.14028" lon="2.85329">
        <ele>1210.1</ele>
        <time>2021-07-23T09:40:15Z</time>
      </trkpt>
      <trkpt lat="45.14022" lon="2.85329">
        <ele>1209.8</ele>
        <time>2021-07-23T09:40:17Z</time>
      </trkpt>
      <trkpt lat="45.14016" lon="2.85332">
        <ele>1209.7</ele>
        <time>2021-07-23T09:40:19Z</time>
      </trkpt>
      <trkpt lat="45.14008" lon="2.85334">
        <ele>1209.5</ele>
        <time>2021-07-23T09:40:21Z</time>
      </trkpt>
      <trkpt lat="45.13999" lon="2.85336">
        <ele>1209.2</ele>
        <time>2021-07-23T09:40:23Z</time>
      </trkpt>
      <trkpt lat="45.13987" lon="2.85338">
        <ele>1207.5</ele>
        <time>2021-07-23T09:40:25Z</time>
      </trkpt>
      <trkpt lat="45.13978" lon="2.85339">
        <ele>1205.9</ele>
        <time>2021-07-23T09:40:27Z</time>
      </trkpt>
      <trkpt lat="45.1397" lon="2.85341">
        <ele>1204.9</ele>
        <time>2021-07-23T09:40:29Z</time>
      </trkpt>
      <trkpt lat="45.13964" lon="2.85347">
        <ele>1204.7</ele>
        <time>2021-07-23T09:40:31Z</time>
      </trkpt>
      <trkpt lat="45.1396" lon="2.85348">
        <ele>1204.2</ele>
        <time>2021-07-23T09:40:33Z</time>
      </trkpt>
      <trkpt lat="45.13956" lon="2.85344">
        <ele>1202.8</ele>
        <time>2021-07-23T09:40:35Z</time>
      </trkpt>
      <trkpt lat="45.13957" lon="2.85337">
        <ele>1202</ele>
        <time>2021-07-23T09:40:37Z</time>
      </trkpt>
      <trkpt lat="45.13962" lon="2.85333">
        <ele>1202</ele>
        <time>2021-07-23T09:40:39Z</time>
      </trkpt>
      <trkpt lat="45.13967" lon="2.8533">
        <ele>1202.6</ele>
        <time>2021-07-23T09:40:41Z</time>
      </trkpt>
      <trkpt lat="45.13972" lon="2.85327">
        <ele>1203.1</ele>
        <time>2021-07-23T09:40:43Z</time>
      </trkpt>
      <trkpt lat="45.13979" lon="2.85323">
        <ele>1203.8</ele>
        <time>2021-07-23T09:40:45Z</time>
      </trkpt>
      <trkpt lat="45.13985" lon="2.85318">
        <ele>1204.3</ele>
        <time>2021-07-23T09:40:47Z</time>
      </trkpt>
      <trkpt lat="45.13991" lon="2.8531">
        <ele>1204.3</ele>
        <time>2021-07-23T09:40:49Z</time>
      </trkpt>
      <trkpt lat="45.13996" lon="2.85302">
        <ele>1204.1</ele>
        <time>2021-07-23T09:40:51Z</time>
      </trkpt>
      <trkpt lat="45.13997" lon="2.85288">
        <ele>1202.5</ele>
        <time>2021-07-23T09:40:53Z</time>
      </trkpt>
      <trkpt lat="45.13999" lon="2.85271">
        <ele>1200.5</ele>
        <time>2021-07-23T09:40:55Z</time>
      </trkpt>
      <trkpt lat="45.14" lon="2.85254">
        <ele>1198.6</ele>
        <time>2021-07-23T09:40:57Z</time>
      </trkpt>
      <trkpt lat="45.14002" lon="2.85241">
        <ele>1197.7</ele>
        <time>2021-07-23T09:40:59Z</time>
      </trkpt>
      <trkpt lat="45.14003" lon="2.85229">
        <ele>1197</ele>
        <time>2021-07-23T09:41:01Z</time>
      </trkpt>
      <trkpt lat="45.14001" lon="2.85218">
        <ele>1196.2</ele>
        <time>2021-07-23T09:41:03Z</time>
      </trkpt>
      <trkpt lat="45.13996" lon="2.85213">
        <ele>1194.9</ele>
        <time>2021-07-23T09:41:05Z</time>
      </trkpt>
      <trkpt lat="45.13989" lon="2.85214">
        <ele>1193.8</ele>
        <time>2021-07-23T09:41:07Z</time>
      </trkpt>
      <trkpt lat="45.13981" lon="2.85221">
        <ele>1192.6</ele>
        <time>2021-07-23T09:41:09Z</time>
      </trkpt>
      <trkpt lat="45.13971" lon="2.85231">
        <ele>1191.4</ele>
        <time>2021-07-23T09:41:11Z</time>
      </trkpt>
      <trkpt lat="45.13959" lon="2.85237">
        <ele>1189.7</ele>
        <time>2021-07-23T09:41:13Z</time>
      </trkpt>
      <trkpt lat="45.13947" lon="2.8524">
        <ele>1187.7</ele>
        <time>2021-07-23T09:41:15Z</time>
      </trkpt>
      <trkpt lat="45.13936" lon="2.85241">
        <ele>1185.8</ele>
        <time>2021-07-23T09:41:17Z</time>
      </trkpt>
      <trkpt lat="45.13926" lon="2.85244">
        <ele>1184.2</ele>
        <time>2021-07-23T09:41:19Z</time>
      </trkpt>
      <trkpt lat="45.13917" lon="2.85249">
        <ele>1182.9</ele>
        <time>2021-07-23T09:41:21Z</time>
      </trkpt>
      <trkpt lat="45.13907" lon="2.85256">
        <ele>1181.6</ele>
        <time>2021-07-23T09:41:23Z</time>
      </trkpt>
      <trkpt lat="45.13897" lon="2.85264">
        <ele>1180.3</ele>
        <time>2021-07-23T09:41:25Z</time>
      </trkpt>
      <trkpt lat="45.13887" lon="2.8527">
        <ele>1179</ele>
        <time>2021-07-23T09:41:27Z</time>
      </trkpt>
      <trkpt lat="45.13877" lon="2.85278">
        <ele>1177.8</ele>
        <time>2021-07-23T09:41:29Z</time>
      </trkpt>
      <trkpt lat="45.13867" lon="2.85286">
        <ele>1176.2</ele>
        <time>2021-07-23T09:41:31Z</time>
      </trkpt>
      <trkpt lat="45.13858" lon="2.85293">
        <ele>1174.9</ele>
        <time>2021-07-23T09:41:33Z</time>
      </trkpt>
      <trkpt lat="45.1385" lon="2.85302">
        <ele>1173.9</ele>
        <time>2021-07-23T09:41:35Z</time>
      </trkpt>
      <trkpt lat="45.13842" lon="2.85308">
        <ele>1172.8</ele>
        <time>2021-07-23T09:41:37Z</time>
      </trkpt>
      <trkpt lat="45.13835" lon="2.85312">
        <ele>1171.4</ele>
        <time>2021-07-23T09:41:39Z</time>
      </trkpt>
      <trkpt lat="45.13829" lon="2.85312">
        <ele>1170.2</ele>
        <time>2021-07-23T09:41:41Z</time>
      </trkpt>
      <trkpt lat="45.13824" lon="2.85307">
        <ele>1169.1</ele>
        <time>2021-07-23T09:41:43Z</time>
      </trkpt>
      <trkpt lat="45.13822" lon="2.85294">
        <ele>1167.5</ele>
        <time>2021-07-23T09:41:45Z</time>
      </trkpt>
      <trkpt lat="45.13821" lon="2.85279">
        <ele>1165.9</ele>
        <time>2021-07-23T09:41:47Z</time>
      </trkpt>
      <trkpt lat="45.13817" lon="2.85262">
        <ele>1163.8</ele>
        <time>2021-07-23T09:41:49Z</time>
      </trkpt>
      <trkpt lat="45.1381" lon="2.85248">
        <ele>1161.8</ele>
        <time>2021-07-23T09:41:51Z</time>
      </trkpt>
      <trkpt lat="45.138" lon="2.85231">
        <ele>1159.5</ele>
        <time>2021-07-23T09:41:53Z</time>
      </trkpt>
      <trkpt lat="45.13789" lon="2.85211">
        <ele>1157.1</ele>
        <time>2021-07-23T09:41:55Z</time>
      </trkpt>
      <trkpt lat="45.13779" lon="2.8519">
        <ele>1155.1</ele>
        <time>2021-07-23T09:41:57Z</time>
      </trkpt>
      <trkpt lat="45.13769" lon="2.85171">
        <ele>1153.5</ele>
        <time>2021-07-23T09:41:59Z</time>
      </trkpt>
      <trkpt lat="45.13763" lon="2.85148">
        <ele>1153.2</ele>
        <time>2021-07-23T09:42:01Z</time>
      </trkpt>
      <trkpt lat="45.1376" lon="2.85124">
        <ele>1153.5</ele>
        <time>2021-07-23T09:42:03Z</time>
      </trkpt>
      <trkpt lat="45.13759" lon="2.85102">
        <ele>1153.8</ele>
        <time>2021-07-23T09:42:05Z</time>
      </trkpt>
      <trkpt lat="45.13758" lon="2.85083">
        <ele>1154.1</ele>
        <time>2021-07-23T09:42:07Z</time>
      </trkpt>
      <trkpt lat="45.13757" lon="2.85063">
        <ele>1154.3</ele>
        <time>2021-07-23T09:42:09Z</time>
      </trkpt>
      <trkpt lat="45.13752" lon="2.85047">
        <ele>1154.4</ele>
        <time>2021-07-23T09:42:11Z</time>
      </trkpt>
      <trkpt lat="45.13744" lon="2.85038">
        <ele>1154.8</ele>
        <time>2021-07-23T09:42:13Z</time>
      </trkpt>
      <trkpt lat="45.13736" lon="2.85036">
        <ele>1155.2</ele>
        <time>2021-07-23T09:42:15Z</time>
      </trkpt>
      <trkpt lat="45.13728" lon="2.85035">
        <ele>1155.6</ele>
        <time>2021-07-23T09:42:17Z</time>
      </trkpt>
      <trkpt lat="45.13721" lon="2.85033">
        <ele>1155.9</ele>
        <time>2021-07-23T09:42:19Z</time>
      </trkpt>
      <trkpt lat="45.13714" lon="2.85032">
        <ele>1156.2</ele>
        <time>2021-07-23T09:42:21Z</time>
      </trkpt>
      <trkpt lat="45.13708" lon="2.8503">
        <ele>1156.5</ele>
        <time>2021-07-23T09:42:23Z</time>
      </trkpt>
      <trkpt lat="45.13703" lon="2.85028">
        <ele>1156.8</ele>
        <time>2021-07-23T09:42:25Z</time>
      </trkpt>
      <trkpt lat="45.13697" lon="2.85026">
        <ele>1157</ele>
        <time>2021-07-23T09:42:27Z</time>
      </trkpt>
      <trkpt lat="45.13691" lon="2.85024">
        <ele>1157.2</ele>
        <time>2021-07-23T09:42:29Z</time>
      </trkpt>
      <trkpt lat="45.13686" lon="2.85022">
        <ele>1157.5</ele>
        <time>2021-07-23T09:42:31Z</time>
      </trkpt>
      <trkpt lat="45.13681" lon="2.8502">
        <ele>1157.7</ele>
        <time>2021-07-23T09:42:33Z</time>
      </trkpt>
      <trkpt lat="45.13676" lon="2.8502">
        <ele>1157.9</ele>
        <time>2021-07-23T09:42:35Z</time>
      </trkpt>
      <trkpt lat="45.13671" lon="2.8502">
        <ele>1158.1</ele>
        <time>2021-07-23T09:42:37Z</time>
      </trkpt>
      <trkpt lat="45.13665" lon="2.85021">
        <ele>1158.3</ele>
        <time>2021-07-23T09:42:39Z</time>
      </trkpt>
      <trkpt lat="45.1366" lon="2.8502">
        <ele>1158.3</ele>
        <time>2021-07-23T09:42:41Z</time>
      </trkpt>
      <trkpt lat="45.13655" lon="2.8502">
        <ele>1158.3</ele>
        <time>2021-07-23T09:42:43Z</time>
      </trkpt>
      <trkpt lat="45.1365" lon="2.8502">
        <ele>1158.3</ele>
        <time>2021-07-23T09:42:45Z</time>
      </trkpt>
      <trkpt lat="45.13645" lon="2.8502">
        <ele>1158.3</ele>
        <time>2021-07-23T09:42:47Z</time>
      </trkpt>
      <trkpt lat="45.13639" lon="2.85022">
        <ele>1158.3</ele>
        <time>2021-07-23T09:42:49Z</time>
      </trkpt>
      <trkpt lat="45.13633" lon="2.85024">
        <ele>1158.3</ele>
        <time>2021-07-23T09:42:51Z</time>
      </trkpt>
      <trkpt lat="45.13628" lon="2.85027">
        <ele>1158.2</ele>
        <time>2021-07-23T09:42:53Z</time>
      </trkpt>
      <trkpt lat="45.13623" lon="2.85029">
        <ele>1158.1</ele>
        <time>2021-07-23T09:42:55Z</time>
      </trkpt>
      <trkpt lat="45.13616" lon="2.85033">
        <ele>1157.9</ele>
        <time>2021-07-23T09:42:59Z</time>
      </trkpt>
      <trkpt lat="45.13612" lon="2.85038">
        <ele>1157.7</ele>
        <time>2021-07-23T09:43:21Z</time>
      </trkpt>
      <trkpt lat="45.13607" lon="2.8504">
        <ele>1157.5</ele>
        <time>2021-07-23T09:43:23Z</time>
      </trkpt>
      <trkpt lat="45.13603" lon="2.85043">
        <ele>1157.3</ele>
        <time>2021-07-23T09:43:25Z</time>
      </trkpt>
      <trkpt lat="45.13598" lon="2.85043">
        <ele>1157.2</ele>
        <time>2021-07-23T09:43:27Z</time>
      </trkpt>
      <trkpt lat="45.13593" lon="2.85042">
        <ele>1157.2</ele>
        <time>2021-07-23T09:43:29Z</time>
      </trkpt>
      <trkpt lat="45.13588" lon="2.85039">
        <ele>1157.2</ele>
        <time>2021-07-23T09:43:31Z</time>
      </trkpt>
      <trkpt lat="45.13583" lon="2.85036">
        <ele>1157.4</ele>
        <time>2021-07-23T09:43:33Z</time>
      </trkpt>
      <trkpt lat="45.13577" lon="2.85034">
        <ele>1156.9</ele>
        <time>2021-07-23T09:43:35Z</time>
      </trkpt>
      <trkpt lat="45.13573" lon="2.85032">
        <ele>1156.5</ele>
        <time>2021-07-23T09:43:37Z</time>
      </trkpt>
      <trkpt lat="45.13568" lon="2.85031">
        <ele>1156.1</ele>
        <time>2021-07-23T09:43:39Z</time>
      </trkpt>
      <trkpt lat="45.13562" lon="2.8503">
        <ele>1155.5</ele>
        <time>2021-07-23T09:43:41Z</time>
      </trkpt>
      <trkpt lat="45.13556" lon="2.85029">
        <ele>1154.9</ele>
        <time>2021-07-23T09:43:43Z</time>
      </trkpt>
      <trkpt lat="45.13548" lon="2.85026">
        <ele>1154.3</ele>
        <time>2021-07-23T09:43:45Z</time>
      </trkpt>
      <trkpt lat="45.13541" lon="2.85024">
        <ele>1153.7</ele>
        <time>2021-07-23T09:43:47Z</time>
      </trkpt>
      <trkpt lat="45.13536" lon="2.8502">
        <ele>1153.4</ele>
        <time>2021-07-23T09:43:49Z</time>
      </trkpt>
      <trkpt lat="45.1353" lon="2.85013">
        <ele>1153.3</ele>
        <time>2021-07-23T09:43:51Z</time>
      </trkpt>
      <trkpt lat="45.13524" lon="2.85006">
        <ele>1153.1</ele>
        <time>2021-07-23T09:43:53Z</time>
      </trkpt>
      <trkpt lat="45.13518" lon="2.85003">
        <ele>1152.7</ele>
        <time>2021-07-23T09:43:55Z</time>
      </trkpt>
      <trkpt lat="45.13513" lon="2.85004">
        <ele>1152.1</ele>
        <time>2021-07-23T09:43:57Z</time>
      </trkpt>
      <trkpt lat="45.13508" lon="2.85006">
        <ele>1151.4</ele>
        <time>2021-07-23T09:43:59Z</time>
      </trkpt>
      <trkpt lat="45.13502" lon="2.8501">
        <ele>1150.5</ele>
        <time>2021-07-23T09:44:03Z</time>
      </trkpt>
      <trkpt lat="45.13499" lon="2.85016">
        <ele>1149.7</ele>
        <time>2021-07-23T09:44:07Z</time>
      </trkpt>
      <trkpt lat="45.13497" lon="2.85032">
        <ele>1148.3</ele>
        <time>2021-07-23T09:44:11Z</time>
      </trkpt>
      <trkpt lat="45.13492" lon="2.85041">
        <ele>1147</ele>
        <time>2021-07-23T09:44:13Z</time>
      </trkpt>
      <trkpt lat="45.13482" lon="2.85049">
        <ele>1145.2</ele>
        <time>2021-07-23T09:44:15Z</time>
      </trkpt>
      <trkpt lat="45.13467" lon="2.8505">
        <ele>1143.1</ele>
        <time>2021-07-23T09:44:17Z</time>
      </trkpt>
      <trkpt lat="45.13448" lon="2.85049">
        <ele>1140.9</ele>
        <time>2021-07-23T09:44:19Z</time>
      </trkpt>
      <trkpt lat="45.13429" lon="2.85047">
        <ele>1138.6</ele>
        <time>2021-07-23T09:44:21Z</time>
      </trkpt>
      <trkpt lat="45.13409" lon="2.85045">
        <ele>1137</ele>
        <time>2021-07-23T09:44:23Z</time>
      </trkpt>
      <trkpt lat="45.13389" lon="2.85046">
        <ele>1136.5</ele>
        <time>2021-07-23T09:44:25Z</time>
      </trkpt>
      <trkpt lat="45.1337" lon="2.85051">
        <ele>1135.7</ele>
        <time>2021-07-23T09:44:27Z</time>
      </trkpt>
      <trkpt lat="45.13352" lon="2.85055">
        <ele>1135.1</ele>
        <time>2021-07-23T09:44:29Z</time>
      </trkpt>
      <trkpt lat="45.13335" lon="2.85061">
        <ele>1134.3</ele>
        <time>2021-07-23T09:44:31Z</time>
      </trkpt>
      <trkpt lat="45.13319" lon="2.8507">
        <ele>1135</ele>
        <time>2021-07-23T09:44:33Z</time>
      </trkpt>
      <trkpt lat="45.13304" lon="2.85079">
        <ele>1135.7</ele>
        <time>2021-07-23T09:44:35Z</time>
      </trkpt>
      <trkpt lat="45.1329" lon="2.85084">
        <ele>1136.7</ele>
        <time>2021-07-23T09:44:37Z</time>
      </trkpt>
      <trkpt lat="45.13278" lon="2.85087">
        <ele>1137.5</ele>
        <time>2021-07-23T09:44:39Z</time>
      </trkpt>
      <trkpt lat="45.13269" lon="2.8509">
        <ele>1138</ele>
        <time>2021-07-23T09:44:41Z</time>
      </trkpt>
      <trkpt lat="45.13263" lon="2.85092">
        <ele>1138.5</ele>
        <time>2021-07-23T09:44:43Z</time>
      </trkpt>
      <trkpt lat="45.13255" lon="2.85094">
        <ele>1139.1</ele>
        <time>2021-07-23T09:44:47Z</time>
      </trkpt>
      <trkpt lat="45.1325" lon="2.85096">
        <ele>1139.4</ele>
        <time>2021-07-23T09:44:49Z</time>
      </trkpt>
      <trkpt lat="45.13244" lon="2.85098">
        <ele>1139.7</ele>
        <time>2021-07-23T09:44:51Z</time>
      </trkpt>
      <trkpt lat="45.13239" lon="2.851">
        <ele>1140</ele>
        <time>2021-07-23T09:44:53Z</time>
      </trkpt>
      <trkpt lat="45.13234" lon="2.85102">
        <ele>1140.3</ele>
        <time>2021-07-23T09:44:55Z</time>
      </trkpt>
      <trkpt lat="45.13229" lon="2.85103">
        <ele>1140.6</ele>
        <time>2021-07-23T09:44:57Z</time>
      </trkpt>
      <trkpt lat="45.13221" lon="2.85104">
        <ele>1141.1</ele>
        <time>2021-07-23T09:45:01Z</time>
      </trkpt>
      <trkpt lat="45.13216" lon="2.85104">
        <ele>1141.4</ele>
        <time>2021-07-23T09:45:03Z</time>
      </trkpt>
      <trkpt lat="45.13211" lon="2.85105">
        <ele>1141.8</ele>
        <time>2021-07-23T09:45:05Z</time>
      </trkpt>
      <trkpt lat="45.13204" lon="2.85104">
        <ele>1142.3</ele>
        <time>2021-07-23T09:45:09Z</time>
      </trkpt>
      <trkpt lat="45.13196" lon="2.85104">
        <ele>1142.9</ele>
        <time>2021-07-23T09:45:13Z</time>
      </trkpt>
      <trkpt lat="45.13189" lon="2.85103">
        <ele>1143.5</ele>
        <time>2021-07-23T09:45:17Z</time>
      </trkpt>
      <trkpt lat="45.13182" lon="2.85104">
        <ele>1143.9</ele>
        <time>2021-07-23T09:45:21Z</time>
      </trkpt>
      <trkpt lat="45.13178" lon="2.85106">
        <ele>1144.1</ele>
        <time>2021-07-23T09:45:25Z</time>
      </trkpt>
      <trkpt lat="45.13173" lon="2.8511">
        <ele>1144.3</ele>
        <time>2021-07-23T09:50:23Z</time>
      </trkpt>
      <trkpt lat="45.13168" lon="2.85115">
        <ele>1144.4</ele>
        <time>2021-07-23T09:50:27Z</time>
      </trkpt>
      <trkpt lat="45.13162" lon="2.8512">
        <ele>1144.5</ele>
        <time>2021-07-23T09:50:31Z</time>
      </trkpt>
      <trkpt lat="45.13156" lon="2.85126">
        <ele>1144.6</ele>
        <time>2021-07-23T09:50:35Z</time>
      </trkpt>
      <trkpt lat="45.13155" lon="2.85132">
        <ele>1144.4</ele>
        <time>2021-07-23T09:50:37Z</time>
      </trkpt>
      <trkpt lat="45.1315" lon="2.85139">
        <ele>1144.6</ele>
        <time>2021-07-23T09:50:41Z</time>
      </trkpt>
      <trkpt lat="45.13145" lon="2.85146">
        <ele>1144.7</ele>
        <time>2021-07-23T09:50:45Z</time>
      </trkpt>
      <trkpt lat="45.13141" lon="2.85154">
        <ele>1144.8</ele>
        <time>2021-07-23T09:50:49Z</time>
      </trkpt>
      <trkpt lat="45.13138" lon="2.8516">
        <ele>1144.9</ele>
        <time>2021-07-23T09:50:53Z</time>
      </trkpt>
      <trkpt lat="45.13136" lon="2.85167">
        <ele>1144.9</ele>
        <time>2021-07-23T09:50:57Z</time>
      </trkpt>
      <trkpt lat="45.13132" lon="2.85175">
        <ele>1145.2</ele>
        <time>2021-07-23T09:51:01Z</time>
      </trkpt>
      <trkpt lat="45.13127" lon="2.85183">
        <ele>1145.6</ele>
        <time>2021-07-23T09:51:05Z</time>
      </trkpt>
      <trkpt lat="45.13122" lon="2.85192">
        <ele>1146</ele>
        <time>2021-07-23T09:51:09Z</time>
      </trkpt>
      <trkpt lat="45.13117" lon="2.852">
        <ele>1146.5</ele>
        <time>2021-07-23T09:51:13Z</time>
      </trkpt>
      <trkpt lat="45.13111" lon="2.8521">
        <ele>1147.2</ele>
        <time>2021-07-23T09:51:17Z</time>
      </trkpt>
      <trkpt lat="45.13107" lon="2.85214">
        <ele>1147.6</ele>
        <time>2021-07-23T09:51:19Z</time>
      </trkpt>
      <trkpt lat="45.13104" lon="2.85219">
        <ele>1148</ele>
        <time>2021-07-23T09:51:21Z</time>
      </trkpt>
      <trkpt lat="45.13098" lon="2.85228">
        <ele>1148.9</ele>
        <time>2021-07-23T09:51:25Z</time>
      </trkpt>
      <trkpt lat="45.13094" lon="2.85233">
        <ele>1149.3</ele>
        <time>2021-07-23T09:51:27Z</time>
      </trkpt>
      <trkpt lat="45.1309" lon="2.85238">
        <ele>1149.9</ele>
        <time>2021-07-23T09:51:29Z</time>
      </trkpt>
      <trkpt lat="45.13086" lon="2.85243">
        <ele>1150.5</ele>
        <time>2021-07-23T09:51:31Z</time>
      </trkpt>
      <trkpt lat="45.13083" lon="2.85249">
        <ele>1151</ele>
        <time>2021-07-23T09:51:33Z</time>
      </trkpt>
      <trkpt lat="45.13078" lon="2.85254">
        <ele>1151.1</ele>
        <time>2021-07-23T09:51:35Z</time>
      </trkpt>
      <trkpt lat="45.13073" lon="2.8526">
        <ele>1151</ele>
        <time>2021-07-23T09:51:37Z</time>
      </trkpt>
      <trkpt lat="45.13069" lon="2.85265">
        <ele>1151.1</ele>
        <time>2021-07-23T09:51:39Z</time>
      </trkpt>
      <trkpt lat="45.13065" lon="2.8527">
        <ele>1151.1</ele>
        <time>2021-07-23T09:51:41Z</time>
      </trkpt>
      <trkpt lat="45.1306" lon="2.85275">
        <ele>1151.2</ele>
        <time>2021-07-23T09:51:43Z</time>
      </trkpt>
      <trkpt lat="45.13056" lon="2.85279">
        <ele>1151.3</ele>
        <time>2021-07-23T09:51:45Z</time>
      </trkpt>
      <trkpt lat="45.13052" lon="2.85283">
        <ele>1151.4</ele>
        <time>2021-07-23T09:51:47Z</time>
      </trkpt>
      <trkpt lat="45.13048" lon="2.85288">
        <ele>1151.5</ele>
        <time>2021-07-23T09:51:49Z</time>
      </trkpt>
      <trkpt lat="45.13043" lon="2.85292">
        <ele>1151.7</ele>
        <time>2021-07-23T09:51:51Z</time>
      </trkpt>
      <trkpt lat="45.13039" lon="2.85296">
        <ele>1151.8</ele>
        <time>2021-07-23T09:51:53Z</time>
      </trkpt>
      <trkpt lat="45.13034" lon="2.85301">
        <ele>1152</ele>
        <time>2021-07-23T09:51:55Z</time>
      </trkpt>
      <trkpt lat="45.13029" lon="2.85306">
        <ele>1152.2</ele>
        <time>2021-07-23T09:51:57Z</time>
      </trkpt>
      <trkpt lat="45.13025" lon="2.85311">
        <ele>1152.4</ele>
        <time>2021-07-23T09:51:59Z</time>
      </trkpt>
      <trkpt lat="45.13021" lon="2.85317">
        <ele>1152.6</ele>
        <time>2021-07-23T09:52:01Z</time>
      </trkpt>
      <trkpt lat="45.13016" lon="2.85323">
        <ele>1152.8</ele>
        <time>2021-07-23T09:52:03Z</time>
      </trkpt>
      <trkpt lat="45.13011" lon="2.85329">
        <ele>1153.1</ele>
        <time>2021-07-23T09:52:05Z</time>
      </trkpt>
      <trkpt lat="45.13006" lon="2.85335">
        <ele>1153.4</ele>
        <time>2021-07-23T09:52:07Z</time>
      </trkpt>
      <trkpt lat="45.13001" lon="2.85342">
        <ele>1153.5</ele>
        <time>2021-07-23T09:52:09Z</time>
      </trkpt>
      <trkpt lat="45.12996" lon="2.85348">
        <ele>1153.4</ele>
        <time>2021-07-23T09:52:11Z</time>
      </trkpt>
      <trkpt lat="45.1299" lon="2.85354">
        <ele>1153.2</ele>
        <time>2021-07-23T09:52:13Z</time>
      </trkpt>
      <trkpt lat="45.12984" lon="2.85361">
        <ele>1153</ele>
        <time>2021-07-23T09:52:15Z</time>
      </trkpt>
      <trkpt lat="45.12977" lon="2.85368">
        <ele>1152.8</ele>
        <time>2021-07-23T09:52:17Z</time>
      </trkpt>
      <trkpt lat="45.12971" lon="2.85375">
        <ele>1152.7</ele>
        <time>2021-07-23T09:52:19Z</time>
      </trkpt>
      <trkpt lat="45.12963" lon="2.85382">
        <ele>1152.6</ele>
        <time>2021-07-23T09:52:21Z</time>
      </trkpt>
      <trkpt lat="45.12956" lon="2.85389">
        <ele>1152.5</ele>
        <time>2021-07-23T09:52:23Z</time>
      </trkpt>
      <trkpt lat="45.12949" lon="2.85396">
        <ele>1152.5</ele>
        <time>2021-07-23T09:52:25Z</time>
      </trkpt>
      <trkpt lat="45.12942" lon="2.85403">
        <ele>1152.5</ele>
        <time>2021-07-23T09:52:27Z</time>
      </trkpt>
      <trkpt lat="45.12935" lon="2.85411">
        <ele>1152.5</ele>
        <time>2021-07-23T09:52:29Z</time>
      </trkpt>
      <trkpt lat="45.12926" lon="2.85419">
        <ele>1152.6</ele>
        <time>2021-07-23T09:52:31Z</time>
      </trkpt>
      <trkpt lat="45.12918" lon="2.85427">
        <ele>1152.8</ele>
        <time>2021-07-23T09:52:33Z</time>
      </trkpt>
      <trkpt lat="45.1291" lon="2.85436">
        <ele>1152.7</ele>
        <time>2021-07-23T09:52:35Z</time>
      </trkpt>
      <trkpt lat="45.12903" lon="2.85444">
        <ele>1152.5</ele>
        <time>2021-07-23T09:52:37Z</time>
      </trkpt>
      <trkpt lat="45.12895" lon="2.85451">
        <ele>1152.4</ele>
        <time>2021-07-23T09:52:39Z</time>
      </trkpt>
      <trkpt lat="45.12888" lon="2.85458">
        <ele>1152.3</ele>
        <time>2021-07-23T09:52:41Z</time>
      </trkpt>
      <trkpt lat="45.12881" lon="2.85465">
        <ele>1152.3</ele>
        <time>2021-07-23T09:52:43Z</time>
      </trkpt>
      <trkpt lat="45.12874" lon="2.85471">
        <ele>1152.3</ele>
        <time>2021-07-23T09:52:45Z</time>
      </trkpt>
      <trkpt lat="45.12867" lon="2.85477">
        <ele>1152.4</ele>
        <time>2021-07-23T09:52:47Z</time>
      </trkpt>
      <trkpt lat="45.1286" lon="2.85482">
        <ele>1152.5</ele>
        <time>2021-07-23T09:52:49Z</time>
      </trkpt>
      <trkpt lat="45.12854" lon="2.85488">
        <ele>1152.6</ele>
        <time>2021-07-23T09:52:51Z</time>
      </trkpt>
      <trkpt lat="45.12849" lon="2.85492">
        <ele>1152.7</ele>
        <time>2021-07-23T09:52:53Z</time>
      </trkpt>
      <trkpt lat="45.12845" lon="2.85495">
        <ele>1152.8</ele>
        <time>2021-07-23T09:52:55Z</time>
      </trkpt>
      <trkpt lat="45.1284" lon="2.85497">
        <ele>1152.9</ele>
        <time>2021-07-23T09:52:57Z</time>
      </trkpt>
      <trkpt lat="45.12835" lon="2.855">
        <ele>1153</ele>
        <time>2021-07-23T09:52:59Z</time>
      </trkpt>
      <trkpt lat="45.12831" lon="2.85503">
        <ele>1152.9</ele>
        <time>2021-07-23T09:53:01Z</time>
      </trkpt>
      <trkpt lat="45.12826" lon="2.85507">
        <ele>1152.6</ele>
        <time>2021-07-23T09:53:03Z</time>
      </trkpt>
      <trkpt lat="45.1282" lon="2.85509">
        <ele>1152.1</ele>
        <time>2021-07-23T09:53:05Z</time>
      </trkpt>
      <trkpt lat="45.12815" lon="2.85511">
        <ele>1151.7</ele>
        <time>2021-07-23T09:53:07Z</time>
      </trkpt>
      <trkpt lat="45.1281" lon="2.85515">
        <ele>1151.4</ele>
        <time>2021-07-23T09:53:09Z</time>
      </trkpt>
      <trkpt lat="45.12806" lon="2.85522">
        <ele>1151.4</ele>
        <time>2021-07-23T09:53:11Z</time>
      </trkpt>
      <trkpt lat="45.12802" lon="2.85528">
        <ele>1151.2</ele>
        <time>2021-07-23T09:53:13Z</time>
      </trkpt>
      <trkpt lat="45.12795" lon="2.85534">
        <ele>1150.9</ele>
        <time>2021-07-23T09:53:15Z</time>
      </trkpt>
      <trkpt lat="45.12787" lon="2.85541">
        <ele>1150.6</ele>
        <time>2021-07-23T09:53:17Z</time>
      </trkpt>
      <trkpt lat="45.1278" lon="2.85546">
        <ele>1150.2</ele>
        <time>2021-07-23T09:53:19Z</time>
      </trkpt>
      <trkpt lat="45.1277" lon="2.85553">
        <ele>1149.8</ele>
        <time>2021-07-23T09:53:21Z</time>
      </trkpt>
      <trkpt lat="45.12761" lon="2.85559">
        <ele>1149.4</ele>
        <time>2021-07-23T09:53:23Z</time>
      </trkpt>
      <trkpt lat="45.12753" lon="2.85564">
        <ele>1149</ele>
        <time>2021-07-23T09:53:25Z</time>
      </trkpt>
      <trkpt lat="45.12745" lon="2.85569">
        <ele>1148.1</ele>
        <time>2021-07-23T09:53:27Z</time>
      </trkpt>
      <trkpt lat="45.12736" lon="2.85574">
        <ele>1146.5</ele>
        <time>2021-07-23T09:53:29Z</time>
      </trkpt>
      <trkpt lat="45.12728" lon="2.85583">
        <ele>1145.6</ele>
        <time>2021-07-23T09:53:31Z</time>
      </trkpt>
      <trkpt lat="45.12724" lon="2.85595">
        <ele>1145.6</ele>
        <time>2021-07-23T09:53:33Z</time>
      </trkpt>
      <trkpt lat="45.1272" lon="2.85606">
        <ele>1145.5</ele>
        <time>2021-07-23T09:53:35Z</time>
      </trkpt>
      <trkpt lat="45.12719" lon="2.85618">
        <ele>1145.9</ele>
        <time>2021-07-23T09:53:37Z</time>
      </trkpt>
      <trkpt lat="45.12716" lon="2.85629">
        <ele>1146.1</ele>
        <time>2021-07-23T09:53:39Z</time>
      </trkpt>
      <trkpt lat="45.12712" lon="2.85635">
        <ele>1145.7</ele>
        <time>2021-07-23T09:53:41Z</time>
      </trkpt>
      <trkpt lat="45.12706" lon="2.85641">
        <ele>1144.9</ele>
        <time>2021-07-23T09:53:43Z</time>
      </trkpt>
      <trkpt lat="45.127" lon="2.85647">
        <ele>1143.8</ele>
        <time>2021-07-23T09:53:45Z</time>
      </trkpt>
      <trkpt lat="45.12694" lon="2.85657">
        <ele>1143.2</ele>
        <time>2021-07-23T09:53:47Z</time>
      </trkpt>
      <trkpt lat="45.1269" lon="2.8567">
        <ele>1143.1</ele>
        <time>2021-07-23T09:53:49Z</time>
      </trkpt>
      <trkpt lat="45.12686" lon="2.85682">
        <ele>1142.5</ele>
        <time>2021-07-23T09:53:51Z</time>
      </trkpt>
      <trkpt lat="45.1268" lon="2.85695">
        <ele>1141.5</ele>
        <time>2021-07-23T09:53:53Z</time>
      </trkpt>
      <trkpt lat="45.12673" lon="2.85708">
        <ele>1140.2</ele>
        <time>2021-07-23T09:53:55Z</time>
      </trkpt>
      <trkpt lat="45.12666" lon="2.85723">
        <ele>1138.6</ele>
        <time>2021-07-23T09:53:57Z</time>
      </trkpt>
      <trkpt lat="45.12656" lon="2.85734">
        <ele>1137.5</ele>
        <time>2021-07-23T09:53:59Z</time>
      </trkpt>
      <trkpt lat="45.12646" lon="2.85745">
        <ele>1136.4</ele>
        <time>2021-07-23T09:54:01Z</time>
      </trkpt>
      <trkpt lat="45.12635" lon="2.85755">
        <ele>1135.5</ele>
        <time>2021-07-23T09:54:03Z</time>
      </trkpt>
      <trkpt lat="45.12629" lon="2.85767">
        <ele>1135.1</ele>
        <time>2021-07-23T09:54:05Z</time>
      </trkpt>
      <trkpt lat="45.12623" lon="2.85779">
        <ele>1134.8</ele>
        <time>2021-07-23T09:54:07Z</time>
      </trkpt>
      <trkpt lat="45.12616" lon="2.85787">
        <ele>1134.1</ele>
        <time>2021-07-23T09:54:09Z</time>
      </trkpt>
      <trkpt lat="45.12608" lon="2.85787">
        <ele>1133.1</ele>
        <time>2021-07-23T09:54:11Z</time>
      </trkpt>
      <trkpt lat="45.12596" lon="2.85787">
        <ele>1131.5</ele>
        <time>2021-07-23T09:54:13Z</time>
      </trkpt>
      <trkpt lat="45.12585" lon="2.85791">
        <ele>1130.2</ele>
        <time>2021-07-23T09:54:15Z</time>
      </trkpt>
      <trkpt lat="45.12574" lon="2.85795">
        <ele>1129.3</ele>
        <time>2021-07-23T09:54:17Z</time>
      </trkpt>
      <trkpt lat="45.12562" lon="2.85796">
        <ele>1128.3</ele>
        <time>2021-07-23T09:54:19Z</time>
      </trkpt>
      <trkpt lat="45.1255" lon="2.85793">
        <ele>1127.3</ele>
        <time>2021-07-23T09:54:21Z</time>
      </trkpt>
      <trkpt lat="45.12541" lon="2.85788">
        <ele>1126.4</ele>
        <time>2021-07-23T09:54:23Z</time>
      </trkpt>
      <trkpt lat="45.12529" lon="2.85787">
        <ele>1125.3</ele>
        <time>2021-07-23T09:54:25Z</time>
      </trkpt>
      <trkpt lat="45.12519" lon="2.85788">
        <ele>1124.5</ele>
        <time>2021-07-23T09:54:27Z</time>
      </trkpt>
      <trkpt lat="45.1251" lon="2.85788">
        <ele>1123.8</ele>
        <time>2021-07-23T09:54:29Z</time>
      </trkpt>
      <trkpt lat="45.12505" lon="2.85787">
        <ele>1123.3</ele>
        <time>2021-07-23T09:54:31Z</time>
      </trkpt>
      <trkpt lat="45.125" lon="2.85779">
        <ele>1122.7</ele>
        <time>2021-07-23T09:54:35Z</time>
      </trkpt>
      <trkpt lat="45.12498" lon="2.85768">
        <ele>1122.3</ele>
        <time>2021-07-23T09:54:37Z</time>
      </trkpt>
      <trkpt lat="45.12495" lon="2.85756">
        <ele>1121.7</ele>
        <time>2021-07-23T09:54:39Z</time>
      </trkpt>
      <trkpt lat="45.12489" lon="2.85744">
        <ele>1121.3</ele>
        <time>2021-07-23T09:54:41Z</time>
      </trkpt>
      <trkpt lat="45.12484" lon="2.85733">
        <ele>1121.3</ele>
        <time>2021-07-23T09:54:43Z</time>
      </trkpt>
      <trkpt lat="45.1248" lon="2.85722">
        <ele>1121.4</ele>
        <time>2021-07-23T09:54:45Z</time>
      </trkpt>
      <trkpt lat="45.12476" lon="2.85715">
        <ele>1121.6</ele>
        <time>2021-07-23T09:54:47Z</time>
      </trkpt>
      <trkpt lat="45.12472" lon="2.85711">
        <ele>1121.7</ele>
        <time>2021-07-23T09:54:49Z</time>
      </trkpt>
      <trkpt lat="45.12473" lon="2.85717">
        <ele>1121.5</ele>
        <time>2021-07-23T09:56:21Z</time>
      </trkpt>
      <trkpt lat="45.12464" lon="2.85725">
        <ele>1120.9</ele>
        <time>2021-07-23T09:56:47Z</time>
      </trkpt>
      <trkpt lat="45.12457" lon="2.85731">
        <ele>1120.2</ele>
        <time>2021-07-23T09:56:49Z</time>
      </trkpt>
      <trkpt lat="45.12449" lon="2.8574">
        <ele>1119.2</ele>
        <time>2021-07-23T09:56:51Z</time>
      </trkpt>
      <trkpt lat="45.12443" lon="2.8575">
        <ele>1117.9</ele>
        <time>2021-07-23T09:56:53Z</time>
      </trkpt>
      <trkpt lat="45.12438" lon="2.85761">
        <ele>1117.4</ele>
        <time>2021-07-23T09:56:55Z</time>
      </trkpt>
      <trkpt lat="45.12434" lon="2.8577">
        <ele>1117</ele>
        <time>2021-07-23T09:56:57Z</time>
      </trkpt>
      <trkpt lat="45.12429" lon="2.85779">
        <ele>1116.4</ele>
        <time>2021-07-23T09:56:59Z</time>
      </trkpt>
      <trkpt lat="45.12424" lon="2.85784">
        <ele>1115.8</ele>
        <time>2021-07-23T09:57:01Z</time>
      </trkpt>
      <trkpt lat="45.1242" lon="2.85789">
        <ele>1115.3</ele>
        <time>2021-07-23T09:57:03Z</time>
      </trkpt>
      <trkpt lat="45.12415" lon="2.85794">
        <ele>1114.6</ele>
        <time>2021-07-23T09:57:05Z</time>
      </trkpt>
      <trkpt lat="45.12409" lon="2.85796">
        <ele>1113.6</ele>
        <time>2021-07-23T09:57:07Z</time>
      </trkpt>
      <trkpt lat="45.12405" lon="2.85793">
        <ele>1113</ele>
        <time>2021-07-23T09:57:09Z</time>
      </trkpt>
      <trkpt lat="45.12402" lon="2.85787">
        <ele>1112.7</ele>
        <time>2021-07-23T09:57:11Z</time>
      </trkpt>
      <trkpt lat="45.12401" lon="2.85779">
        <ele>1112.8</ele>
        <time>2021-07-23T09:57:13Z</time>
      </trkpt>
      <trkpt lat="45.12399" lon="2.85771">
        <ele>1112.8</ele>
        <time>2021-07-23T09:57:15Z</time>
      </trkpt>
      <trkpt lat="45.12396" lon="2.85764">
        <ele>1112.7</ele>
        <time>2021-07-23T09:57:17Z</time>
      </trkpt>
      <trkpt lat="45.12391" lon="2.85759">
        <ele>1112.2</ele>
        <time>2021-07-23T09:57:19Z</time>
      </trkpt>
      <trkpt lat="45.12387" lon="2.85756">
        <ele>1111.8</ele>
        <time>2021-07-23T09:57:21Z</time>
      </trkpt>
      <trkpt lat="45.12383" lon="2.85755">
        <ele>1111.3</ele>
        <time>2021-07-23T09:57:23Z</time>
      </trkpt>
      <trkpt lat="45.12378" lon="2.85753">
        <ele>1110.7</ele>
        <time>2021-07-23T09:57:25Z</time>
      </trkpt>
      <trkpt lat="45.12374" lon="2.85749">
        <ele>1110.6</ele>
        <time>2021-07-23T09:57:27Z</time>
      </trkpt>
      <trkpt lat="45.12368" lon="2.85743">
        <ele>1111.2</ele>
        <time>2021-07-23T09:57:31Z</time>
      </trkpt>
      <trkpt lat="45.12362" lon="2.85741">
        <ele>1111.4</ele>
        <time>2021-07-23T09:57:35Z</time>
      </trkpt>
      <trkpt lat="45.12357" lon="2.85737">
        <ele>1112</ele>
        <time>2021-07-23T09:57:39Z</time>
      </trkpt>
      <trkpt lat="45.12353" lon="2.85733">
        <ele>1112.5</ele>
        <time>2021-07-23T09:57:41Z</time>
      </trkpt>
      <trkpt lat="45.12349" lon="2.85731">
        <ele>1112.8</ele>
        <time>2021-07-23T09:57:43Z</time>
      </trkpt>
      <trkpt lat="45.12342" lon="2.85729">
        <ele>1113.1</ele>
        <time>2021-07-23T09:57:47Z</time>
      </trkpt>
      <trkpt lat="45.12337" lon="2.85724">
        <ele>1114.1</ele>
        <time>2021-07-23T09:57:51Z</time>
      </trkpt>
      <trkpt lat="45.12329" lon="2.85718">
        <ele>1114.8</ele>
        <time>2021-07-23T09:57:55Z</time>
      </trkpt>
      <trkpt lat="45.12325" lon="2.85714">
        <ele>1115</ele>
        <time>2021-07-23T09:57:57Z</time>
      </trkpt>
      <trkpt lat="45.1232" lon="2.85712">
        <ele>1114.6</ele>
        <time>2021-07-23T09:57:59Z</time>
      </trkpt>
      <trkpt lat="45.12315" lon="2.85709">
        <ele>1114</ele>
        <time>2021-07-23T09:58:01Z</time>
      </trkpt>
      <trkpt lat="45.12311" lon="2.85707">
        <ele>1113.7</ele>
        <time>2021-07-23T09:58:03Z</time>
      </trkpt>
      <trkpt lat="45.12305" lon="2.85702">
        <ele>1113.6</ele>
        <time>2021-07-23T09:58:05Z</time>
      </trkpt>
      <trkpt lat="45.12301" lon="2.85699">
        <ele>1113.5</ele>
        <time>2021-07-23T09:58:07Z</time>
      </trkpt>
      <trkpt lat="45.12296" lon="2.85695">
        <ele>1113.4</ele>
        <time>2021-07-23T09:58:09Z</time>
      </trkpt>
      <trkpt lat="45.12289" lon="2.85688">
        <ele>1113.4</ele>
        <time>2021-07-23T09:58:13Z</time>
      </trkpt>
      <trkpt lat="45.12283" lon="2.85681">
        <ele>1113.7</ele>
        <time>2021-07-23T09:58:17Z</time>
      </trkpt>
      <trkpt lat="45.12274" lon="2.85676">
        <ele>1112.6</ele>
        <time>2021-07-23T09:59:07Z</time>
      </trkpt>
      <trkpt lat="45.12269" lon="2.85674">
        <ele>1111.7</ele>
        <time>2021-07-23T09:59:09Z</time>
      </trkpt>
      <trkpt lat="45.12262" lon="2.85669">
        <ele>1110.9</ele>
        <time>2021-07-23T09:59:11Z</time>
      </trkpt>
      <trkpt lat="45.12254" lon="2.85663">
        <ele>1111</ele>
        <time>2021-07-23T09:59:13Z</time>
      </trkpt>
      <trkpt lat="45.12246" lon="2.8566">
        <ele>1110.5</ele>
        <time>2021-07-23T09:59:15Z</time>
      </trkpt>
      <trkpt lat="45.12239" lon="2.85658">
        <ele>1110.1</ele>
        <time>2021-07-23T09:59:17Z</time>
      </trkpt>
      <trkpt lat="45.12231" lon="2.85656">
        <ele>1109.5</ele>
        <time>2021-07-23T09:59:19Z</time>
      </trkpt>
      <trkpt lat="45.12223" lon="2.85653">
        <ele>1108.9</ele>
        <time>2021-07-23T09:59:21Z</time>
      </trkpt>
      <trkpt lat="45.12217" lon="2.85651">
        <ele>1108.3</ele>
        <time>2021-07-23T09:59:23Z</time>
      </trkpt>
      <trkpt lat="45.12209" lon="2.85649">
        <ele>1107.6</ele>
        <time>2021-07-23T09:59:25Z</time>
      </trkpt>
      <trkpt lat="45.12201" lon="2.85647">
        <ele>1106.5</ele>
        <time>2021-07-23T09:59:27Z</time>
      </trkpt>
      <trkpt lat="45.12194" lon="2.85647">
        <ele>1104.3</ele>
        <time>2021-07-23T09:59:29Z</time>
      </trkpt>
      <trkpt lat="45.12187" lon="2.8565">
        <ele>1101.7</ele>
        <time>2021-07-23T09:59:31Z</time>
      </trkpt>
      <trkpt lat="45.12179" lon="2.8565">
        <ele>1099.7</ele>
        <time>2021-07-23T09:59:33Z</time>
      </trkpt>
      <trkpt lat="45.12172" lon="2.85649">
        <ele>1098.4</ele>
        <time>2021-07-23T09:59:35Z</time>
      </trkpt>
      <trkpt lat="45.12165" lon="2.85648">
        <ele>1097</ele>
        <time>2021-07-23T09:59:37Z</time>
      </trkpt>
      <trkpt lat="45.12158" lon="2.85646">
        <ele>1096.1</ele>
        <time>2021-07-23T09:59:39Z</time>
      </trkpt>
      <trkpt lat="45.1215" lon="2.85643">
        <ele>1095.4</ele>
        <time>2021-07-23T09:59:41Z</time>
      </trkpt>
      <trkpt lat="45.12143" lon="2.85639">
        <ele>1095</ele>
        <time>2021-07-23T09:59:43Z</time>
      </trkpt>
      <trkpt lat="45.12138" lon="2.85635">
        <ele>1094.9</ele>
        <time>2021-07-23T09:59:45Z</time>
      </trkpt>
      <trkpt lat="45.12132" lon="2.85631">
        <ele>1094.4</ele>
        <time>2021-07-23T09:59:47Z</time>
      </trkpt>
      <trkpt lat="45.12126" lon="2.85622">
        <ele>1095.2</ele>
        <time>2021-07-23T09:59:49Z</time>
      </trkpt>
      <trkpt lat="45.12121" lon="2.85614">
        <ele>1095.3</ele>
        <time>2021-07-23T09:59:51Z</time>
      </trkpt>
      <trkpt lat="45.12116" lon="2.85606">
        <ele>1095.6</ele>
        <time>2021-07-23T09:59:53Z</time>
      </trkpt>
      <trkpt lat="45.12112" lon="2.85595">
        <ele>1096.4</ele>
        <time>2021-07-23T09:59:55Z</time>
      </trkpt>
      <trkpt lat="45.12106" lon="2.85586">
        <ele>1096.1</ele>
        <time>2021-07-23T09:59:57Z</time>
      </trkpt>
      <trkpt lat="45.121" lon="2.85576">
        <ele>1094.6</ele>
        <time>2021-07-23T09:59:59Z</time>
      </trkpt>
      <trkpt lat="45.12095" lon="2.85568">
        <ele>1093.4</ele>
        <time>2021-07-23T10:00:01Z</time>
      </trkpt>
      <trkpt lat="45.12092" lon="2.85559">
        <ele>1092.7</ele>
        <time>2021-07-23T10:00:03Z</time>
      </trkpt>
      <trkpt lat="45.12091" lon="2.85553">
        <ele>1092.6</ele>
        <time>2021-07-23T10:00:05Z</time>
      </trkpt>
      <trkpt lat="45.12089" lon="2.85546">
        <ele>1092.1</ele>
        <time>2021-07-23T10:00:19Z</time>
      </trkpt>
      <trkpt lat="45.12088" lon="2.8554">
        <ele>1092</ele>
        <time>2021-07-23T10:00:35Z</time>
      </trkpt>
      <trkpt lat="45.12084" lon="2.85536">
        <ele>1090.5</ele>
        <time>2021-07-23T10:01:19Z</time>
      </trkpt>
      <trkpt lat="45.12081" lon="2.85545">
        <ele>1089.1</ele>
        <time>2021-07-23T10:01:31Z</time>
      </trkpt>
      <trkpt lat="45.12078" lon="2.85553">
        <ele>1088.1</ele>
        <time>2021-07-23T10:01:33Z</time>
      </trkpt>
      <trkpt lat="45.12076" lon="2.85561">
        <ele>1087.2</ele>
        <time>2021-07-23T10:01:35Z</time>
      </trkpt>
      <trkpt lat="45.12073" lon="2.85569">
        <ele>1086</ele>
        <time>2021-07-23T10:01:37Z</time>
      </trkpt>
      <trkpt lat="45.12071" lon="2.85579">
        <ele>1085</ele>
        <time>2021-07-23T10:01:39Z</time>
      </trkpt>
      <trkpt lat="45.12068" lon="2.85591">
        <ele>1083.2</ele>
        <time>2021-07-23T10:01:41Z</time>
      </trkpt>
      <trkpt lat="45.12066" lon="2.85601">
        <ele>1081.7</ele>
        <time>2021-07-23T10:01:43Z</time>
      </trkpt>
      <trkpt lat="45.12061" lon="2.85612">
        <ele>1079.9</ele>
        <time>2021-07-23T10:01:45Z</time>
      </trkpt>
      <trkpt lat="45.12058" lon="2.85621">
        <ele>1078.6</ele>
        <time>2021-07-23T10:01:47Z</time>
      </trkpt>
      <trkpt lat="45.12056" lon="2.85633">
        <ele>1077.5</ele>
        <time>2021-07-23T10:01:49Z</time>
      </trkpt>
      <trkpt lat="45.12054" lon="2.85645">
        <ele>1076.3</ele>
        <time>2021-07-23T10:01:51Z</time>
      </trkpt>
      <trkpt lat="45.12051" lon="2.85659">
        <ele>1074.9</ele>
        <time>2021-07-23T10:01:53Z</time>
      </trkpt>
      <trkpt lat="45.12048" lon="2.8567">
        <ele>1074</ele>
        <time>2021-07-23T10:01:55Z</time>
      </trkpt>
      <trkpt lat="45.12045" lon="2.85682">
        <ele>1073.1</ele>
        <time>2021-07-23T10:01:57Z</time>
      </trkpt>
      <trkpt lat="45.12041" lon="2.85692">
        <ele>1072.2</ele>
        <time>2021-07-23T10:01:59Z</time>
      </trkpt>
      <trkpt lat="45.12036" lon="2.85703">
        <ele>1071.3</ele>
        <time>2021-07-23T10:02:01Z</time>
      </trkpt>
      <trkpt lat="45.12031" lon="2.85713">
        <ele>1070.4</ele>
        <time>2021-07-23T10:02:03Z</time>
      </trkpt>
      <trkpt lat="45.12026" lon="2.85723">
        <ele>1069.6</ele>
        <time>2021-07-23T10:02:05Z</time>
      </trkpt>
      <trkpt lat="45.12021" lon="2.85732">
        <ele>1069</ele>
        <time>2021-07-23T10:02:07Z</time>
      </trkpt>
      <trkpt lat="45.12018" lon="2.85742">
        <ele>1068.4</ele>
        <time>2021-07-23T10:02:09Z</time>
      </trkpt>
      <trkpt lat="45.12015" lon="2.85752">
        <ele>1068</ele>
        <time>2021-07-23T10:02:11Z</time>
      </trkpt>
      <trkpt lat="45.12012" lon="2.85763">
        <ele>1068.2</ele>
        <time>2021-07-23T10:02:13Z</time>
      </trkpt>
      <trkpt lat="45.12008" lon="2.85772">
        <ele>1068.3</ele>
        <time>2021-07-23T10:02:15Z</time>
      </trkpt>
      <trkpt lat="45.12003" lon="2.85779">
        <ele>1068.3</ele>
        <time>2021-07-23T10:02:17Z</time>
      </trkpt>
      <trkpt lat="45.11998" lon="2.85786">
        <ele>1068.2</ele>
        <time>2021-07-23T10:02:19Z</time>
      </trkpt>
      <trkpt lat="45.11993" lon="2.85794">
        <ele>1068</ele>
        <time>2021-07-23T10:02:21Z</time>
      </trkpt>
      <trkpt lat="45.11988" lon="2.85803">
        <ele>1067.9</ele>
        <time>2021-07-23T10:02:23Z</time>
      </trkpt>
      <trkpt lat="45.11982" lon="2.85813">
        <ele>1067.8</ele>
        <time>2021-07-23T10:02:25Z</time>
      </trkpt>
      <trkpt lat="45.11978" lon="2.85822">
        <ele>1067.8</ele>
        <time>2021-07-23T10:02:27Z</time>
      </trkpt>
      <trkpt lat="45.11974" lon="2.85829">
        <ele>1067.7</ele>
        <time>2021-07-23T10:02:29Z</time>
      </trkpt>
      <trkpt lat="45.11971" lon="2.85834">
        <ele>1067.6</ele>
        <time>2021-07-23T10:02:31Z</time>
      </trkpt>
      <trkpt lat="45.11967" lon="2.85838">
        <ele>1067.6</ele>
        <time>2021-07-23T10:02:33Z</time>
      </trkpt>
      <trkpt lat="45.11962" lon="2.85843">
        <ele>1067.6</ele>
        <time>2021-07-23T10:02:35Z</time>
      </trkpt>
      <trkpt lat="45.11958" lon="2.85849">
        <ele>1067.6</ele>
        <time>2021-07-23T10:02:37Z</time>
      </trkpt>
      <trkpt lat="45.11955" lon="2.85856">
        <ele>1067.8</ele>
        <time>2021-07-23T10:02:39Z</time>
      </trkpt>
      <trkpt lat="45.11951" lon="2.85864">
        <ele>1068.1</ele>
        <time>2021-07-23T10:02:41Z</time>
      </trkpt>
      <trkpt lat="45.11949" lon="2.85872">
        <ele>1068.4</ele>
        <time>2021-07-23T10:02:43Z</time>
      </trkpt>
      <trkpt lat="45.11946" lon="2.8588">
        <ele>1068.6</ele>
        <time>2021-07-23T10:02:45Z</time>
      </trkpt>
      <trkpt lat="45.11942" lon="2.85887">
        <ele>1068.8</ele>
        <time>2021-07-23T10:02:47Z</time>
      </trkpt>
      <trkpt lat="45.1194" lon="2.85893">
        <ele>1068.9</ele>
        <time>2021-07-23T10:02:49Z</time>
      </trkpt>
      <trkpt lat="45.11935" lon="2.85903">
        <ele>1069.1</ele>
        <time>2021-07-23T10:02:53Z</time>
      </trkpt>
      <trkpt lat="45.11931" lon="2.8591">
        <ele>1069.2</ele>
        <time>2021-07-23T10:02:55Z</time>
      </trkpt>
      <trkpt lat="45.11927" lon="2.85913">
        <ele>1068.8</ele>
        <time>2021-07-23T10:03:01Z</time>
      </trkpt>
      <trkpt lat="45.11921" lon="2.85911">
        <ele>1068.2</ele>
        <time>2021-07-23T10:03:13Z</time>
      </trkpt>
      <trkpt lat="45.11917" lon="2.85908">
        <ele>1067.5</ele>
        <time>2021-07-23T10:03:29Z</time>
      </trkpt>
      <trkpt lat="45.1191" lon="2.85907">
        <ele>1066.4</ele>
        <time>2021-07-23T10:03:33Z</time>
      </trkpt>
      <trkpt lat="45.11905" lon="2.85911">
        <ele>1065.8</ele>
        <time>2021-07-23T10:03:35Z</time>
      </trkpt>
      <trkpt lat="45.11899" lon="2.85914">
        <ele>1065</ele>
        <time>2021-07-23T10:03:37Z</time>
      </trkpt>
      <trkpt lat="45.11892" lon="2.8592">
        <ele>1064.4</ele>
        <time>2021-07-23T10:03:39Z</time>
      </trkpt>
      <trkpt lat="45.11885" lon="2.85926">
        <ele>1063.7</ele>
        <time>2021-07-23T10:03:41Z</time>
      </trkpt>
      <trkpt lat="45.11879" lon="2.85932">
        <ele>1063.2</ele>
        <time>2021-07-23T10:03:43Z</time>
      </trkpt>
      <trkpt lat="45.11873" lon="2.85939">
        <ele>1062.7</ele>
        <time>2021-07-23T10:03:45Z</time>
      </trkpt>
      <trkpt lat="45.11866" lon="2.85943">
        <ele>1061.8</ele>
        <time>2021-07-23T10:03:47Z</time>
      </trkpt>
      <trkpt lat="45.11859" lon="2.85947">
        <ele>1060.9</ele>
        <time>2021-07-23T10:03:49Z</time>
      </trkpt>
      <trkpt lat="45.11851" lon="2.8595">
        <ele>1059.9</ele>
        <time>2021-07-23T10:03:51Z</time>
      </trkpt>
      <trkpt lat="45.11843" lon="2.85952">
        <ele>1058.6</ele>
        <time>2021-07-23T10:03:53Z</time>
      </trkpt>
      <trkpt lat="45.11833" lon="2.85954">
        <ele>1057.2</ele>
        <time>2021-07-23T10:03:55Z</time>
      </trkpt>
      <trkpt lat="45.11827" lon="2.85953">
        <ele>1056.3</ele>
        <time>2021-07-23T10:03:57Z</time>
      </trkpt>
      <trkpt lat="45.11821" lon="2.85955">
        <ele>1055.4</ele>
        <time>2021-07-23T10:03:59Z</time>
      </trkpt>
      <trkpt lat="45.11815" lon="2.85962">
        <ele>1055</ele>
        <time>2021-07-23T10:04:01Z</time>
      </trkpt>
      <trkpt lat="45.11809" lon="2.8597">
        <ele>1054.8</ele>
        <time>2021-07-23T10:04:03Z</time>
      </trkpt>
      <trkpt lat="45.11805" lon="2.85978">
        <ele>1054.8</ele>
        <time>2021-07-23T10:04:05Z</time>
      </trkpt>
      <trkpt lat="45.11799" lon="2.85986">
        <ele>1054.7</ele>
        <time>2021-07-23T10:04:07Z</time>
      </trkpt>
      <trkpt lat="45.11793" lon="2.85995">
        <ele>1054.7</ele>
        <time>2021-07-23T10:04:09Z</time>
      </trkpt>
      <trkpt lat="45.11788" lon="2.86002">
        <ele>1054.7</ele>
        <time>2021-07-23T10:04:11Z</time>
      </trkpt>
      <trkpt lat="45.11784" lon="2.86008">
        <ele>1054.6</ele>
        <time>2021-07-23T10:04:13Z</time>
      </trkpt>
      <trkpt lat="45.1178" lon="2.86013">
        <ele>1054.4</ele>
        <time>2021-07-23T10:04:15Z</time>
      </trkpt>
      <trkpt lat="45.11776" lon="2.86013">
        <ele>1053.9</ele>
        <time>2021-07-23T10:04:17Z</time>
      </trkpt>
      <trkpt lat="45.11771" lon="2.86012">
        <ele>1053.2</ele>
        <time>2021-07-23T10:04:19Z</time>
      </trkpt>
      <trkpt lat="45.11766" lon="2.86012">
        <ele>1052.6</ele>
        <time>2021-07-23T10:04:23Z</time>
      </trkpt>
      <trkpt lat="45.11761" lon="2.86011">
        <ele>1051.9</ele>
        <time>2021-07-23T10:04:35Z</time>
      </trkpt>
      <trkpt lat="45.11757" lon="2.86006">
        <ele>1051.1</ele>
        <time>2021-07-23T10:04:37Z</time>
      </trkpt>
      <trkpt lat="45.11752" lon="2.86002">
        <ele>1050.4</ele>
        <time>2021-07-23T10:04:39Z</time>
      </trkpt>
      <trkpt lat="45.11747" lon="2.85997">
        <ele>1048.8</ele>
        <time>2021-07-23T10:04:41Z</time>
      </trkpt>
      <trkpt lat="45.11745" lon="2.85989">
        <ele>1047.1</ele>
        <time>2021-07-23T10:04:43Z</time>
      </trkpt>
      <trkpt lat="45.11742" lon="2.85983">
        <ele>1045.5</ele>
        <time>2021-07-23T10:04:45Z</time>
      </trkpt>
      <trkpt lat="45.11741" lon="2.85974">
        <ele>1044</ele>
        <time>2021-07-23T10:04:49Z</time>
      </trkpt>
      <trkpt lat="45.11742" lon="2.85965">
        <ele>1043.2</ele>
        <time>2021-07-23T10:05:03Z</time>
      </trkpt>
      <trkpt lat="45.11744" lon="2.85955">
        <ele>1042.9</ele>
        <time>2021-07-23T10:05:05Z</time>
      </trkpt>
      <trkpt lat="45.11747" lon="2.85941">
        <ele>1042.1</ele>
        <time>2021-07-23T10:05:07Z</time>
      </trkpt>
      <trkpt lat="45.1175" lon="2.85927">
        <ele>1041.3</ele>
        <time>2021-07-23T10:05:09Z</time>
      </trkpt>
      <trkpt lat="45.11754" lon="2.8591">
        <ele>1040.1</ele>
        <time>2021-07-23T10:05:11Z</time>
      </trkpt>
      <trkpt lat="45.11759" lon="2.85892">
        <ele>1039.3</ele>
        <time>2021-07-23T10:05:13Z</time>
      </trkpt>
      <trkpt lat="45.11761" lon="2.8588">
        <ele>1038.7</ele>
        <time>2021-07-23T10:05:15Z</time>
      </trkpt>
      <trkpt lat="45.11763" lon="2.85869">
        <ele>1038.2</ele>
        <time>2021-07-23T10:05:17Z</time>
      </trkpt>
      <trkpt lat="45.11766" lon="2.85857">
        <ele>1037.6</ele>
        <time>2021-07-23T10:05:19Z</time>
      </trkpt>
      <trkpt lat="45.11764" lon="2.85847">
        <ele>1036.4</ele>
        <time>2021-07-23T10:05:21Z</time>
      </trkpt>
      <trkpt lat="45.11761" lon="2.85841">
        <ele>1035.3</ele>
        <time>2021-07-23T10:05:23Z</time>
      </trkpt>
      <trkpt lat="45.11757" lon="2.85842">
        <ele>1034.3</ele>
        <time>2021-07-23T10:05:37Z</time>
      </trkpt>
      <trkpt lat="45.11752" lon="2.85846">
        <ele>1033.7</ele>
        <time>2021-07-23T10:05:47Z</time>
      </trkpt>
      <trkpt lat="45.11747" lon="2.85852">
        <ele>1032.9</ele>
        <time>2021-07-23T10:05:49Z</time>
      </trkpt>
      <trkpt lat="45.11742" lon="2.85859">
        <ele>1032.3</ele>
        <time>2021-07-23T10:05:51Z</time>
      </trkpt>
      <trkpt lat="45.11738" lon="2.85866">
        <ele>1031.8</ele>
        <time>2021-07-23T10:05:53Z</time>
      </trkpt>
      <trkpt lat="45.11731" lon="2.85873">
        <ele>1030.7</ele>
        <time>2021-07-23T10:05:55Z</time>
      </trkpt>
      <trkpt lat="45.11724" lon="2.85878">
        <ele>1029</ele>
        <time>2021-07-23T10:05:57Z</time>
      </trkpt>
      <trkpt lat="45.11717" lon="2.85883">
        <ele>1027.4</ele>
        <time>2021-07-23T10:05:59Z</time>
      </trkpt>
      <trkpt lat="45.11711" lon="2.85887">
        <ele>1026.1</ele>
        <time>2021-07-23T10:06:01Z</time>
      </trkpt>
      <trkpt lat="45.11705" lon="2.85891">
        <ele>1024.8</ele>
        <time>2021-07-23T10:06:03Z</time>
      </trkpt>
      <trkpt lat="45.11701" lon="2.85895">
        <ele>1023.7</ele>
        <time>2021-07-23T10:06:11Z</time>
      </trkpt>
      <trkpt lat="45.11696" lon="2.85898">
        <ele>1022.5</ele>
        <time>2021-07-23T10:06:25Z</time>
      </trkpt>
      <trkpt lat="45.11689" lon="2.85903">
        <ele>1020.9</ele>
        <time>2021-07-23T10:06:35Z</time>
      </trkpt>
      <trkpt lat="45.11683" lon="2.85904">
        <ele>1019.2</ele>
        <time>2021-07-23T10:06:37Z</time>
      </trkpt>
      <trkpt lat="45.11676" lon="2.85901">
        <ele>1016.9</ele>
        <time>2021-07-23T10:06:39Z</time>
      </trkpt>
      <trkpt lat="45.1167" lon="2.85897">
        <ele>1015.1</ele>
        <time>2021-07-23T10:06:41Z</time>
      </trkpt>
      <trkpt lat="45.11668" lon="2.85891">
        <ele>1014</ele>
        <time>2021-07-23T10:06:45Z</time>
      </trkpt>
      <trkpt lat="45.11664" lon="2.85885">
        <ele>1012.9</ele>
        <time>2021-07-23T10:06:49Z</time>
      </trkpt>
      <trkpt lat="45.11658" lon="2.85889">
        <ele>1011.8</ele>
        <time>2021-07-23T10:06:53Z</time>
      </trkpt>
      <trkpt lat="45.11656" lon="2.85896">
        <ele>1011.7</ele>
        <time>2021-07-23T10:06:57Z</time>
      </trkpt>
      <trkpt lat="45.11653" lon="2.85905">
        <ele>1011.6</ele>
        <time>2021-07-23T10:07:01Z</time>
      </trkpt>
      <trkpt lat="45.11649" lon="2.85916">
        <ele>1011.4</ele>
        <time>2021-07-23T10:07:05Z</time>
      </trkpt>
      <trkpt lat="45.1165" lon="2.85909">
        <ele>1011.1</ele>
        <time>2021-07-23T10:07:59Z</time>
      </trkpt>
      <trkpt lat="45.11651" lon="2.85901">
        <ele>1011</ele>
        <time>2021-07-23T10:08:03Z</time>
      </trkpt>
      <trkpt lat="45.11648" lon="2.85894">
        <ele>1009.7</ele>
        <time>2021-07-23T10:08:07Z</time>
      </trkpt>
      <trkpt lat="45.11641" lon="2.85885">
        <ele>1007.7</ele>
        <time>2021-07-23T10:08:11Z</time>
      </trkpt>
      <trkpt lat="45.11636" lon="2.85884">
        <ele>1006.5</ele>
        <time>2021-07-23T10:08:13Z</time>
      </trkpt>
      <trkpt lat="45.11632" lon="2.85891">
        <ele>1005.9</ele>
        <time>2021-07-23T10:08:15Z</time>
      </trkpt>
      <trkpt lat="45.11627" lon="2.85902">
        <ele>1005.9</ele>
        <time>2021-07-23T10:08:17Z</time>
      </trkpt>
      <trkpt lat="45.11623" lon="2.85917">
        <ele>1006.1</ele>
        <time>2021-07-23T10:08:19Z</time>
      </trkpt>
      <trkpt lat="45.11618" lon="2.85932">
        <ele>1006</ele>
        <time>2021-07-23T10:08:21Z</time>
      </trkpt>
      <trkpt lat="45.11615" lon="2.85942">
        <ele>1005.9</ele>
        <time>2021-07-23T10:08:23Z</time>
      </trkpt>
      <trkpt lat="45.11612" lon="2.85948">
        <ele>1005.5</ele>
        <time>2021-07-23T10:08:25Z</time>
      </trkpt>
      <trkpt lat="45.11607" lon="2.85956">
        <ele>1004.8</ele>
        <time>2021-07-23T10:08:27Z</time>
      </trkpt>
      <trkpt lat="45.11602" lon="2.85964">
        <ele>1003.9</ele>
        <time>2021-07-23T10:08:29Z</time>
      </trkpt>
      <trkpt lat="45.11594" lon="2.85967">
        <ele>1001.8</ele>
        <time>2021-07-23T10:08:31Z</time>
      </trkpt>
      <trkpt lat="45.11584" lon="2.85969">
        <ele>999.4</ele>
        <time>2021-07-23T10:08:33Z</time>
      </trkpt>
      <trkpt lat="45.11575" lon="2.85967">
        <ele>997.8</ele>
        <time>2021-07-23T10:08:35Z</time>
      </trkpt>
      <trkpt lat="45.11567" lon="2.85967">
        <ele>996.4</ele>
        <time>2021-07-23T10:08:37Z</time>
      </trkpt>
      <trkpt lat="45.11558" lon="2.85967">
        <ele>994.8</ele>
        <time>2021-07-23T10:08:39Z</time>
      </trkpt>
      <trkpt lat="45.11548" lon="2.85968">
        <ele>993.2</ele>
        <time>2021-07-23T10:08:41Z</time>
      </trkpt>
      <trkpt lat="45.11541" lon="2.85967">
        <ele>991.9</ele>
        <time>2021-07-23T10:08:43Z</time>
      </trkpt>
      <trkpt lat="45.11534" lon="2.85964">
        <ele>990.5</ele>
        <time>2021-07-23T10:08:45Z</time>
      </trkpt>
      <trkpt lat="45.11526" lon="2.85961">
        <ele>989</ele>
        <time>2021-07-23T10:08:47Z</time>
      </trkpt>
      <trkpt lat="45.11518" lon="2.85958">
        <ele>987.3</ele>
        <time>2021-07-23T10:08:49Z</time>
      </trkpt>
      <trkpt lat="45.11507" lon="2.85957">
        <ele>985.2</ele>
        <time>2021-07-23T10:08:51Z</time>
      </trkpt>
      <trkpt lat="45.11494" lon="2.8596">
        <ele>983</ele>
        <time>2021-07-23T10:08:53Z</time>
      </trkpt>
      <trkpt lat="45.11485" lon="2.85966">
        <ele>982</ele>
        <time>2021-07-23T10:08:55Z</time>
      </trkpt>
      <trkpt lat="45.1148" lon="2.85976">
        <ele>982</ele>
        <time>2021-07-23T10:08:57Z</time>
      </trkpt>
      <trkpt lat="45.11479" lon="2.85984">
        <ele>982.5</ele>
        <time>2021-07-23T10:08:59Z</time>
      </trkpt>
      <trkpt lat="45.11478" lon="2.85991">
        <ele>982.9</ele>
        <time>2021-07-23T10:09:01Z</time>
      </trkpt>
      <trkpt lat="45.11476" lon="2.86003">
        <ele>983.5</ele>
        <time>2021-07-23T10:09:05Z</time>
      </trkpt>
      <trkpt lat="45.11474" lon="2.86014">
        <ele>983.8</ele>
        <time>2021-07-23T10:09:09Z</time>
      </trkpt>
      <trkpt lat="45.11471" lon="2.86025">
        <ele>983.8</ele>
        <time>2021-07-23T10:09:13Z</time>
      </trkpt>
      <trkpt lat="45.11468" lon="2.8603">
        <ele>983.6</ele>
        <time>2021-07-23T10:09:15Z</time>
      </trkpt>
      <trkpt lat="45.11464" lon="2.86037">
        <ele>983.3</ele>
        <time>2021-07-23T10:09:17Z</time>
      </trkpt>
      <trkpt lat="45.11458" lon="2.86044">
        <ele>982.9</ele>
        <time>2021-07-23T10:09:19Z</time>
      </trkpt>
      <trkpt lat="45.11453" lon="2.8605">
        <ele>982.5</ele>
        <time>2021-07-23T10:09:21Z</time>
      </trkpt>
      <trkpt lat="45.11447" lon="2.86057">
        <ele>982.3</ele>
        <time>2021-07-23T10:09:23Z</time>
      </trkpt>
      <trkpt lat="45.11442" lon="2.86063">
        <ele>982</ele>
        <time>2021-07-23T10:09:25Z</time>
      </trkpt>
      <trkpt lat="45.11437" lon="2.8607">
        <ele>982</ele>
        <time>2021-07-23T10:09:27Z</time>
      </trkpt>
      <trkpt lat="45.11432" lon="2.86077">
        <ele>982</ele>
        <time>2021-07-23T10:09:29Z</time>
      </trkpt>
      <trkpt lat="45.11427" lon="2.86084">
        <ele>982.2</ele>
        <time>2021-07-23T10:09:31Z</time>
      </trkpt>
      <trkpt lat="45.11423" lon="2.86093">
        <ele>982</ele>
        <time>2021-07-23T10:09:33Z</time>
      </trkpt>
      <trkpt lat="45.1142" lon="2.86102">
        <ele>982</ele>
        <time>2021-07-23T10:09:35Z</time>
      </trkpt>
      <trkpt lat="45.11419" lon="2.86111">
        <ele>982.2</ele>
        <time>2021-07-23T10:09:37Z</time>
      </trkpt>
      <trkpt lat="45.11418" lon="2.8612">
        <ele>982.5</ele>
        <time>2021-07-23T10:09:39Z</time>
      </trkpt>
      <trkpt lat="45.11419" lon="2.86128">
        <ele>982.8</ele>
        <time>2021-07-23T10:09:41Z</time>
      </trkpt>
      <trkpt lat="45.11419" lon="2.86136">
        <ele>983.1</ele>
        <time>2021-07-23T10:09:43Z</time>
      </trkpt>
      <trkpt lat="45.11419" lon="2.86144">
        <ele>983.4</ele>
        <time>2021-07-23T10:09:45Z</time>
      </trkpt>
      <trkpt lat="45.11419" lon="2.86152">
        <ele>983.7</ele>
        <time>2021-07-23T10:09:47Z</time>
      </trkpt>
      <trkpt lat="45.11419" lon="2.8616">
        <ele>984</ele>
        <time>2021-07-23T10:09:49Z</time>
      </trkpt>
      <trkpt lat="45.1142" lon="2.86169">
        <ele>984.3</ele>
        <time>2021-07-23T10:09:51Z</time>
      </trkpt>
      <trkpt lat="45.11421" lon="2.86178">
        <ele>984.1</ele>
        <time>2021-07-23T10:09:53Z</time>
      </trkpt>
      <trkpt lat="45.11422" lon="2.86187">
        <ele>984</ele>
        <time>2021-07-23T10:09:55Z</time>
      </trkpt>
      <trkpt lat="45.11424" lon="2.86196">
        <ele>984</ele>
        <time>2021-07-23T10:09:57Z</time>
      </trkpt>
      <trkpt lat="45.11426" lon="2.86204">
        <ele>984.1</ele>
        <time>2021-07-23T10:09:59Z</time>
      </trkpt>
      <trkpt lat="45.11429" lon="2.86212">
        <ele>984.2</ele>
        <time>2021-07-23T10:10:01Z</time>
      </trkpt>
      <trkpt lat="45.11431" lon="2.8622">
        <ele>984.3</ele>
        <time>2021-07-23T10:10:03Z</time>
      </trkpt>
      <trkpt lat="45.11434" lon="2.86227">
        <ele>984.5</ele>
        <time>2021-07-23T10:10:05Z</time>
      </trkpt>
      <trkpt lat="45.11437" lon="2.86233">
        <ele>984.6</ele>
        <time>2021-07-23T10:10:07Z</time>
      </trkpt>
      <trkpt lat="45.11439" lon="2.86245">
        <ele>984.7</ele>
        <time>2021-07-23T10:10:11Z</time>
      </trkpt>
      <trkpt lat="45.11434" lon="2.86255">
        <ele>984.2</ele>
        <time>2021-07-23T10:10:15Z</time>
      </trkpt>
      <trkpt lat="45.1143" lon="2.8626">
        <ele>983.9</ele>
        <time>2021-07-23T10:10:17Z</time>
      </trkpt>
      <trkpt lat="45.11426" lon="2.86265">
        <ele>983.6</ele>
        <time>2021-07-23T10:10:19Z</time>
      </trkpt>
      <trkpt lat="45.11422" lon="2.86269">
        <ele>983.1</ele>
        <time>2021-07-23T10:10:21Z</time>
      </trkpt>
      <trkpt lat="45.11418" lon="2.86273">
        <ele>982.8</ele>
        <time>2021-07-23T10:10:23Z</time>
      </trkpt>
      <trkpt lat="45.11415" lon="2.86278">
        <ele>982.9</ele>
        <time>2021-07-23T10:10:25Z</time>
      </trkpt>
      <trkpt lat="45.11411" lon="2.86283">
        <ele>983.5</ele>
        <time>2021-07-23T10:10:27Z</time>
      </trkpt>
      <trkpt lat="45.11406" lon="2.86287">
        <ele>984.2</ele>
        <time>2021-07-23T10:10:29Z</time>
      </trkpt>
      <trkpt lat="45.11402" lon="2.86291">
        <ele>984.9</ele>
        <time>2021-07-23T10:10:31Z</time>
      </trkpt>
      <trkpt lat="45.11398" lon="2.86298">
        <ele>985.7</ele>
        <time>2021-07-23T10:10:35Z</time>
      </trkpt>
      <trkpt lat="45.11394" lon="2.86304">
        <ele>986.4</ele>
        <time>2021-07-23T10:10:45Z</time>
      </trkpt>
      <trkpt lat="45.1139" lon="2.86306">
        <ele>987.1</ele>
        <time>2021-07-23T10:10:49Z</time>
      </trkpt>
      <trkpt lat="45.11386" lon="2.86304">
        <ele>987.6</ele>
        <time>2021-07-23T10:10:55Z</time>
      </trkpt>
      <trkpt lat="45.1138" lon="2.86303">
        <ele>988.4</ele>
        <time>2021-07-23T10:11:01Z</time>
      </trkpt>
      <trkpt lat="45.11381" lon="2.86315">
        <ele>988.8</ele>
        <time>2021-07-23T10:11:49Z</time>
      </trkpt>
      <trkpt lat="45.11384" lon="2.86323">
        <ele>988.6</ele>
        <time>2021-07-23T10:11:51Z</time>
      </trkpt>
      <trkpt lat="45.11388" lon="2.8633">
        <ele>988.4</ele>
        <time>2021-07-23T10:11:53Z</time>
      </trkpt>
      <trkpt lat="45.1139" lon="2.86339">
        <ele>988</ele>
        <time>2021-07-23T10:11:55Z</time>
      </trkpt>
      <trkpt lat="45.11392" lon="2.86349">
        <ele>987.6</ele>
        <time>2021-07-23T10:11:57Z</time>
      </trkpt>
      <trkpt lat="45.11393" lon="2.8636">
        <ele>987.3</ele>
        <time>2021-07-23T10:11:59Z</time>
      </trkpt>
      <trkpt lat="45.11393" lon="2.86372">
        <ele>987</ele>
        <time>2021-07-23T10:12:01Z</time>
      </trkpt>
      <trkpt lat="45.11393" lon="2.86385">
        <ele>986.8</ele>
        <time>2021-07-23T10:12:03Z</time>
      </trkpt>
      <trkpt lat="45.11398" lon="2.86398">
        <ele>985.4</ele>
        <time>2021-07-23T10:12:05Z</time>
      </trkpt>
      <trkpt lat="45.11401" lon="2.86414">
        <ele>984.5</ele>
        <time>2021-07-23T10:12:07Z</time>
      </trkpt>
      <trkpt lat="45.11402" lon="2.86432">
        <ele>983.2</ele>
        <time>2021-07-23T10:12:09Z</time>
      </trkpt>
      <trkpt lat="45.11402" lon="2.86451">
        <ele>982.1</ele>
        <time>2021-07-23T10:12:11Z</time>
      </trkpt>
      <trkpt lat="45.11403" lon="2.86469">
        <ele>980.7</ele>
        <time>2021-07-23T10:12:13Z</time>
      </trkpt>
      <trkpt lat="45.11403" lon="2.86485">
        <ele>979.7</ele>
        <time>2021-07-23T10:12:15Z</time>
      </trkpt>
      <trkpt lat="45.114" lon="2.86501">
        <ele>979.4</ele>
        <time>2021-07-23T10:12:17Z</time>
      </trkpt>
      <trkpt lat="45.11396" lon="2.86518">
        <ele>979.4</ele>
        <time>2021-07-23T10:12:19Z</time>
      </trkpt>
      <trkpt lat="45.1139" lon="2.86534">
        <ele>979.3</ele>
        <time>2021-07-23T10:12:21Z</time>
      </trkpt>
      <trkpt lat="45.11384" lon="2.86552">
        <ele>979</ele>
        <time>2021-07-23T10:12:23Z</time>
      </trkpt>
      <trkpt lat="45.1138" lon="2.8657">
        <ele>978.1</ele>
        <time>2021-07-23T10:12:25Z</time>
      </trkpt>
      <trkpt lat="45.11377" lon="2.86585">
        <ele>977.3</ele>
        <time>2021-07-23T10:12:27Z</time>
      </trkpt>
      <trkpt lat="45.11374" lon="2.86598">
        <ele>977</ele>
        <time>2021-07-23T10:12:29Z</time>
      </trkpt>
      <trkpt lat="45.11371" lon="2.86609">
        <ele>976.5</ele>
        <time>2021-07-23T10:12:31Z</time>
      </trkpt>
      <trkpt lat="45.11369" lon="2.86621">
        <ele>975.9</ele>
        <time>2021-07-23T10:12:33Z</time>
      </trkpt>
      <trkpt lat="45.11368" lon="2.86628">
        <ele>975.4</ele>
        <time>2021-07-23T10:12:35Z</time>
      </trkpt>
      <trkpt lat="45.11364" lon="2.86636">
        <ele>974.8</ele>
        <time>2021-07-23T10:12:39Z</time>
      </trkpt>
      <trkpt lat="45.11365" lon="2.86628">
        <ele>975.4</ele>
        <time>2021-07-23T10:13:29Z</time>
      </trkpt>
      <trkpt lat="45.11369" lon="2.86631">
        <ele>975.3</ele>
        <time>2021-07-23T10:15:21Z</time>
      </trkpt>
      <trkpt lat="45.11366" lon="2.86636">
        <ele>974.9</ele>
        <time>2021-07-23T10:15:41Z</time>
      </trkpt>
      <trkpt lat="45.11364" lon="2.86643">
        <ele>974.3</ele>
        <time>2021-07-23T10:15:43Z</time>
      </trkpt>
      <trkpt lat="45.11361" lon="2.86649">
        <ele>973.7</ele>
        <time>2021-07-23T10:15:45Z</time>
      </trkpt>
      <trkpt lat="45.11358" lon="2.86654">
        <ele>973</ele>
        <time>2021-07-23T10:15:47Z</time>
      </trkpt>
      <trkpt lat="45.11355" lon="2.86659">
        <ele>972.2</ele>
        <time>2021-07-23T10:15:49Z</time>
      </trkpt>
      <trkpt lat="45.11351" lon="2.86664">
        <ele>971.4</ele>
        <time>2021-07-23T10:15:51Z</time>
      </trkpt>
      <trkpt lat="45.11345" lon="2.86669">
        <ele>970.5</ele>
        <time>2021-07-23T10:15:53Z</time>
      </trkpt>
      <trkpt lat="45.11339" lon="2.86674">
        <ele>969.8</ele>
        <time>2021-07-23T10:15:55Z</time>
      </trkpt>
      <trkpt lat="45.11334" lon="2.86681">
        <ele>969.2</ele>
        <time>2021-07-23T10:15:57Z</time>
      </trkpt>
      <trkpt lat="45.11329" lon="2.86686">
        <ele>969.2</ele>
        <time>2021-07-23T10:15:59Z</time>
      </trkpt>
      <trkpt lat="45.11324" lon="2.86691">
        <ele>969</ele>
        <time>2021-07-23T10:16:01Z</time>
      </trkpt>
      <trkpt lat="45.11318" lon="2.86695">
        <ele>968.7</ele>
        <time>2021-07-23T10:16:03Z</time>
      </trkpt>
      <trkpt lat="45.11312" lon="2.86697">
        <ele>968.3</ele>
        <time>2021-07-23T10:16:05Z</time>
      </trkpt>
      <trkpt lat="45.11305" lon="2.86699">
        <ele>967.8</ele>
        <time>2021-07-23T10:16:07Z</time>
      </trkpt>
      <trkpt lat="45.11298" lon="2.867">
        <ele>967.3</ele>
        <time>2021-07-23T10:16:09Z</time>
      </trkpt>
      <trkpt lat="45.11292" lon="2.86701">
        <ele>966.7</ele>
        <time>2021-07-23T10:16:11Z</time>
      </trkpt>
      <trkpt lat="45.11286" lon="2.86701">
        <ele>966.5</ele>
        <time>2021-07-23T10:16:13Z</time>
      </trkpt>
      <trkpt lat="45.1128" lon="2.86702">
        <ele>965.9</ele>
        <time>2021-07-23T10:16:15Z</time>
      </trkpt>
      <trkpt lat="45.11275" lon="2.86703">
        <ele>965.3</ele>
        <time>2021-07-23T10:16:17Z</time>
      </trkpt>
      <trkpt lat="45.11272" lon="2.86709">
        <ele>963.9</ele>
        <time>2021-07-23T10:16:21Z</time>
      </trkpt>
      <trkpt lat="45.11276" lon="2.86719">
        <ele>962.2</ele>
        <time>2021-07-23T10:16:25Z</time>
      </trkpt>
      <trkpt lat="45.1128" lon="2.86728">
        <ele>961.3</ele>
        <time>2021-07-23T10:16:29Z</time>
      </trkpt>
      <trkpt lat="45.11279" lon="2.86739">
        <ele>958.9</ele>
        <time>2021-07-23T10:16:33Z</time>
      </trkpt>
      <trkpt lat="45.11274" lon="2.86741">
        <ele>957.7</ele>
        <time>2021-07-23T10:16:35Z</time>
      </trkpt>
      <trkpt lat="45.11271" lon="2.86747">
        <ele>955.8</ele>
        <time>2021-07-23T10:16:37Z</time>
      </trkpt>
      <trkpt lat="45.11267" lon="2.86756">
        <ele>954.3</ele>
        <time>2021-07-23T10:16:41Z</time>
      </trkpt>
      <trkpt lat="45.1126" lon="2.86756">
        <ele>952.6</ele>
        <time>2021-07-23T10:16:45Z</time>
      </trkpt>
      <trkpt lat="45.11253" lon="2.8675">
        <ele>950.8</ele>
        <time>2021-07-23T10:16:49Z</time>
      </trkpt>
      <trkpt lat="45.11248" lon="2.8675">
        <ele>949.7</ele>
        <time>2021-07-23T10:16:51Z</time>
      </trkpt>
      <trkpt lat="45.11242" lon="2.86747">
        <ele>949.6</ele>
        <time>2021-07-23T10:16:55Z</time>
      </trkpt>
      <trkpt lat="45.11235" lon="2.8675">
        <ele>947.8</ele>
        <time>2021-07-23T10:16:59Z</time>
      </trkpt>
      <trkpt lat="45.11232" lon="2.86753">
        <ele>947.1</ele>
        <time>2021-07-23T10:17:01Z</time>
      </trkpt>
      <trkpt lat="45.11223" lon="2.86758">
        <ele>945.9</ele>
        <time>2021-07-23T10:17:05Z</time>
      </trkpt>
      <trkpt lat="45.11219" lon="2.86766">
        <ele>945.1</ele>
        <time>2021-07-23T10:17:09Z</time>
      </trkpt>
      <trkpt lat="45.11214" lon="2.86773">
        <ele>944.5</ele>
        <time>2021-07-23T10:17:13Z</time>
      </trkpt>
      <trkpt lat="45.1121" lon="2.86775">
        <ele>943.8</ele>
        <time>2021-07-23T10:17:15Z</time>
      </trkpt>
      <trkpt lat="45.11204" lon="2.86782">
        <ele>942.8</ele>
        <time>2021-07-23T10:17:19Z</time>
      </trkpt>
      <trkpt lat="45.11197" lon="2.86783">
        <ele>941.6</ele>
        <time>2021-07-23T10:17:21Z</time>
      </trkpt>
      <trkpt lat="45.11201" lon="2.86789">
        <ele>942.2</ele>
        <time>2021-07-23T10:17:25Z</time>
      </trkpt>
      <trkpt lat="45.11198" lon="2.86795">
        <ele>941.7</ele>
        <time>2021-07-23T10:17:43Z</time>
      </trkpt>
      <trkpt lat="45.11199" lon="2.86802">
        <ele>941.9</ele>
        <time>2021-07-23T10:17:51Z</time>
      </trkpt>
      <trkpt lat="45.112" lon="2.86809">
        <ele>942</ele>
        <time>2021-07-23T10:17:57Z</time>
      </trkpt>
      <trkpt lat="45.112" lon="2.86817">
        <ele>942</ele>
        <time>2021-07-23T10:18:05Z</time>
      </trkpt>
      <trkpt lat="45.11198" lon="2.8681">
        <ele>941.6</ele>
        <time>2021-07-23T10:18:57Z</time>
      </trkpt>
      <trkpt lat="45.11193" lon="2.86806">
        <ele>940.9</ele>
        <time>2021-07-23T10:19:05Z</time>
      </trkpt>
      <trkpt lat="45.11188" lon="2.86806">
        <ele>940</ele>
        <time>2021-07-23T10:19:09Z</time>
      </trkpt>
      <trkpt lat="45.11183" lon="2.86806">
        <ele>939.1</ele>
        <time>2021-07-23T10:19:15Z</time>
      </trkpt>
      <trkpt lat="45.11178" lon="2.86805">
        <ele>938.2</ele>
        <time>2021-07-23T10:19:29Z</time>
      </trkpt>
      <trkpt lat="45.11174" lon="2.868">
        <ele>937.6</ele>
        <time>2021-07-23T10:19:43Z</time>
      </trkpt>
      <trkpt lat="45.1117" lon="2.86796">
        <ele>937</ele>
        <time>2021-07-23T10:19:57Z</time>
      </trkpt>
      <trkpt lat="45.11167" lon="2.86788">
        <ele>936.5</ele>
        <time>2021-07-23T10:20:03Z</time>
      </trkpt>
      <trkpt lat="45.11168" lon="2.86782">
        <ele>936.8</ele>
        <time>2021-07-23T10:20:09Z</time>
      </trkpt>
      <trkpt lat="45.11165" lon="2.86788">
        <ele>936</ele>
        <time>2021-07-23T10:20:17Z</time>
      </trkpt>
      <trkpt lat="45.11164" lon="2.86794">
        <ele>935.9</ele>
        <time>2021-07-23T10:21:31Z</time>
      </trkpt>
      <trkpt lat="45.11162" lon="2.86801">
        <ele>935.2</ele>
        <time>2021-07-23T10:21:39Z</time>
      </trkpt>
      <trkpt lat="45.1116" lon="2.86808">
        <ele>934.7</ele>
        <time>2021-07-23T10:21:47Z</time>
      </trkpt>
      <trkpt lat="45.11161" lon="2.86814">
        <ele>934.8</ele>
        <time>2021-07-23T10:22:07Z</time>
      </trkpt>
      <trkpt lat="45.11162" lon="2.86806">
        <ele>935.2</ele>
        <time>2021-07-23T10:22:35Z</time>
      </trkpt>
      <trkpt lat="45.11165" lon="2.86798">
        <ele>936.1</ele>
        <time>2021-07-23T10:22:41Z</time>
      </trkpt>
      <trkpt lat="45.11166" lon="2.86791">
        <ele>936.3</ele>
        <time>2021-07-23T10:22:45Z</time>
      </trkpt>
      <trkpt lat="45.11167" lon="2.86784">
        <ele>936.6</ele>
        <time>2021-07-23T10:22:49Z</time>
      </trkpt>
      <trkpt lat="45.11166" lon="2.86777">
        <ele>936.5</ele>
        <time>2021-07-23T10:22:59Z</time>
      </trkpt>
      <trkpt lat="45.11163" lon="2.86768">
        <ele>935.8</ele>
        <time>2021-07-23T10:23:05Z</time>
      </trkpt>
      <trkpt lat="45.11161" lon="2.86759">
        <ele>935.4</ele>
        <time>2021-07-23T10:23:09Z</time>
      </trkpt>
      <trkpt lat="45.11164" lon="2.86753">
        <ele>936.3</ele>
        <time>2021-07-23T10:23:37Z</time>
      </trkpt>
      <trkpt lat="45.11168" lon="2.86751">
        <ele>937.2</ele>
        <time>2021-07-23T10:23:43Z</time>
      </trkpt>
      <trkpt lat="45.11173" lon="2.86748">
        <ele>938.3</ele>
        <time>2021-07-23T10:23:49Z</time>
      </trkpt>
      <trkpt lat="45.11178" lon="2.86749">
        <ele>939</ele>
        <time>2021-07-23T10:23:53Z</time>
      </trkpt>
      <trkpt lat="45.11184" lon="2.86753">
        <ele>939.7</ele>
        <time>2021-07-23T10:23:59Z</time>
      </trkpt>
      <trkpt lat="45.11189" lon="2.86757">
        <ele>940.4</ele>
        <time>2021-07-23T10:24:13Z</time>
      </trkpt>
      <trkpt lat="45.11191" lon="2.86763">
        <ele>940.8</ele>
        <time>2021-07-23T10:24:21Z</time>
      </trkpt>
      <trkpt lat="45.11185" lon="2.86754">
        <ele>939.9</ele>
        <time>2021-07-23T10:24:49Z</time>
      </trkpt>
      <trkpt lat="45.11177" lon="2.86752">
        <ele>938.6</ele>
        <time>2021-07-23T10:24:51Z</time>
      </trkpt>
      <trkpt lat="45.11168" lon="2.86749">
        <ele>937.5</ele>
        <time>2021-07-23T10:24:53Z</time>
      </trkpt>
      <trkpt lat="45.11161" lon="2.86753">
        <ele>935.5</ele>
        <time>2021-07-23T10:24:55Z</time>
      </trkpt>
      <trkpt lat="45.11156" lon="2.86753">
        <ele>934.3</ele>
        <time>2021-07-23T10:24:57Z</time>
      </trkpt>
      <trkpt lat="45.11151" lon="2.86748">
        <ele>933.4</ele>
        <time>2021-07-23T10:25:01Z</time>
      </trkpt>
      <trkpt lat="45.11148" lon="2.86741">
        <ele>934.1</ele>
        <time>2021-07-23T10:25:03Z</time>
      </trkpt>
      <trkpt lat="45.11144" lon="2.86731">
        <ele>934.6</ele>
        <time>2021-07-23T10:25:07Z</time>
      </trkpt>
      <trkpt lat="45.1114" lon="2.86724">
        <ele>935.1</ele>
        <time>2021-07-23T10:25:09Z</time>
      </trkpt>
      <trkpt lat="45.11138" lon="2.86718">
        <ele>935.5</ele>
        <time>2021-07-23T10:25:11Z</time>
      </trkpt>
      <trkpt lat="45.11135" lon="2.86711">
        <ele>936.1</ele>
        <time>2021-07-23T10:25:13Z</time>
      </trkpt>
      <trkpt lat="45.11132" lon="2.86704">
        <ele>936.5</ele>
        <time>2021-07-23T10:25:15Z</time>
      </trkpt>
      <trkpt lat="45.1113" lon="2.86698">
        <ele>936.8</ele>
        <time>2021-07-23T10:25:17Z</time>
      </trkpt>
      <trkpt lat="45.11126" lon="2.8669">
        <ele>937.1</ele>
        <time>2021-07-23T10:25:21Z</time>
      </trkpt>
      <trkpt lat="45.11121" lon="2.86678">
        <ele>938</ele>
        <time>2021-07-23T10:25:25Z</time>
      </trkpt>
      <trkpt lat="45.11118" lon="2.8667">
        <ele>938.3</ele>
        <time>2021-07-23T10:25:29Z</time>
      </trkpt>
      <trkpt lat="45.11114" lon="2.86666">
        <ele>938.1</ele>
        <time>2021-07-23T10:25:37Z</time>
      </trkpt>
      <trkpt lat="45.11117" lon="2.86673">
        <ele>937.6</ele>
        <time>2021-07-23T10:36:49Z</time>
      </trkpt>
      <trkpt lat="45.11121" lon="2.86676">
        <ele>938.4</ele>
        <time>2021-07-23T10:37:39Z</time>
      </trkpt>
      <trkpt lat="45.11124" lon="2.86681">
        <ele>938.2</ele>
        <time>2021-07-23T10:37:41Z</time>
      </trkpt>
      <trkpt lat="45.11127" lon="2.8669">
        <ele>937.5</ele>
        <time>2021-07-23T10:37:43Z</time>
      </trkpt>
      <trkpt lat="45.11132" lon="2.86701">
        <ele>937</ele>
        <time>2021-07-23T10:37:45Z</time>
      </trkpt>
      <trkpt lat="45.11137" lon="2.86713">
        <ele>936.3</ele>
        <time>2021-07-23T10:37:47Z</time>
      </trkpt>
      <trkpt lat="45.11142" lon="2.86726">
        <ele>935.3</ele>
        <time>2021-07-23T10:37:49Z</time>
      </trkpt>
      <trkpt lat="45.11146" lon="2.86736">
        <ele>934.3</ele>
        <time>2021-07-23T10:37:51Z</time>
      </trkpt>
      <trkpt lat="45.11151" lon="2.86747">
        <ele>933.5</ele>
        <time>2021-07-23T10:37:53Z</time>
      </trkpt>
      <trkpt lat="45.11152" lon="2.86756">
        <ele>933.4</ele>
        <time>2021-07-23T10:37:55Z</time>
      </trkpt>
      <trkpt lat="45.11146" lon="2.86765">
        <ele>931.8</ele>
        <time>2021-07-23T10:37:57Z</time>
      </trkpt>
      <trkpt lat="45.11137" lon="2.86775">
        <ele>929.6</ele>
        <time>2021-07-23T10:37:59Z</time>
      </trkpt>
      <trkpt lat="45.1113" lon="2.86793">
        <ele>927.7</ele>
        <time>2021-07-23T10:38:01Z</time>
      </trkpt>
      <trkpt lat="45.11123" lon="2.86806">
        <ele>926.1</ele>
        <time>2021-07-23T10:38:03Z</time>
      </trkpt>
      <trkpt lat="45.11115" lon="2.8682">
        <ele>924.2</ele>
        <time>2021-07-23T10:38:05Z</time>
      </trkpt>
      <trkpt lat="45.11111" lon="2.86832">
        <ele>923.4</ele>
        <time>2021-07-23T10:38:07Z</time>
      </trkpt>
      <trkpt lat="45.11105" lon="2.86844">
        <ele>922.3</ele>
        <time>2021-07-23T10:38:09Z</time>
      </trkpt>
      <trkpt lat="45.11102" lon="2.86855">
        <ele>921.9</ele>
        <time>2021-07-23T10:38:11Z</time>
      </trkpt>
      <trkpt lat="45.11101" lon="2.86865">
        <ele>922.1</ele>
        <time>2021-07-23T10:38:13Z</time>
      </trkpt>
      <trkpt lat="45.11098" lon="2.86877">
        <ele>921.9</ele>
        <time>2021-07-23T10:38:15Z</time>
      </trkpt>
      <trkpt lat="45.11096" lon="2.86893">
        <ele>921.9</ele>
        <time>2021-07-23T10:38:17Z</time>
      </trkpt>
      <trkpt lat="45.11094" lon="2.86907">
        <ele>922</ele>
        <time>2021-07-23T10:38:19Z</time>
      </trkpt>
      <trkpt lat="45.11091" lon="2.86917">
        <ele>921.7</ele>
        <time>2021-07-23T10:38:21Z</time>
      </trkpt>
      <trkpt lat="45.11087" lon="2.86919">
        <ele>920.8</ele>
        <time>2021-07-23T10:38:25Z</time>
      </trkpt>
      <trkpt lat="45.11079" lon="2.86923">
        <ele>919.5</ele>
        <time>2021-07-23T10:38:29Z</time>
      </trkpt>
      <trkpt lat="45.11073" lon="2.86925">
        <ele>918.5</ele>
        <time>2021-07-23T10:38:31Z</time>
      </trkpt>
      <trkpt lat="45.11067" lon="2.86928">
        <ele>917.7</ele>
        <time>2021-07-23T10:38:33Z</time>
      </trkpt>
      <trkpt lat="45.11061" lon="2.86927">
        <ele>916.9</ele>
        <time>2021-07-23T10:38:35Z</time>
      </trkpt>
      <trkpt lat="45.11059" lon="2.8692">
        <ele>916.5</ele>
        <time>2021-07-23T10:38:37Z</time>
      </trkpt>
      <trkpt lat="45.11054" lon="2.8692">
        <ele>915.8</ele>
        <time>2021-07-23T10:39:05Z</time>
      </trkpt>
      <trkpt lat="45.11052" lon="2.86913">
        <ele>915.4</ele>
        <time>2021-07-23T10:43:57Z</time>
      </trkpt>
      <trkpt lat="45.11045" lon="2.86913">
        <ele>914.4</ele>
        <time>2021-07-23T10:46:01Z</time>
      </trkpt>
      <trkpt lat="45.11039" lon="2.86912">
        <ele>913.5</ele>
        <time>2021-07-23T10:46:03Z</time>
      </trkpt>
      <trkpt lat="45.11029" lon="2.86912">
        <ele>912.1</ele>
        <time>2021-07-23T10:46:05Z</time>
      </trkpt>
      <trkpt lat="45.11017" lon="2.86914">
        <ele>910.4</ele>
        <time>2021-07-23T10:46:07Z</time>
      </trkpt>
      <trkpt lat="45.11003" lon="2.86915">
        <ele>908.4</ele>
        <time>2021-07-23T10:46:09Z</time>
      </trkpt>
      <trkpt lat="45.10988" lon="2.86919">
        <ele>907.2</ele>
        <time>2021-07-23T10:46:11Z</time>
      </trkpt>
      <trkpt lat="45.10975" lon="2.86923">
        <ele>906.2</ele>
        <time>2021-07-23T10:46:13Z</time>
      </trkpt>
      <trkpt lat="45.10966" lon="2.86925">
        <ele>905.6</ele>
        <time>2021-07-23T10:46:15Z</time>
      </trkpt>
      <trkpt lat="45.10959" lon="2.86927">
        <ele>905.1</ele>
        <time>2021-07-23T10:46:17Z</time>
      </trkpt>
      <trkpt lat="45.10953" lon="2.86929">
        <ele>904.7</ele>
        <time>2021-07-23T10:46:27Z</time>
      </trkpt>
      <trkpt lat="45.10952" lon="2.86936">
        <ele>904.7</ele>
        <time>2021-07-23T10:46:29Z</time>
      </trkpt>
      <trkpt lat="45.10953" lon="2.86945">
        <ele>904.8</ele>
        <time>2021-07-23T10:46:31Z</time>
      </trkpt>
      <trkpt lat="45.10953" lon="2.86956">
        <ele>904.9</ele>
        <time>2021-07-23T10:46:33Z</time>
      </trkpt>
      <trkpt lat="45.10952" lon="2.86967">
        <ele>904.9</ele>
        <time>2021-07-23T10:46:35Z</time>
      </trkpt>
      <trkpt lat="45.1095" lon="2.86979">
        <ele>904.8</ele>
        <time>2021-07-23T10:46:37Z</time>
      </trkpt>
      <trkpt lat="45.10946" lon="2.86991">
        <ele>904.7</ele>
        <time>2021-07-23T10:46:39Z</time>
      </trkpt>
      <trkpt lat="45.10942" lon="2.87004">
        <ele>904.6</ele>
        <time>2021-07-23T10:46:41Z</time>
      </trkpt>
      <trkpt lat="45.10938" lon="2.87018">
        <ele>904.6</ele>
        <time>2021-07-23T10:46:43Z</time>
      </trkpt>
      <trkpt lat="45.10934" lon="2.87032">
        <ele>904.5</ele>
        <time>2021-07-23T10:46:45Z</time>
      </trkpt>
      <trkpt lat="45.1093" lon="2.87043">
        <ele>904.4</ele>
        <time>2021-07-23T10:46:47Z</time>
      </trkpt>
      <trkpt lat="45.10927" lon="2.87055">
        <ele>904.4</ele>
        <time>2021-07-23T10:46:49Z</time>
      </trkpt>
      <trkpt lat="45.10926" lon="2.87066">
        <ele>904.5</ele>
        <time>2021-07-23T10:46:51Z</time>
      </trkpt>
      <trkpt lat="45.10927" lon="2.87078">
        <ele>904.7</ele>
        <time>2021-07-23T10:46:53Z</time>
      </trkpt>
      <trkpt lat="45.10929" lon="2.87089">
        <ele>905.1</ele>
        <time>2021-07-23T10:46:55Z</time>
      </trkpt>
      <trkpt lat="45.1093" lon="2.87099">
        <ele>905.5</ele>
        <time>2021-07-23T10:46:57Z</time>
      </trkpt>
      <trkpt lat="45.10931" lon="2.87109">
        <ele>906</ele>
        <time>2021-07-23T10:46:59Z</time>
      </trkpt>
      <trkpt lat="45.10932" lon="2.87118">
        <ele>906.4</ele>
        <time>2021-07-23T10:47:01Z</time>
      </trkpt>
      <trkpt lat="45.10933" lon="2.87128">
        <ele>906.8</ele>
        <time>2021-07-23T10:47:03Z</time>
      </trkpt>
      <trkpt lat="45.10934" lon="2.87136">
        <ele>907.1</ele>
        <time>2021-07-23T10:47:05Z</time>
      </trkpt>
      <trkpt lat="45.10935" lon="2.87144">
        <ele>907.5</ele>
        <time>2021-07-23T10:47:07Z</time>
      </trkpt>
      <trkpt lat="45.10935" lon="2.87153">
        <ele>907.9</ele>
        <time>2021-07-23T10:47:09Z</time>
      </trkpt>
      <trkpt lat="45.10936" lon="2.87162">
        <ele>908.2</ele>
        <time>2021-07-23T10:47:11Z</time>
      </trkpt>
      <trkpt lat="45.10937" lon="2.8717">
        <ele>908.4</ele>
        <time>2021-07-23T10:47:13Z</time>
      </trkpt>
      <trkpt lat="45.10936" lon="2.87179">
        <ele>908.2</ele>
        <time>2021-07-23T10:47:15Z</time>
      </trkpt>
      <trkpt lat="45.10934" lon="2.87187">
        <ele>907.9</ele>
        <time>2021-07-23T10:47:17Z</time>
      </trkpt>
      <trkpt lat="45.10931" lon="2.87195">
        <ele>907.5</ele>
        <time>2021-07-23T10:47:19Z</time>
      </trkpt>
      <trkpt lat="45.10926" lon="2.87202">
        <ele>906.9</ele>
        <time>2021-07-23T10:47:21Z</time>
      </trkpt>
      <trkpt lat="45.10919" lon="2.87207">
        <ele>906.2</ele>
        <time>2021-07-23T10:47:23Z</time>
      </trkpt>
      <trkpt lat="45.10913" lon="2.87208">
        <ele>905.8</ele>
        <time>2021-07-23T10:47:25Z</time>
      </trkpt>
      <trkpt lat="45.1091" lon="2.87198">
        <ele>905.8</ele>
        <time>2021-07-23T10:47:27Z</time>
      </trkpt>
      <trkpt lat="45.10908" lon="2.87187">
        <ele>905.9</ele>
        <time>2021-07-23T10:47:29Z</time>
      </trkpt>
      <trkpt lat="45.10906" lon="2.87175">
        <ele>906.1</ele>
        <time>2021-07-23T10:47:31Z</time>
      </trkpt>
      <trkpt lat="45.10905" lon="2.87163">
        <ele>906.2</ele>
        <time>2021-07-23T10:47:33Z</time>
      </trkpt>
      <trkpt lat="45.10902" lon="2.8715">
        <ele>905.7</ele>
        <time>2021-07-23T10:47:35Z</time>
      </trkpt>
      <trkpt lat="45.10899" lon="2.87137">
        <ele>905.3</ele>
        <time>2021-07-23T10:47:37Z</time>
      </trkpt>
      <trkpt lat="45.10896" lon="2.87123">
        <ele>905</ele>
        <time>2021-07-23T10:47:39Z</time>
      </trkpt>
      <trkpt lat="45.10893" lon="2.8711">
        <ele>904.7</ele>
        <time>2021-07-23T10:47:41Z</time>
      </trkpt>
      <trkpt lat="45.1089" lon="2.87096">
        <ele>904.5</ele>
        <time>2021-07-23T10:47:43Z</time>
      </trkpt>
      <trkpt lat="45.10887" lon="2.87081">
        <ele>904.3</ele>
        <time>2021-07-23T10:47:45Z</time>
      </trkpt>
      <trkpt lat="45.10884" lon="2.87066">
        <ele>904</ele>
        <time>2021-07-23T10:47:47Z</time>
      </trkpt>
      <trkpt lat="45.1088" lon="2.87053">
        <ele>903.8</ele>
        <time>2021-07-23T10:47:49Z</time>
      </trkpt>
      <trkpt lat="45.10877" lon="2.87039">
        <ele>903.4</ele>
        <time>2021-07-23T10:47:51Z</time>
      </trkpt>
      <trkpt lat="45.10874" lon="2.87024">
        <ele>903.1</ele>
        <time>2021-07-23T10:47:53Z</time>
      </trkpt>
      <trkpt lat="45.10871" lon="2.8701">
        <ele>902.7</ele>
        <time>2021-07-23T10:47:55Z</time>
      </trkpt>
      <trkpt lat="45.10868" lon="2.86996">
        <ele>902.5</ele>
        <time>2021-07-23T10:47:57Z</time>
      </trkpt>
      <trkpt lat="45.10865" lon="2.86982">
        <ele>902.6</ele>
        <time>2021-07-23T10:47:59Z</time>
      </trkpt>
      <trkpt lat="45.10861" lon="2.86969">
        <ele>902.7</ele>
        <time>2021-07-23T10:48:01Z</time>
      </trkpt>
      <trkpt lat="45.10853" lon="2.86958">
        <ele>902.9</ele>
        <time>2021-07-23T10:48:03Z</time>
      </trkpt>
      <trkpt lat="45.10844" lon="2.8695">
        <ele>903.1</ele>
        <time>2021-07-23T10:48:05Z</time>
      </trkpt>
      <trkpt lat="45.10835" lon="2.86943">
        <ele>903.4</ele>
        <time>2021-07-23T10:48:07Z</time>
      </trkpt>
      <trkpt lat="45.10825" lon="2.86936">
        <ele>903.7</ele>
        <time>2021-07-23T10:48:09Z</time>
      </trkpt>
      <trkpt lat="45.10816" lon="2.86925">
        <ele>904.2</ele>
        <time>2021-07-23T10:48:11Z</time>
      </trkpt>
      <trkpt lat="45.10809" lon="2.86913">
        <ele>904.5</ele>
        <time>2021-07-23T10:48:13Z</time>
      </trkpt>
      <trkpt lat="45.10804" lon="2.86898">
        <ele>904.3</ele>
        <time>2021-07-23T10:48:15Z</time>
      </trkpt>
      <trkpt lat="45.10801" lon="2.86881">
        <ele>904.1</ele>
        <time>2021-07-23T10:48:17Z</time>
      </trkpt>
      <trkpt lat="45.108" lon="2.86864">
        <ele>903.9</ele>
        <time>2021-07-23T10:48:19Z</time>
      </trkpt>
      <trkpt lat="45.10798" lon="2.86846">
        <ele>903.7</ele>
        <time>2021-07-23T10:48:21Z</time>
      </trkpt>
      <trkpt lat="45.10797" lon="2.86826">
        <ele>903.1</ele>
        <time>2021-07-23T10:48:23Z</time>
      </trkpt>
      <trkpt lat="45.10795" lon="2.86806">
        <ele>901.5</ele>
        <time>2021-07-23T10:48:25Z</time>
      </trkpt>
      <trkpt lat="45.10791" lon="2.86788">
        <ele>900.2</ele>
        <time>2021-07-23T10:48:27Z</time>
      </trkpt>
      <trkpt lat="45.10783" lon="2.86773">
        <ele>899.3</ele>
        <time>2021-07-23T10:48:29Z</time>
      </trkpt>
      <trkpt lat="45.10775" lon="2.86764">
        <ele>898.7</ele>
        <time>2021-07-23T10:48:31Z</time>
      </trkpt>
      <trkpt lat="45.10769" lon="2.86758">
        <ele>898.3</ele>
        <time>2021-07-23T10:48:33Z</time>
      </trkpt>
      <trkpt lat="45.10764" lon="2.86754">
        <ele>898.1</ele>
        <time>2021-07-23T10:48:35Z</time>
      </trkpt>
      <trkpt lat="45.10759" lon="2.86759">
        <ele>898.7</ele>
        <time>2021-07-23T10:48:39Z</time>
      </trkpt>
      <trkpt lat="45.10763" lon="2.86764">
        <ele>899.1</ele>
        <time>2021-07-23T10:48:43Z</time>
      </trkpt>
      <trkpt lat="45.10767" lon="2.86768">
        <ele>899.3</ele>
        <time>2021-07-23T10:48:47Z</time>
      </trkpt>
      <trkpt lat="45.10772" lon="2.86771">
        <ele>899.4</ele>
        <time>2021-07-23T10:48:49Z</time>
      </trkpt>
      <trkpt lat="45.10776" lon="2.86776">
        <ele>899.8</ele>
        <time>2021-07-23T10:48:51Z</time>
      </trkpt>
      <trkpt lat="45.1078" lon="2.86781">
        <ele>900.1</ele>
        <time>2021-07-23T10:48:53Z</time>
      </trkpt>
      <trkpt lat="45.10784" lon="2.86785">
        <ele>900.3</ele>
        <time>2021-07-23T10:48:55Z</time>
      </trkpt>
      <trkpt lat="45.10786" lon="2.86791">
        <ele>900.7</ele>
        <time>2021-07-23T10:48:59Z</time>
      </trkpt>
      <trkpt lat="45.10783" lon="2.86784">
        <ele>900.2</ele>
        <time>2021-07-23T10:49:19Z</time>
      </trkpt>
      <trkpt lat="45.10781" lon="2.86777">
        <ele>899.7</ele>
        <time>2021-07-23T10:49:21Z</time>
      </trkpt>
      <trkpt lat="45.10777" lon="2.86768">
        <ele>899.1</ele>
        <time>2021-07-23T10:49:23Z</time>
      </trkpt>
      <trkpt lat="45.10773" lon="2.86762">
        <ele>898.6</ele>
        <time>2021-07-23T10:49:25Z</time>
      </trkpt>
      <trkpt lat="45.1077" lon="2.86756">
        <ele>898.1</ele>
        <time>2021-07-23T10:49:27Z</time>
      </trkpt>
      <trkpt lat="45.10764" lon="2.86753">
        <ele>897.9</ele>
        <time>2021-07-23T10:49:29Z</time>
      </trkpt>
      <trkpt lat="45.10758" lon="2.8675">
        <ele>897.8</ele>
        <time>2021-07-23T10:49:31Z</time>
      </trkpt>
      <trkpt lat="45.10751" lon="2.86747">
        <ele>897.8</ele>
        <time>2021-07-23T10:49:33Z</time>
      </trkpt>
      <trkpt lat="45.10744" lon="2.86746">
        <ele>897.3</ele>
        <time>2021-07-23T10:49:35Z</time>
      </trkpt>
      <trkpt lat="45.10736" lon="2.86744">
        <ele>896.8</ele>
        <time>2021-07-23T10:49:37Z</time>
      </trkpt>
      <trkpt lat="45.10728" lon="2.86742">
        <ele>896.2</ele>
        <time>2021-07-23T10:49:39Z</time>
      </trkpt>
      <trkpt lat="45.1072" lon="2.86741">
        <ele>895.6</ele>
        <time>2021-07-23T10:49:41Z</time>
      </trkpt>
      <trkpt lat="45.10709" lon="2.86738">
        <ele>894.9</ele>
        <time>2021-07-23T10:49:43Z</time>
      </trkpt>
      <trkpt lat="45.10697" lon="2.86737">
        <ele>894.2</ele>
        <time>2021-07-23T10:49:45Z</time>
      </trkpt>
      <trkpt lat="45.10685" lon="2.86735">
        <ele>893.4</ele>
        <time>2021-07-23T10:49:47Z</time>
      </trkpt>
      <trkpt lat="45.10673" lon="2.86733">
        <ele>892.7</ele>
        <time>2021-07-23T10:49:49Z</time>
      </trkpt>
      <trkpt lat="45.10664" lon="2.86726">
        <ele>892</ele>
        <time>2021-07-23T10:49:51Z</time>
      </trkpt>
      <trkpt lat="45.10655" lon="2.86715">
        <ele>891.4</ele>
        <time>2021-07-23T10:49:53Z</time>
      </trkpt>
      <trkpt lat="45.10648" lon="2.86702">
        <ele>890.9</ele>
        <time>2021-07-23T10:49:55Z</time>
      </trkpt>
      <trkpt lat="45.10642" lon="2.86692">
        <ele>890.7</ele>
        <time>2021-07-23T10:49:57Z</time>
      </trkpt>
      <trkpt lat="45.10635" lon="2.8669">
        <ele>890.6</ele>
        <time>2021-07-23T10:49:59Z</time>
      </trkpt>
      <trkpt lat="45.10629" lon="2.86693">
        <ele>890.5</ele>
        <time>2021-07-23T10:50:01Z</time>
      </trkpt>
      <trkpt lat="45.10622" lon="2.86701">
        <ele>890.5</ele>
        <time>2021-07-23T10:50:03Z</time>
      </trkpt>
      <trkpt lat="45.10617" lon="2.86712">
        <ele>890.3</ele>
        <time>2021-07-23T10:50:05Z</time>
      </trkpt>
      <trkpt lat="45.10611" lon="2.86728">
        <ele>889.9</ele>
        <time>2021-07-23T10:50:07Z</time>
      </trkpt>
      <trkpt lat="45.10604" lon="2.86742">
        <ele>889.4</ele>
        <time>2021-07-23T10:50:09Z</time>
      </trkpt>
      <trkpt lat="45.10593" lon="2.86753">
        <ele>888.7</ele>
        <time>2021-07-23T10:50:11Z</time>
      </trkpt>
      <trkpt lat="45.10581" lon="2.86755">
        <ele>888</ele>
        <time>2021-07-23T10:50:13Z</time>
      </trkpt>
      <trkpt lat="45.10568" lon="2.86753">
        <ele>887.5</ele>
        <time>2021-07-23T10:50:15Z</time>
      </trkpt>
      <trkpt lat="45.10556" lon="2.8675">
        <ele>887</ele>
        <time>2021-07-23T10:50:17Z</time>
      </trkpt>
      <trkpt lat="45.10544" lon="2.86747">
        <ele>886.7</ele>
        <time>2021-07-23T10:50:19Z</time>
      </trkpt>
      <trkpt lat="45.10533" lon="2.86743">
        <ele>886.5</ele>
        <time>2021-07-23T10:50:21Z</time>
      </trkpt>
      <trkpt lat="45.10521" lon="2.86742">
        <ele>886.1</ele>
        <time>2021-07-23T10:50:23Z</time>
      </trkpt>
      <trkpt lat="45.1051" lon="2.86739">
        <ele>885.8</ele>
        <time>2021-07-23T10:50:25Z</time>
      </trkpt>
      <trkpt lat="45.10499" lon="2.86736">
        <ele>885.6</ele>
        <time>2021-07-23T10:50:27Z</time>
      </trkpt>
      <trkpt lat="45.1049" lon="2.86732">
        <ele>885.4</ele>
        <time>2021-07-23T10:50:29Z</time>
      </trkpt>
      <trkpt lat="45.10481" lon="2.86726">
        <ele>885.3</ele>
        <time>2021-07-23T10:50:31Z</time>
      </trkpt>
      <trkpt lat="45.10474" lon="2.86717">
        <ele>885.3</ele>
        <time>2021-07-23T10:50:33Z</time>
      </trkpt>
      <trkpt lat="45.10467" lon="2.86706">
        <ele>885.3</ele>
        <time>2021-07-23T10:50:35Z</time>
      </trkpt>
      <trkpt lat="45.10461" lon="2.86696">
        <ele>885.3</ele>
        <time>2021-07-23T10:50:37Z</time>
      </trkpt>
      <trkpt lat="45.10455" lon="2.86686">
        <ele>885.2</ele>
        <time>2021-07-23T10:50:39Z</time>
      </trkpt>
      <trkpt lat="45.10449" lon="2.86678">
        <ele>885</ele>
        <time>2021-07-23T10:50:41Z</time>
      </trkpt>
      <trkpt lat="45.10442" lon="2.86669">
        <ele>884.8</ele>
        <time>2021-07-23T10:50:43Z</time>
      </trkpt>
      <trkpt lat="45.10435" lon="2.86662">
        <ele>884.5</ele>
        <time>2021-07-23T10:50:45Z</time>
      </trkpt>
      <trkpt lat="45.10427" lon="2.86655">
        <ele>884.3</ele>
        <time>2021-07-23T10:50:47Z</time>
      </trkpt>
      <trkpt lat="45.10419" lon="2.86647">
        <ele>884.1</ele>
        <time>2021-07-23T10:50:49Z</time>
      </trkpt>
      <trkpt lat="45.10414" lon="2.86639">
        <ele>884.3</ele>
        <time>2021-07-23T10:50:51Z</time>
      </trkpt>
      <trkpt lat="45.10406" lon="2.86634">
        <ele>884.4</ele>
        <time>2021-07-23T10:50:53Z</time>
      </trkpt>
      <trkpt lat="45.10396" lon="2.86628">
        <ele>884.4</ele>
        <time>2021-07-23T10:50:55Z</time>
      </trkpt>
      <trkpt lat="45.10385" lon="2.86626">
        <ele>884.2</ele>
        <time>2021-07-23T10:50:57Z</time>
      </trkpt>
      <trkpt lat="45.10374" lon="2.86628">
        <ele>883.9</ele>
        <time>2021-07-23T10:50:59Z</time>
      </trkpt>
      <trkpt lat="45.10362" lon="2.86628">
        <ele>883.7</ele>
        <time>2021-07-23T10:51:01Z</time>
      </trkpt>
      <trkpt lat="45.10351" lon="2.86628">
        <ele>883.4</ele>
        <time>2021-07-23T10:51:03Z</time>
      </trkpt>
      <trkpt lat="45.1034" lon="2.86628">
        <ele>883.1</ele>
        <time>2021-07-23T10:51:05Z</time>
      </trkpt>
      <trkpt lat="45.10329" lon="2.8663">
        <ele>883.2</ele>
        <time>2021-07-23T10:51:07Z</time>
      </trkpt>
      <trkpt lat="45.10318" lon="2.86631">
        <ele>883.9</ele>
        <time>2021-07-23T10:51:09Z</time>
      </trkpt>
      <trkpt lat="45.10308" lon="2.8663">
        <ele>884.4</ele>
        <time>2021-07-23T10:51:11Z</time>
      </trkpt>
      <trkpt lat="45.10299" lon="2.86623">
        <ele>884.8</ele>
        <time>2021-07-23T10:51:13Z</time>
      </trkpt>
      <trkpt lat="45.10295" lon="2.8661">
        <ele>884.8</ele>
        <time>2021-07-23T10:51:15Z</time>
      </trkpt>
      <trkpt lat="45.10294" lon="2.86595">
        <ele>884.6</ele>
        <time>2021-07-23T10:51:17Z</time>
      </trkpt>
      <trkpt lat="45.10293" lon="2.8658">
        <ele>884.5</ele>
        <time>2021-07-23T10:51:19Z</time>
      </trkpt>
      <trkpt lat="45.10293" lon="2.86566">
        <ele>884.7</ele>
        <time>2021-07-23T10:51:21Z</time>
      </trkpt>
      <trkpt lat="45.10292" lon="2.86552">
        <ele>884.9</ele>
        <time>2021-07-23T10:51:23Z</time>
      </trkpt>
      <trkpt lat="45.10292" lon="2.86538">
        <ele>885</ele>
        <time>2021-07-23T10:51:25Z</time>
      </trkpt>
      <trkpt lat="45.10291" lon="2.86525">
        <ele>885.2</ele>
        <time>2021-07-23T10:51:27Z</time>
      </trkpt>
      <trkpt lat="45.10291" lon="2.86513">
        <ele>885.4</ele>
        <time>2021-07-23T10:51:29Z</time>
      </trkpt>
      <trkpt lat="45.10291" lon="2.86501">
        <ele>885.5</ele>
        <time>2021-07-23T10:51:31Z</time>
      </trkpt>
      <trkpt lat="45.10291" lon="2.8649">
        <ele>885.9</ele>
        <time>2021-07-23T10:51:33Z</time>
      </trkpt>
      <trkpt lat="45.10289" lon="2.8648">
        <ele>886.4</ele>
        <time>2021-07-23T10:51:35Z</time>
      </trkpt>
      <trkpt lat="45.10286" lon="2.86471">
        <ele>886.7</ele>
        <time>2021-07-23T10:51:37Z</time>
      </trkpt>
      <trkpt lat="45.10283" lon="2.86462">
        <ele>887</ele>
        <time>2021-07-23T10:51:39Z</time>
      </trkpt>
      <trkpt lat="45.10279" lon="2.86454">
        <ele>887.2</ele>
        <time>2021-07-23T10:51:41Z</time>
      </trkpt>
      <trkpt lat="45.10276" lon="2.86446">
        <ele>887.4</ele>
        <time>2021-07-23T10:51:43Z</time>
      </trkpt>
      <trkpt lat="45.10274" lon="2.8644">
        <ele>887.5</ele>
        <time>2021-07-23T10:51:45Z</time>
      </trkpt>
      <trkpt lat="45.10271" lon="2.86433">
        <ele>887.6</ele>
        <time>2021-07-23T10:51:47Z</time>
      </trkpt>
      <trkpt lat="45.10269" lon="2.86425">
        <ele>887.7</ele>
        <time>2021-07-23T10:51:49Z</time>
      </trkpt>
      <trkpt lat="45.10266" lon="2.86418">
        <ele>887.7</ele>
        <time>2021-07-23T10:51:51Z</time>
      </trkpt>
      <trkpt lat="45.10265" lon="2.86412">
        <ele>887.8</ele>
        <time>2021-07-23T10:51:53Z</time>
      </trkpt>
      <trkpt lat="45.10263" lon="2.86405">
        <ele>887.8</ele>
        <time>2021-07-23T10:51:55Z</time>
      </trkpt>
      <trkpt lat="45.10262" lon="2.86399">
        <ele>887.8</ele>
        <time>2021-07-23T10:51:57Z</time>
      </trkpt>
      <trkpt lat="45.10261" lon="2.86392">
        <ele>887.8</ele>
        <time>2021-07-23T10:51:59Z</time>
      </trkpt>
      <trkpt lat="45.10258" lon="2.8638">
        <ele>887.9</ele>
        <time>2021-07-23T10:52:03Z</time>
      </trkpt>
      <trkpt lat="45.10256" lon="2.86368">
        <ele>887.9</ele>
        <time>2021-07-23T10:52:07Z</time>
      </trkpt>
      <trkpt lat="45.10255" lon="2.86361">
        <ele>888</ele>
        <time>2021-07-23T10:52:09Z</time>
      </trkpt>
      <trkpt lat="45.10255" lon="2.86354">
        <ele>888</ele>
        <time>2021-07-23T10:52:11Z</time>
      </trkpt>
      <trkpt lat="45.10255" lon="2.86347">
        <ele>888.1</ele>
        <time>2021-07-23T10:52:13Z</time>
      </trkpt>
      <trkpt lat="45.10254" lon="2.86339">
        <ele>888.2</ele>
        <time>2021-07-23T10:52:15Z</time>
      </trkpt>
      <trkpt lat="45.10255" lon="2.8633">
        <ele>888.2</ele>
        <time>2021-07-23T10:52:17Z</time>
      </trkpt>
      <trkpt lat="45.10256" lon="2.86321">
        <ele>888.1</ele>
        <time>2021-07-23T10:52:19Z</time>
      </trkpt>
      <trkpt lat="45.10259" lon="2.86311">
        <ele>888.1</ele>
        <time>2021-07-23T10:52:21Z</time>
      </trkpt>
      <trkpt lat="45.10264" lon="2.86302">
        <ele>888.1</ele>
        <time>2021-07-23T10:52:23Z</time>
      </trkpt>
      <trkpt lat="45.1027" lon="2.86292">
        <ele>888.1</ele>
        <time>2021-07-23T10:52:25Z</time>
      </trkpt>
      <trkpt lat="45.10276" lon="2.86282">
        <ele>888</ele>
        <time>2021-07-23T10:52:27Z</time>
      </trkpt>
      <trkpt lat="45.1028" lon="2.86269">
        <ele>887.6</ele>
        <time>2021-07-23T10:52:29Z</time>
      </trkpt>
      <trkpt lat="45.10283" lon="2.86256">
        <ele>887.2</ele>
        <time>2021-07-23T10:52:31Z</time>
      </trkpt>
      <trkpt lat="45.10284" lon="2.86241">
        <ele>886.8</ele>
        <time>2021-07-23T10:52:33Z</time>
      </trkpt>
      <trkpt lat="45.10284" lon="2.86225">
        <ele>886.4</ele>
        <time>2021-07-23T10:52:35Z</time>
      </trkpt>
      <trkpt lat="45.10286" lon="2.86211">
        <ele>886.1</ele>
        <time>2021-07-23T10:52:37Z</time>
      </trkpt>
      <trkpt lat="45.10287" lon="2.86197">
        <ele>885.7</ele>
        <time>2021-07-23T10:52:39Z</time>
      </trkpt>
      <trkpt lat="45.10288" lon="2.86184">
        <ele>885.4</ele>
        <time>2021-07-23T10:52:41Z</time>
      </trkpt>
      <trkpt lat="45.10289" lon="2.86171">
        <ele>885.1</ele>
        <time>2021-07-23T10:52:43Z</time>
      </trkpt>
      <trkpt lat="45.1029" lon="2.86158">
        <ele>885.2</ele>
        <time>2021-07-23T10:52:45Z</time>
      </trkpt>
      <trkpt lat="45.10292" lon="2.86146">
        <ele>885.4</ele>
        <time>2021-07-23T10:52:47Z</time>
      </trkpt>
      <trkpt lat="45.10293" lon="2.86133">
        <ele>885.6</ele>
        <time>2021-07-23T10:52:49Z</time>
      </trkpt>
      <trkpt lat="45.10294" lon="2.86122">
        <ele>885.8</ele>
        <time>2021-07-23T10:52:51Z</time>
      </trkpt>
      <trkpt lat="45.10296" lon="2.86111">
        <ele>886</ele>
        <time>2021-07-23T10:52:53Z</time>
      </trkpt>
      <trkpt lat="45.10297" lon="2.86099">
        <ele>886.2</ele>
        <time>2021-07-23T10:52:55Z</time>
      </trkpt>
      <trkpt lat="45.10298" lon="2.86089">
        <ele>886.3</ele>
        <time>2021-07-23T10:52:57Z</time>
      </trkpt>
      <trkpt lat="45.103" lon="2.86077">
        <ele>886.5</ele>
        <time>2021-07-23T10:52:59Z</time>
      </trkpt>
      <trkpt lat="45.10301" lon="2.86067">
        <ele>886.7</ele>
        <time>2021-07-23T10:53:01Z</time>
      </trkpt>
      <trkpt lat="45.10303" lon="2.86057">
        <ele>886.9</ele>
        <time>2021-07-23T10:53:03Z</time>
      </trkpt>
      <trkpt lat="45.10304" lon="2.86047">
        <ele>887.1</ele>
        <time>2021-07-23T10:53:05Z</time>
      </trkpt>
      <trkpt lat="45.10305" lon="2.86036">
        <ele>887.3</ele>
        <time>2021-07-23T10:53:07Z</time>
      </trkpt>
      <trkpt lat="45.10307" lon="2.86026">
        <ele>887.5</ele>
        <time>2021-07-23T10:53:09Z</time>
      </trkpt>
      <trkpt lat="45.10309" lon="2.86016">
        <ele>887.7</ele>
        <time>2021-07-23T10:53:11Z</time>
      </trkpt>
      <trkpt lat="45.1031" lon="2.86006">
        <ele>887.9</ele>
        <time>2021-07-23T10:53:13Z</time>
      </trkpt>
      <trkpt lat="45.10312" lon="2.85996">
        <ele>888.1</ele>
        <time>2021-07-23T10:53:15Z</time>
      </trkpt>
      <trkpt lat="45.10314" lon="2.85985">
        <ele>888.4</ele>
        <time>2021-07-23T10:53:17Z</time>
      </trkpt>
      <trkpt lat="45.10316" lon="2.85975">
        <ele>888.6</ele>
        <time>2021-07-23T10:53:19Z</time>
      </trkpt>
      <trkpt lat="45.10318" lon="2.85967">
        <ele>888.9</ele>
        <time>2021-07-23T10:53:21Z</time>
      </trkpt>
      <trkpt lat="45.10319" lon="2.85961">
        <ele>889.1</ele>
        <time>2021-07-23T10:53:23Z</time>
      </trkpt>
      <trkpt lat="45.10322" lon="2.85953">
        <ele>889.4</ele>
        <time>2021-07-23T10:53:27Z</time>
      </trkpt>
      <trkpt lat="45.10318" lon="2.85946">
        <ele>889.5</ele>
        <time>2021-07-23T10:53:33Z</time>
      </trkpt>
      <trkpt lat="45.10314" lon="2.85936">
        <ele>889.6</ele>
        <time>2021-07-23T10:53:37Z</time>
      </trkpt>
      <trkpt lat="45.10315" lon="2.85929">
        <ele>889.8</ele>
        <time>2021-07-23T10:53:39Z</time>
      </trkpt>
      <trkpt lat="45.10317" lon="2.85921">
        <ele>890.1</ele>
        <time>2021-07-23T10:53:41Z</time>
      </trkpt>
      <trkpt lat="45.10321" lon="2.85912">
        <ele>890.5</ele>
        <time>2021-07-23T10:53:43Z</time>
      </trkpt>
      <trkpt lat="45.10325" lon="2.85906">
        <ele>890.8</ele>
        <time>2021-07-23T10:53:45Z</time>
      </trkpt>
      <trkpt lat="45.10326" lon="2.859">
        <ele>891.1</ele>
        <time>2021-07-23T10:53:47Z</time>
      </trkpt>
      <trkpt lat="45.10327" lon="2.85894">
        <ele>891.3</ele>
        <time>2021-07-23T10:53:49Z</time>
      </trkpt>
      <trkpt lat="45.10329" lon="2.85887">
        <ele>891.5</ele>
        <time>2021-07-23T10:53:51Z</time>
      </trkpt>
      <trkpt lat="45.10331" lon="2.85875">
        <ele>891.9</ele>
        <time>2021-07-23T10:53:55Z</time>
      </trkpt>
      <trkpt lat="45.10331" lon="2.85868">
        <ele>892.1</ele>
        <time>2021-07-23T10:53:57Z</time>
      </trkpt>
      <trkpt lat="45.10331" lon="2.85857">
        <ele>892.3</ele>
        <time>2021-07-23T10:54:01Z</time>
      </trkpt>
      <trkpt lat="45.10332" lon="2.85845">
        <ele>892.6</ele>
        <time>2021-07-23T10:54:05Z</time>
      </trkpt>
      <trkpt lat="45.10331" lon="2.85832">
        <ele>892.9</ele>
        <time>2021-07-23T10:54:09Z</time>
      </trkpt>
      <trkpt lat="45.1033" lon="2.85825">
        <ele>892.9</ele>
        <time>2021-07-23T10:54:11Z</time>
      </trkpt>
      <trkpt lat="45.10329" lon="2.85818">
        <ele>893</ele>
        <time>2021-07-23T10:54:13Z</time>
      </trkpt>
      <trkpt lat="45.10329" lon="2.85808">
        <ele>893.1</ele>
        <time>2021-07-23T10:54:17Z</time>
      </trkpt>
      <trkpt lat="45.10332" lon="2.85801">
        <ele>893.3</ele>
        <time>2021-07-23T10:54:23Z</time>
      </trkpt>
      <trkpt lat="45.10335" lon="2.85794">
        <ele>894</ele>
        <time>2021-07-23T10:54:27Z</time>
      </trkpt>
      <trkpt lat="45.10337" lon="2.85784">
        <ele>894.6</ele>
        <time>2021-07-23T10:54:31Z</time>
      </trkpt>
      <trkpt lat="45.10339" lon="2.85774">
        <ele>895.3</ele>
        <time>2021-07-23T10:54:35Z</time>
      </trkpt>
      <trkpt lat="45.10338" lon="2.85765">
        <ele>895.1</ele>
        <time>2021-07-23T10:54:39Z</time>
      </trkpt>
      <trkpt lat="45.10332" lon="2.8576">
        <ele>893.8</ele>
        <time>2021-07-23T10:54:57Z</time>
      </trkpt>
      <trkpt lat="45.10336" lon="2.85755">
        <ele>894.6</ele>
        <time>2021-07-23T10:55:37Z</time>
      </trkpt>
      <trkpt lat="45.10334" lon="2.85745">
        <ele>894.2</ele>
        <time>2021-07-23T10:56:15Z</time>
      </trkpt>
      <trkpt lat="45.10325" lon="2.8574">
        <ele>893.7</ele>
        <time>2021-07-23T10:56:19Z</time>
      </trkpt>
      <trkpt lat="45.1032" lon="2.8574">
        <ele>893.4</ele>
        <time>2021-07-23T10:56:21Z</time>
      </trkpt>
      <trkpt lat="45.10314" lon="2.8574">
        <ele>893.2</ele>
        <time>2021-07-23T10:56:23Z</time>
      </trkpt>
      <trkpt lat="45.10309" lon="2.8574">
        <ele>892.9</ele>
        <time>2021-07-23T10:56:25Z</time>
      </trkpt>
      <trkpt lat="45.10303" lon="2.85738">
        <ele>892.6</ele>
        <time>2021-07-23T10:56:27Z</time>
      </trkpt>
      <trkpt lat="45.10297" lon="2.85735">
        <ele>892.3</ele>
        <time>2021-07-23T10:56:29Z</time>
      </trkpt>
      <trkpt lat="45.10291" lon="2.85729">
        <ele>892</ele>
        <time>2021-07-23T10:56:31Z</time>
      </trkpt>
      <trkpt lat="45.10286" lon="2.8572">
        <ele>891.7</ele>
        <time>2021-07-23T10:56:33Z</time>
      </trkpt>
      <trkpt lat="45.10281" lon="2.85707">
        <ele>891.3</ele>
        <time>2021-07-23T10:56:35Z</time>
      </trkpt>
      <trkpt lat="45.10274" lon="2.85693">
        <ele>890.9</ele>
        <time>2021-07-23T10:56:37Z</time>
      </trkpt>
      <trkpt lat="45.10268" lon="2.85678">
        <ele>890.4</ele>
        <time>2021-07-23T10:56:39Z</time>
      </trkpt>
      <trkpt lat="45.10263" lon="2.85664">
        <ele>889.9</ele>
        <time>2021-07-23T10:56:41Z</time>
      </trkpt>
      <trkpt lat="45.10256" lon="2.8565">
        <ele>889.3</ele>
        <time>2021-07-23T10:56:43Z</time>
      </trkpt>
      <trkpt lat="45.1025" lon="2.85638">
        <ele>888.7</ele>
        <time>2021-07-23T10:56:45Z</time>
      </trkpt>
      <trkpt lat="45.10243" lon="2.85627">
        <ele>888.5</ele>
        <time>2021-07-23T10:56:47Z</time>
      </trkpt>
      <trkpt lat="45.10236" lon="2.85618">
        <ele>888.4</ele>
        <time>2021-07-23T10:56:49Z</time>
      </trkpt>
      <trkpt lat="45.1023" lon="2.85609">
        <ele>888.3</ele>
        <time>2021-07-23T10:56:51Z</time>
      </trkpt>
      <trkpt lat="45.10223" lon="2.85601">
        <ele>888.2</ele>
        <time>2021-07-23T10:56:53Z</time>
      </trkpt>
      <trkpt lat="45.10217" lon="2.85595">
        <ele>888.1</ele>
        <time>2021-07-23T10:56:55Z</time>
      </trkpt>
      <trkpt lat="45.1021" lon="2.85588">
        <ele>888.1</ele>
        <time>2021-07-23T10:56:57Z</time>
      </trkpt>
      <trkpt lat="45.10204" lon="2.85581">
        <ele>888</ele>
        <time>2021-07-23T10:56:59Z</time>
      </trkpt>
      <trkpt lat="45.10197" lon="2.85574">
        <ele>888.1</ele>
        <time>2021-07-23T10:57:01Z</time>
      </trkpt>
      <trkpt lat="45.10191" lon="2.85567">
        <ele>888.1</ele>
        <time>2021-07-23T10:57:03Z</time>
      </trkpt>
      <trkpt lat="45.10184" lon="2.85559">
        <ele>888.2</ele>
        <time>2021-07-23T10:57:05Z</time>
      </trkpt>
      <trkpt lat="45.10177" lon="2.85552">
        <ele>888.3</ele>
        <time>2021-07-23T10:57:07Z</time>
      </trkpt>
      <trkpt lat="45.10171" lon="2.85545">
        <ele>888.4</ele>
        <time>2021-07-23T10:57:09Z</time>
      </trkpt>
      <trkpt lat="45.10165" lon="2.85538">
        <ele>888.6</ele>
        <time>2021-07-23T10:57:11Z</time>
      </trkpt>
      <trkpt lat="45.10158" lon="2.85531">
        <ele>888.9</ele>
        <time>2021-07-23T10:57:13Z</time>
      </trkpt>
      <trkpt lat="45.10151" lon="2.85524">
        <ele>889.1</ele>
        <time>2021-07-23T10:57:15Z</time>
      </trkpt>
      <trkpt lat="45.10145" lon="2.85517">
        <ele>889.4</ele>
        <time>2021-07-23T10:57:17Z</time>
      </trkpt>
      <trkpt lat="45.10139" lon="2.85509">
        <ele>889.6</ele>
        <time>2021-07-23T10:57:19Z</time>
      </trkpt>
      <trkpt lat="45.10132" lon="2.85502">
        <ele>889.8</ele>
        <time>2021-07-23T10:57:21Z</time>
      </trkpt>
      <trkpt lat="45.10126" lon="2.85496">
        <ele>890</ele>
        <time>2021-07-23T10:57:23Z</time>
      </trkpt>
      <trkpt lat="45.10119" lon="2.85489">
        <ele>890.1</ele>
        <time>2021-07-23T10:57:25Z</time>
      </trkpt>
      <trkpt lat="45.10113" lon="2.85483">
        <ele>890.2</ele>
        <time>2021-07-23T10:57:27Z</time>
      </trkpt>
      <trkpt lat="45.10108" lon="2.85476">
        <ele>890.3</ele>
        <time>2021-07-23T10:57:29Z</time>
      </trkpt>
      <trkpt lat="45.10102" lon="2.85472">
        <ele>890.4</ele>
        <time>2021-07-23T10:57:31Z</time>
      </trkpt>
      <trkpt lat="45.10098" lon="2.85468">
        <ele>890.4</ele>
        <time>2021-07-23T10:57:33Z</time>
      </trkpt>
      <trkpt lat="45.10094" lon="2.85463">
        <ele>890.4</ele>
        <time>2021-07-23T10:57:35Z</time>
      </trkpt>
      <trkpt lat="45.10091" lon="2.85459">
        <ele>890.4</ele>
        <time>2021-07-23T10:57:37Z</time>
      </trkpt>
      <trkpt lat="45.10083" lon="2.85451">
        <ele>890.4</ele>
        <time>2021-07-23T10:57:41Z</time>
      </trkpt>
      <trkpt lat="45.10077" lon="2.85445">
        <ele>890.6</ele>
        <time>2021-07-23T10:57:45Z</time>
      </trkpt>
      <trkpt lat="45.1007" lon="2.8544">
        <ele>890.9</ele>
        <time>2021-07-23T10:57:49Z</time>
      </trkpt>
      <trkpt lat="45.10064" lon="2.85436">
        <ele>891.1</ele>
        <time>2021-07-23T10:57:53Z</time>
      </trkpt>
      <trkpt lat="45.10056" lon="2.85432">
        <ele>891.4</ele>
        <time>2021-07-23T10:57:57Z</time>
      </trkpt>
      <trkpt lat="45.10049" lon="2.85428">
        <ele>891.7</ele>
        <time>2021-07-23T10:58:01Z</time>
      </trkpt>
      <trkpt lat="45.10043" lon="2.85428">
        <ele>892</ele>
        <time>2021-07-23T10:58:05Z</time>
      </trkpt>
      <trkpt lat="45.10038" lon="2.85427">
        <ele>892.2</ele>
        <time>2021-07-23T10:58:09Z</time>
      </trkpt>
      <trkpt lat="45.10034" lon="2.85423">
        <ele>892.4</ele>
        <time>2021-07-23T10:58:13Z</time>
      </trkpt>
      <trkpt lat="45.10026" lon="2.85424">
        <ele>892.8</ele>
        <time>2021-07-23T10:58:53Z</time>
      </trkpt>
      <trkpt lat="45.10022" lon="2.85426">
        <ele>893</ele>
        <time>2021-07-23T10:58:55Z</time>
      </trkpt>
      <trkpt lat="45.10016" lon="2.85426">
        <ele>893.2</ele>
        <time>2021-07-23T10:58:57Z</time>
      </trkpt>
      <trkpt lat="45.10011" lon="2.85427">
        <ele>893.5</ele>
        <time>2021-07-23T10:58:59Z</time>
      </trkpt>
      <trkpt lat="45.10006" lon="2.85427">
        <ele>893.7</ele>
        <time>2021-07-23T10:59:01Z</time>
      </trkpt>
      <trkpt lat="45.10002" lon="2.85428">
        <ele>893.9</ele>
        <time>2021-07-23T10:59:03Z</time>
      </trkpt>
      <trkpt lat="45.09997" lon="2.85429">
        <ele>894.4</ele>
        <time>2021-07-23T10:59:05Z</time>
      </trkpt>
      <trkpt lat="45.09992" lon="2.8543">
        <ele>894.9</ele>
        <time>2021-07-23T10:59:07Z</time>
      </trkpt>
      <trkpt lat="45.09987" lon="2.85431">
        <ele>895.4</ele>
        <time>2021-07-23T10:59:09Z</time>
      </trkpt>
      <trkpt lat="45.09982" lon="2.85431">
        <ele>895.9</ele>
        <time>2021-07-23T10:59:11Z</time>
      </trkpt>
      <trkpt lat="45.09977" lon="2.85431">
        <ele>896.5</ele>
        <time>2021-07-23T10:59:13Z</time>
      </trkpt>
      <trkpt lat="45.09971" lon="2.85433">
        <ele>897</ele>
        <time>2021-07-23T10:59:15Z</time>
      </trkpt>
      <trkpt lat="45.09965" lon="2.85434">
        <ele>897.7</ele>
        <time>2021-07-23T10:59:17Z</time>
      </trkpt>
      <trkpt lat="45.09959" lon="2.85434">
        <ele>898.4</ele>
        <time>2021-07-23T10:59:19Z</time>
      </trkpt>
      <trkpt lat="45.09951" lon="2.85433">
        <ele>899.1</ele>
        <time>2021-07-23T10:59:21Z</time>
      </trkpt>
      <trkpt lat="45.09944" lon="2.8543">
        <ele>899.9</ele>
        <time>2021-07-23T10:59:23Z</time>
      </trkpt>
      <trkpt lat="45.09938" lon="2.85426">
        <ele>900.7</ele>
        <time>2021-07-23T10:59:25Z</time>
      </trkpt>
      <trkpt lat="45.09931" lon="2.85421">
        <ele>901.4</ele>
        <time>2021-07-23T10:59:27Z</time>
      </trkpt>
      <trkpt lat="45.09926" lon="2.85414">
        <ele>902.1</ele>
        <time>2021-07-23T10:59:29Z</time>
      </trkpt>
      <trkpt lat="45.09922" lon="2.85407">
        <ele>902.7</ele>
        <time>2021-07-23T10:59:31Z</time>
      </trkpt>
      <trkpt lat="45.09919" lon="2.854">
        <ele>903.3</ele>
        <time>2021-07-23T10:59:33Z</time>
      </trkpt>
      <trkpt lat="45.09917" lon="2.85393">
        <ele>903.8</ele>
        <time>2021-07-23T10:59:35Z</time>
      </trkpt>
      <trkpt lat="45.09916" lon="2.85386">
        <ele>904.4</ele>
        <time>2021-07-23T10:59:37Z</time>
      </trkpt>
      <trkpt lat="45.09914" lon="2.85379">
        <ele>905.2</ele>
        <time>2021-07-23T10:59:39Z</time>
      </trkpt>
      <trkpt lat="45.09913" lon="2.85373">
        <ele>905.8</ele>
        <time>2021-07-23T10:59:41Z</time>
      </trkpt>
      <trkpt lat="45.09912" lon="2.85365">
        <ele>906.5</ele>
        <time>2021-07-23T10:59:43Z</time>
      </trkpt>
      <trkpt lat="45.0991" lon="2.85354">
        <ele>907.6</ele>
        <time>2021-07-23T10:59:47Z</time>
      </trkpt>
      <trkpt lat="45.09908" lon="2.85342">
        <ele>908.6</ele>
        <time>2021-07-23T10:59:51Z</time>
      </trkpt>
      <trkpt lat="45.09906" lon="2.85336">
        <ele>909.3</ele>
        <time>2021-07-23T10:59:53Z</time>
      </trkpt>
      <trkpt lat="45.09903" lon="2.85326">
        <ele>910.7</ele>
        <time>2021-07-23T10:59:57Z</time>
      </trkpt>
      <trkpt lat="45.099" lon="2.85316">
        <ele>911.7</ele>
        <time>2021-07-23T11:00:01Z</time>
      </trkpt>
      <trkpt lat="45.09896" lon="2.85309">
        <ele>912.9</ele>
        <time>2021-07-23T11:00:05Z</time>
      </trkpt>
      <trkpt lat="45.09891" lon="2.85303">
        <ele>914.6</ele>
        <time>2021-07-23T11:00:09Z</time>
      </trkpt>
      <trkpt lat="45.09885" lon="2.85294">
        <ele>916.4</ele>
        <time>2021-07-23T11:00:13Z</time>
      </trkpt>
      <trkpt lat="45.0988" lon="2.85284">
        <ele>917.9</ele>
        <time>2021-07-23T11:00:17Z</time>
      </trkpt>
      <trkpt lat="45.09875" lon="2.85274">
        <ele>919.2</ele>
        <time>2021-07-23T11:00:21Z</time>
      </trkpt>
      <trkpt lat="45.09873" lon="2.85269">
        <ele>919.8</ele>
        <time>2021-07-23T11:00:23Z</time>
      </trkpt>
      <trkpt lat="45.0987" lon="2.85258">
        <ele>920.6</ele>
        <time>2021-07-23T11:00:27Z</time>
      </trkpt>
      <trkpt lat="45.09868" lon="2.85247">
        <ele>920.9</ele>
        <time>2021-07-23T11:00:31Z</time>
      </trkpt>
      <trkpt lat="45.09867" lon="2.85235">
        <ele>921.5</ele>
        <time>2021-07-23T11:00:35Z</time>
      </trkpt>
      <trkpt lat="45.09864" lon="2.85224">
        <ele>922.1</ele>
        <time>2021-07-23T11:00:39Z</time>
      </trkpt>
      <trkpt lat="45.0986" lon="2.85214">
        <ele>923</ele>
        <time>2021-07-23T11:00:43Z</time>
      </trkpt>
      <trkpt lat="45.09855" lon="2.85206">
        <ele>924</ele>
        <time>2021-07-23T11:00:47Z</time>
      </trkpt>
      <trkpt lat="45.09848" lon="2.852">
        <ele>924.9</ele>
        <time>2021-07-23T11:00:51Z</time>
      </trkpt>
      <trkpt lat="45.09841" lon="2.85193">
        <ele>925.7</ele>
        <time>2021-07-23T11:00:55Z</time>
      </trkpt>
      <trkpt lat="45.09836" lon="2.85188">
        <ele>926.2</ele>
        <time>2021-07-23T11:00:59Z</time>
      </trkpt>
      <trkpt lat="45.09829" lon="2.85181">
        <ele>927.4</ele>
        <time>2021-07-23T11:01:03Z</time>
      </trkpt>
      <trkpt lat="45.09823" lon="2.85173">
        <ele>928.9</ele>
        <time>2021-07-23T11:01:07Z</time>
      </trkpt>
      <trkpt lat="45.09818" lon="2.85165">
        <ele>930.1</ele>
        <time>2021-07-23T11:01:11Z</time>
      </trkpt>
      <trkpt lat="45.09813" lon="2.85155">
        <ele>931.9</ele>
        <time>2021-07-23T11:01:15Z</time>
      </trkpt>
      <trkpt lat="45.0981" lon="2.85149">
        <ele>932.8</ele>
        <time>2021-07-23T11:01:17Z</time>
      </trkpt>
      <trkpt lat="45.09809" lon="2.85142">
        <ele>933.2</ele>
        <time>2021-07-23T11:01:19Z</time>
      </trkpt>
      <trkpt lat="45.0981" lon="2.85131">
        <ele>933.2</ele>
        <time>2021-07-23T11:01:23Z</time>
      </trkpt>
      <trkpt lat="45.09812" lon="2.85119">
        <ele>933</ele>
        <time>2021-07-23T11:01:27Z</time>
      </trkpt>
      <trkpt lat="45.09815" lon="2.85109">
        <ele>932.6</ele>
        <time>2021-07-23T11:01:31Z</time>
      </trkpt>
      <trkpt lat="45.09821" lon="2.85104">
        <ele>931.8</ele>
        <time>2021-07-23T11:01:35Z</time>
      </trkpt>
      <trkpt lat="45.09826" lon="2.85102">
        <ele>930.9</ele>
        <time>2021-07-23T11:01:39Z</time>
      </trkpt>
      <trkpt lat="45.09832" lon="2.85103">
        <ele>929.8</ele>
        <time>2021-07-23T11:01:43Z</time>
      </trkpt>
      <trkpt lat="45.09838" lon="2.85105">
        <ele>929.1</ele>
        <time>2021-07-23T11:01:47Z</time>
      </trkpt>
      <trkpt lat="45.09844" lon="2.85107">
        <ele>928.7</ele>
        <time>2021-07-23T11:01:51Z</time>
      </trkpt>
      <trkpt lat="45.0985" lon="2.85107">
        <ele>928.3</ele>
        <time>2021-07-23T11:01:55Z</time>
      </trkpt>
      <trkpt lat="45.09857" lon="2.85107">
        <ele>927.9</ele>
        <time>2021-07-23T11:01:59Z</time>
      </trkpt>
      <trkpt lat="45.09862" lon="2.85106">
        <ele>927.7</ele>
        <time>2021-07-23T11:02:03Z</time>
      </trkpt>
      <trkpt lat="45.09867" lon="2.85104">
        <ele>927.6</ele>
        <time>2021-07-23T11:02:09Z</time>
      </trkpt>
      <trkpt lat="45.09871" lon="2.85101">
        <ele>927.6</ele>
        <time>2021-07-23T11:04:17Z</time>
      </trkpt>
      <trkpt lat="45.09877" lon="2.85096">
        <ele>927.7</ele>
        <time>2021-07-23T11:04:21Z</time>
      </trkpt>
      <trkpt lat="45.09881" lon="2.85091">
        <ele>928</ele>
        <time>2021-07-23T11:04:25Z</time>
      </trkpt>
      <trkpt lat="45.09887" lon="2.85084">
        <ele>928.4</ele>
        <time>2021-07-23T11:04:29Z</time>
      </trkpt>
      <trkpt lat="45.09891" lon="2.85077">
        <ele>929.7</ele>
        <time>2021-07-23T11:04:33Z</time>
      </trkpt>
      <trkpt lat="45.09896" lon="2.8507">
        <ele>930.8</ele>
        <time>2021-07-23T11:04:37Z</time>
      </trkpt>
      <trkpt lat="45.099" lon="2.85063">
        <ele>932.1</ele>
        <time>2021-07-23T11:04:41Z</time>
      </trkpt>
      <trkpt lat="45.09902" lon="2.85055">
        <ele>933.7</ele>
        <time>2021-07-23T11:04:45Z</time>
      </trkpt>
      <trkpt lat="45.09904" lon="2.85048">
        <ele>934.9</ele>
        <time>2021-07-23T11:04:49Z</time>
      </trkpt>
      <trkpt lat="45.09907" lon="2.85039">
        <ele>936.5</ele>
        <time>2021-07-23T11:04:53Z</time>
      </trkpt>
      <trkpt lat="45.09909" lon="2.85031">
        <ele>938</ele>
        <time>2021-07-23T11:04:57Z</time>
      </trkpt>
      <trkpt lat="45.0991" lon="2.85023">
        <ele>939.4</ele>
        <time>2021-07-23T11:05:01Z</time>
      </trkpt>
      <trkpt lat="45.09912" lon="2.85016">
        <ele>940.5</ele>
        <time>2021-07-23T11:05:05Z</time>
      </trkpt>
      <trkpt lat="45.09914" lon="2.85008">
        <ele>941.8</ele>
        <time>2021-07-23T11:05:09Z</time>
      </trkpt>
      <trkpt lat="45.09917" lon="2.85001">
        <ele>942.8</ele>
        <time>2021-07-23T11:05:13Z</time>
      </trkpt>
      <trkpt lat="45.09918" lon="2.84993">
        <ele>945.1</ele>
        <time>2021-07-23T11:05:17Z</time>
      </trkpt>
      <trkpt lat="45.0992" lon="2.84986">
        <ele>946.6</ele>
        <time>2021-07-23T11:05:21Z</time>
      </trkpt>
      <trkpt lat="45.09921" lon="2.84979">
        <ele>948.4</ele>
        <time>2021-07-23T11:05:25Z</time>
      </trkpt>
      <trkpt lat="45.09923" lon="2.84971">
        <ele>950.8</ele>
        <time>2021-07-23T11:05:29Z</time>
      </trkpt>
      <trkpt lat="45.09924" lon="2.84963">
        <ele>953.3</ele>
        <time>2021-07-23T11:05:33Z</time>
      </trkpt>
      <trkpt lat="45.09926" lon="2.84956">
        <ele>955</ele>
        <time>2021-07-23T11:05:37Z</time>
      </trkpt>
      <trkpt lat="45.09927" lon="2.84949">
        <ele>956.8</ele>
        <time>2021-07-23T11:05:41Z</time>
      </trkpt>
      <trkpt lat="45.09929" lon="2.84939">
        <ele>959.4</ele>
        <time>2021-07-23T11:05:45Z</time>
      </trkpt>
      <trkpt lat="45.09932" lon="2.84932">
        <ele>960.3</ele>
        <time>2021-07-23T11:05:49Z</time>
      </trkpt>
      <trkpt lat="45.09933" lon="2.84923">
        <ele>963.1</ele>
        <time>2021-07-23T11:05:53Z</time>
      </trkpt>
      <trkpt lat="45.09934" lon="2.84916">
        <ele>965.1</ele>
        <time>2021-07-23T11:05:57Z</time>
      </trkpt>
      <trkpt lat="45.09937" lon="2.84908">
        <ele>966.8</ele>
        <time>2021-07-23T11:06:01Z</time>
      </trkpt>
      <trkpt lat="45.09939" lon="2.84901">
        <ele>969.2</ele>
        <time>2021-07-23T11:06:05Z</time>
      </trkpt>
      <trkpt lat="45.09941" lon="2.84892">
        <ele>971.5</ele>
        <time>2021-07-23T11:06:09Z</time>
      </trkpt>
      <trkpt lat="45.09943" lon="2.84884">
        <ele>973.8</ele>
        <time>2021-07-23T11:06:13Z</time>
      </trkpt>
      <trkpt lat="45.09943" lon="2.84874">
        <ele>977.8</ele>
        <time>2021-07-23T11:06:17Z</time>
      </trkpt>
      <trkpt lat="45.09945" lon="2.84868">
        <ele>979.5</ele>
        <time>2021-07-23T11:06:21Z</time>
      </trkpt>
      <trkpt lat="45.09946" lon="2.8486">
        <ele>981.9</ele>
        <time>2021-07-23T11:06:25Z</time>
      </trkpt>
      <trkpt lat="45.09948" lon="2.84853">
        <ele>983.8</ele>
        <time>2021-07-23T11:06:29Z</time>
      </trkpt>
      <trkpt lat="45.09949" lon="2.84845">
        <ele>986.1</ele>
        <time>2021-07-23T11:06:33Z</time>
      </trkpt>
      <trkpt lat="45.09954" lon="2.84837">
        <ele>987</ele>
        <time>2021-07-23T11:06:37Z</time>
      </trkpt>
      <trkpt lat="45.09956" lon="2.84829">
        <ele>988.2</ele>
        <time>2021-07-23T11:06:41Z</time>
      </trkpt>
      <trkpt lat="45.0996" lon="2.84822">
        <ele>988.2</ele>
        <time>2021-07-23T11:06:45Z</time>
      </trkpt>
      <trkpt lat="45.09965" lon="2.84817">
        <ele>987.6</ele>
        <time>2021-07-23T11:06:49Z</time>
      </trkpt>
      <trkpt lat="45.09973" lon="2.84815">
        <ele>983.7</ele>
        <time>2021-07-23T11:06:53Z</time>
      </trkpt>
      <trkpt lat="45.09979" lon="2.84813">
        <ele>980.9</ele>
        <time>2021-07-23T11:06:57Z</time>
      </trkpt>
      <trkpt lat="45.09984" lon="2.84813">
        <ele>978</ele>
        <time>2021-07-23T11:07:01Z</time>
      </trkpt>
      <trkpt lat="45.09989" lon="2.84809">
        <ele>976.5</ele>
        <time>2021-07-23T11:07:05Z</time>
      </trkpt>
      <trkpt lat="45.09995" lon="2.84806">
        <ele>974.2</ele>
        <time>2021-07-23T11:07:09Z</time>
      </trkpt>
      <trkpt lat="45.09998" lon="2.848">
        <ele>973.7</ele>
        <time>2021-07-23T11:07:13Z</time>
      </trkpt>
      <trkpt lat="45.10003" lon="2.84797">
        <ele>972.5</ele>
        <time>2021-07-23T11:07:17Z</time>
      </trkpt>
      <trkpt lat="45.10006" lon="2.8479">
        <ele>973.1</ele>
        <time>2021-07-23T11:07:21Z</time>
      </trkpt>
      <trkpt lat="45.10012" lon="2.84785">
        <ele>972.2</ele>
        <time>2021-07-23T11:07:25Z</time>
      </trkpt>
      <trkpt lat="45.10017" lon="2.8478">
        <ele>971.6</ele>
        <time>2021-07-23T11:07:29Z</time>
      </trkpt>
      <trkpt lat="45.1002" lon="2.84774">
        <ele>972.4</ele>
        <time>2021-07-23T11:07:33Z</time>
      </trkpt>
      <trkpt lat="45.10021" lon="2.84765">
        <ele>974.3</ele>
        <time>2021-07-23T11:07:37Z</time>
      </trkpt>
      <trkpt lat="45.10023" lon="2.84756">
        <ele>976</ele>
        <time>2021-07-23T11:07:41Z</time>
      </trkpt>
      <trkpt lat="45.10025" lon="2.84748">
        <ele>977.2</ele>
        <time>2021-07-23T11:07:45Z</time>
      </trkpt>
      <trkpt lat="45.10026" lon="2.84739">
        <ele>978.2</ele>
        <time>2021-07-23T11:07:49Z</time>
      </trkpt>
      <trkpt lat="45.10026" lon="2.8473">
        <ele>979.4</ele>
        <time>2021-07-23T11:07:53Z</time>
      </trkpt>
      <trkpt lat="45.10026" lon="2.84723">
        <ele>980.3</ele>
        <time>2021-07-23T11:07:57Z</time>
      </trkpt>
      <trkpt lat="45.10028" lon="2.84715">
        <ele>980.6</ele>
        <time>2021-07-23T11:08:01Z</time>
      </trkpt>
      <trkpt lat="45.10027" lon="2.84708">
        <ele>982.1</ele>
        <time>2021-07-23T11:08:05Z</time>
      </trkpt>
      <trkpt lat="45.1003" lon="2.84701">
        <ele>982.1</ele>
        <time>2021-07-23T11:08:09Z</time>
      </trkpt>
      <trkpt lat="45.1003" lon="2.84693">
        <ele>983.4</ele>
        <time>2021-07-23T11:08:13Z</time>
      </trkpt>
      <trkpt lat="45.10031" lon="2.84685">
        <ele>984</ele>
        <time>2021-07-23T11:08:17Z</time>
      </trkpt>
      <trkpt lat="45.10031" lon="2.84675">
        <ele>985.6</ele>
        <time>2021-07-23T11:08:21Z</time>
      </trkpt>
      <trkpt lat="45.10031" lon="2.84667">
        <ele>986.6</ele>
        <time>2021-07-23T11:08:25Z</time>
      </trkpt>
      <trkpt lat="45.10036" lon="2.8466">
        <ele>986.1</ele>
        <time>2021-07-23T11:08:29Z</time>
      </trkpt>
      <trkpt lat="45.10037" lon="2.84653">
        <ele>987.2</ele>
        <time>2021-07-23T11:08:33Z</time>
      </trkpt>
      <trkpt lat="45.10039" lon="2.84644">
        <ele>988</ele>
        <time>2021-07-23T11:08:37Z</time>
      </trkpt>
      <trkpt lat="45.10039" lon="2.84636">
        <ele>989.5</ele>
        <time>2021-07-23T11:08:41Z</time>
      </trkpt>
      <trkpt lat="45.10043" lon="2.84628">
        <ele>989.2</ele>
        <time>2021-07-23T11:08:45Z</time>
      </trkpt>
      <trkpt lat="45.10047" lon="2.84619">
        <ele>988.8</ele>
        <time>2021-07-23T11:08:49Z</time>
      </trkpt>
      <trkpt lat="45.10051" lon="2.84613">
        <ele>988.1</ele>
        <time>2021-07-23T11:08:53Z</time>
      </trkpt>
      <trkpt lat="45.10054" lon="2.84606">
        <ele>987.9</ele>
        <time>2021-07-23T11:08:57Z</time>
      </trkpt>
      <trkpt lat="45.10055" lon="2.84599">
        <ele>988.4</ele>
        <time>2021-07-23T11:09:01Z</time>
      </trkpt>
      <trkpt lat="45.10058" lon="2.84592">
        <ele>988.3</ele>
        <time>2021-07-23T11:09:05Z</time>
      </trkpt>
      <trkpt lat="45.10059" lon="2.84582">
        <ele>989.2</ele>
        <time>2021-07-23T11:09:09Z</time>
      </trkpt>
      <trkpt lat="45.1006" lon="2.84574">
        <ele>989.9</ele>
        <time>2021-07-23T11:09:13Z</time>
      </trkpt>
      <trkpt lat="45.10062" lon="2.84566">
        <ele>990.4</ele>
        <time>2021-07-23T11:09:17Z</time>
      </trkpt>
      <trkpt lat="45.10062" lon="2.84557">
        <ele>991.5</ele>
        <time>2021-07-23T11:09:21Z</time>
      </trkpt>
      <trkpt lat="45.10062" lon="2.84549">
        <ele>992.5</ele>
        <time>2021-07-23T11:09:25Z</time>
      </trkpt>
      <trkpt lat="45.10062" lon="2.84541">
        <ele>993.6</ele>
        <time>2021-07-23T11:09:29Z</time>
      </trkpt>
      <trkpt lat="45.1006" lon="2.84534">
        <ele>995.3</ele>
        <time>2021-07-23T11:09:33Z</time>
      </trkpt>
      <trkpt lat="45.10059" lon="2.84526">
        <ele>996.7</ele>
        <time>2021-07-23T11:09:37Z</time>
      </trkpt>
      <trkpt lat="45.10059" lon="2.84519">
        <ele>997.9</ele>
        <time>2021-07-23T11:09:41Z</time>
      </trkpt>
      <trkpt lat="45.10058" lon="2.84511">
        <ele>999.5</ele>
        <time>2021-07-23T11:09:45Z</time>
      </trkpt>
      <trkpt lat="45.10057" lon="2.84502">
        <ele>1001.1</ele>
        <time>2021-07-23T11:09:49Z</time>
      </trkpt>
      <trkpt lat="45.10056" lon="2.84493">
        <ele>1003.1</ele>
        <time>2021-07-23T11:09:53Z</time>
      </trkpt>
      <trkpt lat="45.10057" lon="2.84484">
        <ele>1004.2</ele>
        <time>2021-07-23T11:09:57Z</time>
      </trkpt>
      <trkpt lat="45.10056" lon="2.84476">
        <ele>1005.9</ele>
        <time>2021-07-23T11:10:01Z</time>
      </trkpt>
      <trkpt lat="45.10056" lon="2.84467">
        <ele>1007.4</ele>
        <time>2021-07-23T11:10:05Z</time>
      </trkpt>
      <trkpt lat="45.10055" lon="2.84458">
        <ele>1009.5</ele>
        <time>2021-07-23T11:10:09Z</time>
      </trkpt>
      <trkpt lat="45.10056" lon="2.8445">
        <ele>1010.4</ele>
        <time>2021-07-23T11:10:13Z</time>
      </trkpt>
      <trkpt lat="45.10056" lon="2.84441">
        <ele>1011.7</ele>
        <time>2021-07-23T11:10:17Z</time>
      </trkpt>
      <trkpt lat="45.10057" lon="2.8443">
        <ele>1012.9</ele>
        <time>2021-07-23T11:10:21Z</time>
      </trkpt>
      <trkpt lat="45.10057" lon="2.84422">
        <ele>1014.4</ele>
        <time>2021-07-23T11:10:25Z</time>
      </trkpt>
      <trkpt lat="45.10058" lon="2.84413">
        <ele>1015.1</ele>
        <time>2021-07-23T11:10:29Z</time>
      </trkpt>
      <trkpt lat="45.10058" lon="2.84405">
        <ele>1015.8</ele>
        <time>2021-07-23T11:10:33Z</time>
      </trkpt>
      <trkpt lat="45.10058" lon="2.84396">
        <ele>1015.9</ele>
        <time>2021-07-23T11:10:37Z</time>
      </trkpt>
      <trkpt lat="45.10056" lon="2.84387">
        <ele>1017.8</ele>
        <time>2021-07-23T11:10:41Z</time>
      </trkpt>
      <trkpt lat="45.10058" lon="2.84378">
        <ele>1017.5</ele>
        <time>2021-07-23T11:10:45Z</time>
      </trkpt>
      <trkpt lat="45.10058" lon="2.8437">
        <ele>1017.8</ele>
        <time>2021-07-23T11:10:49Z</time>
      </trkpt>
      <trkpt lat="45.10059" lon="2.84362">
        <ele>1017.8</ele>
        <time>2021-07-23T11:10:53Z</time>
      </trkpt>
      <trkpt lat="45.10059" lon="2.84352">
        <ele>1018.8</ele>
        <time>2021-07-23T11:10:57Z</time>
      </trkpt>
      <trkpt lat="45.10059" lon="2.84344">
        <ele>1019</ele>
        <time>2021-07-23T11:11:01Z</time>
      </trkpt>
      <trkpt lat="45.10059" lon="2.84336">
        <ele>1019.9</ele>
        <time>2021-07-23T11:11:05Z</time>
      </trkpt>
      <trkpt lat="45.10059" lon="2.84326">
        <ele>1020.1</ele>
        <time>2021-07-23T11:11:09Z</time>
      </trkpt>
      <trkpt lat="45.1006" lon="2.84317">
        <ele>1019.7</ele>
        <time>2021-07-23T11:11:13Z</time>
      </trkpt>
      <trkpt lat="45.1006" lon="2.84308">
        <ele>1020.1</ele>
        <time>2021-07-23T11:11:17Z</time>
      </trkpt>
      <trkpt lat="45.10059" lon="2.843">
        <ele>1021.1</ele>
        <time>2021-07-23T11:11:21Z</time>
      </trkpt>
      <trkpt lat="45.1006" lon="2.8429">
        <ele>1021.1</ele>
        <time>2021-07-23T11:11:25Z</time>
      </trkpt>
      <trkpt lat="45.10061" lon="2.84281">
        <ele>1020.8</ele>
        <time>2021-07-23T11:11:29Z</time>
      </trkpt>
      <trkpt lat="45.10062" lon="2.84273">
        <ele>1020.7</ele>
        <time>2021-07-23T11:11:33Z</time>
      </trkpt>
      <trkpt lat="45.10062" lon="2.84265">
        <ele>1020.8</ele>
        <time>2021-07-23T11:11:37Z</time>
      </trkpt>
      <trkpt lat="45.10062" lon="2.84256">
        <ele>1020.9</ele>
        <time>2021-07-23T11:11:41Z</time>
      </trkpt>
      <trkpt lat="45.10063" lon="2.84247">
        <ele>1020.8</ele>
        <time>2021-07-23T11:11:45Z</time>
      </trkpt>
      <trkpt lat="45.10063" lon="2.84239">
        <ele>1022.6</ele>
        <time>2021-07-23T11:11:49Z</time>
      </trkpt>
      <trkpt lat="45.10063" lon="2.8423">
        <ele>1023.5</ele>
        <time>2021-07-23T11:11:53Z</time>
      </trkpt>
      <trkpt lat="45.10063" lon="2.84222">
        <ele>1024.7</ele>
        <time>2021-07-23T11:11:57Z</time>
      </trkpt>
      <trkpt lat="45.10063" lon="2.84214">
        <ele>1026.6</ele>
        <time>2021-07-23T11:12:01Z</time>
      </trkpt>
      <trkpt lat="45.10064" lon="2.84205">
        <ele>1026.9</ele>
        <time>2021-07-23T11:12:05Z</time>
      </trkpt>
      <trkpt lat="45.10066" lon="2.84197">
        <ele>1027.1</ele>
        <time>2021-07-23T11:12:09Z</time>
      </trkpt>
      <trkpt lat="45.10068" lon="2.84187">
        <ele>1026.9</ele>
        <time>2021-07-23T11:12:13Z</time>
      </trkpt>
      <trkpt lat="45.10069" lon="2.84178">
        <ele>1027.5</ele>
        <time>2021-07-23T11:12:17Z</time>
      </trkpt>
      <trkpt lat="45.10071" lon="2.84169">
        <ele>1027.5</ele>
        <time>2021-07-23T11:12:21Z</time>
      </trkpt>
      <trkpt lat="45.10072" lon="2.8416">
        <ele>1028.2</ele>
        <time>2021-07-23T11:12:25Z</time>
      </trkpt>
      <trkpt lat="45.10073" lon="2.84151">
        <ele>1029.1</ele>
        <time>2021-07-23T11:12:29Z</time>
      </trkpt>
      <trkpt lat="45.10073" lon="2.84143">
        <ele>1030.7</ele>
        <time>2021-07-23T11:12:33Z</time>
      </trkpt>
      <trkpt lat="45.10074" lon="2.84134">
        <ele>1031.3</ele>
        <time>2021-07-23T11:12:37Z</time>
      </trkpt>
      <trkpt lat="45.10074" lon="2.84126">
        <ele>1032.7</ele>
        <time>2021-07-23T11:12:41Z</time>
      </trkpt>
      <trkpt lat="45.10074" lon="2.84117">
        <ele>1033.8</ele>
        <time>2021-07-23T11:12:45Z</time>
      </trkpt>
      <trkpt lat="45.10075" lon="2.84108">
        <ele>1034.9</ele>
        <time>2021-07-23T11:12:49Z</time>
      </trkpt>
      <trkpt lat="45.10074" lon="2.84099">
        <ele>1037.3</ele>
        <time>2021-07-23T11:12:53Z</time>
      </trkpt>
      <trkpt lat="45.10074" lon="2.84092">
        <ele>1038.3</ele>
        <time>2021-07-23T11:12:57Z</time>
      </trkpt>
      <trkpt lat="45.10073" lon="2.84083">
        <ele>1040.5</ele>
        <time>2021-07-23T11:13:01Z</time>
      </trkpt>
      <trkpt lat="45.10072" lon="2.84073">
        <ele>1043.3</ele>
        <time>2021-07-23T11:13:05Z</time>
      </trkpt>
      <trkpt lat="45.10072" lon="2.84063">
        <ele>1045</ele>
        <time>2021-07-23T11:13:09Z</time>
      </trkpt>
      <trkpt lat="45.10073" lon="2.84055">
        <ele>1045.6</ele>
        <time>2021-07-23T11:13:13Z</time>
      </trkpt>
      <trkpt lat="45.10076" lon="2.84049">
        <ele>1044.8</ele>
        <time>2021-07-23T11:13:17Z</time>
      </trkpt>
      <trkpt lat="45.10078" lon="2.8404">
        <ele>1044.7</ele>
        <time>2021-07-23T11:13:21Z</time>
      </trkpt>
      <trkpt lat="45.10082" lon="2.84033">
        <ele>1043.7</ele>
        <time>2021-07-23T11:13:25Z</time>
      </trkpt>
      <trkpt lat="45.10085" lon="2.84024">
        <ele>1043.7</ele>
        <time>2021-07-23T11:13:29Z</time>
      </trkpt>
      <trkpt lat="45.10088" lon="2.84016">
        <ele>1043.5</ele>
        <time>2021-07-23T11:13:33Z</time>
      </trkpt>
      <trkpt lat="45.10091" lon="2.84008">
        <ele>1043.9</ele>
        <time>2021-07-23T11:13:37Z</time>
      </trkpt>
      <trkpt lat="45.10092" lon="2.84">
        <ele>1045.1</ele>
        <time>2021-07-23T11:13:41Z</time>
      </trkpt>
      <trkpt lat="45.10096" lon="2.83995">
        <ele>1043.9</ele>
        <time>2021-07-23T11:13:45Z</time>
      </trkpt>
      <trkpt lat="45.10097" lon="2.83987">
        <ele>1044.3</ele>
        <time>2021-07-23T11:13:49Z</time>
      </trkpt>
      <trkpt lat="45.10101" lon="2.83981">
        <ele>1043.6</ele>
        <time>2021-07-23T11:13:53Z</time>
      </trkpt>
      <trkpt lat="45.10105" lon="2.83972">
        <ele>1043</ele>
        <time>2021-07-23T11:13:57Z</time>
      </trkpt>
      <trkpt lat="45.10107" lon="2.83966">
        <ele>1043.1</ele>
        <time>2021-07-23T11:13:59Z</time>
      </trkpt>
      <trkpt lat="45.1011" lon="2.83958">
        <ele>1043.6</ele>
        <time>2021-07-23T11:14:03Z</time>
      </trkpt>
      <trkpt lat="45.10113" lon="2.8395">
        <ele>1043.5</ele>
        <time>2021-07-23T11:14:07Z</time>
      </trkpt>
      <trkpt lat="45.10117" lon="2.83943">
        <ele>1043.1</ele>
        <time>2021-07-23T11:14:11Z</time>
      </trkpt>
      <trkpt lat="45.1012" lon="2.83934">
        <ele>1043.6</ele>
        <time>2021-07-23T11:14:15Z</time>
      </trkpt>
      <trkpt lat="45.10122" lon="2.83926">
        <ele>1044.5</ele>
        <time>2021-07-23T11:14:19Z</time>
      </trkpt>
      <trkpt lat="45.10124" lon="2.83918">
        <ele>1045.6</ele>
        <time>2021-07-23T11:14:23Z</time>
      </trkpt>
      <trkpt lat="45.10127" lon="2.83909">
        <ele>1045.4</ele>
        <time>2021-07-23T11:14:27Z</time>
      </trkpt>
      <trkpt lat="45.10128" lon="2.83901">
        <ele>1045.9</ele>
        <time>2021-07-23T11:14:31Z</time>
      </trkpt>
      <trkpt lat="45.10128" lon="2.83893">
        <ele>1046.5</ele>
        <time>2021-07-23T11:14:35Z</time>
      </trkpt>
      <trkpt lat="45.1013" lon="2.83884">
        <ele>1046.8</ele>
        <time>2021-07-23T11:14:39Z</time>
      </trkpt>
      <trkpt lat="45.1013" lon="2.83875">
        <ele>1047.5</ele>
        <time>2021-07-23T11:14:43Z</time>
      </trkpt>
      <trkpt lat="45.10131" lon="2.83866">
        <ele>1048.1</ele>
        <time>2021-07-23T11:14:47Z</time>
      </trkpt>
      <trkpt lat="45.10132" lon="2.83857">
        <ele>1048.7</ele>
        <time>2021-07-23T11:14:51Z</time>
      </trkpt>
      <trkpt lat="45.10132" lon="2.83848">
        <ele>1049.6</ele>
        <time>2021-07-23T11:14:55Z</time>
      </trkpt>
      <trkpt lat="45.10132" lon="2.83839">
        <ele>1050.3</ele>
        <time>2021-07-23T11:14:59Z</time>
      </trkpt>
      <trkpt lat="45.10131" lon="2.83829">
        <ele>1051</ele>
        <time>2021-07-23T11:15:03Z</time>
      </trkpt>
      <trkpt lat="45.10133" lon="2.83821">
        <ele>1051</ele>
        <time>2021-07-23T11:15:07Z</time>
      </trkpt>
      <trkpt lat="45.10135" lon="2.83813">
        <ele>1050.9</ele>
        <time>2021-07-23T11:15:11Z</time>
      </trkpt>
      <trkpt lat="45.10138" lon="2.83805">
        <ele>1050.8</ele>
        <time>2021-07-23T11:15:15Z</time>
      </trkpt>
      <trkpt lat="45.1014" lon="2.83795">
        <ele>1050.8</ele>
        <time>2021-07-23T11:15:19Z</time>
      </trkpt>
      <trkpt lat="45.10143" lon="2.83786">
        <ele>1050.8</ele>
        <time>2021-07-23T11:15:23Z</time>
      </trkpt>
      <trkpt lat="45.10145" lon="2.83777">
        <ele>1051</ele>
        <time>2021-07-23T11:15:27Z</time>
      </trkpt>
      <trkpt lat="45.10146" lon="2.83767">
        <ele>1051.2</ele>
        <time>2021-07-23T11:15:31Z</time>
      </trkpt>
      <trkpt lat="45.10148" lon="2.83758">
        <ele>1051.5</ele>
        <time>2021-07-23T11:15:35Z</time>
      </trkpt>
      <trkpt lat="45.1015" lon="2.83747">
        <ele>1051.7</ele>
        <time>2021-07-23T11:15:39Z</time>
      </trkpt>
      <trkpt lat="45.10152" lon="2.83736">
        <ele>1052</ele>
        <time>2021-07-23T11:15:43Z</time>
      </trkpt>
      <trkpt lat="45.10153" lon="2.83725">
        <ele>1052.3</ele>
        <time>2021-07-23T11:15:47Z</time>
      </trkpt>
      <trkpt lat="45.10153" lon="2.83714">
        <ele>1052.6</ele>
        <time>2021-07-23T11:15:51Z</time>
      </trkpt>
      <trkpt lat="45.10154" lon="2.83704">
        <ele>1053</ele>
        <time>2021-07-23T11:15:55Z</time>
      </trkpt>
      <trkpt lat="45.10154" lon="2.83693">
        <ele>1053.4</ele>
        <time>2021-07-23T11:15:59Z</time>
      </trkpt>
      <trkpt lat="45.10155" lon="2.83682">
        <ele>1053.8</ele>
        <time>2021-07-23T11:16:03Z</time>
      </trkpt>
      <trkpt lat="45.10156" lon="2.83672">
        <ele>1054.2</ele>
        <time>2021-07-23T11:16:07Z</time>
      </trkpt>
      <trkpt lat="45.10157" lon="2.83661">
        <ele>1054.6</ele>
        <time>2021-07-23T11:16:11Z</time>
      </trkpt>
      <trkpt lat="45.10158" lon="2.83651">
        <ele>1055</ele>
        <time>2021-07-23T11:16:15Z</time>
      </trkpt>
      <trkpt lat="45.10158" lon="2.83641">
        <ele>1055.5</ele>
        <time>2021-07-23T11:16:19Z</time>
      </trkpt>
      <trkpt lat="45.10158" lon="2.8363">
        <ele>1056</ele>
        <time>2021-07-23T11:16:23Z</time>
      </trkpt>
      <trkpt lat="45.10157" lon="2.83619">
        <ele>1056.6</ele>
        <time>2021-07-23T11:16:27Z</time>
      </trkpt>
      <trkpt lat="45.10155" lon="2.83609">
        <ele>1057.1</ele>
        <time>2021-07-23T11:16:31Z</time>
      </trkpt>
      <trkpt lat="45.10154" lon="2.83599">
        <ele>1057.6</ele>
        <time>2021-07-23T11:16:35Z</time>
      </trkpt>
      <trkpt lat="45.1015" lon="2.83589">
        <ele>1058.1</ele>
        <time>2021-07-23T11:16:39Z</time>
      </trkpt>
      <trkpt lat="45.10148" lon="2.8358">
        <ele>1058.7</ele>
        <time>2021-07-23T11:16:43Z</time>
      </trkpt>
      <trkpt lat="45.10145" lon="2.8357">
        <ele>1059.4</ele>
        <time>2021-07-23T11:16:47Z</time>
      </trkpt>
      <trkpt lat="45.10143" lon="2.83561">
        <ele>1060</ele>
        <time>2021-07-23T11:16:51Z</time>
      </trkpt>
      <trkpt lat="45.1014" lon="2.83551">
        <ele>1060.7</ele>
        <time>2021-07-23T11:16:55Z</time>
      </trkpt>
      <trkpt lat="45.10137" lon="2.83542">
        <ele>1061.4</ele>
        <time>2021-07-23T11:16:59Z</time>
      </trkpt>
      <trkpt lat="45.10134" lon="2.83533">
        <ele>1061.9</ele>
        <time>2021-07-23T11:17:03Z</time>
      </trkpt>
      <trkpt lat="45.10131" lon="2.83523">
        <ele>1062.6</ele>
        <time>2021-07-23T11:17:07Z</time>
      </trkpt>
      <trkpt lat="45.10128" lon="2.83514">
        <ele>1063.2</ele>
        <time>2021-07-23T11:17:11Z</time>
      </trkpt>
      <trkpt lat="45.10126" lon="2.83504">
        <ele>1063.8</ele>
        <time>2021-07-23T11:17:15Z</time>
      </trkpt>
      <trkpt lat="45.10123" lon="2.83494">
        <ele>1064.4</ele>
        <time>2021-07-23T11:17:19Z</time>
      </trkpt>
      <trkpt lat="45.10121" lon="2.83485">
        <ele>1065.1</ele>
        <time>2021-07-23T11:17:23Z</time>
      </trkpt>
      <trkpt lat="45.10119" lon="2.83476">
        <ele>1065.7</ele>
        <time>2021-07-23T11:17:27Z</time>
      </trkpt>
      <trkpt lat="45.10117" lon="2.83466">
        <ele>1066.4</ele>
        <time>2021-07-23T11:17:31Z</time>
      </trkpt>
      <trkpt lat="45.10113" lon="2.83457">
        <ele>1067.1</ele>
        <time>2021-07-23T11:17:35Z</time>
      </trkpt>
      <trkpt lat="45.1011" lon="2.83448">
        <ele>1067.8</ele>
        <time>2021-07-23T11:17:39Z</time>
      </trkpt>
      <trkpt lat="45.10107" lon="2.83438">
        <ele>1068.5</ele>
        <time>2021-07-23T11:17:43Z</time>
      </trkpt>
      <trkpt lat="45.10104" lon="2.83429">
        <ele>1069.1</ele>
        <time>2021-07-23T11:17:47Z</time>
      </trkpt>
      <trkpt lat="45.101" lon="2.8342">
        <ele>1069.7</ele>
        <time>2021-07-23T11:17:51Z</time>
      </trkpt>
      <trkpt lat="45.10097" lon="2.83411">
        <ele>1070.3</ele>
        <time>2021-07-23T11:17:55Z</time>
      </trkpt>
      <trkpt lat="45.10094" lon="2.83402">
        <ele>1070.8</ele>
        <time>2021-07-23T11:17:59Z</time>
      </trkpt>
      <trkpt lat="45.10092" lon="2.83393">
        <ele>1071.3</ele>
        <time>2021-07-23T11:18:03Z</time>
      </trkpt>
      <trkpt lat="45.10088" lon="2.83383">
        <ele>1071.9</ele>
        <time>2021-07-23T11:18:07Z</time>
      </trkpt>
      <trkpt lat="45.10085" lon="2.83375">
        <ele>1072.5</ele>
        <time>2021-07-23T11:18:11Z</time>
      </trkpt>
      <trkpt lat="45.10083" lon="2.83366">
        <ele>1073.1</ele>
        <time>2021-07-23T11:18:15Z</time>
      </trkpt>
      <trkpt lat="45.10079" lon="2.83357">
        <ele>1074.1</ele>
        <time>2021-07-23T11:18:19Z</time>
      </trkpt>
      <trkpt lat="45.10076" lon="2.83347">
        <ele>1075.1</ele>
        <time>2021-07-23T11:18:23Z</time>
      </trkpt>
      <trkpt lat="45.10074" lon="2.83338">
        <ele>1075.9</ele>
        <time>2021-07-23T11:18:27Z</time>
      </trkpt>
      <trkpt lat="45.10071" lon="2.83328">
        <ele>1076.4</ele>
        <time>2021-07-23T11:18:31Z</time>
      </trkpt>
      <trkpt lat="45.10069" lon="2.83318">
        <ele>1076.4</ele>
        <time>2021-07-23T11:18:35Z</time>
      </trkpt>
      <trkpt lat="45.10065" lon="2.83309">
        <ele>1076.7</ele>
        <time>2021-07-23T11:18:39Z</time>
      </trkpt>
      <trkpt lat="45.10062" lon="2.833">
        <ele>1076.8</ele>
        <time>2021-07-23T11:18:43Z</time>
      </trkpt>
      <trkpt lat="45.1006" lon="2.8329">
        <ele>1076.9</ele>
        <time>2021-07-23T11:18:47Z</time>
      </trkpt>
      <trkpt lat="45.10059" lon="2.83284">
        <ele>1076.9</ele>
        <time>2021-07-23T11:19:03Z</time>
      </trkpt>
      <trkpt lat="45.10056" lon="2.83275">
        <ele>1077.2</ele>
        <time>2021-07-23T11:20:25Z</time>
      </trkpt>
      <trkpt lat="45.10053" lon="2.83263">
        <ele>1077.3</ele>
        <time>2021-07-23T11:20:29Z</time>
      </trkpt>
      <trkpt lat="45.10052" lon="2.83256">
        <ele>1077.3</ele>
        <time>2021-07-23T11:20:31Z</time>
      </trkpt>
      <trkpt lat="45.1005" lon="2.83249">
        <ele>1077.3</ele>
        <time>2021-07-23T11:20:33Z</time>
      </trkpt>
      <trkpt lat="45.10049" lon="2.83242">
        <ele>1077.2</ele>
        <time>2021-07-23T11:20:35Z</time>
      </trkpt>
      <trkpt lat="45.10047" lon="2.83234">
        <ele>1077</ele>
        <time>2021-07-23T11:20:37Z</time>
      </trkpt>
      <trkpt lat="45.10045" lon="2.83227">
        <ele>1076.9</ele>
        <time>2021-07-23T11:20:39Z</time>
      </trkpt>
      <trkpt lat="45.10044" lon="2.83219">
        <ele>1076.8</ele>
        <time>2021-07-23T11:20:41Z</time>
      </trkpt>
      <trkpt lat="45.10042" lon="2.83213">
        <ele>1076.6</ele>
        <time>2021-07-23T11:20:43Z</time>
      </trkpt>
      <trkpt lat="45.1004" lon="2.83206">
        <ele>1076.6</ele>
        <time>2021-07-23T11:20:45Z</time>
      </trkpt>
      <trkpt lat="45.10039" lon="2.83199">
        <ele>1076.4</ele>
        <time>2021-07-23T11:20:47Z</time>
      </trkpt>
      <trkpt lat="45.10039" lon="2.83192">
        <ele>1076.1</ele>
        <time>2021-07-23T11:20:49Z</time>
      </trkpt>
      <trkpt lat="45.10037" lon="2.83185">
        <ele>1075.9</ele>
        <time>2021-07-23T11:20:51Z</time>
      </trkpt>
      <trkpt lat="45.10036" lon="2.83179">
        <ele>1075.8</ele>
        <time>2021-07-23T11:20:53Z</time>
      </trkpt>
      <trkpt lat="45.10034" lon="2.83172">
        <ele>1075.7</ele>
        <time>2021-07-23T11:20:55Z</time>
      </trkpt>
      <trkpt lat="45.10032" lon="2.83165">
        <ele>1075.8</ele>
        <time>2021-07-23T11:20:57Z</time>
      </trkpt>
      <trkpt lat="45.10031" lon="2.83158">
        <ele>1076.3</ele>
        <time>2021-07-23T11:20:59Z</time>
      </trkpt>
      <trkpt lat="45.10029" lon="2.83151">
        <ele>1076.7</ele>
        <time>2021-07-23T11:21:01Z</time>
      </trkpt>
      <trkpt lat="45.10028" lon="2.83145">
        <ele>1077.2</ele>
        <time>2021-07-23T11:21:03Z</time>
      </trkpt>
      <trkpt lat="45.10026" lon="2.83138">
        <ele>1077.6</ele>
        <time>2021-07-23T11:21:05Z</time>
      </trkpt>
      <trkpt lat="45.10024" lon="2.83131">
        <ele>1078.1</ele>
        <time>2021-07-23T11:21:07Z</time>
      </trkpt>
      <trkpt lat="45.10022" lon="2.83125">
        <ele>1078.7</ele>
        <time>2021-07-23T11:21:09Z</time>
      </trkpt>
      <trkpt lat="45.1002" lon="2.83119">
        <ele>1079.1</ele>
        <time>2021-07-23T11:21:11Z</time>
      </trkpt>
      <trkpt lat="45.10018" lon="2.83112">
        <ele>1079.6</ele>
        <time>2021-07-23T11:21:13Z</time>
      </trkpt>
      <trkpt lat="45.10017" lon="2.83104">
        <ele>1080</ele>
        <time>2021-07-23T11:21:15Z</time>
      </trkpt>
      <trkpt lat="45.10015" lon="2.83096">
        <ele>1080.6</ele>
        <time>2021-07-23T11:21:17Z</time>
      </trkpt>
      <trkpt lat="45.10012" lon="2.83089">
        <ele>1081.1</ele>
        <time>2021-07-23T11:21:19Z</time>
      </trkpt>
      <trkpt lat="45.1001" lon="2.83082">
        <ele>1081.6</ele>
        <time>2021-07-23T11:21:21Z</time>
      </trkpt>
      <trkpt lat="45.10008" lon="2.83075">
        <ele>1081.4</ele>
        <time>2021-07-23T11:21:23Z</time>
      </trkpt>
      <trkpt lat="45.10005" lon="2.83067">
        <ele>1081.2</ele>
        <time>2021-07-23T11:21:25Z</time>
      </trkpt>
      <trkpt lat="45.10003" lon="2.83059">
        <ele>1081</ele>
        <time>2021-07-23T11:21:27Z</time>
      </trkpt>
      <trkpt lat="45.10001" lon="2.83051">
        <ele>1080.6</ele>
        <time>2021-07-23T11:21:29Z</time>
      </trkpt>
      <trkpt lat="45.09998" lon="2.83043">
        <ele>1080.4</ele>
        <time>2021-07-23T11:21:31Z</time>
      </trkpt>
      <trkpt lat="45.09996" lon="2.83035">
        <ele>1080.3</ele>
        <time>2021-07-23T11:21:33Z</time>
      </trkpt>
      <trkpt lat="45.09993" lon="2.83027">
        <ele>1080.3</ele>
        <time>2021-07-23T11:21:35Z</time>
      </trkpt>
      <trkpt lat="45.09992" lon="2.83021">
        <ele>1080.2</ele>
        <time>2021-07-23T11:21:37Z</time>
      </trkpt>
      <trkpt lat="45.0999" lon="2.83013">
        <ele>1080.1</ele>
        <time>2021-07-23T11:21:39Z</time>
      </trkpt>
      <trkpt lat="45.09988" lon="2.83005">
        <ele>1079.9</ele>
        <time>2021-07-23T11:21:41Z</time>
      </trkpt>
      <trkpt lat="45.09985" lon="2.82997">
        <ele>1080.2</ele>
        <time>2021-07-23T11:21:43Z</time>
      </trkpt>
      <trkpt lat="45.09983" lon="2.8299">
        <ele>1080.6</ele>
        <time>2021-07-23T11:21:45Z</time>
      </trkpt>
      <trkpt lat="45.0998" lon="2.82983">
        <ele>1081.1</ele>
        <time>2021-07-23T11:21:47Z</time>
      </trkpt>
      <trkpt lat="45.09977" lon="2.82976">
        <ele>1081.5</ele>
        <time>2021-07-23T11:21:49Z</time>
      </trkpt>
      <trkpt lat="45.09976" lon="2.82968">
        <ele>1081.7</ele>
        <time>2021-07-23T11:21:51Z</time>
      </trkpt>
      <trkpt lat="45.09973" lon="2.8296">
        <ele>1082.2</ele>
        <time>2021-07-23T11:21:53Z</time>
      </trkpt>
      <trkpt lat="45.0997" lon="2.82953">
        <ele>1082.7</ele>
        <time>2021-07-23T11:21:55Z</time>
      </trkpt>
      <trkpt lat="45.09968" lon="2.82946">
        <ele>1082.9</ele>
        <time>2021-07-23T11:21:57Z</time>
      </trkpt>
      <trkpt lat="45.09965" lon="2.82937">
        <ele>1083.4</ele>
        <time>2021-07-23T11:21:59Z</time>
      </trkpt>
      <trkpt lat="45.09963" lon="2.82929">
        <ele>1083.8</ele>
        <time>2021-07-23T11:22:01Z</time>
      </trkpt>
      <trkpt lat="45.09961" lon="2.82921">
        <ele>1084</ele>
        <time>2021-07-23T11:22:03Z</time>
      </trkpt>
      <trkpt lat="45.09961" lon="2.82913">
        <ele>1083.9</ele>
        <time>2021-07-23T11:22:05Z</time>
      </trkpt>
      <trkpt lat="45.0996" lon="2.82905">
        <ele>1084.2</ele>
        <time>2021-07-23T11:22:07Z</time>
      </trkpt>
      <trkpt lat="45.09958" lon="2.82896">
        <ele>1084.6</ele>
        <time>2021-07-23T11:22:09Z</time>
      </trkpt>
      <trkpt lat="45.09957" lon="2.82887">
        <ele>1084.9</ele>
        <time>2021-07-23T11:22:11Z</time>
      </trkpt>
      <trkpt lat="45.09955" lon="2.82878">
        <ele>1085.1</ele>
        <time>2021-07-23T11:22:13Z</time>
      </trkpt>
      <trkpt lat="45.09952" lon="2.82869">
        <ele>1085.6</ele>
        <time>2021-07-23T11:22:15Z</time>
      </trkpt>
      <trkpt lat="45.0995" lon="2.82859">
        <ele>1086.1</ele>
        <time>2021-07-23T11:22:17Z</time>
      </trkpt>
      <trkpt lat="45.09949" lon="2.8285">
        <ele>1086.3</ele>
        <time>2021-07-23T11:22:19Z</time>
      </trkpt>
      <trkpt lat="45.09947" lon="2.82842">
        <ele>1086.6</ele>
        <time>2021-07-23T11:22:21Z</time>
      </trkpt>
      <trkpt lat="45.09944" lon="2.82833">
        <ele>1087</ele>
        <time>2021-07-23T11:22:23Z</time>
      </trkpt>
      <trkpt lat="45.09943" lon="2.82824">
        <ele>1087.3</ele>
        <time>2021-07-23T11:22:25Z</time>
      </trkpt>
      <trkpt lat="45.0994" lon="2.82815">
        <ele>1087.7</ele>
        <time>2021-07-23T11:22:27Z</time>
      </trkpt>
      <trkpt lat="45.09938" lon="2.82805">
        <ele>1088.1</ele>
        <time>2021-07-23T11:22:29Z</time>
      </trkpt>
      <trkpt lat="45.09937" lon="2.82796">
        <ele>1088.4</ele>
        <time>2021-07-23T11:22:31Z</time>
      </trkpt>
      <trkpt lat="45.09935" lon="2.82787">
        <ele>1088.6</ele>
        <time>2021-07-23T11:22:33Z</time>
      </trkpt>
      <trkpt lat="45.09933" lon="2.82778">
        <ele>1089</ele>
        <time>2021-07-23T11:22:35Z</time>
      </trkpt>
      <trkpt lat="45.09931" lon="2.8277">
        <ele>1089.4</ele>
        <time>2021-07-23T11:22:37Z</time>
      </trkpt>
      <trkpt lat="45.09929" lon="2.82761">
        <ele>1089.8</ele>
        <time>2021-07-23T11:22:39Z</time>
      </trkpt>
      <trkpt lat="45.09927" lon="2.82753">
        <ele>1090.1</ele>
        <time>2021-07-23T11:22:41Z</time>
      </trkpt>
      <trkpt lat="45.09926" lon="2.82744">
        <ele>1090.1</ele>
        <time>2021-07-23T11:22:43Z</time>
      </trkpt>
      <trkpt lat="45.09925" lon="2.82736">
        <ele>1090</ele>
        <time>2021-07-23T11:22:45Z</time>
      </trkpt>
      <trkpt lat="45.09923" lon="2.82727">
        <ele>1089.9</ele>
        <time>2021-07-23T11:22:47Z</time>
      </trkpt>
      <trkpt lat="45.09921" lon="2.82719">
        <ele>1089.8</ele>
        <time>2021-07-23T11:22:49Z</time>
      </trkpt>
      <trkpt lat="45.09919" lon="2.82711">
        <ele>1089.7</ele>
        <time>2021-07-23T11:22:51Z</time>
      </trkpt>
      <trkpt lat="45.09917" lon="2.82702">
        <ele>1089.6</ele>
        <time>2021-07-23T11:22:53Z</time>
      </trkpt>
      <trkpt lat="45.09914" lon="2.82693">
        <ele>1089.7</ele>
        <time>2021-07-23T11:22:55Z</time>
      </trkpt>
      <trkpt lat="45.09913" lon="2.82684">
        <ele>1089.7</ele>
        <time>2021-07-23T11:22:57Z</time>
      </trkpt>
      <trkpt lat="45.09911" lon="2.82675">
        <ele>1089.6</ele>
        <time>2021-07-23T11:22:59Z</time>
      </trkpt>
      <trkpt lat="45.0991" lon="2.82666">
        <ele>1089.4</ele>
        <time>2021-07-23T11:23:01Z</time>
      </trkpt>
      <trkpt lat="45.09909" lon="2.82657">
        <ele>1089.3</ele>
        <time>2021-07-23T11:23:03Z</time>
      </trkpt>
      <trkpt lat="45.09907" lon="2.82648">
        <ele>1089.2</ele>
        <time>2021-07-23T11:23:05Z</time>
      </trkpt>
      <trkpt lat="45.09905" lon="2.82639">
        <ele>1089.2</ele>
        <time>2021-07-23T11:23:07Z</time>
      </trkpt>
      <trkpt lat="45.09903" lon="2.82631">
        <ele>1089.2</ele>
        <time>2021-07-23T11:23:09Z</time>
      </trkpt>
      <trkpt lat="45.09901" lon="2.82623">
        <ele>1089.3</ele>
        <time>2021-07-23T11:23:11Z</time>
      </trkpt>
      <trkpt lat="45.09898" lon="2.82615">
        <ele>1089.4</ele>
        <time>2021-07-23T11:23:13Z</time>
      </trkpt>
      <trkpt lat="45.09895" lon="2.82608">
        <ele>1089.6</ele>
        <time>2021-07-23T11:23:15Z</time>
      </trkpt>
      <trkpt lat="45.09891" lon="2.826">
        <ele>1089.8</ele>
        <time>2021-07-23T11:23:17Z</time>
      </trkpt>
      <trkpt lat="45.09888" lon="2.82592">
        <ele>1090</ele>
        <time>2021-07-23T11:23:19Z</time>
      </trkpt>
      <trkpt lat="45.09884" lon="2.82585">
        <ele>1090.3</ele>
        <time>2021-07-23T11:23:21Z</time>
      </trkpt>
      <trkpt lat="45.09881" lon="2.82576">
        <ele>1090.4</ele>
        <time>2021-07-23T11:23:23Z</time>
      </trkpt>
      <trkpt lat="45.09878" lon="2.82568">
        <ele>1090.6</ele>
        <time>2021-07-23T11:23:25Z</time>
      </trkpt>
      <trkpt lat="45.09874" lon="2.8256">
        <ele>1090.9</ele>
        <time>2021-07-23T11:23:27Z</time>
      </trkpt>
      <trkpt lat="45.0987" lon="2.82552">
        <ele>1091.2</ele>
        <time>2021-07-23T11:23:29Z</time>
      </trkpt>
      <trkpt lat="45.09866" lon="2.82545">
        <ele>1091.5</ele>
        <time>2021-07-23T11:23:31Z</time>
      </trkpt>
      <trkpt lat="45.09863" lon="2.82537">
        <ele>1091.6</ele>
        <time>2021-07-23T11:23:33Z</time>
      </trkpt>
      <trkpt lat="45.09859" lon="2.8253">
        <ele>1091.7</ele>
        <time>2021-07-23T11:23:35Z</time>
      </trkpt>
      <trkpt lat="45.09856" lon="2.82522">
        <ele>1091.9</ele>
        <time>2021-07-23T11:23:37Z</time>
      </trkpt>
      <trkpt lat="45.09853" lon="2.82514">
        <ele>1091.8</ele>
        <time>2021-07-23T11:23:39Z</time>
      </trkpt>
      <trkpt lat="45.09851" lon="2.82508">
        <ele>1091.8</ele>
        <time>2021-07-23T11:23:41Z</time>
      </trkpt>
      <trkpt lat="45.09848" lon="2.82502">
        <ele>1091.8</ele>
        <time>2021-07-23T11:23:43Z</time>
      </trkpt>
      <trkpt lat="45.09845" lon="2.82495">
        <ele>1091.9</ele>
        <time>2021-07-23T11:23:45Z</time>
      </trkpt>
      <trkpt lat="45.09841" lon="2.82489">
        <ele>1092.1</ele>
        <time>2021-07-23T11:23:47Z</time>
      </trkpt>
      <trkpt lat="45.09837" lon="2.82481">
        <ele>1092.1</ele>
        <time>2021-07-23T11:23:49Z</time>
      </trkpt>
      <trkpt lat="45.09834" lon="2.82475">
        <ele>1092.1</ele>
        <time>2021-07-23T11:23:51Z</time>
      </trkpt>
      <trkpt lat="45.09831" lon="2.8247">
        <ele>1092.7</ele>
        <time>2021-07-23T11:23:53Z</time>
      </trkpt>
      <trkpt lat="45.09826" lon="2.82463">
        <ele>1093.9</ele>
        <time>2021-07-23T11:23:55Z</time>
      </trkpt>
      <trkpt lat="45.09822" lon="2.82456">
        <ele>1094.9</ele>
        <time>2021-07-23T11:23:57Z</time>
      </trkpt>
      <trkpt lat="45.09815" lon="2.82445">
        <ele>1096.5</ele>
        <time>2021-07-23T11:24:01Z</time>
      </trkpt>
      <trkpt lat="45.09813" lon="2.82438">
        <ele>1096.5</ele>
        <time>2021-07-23T11:24:03Z</time>
      </trkpt>
      <trkpt lat="45.0981" lon="2.82431">
        <ele>1097.1</ele>
        <time>2021-07-23T11:24:05Z</time>
      </trkpt>
      <trkpt lat="45.09805" lon="2.82418">
        <ele>1097.6</ele>
        <time>2021-07-23T11:24:09Z</time>
      </trkpt>
      <trkpt lat="45.09802" lon="2.82411">
        <ele>1098.1</ele>
        <time>2021-07-23T11:24:11Z</time>
      </trkpt>
      <trkpt lat="45.098" lon="2.82405">
        <ele>1098.5</ele>
        <time>2021-07-23T11:24:13Z</time>
      </trkpt>
      <trkpt lat="45.09798" lon="2.82398">
        <ele>1098.8</ele>
        <time>2021-07-23T11:24:15Z</time>
      </trkpt>
      <trkpt lat="45.09796" lon="2.82391">
        <ele>1099</ele>
        <time>2021-07-23T11:24:17Z</time>
      </trkpt>
      <trkpt lat="45.09794" lon="2.82386">
        <ele>1099.2</ele>
        <time>2021-07-23T11:24:19Z</time>
      </trkpt>
      <trkpt lat="45.09792" lon="2.8238">
        <ele>1099.4</ele>
        <time>2021-07-23T11:24:21Z</time>
      </trkpt>
      <trkpt lat="45.09789" lon="2.82374">
        <ele>1099.8</ele>
        <time>2021-07-23T11:24:23Z</time>
      </trkpt>
      <trkpt lat="45.09785" lon="2.82367">
        <ele>1100.7</ele>
        <time>2021-07-23T11:24:25Z</time>
      </trkpt>
      <trkpt lat="45.09781" lon="2.82361">
        <ele>1101.4</ele>
        <time>2021-07-23T11:24:27Z</time>
      </trkpt>
      <trkpt lat="45.09778" lon="2.82349">
        <ele>1101.4</ele>
        <time>2021-07-23T11:24:31Z</time>
      </trkpt>
      <trkpt lat="45.09774" lon="2.82339">
        <ele>1101.8</ele>
        <time>2021-07-23T11:24:35Z</time>
      </trkpt>
      <trkpt lat="45.0977" lon="2.82333">
        <ele>1102.6</ele>
        <time>2021-07-23T11:24:37Z</time>
      </trkpt>
      <trkpt lat="45.09765" lon="2.82328">
        <ele>1103.4</ele>
        <time>2021-07-23T11:24:39Z</time>
      </trkpt>
      <trkpt lat="45.09762" lon="2.82322">
        <ele>1104</ele>
        <time>2021-07-23T11:24:41Z</time>
      </trkpt>
      <trkpt lat="45.0976" lon="2.8231">
        <ele>1103.9</ele>
        <time>2021-07-23T11:24:45Z</time>
      </trkpt>
      <trkpt lat="45.09755" lon="2.82305">
        <ele>1104.8</ele>
        <time>2021-07-23T11:24:47Z</time>
      </trkpt>
      <trkpt lat="45.09753" lon="2.82298">
        <ele>1104.8</ele>
        <time>2021-07-23T11:24:49Z</time>
      </trkpt>
      <trkpt lat="45.09749" lon="2.82294">
        <ele>1105.5</ele>
        <time>2021-07-23T11:24:51Z</time>
      </trkpt>
      <trkpt lat="45.09746" lon="2.82289">
        <ele>1106</ele>
        <time>2021-07-23T11:24:53Z</time>
      </trkpt>
      <trkpt lat="45.09745" lon="2.82282">
        <ele>1105.8</ele>
        <time>2021-07-23T11:24:55Z</time>
      </trkpt>
      <trkpt lat="45.09743" lon="2.82275">
        <ele>1106</ele>
        <time>2021-07-23T11:24:57Z</time>
      </trkpt>
      <trkpt lat="45.0974" lon="2.82268">
        <ele>1106.3</ele>
        <time>2021-07-23T11:24:59Z</time>
      </trkpt>
      <trkpt lat="45.09735" lon="2.82257">
        <ele>1107.1</ele>
        <time>2021-07-23T11:25:03Z</time>
      </trkpt>
      <trkpt lat="45.09731" lon="2.82245">
        <ele>1107.1</ele>
        <time>2021-07-23T11:25:07Z</time>
      </trkpt>
      <trkpt lat="45.09729" lon="2.82239">
        <ele>1107.2</ele>
        <time>2021-07-23T11:25:09Z</time>
      </trkpt>
      <trkpt lat="45.09727" lon="2.82232">
        <ele>1107</ele>
        <time>2021-07-23T11:25:11Z</time>
      </trkpt>
      <trkpt lat="45.09724" lon="2.82219">
        <ele>1106.8</ele>
        <time>2021-07-23T11:25:15Z</time>
      </trkpt>
      <trkpt lat="45.09722" lon="2.82212">
        <ele>1106.9</ele>
        <time>2021-07-23T11:25:17Z</time>
      </trkpt>
      <trkpt lat="45.09721" lon="2.82206">
        <ele>1106.5</ele>
        <time>2021-07-23T11:25:19Z</time>
      </trkpt>
      <trkpt lat="45.0972" lon="2.82199">
        <ele>1106.1</ele>
        <time>2021-07-23T11:25:21Z</time>
      </trkpt>
      <trkpt lat="45.09718" lon="2.82192">
        <ele>1105.9</ele>
        <time>2021-07-23T11:25:23Z</time>
      </trkpt>
      <trkpt lat="45.09716" lon="2.82185">
        <ele>1106</ele>
        <time>2021-07-23T11:25:25Z</time>
      </trkpt>
      <trkpt lat="45.09714" lon="2.82179">
        <ele>1105.8</ele>
        <time>2021-07-23T11:25:27Z</time>
      </trkpt>
      <trkpt lat="45.09713" lon="2.82166">
        <ele>1105.2</ele>
        <time>2021-07-23T11:25:31Z</time>
      </trkpt>
      <trkpt lat="45.0971" lon="2.8216">
        <ele>1105.7</ele>
        <time>2021-07-23T11:25:33Z</time>
      </trkpt>
      <trkpt lat="45.09708" lon="2.82154">
        <ele>1105.9</ele>
        <time>2021-07-23T11:25:35Z</time>
      </trkpt>
      <trkpt lat="45.09705" lon="2.82148">
        <ele>1106.3</ele>
        <time>2021-07-23T11:25:37Z</time>
      </trkpt>
      <trkpt lat="45.09703" lon="2.82142">
        <ele>1106.6</ele>
        <time>2021-07-23T11:25:39Z</time>
      </trkpt>
      <trkpt lat="45.09701" lon="2.82136">
        <ele>1106.8</ele>
        <time>2021-07-23T11:25:41Z</time>
      </trkpt>
      <trkpt lat="45.09698" lon="2.82129">
        <ele>1107.2</ele>
        <time>2021-07-23T11:25:43Z</time>
      </trkpt>
      <trkpt lat="45.09695" lon="2.82123">
        <ele>1107.5</ele>
        <time>2021-07-23T11:25:45Z</time>
      </trkpt>
      <trkpt lat="45.09692" lon="2.82117">
        <ele>1107.7</ele>
        <time>2021-07-23T11:25:47Z</time>
      </trkpt>
      <trkpt lat="45.09688" lon="2.82106">
        <ele>1107.8</ele>
        <time>2021-07-23T11:25:51Z</time>
      </trkpt>
      <trkpt lat="45.09685" lon="2.821">
        <ele>1108</ele>
        <time>2021-07-23T11:25:53Z</time>
      </trkpt>
      <trkpt lat="45.09682" lon="2.82094">
        <ele>1108.1</ele>
        <time>2021-07-23T11:25:55Z</time>
      </trkpt>
      <trkpt lat="45.09675" lon="2.82086">
        <ele>1108.6</ele>
        <time>2021-07-23T11:25:59Z</time>
      </trkpt>
      <trkpt lat="45.09672" lon="2.82081">
        <ele>1108.8</ele>
        <time>2021-07-23T11:26:01Z</time>
      </trkpt>
      <trkpt lat="45.09668" lon="2.82076">
        <ele>1109.1</ele>
        <time>2021-07-23T11:26:03Z</time>
      </trkpt>
      <trkpt lat="45.09665" lon="2.82072">
        <ele>1109.4</ele>
        <time>2021-07-23T11:26:05Z</time>
      </trkpt>
      <trkpt lat="45.09662" lon="2.82067">
        <ele>1110</ele>
        <time>2021-07-23T11:26:07Z</time>
      </trkpt>
      <trkpt lat="45.09658" lon="2.82062">
        <ele>1110.6</ele>
        <time>2021-07-23T11:26:09Z</time>
      </trkpt>
      <trkpt lat="45.09654" lon="2.82058">
        <ele>1111.1</ele>
        <time>2021-07-23T11:26:11Z</time>
      </trkpt>
      <trkpt lat="45.09651" lon="2.82052">
        <ele>1111.6</ele>
        <time>2021-07-23T11:26:13Z</time>
      </trkpt>
      <trkpt lat="45.09647" lon="2.82048">
        <ele>1112</ele>
        <time>2021-07-23T11:26:15Z</time>
      </trkpt>
      <trkpt lat="45.09645" lon="2.82042">
        <ele>1112.1</ele>
        <time>2021-07-23T11:26:17Z</time>
      </trkpt>
      <trkpt lat="45.09642" lon="2.82036">
        <ele>1112.5</ele>
        <time>2021-07-23T11:26:19Z</time>
      </trkpt>
      <trkpt lat="45.09639" lon="2.82031">
        <ele>1112.7</ele>
        <time>2021-07-23T11:26:21Z</time>
      </trkpt>
      <trkpt lat="45.09636" lon="2.82025">
        <ele>1112.8</ele>
        <time>2021-07-23T11:26:23Z</time>
      </trkpt>
      <trkpt lat="45.09633" lon="2.82019">
        <ele>1112.9</ele>
        <time>2021-07-23T11:26:25Z</time>
      </trkpt>
      <trkpt lat="45.09631" lon="2.82013">
        <ele>1113</ele>
        <time>2021-07-23T11:26:27Z</time>
      </trkpt>
      <trkpt lat="45.09628" lon="2.82007">
        <ele>1112.9</ele>
        <time>2021-07-23T11:26:29Z</time>
      </trkpt>
      <trkpt lat="45.09626" lon="2.82002">
        <ele>1113</ele>
        <time>2021-07-23T11:26:31Z</time>
      </trkpt>
      <trkpt lat="45.09623" lon="2.81996">
        <ele>1113.1</ele>
        <time>2021-07-23T11:26:33Z</time>
      </trkpt>
      <trkpt lat="45.09621" lon="2.8199">
        <ele>1113.2</ele>
        <time>2021-07-23T11:26:35Z</time>
      </trkpt>
      <trkpt lat="45.09619" lon="2.81978">
        <ele>1112.7</ele>
        <time>2021-07-23T11:26:39Z</time>
      </trkpt>
      <trkpt lat="45.09618" lon="2.81972">
        <ele>1112.4</ele>
        <time>2021-07-23T11:26:41Z</time>
      </trkpt>
      <trkpt lat="45.09616" lon="2.8196">
        <ele>1111.8</ele>
        <time>2021-07-23T11:26:45Z</time>
      </trkpt>
      <trkpt lat="45.09615" lon="2.81954">
        <ele>1111.3</ele>
        <time>2021-07-23T11:26:47Z</time>
      </trkpt>
      <trkpt lat="45.09614" lon="2.81947">
        <ele>1110.9</ele>
        <time>2021-07-23T11:26:49Z</time>
      </trkpt>
      <trkpt lat="45.09612" lon="2.81941">
        <ele>1110.5</ele>
        <time>2021-07-23T11:26:51Z</time>
      </trkpt>
      <trkpt lat="45.0961" lon="2.81935">
        <ele>1110.3</ele>
        <time>2021-07-23T11:26:53Z</time>
      </trkpt>
      <trkpt lat="45.09608" lon="2.81928">
        <ele>1109.8</ele>
        <time>2021-07-23T11:26:55Z</time>
      </trkpt>
      <trkpt lat="45.09606" lon="2.81921">
        <ele>1109.4</ele>
        <time>2021-07-23T11:26:57Z</time>
      </trkpt>
      <trkpt lat="45.096" lon="2.81913">
        <ele>1109.1</ele>
        <time>2021-07-23T11:27:01Z</time>
      </trkpt>
      <trkpt lat="45.09594" lon="2.81906">
        <ele>1109.2</ele>
        <time>2021-07-23T11:27:05Z</time>
      </trkpt>
      <trkpt lat="45.09589" lon="2.81899">
        <ele>1109.1</ele>
        <time>2021-07-23T11:27:09Z</time>
      </trkpt>
      <trkpt lat="45.09585" lon="2.81891">
        <ele>1108.8</ele>
        <time>2021-07-23T11:27:13Z</time>
      </trkpt>
      <trkpt lat="45.0958" lon="2.81884">
        <ele>1108.9</ele>
        <time>2021-07-23T11:27:17Z</time>
      </trkpt>
      <trkpt lat="45.09578" lon="2.81876">
        <ele>1108.9</ele>
        <time>2021-07-23T11:27:21Z</time>
      </trkpt>
      <trkpt lat="45.09573" lon="2.81869">
        <ele>1109.5</ele>
        <time>2021-07-23T11:27:25Z</time>
      </trkpt>
      <trkpt lat="45.09571" lon="2.81863">
        <ele>1109.5</ele>
        <time>2021-07-23T11:27:29Z</time>
      </trkpt>
      <trkpt lat="45.09568" lon="2.81858">
        <ele>1109.6</ele>
        <time>2021-07-23T11:27:31Z</time>
      </trkpt>
      <trkpt lat="45.09564" lon="2.81854">
        <ele>1110.1</ele>
        <time>2021-07-23T11:27:33Z</time>
      </trkpt>
      <trkpt lat="45.0956" lon="2.81846">
        <ele>1110.6</ele>
        <time>2021-07-23T11:27:37Z</time>
      </trkpt>
      <trkpt lat="45.09557" lon="2.81839">
        <ele>1110.5</ele>
        <time>2021-07-23T11:27:41Z</time>
      </trkpt>
      <trkpt lat="45.09552" lon="2.81831">
        <ele>1111.1</ele>
        <time>2021-07-23T11:27:45Z</time>
      </trkpt>
      <trkpt lat="45.09548" lon="2.81824">
        <ele>1112</ele>
        <time>2021-07-23T11:27:49Z</time>
      </trkpt>
      <trkpt lat="45.09542" lon="2.81818">
        <ele>1113.2</ele>
        <time>2021-07-23T11:27:53Z</time>
      </trkpt>
      <trkpt lat="45.09539" lon="2.81813">
        <ele>1113.9</ele>
        <time>2021-07-23T11:27:55Z</time>
      </trkpt>
      <trkpt lat="45.09534" lon="2.81806">
        <ele>1114.9</ele>
        <time>2021-07-23T11:27:59Z</time>
      </trkpt>
      <trkpt lat="45.09528" lon="2.81798">
        <ele>1115.8</ele>
        <time>2021-07-23T11:28:03Z</time>
      </trkpt>
      <trkpt lat="45.09523" lon="2.81791">
        <ele>1116.4</ele>
        <time>2021-07-23T11:28:07Z</time>
      </trkpt>
      <trkpt lat="45.09518" lon="2.81786">
        <ele>1117.1</ele>
        <time>2021-07-23T11:28:11Z</time>
      </trkpt>
      <trkpt lat="45.09514" lon="2.81781">
        <ele>1117.6</ele>
        <time>2021-07-23T11:28:15Z</time>
      </trkpt>
      <trkpt lat="45.09509" lon="2.81775">
        <ele>1118.2</ele>
        <time>2021-07-23T11:28:21Z</time>
      </trkpt>
      <trkpt lat="45.09503" lon="2.81769">
        <ele>1118.7</ele>
        <time>2021-07-23T11:28:25Z</time>
      </trkpt>
      <trkpt lat="45.09498" lon="2.81763">
        <ele>1119.3</ele>
        <time>2021-07-23T11:28:31Z</time>
      </trkpt>
      <trkpt lat="45.09493" lon="2.81756">
        <ele>1119.7</ele>
        <time>2021-07-23T11:28:35Z</time>
      </trkpt>
      <trkpt lat="45.0949" lon="2.81749">
        <ele>1119.8</ele>
        <time>2021-07-23T11:28:39Z</time>
      </trkpt>
      <trkpt lat="45.09487" lon="2.8174">
        <ele>1120.1</ele>
        <time>2021-07-23T11:28:45Z</time>
      </trkpt>
      <trkpt lat="45.0948" lon="2.81732">
        <ele>1121.2</ele>
        <time>2021-07-23T11:28:49Z</time>
      </trkpt>
      <trkpt lat="45.09476" lon="2.81723">
        <ele>1121.7</ele>
        <time>2021-07-23T11:28:53Z</time>
      </trkpt>
      <trkpt lat="45.09472" lon="2.81715">
        <ele>1122.1</ele>
        <time>2021-07-23T11:28:57Z</time>
      </trkpt>
      <trkpt lat="45.09468" lon="2.81712">
        <ele>1122.7</ele>
        <time>2021-07-23T11:28:59Z</time>
      </trkpt>
      <trkpt lat="45.09462" lon="2.81703">
        <ele>1123.5</ele>
        <time>2021-07-23T11:29:03Z</time>
      </trkpt>
      <trkpt lat="45.09456" lon="2.81695">
        <ele>1124.2</ele>
        <time>2021-07-23T11:29:07Z</time>
      </trkpt>
      <trkpt lat="45.0945" lon="2.81687">
        <ele>1125</ele>
        <time>2021-07-23T11:29:11Z</time>
      </trkpt>
      <trkpt lat="45.09445" lon="2.81683">
        <ele>1125.4</ele>
        <time>2021-07-23T11:29:13Z</time>
      </trkpt>
      <trkpt lat="45.09442" lon="2.81677">
        <ele>1125.7</ele>
        <time>2021-07-23T11:29:15Z</time>
      </trkpt>
      <trkpt lat="45.09439" lon="2.81673">
        <ele>1126</ele>
        <time>2021-07-23T11:29:17Z</time>
      </trkpt>
      <trkpt lat="45.09436" lon="2.81669">
        <ele>1126.4</ele>
        <time>2021-07-23T11:29:19Z</time>
      </trkpt>
      <trkpt lat="45.09432" lon="2.81665">
        <ele>1126.6</ele>
        <time>2021-07-23T11:29:21Z</time>
      </trkpt>
      <trkpt lat="45.09425" lon="2.81658">
        <ele>1127</ele>
        <time>2021-07-23T11:29:25Z</time>
      </trkpt>
      <trkpt lat="45.09421" lon="2.81652">
        <ele>1127</ele>
        <time>2021-07-23T11:29:29Z</time>
      </trkpt>
      <trkpt lat="45.09416" lon="2.81647">
        <ele>1127.1</ele>
        <time>2021-07-23T11:29:33Z</time>
      </trkpt>
      <trkpt lat="45.09411" lon="2.81642">
        <ele>1127.6</ele>
        <time>2021-07-23T11:29:37Z</time>
      </trkpt>
      <trkpt lat="45.09406" lon="2.81636">
        <ele>1128.1</ele>
        <time>2021-07-23T11:29:41Z</time>
      </trkpt>
      <trkpt lat="45.09401" lon="2.81629">
        <ele>1128.3</ele>
        <time>2021-07-23T11:29:45Z</time>
      </trkpt>
      <trkpt lat="45.09398" lon="2.81623">
        <ele>1128.3</ele>
        <time>2021-07-23T11:29:49Z</time>
      </trkpt>
      <trkpt lat="45.09393" lon="2.81618">
        <ele>1128.8</ele>
        <time>2021-07-23T11:29:53Z</time>
      </trkpt>
      <trkpt lat="45.09389" lon="2.81614">
        <ele>1129.1</ele>
        <time>2021-07-23T11:29:55Z</time>
      </trkpt>
      <trkpt lat="45.09383" lon="2.81608">
        <ele>1129.5</ele>
        <time>2021-07-23T11:29:59Z</time>
      </trkpt>
      <trkpt lat="45.09378" lon="2.81602">
        <ele>1129.9</ele>
        <time>2021-07-23T11:30:03Z</time>
      </trkpt>
      <trkpt lat="45.09372" lon="2.81593">
        <ele>1130.1</ele>
        <time>2021-07-23T11:30:07Z</time>
      </trkpt>
      <trkpt lat="45.09367" lon="2.81585">
        <ele>1130.2</ele>
        <time>2021-07-23T11:30:11Z</time>
      </trkpt>
      <trkpt lat="45.09361" lon="2.81582">
        <ele>1131</ele>
        <time>2021-07-23T11:30:17Z</time>
      </trkpt>
      <trkpt lat="45.09357" lon="2.81578">
        <ele>1131.4</ele>
        <time>2021-07-23T11:30:19Z</time>
      </trkpt>
      <trkpt lat="45.09353" lon="2.81575">
        <ele>1131.9</ele>
        <time>2021-07-23T11:30:21Z</time>
      </trkpt>
      <trkpt lat="45.09346" lon="2.81569">
        <ele>1132.7</ele>
        <time>2021-07-23T11:30:25Z</time>
      </trkpt>
      <trkpt lat="45.09341" lon="2.81565">
        <ele>1133.3</ele>
        <time>2021-07-23T11:30:29Z</time>
      </trkpt>
      <trkpt lat="45.09337" lon="2.81561">
        <ele>1133.5</ele>
        <time>2021-07-23T11:30:33Z</time>
      </trkpt>
      <trkpt lat="45.09332" lon="2.81556">
        <ele>1134</ele>
        <time>2021-07-23T11:30:37Z</time>
      </trkpt>
      <trkpt lat="45.09323" lon="2.81548">
        <ele>1136.1</ele>
        <time>2021-07-23T11:30:41Z</time>
      </trkpt>
      <trkpt lat="45.09318" lon="2.81542">
        <ele>1137.1</ele>
        <time>2021-07-23T11:30:43Z</time>
      </trkpt>
      <trkpt lat="45.09312" lon="2.81531">
        <ele>1138.1</ele>
        <time>2021-07-23T11:30:47Z</time>
      </trkpt>
      <trkpt lat="45.09309" lon="2.81525">
        <ele>1138.6</ele>
        <time>2021-07-23T11:30:49Z</time>
      </trkpt>
      <trkpt lat="45.09304" lon="2.81518">
        <ele>1139.7</ele>
        <time>2021-07-23T11:30:51Z</time>
      </trkpt>
      <trkpt lat="45.093" lon="2.81511">
        <ele>1140.3</ele>
        <time>2021-07-23T11:30:53Z</time>
      </trkpt>
      <trkpt lat="45.09297" lon="2.81504">
        <ele>1140.7</ele>
        <time>2021-07-23T11:30:55Z</time>
      </trkpt>
      <trkpt lat="45.09294" lon="2.81498">
        <ele>1141.3</ele>
        <time>2021-07-23T11:30:57Z</time>
      </trkpt>
      <trkpt lat="45.09294" lon="2.81491">
        <ele>1141.7</ele>
        <time>2021-07-23T11:30:59Z</time>
      </trkpt>
      <trkpt lat="45.09293" lon="2.8148">
        <ele>1142.7</ele>
        <time>2021-07-23T11:31:03Z</time>
      </trkpt>
      <trkpt lat="45.09292" lon="2.81467">
        <ele>1143.3</ele>
        <time>2021-07-23T11:31:07Z</time>
      </trkpt>
      <trkpt lat="45.09293" lon="2.81456">
        <ele>1143.8</ele>
        <time>2021-07-23T11:31:11Z</time>
      </trkpt>
      <trkpt lat="45.09293" lon="2.81449">
        <ele>1144.1</ele>
        <time>2021-07-23T11:31:13Z</time>
      </trkpt>
      <trkpt lat="45.0929" lon="2.81442">
        <ele>1145.1</ele>
        <time>2021-07-23T11:31:15Z</time>
      </trkpt>
      <trkpt lat="45.0929" lon="2.81432">
        <ele>1145.7</ele>
        <time>2021-07-23T11:31:19Z</time>
      </trkpt>
      <trkpt lat="45.09286" lon="2.81425">
        <ele>1147.1</ele>
        <time>2021-07-23T11:31:25Z</time>
      </trkpt>
      <trkpt lat="45.09283" lon="2.81418">
        <ele>1148.1</ele>
        <time>2021-07-23T11:31:29Z</time>
      </trkpt>
      <trkpt lat="45.0928" lon="2.81411">
        <ele>1149.2</ele>
        <time>2021-07-23T11:31:33Z</time>
      </trkpt>
      <trkpt lat="45.09274" lon="2.81408">
        <ele>1150.6</ele>
        <time>2021-07-23T11:31:37Z</time>
      </trkpt>
      <trkpt lat="45.09268" lon="2.81408">
        <ele>1152.2</ele>
        <time>2021-07-23T11:31:41Z</time>
      </trkpt>
      <trkpt lat="45.09262" lon="2.8141">
        <ele>1153.8</ele>
        <time>2021-07-23T11:31:45Z</time>
      </trkpt>
      <trkpt lat="45.09257" lon="2.81416">
        <ele>1155.1</ele>
        <time>2021-07-23T11:31:49Z</time>
      </trkpt>
      <trkpt lat="45.09255" lon="2.81422">
        <ele>1155.4</ele>
        <time>2021-07-23T11:31:53Z</time>
      </trkpt>
      <trkpt lat="45.09257" lon="2.81433">
        <ele>1154.7</ele>
        <time>2021-07-23T11:31:59Z</time>
      </trkpt>
      <trkpt lat="45.09254" lon="2.8144">
        <ele>1155.5</ele>
        <time>2021-07-23T11:32:03Z</time>
      </trkpt>
      <trkpt lat="45.09252" lon="2.81449">
        <ele>1155.7</ele>
        <time>2021-07-23T11:32:07Z</time>
      </trkpt>
      <trkpt lat="45.09247" lon="2.81458">
        <ele>1156.8</ele>
        <time>2021-07-23T11:32:11Z</time>
      </trkpt>
      <trkpt lat="45.09244" lon="2.81462">
        <ele>1158</ele>
        <time>2021-07-23T11:32:13Z</time>
      </trkpt>
      <trkpt lat="45.09242" lon="2.8147">
        <ele>1158.3</ele>
        <time>2021-07-23T11:32:17Z</time>
      </trkpt>
      <trkpt lat="45.09241" lon="2.81478">
        <ele>1158.7</ele>
        <time>2021-07-23T11:32:21Z</time>
      </trkpt>
      <trkpt lat="45.09239" lon="2.81486">
        <ele>1158.9</ele>
        <time>2021-07-23T11:32:25Z</time>
      </trkpt>
      <trkpt lat="45.09238" lon="2.81493">
        <ele>1159.3</ele>
        <time>2021-07-23T11:32:29Z</time>
      </trkpt>
      <trkpt lat="45.09237" lon="2.81502">
        <ele>1159.4</ele>
        <time>2021-07-23T11:32:33Z</time>
      </trkpt>
      <trkpt lat="45.09237" lon="2.8151">
        <ele>1160.1</ele>
        <time>2021-07-23T11:32:37Z</time>
      </trkpt>
      <trkpt lat="45.09238" lon="2.81519">
        <ele>1160.5</ele>
        <time>2021-07-23T11:32:41Z</time>
      </trkpt>
      <trkpt lat="45.09234" lon="2.81526">
        <ele>1162</ele>
        <time>2021-07-23T11:32:45Z</time>
      </trkpt>
      <trkpt lat="45.0923" lon="2.81533">
        <ele>1163.8</ele>
        <time>2021-07-23T11:32:49Z</time>
      </trkpt>
      <trkpt lat="45.09226" lon="2.81539">
        <ele>1165.7</ele>
        <time>2021-07-23T11:32:55Z</time>
      </trkpt>
      <trkpt lat="45.09221" lon="2.81539">
        <ele>1167.4</ele>
        <time>2021-07-23T11:33:01Z</time>
      </trkpt>
      <trkpt lat="45.09221" lon="2.81532">
        <ele>1166.9</ele>
        <time>2021-07-23T11:33:05Z</time>
      </trkpt>
      <trkpt lat="45.09223" lon="2.81524">
        <ele>1165.6</ele>
        <time>2021-07-23T11:33:09Z</time>
      </trkpt>
      <trkpt lat="45.09224" lon="2.81515">
        <ele>1164.8</ele>
        <time>2021-07-23T11:33:13Z</time>
      </trkpt>
      <trkpt lat="45.09222" lon="2.81507">
        <ele>1164.7</ele>
        <time>2021-07-23T11:33:17Z</time>
      </trkpt>
      <trkpt lat="45.09221" lon="2.81499">
        <ele>1164.8</ele>
        <time>2021-07-23T11:33:21Z</time>
      </trkpt>
      <trkpt lat="45.09223" lon="2.81493">
        <ele>1164.3</ele>
        <time>2021-07-23T11:33:27Z</time>
      </trkpt>
      <trkpt lat="45.0922" lon="2.81488">
        <ele>1165.3</ele>
        <time>2021-07-23T11:33:31Z</time>
      </trkpt>
      <trkpt lat="45.09219" lon="2.81481">
        <ele>1165.9</ele>
        <time>2021-07-23T11:33:35Z</time>
      </trkpt>
      <trkpt lat="45.09213" lon="2.81473">
        <ele>1168</ele>
        <time>2021-07-23T11:33:41Z</time>
      </trkpt>
      <trkpt lat="45.09211" lon="2.81466">
        <ele>1168.6</ele>
        <time>2021-07-23T11:33:45Z</time>
      </trkpt>
      <trkpt lat="45.09206" lon="2.8146">
        <ele>1170.4</ele>
        <time>2021-07-23T11:33:51Z</time>
      </trkpt>
      <trkpt lat="45.09205" lon="2.81452">
        <ele>1171</ele>
        <time>2021-07-23T11:33:55Z</time>
      </trkpt>
      <trkpt lat="45.09203" lon="2.81444">
        <ele>1171.7</ele>
        <time>2021-07-23T11:33:59Z</time>
      </trkpt>
      <trkpt lat="45.09201" lon="2.81435">
        <ele>1172.6</ele>
        <time>2021-07-23T11:34:03Z</time>
      </trkpt>
      <trkpt lat="45.09201" lon="2.81428">
        <ele>1172.6</ele>
        <time>2021-07-23T11:34:07Z</time>
      </trkpt>
      <trkpt lat="45.09202" lon="2.8142">
        <ele>1172.6</ele>
        <time>2021-07-23T11:34:11Z</time>
      </trkpt>
      <trkpt lat="45.09202" lon="2.81412">
        <ele>1172.6</ele>
        <time>2021-07-23T11:34:15Z</time>
      </trkpt>
      <trkpt lat="45.09202" lon="2.81405">
        <ele>1172.7</ele>
        <time>2021-07-23T11:34:19Z</time>
      </trkpt>
      <trkpt lat="45.09203" lon="2.81397">
        <ele>1172.5</ele>
        <time>2021-07-23T11:34:23Z</time>
      </trkpt>
      <trkpt lat="45.09204" lon="2.81389">
        <ele>1172.1</ele>
        <time>2021-07-23T11:34:27Z</time>
      </trkpt>
      <trkpt lat="45.09202" lon="2.8138">
        <ele>1172.8</ele>
        <time>2021-07-23T11:34:31Z</time>
      </trkpt>
      <trkpt lat="45.09203" lon="2.81373">
        <ele>1172.5</ele>
        <time>2021-07-23T11:34:35Z</time>
      </trkpt>
      <trkpt lat="45.092" lon="2.81366">
        <ele>1173.6</ele>
        <time>2021-07-23T11:34:39Z</time>
      </trkpt>
      <trkpt lat="45.09196" lon="2.81362">
        <ele>1175.2</ele>
        <time>2021-07-23T11:34:45Z</time>
      </trkpt>
      <trkpt lat="45.09193" lon="2.81353">
        <ele>1176.2</ele>
        <time>2021-07-23T11:34:49Z</time>
      </trkpt>
      <trkpt lat="45.09191" lon="2.81345">
        <ele>1177.2</ele>
        <time>2021-07-23T11:34:53Z</time>
      </trkpt>
      <trkpt lat="45.09189" lon="2.81336">
        <ele>1177.8</ele>
        <time>2021-07-23T11:34:59Z</time>
      </trkpt>
      <trkpt lat="45.09189" lon="2.8133">
        <ele>1177.9</ele>
        <time>2021-07-23T11:35:03Z</time>
      </trkpt>
      <trkpt lat="45.09187" lon="2.81321">
        <ele>1178.5</ele>
        <time>2021-07-23T11:35:07Z</time>
      </trkpt>
      <trkpt lat="45.09184" lon="2.81314">
        <ele>1179.4</ele>
        <time>2021-07-23T11:35:11Z</time>
      </trkpt>
      <trkpt lat="45.09183" lon="2.81307">
        <ele>1179.5</ele>
        <time>2021-07-23T11:35:15Z</time>
      </trkpt>
      <trkpt lat="45.09182" lon="2.81298">
        <ele>1179.7</ele>
        <time>2021-07-23T11:35:23Z</time>
      </trkpt>
      <trkpt lat="45.09182" lon="2.81291">
        <ele>1179.7</ele>
        <time>2021-07-23T11:35:27Z</time>
      </trkpt>
      <trkpt lat="45.0918" lon="2.81285">
        <ele>1180.1</ele>
        <time>2021-07-23T11:35:31Z</time>
      </trkpt>
      <trkpt lat="45.09174" lon="2.81275">
        <ele>1181.7</ele>
        <time>2021-07-23T11:35:37Z</time>
      </trkpt>
      <trkpt lat="45.09175" lon="2.81268">
        <ele>1181.3</ele>
        <time>2021-07-23T11:35:41Z</time>
      </trkpt>
      <trkpt lat="45.09173" lon="2.8126">
        <ele>1181.5</ele>
        <time>2021-07-23T11:35:47Z</time>
      </trkpt>
      <trkpt lat="45.09171" lon="2.81254">
        <ele>1182</ele>
        <time>2021-07-23T11:35:51Z</time>
      </trkpt>
      <trkpt lat="45.09166" lon="2.81245">
        <ele>1183.2</ele>
        <time>2021-07-23T11:35:55Z</time>
      </trkpt>
      <trkpt lat="45.09162" lon="2.81238">
        <ele>1184.1</ele>
        <time>2021-07-23T11:36:01Z</time>
      </trkpt>
      <trkpt lat="45.09157" lon="2.8123">
        <ele>1185.3</ele>
        <time>2021-07-23T11:36:05Z</time>
      </trkpt>
      <trkpt lat="45.09152" lon="2.81223">
        <ele>1186.4</ele>
        <time>2021-07-23T11:36:09Z</time>
      </trkpt>
      <trkpt lat="45.09147" lon="2.81216">
        <ele>1187.4</ele>
        <time>2021-07-23T11:36:13Z</time>
      </trkpt>
      <trkpt lat="45.09143" lon="2.8121">
        <ele>1188.4</ele>
        <time>2021-07-23T11:36:17Z</time>
      </trkpt>
      <trkpt lat="45.09137" lon="2.81205">
        <ele>1189.5</ele>
        <time>2021-07-23T11:36:21Z</time>
      </trkpt>
      <trkpt lat="45.09134" lon="2.81198">
        <ele>1190.1</ele>
        <time>2021-07-23T11:36:25Z</time>
      </trkpt>
      <trkpt lat="45.09131" lon="2.81193">
        <ele>1190.7</ele>
        <time>2021-07-23T11:36:29Z</time>
      </trkpt>
      <trkpt lat="45.09127" lon="2.8119">
        <ele>1191.4</ele>
        <time>2021-07-23T11:36:33Z</time>
      </trkpt>
      <trkpt lat="45.09127" lon="2.81181">
        <ele>1191.4</ele>
        <time>2021-07-23T11:36:39Z</time>
      </trkpt>
      <trkpt lat="45.09125" lon="2.81174">
        <ele>1191.6</ele>
        <time>2021-07-23T11:36:43Z</time>
      </trkpt>
      <trkpt lat="45.09123" lon="2.81168">
        <ele>1191.9</ele>
        <time>2021-07-23T11:36:47Z</time>
      </trkpt>
      <trkpt lat="45.09121" lon="2.81162">
        <ele>1192.4</ele>
        <time>2021-07-23T11:36:51Z</time>
      </trkpt>
      <trkpt lat="45.09119" lon="2.81156">
        <ele>1193</ele>
        <time>2021-07-23T11:36:55Z</time>
      </trkpt>
      <trkpt lat="45.09114" lon="2.8115">
        <ele>1194</ele>
        <time>2021-07-23T11:36:59Z</time>
      </trkpt>
      <trkpt lat="45.09111" lon="2.81142">
        <ele>1194.7</ele>
        <time>2021-07-23T11:37:03Z</time>
      </trkpt>
      <trkpt lat="45.09109" lon="2.81134">
        <ele>1195</ele>
        <time>2021-07-23T11:37:09Z</time>
      </trkpt>
      <trkpt lat="45.09104" lon="2.81128">
        <ele>1195.8</ele>
        <time>2021-07-23T11:37:13Z</time>
      </trkpt>
      <trkpt lat="45.09099" lon="2.81121">
        <ele>1196.4</ele>
        <time>2021-07-23T11:37:17Z</time>
      </trkpt>
      <trkpt lat="45.09094" lon="2.81118">
        <ele>1196.9</ele>
        <time>2021-07-23T11:37:21Z</time>
      </trkpt>
      <trkpt lat="45.0909" lon="2.81113">
        <ele>1197.3</ele>
        <time>2021-07-23T11:37:25Z</time>
      </trkpt>
      <trkpt lat="45.09086" lon="2.81104">
        <ele>1197.5</ele>
        <time>2021-07-23T11:37:29Z</time>
      </trkpt>
      <trkpt lat="45.09081" lon="2.81096">
        <ele>1197.9</ele>
        <time>2021-07-23T11:37:35Z</time>
      </trkpt>
      <trkpt lat="45.09078" lon="2.8109">
        <ele>1198</ele>
        <time>2021-07-23T11:37:39Z</time>
      </trkpt>
      <trkpt lat="45.09075" lon="2.81085">
        <ele>1198.3</ele>
        <time>2021-07-23T11:37:43Z</time>
      </trkpt>
      <trkpt lat="45.09069" lon="2.8108">
        <ele>1199.1</ele>
        <time>2021-07-23T11:37:47Z</time>
      </trkpt>
      <trkpt lat="45.09064" lon="2.81074">
        <ele>1200</ele>
        <time>2021-07-23T11:37:51Z</time>
      </trkpt>
      <trkpt lat="45.09062" lon="2.81068">
        <ele>1200.4</ele>
        <time>2021-07-23T11:37:55Z</time>
      </trkpt>
      <trkpt lat="45.09057" lon="2.81062">
        <ele>1201.2</ele>
        <time>2021-07-23T11:38:01Z</time>
      </trkpt>
      <trkpt lat="45.09055" lon="2.81056">
        <ele>1201.5</ele>
        <time>2021-07-23T11:38:05Z</time>
      </trkpt>
      <trkpt lat="45.09052" lon="2.8105">
        <ele>1201.9</ele>
        <time>2021-07-23T11:38:09Z</time>
      </trkpt>
      <trkpt lat="45.09048" lon="2.81044">
        <ele>1202.4</ele>
        <time>2021-07-23T11:38:13Z</time>
      </trkpt>
      <trkpt lat="45.09043" lon="2.81038">
        <ele>1202.9</ele>
        <time>2021-07-23T11:38:17Z</time>
      </trkpt>
      <trkpt lat="45.09039" lon="2.81034">
        <ele>1203.3</ele>
        <time>2021-07-23T11:38:21Z</time>
      </trkpt>
      <trkpt lat="45.09032" lon="2.81034">
        <ele>1203.8</ele>
        <time>2021-07-23T11:38:25Z</time>
      </trkpt>
      <trkpt lat="45.09027" lon="2.81034">
        <ele>1204.3</ele>
        <time>2021-07-23T11:38:29Z</time>
      </trkpt>
      <trkpt lat="45.09022" lon="2.81036">
        <ele>1204.7</ele>
        <time>2021-07-23T11:38:33Z</time>
      </trkpt>
      <trkpt lat="45.09018" lon="2.81041">
        <ele>1205.3</ele>
        <time>2021-07-23T11:38:37Z</time>
      </trkpt>
      <trkpt lat="45.09012" lon="2.81045">
        <ele>1205.9</ele>
        <time>2021-07-23T11:38:41Z</time>
      </trkpt>
      <trkpt lat="45.09008" lon="2.81051">
        <ele>1206.6</ele>
        <time>2021-07-23T11:38:45Z</time>
      </trkpt>
      <trkpt lat="45.09003" lon="2.81055">
        <ele>1207.3</ele>
        <time>2021-07-23T11:38:49Z</time>
      </trkpt>
      <trkpt lat="45.08998" lon="2.81061">
        <ele>1208.4</ele>
        <time>2021-07-23T11:38:55Z</time>
      </trkpt>
      <trkpt lat="45.08994" lon="2.81065">
        <ele>1209.3</ele>
        <time>2021-07-23T11:38:59Z</time>
      </trkpt>
      <trkpt lat="45.0899" lon="2.81071">
        <ele>1210.5</ele>
        <time>2021-07-23T11:39:03Z</time>
      </trkpt>
      <trkpt lat="45.08984" lon="2.81075">
        <ele>1212</ele>
        <time>2021-07-23T11:39:07Z</time>
      </trkpt>
      <trkpt lat="45.08981" lon="2.81081">
        <ele>1213</ele>
        <time>2021-07-23T11:39:11Z</time>
      </trkpt>
      <trkpt lat="45.08978" lon="2.81087">
        <ele>1214.1</ele>
        <time>2021-07-23T11:39:15Z</time>
      </trkpt>
      <trkpt lat="45.08973" lon="2.81092">
        <ele>1215.6</ele>
        <time>2021-07-23T11:39:19Z</time>
      </trkpt>
      <trkpt lat="45.08969" lon="2.811">
        <ele>1217.2</ele>
        <time>2021-07-23T11:39:25Z</time>
      </trkpt>
      <trkpt lat="45.08968" lon="2.81108">
        <ele>1218.1</ele>
        <time>2021-07-23T11:39:29Z</time>
      </trkpt>
      <trkpt lat="45.08967" lon="2.81115">
        <ele>1218.9</ele>
        <time>2021-07-23T11:39:33Z</time>
      </trkpt>
      <trkpt lat="45.08965" lon="2.81122">
        <ele>1219.9</ele>
        <time>2021-07-23T11:39:39Z</time>
      </trkpt>
      <trkpt lat="45.08969" lon="2.8113">
        <ele>1219.6</ele>
        <time>2021-07-23T11:39:45Z</time>
      </trkpt>
      <trkpt lat="45.08973" lon="2.81135">
        <ele>1219.1</ele>
        <time>2021-07-23T11:39:47Z</time>
      </trkpt>
      <trkpt lat="45.0898" lon="2.81144">
        <ele>1218.1</ele>
        <time>2021-07-23T11:39:51Z</time>
      </trkpt>
      <trkpt lat="45.08986" lon="2.81152">
        <ele>1217.3</ele>
        <time>2021-07-23T11:39:55Z</time>
      </trkpt>
      <trkpt lat="45.08991" lon="2.81161">
        <ele>1216.8</ele>
        <time>2021-07-23T11:39:59Z</time>
      </trkpt>
      <trkpt lat="45.08995" lon="2.81168">
        <ele>1216.4</ele>
        <time>2021-07-23T11:40:03Z</time>
      </trkpt>
      <trkpt lat="45.08998" lon="2.81175">
        <ele>1216.3</ele>
        <time>2021-07-23T11:40:07Z</time>
      </trkpt>
      <trkpt lat="45.09" lon="2.81183">
        <ele>1216.9</ele>
        <time>2021-07-23T11:40:11Z</time>
      </trkpt>
      <trkpt lat="45.09001" lon="2.81191">
        <ele>1217.5</ele>
        <time>2021-07-23T11:40:15Z</time>
      </trkpt>
      <trkpt lat="45.09" lon="2.81199">
        <ele>1218.5</ele>
        <time>2021-07-23T11:40:19Z</time>
      </trkpt>
      <trkpt lat="45.08998" lon="2.81206">
        <ele>1219.7</ele>
        <time>2021-07-23T11:40:23Z</time>
      </trkpt>
      <trkpt lat="45.08994" lon="2.81214">
        <ele>1221.6</ele>
        <time>2021-07-23T11:40:27Z</time>
      </trkpt>
      <trkpt lat="45.08988" lon="2.81219">
        <ele>1223.5</ele>
        <time>2021-07-23T11:40:31Z</time>
      </trkpt>
      <trkpt lat="45.08983" lon="2.8122">
        <ele>1224.8</ele>
        <time>2021-07-23T11:40:35Z</time>
      </trkpt>
      <trkpt lat="45.08976" lon="2.81214">
        <ele>1225.8</ele>
        <time>2021-07-23T11:40:41Z</time>
      </trkpt>
      <trkpt lat="45.08973" lon="2.81208">
        <ele>1226</ele>
        <time>2021-07-23T11:40:45Z</time>
      </trkpt>
      <trkpt lat="45.08971" lon="2.81202">
        <ele>1225.9</ele>
        <time>2021-07-23T11:40:49Z</time>
      </trkpt>
      <trkpt lat="45.08967" lon="2.81197">
        <ele>1226.4</ele>
        <time>2021-07-23T11:40:53Z</time>
      </trkpt>
      <trkpt lat="45.08963" lon="2.8119">
        <ele>1226.6</ele>
        <time>2021-07-23T11:40:57Z</time>
      </trkpt>
      <trkpt lat="45.08957" lon="2.81185">
        <ele>1227.6</ele>
        <time>2021-07-23T11:41:03Z</time>
      </trkpt>
      <trkpt lat="45.08954" lon="2.81177">
        <ele>1227.7</ele>
        <time>2021-07-23T11:41:07Z</time>
      </trkpt>
      <trkpt lat="45.0895" lon="2.81171">
        <ele>1227.9</ele>
        <time>2021-07-23T11:41:11Z</time>
      </trkpt>
      <trkpt lat="45.08948" lon="2.81165">
        <ele>1228.1</ele>
        <time>2021-07-23T11:41:15Z</time>
      </trkpt>
      <trkpt lat="45.08943" lon="2.81158">
        <ele>1228.7</ele>
        <time>2021-07-23T11:41:21Z</time>
      </trkpt>
      <trkpt lat="45.08939" lon="2.81154">
        <ele>1229.2</ele>
        <time>2021-07-23T11:41:27Z</time>
      </trkpt>
      <trkpt lat="45.08934" lon="2.81148">
        <ele>1229.7</ele>
        <time>2021-07-23T11:41:31Z</time>
      </trkpt>
      <trkpt lat="45.08929" lon="2.81142">
        <ele>1230.3</ele>
        <time>2021-07-23T11:41:35Z</time>
      </trkpt>
      <trkpt lat="45.08924" lon="2.81136">
        <ele>1231</ele>
        <time>2021-07-23T11:41:39Z</time>
      </trkpt>
      <trkpt lat="45.0892" lon="2.81133">
        <ele>1231.6</ele>
        <time>2021-07-23T11:41:43Z</time>
      </trkpt>
      <trkpt lat="45.08916" lon="2.81127">
        <ele>1232</ele>
        <time>2021-07-23T11:41:47Z</time>
      </trkpt>
      <trkpt lat="45.08911" lon="2.81121">
        <ele>1232.6</ele>
        <time>2021-07-23T11:41:51Z</time>
      </trkpt>
      <trkpt lat="45.08907" lon="2.81117">
        <ele>1233.5</ele>
        <time>2021-07-23T11:41:55Z</time>
      </trkpt>
      <trkpt lat="45.08902" lon="2.81108">
        <ele>1233.9</ele>
        <time>2021-07-23T11:42:01Z</time>
      </trkpt>
      <trkpt lat="45.089" lon="2.81103">
        <ele>1234</ele>
        <time>2021-07-23T11:42:05Z</time>
      </trkpt>
      <trkpt lat="45.08897" lon="2.81097">
        <ele>1234.3</ele>
        <time>2021-07-23T11:42:11Z</time>
      </trkpt>
      <trkpt lat="45.08896" lon="2.8109">
        <ele>1234</ele>
        <time>2021-07-23T11:42:15Z</time>
      </trkpt>
      <trkpt lat="45.08893" lon="2.81085">
        <ele>1234.6</ele>
        <time>2021-07-23T11:42:19Z</time>
      </trkpt>
      <trkpt lat="45.0889" lon="2.81076">
        <ele>1234.7</ele>
        <time>2021-07-23T11:42:25Z</time>
      </trkpt>
      <trkpt lat="45.08888" lon="2.81069">
        <ele>1234.9</ele>
        <time>2021-07-23T11:42:29Z</time>
      </trkpt>
      <trkpt lat="45.08886" lon="2.81063">
        <ele>1234.9</ele>
        <time>2021-07-23T11:42:33Z</time>
      </trkpt>
      <trkpt lat="45.08882" lon="2.81057">
        <ele>1235.8</ele>
        <time>2021-07-23T11:42:37Z</time>
      </trkpt>
      <trkpt lat="45.0888" lon="2.8105">
        <ele>1235.9</ele>
        <time>2021-07-23T11:42:41Z</time>
      </trkpt>
      <trkpt lat="45.08878" lon="2.81043">
        <ele>1236</ele>
        <time>2021-07-23T11:42:45Z</time>
      </trkpt>
      <trkpt lat="45.08875" lon="2.81037">
        <ele>1236.8</ele>
        <time>2021-07-23T11:42:49Z</time>
      </trkpt>
      <trkpt lat="45.08871" lon="2.81028">
        <ele>1237.5</ele>
        <time>2021-07-23T11:42:55Z</time>
      </trkpt>
      <trkpt lat="45.08869" lon="2.81022">
        <ele>1237.6</ele>
        <time>2021-07-23T11:42:59Z</time>
      </trkpt>
      <trkpt lat="45.08866" lon="2.81016">
        <ele>1238.1</ele>
        <time>2021-07-23T11:43:03Z</time>
      </trkpt>
      <trkpt lat="45.08864" lon="2.81008">
        <ele>1238.2</ele>
        <time>2021-07-23T11:43:07Z</time>
      </trkpt>
      <trkpt lat="45.0886" lon="2.81004">
        <ele>1239.1</ele>
        <time>2021-07-23T11:43:11Z</time>
      </trkpt>
      <trkpt lat="45.08857" lon="2.80996">
        <ele>1240.1</ele>
        <time>2021-07-23T11:43:15Z</time>
      </trkpt>
      <trkpt lat="45.08856" lon="2.80989">
        <ele>1240.8</ele>
        <time>2021-07-23T11:43:19Z</time>
      </trkpt>
      <trkpt lat="45.08852" lon="2.80981">
        <ele>1242.1</ele>
        <time>2021-07-23T11:43:25Z</time>
      </trkpt>
      <trkpt lat="45.08849" lon="2.80973">
        <ele>1243.7</ele>
        <time>2021-07-23T11:43:31Z</time>
      </trkpt>
      <trkpt lat="45.08847" lon="2.80964">
        <ele>1244.6</ele>
        <time>2021-07-23T11:43:35Z</time>
      </trkpt>
      <trkpt lat="45.08847" lon="2.80954">
        <ele>1244.7</ele>
        <time>2021-07-23T11:43:41Z</time>
      </trkpt>
      <trkpt lat="45.08844" lon="2.80947">
        <ele>1246.1</ele>
        <time>2021-07-23T11:43:45Z</time>
      </trkpt>
      <trkpt lat="45.08843" lon="2.8094">
        <ele>1246.8</ele>
        <time>2021-07-23T11:43:49Z</time>
      </trkpt>
      <trkpt lat="45.08843" lon="2.80933">
        <ele>1247</ele>
        <time>2021-07-23T11:43:53Z</time>
      </trkpt>
      <trkpt lat="45.08842" lon="2.80925">
        <ele>1247.7</ele>
        <time>2021-07-23T11:43:57Z</time>
      </trkpt>
      <trkpt lat="45.0884" lon="2.80918">
        <ele>1248.5</ele>
        <time>2021-07-23T11:44:01Z</time>
      </trkpt>
      <trkpt lat="45.08838" lon="2.8091">
        <ele>1249.9</ele>
        <time>2021-07-23T11:44:05Z</time>
      </trkpt>
      <trkpt lat="45.08836" lon="2.80902">
        <ele>1251.6</ele>
        <time>2021-07-23T11:44:09Z</time>
      </trkpt>
      <trkpt lat="45.08835" lon="2.80894">
        <ele>1252.5</ele>
        <time>2021-07-23T11:44:13Z</time>
      </trkpt>
      <trkpt lat="45.08834" lon="2.80887">
        <ele>1253.6</ele>
        <time>2021-07-23T11:44:17Z</time>
      </trkpt>
      <trkpt lat="45.08833" lon="2.80879">
        <ele>1254.6</ele>
        <time>2021-07-23T11:44:21Z</time>
      </trkpt>
      <trkpt lat="45.08835" lon="2.8087">
        <ele>1254.9</ele>
        <time>2021-07-23T11:44:25Z</time>
      </trkpt>
      <trkpt lat="45.08836" lon="2.80863">
        <ele>1255</ele>
        <time>2021-07-23T11:44:29Z</time>
      </trkpt>
      <trkpt lat="45.08836" lon="2.80856">
        <ele>1255.7</ele>
        <time>2021-07-23T11:44:33Z</time>
      </trkpt>
      <trkpt lat="45.08836" lon="2.80849">
        <ele>1256.4</ele>
        <time>2021-07-23T11:44:37Z</time>
      </trkpt>
      <trkpt lat="45.08837" lon="2.80842">
        <ele>1256.8</ele>
        <time>2021-07-23T11:44:41Z</time>
      </trkpt>
      <trkpt lat="45.08838" lon="2.80834">
        <ele>1257.5</ele>
        <time>2021-07-23T11:44:47Z</time>
      </trkpt>
      <trkpt lat="45.08838" lon="2.80826">
        <ele>1258.4</ele>
        <time>2021-07-23T11:44:51Z</time>
      </trkpt>
      <trkpt lat="45.08839" lon="2.80819">
        <ele>1259.3</ele>
        <time>2021-07-23T11:44:55Z</time>
      </trkpt>
      <trkpt lat="45.08841" lon="2.80813">
        <ele>1259.4</ele>
        <time>2021-07-23T11:44:59Z</time>
      </trkpt>
      <trkpt lat="45.08843" lon="2.80805">
        <ele>1260</ele>
        <time>2021-07-23T11:45:03Z</time>
      </trkpt>
      <trkpt lat="45.08845" lon="2.80798">
        <ele>1260.5</ele>
        <time>2021-07-23T11:45:07Z</time>
      </trkpt>
      <trkpt lat="45.08846" lon="2.80792">
        <ele>1261.1</ele>
        <time>2021-07-23T11:45:11Z</time>
      </trkpt>
      <trkpt lat="45.08849" lon="2.80786">
        <ele>1261.1</ele>
        <time>2021-07-23T11:45:15Z</time>
      </trkpt>
      <trkpt lat="45.08851" lon="2.80779">
        <ele>1261.7</ele>
        <time>2021-07-23T11:45:19Z</time>
      </trkpt>
      <trkpt lat="45.08853" lon="2.80772">
        <ele>1262</ele>
        <time>2021-07-23T11:45:23Z</time>
      </trkpt>
      <trkpt lat="45.08855" lon="2.80765">
        <ele>1262.4</ele>
        <time>2021-07-23T11:45:27Z</time>
      </trkpt>
      <trkpt lat="45.08858" lon="2.80757">
        <ele>1262.6</ele>
        <time>2021-07-23T11:45:33Z</time>
      </trkpt>
      <trkpt lat="45.08861" lon="2.80751">
        <ele>1262.9</ele>
        <time>2021-07-23T11:45:37Z</time>
      </trkpt>
      <trkpt lat="45.08862" lon="2.80744">
        <ele>1263.3</ele>
        <time>2021-07-23T11:45:41Z</time>
      </trkpt>
      <trkpt lat="45.08865" lon="2.80738">
        <ele>1263.5</ele>
        <time>2021-07-23T11:45:45Z</time>
      </trkpt>
      <trkpt lat="45.08865" lon="2.8073">
        <ele>1264.5</ele>
        <time>2021-07-23T11:45:49Z</time>
      </trkpt>
      <trkpt lat="45.08866" lon="2.80724">
        <ele>1264.8</ele>
        <time>2021-07-23T11:45:53Z</time>
      </trkpt>
      <trkpt lat="45.08868" lon="2.80718">
        <ele>1265.1</ele>
        <time>2021-07-23T11:45:57Z</time>
      </trkpt>
      <trkpt lat="45.0887" lon="2.80711">
        <ele>1265.5</ele>
        <time>2021-07-23T11:46:01Z</time>
      </trkpt>
      <trkpt lat="45.08871" lon="2.80705">
        <ele>1266</ele>
        <time>2021-07-23T11:46:05Z</time>
      </trkpt>
      <trkpt lat="45.08873" lon="2.80698">
        <ele>1266.2</ele>
        <time>2021-07-23T11:46:09Z</time>
      </trkpt>
      <trkpt lat="45.08875" lon="2.80692">
        <ele>1266.5</ele>
        <time>2021-07-23T11:46:13Z</time>
      </trkpt>
      <trkpt lat="45.08877" lon="2.80686">
        <ele>1266.8</ele>
        <time>2021-07-23T11:46:17Z</time>
      </trkpt>
      <trkpt lat="45.08879" lon="2.80679">
        <ele>1267.2</ele>
        <time>2021-07-23T11:46:21Z</time>
      </trkpt>
      <trkpt lat="45.08881" lon="2.80673">
        <ele>1267.6</ele>
        <time>2021-07-23T11:46:25Z</time>
      </trkpt>
      <trkpt lat="45.08884" lon="2.80667">
        <ele>1267.7</ele>
        <time>2021-07-23T11:46:29Z</time>
      </trkpt>
      <trkpt lat="45.08886" lon="2.80659">
        <ele>1268.2</ele>
        <time>2021-07-23T11:46:35Z</time>
      </trkpt>
      <trkpt lat="45.08885" lon="2.80651">
        <ele>1269.3</ele>
        <time>2021-07-23T11:46:39Z</time>
      </trkpt>
      <trkpt lat="45.08887" lon="2.80645">
        <ele>1269.7</ele>
        <time>2021-07-23T11:46:43Z</time>
      </trkpt>
      <trkpt lat="45.0889" lon="2.80635">
        <ele>1270.4</ele>
        <time>2021-07-23T11:46:49Z</time>
      </trkpt>
      <trkpt lat="45.08891" lon="2.80628">
        <ele>1271</ele>
        <time>2021-07-23T11:46:53Z</time>
      </trkpt>
      <trkpt lat="45.08893" lon="2.80622">
        <ele>1271.6</ele>
        <time>2021-07-23T11:46:57Z</time>
      </trkpt>
      <trkpt lat="45.08894" lon="2.80615">
        <ele>1272.3</ele>
        <time>2021-07-23T11:47:01Z</time>
      </trkpt>
      <trkpt lat="45.08894" lon="2.80608">
        <ele>1273.3</ele>
        <time>2021-07-23T11:47:05Z</time>
      </trkpt>
      <trkpt lat="45.08894" lon="2.80602">
        <ele>1274.1</ele>
        <time>2021-07-23T11:47:09Z</time>
      </trkpt>
      <trkpt lat="45.08894" lon="2.80595">
        <ele>1274.9</ele>
        <time>2021-07-23T11:47:13Z</time>
      </trkpt>
      <trkpt lat="45.08897" lon="2.8059">
        <ele>1275.2</ele>
        <time>2021-07-23T11:47:17Z</time>
      </trkpt>
      <trkpt lat="45.08898" lon="2.80582">
        <ele>1275.9</ele>
        <time>2021-07-23T11:47:21Z</time>
      </trkpt>
      <trkpt lat="45.08898" lon="2.80575">
        <ele>1276.5</ele>
        <time>2021-07-23T11:47:25Z</time>
      </trkpt>
      <trkpt lat="45.08898" lon="2.80567">
        <ele>1277.1</ele>
        <time>2021-07-23T11:47:29Z</time>
      </trkpt>
      <trkpt lat="45.089" lon="2.80559">
        <ele>1277.4</ele>
        <time>2021-07-23T11:47:33Z</time>
      </trkpt>
      <trkpt lat="45.08901" lon="2.80552">
        <ele>1277.9</ele>
        <time>2021-07-23T11:47:37Z</time>
      </trkpt>
      <trkpt lat="45.08901" lon="2.80544">
        <ele>1278.5</ele>
        <time>2021-07-23T11:47:41Z</time>
      </trkpt>
      <trkpt lat="45.08903" lon="2.80537">
        <ele>1278.8</ele>
        <time>2021-07-23T11:47:45Z</time>
      </trkpt>
      <trkpt lat="45.08904" lon="2.8053">
        <ele>1279.2</ele>
        <time>2021-07-23T11:47:49Z</time>
      </trkpt>
      <trkpt lat="45.08904" lon="2.80523">
        <ele>1279.8</ele>
        <time>2021-07-23T11:47:53Z</time>
      </trkpt>
      <trkpt lat="45.08903" lon="2.80515">
        <ele>1280.6</ele>
        <time>2021-07-23T11:47:57Z</time>
      </trkpt>
      <trkpt lat="45.08904" lon="2.80508">
        <ele>1281.2</ele>
        <time>2021-07-23T11:48:01Z</time>
      </trkpt>
      <trkpt lat="45.08903" lon="2.80502">
        <ele>1281.9</ele>
        <time>2021-07-23T11:48:05Z</time>
      </trkpt>
      <trkpt lat="45.08902" lon="2.80495">
        <ele>1282.6</ele>
        <time>2021-07-23T11:48:09Z</time>
      </trkpt>
      <trkpt lat="45.089" lon="2.80489">
        <ele>1283.5</ele>
        <time>2021-07-23T11:48:13Z</time>
      </trkpt>
      <trkpt lat="45.08899" lon="2.80483">
        <ele>1284.3</ele>
        <time>2021-07-23T11:48:17Z</time>
      </trkpt>
      <trkpt lat="45.08894" lon="2.80475">
        <ele>1285.7</ele>
        <time>2021-07-23T11:48:23Z</time>
      </trkpt>
      <trkpt lat="45.08891" lon="2.80467">
        <ele>1286.7</ele>
        <time>2021-07-23T11:48:27Z</time>
      </trkpt>
      <trkpt lat="45.08887" lon="2.80461">
        <ele>1287.8</ele>
        <time>2021-07-23T11:48:31Z</time>
      </trkpt>
      <trkpt lat="45.08883" lon="2.80455">
        <ele>1288.7</ele>
        <time>2021-07-23T11:48:37Z</time>
      </trkpt>
      <trkpt lat="45.08881" lon="2.80448">
        <ele>1289.4</ele>
        <time>2021-07-23T11:48:41Z</time>
      </trkpt>
      <trkpt lat="45.0888" lon="2.80442">
        <ele>1290.1</ele>
        <time>2021-07-23T11:48:45Z</time>
      </trkpt>
      <trkpt lat="45.08879" lon="2.80435">
        <ele>1290.7</ele>
        <time>2021-07-23T11:48:49Z</time>
      </trkpt>
      <trkpt lat="45.08877" lon="2.80429">
        <ele>1291.4</ele>
        <time>2021-07-23T11:48:53Z</time>
      </trkpt>
      <trkpt lat="45.08875" lon="2.80423">
        <ele>1292</ele>
        <time>2021-07-23T11:48:57Z</time>
      </trkpt>
      <trkpt lat="45.08873" lon="2.80414">
        <ele>1292.9</ele>
        <time>2021-07-23T11:49:03Z</time>
      </trkpt>
      <trkpt lat="45.08871" lon="2.80407">
        <ele>1293.8</ele>
        <time>2021-07-23T11:49:07Z</time>
      </trkpt>
      <trkpt lat="45.0887" lon="2.80398">
        <ele>1294.8</ele>
        <time>2021-07-23T11:49:11Z</time>
      </trkpt>
      <trkpt lat="45.08869" lon="2.80392">
        <ele>1295.5</ele>
        <time>2021-07-23T11:49:15Z</time>
      </trkpt>
      <trkpt lat="45.08866" lon="2.80385">
        <ele>1296.3</ele>
        <time>2021-07-23T11:49:19Z</time>
      </trkpt>
      <trkpt lat="45.08866" lon="2.80378">
        <ele>1297</ele>
        <time>2021-07-23T11:49:23Z</time>
      </trkpt>
      <trkpt lat="45.08867" lon="2.80369">
        <ele>1298</ele>
        <time>2021-07-23T11:49:29Z</time>
      </trkpt>
      <trkpt lat="45.08867" lon="2.80362">
        <ele>1298.6</ele>
        <time>2021-07-23T11:49:33Z</time>
      </trkpt>
      <trkpt lat="45.08867" lon="2.80355">
        <ele>1299.4</ele>
        <time>2021-07-23T11:49:37Z</time>
      </trkpt>
      <trkpt lat="45.08868" lon="2.80347">
        <ele>1300.2</ele>
        <time>2021-07-23T11:49:41Z</time>
      </trkpt>
      <trkpt lat="45.08867" lon="2.80338">
        <ele>1301.1</ele>
        <time>2021-07-23T11:49:45Z</time>
      </trkpt>
      <trkpt lat="45.08866" lon="2.80331">
        <ele>1301.8</ele>
        <time>2021-07-23T11:49:49Z</time>
      </trkpt>
      <trkpt lat="45.08866" lon="2.80323">
        <ele>1302.5</ele>
        <time>2021-07-23T11:49:55Z</time>
      </trkpt>
      <trkpt lat="45.08867" lon="2.80314">
        <ele>1303.2</ele>
        <time>2021-07-23T11:50:01Z</time>
      </trkpt>
      <trkpt lat="45.08867" lon="2.80305">
        <ele>1303.9</ele>
        <time>2021-07-23T11:50:07Z</time>
      </trkpt>
      <trkpt lat="45.08863" lon="2.80296">
        <ele>1304.5</ele>
        <time>2021-07-23T11:50:13Z</time>
      </trkpt>
      <trkpt lat="45.08859" lon="2.80289">
        <ele>1305</ele>
        <time>2021-07-23T11:50:17Z</time>
      </trkpt>
      <trkpt lat="45.08855" lon="2.80284">
        <ele>1305.2</ele>
        <time>2021-07-23T11:50:21Z</time>
      </trkpt>
      <trkpt lat="45.08851" lon="2.80278">
        <ele>1305.4</ele>
        <time>2021-07-23T11:50:25Z</time>
      </trkpt>
      <trkpt lat="45.08849" lon="2.80272">
        <ele>1305.7</ele>
        <time>2021-07-23T11:50:33Z</time>
      </trkpt>
      <trkpt lat="45.08848" lon="2.80266">
        <ele>1306.1</ele>
        <time>2021-07-23T11:50:39Z</time>
      </trkpt>
      <trkpt lat="45.08849" lon="2.80256">
        <ele>1306.7</ele>
        <time>2021-07-23T11:50:45Z</time>
      </trkpt>
      <trkpt lat="45.08851" lon="2.80247">
        <ele>1307.5</ele>
        <time>2021-07-23T11:50:51Z</time>
      </trkpt>
      <trkpt lat="45.08854" lon="2.80241">
        <ele>1308.2</ele>
        <time>2021-07-23T11:50:57Z</time>
      </trkpt>
      <trkpt lat="45.08848" lon="2.80242">
        <ele>1307.6</ele>
        <time>2021-07-23T11:54:49Z</time>
      </trkpt>
      <trkpt lat="45.08844" lon="2.80249">
        <ele>1306.9</ele>
        <time>2021-07-23T11:54:55Z</time>
      </trkpt>
      <trkpt lat="45.08842" lon="2.80256">
        <ele>1306.3</ele>
        <time>2021-07-23T11:55:01Z</time>
      </trkpt>
      <trkpt lat="45.08842" lon="2.80264">
        <ele>1305.8</ele>
        <time>2021-07-23T11:55:09Z</time>
      </trkpt>
      <trkpt lat="45.08839" lon="2.80272">
        <ele>1305.2</ele>
        <time>2021-07-23T11:55:13Z</time>
      </trkpt>
      <trkpt lat="45.08835" lon="2.80277">
        <ele>1304.8</ele>
        <time>2021-07-23T11:55:17Z</time>
      </trkpt>
      <trkpt lat="45.08829" lon="2.80286">
        <ele>1305.2</ele>
        <time>2021-07-23T11:55:21Z</time>
      </trkpt>
      <trkpt lat="45.08824" lon="2.80295">
        <ele>1305.9</ele>
        <time>2021-07-23T11:55:25Z</time>
      </trkpt>
      <trkpt lat="45.08819" lon="2.80302">
        <ele>1306.7</ele>
        <time>2021-07-23T11:55:29Z</time>
      </trkpt>
      <trkpt lat="45.08813" lon="2.80311">
        <ele>1307.7</ele>
        <time>2021-07-23T11:55:33Z</time>
      </trkpt>
      <trkpt lat="45.08808" lon="2.80319">
        <ele>1308.6</ele>
        <time>2021-07-23T11:55:37Z</time>
      </trkpt>
      <trkpt lat="45.08804" lon="2.80327">
        <ele>1309.4</ele>
        <time>2021-07-23T11:55:41Z</time>
      </trkpt>
      <trkpt lat="45.08799" lon="2.80331">
        <ele>1310.2</ele>
        <time>2021-07-23T11:55:43Z</time>
      </trkpt>
      <trkpt lat="45.08796" lon="2.80336">
        <ele>1310.7</ele>
        <time>2021-07-23T11:55:45Z</time>
      </trkpt>
      <trkpt lat="45.08793" lon="2.80347">
        <ele>1310.6</ele>
        <time>2021-07-23T11:55:49Z</time>
      </trkpt>
      <trkpt lat="45.08789" lon="2.80357">
        <ele>1310.7</ele>
        <time>2021-07-23T11:55:53Z</time>
      </trkpt>
      <trkpt lat="45.08786" lon="2.80366">
        <ele>1310.6</ele>
        <time>2021-07-23T11:55:57Z</time>
      </trkpt>
      <trkpt lat="45.0878" lon="2.80375">
        <ele>1311.3</ele>
        <time>2021-07-23T11:56:01Z</time>
      </trkpt>
      <trkpt lat="45.08776" lon="2.80384">
        <ele>1311.6</ele>
        <time>2021-07-23T11:56:05Z</time>
      </trkpt>
      <trkpt lat="45.08771" lon="2.80392">
        <ele>1312.1</ele>
        <time>2021-07-23T11:56:09Z</time>
      </trkpt>
      <trkpt lat="45.08766" lon="2.80398">
        <ele>1312.8</ele>
        <time>2021-07-23T11:56:13Z</time>
      </trkpt>
      <trkpt lat="45.08762" lon="2.80406">
        <ele>1312.9</ele>
        <time>2021-07-23T11:56:17Z</time>
      </trkpt>
      <trkpt lat="45.08756" lon="2.80411">
        <ele>1314</ele>
        <time>2021-07-23T11:56:21Z</time>
      </trkpt>
      <trkpt lat="45.08752" lon="2.80419">
        <ele>1314.3</ele>
        <time>2021-07-23T11:56:25Z</time>
      </trkpt>
      <trkpt lat="45.08749" lon="2.80425">
        <ele>1315.2</ele>
        <time>2021-07-23T11:56:29Z</time>
      </trkpt>
      <trkpt lat="45.08744" lon="2.80431">
        <ele>1316.7</ele>
        <time>2021-07-23T11:56:33Z</time>
      </trkpt>
      <trkpt lat="45.08741" lon="2.80438">
        <ele>1317.6</ele>
        <time>2021-07-23T11:56:37Z</time>
      </trkpt>
      <trkpt lat="45.08738" lon="2.80447">
        <ele>1318.3</ele>
        <time>2021-07-23T11:56:41Z</time>
      </trkpt>
      <trkpt lat="45.08736" lon="2.80455">
        <ele>1318.9</ele>
        <time>2021-07-23T11:56:45Z</time>
      </trkpt>
      <trkpt lat="45.08734" lon="2.80464">
        <ele>1319.1</ele>
        <time>2021-07-23T11:56:49Z</time>
      </trkpt>
      <trkpt lat="45.08731" lon="2.80471">
        <ele>1320</ele>
        <time>2021-07-23T11:56:53Z</time>
      </trkpt>
      <trkpt lat="45.08727" lon="2.80477">
        <ele>1321.5</ele>
        <time>2021-07-23T11:56:57Z</time>
      </trkpt>
      <trkpt lat="45.08724" lon="2.80485">
        <ele>1322.3</ele>
        <time>2021-07-23T11:57:01Z</time>
      </trkpt>
      <trkpt lat="45.08724" lon="2.80493">
        <ele>1322</ele>
        <time>2021-07-23T11:57:05Z</time>
      </trkpt>
      <trkpt lat="45.08721" lon="2.805">
        <ele>1322.9</ele>
        <time>2021-07-23T11:57:09Z</time>
      </trkpt>
      <trkpt lat="45.08719" lon="2.80508">
        <ele>1323.2</ele>
        <time>2021-07-23T11:57:13Z</time>
      </trkpt>
      <trkpt lat="45.08716" lon="2.80515">
        <ele>1323.9</ele>
        <time>2021-07-23T11:57:17Z</time>
      </trkpt>
      <trkpt lat="45.08713" lon="2.80523">
        <ele>1324.6</ele>
        <time>2021-07-23T11:57:23Z</time>
      </trkpt>
      <trkpt lat="45.08708" lon="2.80527">
        <ele>1326</ele>
        <time>2021-07-23T11:57:27Z</time>
      </trkpt>
      <trkpt lat="45.08709" lon="2.80536">
        <ele>1325.1</ele>
        <time>2021-07-23T11:57:31Z</time>
      </trkpt>
      <trkpt lat="45.08707" lon="2.80543">
        <ele>1325</ele>
        <time>2021-07-23T11:57:35Z</time>
      </trkpt>
      <trkpt lat="45.08704" lon="2.80552">
        <ele>1325.4</ele>
        <time>2021-07-23T11:57:39Z</time>
      </trkpt>
      <trkpt lat="45.08702" lon="2.8056">
        <ele>1325.4</ele>
        <time>2021-07-23T11:57:43Z</time>
      </trkpt>
      <trkpt lat="45.08698" lon="2.80568">
        <ele>1326</ele>
        <time>2021-07-23T11:57:47Z</time>
      </trkpt>
      <trkpt lat="45.08694" lon="2.80573">
        <ele>1326.8</ele>
        <time>2021-07-23T11:57:51Z</time>
      </trkpt>
      <trkpt lat="45.0869" lon="2.80579">
        <ele>1327.5</ele>
        <time>2021-07-23T11:57:55Z</time>
      </trkpt>
      <trkpt lat="45.08685" lon="2.80585">
        <ele>1328.6</ele>
        <time>2021-07-23T11:58:01Z</time>
      </trkpt>
      <trkpt lat="45.08681" lon="2.80591">
        <ele>1329.7</ele>
        <time>2021-07-23T11:58:05Z</time>
      </trkpt>
      <trkpt lat="45.0868" lon="2.80598">
        <ele>1329.4</ele>
        <time>2021-07-23T11:58:09Z</time>
      </trkpt>
      <trkpt lat="45.08677" lon="2.80604">
        <ele>1329.8</ele>
        <time>2021-07-23T11:58:13Z</time>
      </trkpt>
      <trkpt lat="45.08674" lon="2.80612">
        <ele>1330</ele>
        <time>2021-07-23T11:58:19Z</time>
      </trkpt>
      <trkpt lat="45.0867" lon="2.80618">
        <ele>1331.1</ele>
        <time>2021-07-23T11:58:25Z</time>
      </trkpt>
      <trkpt lat="45.08669" lon="2.80625">
        <ele>1330.7</ele>
        <time>2021-07-23T11:58:29Z</time>
      </trkpt>
      <trkpt lat="45.08667" lon="2.80631">
        <ele>1330.8</ele>
        <time>2021-07-23T11:58:33Z</time>
      </trkpt>
      <trkpt lat="45.08665" lon="2.80638">
        <ele>1331.1</ele>
        <time>2021-07-23T11:58:37Z</time>
      </trkpt>
      <trkpt lat="45.08661" lon="2.80646">
        <ele>1331.4</ele>
        <time>2021-07-23T11:58:43Z</time>
      </trkpt>
      <trkpt lat="45.08659" lon="2.80653">
        <ele>1331.6</ele>
        <time>2021-07-23T11:58:47Z</time>
      </trkpt>
      <trkpt lat="45.08657" lon="2.80659">
        <ele>1331.8</ele>
        <time>2021-07-23T11:58:51Z</time>
      </trkpt>
      <trkpt lat="45.08654" lon="2.80664">
        <ele>1332.3</ele>
        <time>2021-07-23T11:58:55Z</time>
      </trkpt>
      <trkpt lat="45.08651" lon="2.8067">
        <ele>1332.7</ele>
        <time>2021-07-23T11:58:59Z</time>
      </trkpt>
      <trkpt lat="45.08648" lon="2.80677">
        <ele>1333.5</ele>
        <time>2021-07-23T11:59:03Z</time>
      </trkpt>
      <trkpt lat="45.08645" lon="2.80682">
        <ele>1334</ele>
        <time>2021-07-23T11:59:07Z</time>
      </trkpt>
      <trkpt lat="45.08643" lon="2.80689">
        <ele>1334.2</ele>
        <time>2021-07-23T11:59:11Z</time>
      </trkpt>
      <trkpt lat="45.08639" lon="2.80696">
        <ele>1335</ele>
        <time>2021-07-23T11:59:15Z</time>
      </trkpt>
      <trkpt lat="45.08636" lon="2.80703">
        <ele>1335.7</ele>
        <time>2021-07-23T11:59:19Z</time>
      </trkpt>
      <trkpt lat="45.08634" lon="2.8071">
        <ele>1335.9</ele>
        <time>2021-07-23T11:59:23Z</time>
      </trkpt>
      <trkpt lat="45.0863" lon="2.80717">
        <ele>1336.4</ele>
        <time>2021-07-23T11:59:27Z</time>
      </trkpt>
      <trkpt lat="45.08627" lon="2.80724">
        <ele>1336.9</ele>
        <time>2021-07-23T11:59:31Z</time>
      </trkpt>
      <trkpt lat="45.08625" lon="2.80733">
        <ele>1337.1</ele>
        <time>2021-07-23T11:59:35Z</time>
      </trkpt>
      <trkpt lat="45.08622" lon="2.80743">
        <ele>1337.1</ele>
        <time>2021-07-23T11:59:39Z</time>
      </trkpt>
      <trkpt lat="45.08621" lon="2.8075">
        <ele>1337</ele>
        <time>2021-07-23T11:59:41Z</time>
      </trkpt>
      <trkpt lat="45.0862" lon="2.8076">
        <ele>1336.7</ele>
        <time>2021-07-23T11:59:45Z</time>
      </trkpt>
      <trkpt lat="45.08619" lon="2.80772">
        <ele>1336.6</ele>
        <time>2021-07-23T11:59:49Z</time>
      </trkpt>
      <trkpt lat="45.08616" lon="2.80782">
        <ele>1336.9</ele>
        <time>2021-07-23T11:59:53Z</time>
      </trkpt>
      <trkpt lat="45.08613" lon="2.80794">
        <ele>1337.1</ele>
        <time>2021-07-23T11:59:57Z</time>
      </trkpt>
      <trkpt lat="45.08613" lon="2.80801">
        <ele>1336.9</ele>
        <time>2021-07-23T11:59:59Z</time>
      </trkpt>
      <trkpt lat="45.0861" lon="2.8081">
        <ele>1337.3</ele>
        <time>2021-07-23T12:00:01Z</time>
      </trkpt>
      <trkpt lat="45.08608" lon="2.80822">
        <ele>1337.4</ele>
        <time>2021-07-23T12:00:03Z</time>
      </trkpt>
      <trkpt lat="45.08606" lon="2.80834">
        <ele>1337.6</ele>
        <time>2021-07-23T12:00:05Z</time>
      </trkpt>
      <trkpt lat="45.08604" lon="2.80847">
        <ele>1337.5</ele>
        <time>2021-07-23T12:00:07Z</time>
      </trkpt>
      <trkpt lat="45.08604" lon="2.8086">
        <ele>1337</ele>
        <time>2021-07-23T12:00:09Z</time>
      </trkpt>
      <trkpt lat="45.08603" lon="2.80871">
        <ele>1336.8</ele>
        <time>2021-07-23T12:00:11Z</time>
      </trkpt>
      <trkpt lat="45.08603" lon="2.80884">
        <ele>1336.1</ele>
        <time>2021-07-23T12:00:13Z</time>
      </trkpt>
      <trkpt lat="45.08606" lon="2.80898">
        <ele>1334.7</ele>
        <time>2021-07-23T12:00:15Z</time>
      </trkpt>
      <trkpt lat="45.08608" lon="2.80915">
        <ele>1333.2</ele>
        <time>2021-07-23T12:00:17Z</time>
      </trkpt>
      <trkpt lat="45.0861" lon="2.80932">
        <ele>1331.8</ele>
        <time>2021-07-23T12:00:19Z</time>
      </trkpt>
      <trkpt lat="45.08613" lon="2.80951">
        <ele>1329.9</ele>
        <time>2021-07-23T12:00:21Z</time>
      </trkpt>
      <trkpt lat="45.08616" lon="2.80971">
        <ele>1328</ele>
        <time>2021-07-23T12:00:23Z</time>
      </trkpt>
      <trkpt lat="45.08618" lon="2.8099">
        <ele>1326.6</ele>
        <time>2021-07-23T12:00:25Z</time>
      </trkpt>
      <trkpt lat="45.08619" lon="2.81012">
        <ele>1325.4</ele>
        <time>2021-07-23T12:00:27Z</time>
      </trkpt>
      <trkpt lat="45.08619" lon="2.81033">
        <ele>1325.1</ele>
        <time>2021-07-23T12:00:29Z</time>
      </trkpt>
      <trkpt lat="45.08619" lon="2.81051">
        <ele>1324.7</ele>
        <time>2021-07-23T12:00:31Z</time>
      </trkpt>
      <trkpt lat="45.08618" lon="2.81068">
        <ele>1324.8</ele>
        <time>2021-07-23T12:00:33Z</time>
      </trkpt>
      <trkpt lat="45.08616" lon="2.81087">
        <ele>1324.8</ele>
        <time>2021-07-23T12:00:35Z</time>
      </trkpt>
      <trkpt lat="45.08615" lon="2.81106">
        <ele>1323.5</ele>
        <time>2021-07-23T12:00:37Z</time>
      </trkpt>
      <trkpt lat="45.08609" lon="2.81125">
        <ele>1323.3</ele>
        <time>2021-07-23T12:00:39Z</time>
      </trkpt>
      <trkpt lat="45.08604" lon="2.81143">
        <ele>1323.2</ele>
        <time>2021-07-23T12:00:41Z</time>
      </trkpt>
      <trkpt lat="45.08596" lon="2.81157">
        <ele>1323.7</ele>
        <time>2021-07-23T12:00:43Z</time>
      </trkpt>
      <trkpt lat="45.08588" lon="2.81169">
        <ele>1324.8</ele>
        <time>2021-07-23T12:00:45Z</time>
      </trkpt>
      <trkpt lat="45.08579" lon="2.81178">
        <ele>1326.2</ele>
        <time>2021-07-23T12:00:47Z</time>
      </trkpt>
      <trkpt lat="45.08572" lon="2.81189">
        <ele>1326.9</ele>
        <time>2021-07-23T12:00:49Z</time>
      </trkpt>
      <trkpt lat="45.08566" lon="2.81202">
        <ele>1327.4</ele>
        <time>2021-07-23T12:00:51Z</time>
      </trkpt>
      <trkpt lat="45.08562" lon="2.81215">
        <ele>1327.7</ele>
        <time>2021-07-23T12:00:53Z</time>
      </trkpt>
      <trkpt lat="45.0856" lon="2.81227">
        <ele>1327.4</ele>
        <time>2021-07-23T12:00:55Z</time>
      </trkpt>
      <trkpt lat="45.08559" lon="2.81238">
        <ele>1326.9</ele>
        <time>2021-07-23T12:00:57Z</time>
      </trkpt>
      <trkpt lat="45.08559" lon="2.81246">
        <ele>1326.4</ele>
        <time>2021-07-23T12:00:59Z</time>
      </trkpt>
      <trkpt lat="45.08562" lon="2.81255">
        <ele>1325.4</ele>
        <time>2021-07-23T12:01:01Z</time>
      </trkpt>
      <trkpt lat="45.08557" lon="2.81266">
        <ele>1326.4</ele>
        <time>2021-07-23T12:01:05Z</time>
      </trkpt>
      <trkpt lat="45.08554" lon="2.81277">
        <ele>1327.1</ele>
        <time>2021-07-23T12:01:09Z</time>
      </trkpt>
      <trkpt lat="45.0855" lon="2.81286">
        <ele>1328</ele>
        <time>2021-07-23T12:01:13Z</time>
      </trkpt>
      <trkpt lat="45.08546" lon="2.81296">
        <ele>1328.8</ele>
        <time>2021-07-23T12:01:17Z</time>
      </trkpt>
      <trkpt lat="45.08543" lon="2.81306">
        <ele>1329.6</ele>
        <time>2021-07-23T12:01:21Z</time>
      </trkpt>
      <trkpt lat="45.08539" lon="2.81316">
        <ele>1330.5</ele>
        <time>2021-07-23T12:01:25Z</time>
      </trkpt>
      <trkpt lat="45.08535" lon="2.81325">
        <ele>1331.2</ele>
        <time>2021-07-23T12:01:29Z</time>
      </trkpt>
      <trkpt lat="45.08531" lon="2.81335">
        <ele>1332.1</ele>
        <time>2021-07-23T12:01:33Z</time>
      </trkpt>
      <trkpt lat="45.08527" lon="2.81343">
        <ele>1332.8</ele>
        <time>2021-07-23T12:01:37Z</time>
      </trkpt>
      <trkpt lat="45.08525" lon="2.81351">
        <ele>1333.1</ele>
        <time>2021-07-23T12:01:41Z</time>
      </trkpt>
      <trkpt lat="45.08522" lon="2.81358">
        <ele>1333.4</ele>
        <time>2021-07-23T12:01:45Z</time>
      </trkpt>
      <trkpt lat="45.0852" lon="2.81368">
        <ele>1333.3</ele>
        <time>2021-07-23T12:01:49Z</time>
      </trkpt>
      <trkpt lat="45.08519" lon="2.81378">
        <ele>1333.1</ele>
        <time>2021-07-23T12:01:53Z</time>
      </trkpt>
      <trkpt lat="45.08516" lon="2.81387">
        <ele>1333.2</ele>
        <time>2021-07-23T12:01:57Z</time>
      </trkpt>
      <trkpt lat="45.08514" lon="2.81394">
        <ele>1333.3</ele>
        <time>2021-07-23T12:01:59Z</time>
      </trkpt>
      <trkpt lat="45.08511" lon="2.81402">
        <ele>1333.3</ele>
        <time>2021-07-23T12:02:01Z</time>
      </trkpt>
      <trkpt lat="45.08509" lon="2.81411">
        <ele>1333.1</ele>
        <time>2021-07-23T12:02:05Z</time>
      </trkpt>
      <trkpt lat="45.08507" lon="2.8142">
        <ele>1332.9</ele>
        <time>2021-07-23T12:02:09Z</time>
      </trkpt>
      <trkpt lat="45.08506" lon="2.81428">
        <ele>1332.6</ele>
        <time>2021-07-23T12:02:13Z</time>
      </trkpt>
      <trkpt lat="45.08502" lon="2.81433">
        <ele>1332.8</ele>
        <time>2021-07-23T12:02:17Z</time>
      </trkpt>
      <trkpt lat="45.08496" lon="2.81438">
        <ele>1332.6</ele>
        <time>2021-07-23T12:02:21Z</time>
      </trkpt>
      <trkpt lat="45.08494" lon="2.81433">
        <ele>1332.8</ele>
        <time>2021-07-23T12:02:25Z</time>
      </trkpt>
      <trkpt lat="45.08498" lon="2.81425">
        <ele>1333.4</ele>
        <time>2021-07-23T12:02:29Z</time>
      </trkpt>
      <trkpt lat="45.08504" lon="2.8142">
        <ele>1333.2</ele>
        <time>2021-07-23T12:02:33Z</time>
      </trkpt>
      <trkpt lat="45.08509" lon="2.81411">
        <ele>1333.1</ele>
        <time>2021-07-23T12:02:37Z</time>
      </trkpt>
      <trkpt lat="45.08512" lon="2.81405">
        <ele>1333</ele>
        <time>2021-07-23T12:02:41Z</time>
      </trkpt>
      <trkpt lat="45.08515" lon="2.81399">
        <ele>1332.7</ele>
        <time>2021-07-23T12:02:45Z</time>
      </trkpt>
      <trkpt lat="45.08511" lon="2.81405">
        <ele>1333</ele>
        <time>2021-07-23T12:08:55Z</time>
      </trkpt>
      <trkpt lat="45.08507" lon="2.81412">
        <ele>1333.3</ele>
        <time>2021-07-23T12:09:01Z</time>
      </trkpt>
      <trkpt lat="45.08502" lon="2.81418">
        <ele>1333.6</ele>
        <time>2021-07-23T12:09:07Z</time>
      </trkpt>
      <trkpt lat="45.08498" lon="2.81424">
        <ele>1333.5</ele>
        <time>2021-07-23T12:09:13Z</time>
      </trkpt>
      <trkpt lat="45.08494" lon="2.81428">
        <ele>1333.1</ele>
        <time>2021-07-23T12:09:17Z</time>
      </trkpt>
      <trkpt lat="45.0849" lon="2.81432">
        <ele>1332.8</ele>
        <time>2021-07-23T12:09:21Z</time>
      </trkpt>
      <trkpt lat="45.08485" lon="2.81434">
        <ele>1332.5</ele>
        <time>2021-07-23T12:09:25Z</time>
      </trkpt>
      <trkpt lat="45.0848" lon="2.81436">
        <ele>1332.2</ele>
        <time>2021-07-23T12:09:29Z</time>
      </trkpt>
      <trkpt lat="45.08474" lon="2.81439">
        <ele>1331.8</ele>
        <time>2021-07-23T12:09:35Z</time>
      </trkpt>
      <trkpt lat="45.0847" lon="2.8144">
        <ele>1331.6</ele>
        <time>2021-07-23T12:09:39Z</time>
      </trkpt>
      <trkpt lat="45.08464" lon="2.81444">
        <ele>1331.1</ele>
        <time>2021-07-23T12:09:45Z</time>
      </trkpt>
      <trkpt lat="45.08458" lon="2.81448">
        <ele>1330.6</ele>
        <time>2021-07-23T12:09:51Z</time>
      </trkpt>
      <trkpt lat="45.08454" lon="2.81452">
        <ele>1330.1</ele>
        <time>2021-07-23T12:09:55Z</time>
      </trkpt>
      <trkpt lat="45.08449" lon="2.81457">
        <ele>1329.5</ele>
        <time>2021-07-23T12:10:01Z</time>
      </trkpt>
      <trkpt lat="45.08444" lon="2.81461">
        <ele>1328.9</ele>
        <time>2021-07-23T12:10:07Z</time>
      </trkpt>
      <trkpt lat="45.08439" lon="2.81463">
        <ele>1328.6</ele>
        <time>2021-07-23T12:10:11Z</time>
      </trkpt>
      <trkpt lat="45.08436" lon="2.81469">
        <ele>1327.9</ele>
        <time>2021-07-23T12:10:17Z</time>
      </trkpt>
      <trkpt lat="45.0843" lon="2.8147">
        <ele>1327.5</ele>
        <time>2021-07-23T12:10:23Z</time>
      </trkpt>
      <trkpt lat="45.08426" lon="2.81473">
        <ele>1327.1</ele>
        <time>2021-07-23T12:10:31Z</time>
      </trkpt>
      <trkpt lat="45.08422" lon="2.81466">
        <ele>1327.5</ele>
        <time>2021-07-23T12:21:47Z</time>
      </trkpt>
      <trkpt lat="45.0842" lon="2.81475">
        <ele>1326.6</ele>
        <time>2021-07-23T12:25:19Z</time>
      </trkpt>
      <trkpt lat="45.08422" lon="2.81482">
        <ele>1326</ele>
        <time>2021-07-23T12:25:29Z</time>
      </trkpt>
      <trkpt lat="45.08425" lon="2.81478">
        <ele>1326.6</ele>
        <time>2021-07-23T12:53:11Z</time>
      </trkpt>
      <trkpt lat="45.08423" lon="2.81472">
        <ele>1327</ele>
        <time>2021-07-23T13:07:57Z</time>
      </trkpt>
      <trkpt lat="45.08428" lon="2.81473">
        <ele>1327.2</ele>
        <time>2021-07-23T13:08:29Z</time>
      </trkpt>
      <trkpt lat="45.08434" lon="2.81469">
        <ele>1327.8</ele>
        <time>2021-07-23T13:08:33Z</time>
      </trkpt>
      <trkpt lat="45.0844" lon="2.81463">
        <ele>1328.6</ele>
        <time>2021-07-23T13:08:37Z</time>
      </trkpt>
      <trkpt lat="45.08444" lon="2.81455">
        <ele>1329.4</ele>
        <time>2021-07-23T13:08:41Z</time>
      </trkpt>
      <trkpt lat="45.08449" lon="2.81449">
        <ele>1330.1</ele>
        <time>2021-07-23T13:08:45Z</time>
      </trkpt>
      <trkpt lat="45.08455" lon="2.81442">
        <ele>1330.9</ele>
        <time>2021-07-23T13:08:49Z</time>
      </trkpt>
      <trkpt lat="45.08462" lon="2.8144">
        <ele>1331.3</ele>
        <time>2021-07-23T13:08:53Z</time>
      </trkpt>
      <trkpt lat="45.0847" lon="2.81438">
        <ele>1331.7</ele>
        <time>2021-07-23T13:08:57Z</time>
      </trkpt>
      <trkpt lat="45.08474" lon="2.81438">
        <ele>1331.8</ele>
        <time>2021-07-23T13:08:59Z</time>
      </trkpt>
      <trkpt lat="45.08479" lon="2.81437">
        <ele>1332.1</ele>
        <time>2021-07-23T13:09:01Z</time>
      </trkpt>
      <trkpt lat="45.08484" lon="2.81437">
        <ele>1332.3</ele>
        <time>2021-07-23T13:09:03Z</time>
      </trkpt>
      <trkpt lat="45.08489" lon="2.81434">
        <ele>1332.6</ele>
        <time>2021-07-23T13:09:05Z</time>
      </trkpt>
      <trkpt lat="45.08493" lon="2.8143">
        <ele>1333</ele>
        <time>2021-07-23T13:09:07Z</time>
      </trkpt>
      <trkpt lat="45.08498" lon="2.81424">
        <ele>1333.5</ele>
        <time>2021-07-23T13:09:09Z</time>
      </trkpt>
      <trkpt lat="45.08502" lon="2.81419">
        <ele>1333.6</ele>
        <time>2021-07-23T13:09:11Z</time>
      </trkpt>
      <trkpt lat="45.08505" lon="2.81413">
        <ele>1333.5</ele>
        <time>2021-07-23T13:09:13Z</time>
      </trkpt>
      <trkpt lat="45.08508" lon="2.81408">
        <ele>1333.4</ele>
        <time>2021-07-23T13:09:15Z</time>
      </trkpt>
      <trkpt lat="45.08512" lon="2.81398">
        <ele>1333.3</ele>
        <time>2021-07-23T13:09:19Z</time>
      </trkpt>
      <trkpt lat="45.08516" lon="2.81392">
        <ele>1333</ele>
        <time>2021-07-23T13:09:23Z</time>
      </trkpt>
      <trkpt lat="45.08512" lon="2.81397">
        <ele>1333.3</ele>
        <time>2021-07-23T13:09:43Z</time>
      </trkpt>
      <trkpt lat="45.08508" lon="2.81406">
        <ele>1333.5</ele>
        <time>2021-07-23T13:09:53Z</time>
      </trkpt>
      <trkpt lat="45.08506" lon="2.81412">
        <ele>1333.5</ele>
        <time>2021-07-23T13:09:55Z</time>
      </trkpt>
      <trkpt lat="45.08503" lon="2.81417">
        <ele>1333.6</ele>
        <time>2021-07-23T13:09:57Z</time>
      </trkpt>
      <trkpt lat="45.08499" lon="2.81421">
        <ele>1333.7</ele>
        <time>2021-07-23T13:09:59Z</time>
      </trkpt>
      <trkpt lat="45.08496" lon="2.81427">
        <ele>1333.3</ele>
        <time>2021-07-23T13:10:19Z</time>
      </trkpt>
      <trkpt lat="45.08492" lon="2.8143">
        <ele>1333</ele>
        <time>2021-07-23T13:10:21Z</time>
      </trkpt>
      <trkpt lat="45.08484" lon="2.81433">
        <ele>1332.5</ele>
        <time>2021-07-23T13:10:25Z</time>
      </trkpt>
      <trkpt lat="45.08477" lon="2.81434">
        <ele>1332.3</ele>
        <time>2021-07-23T13:10:29Z</time>
      </trkpt>
      <trkpt lat="45.0847" lon="2.81434">
        <ele>1332</ele>
        <time>2021-07-23T13:10:55Z</time>
      </trkpt>
      <trkpt lat="45.08465" lon="2.81431">
        <ele>1332.1</ele>
        <time>2021-07-23T13:10:59Z</time>
      </trkpt>
      <trkpt lat="45.08464" lon="2.81423">
        <ele>1332.6</ele>
        <time>2021-07-23T13:11:03Z</time>
      </trkpt>
      <trkpt lat="45.08465" lon="2.81416">
        <ele>1333.2</ele>
        <time>2021-07-23T13:11:07Z</time>
      </trkpt>
      <trkpt lat="45.08465" lon="2.81408">
        <ele>1333.8</ele>
        <time>2021-07-23T13:11:13Z</time>
      </trkpt>
      <trkpt lat="45.08464" lon="2.81399">
        <ele>1334.5</ele>
        <time>2021-07-23T13:11:17Z</time>
      </trkpt>
      <trkpt lat="45.08463" lon="2.8139">
        <ele>1335.3</ele>
        <time>2021-07-23T13:11:21Z</time>
      </trkpt>
      <trkpt lat="45.08462" lon="2.81384">
        <ele>1335.8</ele>
        <time>2021-07-23T13:11:25Z</time>
      </trkpt>
      <trkpt lat="45.08462" lon="2.81375">
        <ele>1336.6</ele>
        <time>2021-07-23T13:11:29Z</time>
      </trkpt>
      <trkpt lat="45.08463" lon="2.81367">
        <ele>1337.2</ele>
        <time>2021-07-23T13:11:33Z</time>
      </trkpt>
      <trkpt lat="45.08461" lon="2.8136">
        <ele>1337.7</ele>
        <time>2021-07-23T13:11:37Z</time>
      </trkpt>
      <trkpt lat="45.0846" lon="2.81353">
        <ele>1338.3</ele>
        <time>2021-07-23T13:11:41Z</time>
      </trkpt>
      <trkpt lat="45.08458" lon="2.81346">
        <ele>1338.9</ele>
        <time>2021-07-23T13:11:47Z</time>
      </trkpt>
      <trkpt lat="45.08456" lon="2.81339">
        <ele>1339.5</ele>
        <time>2021-07-23T13:11:53Z</time>
      </trkpt>
      <trkpt lat="45.08452" lon="2.81335">
        <ele>1339.8</ele>
        <time>2021-07-23T13:11:57Z</time>
      </trkpt>
      <trkpt lat="45.0845" lon="2.81328">
        <ele>1340.3</ele>
        <time>2021-07-23T13:12:03Z</time>
      </trkpt>
      <trkpt lat="45.08448" lon="2.81321">
        <ele>1340.8</ele>
        <time>2021-07-23T13:12:09Z</time>
      </trkpt>
      <trkpt lat="45.08447" lon="2.81314">
        <ele>1341.3</ele>
        <time>2021-07-23T13:12:13Z</time>
      </trkpt>
      <trkpt lat="45.08445" lon="2.81307">
        <ele>1341.8</ele>
        <time>2021-07-23T13:12:17Z</time>
      </trkpt>
      <trkpt lat="45.08443" lon="2.813">
        <ele>1342.3</ele>
        <time>2021-07-23T13:12:21Z</time>
      </trkpt>
      <trkpt lat="45.08441" lon="2.81294">
        <ele>1342.8</ele>
        <time>2021-07-23T13:12:25Z</time>
      </trkpt>
      <trkpt lat="45.08439" lon="2.81287">
        <ele>1343.4</ele>
        <time>2021-07-23T13:12:29Z</time>
      </trkpt>
      <trkpt lat="45.08436" lon="2.81281">
        <ele>1344</ele>
        <time>2021-07-23T13:12:35Z</time>
      </trkpt>
      <trkpt lat="45.08432" lon="2.81275">
        <ele>1344.7</ele>
        <time>2021-07-23T13:12:41Z</time>
      </trkpt>
      <trkpt lat="45.08429" lon="2.81268">
        <ele>1345.5</ele>
        <time>2021-07-23T13:12:45Z</time>
      </trkpt>
      <trkpt lat="45.08427" lon="2.8126">
        <ele>1346.2</ele>
        <time>2021-07-23T13:12:49Z</time>
      </trkpt>
      <trkpt lat="45.08424" lon="2.81254">
        <ele>1347</ele>
        <time>2021-07-23T13:12:53Z</time>
      </trkpt>
      <trkpt lat="45.08421" lon="2.81248">
        <ele>1347.8</ele>
        <time>2021-07-23T13:12:57Z</time>
      </trkpt>
      <trkpt lat="45.08416" lon="2.81239">
        <ele>1348.5</ele>
        <time>2021-07-23T13:13:01Z</time>
      </trkpt>
      <trkpt lat="45.08411" lon="2.81233">
        <ele>1347.8</ele>
        <time>2021-07-23T13:13:05Z</time>
      </trkpt>
      <trkpt lat="45.08408" lon="2.81223">
        <ele>1347.9</ele>
        <time>2021-07-23T13:13:09Z</time>
      </trkpt>
      <trkpt lat="45.08405" lon="2.81215">
        <ele>1347.8</ele>
        <time>2021-07-23T13:13:13Z</time>
      </trkpt>
      <trkpt lat="45.08403" lon="2.81207">
        <ele>1348</ele>
        <time>2021-07-23T13:13:17Z</time>
      </trkpt>
      <trkpt lat="45.08399" lon="2.812">
        <ele>1347.9</ele>
        <time>2021-07-23T13:13:21Z</time>
      </trkpt>
      <trkpt lat="45.08396" lon="2.81192">
        <ele>1348</ele>
        <time>2021-07-23T13:13:27Z</time>
      </trkpt>
      <trkpt lat="45.08394" lon="2.81182">
        <ele>1348.4</ele>
        <time>2021-07-23T13:13:33Z</time>
      </trkpt>
      <trkpt lat="45.08393" lon="2.81173">
        <ele>1348.9</ele>
        <time>2021-07-23T13:13:37Z</time>
      </trkpt>
      <trkpt lat="45.08391" lon="2.81166">
        <ele>1349.2</ele>
        <time>2021-07-23T13:13:41Z</time>
      </trkpt>
      <trkpt lat="45.08389" lon="2.81159">
        <ele>1349.7</ele>
        <time>2021-07-23T13:13:45Z</time>
      </trkpt>
      <trkpt lat="45.08387" lon="2.81151">
        <ele>1350.2</ele>
        <time>2021-07-23T13:13:49Z</time>
      </trkpt>
      <trkpt lat="45.08385" lon="2.81143">
        <ele>1350.8</ele>
        <time>2021-07-23T13:13:53Z</time>
      </trkpt>
      <trkpt lat="45.08384" lon="2.81137">
        <ele>1351.3</ele>
        <time>2021-07-23T13:13:57Z</time>
      </trkpt>
      <trkpt lat="45.08382" lon="2.81129">
        <ele>1351.8</ele>
        <time>2021-07-23T13:14:01Z</time>
      </trkpt>
      <trkpt lat="45.08381" lon="2.81122">
        <ele>1352.4</ele>
        <time>2021-07-23T13:14:05Z</time>
      </trkpt>
      <trkpt lat="45.08379" lon="2.81114">
        <ele>1353.1</ele>
        <time>2021-07-23T13:14:09Z</time>
      </trkpt>
      <trkpt lat="45.08377" lon="2.81107">
        <ele>1353.7</ele>
        <time>2021-07-23T13:14:13Z</time>
      </trkpt>
      <trkpt lat="45.08373" lon="2.811">
        <ele>1354.2</ele>
        <time>2021-07-23T13:14:17Z</time>
      </trkpt>
      <trkpt lat="45.0837" lon="2.81093">
        <ele>1354.9</ele>
        <time>2021-07-23T13:14:21Z</time>
      </trkpt>
      <trkpt lat="45.08368" lon="2.81085">
        <ele>1355.7</ele>
        <time>2021-07-23T13:14:25Z</time>
      </trkpt>
      <trkpt lat="45.08364" lon="2.81078">
        <ele>1356.4</ele>
        <time>2021-07-23T13:14:29Z</time>
      </trkpt>
      <trkpt lat="45.08362" lon="2.81071">
        <ele>1357.1</ele>
        <time>2021-07-23T13:14:33Z</time>
      </trkpt>
      <trkpt lat="45.08357" lon="2.81065">
        <ele>1357.8</ele>
        <time>2021-07-23T13:14:37Z</time>
      </trkpt>
      <trkpt lat="45.08352" lon="2.81056">
        <ele>1358.7</ele>
        <time>2021-07-23T13:14:41Z</time>
      </trkpt>
      <trkpt lat="45.08346" lon="2.81047">
        <ele>1359.6</ele>
        <time>2021-07-23T13:14:45Z</time>
      </trkpt>
      <trkpt lat="45.08344" lon="2.8104">
        <ele>1360.3</ele>
        <time>2021-07-23T13:14:47Z</time>
      </trkpt>
      <trkpt lat="45.08341" lon="2.81035">
        <ele>1361</ele>
        <time>2021-07-23T13:14:49Z</time>
      </trkpt>
      <trkpt lat="45.08337" lon="2.81024">
        <ele>1362.2</ele>
        <time>2021-07-23T13:14:53Z</time>
      </trkpt>
      <trkpt lat="45.08334" lon="2.81019">
        <ele>1362.8</ele>
        <time>2021-07-23T13:14:55Z</time>
      </trkpt>
      <trkpt lat="45.08331" lon="2.81013">
        <ele>1363</ele>
        <time>2021-07-23T13:14:57Z</time>
      </trkpt>
      <trkpt lat="45.08328" lon="2.81008">
        <ele>1363.2</ele>
        <time>2021-07-23T13:14:59Z</time>
      </trkpt>
      <trkpt lat="45.08325" lon="2.81002">
        <ele>1363.5</ele>
        <time>2021-07-23T13:15:01Z</time>
      </trkpt>
      <trkpt lat="45.08322" lon="2.80997">
        <ele>1363.6</ele>
        <time>2021-07-23T13:15:03Z</time>
      </trkpt>
      <trkpt lat="45.0832" lon="2.80991">
        <ele>1363.9</ele>
        <time>2021-07-23T13:15:05Z</time>
      </trkpt>
      <trkpt lat="45.08315" lon="2.8098">
        <ele>1364.3</ele>
        <time>2021-07-23T13:15:09Z</time>
      </trkpt>
      <trkpt lat="45.08313" lon="2.80974">
        <ele>1364.7</ele>
        <time>2021-07-23T13:15:11Z</time>
      </trkpt>
      <trkpt lat="45.08307" lon="2.80964">
        <ele>1364.7</ele>
        <time>2021-07-23T13:15:15Z</time>
      </trkpt>
      <trkpt lat="45.08303" lon="2.80957">
        <ele>1364.7</ele>
        <time>2021-07-23T13:15:17Z</time>
      </trkpt>
      <trkpt lat="45.08299" lon="2.8095">
        <ele>1364.7</ele>
        <time>2021-07-23T13:15:19Z</time>
      </trkpt>
      <trkpt lat="45.08294" lon="2.80943">
        <ele>1364.4</ele>
        <time>2021-07-23T13:15:21Z</time>
      </trkpt>
      <trkpt lat="45.0829" lon="2.80934">
        <ele>1364.6</ele>
        <time>2021-07-23T13:15:23Z</time>
      </trkpt>
      <trkpt lat="45.08287" lon="2.80926">
        <ele>1364.7</ele>
        <time>2021-07-23T13:15:25Z</time>
      </trkpt>
      <trkpt lat="45.08283" lon="2.80919">
        <ele>1364.5</ele>
        <time>2021-07-23T13:15:27Z</time>
      </trkpt>
      <trkpt lat="45.08278" lon="2.80913">
        <ele>1364</ele>
        <time>2021-07-23T13:15:29Z</time>
      </trkpt>
      <trkpt lat="45.08274" lon="2.80905">
        <ele>1363.9</ele>
        <time>2021-07-23T13:15:31Z</time>
      </trkpt>
      <trkpt lat="45.08269" lon="2.80897">
        <ele>1363.7</ele>
        <time>2021-07-23T13:15:33Z</time>
      </trkpt>
      <trkpt lat="45.08264" lon="2.80888">
        <ele>1363.4</ele>
        <time>2021-07-23T13:15:35Z</time>
      </trkpt>
      <trkpt lat="45.0826" lon="2.80878">
        <ele>1363.6</ele>
        <time>2021-07-23T13:15:37Z</time>
      </trkpt>
      <trkpt lat="45.08255" lon="2.80871">
        <ele>1363.3</ele>
        <time>2021-07-23T13:15:39Z</time>
      </trkpt>
      <trkpt lat="45.08252" lon="2.80864">
        <ele>1363.4</ele>
        <time>2021-07-23T13:15:41Z</time>
      </trkpt>
      <trkpt lat="45.08248" lon="2.80857">
        <ele>1363.4</ele>
        <time>2021-07-23T13:15:43Z</time>
      </trkpt>
      <trkpt lat="45.08245" lon="2.80848">
        <ele>1363.6</ele>
        <time>2021-07-23T13:15:45Z</time>
      </trkpt>
      <trkpt lat="45.08243" lon="2.80839">
        <ele>1363.9</ele>
        <time>2021-07-23T13:15:47Z</time>
      </trkpt>
      <trkpt lat="45.08241" lon="2.8083">
        <ele>1364.2</ele>
        <time>2021-07-23T13:15:49Z</time>
      </trkpt>
      <trkpt lat="45.08237" lon="2.80823">
        <ele>1364.1</ele>
        <time>2021-07-23T13:15:51Z</time>
      </trkpt>
      <trkpt lat="45.08234" lon="2.80816">
        <ele>1364</ele>
        <time>2021-07-23T13:15:53Z</time>
      </trkpt>
      <trkpt lat="45.0823" lon="2.80809">
        <ele>1363.8</ele>
        <time>2021-07-23T13:15:55Z</time>
      </trkpt>
      <trkpt lat="45.08227" lon="2.80802">
        <ele>1363.9</ele>
        <time>2021-07-23T13:15:57Z</time>
      </trkpt>
      <trkpt lat="45.08223" lon="2.80796">
        <ele>1363.8</ele>
        <time>2021-07-23T13:15:59Z</time>
      </trkpt>
      <trkpt lat="45.0822" lon="2.8079">
        <ele>1363.7</ele>
        <time>2021-07-23T13:16:01Z</time>
      </trkpt>
      <trkpt lat="45.08215" lon="2.80786">
        <ele>1363.2</ele>
        <time>2021-07-23T13:16:03Z</time>
      </trkpt>
      <trkpt lat="45.08209" lon="2.8078">
        <ele>1362.7</ele>
        <time>2021-07-23T13:16:05Z</time>
      </trkpt>
      <trkpt lat="45.08202" lon="2.80774">
        <ele>1362.1</ele>
        <time>2021-07-23T13:16:07Z</time>
      </trkpt>
      <trkpt lat="45.08194" lon="2.80768">
        <ele>1361.4</ele>
        <time>2021-07-23T13:16:09Z</time>
      </trkpt>
      <trkpt lat="45.08187" lon="2.80761">
        <ele>1361</ele>
        <time>2021-07-23T13:16:11Z</time>
      </trkpt>
      <trkpt lat="45.0818" lon="2.80754">
        <ele>1360.8</ele>
        <time>2021-07-23T13:16:13Z</time>
      </trkpt>
      <trkpt lat="45.08174" lon="2.80748">
        <ele>1360.5</ele>
        <time>2021-07-23T13:16:15Z</time>
      </trkpt>
      <trkpt lat="45.08168" lon="2.80741">
        <ele>1360.4</ele>
        <time>2021-07-23T13:16:17Z</time>
      </trkpt>
      <trkpt lat="45.08163" lon="2.80735">
        <ele>1360.1</ele>
        <time>2021-07-23T13:16:19Z</time>
      </trkpt>
      <trkpt lat="45.08158" lon="2.8073">
        <ele>1359.8</ele>
        <time>2021-07-23T13:16:21Z</time>
      </trkpt>
      <trkpt lat="45.08153" lon="2.80724">
        <ele>1359.3</ele>
        <time>2021-07-23T13:16:23Z</time>
      </trkpt>
      <trkpt lat="45.08148" lon="2.80719">
        <ele>1358.9</ele>
        <time>2021-07-23T13:16:25Z</time>
      </trkpt>
      <trkpt lat="45.08143" lon="2.80713">
        <ele>1358.8</ele>
        <time>2021-07-23T13:16:27Z</time>
      </trkpt>
      <trkpt lat="45.08139" lon="2.80706">
        <ele>1358.9</ele>
        <time>2021-07-23T13:16:29Z</time>
      </trkpt>
      <trkpt lat="45.08136" lon="2.807">
        <ele>1358.9</ele>
        <time>2021-07-23T13:16:31Z</time>
      </trkpt>
      <trkpt lat="45.08132" lon="2.80693">
        <ele>1359.1</ele>
        <time>2021-07-23T13:16:33Z</time>
      </trkpt>
      <trkpt lat="45.08129" lon="2.80688">
        <ele>1359.2</ele>
        <time>2021-07-23T13:16:35Z</time>
      </trkpt>
      <trkpt lat="45.08125" lon="2.80677">
        <ele>1359.6</ele>
        <time>2021-07-23T13:16:39Z</time>
      </trkpt>
      <trkpt lat="45.08121" lon="2.80667">
        <ele>1360.3</ele>
        <time>2021-07-23T13:16:43Z</time>
      </trkpt>
      <trkpt lat="45.0812" lon="2.80656">
        <ele>1361.5</ele>
        <time>2021-07-23T13:16:47Z</time>
      </trkpt>
      <trkpt lat="45.08119" lon="2.80646">
        <ele>1362.6</ele>
        <time>2021-07-23T13:16:51Z</time>
      </trkpt>
      <trkpt lat="45.08119" lon="2.80637">
        <ele>1363.8</ele>
        <time>2021-07-23T13:16:55Z</time>
      </trkpt>
      <trkpt lat="45.08119" lon="2.80629">
        <ele>1364.9</ele>
        <time>2021-07-23T13:16:59Z</time>
      </trkpt>
      <trkpt lat="45.08117" lon="2.80621">
        <ele>1365.6</ele>
        <time>2021-07-23T13:17:03Z</time>
      </trkpt>
      <trkpt lat="45.08116" lon="2.80614">
        <ele>1366.3</ele>
        <time>2021-07-23T13:17:07Z</time>
      </trkpt>
      <trkpt lat="45.08116" lon="2.80606">
        <ele>1367.4</ele>
        <time>2021-07-23T13:17:11Z</time>
      </trkpt>
      <trkpt lat="45.08116" lon="2.80599">
        <ele>1368.3</ele>
        <time>2021-07-23T13:17:15Z</time>
      </trkpt>
      <trkpt lat="45.08114" lon="2.80591">
        <ele>1369.2</ele>
        <time>2021-07-23T13:17:19Z</time>
      </trkpt>
      <trkpt lat="45.08113" lon="2.80583">
        <ele>1370</ele>
        <time>2021-07-23T13:17:23Z</time>
      </trkpt>
      <trkpt lat="45.08111" lon="2.80576">
        <ele>1370.4</ele>
        <time>2021-07-23T13:17:27Z</time>
      </trkpt>
      <trkpt lat="45.0811" lon="2.80569">
        <ele>1370.8</ele>
        <time>2021-07-23T13:17:31Z</time>
      </trkpt>
      <trkpt lat="45.08109" lon="2.8056">
        <ele>1371.6</ele>
        <time>2021-07-23T13:17:37Z</time>
      </trkpt>
      <trkpt lat="45.08108" lon="2.80553">
        <ele>1372.1</ele>
        <time>2021-07-23T13:17:41Z</time>
      </trkpt>
      <trkpt lat="45.08107" lon="2.80545">
        <ele>1372.7</ele>
        <time>2021-07-23T13:17:47Z</time>
      </trkpt>
      <trkpt lat="45.08106" lon="2.80538">
        <ele>1373.3</ele>
        <time>2021-07-23T13:17:51Z</time>
      </trkpt>
      <trkpt lat="45.08105" lon="2.80528">
        <ele>1374.1</ele>
        <time>2021-07-23T13:17:57Z</time>
      </trkpt>
      <trkpt lat="45.08105" lon="2.80521">
        <ele>1374.7</ele>
        <time>2021-07-23T13:18:01Z</time>
      </trkpt>
      <trkpt lat="45.08104" lon="2.80514">
        <ele>1375.3</ele>
        <time>2021-07-23T13:18:05Z</time>
      </trkpt>
      <trkpt lat="45.08104" lon="2.80504">
        <ele>1376.3</ele>
        <time>2021-07-23T13:18:11Z</time>
      </trkpt>
      <trkpt lat="45.08105" lon="2.80495">
        <ele>1377.2</ele>
        <time>2021-07-23T13:18:15Z</time>
      </trkpt>
      <trkpt lat="45.08105" lon="2.80488">
        <ele>1377.7</ele>
        <time>2021-07-23T13:18:19Z</time>
      </trkpt>
      <trkpt lat="45.08106" lon="2.80481">
        <ele>1378.4</ele>
        <time>2021-07-23T13:18:23Z</time>
      </trkpt>
      <trkpt lat="45.08106" lon="2.80473">
        <ele>1378.9</ele>
        <time>2021-07-23T13:18:27Z</time>
      </trkpt>
      <trkpt lat="45.08105" lon="2.80465">
        <ele>1379.4</ele>
        <time>2021-07-23T13:18:31Z</time>
      </trkpt>
      <trkpt lat="45.08103" lon="2.80457">
        <ele>1379.6</ele>
        <time>2021-07-23T13:18:35Z</time>
      </trkpt>
      <trkpt lat="45.081" lon="2.80449">
        <ele>1379.8</ele>
        <time>2021-07-23T13:18:39Z</time>
      </trkpt>
      <trkpt lat="45.08099" lon="2.80441">
        <ele>1380.2</ele>
        <time>2021-07-23T13:18:43Z</time>
      </trkpt>
      <trkpt lat="45.08097" lon="2.80432">
        <ele>1380.4</ele>
        <time>2021-07-23T13:18:47Z</time>
      </trkpt>
      <trkpt lat="45.08095" lon="2.80422">
        <ele>1380.8</ele>
        <time>2021-07-23T13:18:51Z</time>
      </trkpt>
      <trkpt lat="45.08092" lon="2.8041">
        <ele>1381.4</ele>
        <time>2021-07-23T13:18:55Z</time>
      </trkpt>
      <trkpt lat="45.08091" lon="2.80403">
        <ele>1381.9</ele>
        <time>2021-07-23T13:18:57Z</time>
      </trkpt>
      <trkpt lat="45.0809" lon="2.80396">
        <ele>1382.4</ele>
        <time>2021-07-23T13:18:59Z</time>
      </trkpt>
      <trkpt lat="45.08088" lon="2.80389">
        <ele>1382.8</ele>
        <time>2021-07-23T13:19:01Z</time>
      </trkpt>
      <trkpt lat="45.08086" lon="2.80381">
        <ele>1383.4</ele>
        <time>2021-07-23T13:19:03Z</time>
      </trkpt>
      <trkpt lat="45.08085" lon="2.80374">
        <ele>1383.9</ele>
        <time>2021-07-23T13:19:05Z</time>
      </trkpt>
      <trkpt lat="45.08084" lon="2.80367">
        <ele>1384.4</ele>
        <time>2021-07-23T13:19:07Z</time>
      </trkpt>
      <trkpt lat="45.08083" lon="2.8036">
        <ele>1384.9</ele>
        <time>2021-07-23T13:19:09Z</time>
      </trkpt>
      <trkpt lat="45.08081" lon="2.80354">
        <ele>1385.3</ele>
        <time>2021-07-23T13:19:11Z</time>
      </trkpt>
      <trkpt lat="45.0808" lon="2.80346">
        <ele>1385.8</ele>
        <time>2021-07-23T13:19:13Z</time>
      </trkpt>
      <trkpt lat="45.08077" lon="2.8034">
        <ele>1386</ele>
        <time>2021-07-23T13:19:15Z</time>
      </trkpt>
      <trkpt lat="45.08074" lon="2.80334">
        <ele>1386</ele>
        <time>2021-07-23T13:19:17Z</time>
      </trkpt>
      <trkpt lat="45.0807" lon="2.80329">
        <ele>1386.2</ele>
        <time>2021-07-23T13:19:19Z</time>
      </trkpt>
      <trkpt lat="45.08066" lon="2.80325">
        <ele>1385.9</ele>
        <time>2021-07-23T13:19:21Z</time>
      </trkpt>
      <trkpt lat="45.08062" lon="2.80321">
        <ele>1385.8</ele>
        <time>2021-07-23T13:19:23Z</time>
      </trkpt>
      <trkpt lat="45.08057" lon="2.80318">
        <ele>1385.3</ele>
        <time>2021-07-23T13:19:25Z</time>
      </trkpt>
      <trkpt lat="45.08052" lon="2.80316">
        <ele>1384.7</ele>
        <time>2021-07-23T13:19:27Z</time>
      </trkpt>
      <trkpt lat="45.08047" lon="2.80314">
        <ele>1384.1</ele>
        <time>2021-07-23T13:19:29Z</time>
      </trkpt>
      <trkpt lat="45.08042" lon="2.80313">
        <ele>1383.5</ele>
        <time>2021-07-23T13:19:31Z</time>
      </trkpt>
      <trkpt lat="45.08037" lon="2.80311">
        <ele>1382.9</ele>
        <time>2021-07-23T13:19:33Z</time>
      </trkpt>
      <trkpt lat="45.08031" lon="2.80309">
        <ele>1382.3</ele>
        <time>2021-07-23T13:19:35Z</time>
      </trkpt>
      <trkpt lat="45.08026" lon="2.80306">
        <ele>1381.9</ele>
        <time>2021-07-23T13:19:37Z</time>
      </trkpt>
      <trkpt lat="45.08021" lon="2.80303">
        <ele>1381.5</ele>
        <time>2021-07-23T13:19:39Z</time>
      </trkpt>
      <trkpt lat="45.08016" lon="2.80301">
        <ele>1381.1</ele>
        <time>2021-07-23T13:19:41Z</time>
      </trkpt>
      <trkpt lat="45.08012" lon="2.80297">
        <ele>1381.1</ele>
        <time>2021-07-23T13:19:43Z</time>
      </trkpt>
      <trkpt lat="45.08008" lon="2.80294">
        <ele>1380.8</ele>
        <time>2021-07-23T13:19:45Z</time>
      </trkpt>
      <trkpt lat="45.08001" lon="2.80292">
        <ele>1380.2</ele>
        <time>2021-07-23T13:19:49Z</time>
      </trkpt>
      <trkpt lat="45.07993" lon="2.8029">
        <ele>1378</ele>
        <time>2021-07-23T13:22:25Z</time>
      </trkpt>
      <trkpt lat="45.07988" lon="2.80286">
        <ele>1377.2</ele>
        <time>2021-07-23T13:22:27Z</time>
      </trkpt>
      <trkpt lat="45.07983" lon="2.80282">
        <ele>1376.6</ele>
        <time>2021-07-23T13:22:29Z</time>
      </trkpt>
      <trkpt lat="45.07978" lon="2.80275">
        <ele>1376.3</ele>
        <time>2021-07-23T13:22:31Z</time>
      </trkpt>
      <trkpt lat="45.07974" lon="2.80266">
        <ele>1376.8</ele>
        <time>2021-07-23T13:22:33Z</time>
      </trkpt>
      <trkpt lat="45.07968" lon="2.80258">
        <ele>1376.8</ele>
        <time>2021-07-23T13:22:35Z</time>
      </trkpt>
      <trkpt lat="45.07961" lon="2.80248">
        <ele>1376.9</ele>
        <time>2021-07-23T13:22:37Z</time>
      </trkpt>
      <trkpt lat="45.07955" lon="2.80237">
        <ele>1377.3</ele>
        <time>2021-07-23T13:22:39Z</time>
      </trkpt>
      <trkpt lat="45.07947" lon="2.80226">
        <ele>1377.1</ele>
        <time>2021-07-23T13:22:41Z</time>
      </trkpt>
      <trkpt lat="45.07938" lon="2.80214">
        <ele>1377.3</ele>
        <time>2021-07-23T13:22:43Z</time>
      </trkpt>
      <trkpt lat="45.07931" lon="2.80202">
        <ele>1378.2</ele>
        <time>2021-07-23T13:22:45Z</time>
      </trkpt>
      <trkpt lat="45.07923" lon="2.80191">
        <ele>1379.1</ele>
        <time>2021-07-23T13:22:47Z</time>
      </trkpt>
      <trkpt lat="45.07915" lon="2.80181">
        <ele>1379.6</ele>
        <time>2021-07-23T13:22:49Z</time>
      </trkpt>
      <trkpt lat="45.07908" lon="2.80173">
        <ele>1378.6</ele>
        <time>2021-07-23T13:22:51Z</time>
      </trkpt>
      <trkpt lat="45.079" lon="2.80165">
        <ele>1377.1</ele>
        <time>2021-07-23T13:22:53Z</time>
      </trkpt>
      <trkpt lat="45.07891" lon="2.80156">
        <ele>1375.1</ele>
        <time>2021-07-23T13:22:55Z</time>
      </trkpt>
      <trkpt lat="45.07882" lon="2.80147">
        <ele>1373.1</ele>
        <time>2021-07-23T13:22:57Z</time>
      </trkpt>
      <trkpt lat="45.07875" lon="2.80135">
        <ele>1372.4</ele>
        <time>2021-07-23T13:22:59Z</time>
      </trkpt>
      <trkpt lat="45.07868" lon="2.80121">
        <ele>1372.4</ele>
        <time>2021-07-23T13:23:01Z</time>
      </trkpt>
      <trkpt lat="45.07861" lon="2.80106">
        <ele>1372.7</ele>
        <time>2021-07-23T13:23:03Z</time>
      </trkpt>
      <trkpt lat="45.07854" lon="2.80091">
        <ele>1373.4</ele>
        <time>2021-07-23T13:23:05Z</time>
      </trkpt>
      <trkpt lat="45.07848" lon="2.80075">
        <ele>1374.2</ele>
        <time>2021-07-23T13:23:07Z</time>
      </trkpt>
      <trkpt lat="45.07843" lon="2.80058">
        <ele>1375.1</ele>
        <time>2021-07-23T13:23:09Z</time>
      </trkpt>
      <trkpt lat="45.07837" lon="2.80041">
        <ele>1376.2</ele>
        <time>2021-07-23T13:23:11Z</time>
      </trkpt>
      <trkpt lat="45.07831" lon="2.80023">
        <ele>1376.8</ele>
        <time>2021-07-23T13:23:13Z</time>
      </trkpt>
      <trkpt lat="45.07822" lon="2.80005">
        <ele>1376.3</ele>
        <time>2021-07-23T13:23:15Z</time>
      </trkpt>
      <trkpt lat="45.07814" lon="2.79988">
        <ele>1374.7</ele>
        <time>2021-07-23T13:23:17Z</time>
      </trkpt>
      <trkpt lat="45.07805" lon="2.7997">
        <ele>1372.8</ele>
        <time>2021-07-23T13:23:19Z</time>
      </trkpt>
      <trkpt lat="45.07797" lon="2.79952">
        <ele>1371.8</ele>
        <time>2021-07-23T13:23:21Z</time>
      </trkpt>
      <trkpt lat="45.07788" lon="2.79933">
        <ele>1370.8</ele>
        <time>2021-07-23T13:23:23Z</time>
      </trkpt>
      <trkpt lat="45.07781" lon="2.79915">
        <ele>1370.5</ele>
        <time>2021-07-23T13:23:25Z</time>
      </trkpt>
      <trkpt lat="45.07775" lon="2.79897">
        <ele>1370</ele>
        <time>2021-07-23T13:23:27Z</time>
      </trkpt>
      <trkpt lat="45.0777" lon="2.79879">
        <ele>1370</ele>
        <time>2021-07-23T13:23:29Z</time>
      </trkpt>
      <trkpt lat="45.07766" lon="2.79861">
        <ele>1370.2</ele>
        <time>2021-07-23T13:23:31Z</time>
      </trkpt>
      <trkpt lat="45.07764" lon="2.79843">
        <ele>1370.9</ele>
        <time>2021-07-23T13:23:33Z</time>
      </trkpt>
      <trkpt lat="45.07762" lon="2.79826">
        <ele>1371.3</ele>
        <time>2021-07-23T13:23:35Z</time>
      </trkpt>
      <trkpt lat="45.07761" lon="2.7981">
        <ele>1371.2</ele>
        <time>2021-07-23T13:23:37Z</time>
      </trkpt>
      <trkpt lat="45.07761" lon="2.79795">
        <ele>1371.5</ele>
        <time>2021-07-23T13:23:39Z</time>
      </trkpt>
      <trkpt lat="45.07761" lon="2.79782">
        <ele>1371.9</ele>
        <time>2021-07-23T13:23:41Z</time>
      </trkpt>
      <trkpt lat="45.07762" lon="2.79771">
        <ele>1372.5</ele>
        <time>2021-07-23T13:23:43Z</time>
      </trkpt>
      <trkpt lat="45.07762" lon="2.79762">
        <ele>1372.8</ele>
        <time>2021-07-23T13:23:45Z</time>
      </trkpt>
      <trkpt lat="45.07763" lon="2.79753">
        <ele>1373.4</ele>
        <time>2021-07-23T13:23:47Z</time>
      </trkpt>
      <trkpt lat="45.07764" lon="2.79745">
        <ele>1373.7</ele>
        <time>2021-07-23T13:23:49Z</time>
      </trkpt>
      <trkpt lat="45.07765" lon="2.79738">
        <ele>1373.9</ele>
        <time>2021-07-23T13:23:51Z</time>
      </trkpt>
      <trkpt lat="45.07766" lon="2.7973">
        <ele>1374.2</ele>
        <time>2021-07-23T13:23:53Z</time>
      </trkpt>
      <trkpt lat="45.07767" lon="2.79723">
        <ele>1374.4</ele>
        <time>2021-07-23T13:23:55Z</time>
      </trkpt>
      <trkpt lat="45.07768" lon="2.79715">
        <ele>1374.6</ele>
        <time>2021-07-23T13:23:57Z</time>
      </trkpt>
      <trkpt lat="45.07769" lon="2.79708">
        <ele>1374.9</ele>
        <time>2021-07-23T13:23:59Z</time>
      </trkpt>
      <trkpt lat="45.07771" lon="2.79702">
        <ele>1375.3</ele>
        <time>2021-07-23T13:24:01Z</time>
      </trkpt>
      <trkpt lat="45.07771" lon="2.79695">
        <ele>1375.4</ele>
        <time>2021-07-23T13:24:03Z</time>
      </trkpt>
      <trkpt lat="45.07773" lon="2.79683">
        <ele>1375.8</ele>
        <time>2021-07-23T13:24:07Z</time>
      </trkpt>
      <trkpt lat="45.07774" lon="2.79677">
        <ele>1376</ele>
        <time>2021-07-23T13:24:09Z</time>
      </trkpt>
      <trkpt lat="45.07775" lon="2.7967">
        <ele>1376.3</ele>
        <time>2021-07-23T13:24:11Z</time>
      </trkpt>
      <trkpt lat="45.07775" lon="2.79663">
        <ele>1376.6</ele>
        <time>2021-07-23T13:24:13Z</time>
      </trkpt>
      <trkpt lat="45.07777" lon="2.79651">
        <ele>1377.2</ele>
        <time>2021-07-23T13:24:17Z</time>
      </trkpt>
      <trkpt lat="45.07779" lon="2.79639">
        <ele>1377.8</ele>
        <time>2021-07-23T13:24:21Z</time>
      </trkpt>
      <trkpt lat="45.07779" lon="2.79632">
        <ele>1378</ele>
        <time>2021-07-23T13:24:23Z</time>
      </trkpt>
      <trkpt lat="45.07781" lon="2.79621">
        <ele>1378.7</ele>
        <time>2021-07-23T13:24:27Z</time>
      </trkpt>
      <trkpt lat="45.07782" lon="2.79609">
        <ele>1379</ele>
        <time>2021-07-23T13:24:31Z</time>
      </trkpt>
      <trkpt lat="45.07783" lon="2.79598">
        <ele>1379.4</ele>
        <time>2021-07-23T13:24:35Z</time>
      </trkpt>
      <trkpt lat="45.07785" lon="2.79588">
        <ele>1380</ele>
        <time>2021-07-23T13:24:39Z</time>
      </trkpt>
      <trkpt lat="45.07786" lon="2.79576">
        <ele>1380.5</ele>
        <time>2021-07-23T13:24:43Z</time>
      </trkpt>
      <trkpt lat="45.07788" lon="2.79565">
        <ele>1381</ele>
        <time>2021-07-23T13:24:47Z</time>
      </trkpt>
      <trkpt lat="45.07789" lon="2.79555">
        <ele>1381.4</ele>
        <time>2021-07-23T13:24:51Z</time>
      </trkpt>
      <trkpt lat="45.07791" lon="2.79545">
        <ele>1381.9</ele>
        <time>2021-07-23T13:24:55Z</time>
      </trkpt>
      <trkpt lat="45.07794" lon="2.79535">
        <ele>1382.7</ele>
        <time>2021-07-23T13:24:59Z</time>
      </trkpt>
      <trkpt lat="45.07795" lon="2.79524">
        <ele>1383.1</ele>
        <time>2021-07-23T13:25:03Z</time>
      </trkpt>
      <trkpt lat="45.07797" lon="2.79513">
        <ele>1383.5</ele>
        <time>2021-07-23T13:25:07Z</time>
      </trkpt>
      <trkpt lat="45.07799" lon="2.79501">
        <ele>1384</ele>
        <time>2021-07-23T13:25:11Z</time>
      </trkpt>
      <trkpt lat="45.07801" lon="2.79489">
        <ele>1384.6</ele>
        <time>2021-07-23T13:25:15Z</time>
      </trkpt>
      <trkpt lat="45.07803" lon="2.79477">
        <ele>1385</ele>
        <time>2021-07-23T13:25:19Z</time>
      </trkpt>
      <trkpt lat="45.07804" lon="2.79466">
        <ele>1385.3</ele>
        <time>2021-07-23T13:25:23Z</time>
      </trkpt>
      <trkpt lat="45.07805" lon="2.7946">
        <ele>1385.5</ele>
        <time>2021-07-23T13:25:25Z</time>
      </trkpt>
      <trkpt lat="45.07807" lon="2.79448">
        <ele>1386.1</ele>
        <time>2021-07-23T13:25:29Z</time>
      </trkpt>
      <trkpt lat="45.07809" lon="2.79437">
        <ele>1386.7</ele>
        <time>2021-07-23T13:25:33Z</time>
      </trkpt>
      <trkpt lat="45.07812" lon="2.79427">
        <ele>1387.6</ele>
        <time>2021-07-23T13:25:37Z</time>
      </trkpt>
      <trkpt lat="45.07815" lon="2.79414">
        <ele>1388.4</ele>
        <time>2021-07-23T13:25:41Z</time>
      </trkpt>
      <trkpt lat="45.07817" lon="2.79408">
        <ele>1388.7</ele>
        <time>2021-07-23T13:25:43Z</time>
      </trkpt>
      <trkpt lat="45.07819" lon="2.79402">
        <ele>1388.9</ele>
        <time>2021-07-23T13:25:45Z</time>
      </trkpt>
      <trkpt lat="45.07822" lon="2.7939">
        <ele>1389.5</ele>
        <time>2021-07-23T13:25:49Z</time>
      </trkpt>
      <trkpt lat="45.07826" lon="2.79378">
        <ele>1390</ele>
        <time>2021-07-23T13:25:53Z</time>
      </trkpt>
      <trkpt lat="45.07829" lon="2.79368">
        <ele>1390.5</ele>
        <time>2021-07-23T13:25:57Z</time>
      </trkpt>
      <trkpt lat="45.07831" lon="2.79362">
        <ele>1390.9</ele>
        <time>2021-07-23T13:25:59Z</time>
      </trkpt>
      <trkpt lat="45.07833" lon="2.79355">
        <ele>1391.2</ele>
        <time>2021-07-23T13:26:01Z</time>
      </trkpt>
      <trkpt lat="45.07835" lon="2.79349">
        <ele>1391.6</ele>
        <time>2021-07-23T13:26:03Z</time>
      </trkpt>
      <trkpt lat="45.07838" lon="2.79343">
        <ele>1392</ele>
        <time>2021-07-23T13:26:05Z</time>
      </trkpt>
      <trkpt lat="45.07839" lon="2.79337">
        <ele>1392.2</ele>
        <time>2021-07-23T13:26:07Z</time>
      </trkpt>
      <trkpt lat="45.07841" lon="2.79331">
        <ele>1392.4</ele>
        <time>2021-07-23T13:26:09Z</time>
      </trkpt>
      <trkpt lat="45.07844" lon="2.79325">
        <ele>1392.7</ele>
        <time>2021-07-23T13:26:11Z</time>
      </trkpt>
      <trkpt lat="45.07846" lon="2.79318">
        <ele>1392.9</ele>
        <time>2021-07-23T13:26:13Z</time>
      </trkpt>
      <trkpt lat="45.07849" lon="2.79311">
        <ele>1393</ele>
        <time>2021-07-23T13:26:15Z</time>
      </trkpt>
      <trkpt lat="45.07851" lon="2.79306">
        <ele>1393.3</ele>
        <time>2021-07-23T13:26:17Z</time>
      </trkpt>
      <trkpt lat="45.07853" lon="2.793">
        <ele>1393.5</ele>
        <time>2021-07-23T13:26:19Z</time>
      </trkpt>
      <trkpt lat="45.07856" lon="2.79294">
        <ele>1393.7</ele>
        <time>2021-07-23T13:26:21Z</time>
      </trkpt>
      <trkpt lat="45.07861" lon="2.79282">
        <ele>1394.3</ele>
        <time>2021-07-23T13:26:25Z</time>
      </trkpt>
      <trkpt lat="45.07864" lon="2.79276">
        <ele>1394.6</ele>
        <time>2021-07-23T13:26:27Z</time>
      </trkpt>
      <trkpt lat="45.07866" lon="2.7927">
        <ele>1394.8</ele>
        <time>2021-07-23T13:26:29Z</time>
      </trkpt>
      <trkpt lat="45.0787" lon="2.79263">
        <ele>1395.1</ele>
        <time>2021-07-23T13:26:31Z</time>
      </trkpt>
      <trkpt lat="45.07872" lon="2.79256">
        <ele>1395.3</ele>
        <time>2021-07-23T13:26:33Z</time>
      </trkpt>
      <trkpt lat="45.07874" lon="2.79249">
        <ele>1395.3</ele>
        <time>2021-07-23T13:26:35Z</time>
      </trkpt>
      <trkpt lat="45.07877" lon="2.79243">
        <ele>1395.8</ele>
        <time>2021-07-23T13:26:37Z</time>
      </trkpt>
      <trkpt lat="45.07879" lon="2.79237">
        <ele>1396.4</ele>
        <time>2021-07-23T13:26:39Z</time>
      </trkpt>
      <trkpt lat="45.07881" lon="2.79231">
        <ele>1396.8</ele>
        <time>2021-07-23T13:26:41Z</time>
      </trkpt>
      <trkpt lat="45.07883" lon="2.79225">
        <ele>1397.2</ele>
        <time>2021-07-23T13:26:43Z</time>
      </trkpt>
      <trkpt lat="45.07886" lon="2.79219">
        <ele>1397.8</ele>
        <time>2021-07-23T13:26:45Z</time>
      </trkpt>
      <trkpt lat="45.07889" lon="2.79214">
        <ele>1398.3</ele>
        <time>2021-07-23T13:26:47Z</time>
      </trkpt>
      <trkpt lat="45.07891" lon="2.79208">
        <ele>1398.8</ele>
        <time>2021-07-23T13:26:49Z</time>
      </trkpt>
      <trkpt lat="45.07897" lon="2.79198">
        <ele>1399.9</ele>
        <time>2021-07-23T13:26:53Z</time>
      </trkpt>
      <trkpt lat="45.07902" lon="2.79188">
        <ele>1400.6</ele>
        <time>2021-07-23T13:26:57Z</time>
      </trkpt>
      <trkpt lat="45.07905" lon="2.79183">
        <ele>1401.1</ele>
        <time>2021-07-23T13:26:59Z</time>
      </trkpt>
      <trkpt lat="45.07908" lon="2.79177">
        <ele>1401.6</ele>
        <time>2021-07-23T13:27:01Z</time>
      </trkpt>
      <trkpt lat="45.07911" lon="2.79171">
        <ele>1402</ele>
        <time>2021-07-23T13:27:03Z</time>
      </trkpt>
      <trkpt lat="45.07916" lon="2.79163">
        <ele>1403</ele>
        <time>2021-07-23T13:27:05Z</time>
      </trkpt>
      <trkpt lat="45.0792" lon="2.79153">
        <ele>1404.7</ele>
        <time>2021-07-23T13:27:07Z</time>
      </trkpt>
      <trkpt lat="45.07924" lon="2.79142">
        <ele>1406.5</ele>
        <time>2021-07-23T13:27:09Z</time>
      </trkpt>
      <trkpt lat="45.07927" lon="2.79126">
        <ele>1407.9</ele>
        <time>2021-07-23T13:27:11Z</time>
      </trkpt>
      <trkpt lat="45.07925" lon="2.79111">
        <ele>1408.3</ele>
        <time>2021-07-23T13:27:13Z</time>
      </trkpt>
      <trkpt lat="45.07923" lon="2.79095">
        <ele>1408.2</ele>
        <time>2021-07-23T13:27:15Z</time>
      </trkpt>
      <trkpt lat="45.07917" lon="2.79078">
        <ele>1407.3</ele>
        <time>2021-07-23T13:27:17Z</time>
      </trkpt>
      <trkpt lat="45.07912" lon="2.79061">
        <ele>1406.5</ele>
        <time>2021-07-23T13:27:19Z</time>
      </trkpt>
      <trkpt lat="45.07906" lon="2.79041">
        <ele>1405.3</ele>
        <time>2021-07-23T13:27:21Z</time>
      </trkpt>
      <trkpt lat="45.07902" lon="2.7902">
        <ele>1404.5</ele>
        <time>2021-07-23T13:27:23Z</time>
      </trkpt>
      <trkpt lat="45.07899" lon="2.78999">
        <ele>1403.9</ele>
        <time>2021-07-23T13:27:25Z</time>
      </trkpt>
      <trkpt lat="45.07898" lon="2.78977">
        <ele>1402.6</ele>
        <time>2021-07-23T13:27:27Z</time>
      </trkpt>
      <trkpt lat="45.07897" lon="2.78954">
        <ele>1401.4</ele>
        <time>2021-07-23T13:27:29Z</time>
      </trkpt>
      <trkpt lat="45.07894" lon="2.78931">
        <ele>1399.1</ele>
        <time>2021-07-23T13:27:31Z</time>
      </trkpt>
      <trkpt lat="45.07892" lon="2.78907">
        <ele>1397.1</ele>
        <time>2021-07-23T13:27:33Z</time>
      </trkpt>
      <trkpt lat="45.0789" lon="2.78885">
        <ele>1395.6</ele>
        <time>2021-07-23T13:27:35Z</time>
      </trkpt>
      <trkpt lat="45.07889" lon="2.78864">
        <ele>1394</ele>
        <time>2021-07-23T13:27:37Z</time>
      </trkpt>
      <trkpt lat="45.07889" lon="2.7884">
        <ele>1392.9</ele>
        <time>2021-07-23T13:27:39Z</time>
      </trkpt>
      <trkpt lat="45.07888" lon="2.78817">
        <ele>1392.3</ele>
        <time>2021-07-23T13:27:41Z</time>
      </trkpt>
      <trkpt lat="45.07887" lon="2.78795">
        <ele>1392.1</ele>
        <time>2021-07-23T13:27:43Z</time>
      </trkpt>
      <trkpt lat="45.07886" lon="2.78778">
        <ele>1391.8</ele>
        <time>2021-07-23T13:27:45Z</time>
      </trkpt>
      <trkpt lat="45.07885" lon="2.7876">
        <ele>1391.5</ele>
        <time>2021-07-23T13:27:47Z</time>
      </trkpt>
      <trkpt lat="45.07885" lon="2.78744">
        <ele>1391.3</ele>
        <time>2021-07-23T13:27:49Z</time>
      </trkpt>
      <trkpt lat="45.07884" lon="2.78728">
        <ele>1390.8</ele>
        <time>2021-07-23T13:27:51Z</time>
      </trkpt>
      <trkpt lat="45.07884" lon="2.78712">
        <ele>1390.6</ele>
        <time>2021-07-23T13:27:53Z</time>
      </trkpt>
      <trkpt lat="45.07883" lon="2.78694">
        <ele>1389.9</ele>
        <time>2021-07-23T13:27:55Z</time>
      </trkpt>
      <trkpt lat="45.07881" lon="2.78676">
        <ele>1389.2</ele>
        <time>2021-07-23T13:27:57Z</time>
      </trkpt>
      <trkpt lat="45.0788" lon="2.78654">
        <ele>1388.8</ele>
        <time>2021-07-23T13:27:59Z</time>
      </trkpt>
      <trkpt lat="45.07879" lon="2.78632">
        <ele>1388.5</ele>
        <time>2021-07-23T13:28:01Z</time>
      </trkpt>
      <trkpt lat="45.07877" lon="2.7861">
        <ele>1387.9</ele>
        <time>2021-07-23T13:28:03Z</time>
      </trkpt>
      <trkpt lat="45.07875" lon="2.78586">
        <ele>1387.1</ele>
        <time>2021-07-23T13:28:05Z</time>
      </trkpt>
      <trkpt lat="45.07874" lon="2.78561">
        <ele>1388.7</ele>
        <time>2021-07-23T13:28:07Z</time>
      </trkpt>
      <trkpt lat="45.07871" lon="2.78537">
        <ele>1389.4</ele>
        <time>2021-07-23T13:28:09Z</time>
      </trkpt>
      <trkpt lat="45.07866" lon="2.78512">
        <ele>1388.5</ele>
        <time>2021-07-23T13:28:11Z</time>
      </trkpt>
      <trkpt lat="45.07856" lon="2.78491">
        <ele>1386.1</ele>
        <time>2021-07-23T13:28:13Z</time>
      </trkpt>
      <trkpt lat="45.07846" lon="2.78472">
        <ele>1383.9</ele>
        <time>2021-07-23T13:28:15Z</time>
      </trkpt>
      <trkpt lat="45.07835" lon="2.78452">
        <ele>1381.9</ele>
        <time>2021-07-23T13:28:17Z</time>
      </trkpt>
      <trkpt lat="45.07825" lon="2.78431">
        <ele>1381.4</ele>
        <time>2021-07-23T13:28:19Z</time>
      </trkpt>
      <trkpt lat="45.07814" lon="2.78409">
        <ele>1380</ele>
        <time>2021-07-23T13:28:21Z</time>
      </trkpt>
      <trkpt lat="45.07802" lon="2.78385">
        <ele>1377.4</ele>
        <time>2021-07-23T13:28:23Z</time>
      </trkpt>
      <trkpt lat="45.07791" lon="2.78361">
        <ele>1375.3</ele>
        <time>2021-07-23T13:28:25Z</time>
      </trkpt>
      <trkpt lat="45.07782" lon="2.78338">
        <ele>1374.2</ele>
        <time>2021-07-23T13:28:27Z</time>
      </trkpt>
      <trkpt lat="45.07771" lon="2.78317">
        <ele>1374.9</ele>
        <time>2021-07-23T13:28:29Z</time>
      </trkpt>
      <trkpt lat="45.07758" lon="2.78297">
        <ele>1374.6</ele>
        <time>2021-07-23T13:28:31Z</time>
      </trkpt>
      <trkpt lat="45.07744" lon="2.78282">
        <ele>1373.8</ele>
        <time>2021-07-23T13:28:33Z</time>
      </trkpt>
      <trkpt lat="45.07732" lon="2.78266">
        <ele>1375.2</ele>
        <time>2021-07-23T13:28:35Z</time>
      </trkpt>
      <trkpt lat="45.07723" lon="2.78249">
        <ele>1376.8</ele>
        <time>2021-07-23T13:28:37Z</time>
      </trkpt>
      <trkpt lat="45.07714" lon="2.78237">
        <ele>1377</ele>
        <time>2021-07-23T13:28:39Z</time>
      </trkpt>
      <trkpt lat="45.07706" lon="2.78227">
        <ele>1376.4</ele>
        <time>2021-07-23T13:28:41Z</time>
      </trkpt>
      <trkpt lat="45.077" lon="2.78222">
        <ele>1375.6</ele>
        <time>2021-07-23T13:28:43Z</time>
      </trkpt>
      <trkpt lat="45.07695" lon="2.78216">
        <ele>1375.6</ele>
        <time>2021-07-23T13:28:47Z</time>
      </trkpt>
      <trkpt lat="45.07695" lon="2.78208">
        <ele>1377.1</ele>
        <time>2021-07-23T13:30:51Z</time>
      </trkpt>
      <trkpt lat="45.07692" lon="2.78201">
        <ele>1377.7</ele>
        <time>2021-07-23T13:30:57Z</time>
      </trkpt>
      <trkpt lat="45.07688" lon="2.78193">
        <ele>1378.5</ele>
        <time>2021-07-23T13:31:03Z</time>
      </trkpt>
      <trkpt lat="45.07686" lon="2.78186">
        <ele>1379.3</ele>
        <time>2021-07-23T13:31:11Z</time>
      </trkpt>
      <trkpt lat="45.07685" lon="2.78179">
        <ele>1380.4</ele>
        <time>2021-07-23T13:31:19Z</time>
      </trkpt>
      <trkpt lat="45.07684" lon="2.7817">
        <ele>1382.2</ele>
        <time>2021-07-23T13:31:27Z</time>
      </trkpt>
      <trkpt lat="45.07684" lon="2.78162">
        <ele>1384</ele>
        <time>2021-07-23T13:31:33Z</time>
      </trkpt>
      <trkpt lat="45.07684" lon="2.78155">
        <ele>1385.5</ele>
        <time>2021-07-23T13:31:37Z</time>
      </trkpt>
      <trkpt lat="45.07685" lon="2.78147">
        <ele>1387.9</ele>
        <time>2021-07-23T13:31:47Z</time>
      </trkpt>
      <trkpt lat="45.07684" lon="2.78139">
        <ele>1389.3</ele>
        <time>2021-07-23T13:31:55Z</time>
      </trkpt>
      <trkpt lat="45.07683" lon="2.78132">
        <ele>1390.6</ele>
        <time>2021-07-23T13:32:01Z</time>
      </trkpt>
      <trkpt lat="45.07683" lon="2.78125">
        <ele>1392.3</ele>
        <time>2021-07-23T13:32:07Z</time>
      </trkpt>
      <trkpt lat="45.07683" lon="2.78117">
        <ele>1394.3</ele>
        <time>2021-07-23T13:32:21Z</time>
      </trkpt>
      <trkpt lat="45.07682" lon="2.78111">
        <ele>1395.1</ele>
        <time>2021-07-23T13:32:27Z</time>
      </trkpt>
      <trkpt lat="45.07681" lon="2.78104">
        <ele>1396.2</ele>
        <time>2021-07-23T13:32:33Z</time>
      </trkpt>
      <trkpt lat="45.07679" lon="2.78096">
        <ele>1397.5</ele>
        <time>2021-07-23T13:32:39Z</time>
      </trkpt>
      <trkpt lat="45.07677" lon="2.7809">
        <ele>1398.1</ele>
        <time>2021-07-23T13:32:45Z</time>
      </trkpt>
      <trkpt lat="45.07673" lon="2.78086">
        <ele>1397.2</ele>
        <time>2021-07-23T13:32:53Z</time>
      </trkpt>
      <trkpt lat="45.07672" lon="2.78078">
        <ele>1398.6</ele>
        <time>2021-07-23T13:33:01Z</time>
      </trkpt>
      <trkpt lat="45.07672" lon="2.7807">
        <ele>1400.9</ele>
        <time>2021-07-23T13:33:17Z</time>
      </trkpt>
      <trkpt lat="45.07671" lon="2.78064">
        <ele>1402.1</ele>
        <time>2021-07-23T13:33:35Z</time>
      </trkpt>
      <trkpt lat="45.07671" lon="2.78057">
        <ele>1403.7</ele>
        <time>2021-07-23T13:34:09Z</time>
      </trkpt>
      <trkpt lat="45.07669" lon="2.7805">
        <ele>1404.6</ele>
        <time>2021-07-23T13:34:17Z</time>
      </trkpt>
      <trkpt lat="45.07668" lon="2.78043">
        <ele>1406.2</ele>
        <time>2021-07-23T13:34:27Z</time>
      </trkpt>
      <trkpt lat="45.07668" lon="2.78036">
        <ele>1408</ele>
        <time>2021-07-23T13:34:35Z</time>
      </trkpt>
      <trkpt lat="45.07666" lon="2.7803">
        <ele>1409</ele>
        <time>2021-07-23T13:34:43Z</time>
      </trkpt>
      <trkpt lat="45.07666" lon="2.78023">
        <ele>1410.8</ele>
        <time>2021-07-23T13:34:49Z</time>
      </trkpt>
      <trkpt lat="45.07663" lon="2.78016">
        <ele>1412.3</ele>
        <time>2021-07-23T13:34:59Z</time>
      </trkpt>
      <trkpt lat="45.07659" lon="2.78012">
        <ele>1413.2</ele>
        <time>2021-07-23T13:35:05Z</time>
      </trkpt>
      <trkpt lat="45.07657" lon="2.78006">
        <ele>1414.3</ele>
        <time>2021-07-23T13:35:11Z</time>
      </trkpt>
      <trkpt lat="45.07654" lon="2.77999">
        <ele>1415.8</ele>
        <time>2021-07-23T13:35:17Z</time>
      </trkpt>
      <trkpt lat="45.07651" lon="2.77992">
        <ele>1417</ele>
        <time>2021-07-23T13:35:23Z</time>
      </trkpt>
      <trkpt lat="45.07647" lon="2.77988">
        <ele>1417.5</ele>
        <time>2021-07-23T13:35:31Z</time>
      </trkpt>
      <trkpt lat="45.07644" lon="2.77984">
        <ele>1417.8</ele>
        <time>2021-07-23T13:35:39Z</time>
      </trkpt>
      <trkpt lat="45.07638" lon="2.77984">
        <ele>1417.1</ele>
        <time>2021-07-23T13:35:45Z</time>
      </trkpt>
      <trkpt lat="45.07632" lon="2.77979">
        <ele>1417</ele>
        <time>2021-07-23T13:35:55Z</time>
      </trkpt>
      <trkpt lat="45.07628" lon="2.77976">
        <ele>1417.1</ele>
        <time>2021-07-23T13:36:01Z</time>
      </trkpt>
      <trkpt lat="45.07625" lon="2.77969">
        <ele>1417.8</ele>
        <time>2021-07-23T13:36:07Z</time>
      </trkpt>
      <trkpt lat="45.07621" lon="2.77965">
        <ele>1417.7</ele>
        <time>2021-07-23T13:36:13Z</time>
      </trkpt>
      <trkpt lat="45.07616" lon="2.7796">
        <ele>1417.5</ele>
        <time>2021-07-23T13:36:19Z</time>
      </trkpt>
      <trkpt lat="45.0761" lon="2.77956">
        <ele>1417.1</ele>
        <time>2021-07-23T13:36:25Z</time>
      </trkpt>
      <trkpt lat="45.07604" lon="2.77953">
        <ele>1416.2</ele>
        <time>2021-07-23T13:36:33Z</time>
      </trkpt>
      <trkpt lat="45.076" lon="2.77948">
        <ele>1416.1</ele>
        <time>2021-07-23T13:36:37Z</time>
      </trkpt>
      <trkpt lat="45.07596" lon="2.77944">
        <ele>1415.5</ele>
        <time>2021-07-23T13:36:43Z</time>
      </trkpt>
      <trkpt lat="45.0759" lon="2.77939">
        <ele>1414.6</ele>
        <time>2021-07-23T13:36:49Z</time>
      </trkpt>
      <trkpt lat="45.07587" lon="2.77935">
        <ele>1414.3</ele>
        <time>2021-07-23T13:36:57Z</time>
      </trkpt>
      <trkpt lat="45.07581" lon="2.77937">
        <ele>1413.4</ele>
        <time>2021-07-23T13:37:01Z</time>
      </trkpt>
      <trkpt lat="45.07576" lon="2.77938">
        <ele>1413.4</ele>
        <time>2021-07-23T13:37:05Z</time>
      </trkpt>
      <trkpt lat="45.07571" lon="2.77937">
        <ele>1413.7</ele>
        <time>2021-07-23T13:37:11Z</time>
      </trkpt>
      <trkpt lat="45.07565" lon="2.77934">
        <ele>1414.1</ele>
        <time>2021-07-23T13:37:17Z</time>
      </trkpt>
      <trkpt lat="45.0756" lon="2.77929">
        <ele>1414.6</ele>
        <time>2021-07-23T13:37:23Z</time>
      </trkpt>
      <trkpt lat="45.07556" lon="2.77924">
        <ele>1415.2</ele>
        <time>2021-07-23T13:37:29Z</time>
      </trkpt>
      <trkpt lat="45.07554" lon="2.77917">
        <ele>1415.7</ele>
        <time>2021-07-23T13:37:35Z</time>
      </trkpt>
      <trkpt lat="45.0755" lon="2.77911">
        <ele>1416.7</ele>
        <time>2021-07-23T13:37:41Z</time>
      </trkpt>
      <trkpt lat="45.07546" lon="2.77905">
        <ele>1417.8</ele>
        <time>2021-07-23T13:37:49Z</time>
      </trkpt>
      <trkpt lat="45.07544" lon="2.77899">
        <ele>1418.9</ele>
        <time>2021-07-23T13:37:55Z</time>
      </trkpt>
      <trkpt lat="45.0754" lon="2.77894">
        <ele>1419.7</ele>
        <time>2021-07-23T13:38:03Z</time>
      </trkpt>
      <trkpt lat="45.07545" lon="2.77898">
        <ele>1418.9</ele>
        <time>2021-07-23T13:49:15Z</time>
      </trkpt>
      <trkpt lat="45.0755" lon="2.77909">
        <ele>1417.2</ele>
        <time>2021-07-23T13:49:19Z</time>
      </trkpt>
      <trkpt lat="45.07553" lon="2.7792">
        <ele>1415.5</ele>
        <time>2021-07-23T13:49:21Z</time>
      </trkpt>
      <trkpt lat="45.07558" lon="2.77928">
        <ele>1414.8</ele>
        <time>2021-07-23T13:49:23Z</time>
      </trkpt>
      <trkpt lat="45.07563" lon="2.77933">
        <ele>1414.2</ele>
        <time>2021-07-23T13:49:25Z</time>
      </trkpt>
      <trkpt lat="45.07569" lon="2.77937">
        <ele>1413.8</ele>
        <time>2021-07-23T13:49:29Z</time>
      </trkpt>
      <trkpt lat="45.07575" lon="2.77938">
        <ele>1413.4</ele>
        <time>2021-07-23T13:49:33Z</time>
      </trkpt>
      <trkpt lat="45.07582" lon="2.77941">
        <ele>1413</ele>
        <time>2021-07-23T13:49:37Z</time>
      </trkpt>
      <trkpt lat="45.07587" lon="2.77941">
        <ele>1413.9</ele>
        <time>2021-07-23T13:49:39Z</time>
      </trkpt>
      <trkpt lat="45.07592" lon="2.77942">
        <ele>1414.8</ele>
        <time>2021-07-23T13:49:41Z</time>
      </trkpt>
      <trkpt lat="45.07598" lon="2.77951">
        <ele>1415.2</ele>
        <time>2021-07-23T13:49:45Z</time>
      </trkpt>
      <trkpt lat="45.07606" lon="2.77957">
        <ele>1415.9</ele>
        <time>2021-07-23T13:49:49Z</time>
      </trkpt>
      <trkpt lat="45.0761" lon="2.77962">
        <ele>1416</ele>
        <time>2021-07-23T13:49:51Z</time>
      </trkpt>
      <trkpt lat="45.07616" lon="2.77964">
        <ele>1416.9</ele>
        <time>2021-07-23T13:49:53Z</time>
      </trkpt>
      <trkpt lat="45.07623" lon="2.7797">
        <ele>1417.1</ele>
        <time>2021-07-23T13:49:57Z</time>
      </trkpt>
      <trkpt lat="45.07627" lon="2.77973">
        <ele>1417.4</ele>
        <time>2021-07-23T13:49:59Z</time>
      </trkpt>
      <trkpt lat="45.07633" lon="2.77977">
        <ele>1417.5</ele>
        <time>2021-07-23T13:50:03Z</time>
      </trkpt>
      <trkpt lat="45.07638" lon="2.7798">
        <ele>1417.8</ele>
        <time>2021-07-23T13:50:05Z</time>
      </trkpt>
      <trkpt lat="45.07646" lon="2.77987">
        <ele>1417.5</ele>
        <time>2021-07-23T13:50:07Z</time>
      </trkpt>
      <trkpt lat="45.07649" lon="2.77996">
        <ele>1415.9</ele>
        <time>2021-07-23T13:50:09Z</time>
      </trkpt>
      <trkpt lat="45.07652" lon="2.78005">
        <ele>1414.1</ele>
        <time>2021-07-23T13:50:11Z</time>
      </trkpt>
      <trkpt lat="45.07656" lon="2.78011">
        <ele>1412.9</ele>
        <time>2021-07-23T13:50:13Z</time>
      </trkpt>
      <trkpt lat="45.07657" lon="2.78019">
        <ele>1411.2</ele>
        <time>2021-07-23T13:50:15Z</time>
      </trkpt>
      <trkpt lat="45.07662" lon="2.78025">
        <ele>1410</ele>
        <time>2021-07-23T13:50:17Z</time>
      </trkpt>
      <trkpt lat="45.07666" lon="2.78033">
        <ele>1408.4</ele>
        <time>2021-07-23T13:50:21Z</time>
      </trkpt>
      <trkpt lat="45.07665" lon="2.78039">
        <ele>1406.5</ele>
        <time>2021-07-23T13:50:25Z</time>
      </trkpt>
      <trkpt lat="45.07668" lon="2.78048">
        <ele>1404.8</ele>
        <time>2021-07-23T13:50:29Z</time>
      </trkpt>
      <trkpt lat="45.07668" lon="2.78058">
        <ele>1402</ele>
        <time>2021-07-23T13:50:33Z</time>
      </trkpt>
      <trkpt lat="45.07668" lon="2.78068">
        <ele>1399.6</ele>
        <time>2021-07-23T13:50:35Z</time>
      </trkpt>
      <trkpt lat="45.07668" lon="2.78074">
        <ele>1398.1</ele>
        <time>2021-07-23T13:50:37Z</time>
      </trkpt>
      <trkpt lat="45.0767" lon="2.78084">
        <ele>1396.2</ele>
        <time>2021-07-23T13:50:39Z</time>
      </trkpt>
      <trkpt lat="45.0767" lon="2.7809">
        <ele>1394.8</ele>
        <time>2021-07-23T13:50:41Z</time>
      </trkpt>
      <trkpt lat="45.07672" lon="2.78097">
        <ele>1394.2</ele>
        <time>2021-07-23T13:50:43Z</time>
      </trkpt>
      <trkpt lat="45.07675" lon="2.78101">
        <ele>1394.5</ele>
        <time>2021-07-23T13:50:45Z</time>
      </trkpt>
      <trkpt lat="45.07677" lon="2.78108">
        <ele>1393.5</ele>
        <time>2021-07-23T13:50:49Z</time>
      </trkpt>
      <trkpt lat="45.07679" lon="2.78116">
        <ele>1392.8</ele>
        <time>2021-07-23T13:50:55Z</time>
      </trkpt>
      <trkpt lat="45.07683" lon="2.78122">
        <ele>1392.9</ele>
        <time>2021-07-23T13:50:59Z</time>
      </trkpt>
      <trkpt lat="45.07683" lon="2.78131">
        <ele>1390.7</ele>
        <time>2021-07-23T13:51:03Z</time>
      </trkpt>
      <trkpt lat="45.07681" lon="2.7814">
        <ele>1387.8</ele>
        <time>2021-07-23T13:51:07Z</time>
      </trkpt>
      <trkpt lat="45.0768" lon="2.78147">
        <ele>1386</ele>
        <time>2021-07-23T13:51:09Z</time>
      </trkpt>
      <trkpt lat="45.07681" lon="2.78156">
        <ele>1384.3</ele>
        <time>2021-07-23T13:51:11Z</time>
      </trkpt>
      <trkpt lat="45.07683" lon="2.78164">
        <ele>1382.9</ele>
        <time>2021-07-23T13:51:13Z</time>
      </trkpt>
      <trkpt lat="45.07683" lon="2.78178">
        <ele>1380.2</ele>
        <time>2021-07-23T13:51:15Z</time>
      </trkpt>
      <trkpt lat="45.0769" lon="2.78186">
        <ele>1380.7</ele>
        <time>2021-07-23T13:51:17Z</time>
      </trkpt>
      <trkpt lat="45.07696" lon="2.78197">
        <ele>1380.1</ele>
        <time>2021-07-23T13:51:19Z</time>
      </trkpt>
      <trkpt lat="45.07701" lon="2.78207">
        <ele>1379.3</ele>
        <time>2021-07-23T13:51:21Z</time>
      </trkpt>
      <trkpt lat="45.07702" lon="2.78218">
        <ele>1377.2</ele>
        <time>2021-07-23T13:51:23Z</time>
      </trkpt>
      <trkpt lat="45.07696" lon="2.78227">
        <ele>1373.5</ele>
        <time>2021-07-23T13:51:27Z</time>
      </trkpt>
      <trkpt lat="45.0769" lon="2.78223">
        <ele>1372.2</ele>
        <time>2021-07-23T13:51:31Z</time>
      </trkpt>
      <trkpt lat="45.07684" lon="2.78219">
        <ele>1371.5</ele>
        <time>2021-07-23T13:51:35Z</time>
      </trkpt>
      <trkpt lat="45.07678" lon="2.7822">
        <ele>1369.2</ele>
        <time>2021-07-23T13:51:39Z</time>
      </trkpt>
      <trkpt lat="45.07674" lon="2.78214">
        <ele>1369</ele>
        <time>2021-07-23T13:51:43Z</time>
      </trkpt>
      <trkpt lat="45.07672" lon="2.78208">
        <ele>1369.7</ele>
        <time>2021-07-23T13:55:03Z</time>
      </trkpt>
      <trkpt lat="45.07666" lon="2.782">
        <ele>1369.9</ele>
        <time>2021-07-23T13:55:17Z</time>
      </trkpt>
      <trkpt lat="45.07662" lon="2.78191">
        <ele>1372</ele>
        <time>2021-07-23T13:55:19Z</time>
      </trkpt>
      <trkpt lat="45.07658" lon="2.78183">
        <ele>1373.8</ele>
        <time>2021-07-23T13:55:21Z</time>
      </trkpt>
      <trkpt lat="45.07652" lon="2.78177">
        <ele>1375.3</ele>
        <time>2021-07-23T13:55:23Z</time>
      </trkpt>
      <trkpt lat="45.07646" lon="2.78174">
        <ele>1376</ele>
        <time>2021-07-23T13:55:25Z</time>
      </trkpt>
      <trkpt lat="45.0764" lon="2.78174">
        <ele>1376.3</ele>
        <time>2021-07-23T13:55:27Z</time>
      </trkpt>
      <trkpt lat="45.07635" lon="2.78175">
        <ele>1376.3</ele>
        <time>2021-07-23T13:55:29Z</time>
      </trkpt>
      <trkpt lat="45.07631" lon="2.78178">
        <ele>1375.7</ele>
        <time>2021-07-23T13:55:37Z</time>
      </trkpt>
      <trkpt lat="45.07631" lon="2.78188">
        <ele>1374</ele>
        <time>2021-07-23T13:58:17Z</time>
      </trkpt>
      <trkpt lat="45.0763" lon="2.78196">
        <ele>1372.5</ele>
        <time>2021-07-23T13:58:19Z</time>
      </trkpt>
      <trkpt lat="45.07632" lon="2.78208">
        <ele>1370.2</ele>
        <time>2021-07-23T13:58:21Z</time>
      </trkpt>
      <trkpt lat="45.07636" lon="2.78218">
        <ele>1368</ele>
        <time>2021-07-23T13:58:23Z</time>
      </trkpt>
      <trkpt lat="45.07639" lon="2.7823">
        <ele>1365.6</ele>
        <time>2021-07-23T13:58:25Z</time>
      </trkpt>
      <trkpt lat="45.0764" lon="2.78242">
        <ele>1363</ele>
        <time>2021-07-23T13:58:27Z</time>
      </trkpt>
      <trkpt lat="45.0764" lon="2.78253">
        <ele>1361.1</ele>
        <time>2021-07-23T13:58:29Z</time>
      </trkpt>
      <trkpt lat="45.07638" lon="2.78263">
        <ele>1359.8</ele>
        <time>2021-07-23T13:58:31Z</time>
      </trkpt>
      <trkpt lat="45.07633" lon="2.78271">
        <ele>1359.2</ele>
        <time>2021-07-23T13:58:33Z</time>
      </trkpt>
      <trkpt lat="45.07625" lon="2.7828">
        <ele>1358.9</ele>
        <time>2021-07-23T13:58:35Z</time>
      </trkpt>
      <trkpt lat="45.07616" lon="2.7829">
        <ele>1358.8</ele>
        <time>2021-07-23T13:58:37Z</time>
      </trkpt>
      <trkpt lat="45.07609" lon="2.78303">
        <ele>1358.1</ele>
        <time>2021-07-23T13:58:39Z</time>
      </trkpt>
      <trkpt lat="45.07606" lon="2.78318">
        <ele>1356.8</ele>
        <time>2021-07-23T13:58:41Z</time>
      </trkpt>
      <trkpt lat="45.07604" lon="2.78332">
        <ele>1355.4</ele>
        <time>2021-07-23T13:58:43Z</time>
      </trkpt>
      <trkpt lat="45.07604" lon="2.7835">
        <ele>1353.6</ele>
        <time>2021-07-23T13:58:45Z</time>
      </trkpt>
      <trkpt lat="45.07605" lon="2.78366">
        <ele>1351.9</ele>
        <time>2021-07-23T13:58:47Z</time>
      </trkpt>
      <trkpt lat="45.07603" lon="2.78385">
        <ele>1350.3</ele>
        <time>2021-07-23T13:58:49Z</time>
      </trkpt>
      <trkpt lat="45.076" lon="2.78407">
        <ele>1348.9</ele>
        <time>2021-07-23T13:58:51Z</time>
      </trkpt>
      <trkpt lat="45.07596" lon="2.78426">
        <ele>1347</ele>
        <time>2021-07-23T13:58:53Z</time>
      </trkpt>
      <trkpt lat="45.07593" lon="2.78443">
        <ele>1344.3</ele>
        <time>2021-07-23T13:58:55Z</time>
      </trkpt>
      <trkpt lat="45.07589" lon="2.7846">
        <ele>1341.8</ele>
        <time>2021-07-23T13:58:57Z</time>
      </trkpt>
      <trkpt lat="45.07587" lon="2.78477">
        <ele>1338.9</ele>
        <time>2021-07-23T13:58:59Z</time>
      </trkpt>
      <trkpt lat="45.07586" lon="2.78495">
        <ele>1335.4</ele>
        <time>2021-07-23T13:59:01Z</time>
      </trkpt>
      <trkpt lat="45.07585" lon="2.78511">
        <ele>1333.3</ele>
        <time>2021-07-23T13:59:03Z</time>
      </trkpt>
      <trkpt lat="45.07587" lon="2.78528">
        <ele>1330.7</ele>
        <time>2021-07-23T13:59:05Z</time>
      </trkpt>
      <trkpt lat="45.07581" lon="2.78545">
        <ele>1329.7</ele>
        <time>2021-07-23T13:59:07Z</time>
      </trkpt>
      <trkpt lat="45.0758" lon="2.78568">
        <ele>1327.2</ele>
        <time>2021-07-23T13:59:09Z</time>
      </trkpt>
      <trkpt lat="45.07578" lon="2.78586">
        <ele>1325.3</ele>
        <time>2021-07-23T13:59:11Z</time>
      </trkpt>
      <trkpt lat="45.07575" lon="2.78603">
        <ele>1323.7</ele>
        <time>2021-07-23T13:59:13Z</time>
      </trkpt>
      <trkpt lat="45.07573" lon="2.7862">
        <ele>1321.6</ele>
        <time>2021-07-23T13:59:15Z</time>
      </trkpt>
      <trkpt lat="45.07573" lon="2.7864">
        <ele>1318.7</ele>
        <time>2021-07-23T13:59:17Z</time>
      </trkpt>
      <trkpt lat="45.07571" lon="2.78661">
        <ele>1316.1</ele>
        <time>2021-07-23T13:59:19Z</time>
      </trkpt>
      <trkpt lat="45.07569" lon="2.78684">
        <ele>1313.3</ele>
        <time>2021-07-23T13:59:21Z</time>
      </trkpt>
      <trkpt lat="45.07566" lon="2.78705">
        <ele>1310.9</ele>
        <time>2021-07-23T13:59:23Z</time>
      </trkpt>
      <trkpt lat="45.07565" lon="2.78724">
        <ele>1308.6</ele>
        <time>2021-07-23T13:59:25Z</time>
      </trkpt>
      <trkpt lat="45.07565" lon="2.78742">
        <ele>1306.2</ele>
        <time>2021-07-23T13:59:27Z</time>
      </trkpt>
      <trkpt lat="45.07563" lon="2.78762">
        <ele>1303.4</ele>
        <time>2021-07-23T13:59:29Z</time>
      </trkpt>
      <trkpt lat="45.07562" lon="2.78781">
        <ele>1300.8</ele>
        <time>2021-07-23T13:59:31Z</time>
      </trkpt>
      <trkpt lat="45.07559" lon="2.78801">
        <ele>1298.1</ele>
        <time>2021-07-23T13:59:33Z</time>
      </trkpt>
      <trkpt lat="45.07557" lon="2.78822">
        <ele>1294.9</ele>
        <time>2021-07-23T13:59:35Z</time>
      </trkpt>
      <trkpt lat="45.07556" lon="2.78844">
        <ele>1292.4</ele>
        <time>2021-07-23T13:59:37Z</time>
      </trkpt>
      <trkpt lat="45.07551" lon="2.78865">
        <ele>1290.9</ele>
        <time>2021-07-23T13:59:39Z</time>
      </trkpt>
      <trkpt lat="45.07546" lon="2.78885">
        <ele>1289.2</ele>
        <time>2021-07-23T13:59:41Z</time>
      </trkpt>
      <trkpt lat="45.07542" lon="2.78904">
        <ele>1287.4</ele>
        <time>2021-07-23T13:59:43Z</time>
      </trkpt>
      <trkpt lat="45.07536" lon="2.78925">
        <ele>1285.1</ele>
        <time>2021-07-23T13:59:45Z</time>
      </trkpt>
      <trkpt lat="45.0752" lon="2.78938">
        <ele>1283.2</ele>
        <time>2021-07-23T13:59:47Z</time>
      </trkpt>
      <trkpt lat="45.07504" lon="2.78947">
        <ele>1281.4</ele>
        <time>2021-07-23T13:59:49Z</time>
      </trkpt>
      <trkpt lat="45.07485" lon="2.78958">
        <ele>1282.6</ele>
        <time>2021-07-23T13:59:51Z</time>
      </trkpt>
      <trkpt lat="45.07469" lon="2.78969">
        <ele>1283.9</ele>
        <time>2021-07-23T13:59:53Z</time>
      </trkpt>
      <trkpt lat="45.07456" lon="2.78987">
        <ele>1283.5</ele>
        <time>2021-07-23T13:59:55Z</time>
      </trkpt>
      <trkpt lat="45.07451" lon="2.79001">
        <ele>1282.3</ele>
        <time>2021-07-23T13:59:57Z</time>
      </trkpt>
      <trkpt lat="45.07445" lon="2.79014">
        <ele>1281.6</ele>
        <time>2021-07-23T13:59:59Z</time>
      </trkpt>
      <trkpt lat="45.07447" lon="2.79033">
        <ele>1278.5</ele>
        <time>2021-07-23T14:00:01Z</time>
      </trkpt>
      <trkpt lat="45.07445" lon="2.79049">
        <ele>1276.7</ele>
        <time>2021-07-23T14:00:03Z</time>
      </trkpt>
      <trkpt lat="45.07438" lon="2.79065">
        <ele>1275.7</ele>
        <time>2021-07-23T14:00:05Z</time>
      </trkpt>
      <trkpt lat="45.07429" lon="2.79081">
        <ele>1275.2</ele>
        <time>2021-07-23T14:00:07Z</time>
      </trkpt>
      <trkpt lat="45.07419" lon="2.79098">
        <ele>1273.8</ele>
        <time>2021-07-23T14:00:09Z</time>
      </trkpt>
      <trkpt lat="45.07409" lon="2.79116">
        <ele>1271.9</ele>
        <time>2021-07-23T14:00:11Z</time>
      </trkpt>
      <trkpt lat="45.07396" lon="2.79131">
        <ele>1271.1</ele>
        <time>2021-07-23T14:00:13Z</time>
      </trkpt>
      <trkpt lat="45.07383" lon="2.79147">
        <ele>1270.1</ele>
        <time>2021-07-23T14:00:15Z</time>
      </trkpt>
      <trkpt lat="45.07372" lon="2.79163">
        <ele>1268.7</ele>
        <time>2021-07-23T14:00:17Z</time>
      </trkpt>
      <trkpt lat="45.07357" lon="2.79176">
        <ele>1268.9</ele>
        <time>2021-07-23T14:00:19Z</time>
      </trkpt>
      <trkpt lat="45.07342" lon="2.79189">
        <ele>1268.7</ele>
        <time>2021-07-23T14:00:21Z</time>
      </trkpt>
      <trkpt lat="45.07331" lon="2.79204">
        <ele>1267.5</ele>
        <time>2021-07-23T14:00:23Z</time>
      </trkpt>
      <trkpt lat="45.0732" lon="2.79214">
        <ele>1268.2</ele>
        <time>2021-07-23T14:00:25Z</time>
      </trkpt>
      <trkpt lat="45.07314" lon="2.79224">
        <ele>1267.6</ele>
        <time>2021-07-23T14:00:27Z</time>
      </trkpt>
      <trkpt lat="45.07312" lon="2.79231">
        <ele>1266.8</ele>
        <time>2021-07-23T14:00:29Z</time>
      </trkpt>
      <trkpt lat="45.07311" lon="2.79237">
        <ele>1265.6</ele>
        <time>2021-07-23T14:00:39Z</time>
      </trkpt>
      <trkpt lat="45.0731" lon="2.7923">
        <ele>1267.2</ele>
        <time>2021-07-23T14:01:23Z</time>
      </trkpt>
      <trkpt lat="45.07309" lon="2.79223">
        <ele>1268.9</ele>
        <time>2021-07-23T14:01:29Z</time>
      </trkpt>
      <trkpt lat="45.07306" lon="2.79217">
        <ele>1270.8</ele>
        <time>2021-07-23T14:01:35Z</time>
      </trkpt>
      <trkpt lat="45.07303" lon="2.79211">
        <ele>1272.7</ele>
        <time>2021-07-23T14:01:43Z</time>
      </trkpt>
      <trkpt lat="45.07298" lon="2.79209">
        <ele>1274.3</ele>
        <time>2021-07-23T14:01:51Z</time>
      </trkpt>
      <trkpt lat="45.07292" lon="2.79211">
        <ele>1275.3</ele>
        <time>2021-07-23T14:02:13Z</time>
      </trkpt>
      <trkpt lat="45.07285" lon="2.79212">
        <ele>1276.9</ele>
        <time>2021-07-23T14:02:21Z</time>
      </trkpt>
      <trkpt lat="45.07279" lon="2.79212">
        <ele>1278.2</ele>
        <time>2021-07-23T14:02:25Z</time>
      </trkpt>
      <trkpt lat="45.07273" lon="2.79213">
        <ele>1279.3</ele>
        <time>2021-07-23T14:02:29Z</time>
      </trkpt>
      <trkpt lat="45.07268" lon="2.79215">
        <ele>1280.3</ele>
        <time>2021-07-23T14:02:33Z</time>
      </trkpt>
      <trkpt lat="45.07263" lon="2.7922">
        <ele>1280.6</ele>
        <time>2021-07-23T14:02:37Z</time>
      </trkpt>
      <trkpt lat="45.07257" lon="2.79226">
        <ele>1280.6</ele>
        <time>2021-07-23T14:02:43Z</time>
      </trkpt>
      <trkpt lat="45.07251" lon="2.79229">
        <ele>1281.3</ele>
        <time>2021-07-23T14:02:47Z</time>
      </trkpt>
      <trkpt lat="45.07243" lon="2.7923">
        <ele>1282.9</ele>
        <time>2021-07-23T14:02:57Z</time>
      </trkpt>
      <trkpt lat="45.07239" lon="2.79234">
        <ele>1283.1</ele>
        <time>2021-07-23T14:03:01Z</time>
      </trkpt>
      <trkpt lat="45.07234" lon="2.79236">
        <ele>1283.7</ele>
        <time>2021-07-23T14:03:05Z</time>
      </trkpt>
      <trkpt lat="45.07227" lon="2.79241">
        <ele>1284.3</ele>
        <time>2021-07-23T14:03:11Z</time>
      </trkpt>
      <trkpt lat="45.07222" lon="2.79241">
        <ele>1285.2</ele>
        <time>2021-07-23T14:03:13Z</time>
      </trkpt>
      <trkpt lat="45.07215" lon="2.79243">
        <ele>1286.6</ele>
        <time>2021-07-23T14:03:17Z</time>
      </trkpt>
      <trkpt lat="45.07209" lon="2.79249">
        <ele>1286.7</ele>
        <time>2021-07-23T14:03:21Z</time>
      </trkpt>
      <trkpt lat="45.07206" lon="2.79255">
        <ele>1286</ele>
        <time>2021-07-23T14:03:23Z</time>
      </trkpt>
      <trkpt lat="45.07201" lon="2.7926">
        <ele>1286.2</ele>
        <time>2021-07-23T14:03:25Z</time>
      </trkpt>
      <trkpt lat="45.07195" lon="2.79267">
        <ele>1285.9</ele>
        <time>2021-07-23T14:03:29Z</time>
      </trkpt>
      <trkpt lat="45.07189" lon="2.79273">
        <ele>1285.7</ele>
        <time>2021-07-23T14:03:33Z</time>
      </trkpt>
      <trkpt lat="45.07185" lon="2.79283">
        <ele>1284.2</ele>
        <time>2021-07-23T14:03:37Z</time>
      </trkpt>
      <trkpt lat="45.07181" lon="2.79288">
        <ele>1283.8</ele>
        <time>2021-07-23T14:03:41Z</time>
      </trkpt>
      <trkpt lat="45.07175" lon="2.79296">
        <ele>1282.8</ele>
        <time>2021-07-23T14:03:45Z</time>
      </trkpt>
      <trkpt lat="45.07167" lon="2.79303">
        <ele>1282.5</ele>
        <time>2021-07-23T14:03:49Z</time>
      </trkpt>
      <trkpt lat="45.07162" lon="2.79306">
        <ele>1282.9</ele>
        <time>2021-07-23T14:03:51Z</time>
      </trkpt>
      <trkpt lat="45.07155" lon="2.79313">
        <ele>1283.1</ele>
        <time>2021-07-23T14:03:55Z</time>
      </trkpt>
      <trkpt lat="45.0715" lon="2.79318">
        <ele>1283.1</ele>
        <time>2021-07-23T14:03:57Z</time>
      </trkpt>
      <trkpt lat="45.07146" lon="2.79322">
        <ele>1283.2</ele>
        <time>2021-07-23T14:03:59Z</time>
      </trkpt>
      <trkpt lat="45.07141" lon="2.79325">
        <ele>1283.7</ele>
        <time>2021-07-23T14:04:01Z</time>
      </trkpt>
      <trkpt lat="45.07135" lon="2.79333">
        <ele>1283.4</ele>
        <time>2021-07-23T14:04:05Z</time>
      </trkpt>
      <trkpt lat="45.07127" lon="2.79339">
        <ele>1284.5</ele>
        <time>2021-07-23T14:04:09Z</time>
      </trkpt>
      <trkpt lat="45.07123" lon="2.79344">
        <ele>1285.2</ele>
        <time>2021-07-23T14:04:11Z</time>
      </trkpt>
      <trkpt lat="45.07118" lon="2.79348">
        <ele>1285.7</ele>
        <time>2021-07-23T14:04:13Z</time>
      </trkpt>
      <trkpt lat="45.07115" lon="2.79353">
        <ele>1285.9</ele>
        <time>2021-07-23T14:04:15Z</time>
      </trkpt>
      <trkpt lat="45.07112" lon="2.79359">
        <ele>1285.8</ele>
        <time>2021-07-23T14:04:17Z</time>
      </trkpt>
      <trkpt lat="45.07104" lon="2.79366">
        <ele>1286.8</ele>
        <time>2021-07-23T14:04:21Z</time>
      </trkpt>
      <trkpt lat="45.071" lon="2.79369">
        <ele>1287.7</ele>
        <time>2021-07-23T14:04:23Z</time>
      </trkpt>
      <trkpt lat="45.07096" lon="2.79372">
        <ele>1288.3</ele>
        <time>2021-07-23T14:04:25Z</time>
      </trkpt>
      <trkpt lat="45.0709" lon="2.79375">
        <ele>1289.3</ele>
        <time>2021-07-23T14:04:27Z</time>
      </trkpt>
      <trkpt lat="45.07085" lon="2.7938">
        <ele>1289.8</ele>
        <time>2021-07-23T14:04:29Z</time>
      </trkpt>
      <trkpt lat="45.07082" lon="2.79385">
        <ele>1289.9</ele>
        <time>2021-07-23T14:04:31Z</time>
      </trkpt>
      <trkpt lat="45.07077" lon="2.79396">
        <ele>1289.7</ele>
        <time>2021-07-23T14:04:35Z</time>
      </trkpt>
      <trkpt lat="45.07073" lon="2.79403">
        <ele>1289.6</ele>
        <time>2021-07-23T14:04:37Z</time>
      </trkpt>
      <trkpt lat="45.0707" lon="2.79411">
        <ele>1289.3</ele>
        <time>2021-07-23T14:04:39Z</time>
      </trkpt>
      <trkpt lat="45.07066" lon="2.7942">
        <ele>1289.2</ele>
        <time>2021-07-23T14:04:41Z</time>
      </trkpt>
      <trkpt lat="45.07061" lon="2.79427">
        <ele>1289.6</ele>
        <time>2021-07-23T14:04:43Z</time>
      </trkpt>
      <trkpt lat="45.07055" lon="2.79435">
        <ele>1290.3</ele>
        <time>2021-07-23T14:04:45Z</time>
      </trkpt>
      <trkpt lat="45.0705" lon="2.79442">
        <ele>1290.7</ele>
        <time>2021-07-23T14:04:47Z</time>
      </trkpt>
      <trkpt lat="45.07044" lon="2.79446">
        <ele>1291.5</ele>
        <time>2021-07-23T14:04:49Z</time>
      </trkpt>
      <trkpt lat="45.07039" lon="2.79452">
        <ele>1292</ele>
        <time>2021-07-23T14:04:51Z</time>
      </trkpt>
      <trkpt lat="45.07035" lon="2.79455">
        <ele>1292.6</ele>
        <time>2021-07-23T14:04:53Z</time>
      </trkpt>
      <trkpt lat="45.0703" lon="2.79459">
        <ele>1293.2</ele>
        <time>2021-07-23T14:04:55Z</time>
      </trkpt>
      <trkpt lat="45.07026" lon="2.79463">
        <ele>1293.6</ele>
        <time>2021-07-23T14:04:57Z</time>
      </trkpt>
      <trkpt lat="45.07018" lon="2.79471">
        <ele>1293.9</ele>
        <time>2021-07-23T14:05:01Z</time>
      </trkpt>
      <trkpt lat="45.07013" lon="2.79475">
        <ele>1294.4</ele>
        <time>2021-07-23T14:05:03Z</time>
      </trkpt>
      <trkpt lat="45.07008" lon="2.79481">
        <ele>1294.4</ele>
        <time>2021-07-23T14:05:05Z</time>
      </trkpt>
      <trkpt lat="45.07003" lon="2.79487">
        <ele>1294.5</ele>
        <time>2021-07-23T14:05:07Z</time>
      </trkpt>
      <trkpt lat="45.06995" lon="2.79493">
        <ele>1294.7</ele>
        <time>2021-07-23T14:05:11Z</time>
      </trkpt>
      <trkpt lat="45.06988" lon="2.795">
        <ele>1294.6</ele>
        <time>2021-07-23T14:05:15Z</time>
      </trkpt>
      <trkpt lat="45.06984" lon="2.79502">
        <ele>1294.8</ele>
        <time>2021-07-23T14:05:17Z</time>
      </trkpt>
      <trkpt lat="45.06977" lon="2.79504">
        <ele>1295.5</ele>
        <time>2021-07-23T14:05:21Z</time>
      </trkpt>
      <trkpt lat="45.06972" lon="2.79505">
        <ele>1295.8</ele>
        <time>2021-07-23T14:05:23Z</time>
      </trkpt>
      <trkpt lat="45.06966" lon="2.79504">
        <ele>1296.8</ele>
        <time>2021-07-23T14:05:25Z</time>
      </trkpt>
      <trkpt lat="45.06962" lon="2.79504">
        <ele>1297.4</ele>
        <time>2021-07-23T14:05:27Z</time>
      </trkpt>
      <trkpt lat="45.06955" lon="2.79504">
        <ele>1298.3</ele>
        <time>2021-07-23T14:05:31Z</time>
      </trkpt>
      <trkpt lat="45.06949" lon="2.79507">
        <ele>1298.6</ele>
        <time>2021-07-23T14:05:35Z</time>
      </trkpt>
      <trkpt lat="45.06943" lon="2.79507">
        <ele>1299.4</ele>
        <time>2021-07-23T14:05:39Z</time>
      </trkpt>
      <trkpt lat="45.06934" lon="2.79509">
        <ele>1300.2</ele>
        <time>2021-07-23T14:05:43Z</time>
      </trkpt>
      <trkpt lat="45.06927" lon="2.79509">
        <ele>1301.1</ele>
        <time>2021-07-23T14:05:47Z</time>
      </trkpt>
      <trkpt lat="45.0692" lon="2.7951">
        <ele>1301.7</ele>
        <time>2021-07-23T14:05:53Z</time>
      </trkpt>
      <trkpt lat="45.06914" lon="2.7951">
        <ele>1302.7</ele>
        <time>2021-07-23T14:05:59Z</time>
      </trkpt>
      <trkpt lat="45.0691" lon="2.79512">
        <ele>1303.6</ele>
        <time>2021-07-23T14:06:01Z</time>
      </trkpt>
      <trkpt lat="45.06902" lon="2.79515">
        <ele>1304.9</ele>
        <time>2021-07-23T14:06:05Z</time>
      </trkpt>
      <trkpt lat="45.06895" lon="2.79518">
        <ele>1306.2</ele>
        <time>2021-07-23T14:06:11Z</time>
      </trkpt>
      <trkpt lat="45.06893" lon="2.79525">
        <ele>1305.6</ele>
        <time>2021-07-23T14:06:17Z</time>
      </trkpt>
      <trkpt lat="45.06886" lon="2.7953">
        <ele>1306.2</ele>
        <time>2021-07-23T14:06:21Z</time>
      </trkpt>
      <trkpt lat="45.06879" lon="2.79532">
        <ele>1307.6</ele>
        <time>2021-07-23T14:06:25Z</time>
      </trkpt>
      <trkpt lat="45.06874" lon="2.79534">
        <ele>1308.6</ele>
        <time>2021-07-23T14:06:31Z</time>
      </trkpt>
      <trkpt lat="45.06866" lon="2.79534">
        <ele>1310.3</ele>
        <time>2021-07-23T14:06:37Z</time>
      </trkpt>
      <trkpt lat="45.06859" lon="2.79537">
        <ele>1311.4</ele>
        <time>2021-07-23T14:06:43Z</time>
      </trkpt>
      <trkpt lat="45.06855" lon="2.7954">
        <ele>1312.1</ele>
        <time>2021-07-23T14:06:47Z</time>
      </trkpt>
      <trkpt lat="45.06849" lon="2.79544">
        <ele>1312.5</ele>
        <time>2021-07-23T14:06:51Z</time>
      </trkpt>
      <trkpt lat="45.06844" lon="2.79549">
        <ele>1313.1</ele>
        <time>2021-07-23T14:06:55Z</time>
      </trkpt>
      <trkpt lat="45.06839" lon="2.79552">
        <ele>1313.7</ele>
        <time>2021-07-23T14:06:59Z</time>
      </trkpt>
      <trkpt lat="45.06834" lon="2.79557">
        <ele>1313.9</ele>
        <time>2021-07-23T14:07:03Z</time>
      </trkpt>
      <trkpt lat="45.0683" lon="2.7956">
        <ele>1314.8</ele>
        <time>2021-07-23T14:10:53Z</time>
      </trkpt>
      <trkpt lat="45.06828" lon="2.79567">
        <ele>1314.3</ele>
        <time>2021-07-23T14:11:01Z</time>
      </trkpt>
      <trkpt lat="45.06823" lon="2.79579">
        <ele>1314.4</ele>
        <time>2021-07-23T14:11:05Z</time>
      </trkpt>
      <trkpt lat="45.06818" lon="2.79588">
        <ele>1314.7</ele>
        <time>2021-07-23T14:11:07Z</time>
      </trkpt>
      <trkpt lat="45.06815" lon="2.79597">
        <ele>1314.9</ele>
        <time>2021-07-23T14:11:09Z</time>
      </trkpt>
      <trkpt lat="45.06813" lon="2.79604">
        <ele>1314.9</ele>
        <time>2021-07-23T14:11:11Z</time>
      </trkpt>
      <trkpt lat="45.0681" lon="2.79612">
        <ele>1315.4</ele>
        <time>2021-07-23T14:11:13Z</time>
      </trkpt>
      <trkpt lat="45.06805" lon="2.7962">
        <ele>1316.2</ele>
        <time>2021-07-23T14:11:15Z</time>
      </trkpt>
      <trkpt lat="45.06803" lon="2.79626">
        <ele>1316.4</ele>
        <time>2021-07-23T14:11:17Z</time>
      </trkpt>
      <trkpt lat="45.06803" lon="2.79636">
        <ele>1314.8</ele>
        <time>2021-07-23T14:11:21Z</time>
      </trkpt>
      <trkpt lat="45.06804" lon="2.79644">
        <ele>1313.6</ele>
        <time>2021-07-23T14:11:25Z</time>
      </trkpt>
      <trkpt lat="45.06801" lon="2.79654">
        <ele>1313.4</ele>
        <time>2021-07-23T14:11:29Z</time>
      </trkpt>
      <trkpt lat="45.06797" lon="2.79662">
        <ele>1313.7</ele>
        <time>2021-07-23T14:11:33Z</time>
      </trkpt>
      <trkpt lat="45.06793" lon="2.7967">
        <ele>1314.4</ele>
        <time>2021-07-23T14:11:37Z</time>
      </trkpt>
      <trkpt lat="45.06789" lon="2.79676">
        <ele>1315.2</ele>
        <time>2021-07-23T14:11:41Z</time>
      </trkpt>
      <trkpt lat="45.06785" lon="2.79682">
        <ele>1315.9</ele>
        <time>2021-07-23T14:11:45Z</time>
      </trkpt>
      <trkpt lat="45.06783" lon="2.7969">
        <ele>1316.2</ele>
        <time>2021-07-23T14:11:49Z</time>
      </trkpt>
      <trkpt lat="45.06779" lon="2.79701">
        <ele>1316.5</ele>
        <time>2021-07-23T14:11:53Z</time>
      </trkpt>
      <trkpt lat="45.06778" lon="2.79707">
        <ele>1316.5</ele>
        <time>2021-07-23T14:11:55Z</time>
      </trkpt>
      <trkpt lat="45.06776" lon="2.79714">
        <ele>1316.5</ele>
        <time>2021-07-23T14:11:57Z</time>
      </trkpt>
      <trkpt lat="45.06773" lon="2.79724">
        <ele>1316.8</ele>
        <time>2021-07-23T14:12:01Z</time>
      </trkpt>
      <trkpt lat="45.06773" lon="2.7973">
        <ele>1316</ele>
        <time>2021-07-23T14:12:03Z</time>
      </trkpt>
      <trkpt lat="45.06775" lon="2.79741">
        <ele>1314.4</ele>
        <time>2021-07-23T14:12:07Z</time>
      </trkpt>
      <trkpt lat="45.06775" lon="2.79751">
        <ele>1313.6</ele>
        <time>2021-07-23T14:12:13Z</time>
      </trkpt>
      <trkpt lat="45.06772" lon="2.79759">
        <ele>1313.6</ele>
        <time>2021-07-23T14:12:17Z</time>
      </trkpt>
      <trkpt lat="45.06771" lon="2.79769">
        <ele>1313.1</ele>
        <time>2021-07-23T14:12:21Z</time>
      </trkpt>
      <trkpt lat="45.06768" lon="2.79779">
        <ele>1312.9</ele>
        <time>2021-07-23T14:12:25Z</time>
      </trkpt>
      <trkpt lat="45.06765" lon="2.7979">
        <ele>1312.7</ele>
        <time>2021-07-23T14:12:29Z</time>
      </trkpt>
      <trkpt lat="45.06763" lon="2.79796">
        <ele>1312.8</ele>
        <time>2021-07-23T14:12:31Z</time>
      </trkpt>
      <trkpt lat="45.0676" lon="2.79802">
        <ele>1313.1</ele>
        <time>2021-07-23T14:12:33Z</time>
      </trkpt>
      <trkpt lat="45.06757" lon="2.79807">
        <ele>1313.2</ele>
        <time>2021-07-23T14:12:35Z</time>
      </trkpt>
      <trkpt lat="45.06754" lon="2.79814">
        <ele>1313.1</ele>
        <time>2021-07-23T14:12:37Z</time>
      </trkpt>
      <trkpt lat="45.06751" lon="2.79821">
        <ele>1313.1</ele>
        <time>2021-07-23T14:12:39Z</time>
      </trkpt>
      <trkpt lat="45.06752" lon="2.79829">
        <ele>1312</ele>
        <time>2021-07-23T14:12:41Z</time>
      </trkpt>
      <trkpt lat="45.06751" lon="2.79839">
        <ele>1311.5</ele>
        <time>2021-07-23T14:12:45Z</time>
      </trkpt>
      <trkpt lat="45.06746" lon="2.79847">
        <ele>1312.9</ele>
        <time>2021-07-23T14:12:49Z</time>
      </trkpt>
      <trkpt lat="45.06747" lon="2.79858">
        <ele>1312.2</ele>
        <time>2021-07-23T14:12:53Z</time>
      </trkpt>
      <trkpt lat="45.06743" lon="2.79869">
        <ele>1313.1</ele>
        <time>2021-07-23T14:12:57Z</time>
      </trkpt>
      <trkpt lat="45.06741" lon="2.79875">
        <ele>1313.3</ele>
        <time>2021-07-23T14:12:59Z</time>
      </trkpt>
      <trkpt lat="45.0674" lon="2.79881">
        <ele>1313.4</ele>
        <time>2021-07-23T14:13:01Z</time>
      </trkpt>
      <trkpt lat="45.0674" lon="2.79888">
        <ele>1313</ele>
        <time>2021-07-23T14:13:03Z</time>
      </trkpt>
      <trkpt lat="45.06742" lon="2.79895">
        <ele>1311.8</ele>
        <time>2021-07-23T14:13:05Z</time>
      </trkpt>
      <trkpt lat="45.06742" lon="2.79903">
        <ele>1311.4</ele>
        <time>2021-07-23T14:13:07Z</time>
      </trkpt>
      <trkpt lat="45.06744" lon="2.7991">
        <ele>1310.3</ele>
        <time>2021-07-23T14:13:09Z</time>
      </trkpt>
      <trkpt lat="45.06747" lon="2.79919">
        <ele>1309</ele>
        <time>2021-07-23T14:13:13Z</time>
      </trkpt>
      <trkpt lat="45.06748" lon="2.79928">
        <ele>1308.3</ele>
        <time>2021-07-23T14:13:17Z</time>
      </trkpt>
      <trkpt lat="45.06745" lon="2.79936">
        <ele>1309.1</ele>
        <time>2021-07-23T14:13:21Z</time>
      </trkpt>
      <trkpt lat="45.06744" lon="2.79942">
        <ele>1309</ele>
        <time>2021-07-23T14:13:23Z</time>
      </trkpt>
      <trkpt lat="45.06741" lon="2.79949">
        <ele>1309.6</ele>
        <time>2021-07-23T14:13:25Z</time>
      </trkpt>
      <trkpt lat="45.06738" lon="2.79953">
        <ele>1310.4</ele>
        <time>2021-07-23T14:13:27Z</time>
      </trkpt>
      <trkpt lat="45.06733" lon="2.7996">
        <ele>1311.4</ele>
        <time>2021-07-23T14:13:31Z</time>
      </trkpt>
      <trkpt lat="45.06728" lon="2.79966">
        <ele>1312.3</ele>
        <time>2021-07-23T14:13:35Z</time>
      </trkpt>
      <trkpt lat="45.06722" lon="2.79974">
        <ele>1313.1</ele>
        <time>2021-07-23T14:13:39Z</time>
      </trkpt>
      <trkpt lat="45.06717" lon="2.7998">
        <ele>1313.9</ele>
        <time>2021-07-23T14:13:43Z</time>
      </trkpt>
      <trkpt lat="45.06711" lon="2.79986">
        <ele>1314.7</ele>
        <time>2021-07-23T14:13:47Z</time>
      </trkpt>
      <trkpt lat="45.06706" lon="2.79994">
        <ele>1315</ele>
        <time>2021-07-23T14:13:51Z</time>
      </trkpt>
      <trkpt lat="45.06701" lon="2.8">
        <ele>1315.3</ele>
        <time>2021-07-23T14:13:55Z</time>
      </trkpt>
      <trkpt lat="45.06698" lon="2.80005">
        <ele>1315.5</ele>
        <time>2021-07-23T14:13:59Z</time>
      </trkpt>
      <trkpt lat="45.06694" lon="2.8001">
        <ele>1315.7</ele>
        <time>2021-07-23T14:14:03Z</time>
      </trkpt>
      <trkpt lat="45.06692" lon="2.80018">
        <ele>1315.1</ele>
        <time>2021-07-23T14:14:07Z</time>
      </trkpt>
      <trkpt lat="45.06687" lon="2.80023">
        <ele>1315.2</ele>
        <time>2021-07-23T14:14:11Z</time>
      </trkpt>
      <trkpt lat="45.06682" lon="2.8003">
        <ele>1315.1</ele>
        <time>2021-07-23T14:14:15Z</time>
      </trkpt>
      <trkpt lat="45.06677" lon="2.80038">
        <ele>1314.7</ele>
        <time>2021-07-23T14:14:19Z</time>
      </trkpt>
      <trkpt lat="45.06673" lon="2.80044">
        <ele>1314.4</ele>
        <time>2021-07-23T14:14:23Z</time>
      </trkpt>
      <trkpt lat="45.06665" lon="2.80056">
        <ele>1313.5</ele>
        <time>2021-07-23T14:14:27Z</time>
      </trkpt>
      <trkpt lat="45.06659" lon="2.80065">
        <ele>1313.3</ele>
        <time>2021-07-23T14:14:29Z</time>
      </trkpt>
      <trkpt lat="45.06653" lon="2.80072">
        <ele>1313.2</ele>
        <time>2021-07-23T14:14:31Z</time>
      </trkpt>
      <trkpt lat="45.06647" lon="2.8008">
        <ele>1313</ele>
        <time>2021-07-23T14:14:33Z</time>
      </trkpt>
      <trkpt lat="45.06641" lon="2.80088">
        <ele>1313.4</ele>
        <time>2021-07-23T14:14:35Z</time>
      </trkpt>
      <trkpt lat="45.06635" lon="2.80096">
        <ele>1313.8</ele>
        <time>2021-07-23T14:14:37Z</time>
      </trkpt>
      <trkpt lat="45.06632" lon="2.80103">
        <ele>1314</ele>
        <time>2021-07-23T14:14:39Z</time>
      </trkpt>
      <trkpt lat="45.06628" lon="2.80108">
        <ele>1314.3</ele>
        <time>2021-07-23T14:14:41Z</time>
      </trkpt>
      <trkpt lat="45.06623" lon="2.80114">
        <ele>1314.6</ele>
        <time>2021-07-23T14:14:43Z</time>
      </trkpt>
      <trkpt lat="45.06619" lon="2.80121">
        <ele>1314.7</ele>
        <time>2021-07-23T14:14:45Z</time>
      </trkpt>
      <trkpt lat="45.06615" lon="2.80129">
        <ele>1314.7</ele>
        <time>2021-07-23T14:14:47Z</time>
      </trkpt>
      <trkpt lat="45.06609" lon="2.80136">
        <ele>1314.9</ele>
        <time>2021-07-23T14:14:49Z</time>
      </trkpt>
      <trkpt lat="45.06602" lon="2.80143">
        <ele>1315.1</ele>
        <time>2021-07-23T14:14:51Z</time>
      </trkpt>
      <trkpt lat="45.06599" lon="2.80151">
        <ele>1314.8</ele>
        <time>2021-07-23T14:14:53Z</time>
      </trkpt>
      <trkpt lat="45.06593" lon="2.80158">
        <ele>1314.8</ele>
        <time>2021-07-23T14:14:55Z</time>
      </trkpt>
      <trkpt lat="45.06588" lon="2.80166">
        <ele>1314.5</ele>
        <time>2021-07-23T14:14:57Z</time>
      </trkpt>
      <trkpt lat="45.06585" lon="2.80173">
        <ele>1314.2</ele>
        <time>2021-07-23T14:14:59Z</time>
      </trkpt>
      <trkpt lat="45.06582" lon="2.80181">
        <ele>1313.7</ele>
        <time>2021-07-23T14:15:03Z</time>
      </trkpt>
      <trkpt lat="45.06576" lon="2.80189">
        <ele>1313.5</ele>
        <time>2021-07-23T14:15:07Z</time>
      </trkpt>
      <trkpt lat="45.06572" lon="2.80193">
        <ele>1313.4</ele>
        <time>2021-07-23T14:15:09Z</time>
      </trkpt>
      <trkpt lat="45.06569" lon="2.80199">
        <ele>1313</ele>
        <time>2021-07-23T14:15:11Z</time>
      </trkpt>
      <trkpt lat="45.06564" lon="2.80205">
        <ele>1312.8</ele>
        <time>2021-07-23T14:15:13Z</time>
      </trkpt>
      <trkpt lat="45.0656" lon="2.80209">
        <ele>1312.6</ele>
        <time>2021-07-23T14:15:15Z</time>
      </trkpt>
      <trkpt lat="45.06554" lon="2.8021">
        <ele>1312.9</ele>
        <time>2021-07-23T14:15:19Z</time>
      </trkpt>
      <trkpt lat="45.06546" lon="2.80213">
        <ele>1313.1</ele>
        <time>2021-07-23T14:15:23Z</time>
      </trkpt>
      <trkpt lat="45.06537" lon="2.80212">
        <ele>1313.8</ele>
        <time>2021-07-23T14:15:27Z</time>
      </trkpt>
      <trkpt lat="45.0653" lon="2.80211">
        <ele>1314.4</ele>
        <time>2021-07-23T14:15:31Z</time>
      </trkpt>
      <trkpt lat="45.06523" lon="2.8021">
        <ele>1315.2</ele>
        <time>2021-07-23T14:15:35Z</time>
      </trkpt>
      <trkpt lat="45.06515" lon="2.80208">
        <ele>1316</ele>
        <time>2021-07-23T14:15:39Z</time>
      </trkpt>
      <trkpt lat="45.0651" lon="2.8021">
        <ele>1316</ele>
        <time>2021-07-23T14:15:41Z</time>
      </trkpt>
      <trkpt lat="45.06504" lon="2.80213">
        <ele>1316</ele>
        <time>2021-07-23T14:15:43Z</time>
      </trkpt>
      <trkpt lat="45.06499" lon="2.80218">
        <ele>1315.6</ele>
        <time>2021-07-23T14:15:45Z</time>
      </trkpt>
      <trkpt lat="45.06495" lon="2.80221">
        <ele>1315</ele>
        <time>2021-07-23T14:15:47Z</time>
      </trkpt>
      <trkpt lat="45.06489" lon="2.80223">
        <ele>1314.6</ele>
        <time>2021-07-23T14:15:51Z</time>
      </trkpt>
      <trkpt lat="45.06487" lon="2.80232">
        <ele>1313.3</ele>
        <time>2021-07-23T14:15:55Z</time>
      </trkpt>
      <trkpt lat="45.06485" lon="2.8024">
        <ele>1312.1</ele>
        <time>2021-07-23T14:16:17Z</time>
      </trkpt>
      <trkpt lat="45.06481" lon="2.80245">
        <ele>1311.3</ele>
        <time>2021-07-23T14:20:39Z</time>
      </trkpt>
      <trkpt lat="45.06479" lon="2.80251">
        <ele>1310.4</ele>
        <time>2021-07-23T14:20:43Z</time>
      </trkpt>
      <trkpt lat="45.06474" lon="2.8026">
        <ele>1309.5</ele>
        <time>2021-07-23T14:20:47Z</time>
      </trkpt>
      <trkpt lat="45.0647" lon="2.80265">
        <ele>1309</ele>
        <time>2021-07-23T14:20:49Z</time>
      </trkpt>
      <trkpt lat="45.06465" lon="2.80271">
        <ele>1308.3</ele>
        <time>2021-07-23T14:20:51Z</time>
      </trkpt>
      <trkpt lat="45.0646" lon="2.80277">
        <ele>1307.6</ele>
        <time>2021-07-23T14:20:53Z</time>
      </trkpt>
      <trkpt lat="45.06455" lon="2.80284">
        <ele>1306.8</ele>
        <time>2021-07-23T14:20:55Z</time>
      </trkpt>
      <trkpt lat="45.06451" lon="2.8029">
        <ele>1306</ele>
        <time>2021-07-23T14:20:57Z</time>
      </trkpt>
      <trkpt lat="45.06446" lon="2.80296">
        <ele>1305.3</ele>
        <time>2021-07-23T14:20:59Z</time>
      </trkpt>
      <trkpt lat="45.06443" lon="2.80303">
        <ele>1304.5</ele>
        <time>2021-07-23T14:21:01Z</time>
      </trkpt>
      <trkpt lat="45.0644" lon="2.80308">
        <ele>1303.8</ele>
        <time>2021-07-23T14:21:03Z</time>
      </trkpt>
      <trkpt lat="45.06436" lon="2.80315">
        <ele>1303</ele>
        <time>2021-07-23T14:21:05Z</time>
      </trkpt>
      <trkpt lat="45.06433" lon="2.80323">
        <ele>1302</ele>
        <time>2021-07-23T14:21:07Z</time>
      </trkpt>
      <trkpt lat="45.06428" lon="2.80331">
        <ele>1301</ele>
        <time>2021-07-23T14:21:09Z</time>
      </trkpt>
      <trkpt lat="45.06423" lon="2.80339">
        <ele>1299.7</ele>
        <time>2021-07-23T14:21:11Z</time>
      </trkpt>
      <trkpt lat="45.06417" lon="2.80347">
        <ele>1298.3</ele>
        <time>2021-07-23T14:21:13Z</time>
      </trkpt>
      <trkpt lat="45.06411" lon="2.80352">
        <ele>1296.6</ele>
        <time>2021-07-23T14:21:15Z</time>
      </trkpt>
      <trkpt lat="45.06404" lon="2.80354">
        <ele>1295.1</ele>
        <time>2021-07-23T14:21:17Z</time>
      </trkpt>
      <trkpt lat="45.06394" lon="2.80353">
        <ele>1293.9</ele>
        <time>2021-07-23T14:21:19Z</time>
      </trkpt>
      <trkpt lat="45.06385" lon="2.80349">
        <ele>1292.8</ele>
        <time>2021-07-23T14:21:21Z</time>
      </trkpt>
      <trkpt lat="45.06376" lon="2.80346">
        <ele>1291.7</ele>
        <time>2021-07-23T14:21:23Z</time>
      </trkpt>
      <trkpt lat="45.06365" lon="2.80343">
        <ele>1290.3</ele>
        <time>2021-07-23T14:21:25Z</time>
      </trkpt>
      <trkpt lat="45.06356" lon="2.80343">
        <ele>1288.7</ele>
        <time>2021-07-23T14:21:27Z</time>
      </trkpt>
      <trkpt lat="45.06346" lon="2.80343">
        <ele>1287.1</ele>
        <time>2021-07-23T14:21:29Z</time>
      </trkpt>
      <trkpt lat="45.06335" lon="2.80341">
        <ele>1285.6</ele>
        <time>2021-07-23T14:21:31Z</time>
      </trkpt>
      <trkpt lat="45.06326" lon="2.80339">
        <ele>1284.7</ele>
        <time>2021-07-23T14:21:33Z</time>
      </trkpt>
      <trkpt lat="45.06318" lon="2.80337">
        <ele>1283.8</ele>
        <time>2021-07-23T14:21:35Z</time>
      </trkpt>
      <trkpt lat="45.06309" lon="2.80339">
        <ele>1282.7</ele>
        <time>2021-07-23T14:21:37Z</time>
      </trkpt>
      <trkpt lat="45.06303" lon="2.80346">
        <ele>1281.7</ele>
        <time>2021-07-23T14:21:39Z</time>
      </trkpt>
      <trkpt lat="45.06297" lon="2.80356">
        <ele>1280.6</ele>
        <time>2021-07-23T14:21:41Z</time>
      </trkpt>
      <trkpt lat="45.06296" lon="2.8037">
        <ele>1279.8</ele>
        <time>2021-07-23T14:21:43Z</time>
      </trkpt>
      <trkpt lat="45.06299" lon="2.80384">
        <ele>1279.3</ele>
        <time>2021-07-23T14:21:45Z</time>
      </trkpt>
      <trkpt lat="45.06302" lon="2.80394">
        <ele>1278.9</ele>
        <time>2021-07-23T14:21:47Z</time>
      </trkpt>
      <trkpt lat="45.06302" lon="2.80402">
        <ele>1278.4</ele>
        <time>2021-07-23T14:21:49Z</time>
      </trkpt>
      <trkpt lat="45.06299" lon="2.80408">
        <ele>1278.1</ele>
        <time>2021-07-23T14:21:53Z</time>
      </trkpt>
      <trkpt lat="45.06293" lon="2.80411">
        <ele>1277.8</ele>
        <time>2021-07-23T14:22:07Z</time>
      </trkpt>
      <trkpt lat="45.06285" lon="2.80411">
        <ele>1277.6</ele>
        <time>2021-07-23T14:22:11Z</time>
      </trkpt>
      <trkpt lat="45.06281" lon="2.8041">
        <ele>1277.6</ele>
        <time>2021-07-23T14:22:13Z</time>
      </trkpt>
      <trkpt lat="45.06276" lon="2.80409">
        <ele>1277.5</ele>
        <time>2021-07-23T14:22:15Z</time>
      </trkpt>
      <trkpt lat="45.06271" lon="2.8041">
        <ele>1277.3</ele>
        <time>2021-07-23T14:22:17Z</time>
      </trkpt>
      <trkpt lat="45.06266" lon="2.80411">
        <ele>1277.2</ele>
        <time>2021-07-23T14:22:19Z</time>
      </trkpt>
      <trkpt lat="45.06261" lon="2.80414">
        <ele>1277.1</ele>
        <time>2021-07-23T14:22:21Z</time>
      </trkpt>
      <trkpt lat="45.06257" lon="2.80417">
        <ele>1277.1</ele>
        <time>2021-07-23T14:22:23Z</time>
      </trkpt>
      <trkpt lat="45.06253" lon="2.8042">
        <ele>1276.9</ele>
        <time>2021-07-23T14:22:25Z</time>
      </trkpt>
      <trkpt lat="45.06248" lon="2.80426">
        <ele>1277.1</ele>
        <time>2021-07-23T14:22:29Z</time>
      </trkpt>
      <trkpt lat="45.06247" lon="2.80434">
        <ele>1277</ele>
        <time>2021-07-23T14:22:33Z</time>
      </trkpt>
      <trkpt lat="45.06251" lon="2.80443">
        <ele>1276</ele>
        <time>2021-07-23T14:22:37Z</time>
      </trkpt>
      <trkpt lat="45.06251" lon="2.80455">
        <ele>1275.6</ele>
        <time>2021-07-23T14:22:41Z</time>
      </trkpt>
      <trkpt lat="45.06251" lon="2.80462">
        <ele>1275.4</ele>
        <time>2021-07-23T14:22:43Z</time>
      </trkpt>
      <trkpt lat="45.0625" lon="2.80468">
        <ele>1275.2</ele>
        <time>2021-07-23T14:22:45Z</time>
      </trkpt>
      <trkpt lat="45.06249" lon="2.80475">
        <ele>1275.1</ele>
        <time>2021-07-23T14:22:47Z</time>
      </trkpt>
      <trkpt lat="45.06248" lon="2.80481">
        <ele>1275.1</ele>
        <time>2021-07-23T14:22:49Z</time>
      </trkpt>
      <trkpt lat="45.06246" lon="2.80493">
        <ele>1275</ele>
        <time>2021-07-23T14:22:53Z</time>
      </trkpt>
      <trkpt lat="45.06245" lon="2.80504">
        <ele>1275.1</ele>
        <time>2021-07-23T14:22:57Z</time>
      </trkpt>
      <trkpt lat="45.06246" lon="2.80512">
        <ele>1274.8</ele>
        <time>2021-07-23T14:22:59Z</time>
      </trkpt>
      <trkpt lat="45.06247" lon="2.8052">
        <ele>1274.5</ele>
        <time>2021-07-23T14:23:01Z</time>
      </trkpt>
      <trkpt lat="45.06249" lon="2.80528">
        <ele>1274.3</ele>
        <time>2021-07-23T14:23:03Z</time>
      </trkpt>
      <trkpt lat="45.0625" lon="2.80536">
        <ele>1274.1</ele>
        <time>2021-07-23T14:23:05Z</time>
      </trkpt>
      <trkpt lat="45.0625" lon="2.80545">
        <ele>1274</ele>
        <time>2021-07-23T14:23:07Z</time>
      </trkpt>
      <trkpt lat="45.06251" lon="2.80554">
        <ele>1273.9</ele>
        <time>2021-07-23T14:23:09Z</time>
      </trkpt>
      <trkpt lat="45.06251" lon="2.80562">
        <ele>1273.9</ele>
        <time>2021-07-23T14:23:11Z</time>
      </trkpt>
      <trkpt lat="45.0625" lon="2.80571">
        <ele>1274</ele>
        <time>2021-07-23T14:23:13Z</time>
      </trkpt>
      <trkpt lat="45.0625" lon="2.80579">
        <ele>1274</ele>
        <time>2021-07-23T14:23:15Z</time>
      </trkpt>
      <trkpt lat="45.06249" lon="2.80587">
        <ele>1274</ele>
        <time>2021-07-23T14:23:17Z</time>
      </trkpt>
      <trkpt lat="45.06249" lon="2.80596">
        <ele>1273.5</ele>
        <time>2021-07-23T14:23:19Z</time>
      </trkpt>
      <trkpt lat="45.0625" lon="2.80606">
        <ele>1273</ele>
        <time>2021-07-23T14:23:21Z</time>
      </trkpt>
      <trkpt lat="45.06251" lon="2.80616">
        <ele>1272.3</ele>
        <time>2021-07-23T14:23:23Z</time>
      </trkpt>
      <trkpt lat="45.06252" lon="2.80626">
        <ele>1271.7</ele>
        <time>2021-07-23T14:23:25Z</time>
      </trkpt>
      <trkpt lat="45.06253" lon="2.80636">
        <ele>1271.1</ele>
        <time>2021-07-23T14:23:27Z</time>
      </trkpt>
      <trkpt lat="45.06253" lon="2.80646">
        <ele>1270.6</ele>
        <time>2021-07-23T14:23:29Z</time>
      </trkpt>
      <trkpt lat="45.06254" lon="2.80655">
        <ele>1270.1</ele>
        <time>2021-07-23T14:23:31Z</time>
      </trkpt>
      <trkpt lat="45.06254" lon="2.80664">
        <ele>1269.6</ele>
        <time>2021-07-23T14:23:33Z</time>
      </trkpt>
      <trkpt lat="45.06256" lon="2.80671">
        <ele>1269.1</ele>
        <time>2021-07-23T14:23:35Z</time>
      </trkpt>
      <trkpt lat="45.06256" lon="2.80681">
        <ele>1268.4</ele>
        <time>2021-07-23T14:23:39Z</time>
      </trkpt>
      <trkpt lat="45.06258" lon="2.80687">
        <ele>1267.8</ele>
        <time>2021-07-23T14:23:41Z</time>
      </trkpt>
      <trkpt lat="45.06259" lon="2.80695">
        <ele>1267.2</ele>
        <time>2021-07-23T14:23:43Z</time>
      </trkpt>
      <trkpt lat="45.06261" lon="2.80701">
        <ele>1266.6</ele>
        <time>2021-07-23T14:23:47Z</time>
      </trkpt>
      <trkpt lat="45.06259" lon="2.80694">
        <ele>1267.3</ele>
        <time>2021-07-23T14:27:35Z</time>
      </trkpt>
      <trkpt lat="45.06259" lon="2.80685">
        <ele>1267.8</ele>
        <time>2021-07-23T14:27:41Z</time>
      </trkpt>
      <trkpt lat="45.06259" lon="2.80678">
        <ele>1268.3</ele>
        <time>2021-07-23T14:27:45Z</time>
      </trkpt>
      <trkpt lat="45.06257" lon="2.8067">
        <ele>1268.9</ele>
        <time>2021-07-23T14:27:51Z</time>
      </trkpt>
      <trkpt lat="45.06256" lon="2.80664">
        <ele>1269.4</ele>
        <time>2021-07-23T14:27:55Z</time>
      </trkpt>
      <trkpt lat="45.06253" lon="2.80656">
        <ele>1270.2</ele>
        <time>2021-07-23T14:28:01Z</time>
      </trkpt>
      <trkpt lat="45.06251" lon="2.80648">
        <ele>1270.8</ele>
        <time>2021-07-23T14:28:07Z</time>
      </trkpt>
      <trkpt lat="45.06248" lon="2.80641">
        <ele>1271.5</ele>
        <time>2021-07-23T14:28:13Z</time>
      </trkpt>
      <trkpt lat="45.06245" lon="2.80636">
        <ele>1272.2</ele>
        <time>2021-07-23T14:28:21Z</time>
      </trkpt>
      <trkpt lat="45.06243" lon="2.80628">
        <ele>1272.8</ele>
        <time>2021-07-23T14:28:27Z</time>
      </trkpt>
      <trkpt lat="45.06241" lon="2.8062">
        <ele>1273.5</ele>
        <time>2021-07-23T14:28:33Z</time>
      </trkpt>
      <trkpt lat="45.06238" lon="2.80614">
        <ele>1274.2</ele>
        <time>2021-07-23T14:28:39Z</time>
      </trkpt>
      <trkpt lat="45.06236" lon="2.80606">
        <ele>1274.9</ele>
        <time>2021-07-23T14:28:45Z</time>
      </trkpt>
      <trkpt lat="45.06234" lon="2.806">
        <ele>1275.5</ele>
        <time>2021-07-23T14:28:51Z</time>
      </trkpt>
      <trkpt lat="45.06231" lon="2.80592">
        <ele>1276.3</ele>
        <time>2021-07-23T14:28:57Z</time>
      </trkpt>
      <trkpt lat="45.06227" lon="2.80586">
        <ele>1277.1</ele>
        <time>2021-07-23T14:29:03Z</time>
      </trkpt>
      <trkpt lat="45.06224" lon="2.80582">
        <ele>1277.8</ele>
        <time>2021-07-23T14:29:07Z</time>
      </trkpt>
      <trkpt lat="45.06219" lon="2.80577">
        <ele>1278.6</ele>
        <time>2021-07-23T14:29:13Z</time>
      </trkpt>
      <trkpt lat="45.06214" lon="2.80574">
        <ele>1279.5</ele>
        <time>2021-07-23T14:29:19Z</time>
      </trkpt>
      <trkpt lat="45.0621" lon="2.80571">
        <ele>1280.2</ele>
        <time>2021-07-23T14:29:25Z</time>
      </trkpt>
      <trkpt lat="45.06206" lon="2.80566">
        <ele>1280.9</ele>
        <time>2021-07-23T14:29:33Z</time>
      </trkpt>
      <trkpt lat="45.06203" lon="2.80562">
        <ele>1281.7</ele>
        <time>2021-07-23T14:29:41Z</time>
      </trkpt>
      <trkpt lat="45.06199" lon="2.80557">
        <ele>1282.4</ele>
        <time>2021-07-23T14:29:47Z</time>
      </trkpt>
      <trkpt lat="45.06196" lon="2.80551">
        <ele>1283.3</ele>
        <time>2021-07-23T14:29:57Z</time>
      </trkpt>
      <trkpt lat="45.0619" lon="2.80546">
        <ele>1284.6</ele>
        <time>2021-07-23T14:30:01Z</time>
      </trkpt>
      <trkpt lat="45.06184" lon="2.80541">
        <ele>1285.9</ele>
        <time>2021-07-23T14:30:05Z</time>
      </trkpt>
      <trkpt lat="45.06179" lon="2.80536">
        <ele>1287.2</ele>
        <time>2021-07-23T14:30:09Z</time>
      </trkpt>
      <trkpt lat="45.06173" lon="2.80531">
        <ele>1288.5</ele>
        <time>2021-07-23T14:30:13Z</time>
      </trkpt>
      <trkpt lat="45.06168" lon="2.80527">
        <ele>1289.8</ele>
        <time>2021-07-23T14:30:17Z</time>
      </trkpt>
      <trkpt lat="45.06164" lon="2.80522">
        <ele>1291.1</ele>
        <time>2021-07-23T14:30:21Z</time>
      </trkpt>
      <trkpt lat="45.06159" lon="2.80518">
        <ele>1292.5</ele>
        <time>2021-07-23T14:30:25Z</time>
      </trkpt>
      <trkpt lat="45.06154" lon="2.80515">
        <ele>1293.8</ele>
        <time>2021-07-23T14:30:33Z</time>
      </trkpt>
      <trkpt lat="45.06149" lon="2.80513">
        <ele>1295.2</ele>
        <time>2021-07-23T14:31:07Z</time>
      </trkpt>
      <trkpt lat="45.06144" lon="2.80511">
        <ele>1296.3</ele>
        <time>2021-07-23T14:32:21Z</time>
      </trkpt>
      <trkpt lat="45.06139" lon="2.80512">
        <ele>1297.6</ele>
        <time>2021-07-23T14:32:31Z</time>
      </trkpt>
      <trkpt lat="45.06134" lon="2.80512">
        <ele>1298.7</ele>
        <time>2021-07-23T14:32:37Z</time>
      </trkpt>
      <trkpt lat="45.06129" lon="2.80514">
        <ele>1299.5</ele>
        <time>2021-07-23T14:32:45Z</time>
      </trkpt>
      <trkpt lat="45.06124" lon="2.80516">
        <ele>1300.6</ele>
        <time>2021-07-23T14:32:51Z</time>
      </trkpt>
      <trkpt lat="45.06119" lon="2.80519">
        <ele>1301.4</ele>
        <time>2021-07-23T14:32:59Z</time>
      </trkpt>
      <trkpt lat="45.06115" lon="2.80523">
        <ele>1302.1</ele>
        <time>2021-07-23T14:33:11Z</time>
      </trkpt>
      <trkpt lat="45.06111" lon="2.80529">
        <ele>1302.5</ele>
        <time>2021-07-23T14:33:19Z</time>
      </trkpt>
      <trkpt lat="45.06107" lon="2.80534">
        <ele>1303.3</ele>
        <time>2021-07-23T14:33:25Z</time>
      </trkpt>
      <trkpt lat="45.06102" lon="2.80538">
        <ele>1303.9</ele>
        <time>2021-07-23T14:33:33Z</time>
      </trkpt>
      <trkpt lat="45.06097" lon="2.8054">
        <ele>1304.9</ele>
        <time>2021-07-23T14:33:41Z</time>
      </trkpt>
      <trkpt lat="45.06093" lon="2.80543">
        <ele>1305.7</ele>
        <time>2021-07-23T14:33:57Z</time>
      </trkpt>
      <trkpt lat="45.06089" lon="2.80548">
        <ele>1306.2</ele>
        <time>2021-07-23T14:34:05Z</time>
      </trkpt>
      <trkpt lat="45.06085" lon="2.80554">
        <ele>1306.7</ele>
        <time>2021-07-23T14:34:15Z</time>
      </trkpt>
      <trkpt lat="45.06082" lon="2.80559">
        <ele>1307</ele>
        <time>2021-07-23T14:34:23Z</time>
      </trkpt>
      <trkpt lat="45.06078" lon="2.80564">
        <ele>1307.6</ele>
        <time>2021-07-23T14:34:33Z</time>
      </trkpt>
      <trkpt lat="45.06073" lon="2.80567">
        <ele>1308.4</ele>
        <time>2021-07-23T14:34:41Z</time>
      </trkpt>
      <trkpt lat="45.06069" lon="2.80568">
        <ele>1309.4</ele>
        <time>2021-07-23T14:34:53Z</time>
      </trkpt>
      <trkpt lat="45.06064" lon="2.80567">
        <ele>1310.6</ele>
        <time>2021-07-23T14:35:01Z</time>
      </trkpt>
      <trkpt lat="45.06059" lon="2.80568">
        <ele>1311.6</ele>
        <time>2021-07-23T14:35:09Z</time>
      </trkpt>
      <trkpt lat="45.06055" lon="2.80571">
        <ele>1312.4</ele>
        <time>2021-07-23T14:35:17Z</time>
      </trkpt>
      <trkpt lat="45.06051" lon="2.80575">
        <ele>1313.1</ele>
        <time>2021-07-23T14:35:29Z</time>
      </trkpt>
      <trkpt lat="45.06046" lon="2.80576">
        <ele>1314.2</ele>
        <time>2021-07-23T14:35:37Z</time>
      </trkpt>
      <trkpt lat="45.06041" lon="2.80579">
        <ele>1315.1</ele>
        <time>2021-07-23T14:35:45Z</time>
      </trkpt>
      <trkpt lat="45.06036" lon="2.80579">
        <ele>1316.1</ele>
        <time>2021-07-23T14:35:51Z</time>
      </trkpt>
      <trkpt lat="45.06031" lon="2.80581">
        <ele>1317.2</ele>
        <time>2021-07-23T14:36:01Z</time>
      </trkpt>
      <trkpt lat="45.06026" lon="2.80584">
        <ele>1318.1</ele>
        <time>2021-07-23T14:36:09Z</time>
      </trkpt>
      <trkpt lat="45.0602" lon="2.80587">
        <ele>1319.1</ele>
        <time>2021-07-23T14:36:17Z</time>
      </trkpt>
      <trkpt lat="45.06016" lon="2.80589">
        <ele>1319.9</ele>
        <time>2021-07-23T14:36:25Z</time>
      </trkpt>
      <trkpt lat="45.06011" lon="2.80591">
        <ele>1320.9</ele>
        <time>2021-07-23T14:36:33Z</time>
      </trkpt>
      <trkpt lat="45.06005" lon="2.80593">
        <ele>1322</ele>
        <time>2021-07-23T14:36:39Z</time>
      </trkpt>
      <trkpt lat="45.06" lon="2.80594">
        <ele>1323.1</ele>
        <time>2021-07-23T14:36:47Z</time>
      </trkpt>
      <trkpt lat="45.05995" lon="2.80593">
        <ele>1323.9</ele>
        <time>2021-07-23T14:36:53Z</time>
      </trkpt>
      <trkpt lat="45.05989" lon="2.80596">
        <ele>1324.4</ele>
        <time>2021-07-23T14:37:03Z</time>
      </trkpt>
      <trkpt lat="45.05983" lon="2.80597">
        <ele>1325.1</ele>
        <time>2021-07-23T14:37:09Z</time>
      </trkpt>
      <trkpt lat="45.05978" lon="2.80598">
        <ele>1325.7</ele>
        <time>2021-07-23T14:37:15Z</time>
      </trkpt>
      <trkpt lat="45.05973" lon="2.80598">
        <ele>1326.3</ele>
        <time>2021-07-23T14:37:19Z</time>
      </trkpt>
      <trkpt lat="45.05966" lon="2.806">
        <ele>1327.1</ele>
        <time>2021-07-23T14:37:23Z</time>
      </trkpt>
      <trkpt lat="45.05961" lon="2.806">
        <ele>1327.7</ele>
        <time>2021-07-23T14:37:27Z</time>
      </trkpt>
      <trkpt lat="45.05956" lon="2.80602">
        <ele>1328.3</ele>
        <time>2021-07-23T14:37:31Z</time>
      </trkpt>
      <trkpt lat="45.05949" lon="2.80604">
        <ele>1328.9</ele>
        <time>2021-07-23T14:37:35Z</time>
      </trkpt>
      <trkpt lat="45.05943" lon="2.80605">
        <ele>1329.7</ele>
        <time>2021-07-23T14:37:41Z</time>
      </trkpt>
      <trkpt lat="45.05938" lon="2.80607">
        <ele>1330.2</ele>
        <time>2021-07-23T14:37:45Z</time>
      </trkpt>
      <trkpt lat="45.05933" lon="2.80612">
        <ele>1330.5</ele>
        <time>2021-07-23T14:37:49Z</time>
      </trkpt>
      <trkpt lat="45.05927" lon="2.80616">
        <ele>1330.8</ele>
        <time>2021-07-23T14:37:53Z</time>
      </trkpt>
      <trkpt lat="45.05922" lon="2.8062">
        <ele>1331.2</ele>
        <time>2021-07-23T14:37:57Z</time>
      </trkpt>
      <trkpt lat="45.05917" lon="2.80626">
        <ele>1331.4</ele>
        <time>2021-07-23T14:38:01Z</time>
      </trkpt>
      <trkpt lat="45.05916" lon="2.80632">
        <ele>1331</ele>
        <time>2021-07-23T14:38:05Z</time>
      </trkpt>
      <trkpt lat="45.05913" lon="2.80643">
        <ele>1330.4</ele>
        <time>2021-07-23T14:38:09Z</time>
      </trkpt>
      <trkpt lat="45.0591" lon="2.80648">
        <ele>1330.2</ele>
        <time>2021-07-23T14:38:11Z</time>
      </trkpt>
      <trkpt lat="45.05908" lon="2.80655">
        <ele>1329.9</ele>
        <time>2021-07-23T14:38:13Z</time>
      </trkpt>
      <trkpt lat="45.05904" lon="2.80662">
        <ele>1329.7</ele>
        <time>2021-07-23T14:38:15Z</time>
      </trkpt>
      <trkpt lat="45.059" lon="2.8067">
        <ele>1329.7</ele>
        <time>2021-07-23T14:38:17Z</time>
      </trkpt>
      <trkpt lat="45.05895" lon="2.80678">
        <ele>1329.9</ele>
        <time>2021-07-23T14:38:19Z</time>
      </trkpt>
      <trkpt lat="45.0589" lon="2.80685">
        <ele>1330.2</ele>
        <time>2021-07-23T14:38:21Z</time>
      </trkpt>
      <trkpt lat="45.05885" lon="2.80694">
        <ele>1330.7</ele>
        <time>2021-07-23T14:38:23Z</time>
      </trkpt>
      <trkpt lat="45.05879" lon="2.80701">
        <ele>1331.3</ele>
        <time>2021-07-23T14:38:25Z</time>
      </trkpt>
      <trkpt lat="45.05874" lon="2.8071">
        <ele>1331.8</ele>
        <time>2021-07-23T14:38:27Z</time>
      </trkpt>
      <trkpt lat="45.0587" lon="2.80719">
        <ele>1332.3</ele>
        <time>2021-07-23T14:38:29Z</time>
      </trkpt>
      <trkpt lat="45.0587" lon="2.80725">
        <ele>1332.3</ele>
        <time>2021-07-23T14:40:43Z</time>
      </trkpt>
      <trkpt lat="45.05868" lon="2.80731">
        <ele>1332.6</ele>
        <time>2021-07-23T14:40:49Z</time>
      </trkpt>
      <trkpt lat="45.05867" lon="2.80738">
        <ele>1332.7</ele>
        <time>2021-07-23T14:40:51Z</time>
      </trkpt>
      <trkpt lat="45.05865" lon="2.8075">
        <ele>1332.8</ele>
        <time>2021-07-23T14:40:55Z</time>
      </trkpt>
      <trkpt lat="45.05867" lon="2.80761">
        <ele>1333.6</ele>
        <time>2021-07-23T14:40:59Z</time>
      </trkpt>
      <trkpt lat="45.05869" lon="2.80773">
        <ele>1334.2</ele>
        <time>2021-07-23T14:41:03Z</time>
      </trkpt>
      <trkpt lat="45.05871" lon="2.80783">
        <ele>1334.6</ele>
        <time>2021-07-23T14:41:07Z</time>
      </trkpt>
      <trkpt lat="45.05874" lon="2.80794">
        <ele>1334.7</ele>
        <time>2021-07-23T14:41:11Z</time>
      </trkpt>
      <trkpt lat="45.05876" lon="2.80801">
        <ele>1334.8</ele>
        <time>2021-07-23T14:41:13Z</time>
      </trkpt>
      <trkpt lat="45.05878" lon="2.8081">
        <ele>1334.9</ele>
        <time>2021-07-23T14:41:15Z</time>
      </trkpt>
      <trkpt lat="45.0588" lon="2.80821">
        <ele>1335</ele>
        <time>2021-07-23T14:41:17Z</time>
      </trkpt>
      <trkpt lat="45.05882" lon="2.80832">
        <ele>1335.3</ele>
        <time>2021-07-23T14:41:19Z</time>
      </trkpt>
      <trkpt lat="45.05884" lon="2.80844">
        <ele>1335.6</ele>
        <time>2021-07-23T14:41:21Z</time>
      </trkpt>
      <trkpt lat="45.05887" lon="2.80856">
        <ele>1335.7</ele>
        <time>2021-07-23T14:41:23Z</time>
      </trkpt>
      <trkpt lat="45.05888" lon="2.80867">
        <ele>1336</ele>
        <time>2021-07-23T14:41:25Z</time>
      </trkpt>
      <trkpt lat="45.05889" lon="2.80875">
        <ele>1336.3</ele>
        <time>2021-07-23T14:41:27Z</time>
      </trkpt>
      <trkpt lat="45.05892" lon="2.80885">
        <ele>1336.1</ele>
        <time>2021-07-23T14:41:31Z</time>
      </trkpt>
      <trkpt lat="45.05893" lon="2.80896">
        <ele>1336.2</ele>
        <time>2021-07-23T14:41:35Z</time>
      </trkpt>
      <trkpt lat="45.05895" lon="2.80903">
        <ele>1336.1</ele>
        <time>2021-07-23T14:41:37Z</time>
      </trkpt>
      <trkpt lat="45.05897" lon="2.80913">
        <ele>1335.8</ele>
        <time>2021-07-23T14:41:41Z</time>
      </trkpt>
      <trkpt lat="45.05901" lon="2.80923">
        <ele>1335.4</ele>
        <time>2021-07-23T14:41:45Z</time>
      </trkpt>
      <trkpt lat="45.05903" lon="2.80933">
        <ele>1335.4</ele>
        <time>2021-07-23T14:41:49Z</time>
      </trkpt>
      <trkpt lat="45.05904" lon="2.80944">
        <ele>1336.2</ele>
        <time>2021-07-23T14:41:53Z</time>
      </trkpt>
      <trkpt lat="45.05907" lon="2.80951">
        <ele>1335.9</ele>
        <time>2021-07-23T14:41:57Z</time>
      </trkpt>
      <trkpt lat="45.05909" lon="2.80958">
        <ele>1336.1</ele>
        <time>2021-07-23T14:42:01Z</time>
      </trkpt>
      <trkpt lat="45.0591" lon="2.80965">
        <ele>1336.2</ele>
        <time>2021-07-23T14:42:05Z</time>
      </trkpt>
      <trkpt lat="45.05911" lon="2.80973">
        <ele>1336.6</ele>
        <time>2021-07-23T14:42:09Z</time>
      </trkpt>
      <trkpt lat="45.05914" lon="2.80981">
        <ele>1336.4</ele>
        <time>2021-07-23T14:42:13Z</time>
      </trkpt>
      <trkpt lat="45.05916" lon="2.80987">
        <ele>1335.7</ele>
        <time>2021-07-23T14:42:15Z</time>
      </trkpt>
      <trkpt lat="45.05918" lon="2.80999">
        <ele>1336.2</ele>
        <time>2021-07-23T14:42:19Z</time>
      </trkpt>
      <trkpt lat="45.0592" lon="2.81006">
        <ele>1336.1</ele>
        <time>2021-07-23T14:42:21Z</time>
      </trkpt>
      <trkpt lat="45.0592" lon="2.81014">
        <ele>1336.5</ele>
        <time>2021-07-23T14:42:23Z</time>
      </trkpt>
      <trkpt lat="45.05922" lon="2.81023">
        <ele>1336.3</ele>
        <time>2021-07-23T14:42:25Z</time>
      </trkpt>
      <trkpt lat="45.05923" lon="2.81032">
        <ele>1336.4</ele>
        <time>2021-07-23T14:42:27Z</time>
      </trkpt>
      <trkpt lat="45.05925" lon="2.81043">
        <ele>1336.1</ele>
        <time>2021-07-23T14:42:29Z</time>
      </trkpt>
      <trkpt lat="45.05928" lon="2.81054">
        <ele>1335.6</ele>
        <time>2021-07-23T14:42:31Z</time>
      </trkpt>
      <trkpt lat="45.05931" lon="2.81066">
        <ele>1334.7</ele>
        <time>2021-07-23T14:42:33Z</time>
      </trkpt>
      <trkpt lat="45.05936" lon="2.81078">
        <ele>1333.3</ele>
        <time>2021-07-23T14:42:35Z</time>
      </trkpt>
      <trkpt lat="45.05937" lon="2.81091">
        <ele>1333.6</ele>
        <time>2021-07-23T14:42:37Z</time>
      </trkpt>
      <trkpt lat="45.05939" lon="2.81104">
        <ele>1333.3</ele>
        <time>2021-07-23T14:42:39Z</time>
      </trkpt>
      <trkpt lat="45.0594" lon="2.81116">
        <ele>1333.4</ele>
        <time>2021-07-23T14:42:41Z</time>
      </trkpt>
      <trkpt lat="45.05942" lon="2.81129">
        <ele>1333</ele>
        <time>2021-07-23T14:42:43Z</time>
      </trkpt>
      <trkpt lat="45.05944" lon="2.81142">
        <ele>1332.6</ele>
        <time>2021-07-23T14:42:45Z</time>
      </trkpt>
      <trkpt lat="45.05946" lon="2.81156">
        <ele>1332.1</ele>
        <time>2021-07-23T14:42:47Z</time>
      </trkpt>
      <trkpt lat="45.05949" lon="2.81171">
        <ele>1331.4</ele>
        <time>2021-07-23T14:42:49Z</time>
      </trkpt>
      <trkpt lat="45.05952" lon="2.81187">
        <ele>1330.5</ele>
        <time>2021-07-23T14:42:51Z</time>
      </trkpt>
      <trkpt lat="45.05954" lon="2.81204">
        <ele>1330.2</ele>
        <time>2021-07-23T14:42:53Z</time>
      </trkpt>
      <trkpt lat="45.05956" lon="2.8122">
        <ele>1330</ele>
        <time>2021-07-23T14:42:55Z</time>
      </trkpt>
      <trkpt lat="45.05957" lon="2.81237">
        <ele>1330.2</ele>
        <time>2021-07-23T14:42:57Z</time>
      </trkpt>
      <trkpt lat="45.05956" lon="2.81253">
        <ele>1331.2</ele>
        <time>2021-07-23T14:42:59Z</time>
      </trkpt>
      <trkpt lat="45.05955" lon="2.8127">
        <ele>1331.3</ele>
        <time>2021-07-23T14:43:01Z</time>
      </trkpt>
      <trkpt lat="45.05951" lon="2.81287">
        <ele>1332.8</ele>
        <time>2021-07-23T14:43:03Z</time>
      </trkpt>
      <trkpt lat="45.05948" lon="2.81306">
        <ele>1333.9</ele>
        <time>2021-07-23T14:43:05Z</time>
      </trkpt>
      <trkpt lat="45.05945" lon="2.81326">
        <ele>1334.4</ele>
        <time>2021-07-23T14:43:07Z</time>
      </trkpt>
      <trkpt lat="45.05945" lon="2.81347">
        <ele>1334.2</ele>
        <time>2021-07-23T14:43:09Z</time>
      </trkpt>
      <trkpt lat="45.05946" lon="2.81368">
        <ele>1334</ele>
        <time>2021-07-23T14:43:11Z</time>
      </trkpt>
      <trkpt lat="45.05947" lon="2.81388">
        <ele>1333.4</ele>
        <time>2021-07-23T14:43:13Z</time>
      </trkpt>
      <trkpt lat="45.05947" lon="2.81407">
        <ele>1333.7</ele>
        <time>2021-07-23T14:43:15Z</time>
      </trkpt>
      <trkpt lat="45.05947" lon="2.81424">
        <ele>1333.6</ele>
        <time>2021-07-23T14:43:17Z</time>
      </trkpt>
      <trkpt lat="45.05947" lon="2.81441">
        <ele>1333.7</ele>
        <time>2021-07-23T14:43:19Z</time>
      </trkpt>
      <trkpt lat="45.05946" lon="2.81458">
        <ele>1333.6</ele>
        <time>2021-07-23T14:43:21Z</time>
      </trkpt>
      <trkpt lat="45.05946" lon="2.81476">
        <ele>1333.6</ele>
        <time>2021-07-23T14:43:23Z</time>
      </trkpt>
      <trkpt lat="45.05946" lon="2.81494">
        <ele>1333.4</ele>
        <time>2021-07-23T14:43:25Z</time>
      </trkpt>
      <trkpt lat="45.05947" lon="2.81513">
        <ele>1332.7</ele>
        <time>2021-07-23T14:43:27Z</time>
      </trkpt>
      <trkpt lat="45.05947" lon="2.81534">
        <ele>1331.9</ele>
        <time>2021-07-23T14:43:29Z</time>
      </trkpt>
      <trkpt lat="45.05946" lon="2.81557">
        <ele>1331.4</ele>
        <time>2021-07-23T14:43:31Z</time>
      </trkpt>
      <trkpt lat="45.05945" lon="2.81583">
        <ele>1331</ele>
        <time>2021-07-23T14:43:33Z</time>
      </trkpt>
      <trkpt lat="45.05942" lon="2.8161">
        <ele>1330.9</ele>
        <time>2021-07-23T14:43:35Z</time>
      </trkpt>
      <trkpt lat="45.0594" lon="2.81636">
        <ele>1330.5</ele>
        <time>2021-07-23T14:43:37Z</time>
      </trkpt>
      <trkpt lat="45.05939" lon="2.81663">
        <ele>1329.5</ele>
        <time>2021-07-23T14:43:39Z</time>
      </trkpt>
      <trkpt lat="45.05938" lon="2.81688">
        <ele>1327.9</ele>
        <time>2021-07-23T14:43:41Z</time>
      </trkpt>
      <trkpt lat="45.05941" lon="2.81711">
        <ele>1325</ele>
        <time>2021-07-23T14:43:43Z</time>
      </trkpt>
      <trkpt lat="45.05946" lon="2.81731">
        <ele>1321.6</ele>
        <time>2021-07-23T14:43:45Z</time>
      </trkpt>
      <trkpt lat="45.05951" lon="2.8175">
        <ele>1318.3</ele>
        <time>2021-07-23T14:43:47Z</time>
      </trkpt>
      <trkpt lat="45.05953" lon="2.8177">
        <ele>1317</ele>
        <time>2021-07-23T14:43:49Z</time>
      </trkpt>
      <trkpt lat="45.05955" lon="2.8179">
        <ele>1315.9</ele>
        <time>2021-07-23T14:43:51Z</time>
      </trkpt>
      <trkpt lat="45.05956" lon="2.81808">
        <ele>1315.5</ele>
        <time>2021-07-23T14:43:53Z</time>
      </trkpt>
      <trkpt lat="45.05957" lon="2.81826">
        <ele>1314.6</ele>
        <time>2021-07-23T14:43:55Z</time>
      </trkpt>
      <trkpt lat="45.05958" lon="2.81845">
        <ele>1314.9</ele>
        <time>2021-07-23T14:43:57Z</time>
      </trkpt>
      <trkpt lat="45.05962" lon="2.81864">
        <ele>1314.4</ele>
        <time>2021-07-23T14:43:59Z</time>
      </trkpt>
      <trkpt lat="45.05965" lon="2.8188">
        <ele>1313.6</ele>
        <time>2021-07-23T14:44:01Z</time>
      </trkpt>
      <trkpt lat="45.05969" lon="2.81897">
        <ele>1312.6</ele>
        <time>2021-07-23T14:44:03Z</time>
      </trkpt>
      <trkpt lat="45.05973" lon="2.81912">
        <ele>1311</ele>
        <time>2021-07-23T14:44:05Z</time>
      </trkpt>
      <trkpt lat="45.05977" lon="2.81923">
        <ele>1310.1</ele>
        <time>2021-07-23T14:44:07Z</time>
      </trkpt>
      <trkpt lat="45.0598" lon="2.81935">
        <ele>1310</ele>
        <time>2021-07-23T14:44:09Z</time>
      </trkpt>
      <trkpt lat="45.05982" lon="2.81948">
        <ele>1310.6</ele>
        <time>2021-07-23T14:44:11Z</time>
      </trkpt>
      <trkpt lat="45.05983" lon="2.81959">
        <ele>1311.4</ele>
        <time>2021-07-23T14:44:13Z</time>
      </trkpt>
      <trkpt lat="45.05986" lon="2.81971">
        <ele>1312</ele>
        <time>2021-07-23T14:44:15Z</time>
      </trkpt>
      <trkpt lat="45.0599" lon="2.81985">
        <ele>1311.3</ele>
        <time>2021-07-23T14:44:17Z</time>
      </trkpt>
      <trkpt lat="45.05996" lon="2.81999">
        <ele>1310.1</ele>
        <time>2021-07-23T14:44:19Z</time>
      </trkpt>
      <trkpt lat="45.06005" lon="2.82015">
        <ele>1307.8</ele>
        <time>2021-07-23T14:44:21Z</time>
      </trkpt>
      <trkpt lat="45.06014" lon="2.8203">
        <ele>1305.2</ele>
        <time>2021-07-23T14:44:23Z</time>
      </trkpt>
      <trkpt lat="45.06024" lon="2.82048">
        <ele>1302</ele>
        <time>2021-07-23T14:44:25Z</time>
      </trkpt>
      <trkpt lat="45.06035" lon="2.82066">
        <ele>1298.4</ele>
        <time>2021-07-23T14:44:27Z</time>
      </trkpt>
      <trkpt lat="45.06045" lon="2.82084">
        <ele>1295.4</ele>
        <time>2021-07-23T14:44:29Z</time>
      </trkpt>
      <trkpt lat="45.06055" lon="2.82104">
        <ele>1292.8</ele>
        <time>2021-07-23T14:44:31Z</time>
      </trkpt>
      <trkpt lat="45.06067" lon="2.82123">
        <ele>1290.2</ele>
        <time>2021-07-23T14:44:33Z</time>
      </trkpt>
      <trkpt lat="45.06078" lon="2.82146">
        <ele>1289</ele>
        <time>2021-07-23T14:44:35Z</time>
      </trkpt>
      <trkpt lat="45.06088" lon="2.82169">
        <ele>1289</ele>
        <time>2021-07-23T14:44:37Z</time>
      </trkpt>
      <trkpt lat="45.06099" lon="2.82193">
        <ele>1288</ele>
        <time>2021-07-23T14:44:39Z</time>
      </trkpt>
      <trkpt lat="45.06109" lon="2.82211">
        <ele>1286.7</ele>
        <time>2021-07-23T14:44:41Z</time>
      </trkpt>
      <trkpt lat="45.06118" lon="2.82228">
        <ele>1285.5</ele>
        <time>2021-07-23T14:44:43Z</time>
      </trkpt>
      <trkpt lat="45.06128" lon="2.82247">
        <ele>1283.9</ele>
        <time>2021-07-23T14:44:45Z</time>
      </trkpt>
      <trkpt lat="45.06138" lon="2.82265">
        <ele>1282</ele>
        <time>2021-07-23T14:44:47Z</time>
      </trkpt>
      <trkpt lat="45.06147" lon="2.82284">
        <ele>1280.1</ele>
        <time>2021-07-23T14:44:49Z</time>
      </trkpt>
      <trkpt lat="45.06158" lon="2.82305">
        <ele>1279</ele>
        <time>2021-07-23T14:44:51Z</time>
      </trkpt>
      <trkpt lat="45.06169" lon="2.82325">
        <ele>1278.2</ele>
        <time>2021-07-23T14:44:53Z</time>
      </trkpt>
      <trkpt lat="45.06181" lon="2.82346">
        <ele>1276.7</ele>
        <time>2021-07-23T14:44:55Z</time>
      </trkpt>
      <trkpt lat="45.06192" lon="2.82366">
        <ele>1274.7</ele>
        <time>2021-07-23T14:44:57Z</time>
      </trkpt>
      <trkpt lat="45.06203" lon="2.82386">
        <ele>1273.3</ele>
        <time>2021-07-23T14:44:59Z</time>
      </trkpt>
      <trkpt lat="45.06213" lon="2.82407">
        <ele>1272.8</ele>
        <time>2021-07-23T14:45:01Z</time>
      </trkpt>
      <trkpt lat="45.06222" lon="2.82428">
        <ele>1271.5</ele>
        <time>2021-07-23T14:45:03Z</time>
      </trkpt>
      <trkpt lat="45.0623" lon="2.82451">
        <ele>1270.3</ele>
        <time>2021-07-23T14:45:05Z</time>
      </trkpt>
      <trkpt lat="45.06231" lon="2.82475">
        <ele>1271</ele>
        <time>2021-07-23T14:45:07Z</time>
      </trkpt>
      <trkpt lat="45.06228" lon="2.82493">
        <ele>1272.9</ele>
        <time>2021-07-23T14:45:09Z</time>
      </trkpt>
      <trkpt lat="45.06224" lon="2.82507">
        <ele>1275.3</ele>
        <time>2021-07-23T14:45:11Z</time>
      </trkpt>
      <trkpt lat="45.06222" lon="2.82522">
        <ele>1277.2</ele>
        <time>2021-07-23T14:45:13Z</time>
      </trkpt>
      <trkpt lat="45.06226" lon="2.82535">
        <ele>1277.4</ele>
        <time>2021-07-23T14:45:15Z</time>
      </trkpt>
      <trkpt lat="45.06234" lon="2.82543">
        <ele>1276.1</ele>
        <time>2021-07-23T14:45:17Z</time>
      </trkpt>
      <trkpt lat="45.06244" lon="2.82544">
        <ele>1273.8</ele>
        <time>2021-07-23T14:45:19Z</time>
      </trkpt>
      <trkpt lat="45.06251" lon="2.82545">
        <ele>1272</ele>
        <time>2021-07-23T14:45:21Z</time>
      </trkpt>
      <trkpt lat="45.06258" lon="2.82546">
        <ele>1270.2</ele>
        <time>2021-07-23T14:45:23Z</time>
      </trkpt>
      <trkpt lat="45.06263" lon="2.82548">
        <ele>1269.1</ele>
        <time>2021-07-23T14:45:25Z</time>
      </trkpt>
      <trkpt lat="45.0627" lon="2.8255">
        <ele>1267.3</ele>
        <time>2021-07-23T14:45:29Z</time>
      </trkpt>
      <trkpt lat="45.06269" lon="2.82561">
        <ele>1269.3</ele>
        <time>2021-07-23T14:49:29Z</time>
      </trkpt>
      <trkpt lat="45.06272" lon="2.82566">
        <ele>1269.1</ele>
        <time>2021-07-23T14:49:33Z</time>
      </trkpt>
      <trkpt lat="45.06277" lon="2.82569">
        <ele>1268.5</ele>
        <time>2021-07-23T14:49:37Z</time>
      </trkpt>
      <trkpt lat="45.06281" lon="2.82576">
        <ele>1268.7</ele>
        <time>2021-07-23T14:49:41Z</time>
      </trkpt>
      <trkpt lat="45.06284" lon="2.82585">
        <ele>1269.5</ele>
        <time>2021-07-23T14:49:45Z</time>
      </trkpt>
      <trkpt lat="45.06286" lon="2.82594">
        <ele>1269.8</ele>
        <time>2021-07-23T14:49:49Z</time>
      </trkpt>
      <trkpt lat="45.06287" lon="2.82603">
        <ele>1270.5</ele>
        <time>2021-07-23T14:49:53Z</time>
      </trkpt>
      <trkpt lat="45.06288" lon="2.82612">
        <ele>1271</ele>
        <time>2021-07-23T14:49:57Z</time>
      </trkpt>
      <trkpt lat="45.06288" lon="2.8262">
        <ele>1271.7</ele>
        <time>2021-07-23T14:50:01Z</time>
      </trkpt>
      <trkpt lat="45.06291" lon="2.82628">
        <ele>1271.9</ele>
        <time>2021-07-23T14:50:05Z</time>
      </trkpt>
      <trkpt lat="45.06294" lon="2.82637">
        <ele>1272.2</ele>
        <time>2021-07-23T14:50:09Z</time>
      </trkpt>
      <trkpt lat="45.06294" lon="2.82648">
        <ele>1273.2</ele>
        <time>2021-07-23T14:50:13Z</time>
      </trkpt>
      <trkpt lat="45.06295" lon="2.82656">
        <ele>1273.7</ele>
        <time>2021-07-23T14:50:17Z</time>
      </trkpt>
      <trkpt lat="45.06297" lon="2.82665">
        <ele>1274.3</ele>
        <time>2021-07-23T14:50:21Z</time>
      </trkpt>
      <trkpt lat="45.06297" lon="2.82675">
        <ele>1274.7</ele>
        <time>2021-07-23T14:50:25Z</time>
      </trkpt>
      <trkpt lat="45.06296" lon="2.82687">
        <ele>1275.3</ele>
        <time>2021-07-23T14:50:29Z</time>
      </trkpt>
      <trkpt lat="45.06295" lon="2.82693">
        <ele>1275.6</ele>
        <time>2021-07-23T14:50:31Z</time>
      </trkpt>
      <trkpt lat="45.06295" lon="2.82701">
        <ele>1275.9</ele>
        <time>2021-07-23T14:50:33Z</time>
      </trkpt>
      <trkpt lat="45.06297" lon="2.82711">
        <ele>1275.9</ele>
        <time>2021-07-23T14:50:37Z</time>
      </trkpt>
      <trkpt lat="45.06302" lon="2.82724">
        <ele>1275.5</ele>
        <time>2021-07-23T14:50:41Z</time>
      </trkpt>
      <trkpt lat="45.06305" lon="2.82731">
        <ele>1275.4</ele>
        <time>2021-07-23T14:50:43Z</time>
      </trkpt>
      <trkpt lat="45.06309" lon="2.82737">
        <ele>1275</ele>
        <time>2021-07-23T14:50:45Z</time>
      </trkpt>
      <trkpt lat="45.06312" lon="2.82745">
        <ele>1274.8</ele>
        <time>2021-07-23T14:50:47Z</time>
      </trkpt>
      <trkpt lat="45.06315" lon="2.8275">
        <ele>1274.6</ele>
        <time>2021-07-23T14:50:49Z</time>
      </trkpt>
      <trkpt lat="45.06322" lon="2.82759">
        <ele>1273.5</ele>
        <time>2021-07-23T14:50:53Z</time>
      </trkpt>
      <trkpt lat="45.06329" lon="2.82763">
        <ele>1272.7</ele>
        <time>2021-07-23T14:50:55Z</time>
      </trkpt>
      <trkpt lat="45.06335" lon="2.82766">
        <ele>1271.7</ele>
        <time>2021-07-23T14:50:57Z</time>
      </trkpt>
      <trkpt lat="45.06341" lon="2.82771">
        <ele>1270.7</ele>
        <time>2021-07-23T14:50:59Z</time>
      </trkpt>
      <trkpt lat="45.06348" lon="2.82774">
        <ele>1269.6</ele>
        <time>2021-07-23T14:51:03Z</time>
      </trkpt>
      <trkpt lat="45.06354" lon="2.82778">
        <ele>1268.7</ele>
        <time>2021-07-23T14:51:07Z</time>
      </trkpt>
      <trkpt lat="45.06359" lon="2.8278">
        <ele>1268</ele>
        <time>2021-07-23T14:51:09Z</time>
      </trkpt>
      <trkpt lat="45.06368" lon="2.82783">
        <ele>1266.7</ele>
        <time>2021-07-23T14:51:11Z</time>
      </trkpt>
      <trkpt lat="45.06377" lon="2.82786">
        <ele>1265.6</ele>
        <time>2021-07-23T14:51:13Z</time>
      </trkpt>
      <trkpt lat="45.06385" lon="2.82789">
        <ele>1264.4</ele>
        <time>2021-07-23T14:51:15Z</time>
      </trkpt>
      <trkpt lat="45.06391" lon="2.82791">
        <ele>1263.7</ele>
        <time>2021-07-23T14:51:17Z</time>
      </trkpt>
      <trkpt lat="45.06396" lon="2.82794">
        <ele>1263</ele>
        <time>2021-07-23T14:51:19Z</time>
      </trkpt>
      <trkpt lat="45.06401" lon="2.82797">
        <ele>1262.6</ele>
        <time>2021-07-23T14:51:21Z</time>
      </trkpt>
      <trkpt lat="45.06408" lon="2.82802">
        <ele>1261.9</ele>
        <time>2021-07-23T14:51:25Z</time>
      </trkpt>
      <trkpt lat="45.06416" lon="2.82811">
        <ele>1261.5</ele>
        <time>2021-07-23T14:51:29Z</time>
      </trkpt>
      <trkpt lat="45.0642" lon="2.82818">
        <ele>1261</ele>
        <time>2021-07-23T14:51:31Z</time>
      </trkpt>
      <trkpt lat="45.06424" lon="2.82828">
        <ele>1260.8</ele>
        <time>2021-07-23T14:51:33Z</time>
      </trkpt>
      <trkpt lat="45.06428" lon="2.82838">
        <ele>1260.2</ele>
        <time>2021-07-23T14:51:35Z</time>
      </trkpt>
      <trkpt lat="45.06433" lon="2.82848">
        <ele>1259.3</ele>
        <time>2021-07-23T14:51:37Z</time>
      </trkpt>
      <trkpt lat="45.06438" lon="2.82857">
        <ele>1258.6</ele>
        <time>2021-07-23T14:51:39Z</time>
      </trkpt>
      <trkpt lat="45.06441" lon="2.82869">
        <ele>1258.5</ele>
        <time>2021-07-23T14:51:41Z</time>
      </trkpt>
      <trkpt lat="45.06442" lon="2.8288">
        <ele>1258.7</ele>
        <time>2021-07-23T14:51:43Z</time>
      </trkpt>
      <trkpt lat="45.06444" lon="2.8289">
        <ele>1258.9</ele>
        <time>2021-07-23T14:51:45Z</time>
      </trkpt>
      <trkpt lat="45.06445" lon="2.82899">
        <ele>1259.1</ele>
        <time>2021-07-23T14:51:47Z</time>
      </trkpt>
      <trkpt lat="45.06445" lon="2.82907">
        <ele>1259.4</ele>
        <time>2021-07-23T14:51:49Z</time>
      </trkpt>
      <trkpt lat="45.06445" lon="2.82916">
        <ele>1259.8</ele>
        <time>2021-07-23T14:51:51Z</time>
      </trkpt>
      <trkpt lat="45.06449" lon="2.82925">
        <ele>1260.1</ele>
        <time>2021-07-23T14:51:53Z</time>
      </trkpt>
      <trkpt lat="45.06451" lon="2.82935">
        <ele>1260.8</ele>
        <time>2021-07-23T14:51:57Z</time>
      </trkpt>
      <trkpt lat="45.06456" lon="2.82942">
        <ele>1260.8</ele>
        <time>2021-07-23T14:52:01Z</time>
      </trkpt>
      <trkpt lat="45.06458" lon="2.82949">
        <ele>1261.4</ele>
        <time>2021-07-23T14:52:05Z</time>
      </trkpt>
      <trkpt lat="45.06461" lon="2.82956">
        <ele>1261.8</ele>
        <time>2021-07-23T14:52:09Z</time>
      </trkpt>
      <trkpt lat="45.06463" lon="2.82962">
        <ele>1262.2</ele>
        <time>2021-07-23T14:52:35Z</time>
      </trkpt>
      <trkpt lat="45.06467" lon="2.82967">
        <ele>1262.5</ele>
        <time>2021-07-23T14:52:39Z</time>
      </trkpt>
      <trkpt lat="45.0647" lon="2.82974">
        <ele>1263.1</ele>
        <time>2021-07-23T14:52:43Z</time>
      </trkpt>
      <trkpt lat="45.06473" lon="2.82982">
        <ele>1263.7</ele>
        <time>2021-07-23T14:52:47Z</time>
      </trkpt>
      <trkpt lat="45.06475" lon="2.82989">
        <ele>1264.5</ele>
        <time>2021-07-23T14:52:51Z</time>
      </trkpt>
      <trkpt lat="45.06475" lon="2.82996">
        <ele>1265.4</ele>
        <time>2021-07-23T14:52:55Z</time>
      </trkpt>
      <trkpt lat="45.06476" lon="2.83004">
        <ele>1266.2</ele>
        <time>2021-07-23T14:52:59Z</time>
      </trkpt>
      <trkpt lat="45.06476" lon="2.83011">
        <ele>1266.7</ele>
        <time>2021-07-23T14:53:03Z</time>
      </trkpt>
      <trkpt lat="45.06477" lon="2.83017">
        <ele>1267.1</ele>
        <time>2021-07-23T14:53:07Z</time>
      </trkpt>
      <trkpt lat="45.0648" lon="2.83025">
        <ele>1267.6</ele>
        <time>2021-07-23T14:53:13Z</time>
      </trkpt>
      <trkpt lat="45.06482" lon="2.83033">
        <ele>1268.2</ele>
        <time>2021-07-23T14:53:19Z</time>
      </trkpt>
      <trkpt lat="45.06486" lon="2.83039">
        <ele>1268.5</ele>
        <time>2021-07-23T14:53:23Z</time>
      </trkpt>
      <trkpt lat="45.0649" lon="2.83045">
        <ele>1269</ele>
        <time>2021-07-23T14:53:27Z</time>
      </trkpt>
      <trkpt lat="45.06491" lon="2.83053">
        <ele>1269.5</ele>
        <time>2021-07-23T14:53:31Z</time>
      </trkpt>
      <trkpt lat="45.06493" lon="2.83059">
        <ele>1270.1</ele>
        <time>2021-07-23T14:53:35Z</time>
      </trkpt>
      <trkpt lat="45.06497" lon="2.83065">
        <ele>1270.5</ele>
        <time>2021-07-23T14:53:39Z</time>
      </trkpt>
      <trkpt lat="45.06501" lon="2.83067">
        <ele>1270.4</ele>
        <time>2021-07-23T14:53:43Z</time>
      </trkpt>
      <trkpt lat="45.06509" lon="2.8307">
        <ele>1269.5</ele>
        <time>2021-07-23T14:53:47Z</time>
      </trkpt>
      <trkpt lat="45.06516" lon="2.83073">
        <ele>1268.7</ele>
        <time>2021-07-23T14:53:51Z</time>
      </trkpt>
      <trkpt lat="45.06521" lon="2.83077">
        <ele>1268.3</ele>
        <time>2021-07-23T14:53:53Z</time>
      </trkpt>
      <trkpt lat="45.06525" lon="2.83083">
        <ele>1268.4</ele>
        <time>2021-07-23T14:53:55Z</time>
      </trkpt>
      <trkpt lat="45.0653" lon="2.83093">
        <ele>1268.2</ele>
        <time>2021-07-23T14:53:57Z</time>
      </trkpt>
      <trkpt lat="45.06534" lon="2.83105">
        <ele>1268.2</ele>
        <time>2021-07-23T14:53:59Z</time>
      </trkpt>
      <trkpt lat="45.06538" lon="2.83114">
        <ele>1268.3</ele>
        <time>2021-07-23T14:54:01Z</time>
      </trkpt>
      <trkpt lat="45.06541" lon="2.83122">
        <ele>1268.4</ele>
        <time>2021-07-23T14:54:03Z</time>
      </trkpt>
      <trkpt lat="45.06545" lon="2.83127">
        <ele>1268.3</ele>
        <time>2021-07-23T14:54:05Z</time>
      </trkpt>
      <trkpt lat="45.06547" lon="2.83133">
        <ele>1268.4</ele>
        <time>2021-07-23T14:54:07Z</time>
      </trkpt>
      <trkpt lat="45.06549" lon="2.8314">
        <ele>1268.5</ele>
        <time>2021-07-23T14:54:09Z</time>
      </trkpt>
      <trkpt lat="45.06552" lon="2.83146">
        <ele>1268.7</ele>
        <time>2021-07-23T14:54:11Z</time>
      </trkpt>
      <trkpt lat="45.06556" lon="2.83153">
        <ele>1268.7</ele>
        <time>2021-07-23T14:54:13Z</time>
      </trkpt>
      <trkpt lat="45.06559" lon="2.83162">
        <ele>1269</ele>
        <time>2021-07-23T14:54:15Z</time>
      </trkpt>
      <trkpt lat="45.06564" lon="2.83171">
        <ele>1268.9</ele>
        <time>2021-07-23T14:54:17Z</time>
      </trkpt>
      <trkpt lat="45.06569" lon="2.8318">
        <ele>1268.4</ele>
        <time>2021-07-23T14:54:19Z</time>
      </trkpt>
      <trkpt lat="45.06573" lon="2.83191">
        <ele>1268.1</ele>
        <time>2021-07-23T14:54:21Z</time>
      </trkpt>
      <trkpt lat="45.06575" lon="2.83202">
        <ele>1268.1</ele>
        <time>2021-07-23T14:54:23Z</time>
      </trkpt>
      <trkpt lat="45.06578" lon="2.83212">
        <ele>1267.9</ele>
        <time>2021-07-23T14:54:25Z</time>
      </trkpt>
      <trkpt lat="45.0658" lon="2.83221">
        <ele>1267.9</ele>
        <time>2021-07-23T14:54:27Z</time>
      </trkpt>
      <trkpt lat="45.06583" lon="2.8323">
        <ele>1267.8</ele>
        <time>2021-07-23T14:54:29Z</time>
      </trkpt>
      <trkpt lat="45.06586" lon="2.83238">
        <ele>1267.4</ele>
        <time>2021-07-23T14:54:31Z</time>
      </trkpt>
      <trkpt lat="45.06591" lon="2.83247">
        <ele>1266.8</ele>
        <time>2021-07-23T14:54:33Z</time>
      </trkpt>
      <trkpt lat="45.066" lon="2.83255">
        <ele>1265.7</ele>
        <time>2021-07-23T14:54:35Z</time>
      </trkpt>
      <trkpt lat="45.06608" lon="2.83264">
        <ele>1264.5</ele>
        <time>2021-07-23T14:54:37Z</time>
      </trkpt>
      <trkpt lat="45.06617" lon="2.83276">
        <ele>1263.4</ele>
        <time>2021-07-23T14:54:39Z</time>
      </trkpt>
      <trkpt lat="45.06628" lon="2.8329">
        <ele>1262.4</ele>
        <time>2021-07-23T14:54:41Z</time>
      </trkpt>
      <trkpt lat="45.06636" lon="2.83303">
        <ele>1261.8</ele>
        <time>2021-07-23T14:54:43Z</time>
      </trkpt>
      <trkpt lat="45.06643" lon="2.83316">
        <ele>1261.4</ele>
        <time>2021-07-23T14:54:45Z</time>
      </trkpt>
      <trkpt lat="45.06653" lon="2.83332">
        <ele>1261.1</ele>
        <time>2021-07-23T14:54:47Z</time>
      </trkpt>
      <trkpt lat="45.06664" lon="2.83348">
        <ele>1260</ele>
        <time>2021-07-23T14:54:49Z</time>
      </trkpt>
      <trkpt lat="45.06672" lon="2.83362">
        <ele>1258.9</ele>
        <time>2021-07-23T14:54:51Z</time>
      </trkpt>
      <trkpt lat="45.06681" lon="2.83374">
        <ele>1257.7</ele>
        <time>2021-07-23T14:54:53Z</time>
      </trkpt>
      <trkpt lat="45.06685" lon="2.83382">
        <ele>1257</ele>
        <time>2021-07-23T14:54:55Z</time>
      </trkpt>
      <trkpt lat="45.06688" lon="2.83387">
        <ele>1256.6</ele>
        <time>2021-07-23T14:54:57Z</time>
      </trkpt>
      <trkpt lat="45.06693" lon="2.83392">
        <ele>1256</ele>
        <time>2021-07-23T14:55:01Z</time>
      </trkpt>
      <trkpt lat="45.06697" lon="2.83399">
        <ele>1255.4</ele>
        <time>2021-07-23T14:55:05Z</time>
      </trkpt>
      <trkpt lat="45.06699" lon="2.83405">
        <ele>1255.1</ele>
        <time>2021-07-23T14:55:07Z</time>
      </trkpt>
      <trkpt lat="45.06703" lon="2.8341">
        <ele>1254.7</ele>
        <time>2021-07-23T14:55:09Z</time>
      </trkpt>
      <trkpt lat="45.06706" lon="2.83418">
        <ele>1254.3</ele>
        <time>2021-07-23T14:55:11Z</time>
      </trkpt>
      <trkpt lat="45.06709" lon="2.83424">
        <ele>1253.8</ele>
        <time>2021-07-23T14:55:13Z</time>
      </trkpt>
      <trkpt lat="45.06711" lon="2.83431">
        <ele>1253.5</ele>
        <time>2021-07-23T14:55:15Z</time>
      </trkpt>
      <trkpt lat="45.06712" lon="2.83438">
        <ele>1253.2</ele>
        <time>2021-07-23T14:55:17Z</time>
      </trkpt>
      <trkpt lat="45.06713" lon="2.83447">
        <ele>1253</ele>
        <time>2021-07-23T14:55:19Z</time>
      </trkpt>
      <trkpt lat="45.06712" lon="2.83455">
        <ele>1252.9</ele>
        <time>2021-07-23T14:55:21Z</time>
      </trkpt>
      <trkpt lat="45.06711" lon="2.83468">
        <ele>1252.8</ele>
        <time>2021-07-23T14:55:25Z</time>
      </trkpt>
      <trkpt lat="45.0671" lon="2.83475">
        <ele>1252.8</ele>
        <time>2021-07-23T14:55:27Z</time>
      </trkpt>
      <trkpt lat="45.06708" lon="2.83483">
        <ele>1252.9</ele>
        <time>2021-07-23T14:55:29Z</time>
      </trkpt>
      <trkpt lat="45.06706" lon="2.83491">
        <ele>1252.8</ele>
        <time>2021-07-23T14:55:31Z</time>
      </trkpt>
      <trkpt lat="45.06704" lon="2.83502">
        <ele>1252.8</ele>
        <time>2021-07-23T14:55:33Z</time>
      </trkpt>
      <trkpt lat="45.06701" lon="2.83512">
        <ele>1253.1</ele>
        <time>2021-07-23T14:55:35Z</time>
      </trkpt>
      <trkpt lat="45.06698" lon="2.83523">
        <ele>1253.3</ele>
        <time>2021-07-23T14:55:37Z</time>
      </trkpt>
      <trkpt lat="45.06695" lon="2.83534">
        <ele>1253.5</ele>
        <time>2021-07-23T14:55:39Z</time>
      </trkpt>
      <trkpt lat="45.06692" lon="2.83544">
        <ele>1253.7</ele>
        <time>2021-07-23T14:55:41Z</time>
      </trkpt>
      <trkpt lat="45.0669" lon="2.83553">
        <ele>1253.8</ele>
        <time>2021-07-23T14:55:43Z</time>
      </trkpt>
      <trkpt lat="45.06687" lon="2.83561">
        <ele>1253.9</ele>
        <time>2021-07-23T14:55:45Z</time>
      </trkpt>
      <trkpt lat="45.06685" lon="2.83569">
        <ele>1254</ele>
        <time>2021-07-23T14:55:47Z</time>
      </trkpt>
      <trkpt lat="45.06684" lon="2.83577">
        <ele>1254</ele>
        <time>2021-07-23T14:55:49Z</time>
      </trkpt>
      <trkpt lat="45.06684" lon="2.83588">
        <ele>1253.9</ele>
        <time>2021-07-23T14:55:53Z</time>
      </trkpt>
      <trkpt lat="45.06685" lon="2.83596">
        <ele>1253.5</ele>
        <time>2021-07-23T14:55:57Z</time>
      </trkpt>
      <trkpt lat="45.06688" lon="2.83604">
        <ele>1253.2</ele>
        <time>2021-07-23T14:56:01Z</time>
      </trkpt>
      <trkpt lat="45.06695" lon="2.8361">
        <ele>1252.7</ele>
        <time>2021-07-23T14:58:21Z</time>
      </trkpt>
      <trkpt lat="45.06699" lon="2.83616">
        <ele>1252.4</ele>
        <time>2021-07-23T14:58:23Z</time>
      </trkpt>
      <trkpt lat="45.06703" lon="2.83622">
        <ele>1252</ele>
        <time>2021-07-23T14:58:25Z</time>
      </trkpt>
      <trkpt lat="45.06707" lon="2.83627">
        <ele>1251.8</ele>
        <time>2021-07-23T14:58:27Z</time>
      </trkpt>
      <trkpt lat="45.0671" lon="2.83633">
        <ele>1251.5</ele>
        <time>2021-07-23T14:58:29Z</time>
      </trkpt>
      <trkpt lat="45.06715" lon="2.83639">
        <ele>1251.3</ele>
        <time>2021-07-23T14:58:31Z</time>
      </trkpt>
      <trkpt lat="45.0672" lon="2.83646">
        <ele>1251</ele>
        <time>2021-07-23T14:58:33Z</time>
      </trkpt>
      <trkpt lat="45.06726" lon="2.83653">
        <ele>1250.7</ele>
        <time>2021-07-23T14:58:35Z</time>
      </trkpt>
      <trkpt lat="45.06732" lon="2.83659">
        <ele>1250.5</ele>
        <time>2021-07-23T14:58:37Z</time>
      </trkpt>
      <trkpt lat="45.06736" lon="2.83664">
        <ele>1250.4</ele>
        <time>2021-07-23T14:58:39Z</time>
      </trkpt>
      <trkpt lat="45.0674" lon="2.83669">
        <ele>1250.2</ele>
        <time>2021-07-23T14:58:41Z</time>
      </trkpt>
      <trkpt lat="45.06745" lon="2.83673">
        <ele>1250</ele>
        <time>2021-07-23T14:58:43Z</time>
      </trkpt>
      <trkpt lat="45.06749" lon="2.83678">
        <ele>1249.8</ele>
        <time>2021-07-23T14:58:45Z</time>
      </trkpt>
      <trkpt lat="45.06754" lon="2.83682">
        <ele>1249.4</ele>
        <time>2021-07-23T14:58:47Z</time>
      </trkpt>
      <trkpt lat="45.06759" lon="2.83686">
        <ele>1248.9</ele>
        <time>2021-07-23T14:58:49Z</time>
      </trkpt>
      <trkpt lat="45.06765" lon="2.83691">
        <ele>1248.4</ele>
        <time>2021-07-23T14:58:51Z</time>
      </trkpt>
      <trkpt lat="45.06772" lon="2.83695">
        <ele>1248</ele>
        <time>2021-07-23T14:58:53Z</time>
      </trkpt>
      <trkpt lat="45.06778" lon="2.837">
        <ele>1247.5</ele>
        <time>2021-07-23T14:58:55Z</time>
      </trkpt>
      <trkpt lat="45.06784" lon="2.83705">
        <ele>1247.2</ele>
        <time>2021-07-23T14:58:57Z</time>
      </trkpt>
      <trkpt lat="45.0679" lon="2.83709">
        <ele>1246.8</ele>
        <time>2021-07-23T14:58:59Z</time>
      </trkpt>
      <trkpt lat="45.06797" lon="2.8371">
        <ele>1246.5</ele>
        <time>2021-07-23T14:59:01Z</time>
      </trkpt>
      <trkpt lat="45.06803" lon="2.83712">
        <ele>1246.2</ele>
        <time>2021-07-23T14:59:03Z</time>
      </trkpt>
      <trkpt lat="45.0681" lon="2.83715">
        <ele>1245.9</ele>
        <time>2021-07-23T14:59:05Z</time>
      </trkpt>
      <trkpt lat="45.06818" lon="2.83717">
        <ele>1245.5</ele>
        <time>2021-07-23T14:59:07Z</time>
      </trkpt>
      <trkpt lat="45.06826" lon="2.8372">
        <ele>1245.3</ele>
        <time>2021-07-23T14:59:09Z</time>
      </trkpt>
      <trkpt lat="45.06834" lon="2.83725">
        <ele>1245.1</ele>
        <time>2021-07-23T14:59:11Z</time>
      </trkpt>
      <trkpt lat="45.06842" lon="2.83733">
        <ele>1244.3</ele>
        <time>2021-07-23T14:59:13Z</time>
      </trkpt>
      <trkpt lat="45.0685" lon="2.83745">
        <ele>1243.8</ele>
        <time>2021-07-23T14:59:15Z</time>
      </trkpt>
      <trkpt lat="45.06858" lon="2.83756">
        <ele>1243.1</ele>
        <time>2021-07-23T14:59:17Z</time>
      </trkpt>
      <trkpt lat="45.06867" lon="2.83768">
        <ele>1242.3</ele>
        <time>2021-07-23T14:59:19Z</time>
      </trkpt>
      <trkpt lat="45.06875" lon="2.83781">
        <ele>1241.6</ele>
        <time>2021-07-23T14:59:21Z</time>
      </trkpt>
      <trkpt lat="45.06881" lon="2.83794">
        <ele>1241.1</ele>
        <time>2021-07-23T14:59:23Z</time>
      </trkpt>
      <trkpt lat="45.06887" lon="2.83808">
        <ele>1240.7</ele>
        <time>2021-07-23T14:59:25Z</time>
      </trkpt>
      <trkpt lat="45.06895" lon="2.83822">
        <ele>1240.1</ele>
        <time>2021-07-23T14:59:27Z</time>
      </trkpt>
      <trkpt lat="45.06903" lon="2.83834">
        <ele>1239.5</ele>
        <time>2021-07-23T14:59:29Z</time>
      </trkpt>
      <trkpt lat="45.06911" lon="2.83844">
        <ele>1238.9</ele>
        <time>2021-07-23T14:59:31Z</time>
      </trkpt>
      <trkpt lat="45.06919" lon="2.83852">
        <ele>1238.4</ele>
        <time>2021-07-23T14:59:33Z</time>
      </trkpt>
      <trkpt lat="45.06926" lon="2.8386">
        <ele>1237.6</ele>
        <time>2021-07-23T14:59:35Z</time>
      </trkpt>
      <trkpt lat="45.06934" lon="2.83866">
        <ele>1236.8</ele>
        <time>2021-07-23T14:59:37Z</time>
      </trkpt>
      <trkpt lat="45.06943" lon="2.83871">
        <ele>1235.9</ele>
        <time>2021-07-23T14:59:39Z</time>
      </trkpt>
      <trkpt lat="45.06956" lon="2.8388">
        <ele>1234.6</ele>
        <time>2021-07-23T14:59:41Z</time>
      </trkpt>
      <trkpt lat="45.06967" lon="2.83892">
        <ele>1233.7</ele>
        <time>2021-07-23T14:59:43Z</time>
      </trkpt>
      <trkpt lat="45.06974" lon="2.83904">
        <ele>1233.4</ele>
        <time>2021-07-23T14:59:45Z</time>
      </trkpt>
      <trkpt lat="45.06979" lon="2.83913">
        <ele>1233.3</ele>
        <time>2021-07-23T14:59:47Z</time>
      </trkpt>
      <trkpt lat="45.06983" lon="2.83921">
        <ele>1233.3</ele>
        <time>2021-07-23T14:59:49Z</time>
      </trkpt>
      <trkpt lat="45.06987" lon="2.8393">
        <ele>1233.4</ele>
        <time>2021-07-23T14:59:51Z</time>
      </trkpt>
      <trkpt lat="45.06991" lon="2.83937">
        <ele>1233.4</ele>
        <time>2021-07-23T14:59:53Z</time>
      </trkpt>
      <trkpt lat="45.06994" lon="2.83944">
        <ele>1233.4</ele>
        <time>2021-07-23T14:59:55Z</time>
      </trkpt>
      <trkpt lat="45.06998" lon="2.83951">
        <ele>1233.4</ele>
        <time>2021-07-23T14:59:57Z</time>
      </trkpt>
      <trkpt lat="45.07" lon="2.83958">
        <ele>1233.4</ele>
        <time>2021-07-23T14:59:59Z</time>
      </trkpt>
      <trkpt lat="45.07004" lon="2.83963">
        <ele>1233.3</ele>
        <time>2021-07-23T15:00:01Z</time>
      </trkpt>
      <trkpt lat="45.07007" lon="2.83969">
        <ele>1233.3</ele>
        <time>2021-07-23T15:00:03Z</time>
      </trkpt>
      <trkpt lat="45.07011" lon="2.83975">
        <ele>1233.2</ele>
        <time>2021-07-23T15:00:05Z</time>
      </trkpt>
      <trkpt lat="45.07015" lon="2.8398">
        <ele>1233.1</ele>
        <time>2021-07-23T15:00:07Z</time>
      </trkpt>
      <trkpt lat="45.07021" lon="2.8399">
        <ele>1233.2</ele>
        <time>2021-07-23T15:00:11Z</time>
      </trkpt>
      <trkpt lat="45.07024" lon="2.83994">
        <ele>1233.3</ele>
        <time>2021-07-23T15:00:13Z</time>
      </trkpt>
      <trkpt lat="45.07026" lon="2.84">
        <ele>1233.5</ele>
        <time>2021-07-23T15:00:15Z</time>
      </trkpt>
      <trkpt lat="45.0703" lon="2.84007">
        <ele>1233.8</ele>
        <time>2021-07-23T15:00:17Z</time>
      </trkpt>
      <trkpt lat="45.07033" lon="2.84013">
        <ele>1234.1</ele>
        <time>2021-07-23T15:00:19Z</time>
      </trkpt>
      <trkpt lat="45.07036" lon="2.84019">
        <ele>1234.4</ele>
        <time>2021-07-23T15:00:21Z</time>
      </trkpt>
      <trkpt lat="45.07039" lon="2.84025">
        <ele>1234.7</ele>
        <time>2021-07-23T15:00:23Z</time>
      </trkpt>
      <trkpt lat="45.0704" lon="2.84031">
        <ele>1235.1</ele>
        <time>2021-07-23T15:00:25Z</time>
      </trkpt>
      <trkpt lat="45.07043" lon="2.84043">
        <ele>1236</ele>
        <time>2021-07-23T15:00:29Z</time>
      </trkpt>
      <trkpt lat="45.07044" lon="2.84054">
        <ele>1236.9</ele>
        <time>2021-07-23T15:00:33Z</time>
      </trkpt>
      <trkpt lat="45.07045" lon="2.84064">
        <ele>1237.7</ele>
        <time>2021-07-23T15:00:37Z</time>
      </trkpt>
      <trkpt lat="45.07046" lon="2.84072">
        <ele>1238.4</ele>
        <time>2021-07-23T15:00:41Z</time>
      </trkpt>
      <trkpt lat="45.07046" lon="2.84083">
        <ele>1239.4</ele>
        <time>2021-07-23T15:00:45Z</time>
      </trkpt>
      <trkpt lat="45.07048" lon="2.84094">
        <ele>1240.1</ele>
        <time>2021-07-23T15:00:49Z</time>
      </trkpt>
      <trkpt lat="45.07049" lon="2.84106">
        <ele>1241.1</ele>
        <time>2021-07-23T15:00:53Z</time>
      </trkpt>
      <trkpt lat="45.07049" lon="2.84116">
        <ele>1242</ele>
        <time>2021-07-23T15:00:57Z</time>
      </trkpt>
      <trkpt lat="45.07049" lon="2.84126">
        <ele>1242.8</ele>
        <time>2021-07-23T15:01:01Z</time>
      </trkpt>
      <trkpt lat="45.0705" lon="2.84134">
        <ele>1243.6</ele>
        <time>2021-07-23T15:01:05Z</time>
      </trkpt>
      <trkpt lat="45.0705" lon="2.84143">
        <ele>1244.3</ele>
        <time>2021-07-23T15:01:09Z</time>
      </trkpt>
      <trkpt lat="45.07051" lon="2.84152">
        <ele>1245</ele>
        <time>2021-07-23T15:01:13Z</time>
      </trkpt>
      <trkpt lat="45.07052" lon="2.84162">
        <ele>1245.7</ele>
        <time>2021-07-23T15:01:17Z</time>
      </trkpt>
      <trkpt lat="45.07052" lon="2.84172">
        <ele>1246.4</ele>
        <time>2021-07-23T15:01:21Z</time>
      </trkpt>
      <trkpt lat="45.07053" lon="2.84184">
        <ele>1246.9</ele>
        <time>2021-07-23T15:01:25Z</time>
      </trkpt>
      <trkpt lat="45.07054" lon="2.8419">
        <ele>1247.2</ele>
        <time>2021-07-23T15:01:27Z</time>
      </trkpt>
      <trkpt lat="45.07056" lon="2.84204">
        <ele>1247.7</ele>
        <time>2021-07-23T15:01:31Z</time>
      </trkpt>
      <trkpt lat="45.07057" lon="2.84213">
        <ele>1248.1</ele>
        <time>2021-07-23T15:01:33Z</time>
      </trkpt>
      <trkpt lat="45.07058" lon="2.84223">
        <ele>1248.4</ele>
        <time>2021-07-23T15:01:35Z</time>
      </trkpt>
      <trkpt lat="45.0706" lon="2.84237">
        <ele>1248.9</ele>
        <time>2021-07-23T15:01:37Z</time>
      </trkpt>
      <trkpt lat="45.07063" lon="2.84254">
        <ele>1249.4</ele>
        <time>2021-07-23T15:01:39Z</time>
      </trkpt>
      <trkpt lat="45.07068" lon="2.84272">
        <ele>1249.6</ele>
        <time>2021-07-23T15:01:41Z</time>
      </trkpt>
      <trkpt lat="45.07073" lon="2.84289">
        <ele>1249.6</ele>
        <time>2021-07-23T15:01:43Z</time>
      </trkpt>
      <trkpt lat="45.07077" lon="2.84303">
        <ele>1249.3</ele>
        <time>2021-07-23T15:01:45Z</time>
      </trkpt>
      <trkpt lat="45.07082" lon="2.84317">
        <ele>1248.9</ele>
        <time>2021-07-23T15:01:47Z</time>
      </trkpt>
      <trkpt lat="45.07086" lon="2.8433">
        <ele>1248.4</ele>
        <time>2021-07-23T15:01:49Z</time>
      </trkpt>
      <trkpt lat="45.0709" lon="2.8434">
        <ele>1249</ele>
        <time>2021-07-23T15:01:51Z</time>
      </trkpt>
      <trkpt lat="45.07093" lon="2.84347">
        <ele>1249.7</ele>
        <time>2021-07-23T15:01:53Z</time>
      </trkpt>
      <trkpt lat="45.07097" lon="2.84354">
        <ele>1249.9</ele>
        <time>2021-07-23T15:01:55Z</time>
      </trkpt>
      <trkpt lat="45.07103" lon="2.8436">
        <ele>1249.9</ele>
        <time>2021-07-23T15:01:57Z</time>
      </trkpt>
      <trkpt lat="45.07108" lon="2.84367">
        <ele>1249.9</ele>
        <time>2021-07-23T15:01:59Z</time>
      </trkpt>
      <trkpt lat="45.07114" lon="2.84374">
        <ele>1249.8</ele>
        <time>2021-07-23T15:02:01Z</time>
      </trkpt>
      <trkpt lat="45.07121" lon="2.84381">
        <ele>1249.3</ele>
        <time>2021-07-23T15:02:03Z</time>
      </trkpt>
      <trkpt lat="45.07128" lon="2.84388">
        <ele>1248.9</ele>
        <time>2021-07-23T15:02:05Z</time>
      </trkpt>
      <trkpt lat="45.07137" lon="2.84396">
        <ele>1248.2</ele>
        <time>2021-07-23T15:02:07Z</time>
      </trkpt>
      <trkpt lat="45.07146" lon="2.84406">
        <ele>1247.3</ele>
        <time>2021-07-23T15:02:09Z</time>
      </trkpt>
      <trkpt lat="45.07156" lon="2.84417">
        <ele>1246.4</ele>
        <time>2021-07-23T15:02:11Z</time>
      </trkpt>
      <trkpt lat="45.07166" lon="2.8443">
        <ele>1246.1</ele>
        <time>2021-07-23T15:02:13Z</time>
      </trkpt>
      <trkpt lat="45.07177" lon="2.84442">
        <ele>1246.5</ele>
        <time>2021-07-23T15:02:15Z</time>
      </trkpt>
      <trkpt lat="45.07189" lon="2.84457">
        <ele>1246.8</ele>
        <time>2021-07-23T15:02:17Z</time>
      </trkpt>
      <trkpt lat="45.07201" lon="2.84471">
        <ele>1246.9</ele>
        <time>2021-07-23T15:02:19Z</time>
      </trkpt>
      <trkpt lat="45.07211" lon="2.84483">
        <ele>1246.8</ele>
        <time>2021-07-23T15:02:21Z</time>
      </trkpt>
      <trkpt lat="45.07221" lon="2.84495">
        <ele>1246.6</ele>
        <time>2021-07-23T15:02:23Z</time>
      </trkpt>
      <trkpt lat="45.07232" lon="2.84505">
        <ele>1246</ele>
        <time>2021-07-23T15:02:25Z</time>
      </trkpt>
      <trkpt lat="45.07243" lon="2.84517">
        <ele>1245.6</ele>
        <time>2021-07-23T15:02:27Z</time>
      </trkpt>
      <trkpt lat="45.07252" lon="2.8453">
        <ele>1245.2</ele>
        <time>2021-07-23T15:02:29Z</time>
      </trkpt>
      <trkpt lat="45.07262" lon="2.84546">
        <ele>1245.3</ele>
        <time>2021-07-23T15:02:31Z</time>
      </trkpt>
      <trkpt lat="45.07271" lon="2.84563">
        <ele>1245.9</ele>
        <time>2021-07-23T15:02:33Z</time>
      </trkpt>
      <trkpt lat="45.07281" lon="2.84578">
        <ele>1246.4</ele>
        <time>2021-07-23T15:02:35Z</time>
      </trkpt>
      <trkpt lat="45.07292" lon="2.84593">
        <ele>1247</ele>
        <time>2021-07-23T15:02:37Z</time>
      </trkpt>
      <trkpt lat="45.07302" lon="2.84608">
        <ele>1247.5</ele>
        <time>2021-07-23T15:02:39Z</time>
      </trkpt>
      <trkpt lat="45.0731" lon="2.84624">
        <ele>1248.3</ele>
        <time>2021-07-23T15:02:41Z</time>
      </trkpt>
      <trkpt lat="45.07318" lon="2.84638">
        <ele>1248.8</ele>
        <time>2021-07-23T15:02:43Z</time>
      </trkpt>
      <trkpt lat="45.07327" lon="2.8465">
        <ele>1248.3</ele>
        <time>2021-07-23T15:02:45Z</time>
      </trkpt>
      <trkpt lat="45.07338" lon="2.84662">
        <ele>1247</ele>
        <time>2021-07-23T15:02:47Z</time>
      </trkpt>
      <trkpt lat="45.0735" lon="2.84674">
        <ele>1245.6</ele>
        <time>2021-07-23T15:02:49Z</time>
      </trkpt>
      <trkpt lat="45.07364" lon="2.84686">
        <ele>1243.8</ele>
        <time>2021-07-23T15:02:51Z</time>
      </trkpt>
      <trkpt lat="45.07375" lon="2.84699">
        <ele>1243</ele>
        <time>2021-07-23T15:02:53Z</time>
      </trkpt>
      <trkpt lat="45.07385" lon="2.84712">
        <ele>1242.7</ele>
        <time>2021-07-23T15:02:55Z</time>
      </trkpt>
      <trkpt lat="45.07396" lon="2.84726">
        <ele>1242.6</ele>
        <time>2021-07-23T15:02:57Z</time>
      </trkpt>
      <trkpt lat="45.07405" lon="2.84736">
        <ele>1242.1</ele>
        <time>2021-07-23T15:02:59Z</time>
      </trkpt>
      <trkpt lat="45.07413" lon="2.84743">
        <ele>1241.4</ele>
        <time>2021-07-23T15:03:01Z</time>
      </trkpt>
      <trkpt lat="45.07424" lon="2.84748">
        <ele>1239.7</ele>
        <time>2021-07-23T15:03:03Z</time>
      </trkpt>
      <trkpt lat="45.07433" lon="2.84755">
        <ele>1238.6</ele>
        <time>2021-07-23T15:03:05Z</time>
      </trkpt>
      <trkpt lat="45.07442" lon="2.84761">
        <ele>1237.8</ele>
        <time>2021-07-23T15:03:07Z</time>
      </trkpt>
      <trkpt lat="45.0745" lon="2.84767">
        <ele>1237.1</ele>
        <time>2021-07-23T15:03:09Z</time>
      </trkpt>
      <trkpt lat="45.07457" lon="2.84773">
        <ele>1236.7</ele>
        <time>2021-07-23T15:03:11Z</time>
      </trkpt>
      <trkpt lat="45.07462" lon="2.84779">
        <ele>1236.5</ele>
        <time>2021-07-23T15:03:13Z</time>
      </trkpt>
      <trkpt lat="45.07467" lon="2.84782">
        <ele>1236.2</ele>
        <time>2021-07-23T15:03:15Z</time>
      </trkpt>
      <trkpt lat="45.0747" lon="2.84787">
        <ele>1236.3</ele>
        <time>2021-07-23T15:03:19Z</time>
      </trkpt>
      <trkpt lat="45.07474" lon="2.84791">
        <ele>1236.2</ele>
        <time>2021-07-23T15:04:29Z</time>
      </trkpt>
      <trkpt lat="45.07476" lon="2.84798">
        <ele>1237.2</ele>
        <time>2021-07-23T15:04:33Z</time>
      </trkpt>
      <trkpt lat="45.0748" lon="2.84807">
        <ele>1238.1</ele>
        <time>2021-07-23T15:04:37Z</time>
      </trkpt>
      <trkpt lat="45.07484" lon="2.84817">
        <ele>1239.5</ele>
        <time>2021-07-23T15:04:41Z</time>
      </trkpt>
      <trkpt lat="45.07487" lon="2.84828">
        <ele>1240.9</ele>
        <time>2021-07-23T15:04:45Z</time>
      </trkpt>
      <trkpt lat="45.07491" lon="2.84836">
        <ele>1241.4</ele>
        <time>2021-07-23T15:04:49Z</time>
      </trkpt>
      <trkpt lat="45.07494" lon="2.84843">
        <ele>1241.7</ele>
        <time>2021-07-23T15:04:53Z</time>
      </trkpt>
      <trkpt lat="45.07499" lon="2.84851">
        <ele>1241.2</ele>
        <time>2021-07-23T15:04:57Z</time>
      </trkpt>
      <trkpt lat="45.07503" lon="2.8486">
        <ele>1241.5</ele>
        <time>2021-07-23T15:05:01Z</time>
      </trkpt>
      <trkpt lat="45.07507" lon="2.8487">
        <ele>1241.6</ele>
        <time>2021-07-23T15:05:05Z</time>
      </trkpt>
      <trkpt lat="45.0751" lon="2.8488">
        <ele>1241.9</ele>
        <time>2021-07-23T15:05:09Z</time>
      </trkpt>
      <trkpt lat="45.07513" lon="2.84889">
        <ele>1242.4</ele>
        <time>2021-07-23T15:05:13Z</time>
      </trkpt>
      <trkpt lat="45.07515" lon="2.84899">
        <ele>1243</ele>
        <time>2021-07-23T15:05:17Z</time>
      </trkpt>
      <trkpt lat="45.07518" lon="2.84908">
        <ele>1243.7</ele>
        <time>2021-07-23T15:05:21Z</time>
      </trkpt>
      <trkpt lat="45.07519" lon="2.84918">
        <ele>1244.6</ele>
        <time>2021-07-23T15:05:25Z</time>
      </trkpt>
      <trkpt lat="45.07521" lon="2.84927">
        <ele>1244.8</ele>
        <time>2021-07-23T15:05:29Z</time>
      </trkpt>
      <trkpt lat="45.07522" lon="2.84936">
        <ele>1245.5</ele>
        <time>2021-07-23T15:05:33Z</time>
      </trkpt>
      <trkpt lat="45.07523" lon="2.84946">
        <ele>1246.2</ele>
        <time>2021-07-23T15:05:37Z</time>
      </trkpt>
      <trkpt lat="45.07523" lon="2.84957">
        <ele>1247.3</ele>
        <time>2021-07-23T15:05:41Z</time>
      </trkpt>
      <trkpt lat="45.07523" lon="2.84967">
        <ele>1248.4</ele>
        <time>2021-07-23T15:05:45Z</time>
      </trkpt>
      <trkpt lat="45.07523" lon="2.84978">
        <ele>1249.6</ele>
        <time>2021-07-23T15:05:49Z</time>
      </trkpt>
      <trkpt lat="45.07525" lon="2.84989">
        <ele>1250.3</ele>
        <time>2021-07-23T15:05:53Z</time>
      </trkpt>
      <trkpt lat="45.07527" lon="2.85">
        <ele>1250.9</ele>
        <time>2021-07-23T15:05:57Z</time>
      </trkpt>
      <trkpt lat="45.07529" lon="2.85011">
        <ele>1251.3</ele>
        <time>2021-07-23T15:06:01Z</time>
      </trkpt>
      <trkpt lat="45.07531" lon="2.85018">
        <ele>1251.3</ele>
        <time>2021-07-23T15:06:03Z</time>
      </trkpt>
      <trkpt lat="45.07534" lon="2.85025">
        <ele>1251.2</ele>
        <time>2021-07-23T15:06:05Z</time>
      </trkpt>
      <trkpt lat="45.07536" lon="2.85032">
        <ele>1251.2</ele>
        <time>2021-07-23T15:06:07Z</time>
      </trkpt>
      <trkpt lat="45.07539" lon="2.85039">
        <ele>1251.2</ele>
        <time>2021-07-23T15:06:09Z</time>
      </trkpt>
      <trkpt lat="45.07542" lon="2.85047">
        <ele>1251.2</ele>
        <time>2021-07-23T15:06:11Z</time>
      </trkpt>
      <trkpt lat="45.07544" lon="2.85055">
        <ele>1251.5</ele>
        <time>2021-07-23T15:06:13Z</time>
      </trkpt>
      <trkpt lat="45.07547" lon="2.85064">
        <ele>1251.8</ele>
        <time>2021-07-23T15:06:15Z</time>
      </trkpt>
      <trkpt lat="45.07549" lon="2.85071">
        <ele>1252.2</ele>
        <time>2021-07-23T15:06:17Z</time>
      </trkpt>
      <trkpt lat="45.07551" lon="2.8508">
        <ele>1252.7</ele>
        <time>2021-07-23T15:06:19Z</time>
      </trkpt>
      <trkpt lat="45.07552" lon="2.85087">
        <ele>1253.2</ele>
        <time>2021-07-23T15:06:21Z</time>
      </trkpt>
      <trkpt lat="45.07554" lon="2.85095">
        <ele>1253.4</ele>
        <time>2021-07-23T15:06:23Z</time>
      </trkpt>
      <trkpt lat="45.07555" lon="2.85103">
        <ele>1253.8</ele>
        <time>2021-07-23T15:06:25Z</time>
      </trkpt>
      <trkpt lat="45.07555" lon="2.8511">
        <ele>1254.3</ele>
        <time>2021-07-23T15:06:27Z</time>
      </trkpt>
      <trkpt lat="45.07556" lon="2.85118">
        <ele>1254.7</ele>
        <time>2021-07-23T15:06:29Z</time>
      </trkpt>
      <trkpt lat="45.07557" lon="2.85126">
        <ele>1255.2</ele>
        <time>2021-07-23T15:06:31Z</time>
      </trkpt>
      <trkpt lat="45.07558" lon="2.85133">
        <ele>1255.6</ele>
        <time>2021-07-23T15:06:33Z</time>
      </trkpt>
      <trkpt lat="45.07561" lon="2.85142">
        <ele>1255.8</ele>
        <time>2021-07-23T15:06:35Z</time>
      </trkpt>
      <trkpt lat="45.07562" lon="2.85151">
        <ele>1256.2</ele>
        <time>2021-07-23T15:06:37Z</time>
      </trkpt>
      <trkpt lat="45.07565" lon="2.8516">
        <ele>1256.4</ele>
        <time>2021-07-23T15:06:39Z</time>
      </trkpt>
      <trkpt lat="45.07566" lon="2.85168">
        <ele>1256.8</ele>
        <time>2021-07-23T15:06:41Z</time>
      </trkpt>
      <trkpt lat="45.07569" lon="2.85177">
        <ele>1257</ele>
        <time>2021-07-23T15:06:43Z</time>
      </trkpt>
      <trkpt lat="45.07571" lon="2.85186">
        <ele>1257.5</ele>
        <time>2021-07-23T15:06:45Z</time>
      </trkpt>
      <trkpt lat="45.07573" lon="2.85195">
        <ele>1257.9</ele>
        <time>2021-07-23T15:06:47Z</time>
      </trkpt>
      <trkpt lat="45.07575" lon="2.85205">
        <ele>1258.3</ele>
        <time>2021-07-23T15:06:49Z</time>
      </trkpt>
      <trkpt lat="45.07577" lon="2.85214">
        <ele>1258.8</ele>
        <time>2021-07-23T15:06:51Z</time>
      </trkpt>
      <trkpt lat="45.07578" lon="2.85223">
        <ele>1259.5</ele>
        <time>2021-07-23T15:06:53Z</time>
      </trkpt>
      <trkpt lat="45.07578" lon="2.85231">
        <ele>1260.3</ele>
        <time>2021-07-23T15:06:55Z</time>
      </trkpt>
      <trkpt lat="45.07578" lon="2.85239">
        <ele>1261</ele>
        <time>2021-07-23T15:06:57Z</time>
      </trkpt>
      <trkpt lat="45.07577" lon="2.85248">
        <ele>1262</ele>
        <time>2021-07-23T15:06:59Z</time>
      </trkpt>
      <trkpt lat="45.07576" lon="2.85257">
        <ele>1262.6</ele>
        <time>2021-07-23T15:07:01Z</time>
      </trkpt>
      <trkpt lat="45.07575" lon="2.85266">
        <ele>1263.1</ele>
        <time>2021-07-23T15:07:03Z</time>
      </trkpt>
      <trkpt lat="45.07574" lon="2.85275">
        <ele>1263.6</ele>
        <time>2021-07-23T15:07:05Z</time>
      </trkpt>
      <trkpt lat="45.07573" lon="2.85284">
        <ele>1264.1</ele>
        <time>2021-07-23T15:07:07Z</time>
      </trkpt>
      <trkpt lat="45.07572" lon="2.85292">
        <ele>1264.3</ele>
        <time>2021-07-23T15:07:09Z</time>
      </trkpt>
      <trkpt lat="45.07571" lon="2.85299">
        <ele>1264.8</ele>
        <time>2021-07-23T15:07:11Z</time>
      </trkpt>
      <trkpt lat="45.0757" lon="2.85307">
        <ele>1265.2</ele>
        <time>2021-07-23T15:07:13Z</time>
      </trkpt>
      <trkpt lat="45.07569" lon="2.85316">
        <ele>1265.5</ele>
        <time>2021-07-23T15:07:15Z</time>
      </trkpt>
      <trkpt lat="45.07569" lon="2.85324">
        <ele>1265.8</ele>
        <time>2021-07-23T15:07:17Z</time>
      </trkpt>
      <trkpt lat="45.07569" lon="2.85332">
        <ele>1266.1</ele>
        <time>2021-07-23T15:07:19Z</time>
      </trkpt>
      <trkpt lat="45.07568" lon="2.85338">
        <ele>1266.1</ele>
        <time>2021-07-23T15:07:21Z</time>
      </trkpt>
      <trkpt lat="45.07566" lon="2.85348">
        <ele>1265.9</ele>
        <time>2021-07-23T15:07:23Z</time>
      </trkpt>
      <trkpt lat="45.07564" lon="2.85358">
        <ele>1265.9</ele>
        <time>2021-07-23T15:07:25Z</time>
      </trkpt>
      <trkpt lat="45.07563" lon="2.85368">
        <ele>1265.7</ele>
        <time>2021-07-23T15:07:27Z</time>
      </trkpt>
      <trkpt lat="45.07562" lon="2.8538">
        <ele>1265.3</ele>
        <time>2021-07-23T15:07:29Z</time>
      </trkpt>
      <trkpt lat="45.07561" lon="2.8539">
        <ele>1265.2</ele>
        <time>2021-07-23T15:07:31Z</time>
      </trkpt>
      <trkpt lat="45.0756" lon="2.85402">
        <ele>1264.9</ele>
        <time>2021-07-23T15:07:33Z</time>
      </trkpt>
      <trkpt lat="45.07558" lon="2.85414">
        <ele>1264.8</ele>
        <time>2021-07-23T15:07:35Z</time>
      </trkpt>
      <trkpt lat="45.07555" lon="2.85426">
        <ele>1264.6</ele>
        <time>2021-07-23T15:07:37Z</time>
      </trkpt>
      <trkpt lat="45.07552" lon="2.85439">
        <ele>1264.2</ele>
        <time>2021-07-23T15:07:39Z</time>
      </trkpt>
      <trkpt lat="45.07549" lon="2.85451">
        <ele>1263.8</ele>
        <time>2021-07-23T15:07:41Z</time>
      </trkpt>
      <trkpt lat="45.07545" lon="2.85464">
        <ele>1263.5</ele>
        <time>2021-07-23T15:07:43Z</time>
      </trkpt>
      <trkpt lat="45.07539" lon="2.85477">
        <ele>1263.2</ele>
        <time>2021-07-23T15:07:45Z</time>
      </trkpt>
      <trkpt lat="45.07533" lon="2.8549">
        <ele>1263</ele>
        <time>2021-07-23T15:07:47Z</time>
      </trkpt>
      <trkpt lat="45.07525" lon="2.85501">
        <ele>1262.8</ele>
        <time>2021-07-23T15:07:49Z</time>
      </trkpt>
      <trkpt lat="45.07518" lon="2.85515">
        <ele>1262.5</ele>
        <time>2021-07-23T15:07:51Z</time>
      </trkpt>
      <trkpt lat="45.0751" lon="2.85532">
        <ele>1261.9</ele>
        <time>2021-07-23T15:07:53Z</time>
      </trkpt>
      <trkpt lat="45.07502" lon="2.85549">
        <ele>1261.4</ele>
        <time>2021-07-23T15:07:55Z</time>
      </trkpt>
      <trkpt lat="45.07492" lon="2.85568">
        <ele>1261.2</ele>
        <time>2021-07-23T15:07:57Z</time>
      </trkpt>
      <trkpt lat="45.07482" lon="2.85587">
        <ele>1261.2</ele>
        <time>2021-07-23T15:07:59Z</time>
      </trkpt>
      <trkpt lat="45.07473" lon="2.85605">
        <ele>1261.8</ele>
        <time>2021-07-23T15:08:01Z</time>
      </trkpt>
      <trkpt lat="45.07465" lon="2.85622">
        <ele>1262.3</ele>
        <time>2021-07-23T15:08:03Z</time>
      </trkpt>
      <trkpt lat="45.07459" lon="2.85638">
        <ele>1262.4</ele>
        <time>2021-07-23T15:08:05Z</time>
      </trkpt>
      <trkpt lat="45.07455" lon="2.85652">
        <ele>1262.5</ele>
        <time>2021-07-23T15:08:07Z</time>
      </trkpt>
      <trkpt lat="45.07451" lon="2.85666">
        <ele>1262.4</ele>
        <time>2021-07-23T15:08:09Z</time>
      </trkpt>
      <trkpt lat="45.07451" lon="2.85678">
        <ele>1262.2</ele>
        <time>2021-07-23T15:08:11Z</time>
      </trkpt>
      <trkpt lat="45.07452" lon="2.85688">
        <ele>1261.9</ele>
        <time>2021-07-23T15:08:13Z</time>
      </trkpt>
      <trkpt lat="45.07451" lon="2.85698">
        <ele>1261.7</ele>
        <time>2021-07-23T15:08:15Z</time>
      </trkpt>
      <trkpt lat="45.07452" lon="2.85708">
        <ele>1261.3</ele>
        <time>2021-07-23T15:08:17Z</time>
      </trkpt>
      <trkpt lat="45.07452" lon="2.85717">
        <ele>1261.1</ele>
        <time>2021-07-23T15:08:19Z</time>
      </trkpt>
      <trkpt lat="45.07453" lon="2.85726">
        <ele>1260.8</ele>
        <time>2021-07-23T15:08:21Z</time>
      </trkpt>
      <trkpt lat="45.07452" lon="2.85733">
        <ele>1260.7</ele>
        <time>2021-07-23T15:08:23Z</time>
      </trkpt>
      <trkpt lat="45.07452" lon="2.8574">
        <ele>1260.6</ele>
        <time>2021-07-23T15:08:25Z</time>
      </trkpt>
      <trkpt lat="45.0745" lon="2.85752">
        <ele>1260.7</ele>
        <time>2021-07-23T15:08:29Z</time>
      </trkpt>
      <trkpt lat="45.07447" lon="2.85763">
        <ele>1261</ele>
        <time>2021-07-23T15:08:33Z</time>
      </trkpt>
      <trkpt lat="45.07442" lon="2.85772">
        <ele>1261.7</ele>
        <time>2021-07-23T15:08:37Z</time>
      </trkpt>
      <trkpt lat="45.07436" lon="2.8578">
        <ele>1262.6</ele>
        <time>2021-07-23T15:08:41Z</time>
      </trkpt>
      <trkpt lat="45.07429" lon="2.85788">
        <ele>1263.5</ele>
        <time>2021-07-23T15:08:45Z</time>
      </trkpt>
      <trkpt lat="45.07422" lon="2.85796">
        <ele>1264.3</ele>
        <time>2021-07-23T15:08:49Z</time>
      </trkpt>
      <trkpt lat="45.07419" lon="2.85801">
        <ele>1264.8</ele>
        <time>2021-07-23T15:08:51Z</time>
      </trkpt>
      <trkpt lat="45.07415" lon="2.85805">
        <ele>1265.1</ele>
        <time>2021-07-23T15:08:53Z</time>
      </trkpt>
      <trkpt lat="45.07411" lon="2.8581">
        <ele>1265.3</ele>
        <time>2021-07-23T15:08:55Z</time>
      </trkpt>
      <trkpt lat="45.07408" lon="2.85814">
        <ele>1265.5</ele>
        <time>2021-07-23T15:08:57Z</time>
      </trkpt>
      <trkpt lat="45.07404" lon="2.85819">
        <ele>1265.7</ele>
        <time>2021-07-23T15:08:59Z</time>
      </trkpt>
      <trkpt lat="45.07401" lon="2.85824">
        <ele>1265.8</ele>
        <time>2021-07-23T15:09:01Z</time>
      </trkpt>
      <trkpt lat="45.07397" lon="2.8583">
        <ele>1265.9</ele>
        <time>2021-07-23T15:09:03Z</time>
      </trkpt>
      <trkpt lat="45.07394" lon="2.85836">
        <ele>1266.1</ele>
        <time>2021-07-23T15:09:05Z</time>
      </trkpt>
      <trkpt lat="45.0739" lon="2.85842">
        <ele>1266.2</ele>
        <time>2021-07-23T15:09:07Z</time>
      </trkpt>
      <trkpt lat="45.07387" lon="2.85849">
        <ele>1266.2</ele>
        <time>2021-07-23T15:09:09Z</time>
      </trkpt>
      <trkpt lat="45.07382" lon="2.85857">
        <ele>1266.3</ele>
        <time>2021-07-23T15:09:11Z</time>
      </trkpt>
      <trkpt lat="45.07378" lon="2.85865">
        <ele>1266.3</ele>
        <time>2021-07-23T15:09:13Z</time>
      </trkpt>
      <trkpt lat="45.07377" lon="2.85875">
        <ele>1266.2</ele>
        <time>2021-07-23T15:09:15Z</time>
      </trkpt>
      <trkpt lat="45.07376" lon="2.85886">
        <ele>1266</ele>
        <time>2021-07-23T15:09:17Z</time>
      </trkpt>
      <trkpt lat="45.07377" lon="2.85897">
        <ele>1265.8</ele>
        <time>2021-07-23T15:09:19Z</time>
      </trkpt>
      <trkpt lat="45.07379" lon="2.85908">
        <ele>1265.6</ele>
        <time>2021-07-23T15:09:21Z</time>
      </trkpt>
      <trkpt lat="45.07381" lon="2.85918">
        <ele>1265.4</ele>
        <time>2021-07-23T15:09:23Z</time>
      </trkpt>
      <trkpt lat="45.07382" lon="2.85927">
        <ele>1265.2</ele>
        <time>2021-07-23T15:09:25Z</time>
      </trkpt>
      <trkpt lat="45.07381" lon="2.85935">
        <ele>1265.1</ele>
        <time>2021-07-23T15:09:27Z</time>
      </trkpt>
      <trkpt lat="45.07378" lon="2.85941">
        <ele>1265</ele>
        <time>2021-07-23T15:09:29Z</time>
      </trkpt>
      <trkpt lat="45.07373" lon="2.85948">
        <ele>1265</ele>
        <time>2021-07-23T15:09:33Z</time>
      </trkpt>
      <trkpt lat="45.07369" lon="2.85952">
        <ele>1265</ele>
        <time>2021-07-23T15:09:41Z</time>
      </trkpt>
      <trkpt lat="45.07365" lon="2.85957">
        <ele>1264.9</ele>
        <time>2021-07-23T15:17:17Z</time>
      </trkpt>
      <trkpt lat="45.07361" lon="2.85961">
        <ele>1265</ele>
        <time>2021-07-23T15:17:21Z</time>
      </trkpt>
      <trkpt lat="45.07356" lon="2.85965">
        <ele>1265</ele>
        <time>2021-07-23T15:17:53Z</time>
      </trkpt>
      <trkpt lat="45.0735" lon="2.85972">
        <ele>1265</ele>
        <time>2021-07-23T15:17:57Z</time>
      </trkpt>
      <trkpt lat="45.07343" lon="2.8598">
        <ele>1265</ele>
        <time>2021-07-23T15:18:01Z</time>
      </trkpt>
      <trkpt lat="45.07338" lon="2.85985">
        <ele>1265.1</ele>
        <time>2021-07-23T15:18:03Z</time>
      </trkpt>
      <trkpt lat="45.07333" lon="2.85991">
        <ele>1265.1</ele>
        <time>2021-07-23T15:18:05Z</time>
      </trkpt>
      <trkpt lat="45.07329" lon="2.85997">
        <ele>1265.6</ele>
        <time>2021-07-23T15:18:07Z</time>
      </trkpt>
      <trkpt lat="45.07323" lon="2.86003">
        <ele>1266.3</ele>
        <time>2021-07-23T15:18:09Z</time>
      </trkpt>
      <trkpt lat="45.07318" lon="2.86008">
        <ele>1266.9</ele>
        <time>2021-07-23T15:18:11Z</time>
      </trkpt>
      <trkpt lat="45.07313" lon="2.86015">
        <ele>1267.4</ele>
        <time>2021-07-23T15:18:13Z</time>
      </trkpt>
      <trkpt lat="45.07308" lon="2.86019">
        <ele>1267.9</ele>
        <time>2021-07-23T15:18:15Z</time>
      </trkpt>
      <trkpt lat="45.07303" lon="2.86024">
        <ele>1268.4</ele>
        <time>2021-07-23T15:18:17Z</time>
      </trkpt>
      <trkpt lat="45.073" lon="2.86031">
        <ele>1268.6</ele>
        <time>2021-07-23T15:18:19Z</time>
      </trkpt>
      <trkpt lat="45.07296" lon="2.86036">
        <ele>1268.9</ele>
        <time>2021-07-23T15:18:21Z</time>
      </trkpt>
      <trkpt lat="45.07292" lon="2.86039">
        <ele>1269.3</ele>
        <time>2021-07-23T15:18:23Z</time>
      </trkpt>
      <trkpt lat="45.07287" lon="2.86046">
        <ele>1269.7</ele>
        <time>2021-07-23T15:18:27Z</time>
      </trkpt>
      <trkpt lat="45.07279" lon="2.86053">
        <ele>1270.2</ele>
        <time>2021-07-23T15:18:31Z</time>
      </trkpt>
      <trkpt lat="45.07276" lon="2.86057">
        <ele>1270.5</ele>
        <time>2021-07-23T15:18:33Z</time>
      </trkpt>
      <trkpt lat="45.07269" lon="2.86065">
        <ele>1270.9</ele>
        <time>2021-07-23T15:18:37Z</time>
      </trkpt>
      <trkpt lat="45.07262" lon="2.86073">
        <ele>1271.3</ele>
        <time>2021-07-23T15:18:41Z</time>
      </trkpt>
      <trkpt lat="45.07259" lon="2.86077">
        <ele>1271.5</ele>
        <time>2021-07-23T15:18:43Z</time>
      </trkpt>
      <trkpt lat="45.07253" lon="2.86086">
        <ele>1271.7</ele>
        <time>2021-07-23T15:18:47Z</time>
      </trkpt>
      <trkpt lat="45.07248" lon="2.86094">
        <ele>1272</ele>
        <time>2021-07-23T15:18:51Z</time>
      </trkpt>
      <trkpt lat="45.0724" lon="2.86101">
        <ele>1272.5</ele>
        <time>2021-07-23T15:18:55Z</time>
      </trkpt>
      <trkpt lat="45.07234" lon="2.86109">
        <ele>1272.9</ele>
        <time>2021-07-23T15:18:59Z</time>
      </trkpt>
      <trkpt lat="45.07227" lon="2.86117">
        <ele>1273.2</ele>
        <time>2021-07-23T15:19:03Z</time>
      </trkpt>
      <trkpt lat="45.07224" lon="2.86122">
        <ele>1273.3</ele>
        <time>2021-07-23T15:19:05Z</time>
      </trkpt>
      <trkpt lat="45.0722" lon="2.86127">
        <ele>1273.5</ele>
        <time>2021-07-23T15:19:07Z</time>
      </trkpt>
      <trkpt lat="45.07215" lon="2.86131">
        <ele>1273.6</ele>
        <time>2021-07-23T15:19:09Z</time>
      </trkpt>
      <trkpt lat="45.07211" lon="2.86137">
        <ele>1273.7</ele>
        <time>2021-07-23T15:19:11Z</time>
      </trkpt>
      <trkpt lat="45.07207" lon="2.86143">
        <ele>1273.8</ele>
        <time>2021-07-23T15:19:13Z</time>
      </trkpt>
      <trkpt lat="45.07202" lon="2.86149">
        <ele>1273.9</ele>
        <time>2021-07-23T15:19:15Z</time>
      </trkpt>
      <trkpt lat="45.07197" lon="2.86155">
        <ele>1274</ele>
        <time>2021-07-23T15:19:17Z</time>
      </trkpt>
      <trkpt lat="45.07192" lon="2.8616">
        <ele>1274.1</ele>
        <time>2021-07-23T15:19:19Z</time>
      </trkpt>
      <trkpt lat="45.07188" lon="2.86166">
        <ele>1274</ele>
        <time>2021-07-23T15:19:21Z</time>
      </trkpt>
      <trkpt lat="45.07182" lon="2.86172">
        <ele>1274</ele>
        <time>2021-07-23T15:19:23Z</time>
      </trkpt>
      <trkpt lat="45.07176" lon="2.86178">
        <ele>1274</ele>
        <time>2021-07-23T15:19:25Z</time>
      </trkpt>
      <trkpt lat="45.07171" lon="2.86185">
        <ele>1274</ele>
        <time>2021-07-23T15:19:27Z</time>
      </trkpt>
      <trkpt lat="45.07166" lon="2.86192">
        <ele>1273.8</ele>
        <time>2021-07-23T15:19:29Z</time>
      </trkpt>
      <trkpt lat="45.07161" lon="2.86198">
        <ele>1273.7</ele>
        <time>2021-07-23T15:19:31Z</time>
      </trkpt>
      <trkpt lat="45.07156" lon="2.86203">
        <ele>1273.6</ele>
        <time>2021-07-23T15:19:33Z</time>
      </trkpt>
      <trkpt lat="45.07152" lon="2.8621">
        <ele>1273.4</ele>
        <time>2021-07-23T15:19:35Z</time>
      </trkpt>
      <trkpt lat="45.07147" lon="2.86216">
        <ele>1273.2</ele>
        <time>2021-07-23T15:19:37Z</time>
      </trkpt>
      <trkpt lat="45.07143" lon="2.86221">
        <ele>1273</ele>
        <time>2021-07-23T15:19:39Z</time>
      </trkpt>
      <trkpt lat="45.07139" lon="2.86226">
        <ele>1272.9</ele>
        <time>2021-07-23T15:19:41Z</time>
      </trkpt>
      <trkpt lat="45.07135" lon="2.86229">
        <ele>1272.8</ele>
        <time>2021-07-23T15:19:43Z</time>
      </trkpt>
      <trkpt lat="45.07132" lon="2.86234">
        <ele>1272.7</ele>
        <time>2021-07-23T15:19:45Z</time>
      </trkpt>
      <trkpt lat="45.07128" lon="2.86239">
        <ele>1272.5</ele>
        <time>2021-07-23T15:19:47Z</time>
      </trkpt>
      <trkpt lat="45.07124" lon="2.86244">
        <ele>1272.3</ele>
        <time>2021-07-23T15:19:49Z</time>
      </trkpt>
      <trkpt lat="45.0712" lon="2.86249">
        <ele>1272.2</ele>
        <time>2021-07-23T15:19:51Z</time>
      </trkpt>
      <trkpt lat="45.07117" lon="2.86253">
        <ele>1272.1</ele>
        <time>2021-07-23T15:19:53Z</time>
      </trkpt>
      <trkpt lat="45.07113" lon="2.86259">
        <ele>1272.1</ele>
        <time>2021-07-23T15:19:55Z</time>
      </trkpt>
      <trkpt lat="45.07111" lon="2.86267">
        <ele>1272</ele>
        <time>2021-07-23T15:19:57Z</time>
      </trkpt>
      <trkpt lat="45.07112" lon="2.86275">
        <ele>1271.8</ele>
        <time>2021-07-23T15:19:59Z</time>
      </trkpt>
      <trkpt lat="45.07116" lon="2.86283">
        <ele>1271.6</ele>
        <time>2021-07-23T15:20:01Z</time>
      </trkpt>
      <trkpt lat="45.07121" lon="2.8629">
        <ele>1271.4</ele>
        <time>2021-07-23T15:20:03Z</time>
      </trkpt>
      <trkpt lat="45.07126" lon="2.86298">
        <ele>1271.1</ele>
        <time>2021-07-23T15:20:05Z</time>
      </trkpt>
      <trkpt lat="45.07131" lon="2.86307">
        <ele>1270.9</ele>
        <time>2021-07-23T15:20:07Z</time>
      </trkpt>
      <trkpt lat="45.07136" lon="2.86317">
        <ele>1270.6</ele>
        <time>2021-07-23T15:20:09Z</time>
      </trkpt>
      <trkpt lat="45.07139" lon="2.86327">
        <ele>1270.4</ele>
        <time>2021-07-23T15:20:11Z</time>
      </trkpt>
      <trkpt lat="45.07143" lon="2.86338">
        <ele>1270.2</ele>
        <time>2021-07-23T15:20:13Z</time>
      </trkpt>
      <trkpt lat="45.07145" lon="2.86349">
        <ele>1269.9</ele>
        <time>2021-07-23T15:20:15Z</time>
      </trkpt>
      <trkpt lat="45.07144" lon="2.86358">
        <ele>1269.7</ele>
        <time>2021-07-23T15:20:17Z</time>
      </trkpt>
      <trkpt lat="45.07142" lon="2.86365">
        <ele>1269.5</ele>
        <time>2021-07-23T15:20:19Z</time>
      </trkpt>
      <trkpt lat="45.07136" lon="2.86373">
        <ele>1269.4</ele>
        <time>2021-07-23T15:20:23Z</time>
      </trkpt>
      <trkpt lat="45.07131" lon="2.86374">
        <ele>1269.5</ele>
        <time>2021-07-23T15:20:25Z</time>
      </trkpt>
      <trkpt lat="45.07126" lon="2.86379">
        <ele>1269.4</ele>
        <time>2021-07-23T15:20:27Z</time>
      </trkpt>
      <trkpt lat="45.0712" lon="2.86384">
        <ele>1269.3</ele>
        <time>2021-07-23T15:20:29Z</time>
      </trkpt>
      <trkpt lat="45.07113" lon="2.86389">
        <ele>1269.3</ele>
        <time>2021-07-23T15:20:31Z</time>
      </trkpt>
      <trkpt lat="45.07107" lon="2.86394">
        <ele>1269.3</ele>
        <time>2021-07-23T15:20:33Z</time>
      </trkpt>
      <trkpt lat="45.07101" lon="2.86398">
        <ele>1269.2</ele>
        <time>2021-07-23T15:20:35Z</time>
      </trkpt>
      <trkpt lat="45.07095" lon="2.86404">
        <ele>1269.2</ele>
        <time>2021-07-23T15:20:37Z</time>
      </trkpt>
      <trkpt lat="45.07088" lon="2.8641">
        <ele>1269.1</ele>
        <time>2021-07-23T15:20:39Z</time>
      </trkpt>
      <trkpt lat="45.07082" lon="2.86416">
        <ele>1269</ele>
        <time>2021-07-23T15:20:41Z</time>
      </trkpt>
      <trkpt lat="45.07076" lon="2.86422">
        <ele>1268.6</ele>
        <time>2021-07-23T15:20:43Z</time>
      </trkpt>
      <trkpt lat="45.07069" lon="2.86428">
        <ele>1268.2</ele>
        <time>2021-07-23T15:20:45Z</time>
      </trkpt>
      <trkpt lat="45.07062" lon="2.86436">
        <ele>1267.8</ele>
        <time>2021-07-23T15:20:47Z</time>
      </trkpt>
      <trkpt lat="45.07054" lon="2.86443">
        <ele>1267.3</ele>
        <time>2021-07-23T15:20:49Z</time>
      </trkpt>
      <trkpt lat="45.07046" lon="2.86451">
        <ele>1266.8</ele>
        <time>2021-07-23T15:20:51Z</time>
      </trkpt>
      <trkpt lat="45.07037" lon="2.86459">
        <ele>1266.4</ele>
        <time>2021-07-23T15:20:53Z</time>
      </trkpt>
      <trkpt lat="45.07029" lon="2.86466">
        <ele>1265.9</ele>
        <time>2021-07-23T15:20:55Z</time>
      </trkpt>
      <trkpt lat="45.07021" lon="2.86473">
        <ele>1265.5</ele>
        <time>2021-07-23T15:20:57Z</time>
      </trkpt>
      <trkpt lat="45.07011" lon="2.8648">
        <ele>1265</ele>
        <time>2021-07-23T15:20:59Z</time>
      </trkpt>
      <trkpt lat="45.07002" lon="2.86488">
        <ele>1264.5</ele>
        <time>2021-07-23T15:21:01Z</time>
      </trkpt>
      <trkpt lat="45.06991" lon="2.86498">
        <ele>1264.2</ele>
        <time>2021-07-23T15:21:03Z</time>
      </trkpt>
      <trkpt lat="45.06981" lon="2.86507">
        <ele>1264</ele>
        <time>2021-07-23T15:21:05Z</time>
      </trkpt>
      <trkpt lat="45.06971" lon="2.86517">
        <ele>1263.7</ele>
        <time>2021-07-23T15:21:07Z</time>
      </trkpt>
      <trkpt lat="45.06962" lon="2.86527">
        <ele>1263.5</ele>
        <time>2021-07-23T15:21:09Z</time>
      </trkpt>
      <trkpt lat="45.06952" lon="2.86535">
        <ele>1263.3</ele>
        <time>2021-07-23T15:21:11Z</time>
      </trkpt>
      <trkpt lat="45.06942" lon="2.86543">
        <ele>1263.2</ele>
        <time>2021-07-23T15:21:13Z</time>
      </trkpt>
      <trkpt lat="45.06934" lon="2.8655">
        <ele>1263</ele>
        <time>2021-07-23T15:21:15Z</time>
      </trkpt>
      <trkpt lat="45.06925" lon="2.86557">
        <ele>1262.9</ele>
        <time>2021-07-23T15:21:17Z</time>
      </trkpt>
      <trkpt lat="45.06917" lon="2.86564">
        <ele>1262.7</ele>
        <time>2021-07-23T15:21:19Z</time>
      </trkpt>
      <trkpt lat="45.06908" lon="2.86572">
        <ele>1262.1</ele>
        <time>2021-07-23T15:21:21Z</time>
      </trkpt>
      <trkpt lat="45.06899" lon="2.86579">
        <ele>1261.5</ele>
        <time>2021-07-23T15:21:23Z</time>
      </trkpt>
      <trkpt lat="45.0689" lon="2.86587">
        <ele>1260.9</ele>
        <time>2021-07-23T15:21:25Z</time>
      </trkpt>
      <trkpt lat="45.0688" lon="2.86595">
        <ele>1260.1</ele>
        <time>2021-07-23T15:21:27Z</time>
      </trkpt>
      <trkpt lat="45.0687" lon="2.86603">
        <ele>1259.4</ele>
        <time>2021-07-23T15:21:29Z</time>
      </trkpt>
      <trkpt lat="45.06861" lon="2.8661">
        <ele>1258.7</ele>
        <time>2021-07-23T15:21:31Z</time>
      </trkpt>
      <trkpt lat="45.06851" lon="2.86615">
        <ele>1258.1</ele>
        <time>2021-07-23T15:21:33Z</time>
      </trkpt>
      <trkpt lat="45.0684" lon="2.86613">
        <ele>1257.8</ele>
        <time>2021-07-23T15:21:35Z</time>
      </trkpt>
      <trkpt lat="45.06831" lon="2.86607">
        <ele>1257.8</ele>
        <time>2021-07-23T15:21:37Z</time>
      </trkpt>
      <trkpt lat="45.06821" lon="2.86598">
        <ele>1258.1</ele>
        <time>2021-07-23T15:21:39Z</time>
      </trkpt>
      <trkpt lat="45.0681" lon="2.86591">
        <ele>1258.2</ele>
        <time>2021-07-23T15:21:41Z</time>
      </trkpt>
      <trkpt lat="45.06797" lon="2.86594">
        <ele>1257.8</ele>
        <time>2021-07-23T15:21:43Z</time>
      </trkpt>
      <trkpt lat="45.06787" lon="2.86606">
        <ele>1257.4</ele>
        <time>2021-07-23T15:21:45Z</time>
      </trkpt>
      <trkpt lat="45.0678" lon="2.86621">
        <ele>1257.1</ele>
        <time>2021-07-23T15:21:47Z</time>
      </trkpt>
      <trkpt lat="45.06775" lon="2.86635">
        <ele>1256.9</ele>
        <time>2021-07-23T15:21:49Z</time>
      </trkpt>
      <trkpt lat="45.06773" lon="2.86647">
        <ele>1256.7</ele>
        <time>2021-07-23T15:21:51Z</time>
      </trkpt>
      <trkpt lat="45.06775" lon="2.86658">
        <ele>1256.5</ele>
        <time>2021-07-23T15:21:53Z</time>
      </trkpt>
      <trkpt lat="45.06779" lon="2.86672">
        <ele>1255.9</ele>
        <time>2021-07-23T15:21:55Z</time>
      </trkpt>
      <trkpt lat="45.06784" lon="2.86687">
        <ele>1254.5</ele>
        <time>2021-07-23T15:21:57Z</time>
      </trkpt>
      <trkpt lat="45.06788" lon="2.86703">
        <ele>1253.2</ele>
        <time>2021-07-23T15:21:59Z</time>
      </trkpt>
      <trkpt lat="45.06792" lon="2.86721">
        <ele>1251.8</ele>
        <time>2021-07-23T15:22:01Z</time>
      </trkpt>
      <trkpt lat="45.06793" lon="2.86739">
        <ele>1250.3</ele>
        <time>2021-07-23T15:22:03Z</time>
      </trkpt>
      <trkpt lat="45.06791" lon="2.86759">
        <ele>1249</ele>
        <time>2021-07-23T15:22:05Z</time>
      </trkpt>
      <trkpt lat="45.06789" lon="2.86781">
        <ele>1247.8</ele>
        <time>2021-07-23T15:22:07Z</time>
      </trkpt>
      <trkpt lat="45.06785" lon="2.86798">
        <ele>1246.8</ele>
        <time>2021-07-23T15:22:09Z</time>
      </trkpt>
      <trkpt lat="45.06781" lon="2.86815">
        <ele>1245.8</ele>
        <time>2021-07-23T15:22:11Z</time>
      </trkpt>
      <trkpt lat="45.06775" lon="2.8683">
        <ele>1244.8</ele>
        <time>2021-07-23T15:22:13Z</time>
      </trkpt>
      <trkpt lat="45.06768" lon="2.86844">
        <ele>1244.1</ele>
        <time>2021-07-23T15:22:15Z</time>
      </trkpt>
      <trkpt lat="45.0676" lon="2.86855">
        <ele>1243.5</ele>
        <time>2021-07-23T15:22:17Z</time>
      </trkpt>
      <trkpt lat="45.06751" lon="2.86864">
        <ele>1243</ele>
        <time>2021-07-23T15:22:19Z</time>
      </trkpt>
      <trkpt lat="45.06743" lon="2.86873">
        <ele>1242.3</ele>
        <time>2021-07-23T15:22:21Z</time>
      </trkpt>
      <trkpt lat="45.06735" lon="2.86882">
        <ele>1241.6</ele>
        <time>2021-07-23T15:22:23Z</time>
      </trkpt>
      <trkpt lat="45.06728" lon="2.86889">
        <ele>1240.8</ele>
        <time>2021-07-23T15:22:25Z</time>
      </trkpt>
      <trkpt lat="45.06722" lon="2.86895">
        <ele>1240.2</ele>
        <time>2021-07-23T15:22:27Z</time>
      </trkpt>
      <trkpt lat="45.06717" lon="2.86899">
        <ele>1239.7</ele>
        <time>2021-07-23T15:22:29Z</time>
      </trkpt>
      <trkpt lat="45.06713" lon="2.86903">
        <ele>1239.2</ele>
        <time>2021-07-23T15:22:31Z</time>
      </trkpt>
      <trkpt lat="45.06709" lon="2.86908">
        <ele>1238.6</ele>
        <time>2021-07-23T15:22:33Z</time>
      </trkpt>
      <trkpt lat="45.06705" lon="2.86913">
        <ele>1238</ele>
        <time>2021-07-23T15:22:35Z</time>
      </trkpt>
      <trkpt lat="45.06701" lon="2.86917">
        <ele>1237.5</ele>
        <time>2021-07-23T15:22:37Z</time>
      </trkpt>
      <trkpt lat="45.06697" lon="2.86924">
        <ele>1236.9</ele>
        <time>2021-07-23T15:22:41Z</time>
      </trkpt>
      <trkpt lat="45.06692" lon="2.86924">
        <ele>1236.5</ele>
        <time>2021-07-23T15:23:09Z</time>
      </trkpt>
      <trkpt lat="45.06688" lon="2.8692">
        <ele>1236.4</ele>
        <time>2021-07-23T15:23:21Z</time>
      </trkpt>
      <trkpt lat="45.06681" lon="2.86911">
        <ele>1236.5</ele>
        <time>2021-07-23T15:23:25Z</time>
      </trkpt>
      <trkpt lat="45.06679" lon="2.86905">
        <ele>1236.9</ele>
        <time>2021-07-23T15:23:27Z</time>
      </trkpt>
      <trkpt lat="45.06675" lon="2.86899">
        <ele>1237.2</ele>
        <time>2021-07-23T15:23:29Z</time>
      </trkpt>
      <trkpt lat="45.06669" lon="2.86892">
        <ele>1237.5</ele>
        <time>2021-07-23T15:23:31Z</time>
      </trkpt>
      <trkpt lat="45.06664" lon="2.86886">
        <ele>1237.7</ele>
        <time>2021-07-23T15:23:33Z</time>
      </trkpt>
      <trkpt lat="45.0666" lon="2.8688">
        <ele>1237.8</ele>
        <time>2021-07-23T15:23:35Z</time>
      </trkpt>
      <trkpt lat="45.06656" lon="2.86874">
        <ele>1238</ele>
        <time>2021-07-23T15:23:37Z</time>
      </trkpt>
      <trkpt lat="45.06661" lon="2.86873">
        <ele>1238.6</ele>
        <time>2021-07-23T15:23:51Z</time>
      </trkpt>
      <trkpt lat="45.06666" lon="2.8687">
        <ele>1239.4</ele>
        <time>2021-07-23T15:24:11Z</time>
      </trkpt>
      <trkpt lat="45.06664" lon="2.86876">
        <ele>1238.6</ele>
        <time>2021-07-23T15:54:17Z</time>
      </trkpt>
      <trkpt lat="45.06662" lon="2.86884">
        <ele>1237.7</ele>
        <time>2021-07-23T15:54:59Z</time>
      </trkpt>
      <trkpt lat="45.06667" lon="2.86893">
        <ele>1237.3</ele>
        <time>2021-07-23T15:55:03Z</time>
      </trkpt>
      <trkpt lat="45.06673" lon="2.86902">
        <ele>1236.8</ele>
        <time>2021-07-23T15:55:07Z</time>
      </trkpt>
      <trkpt lat="45.06676" lon="2.86906">
        <ele>1236.6</ele>
        <time>2021-07-23T15:55:09Z</time>
      </trkpt>
      <trkpt lat="45.06679" lon="2.86912">
        <ele>1236.3</ele>
        <time>2021-07-23T15:55:11Z</time>
      </trkpt>
      <trkpt lat="45.06683" lon="2.86917">
        <ele>1236.2</ele>
        <time>2021-07-23T15:55:13Z</time>
      </trkpt>
      <trkpt lat="45.06688" lon="2.86921">
        <ele>1236.3</ele>
        <time>2021-07-23T15:55:15Z</time>
      </trkpt>
      <trkpt lat="45.06695" lon="2.86928">
        <ele>1236.6</ele>
        <time>2021-07-23T15:55:19Z</time>
      </trkpt>
      <trkpt lat="45.06699" lon="2.86931">
        <ele>1236.7</ele>
        <time>2021-07-23T15:55:21Z</time>
      </trkpt>
      <trkpt lat="45.06706" lon="2.86938">
        <ele>1236.9</ele>
        <time>2021-07-23T15:55:25Z</time>
      </trkpt>
      <trkpt lat="45.06709" lon="2.86942">
        <ele>1237</ele>
        <time>2021-07-23T15:55:27Z</time>
      </trkpt>
      <trkpt lat="45.06714" lon="2.86948">
        <ele>1237.1</ele>
        <time>2021-07-23T15:55:31Z</time>
      </trkpt>
      <trkpt lat="45.06719" lon="2.86954">
        <ele>1237.3</ele>
        <time>2021-07-23T15:55:35Z</time>
      </trkpt>
      <trkpt lat="45.06719" lon="2.86963">
        <ele>1236.9</ele>
        <time>2021-07-23T15:55:39Z</time>
      </trkpt>
      <trkpt lat="45.06716" lon="2.86969">
        <ele>1236.4</ele>
        <time>2021-07-23T15:55:41Z</time>
      </trkpt>
      <trkpt lat="45.06711" lon="2.86975">
        <ele>1235.8</ele>
        <time>2021-07-23T15:55:43Z</time>
      </trkpt>
      <trkpt lat="45.06706" lon="2.8698">
        <ele>1235.1</ele>
        <time>2021-07-23T15:55:45Z</time>
      </trkpt>
      <trkpt lat="45.067" lon="2.86984">
        <ele>1234.5</ele>
        <time>2021-07-23T15:55:47Z</time>
      </trkpt>
      <trkpt lat="45.06694" lon="2.86988">
        <ele>1233.8</ele>
        <time>2021-07-23T15:55:49Z</time>
      </trkpt>
      <trkpt lat="45.06689" lon="2.86992">
        <ele>1233.3</ele>
        <time>2021-07-23T15:55:51Z</time>
      </trkpt>
      <trkpt lat="45.06684" lon="2.86995">
        <ele>1232.7</ele>
        <time>2021-07-23T15:55:53Z</time>
      </trkpt>
      <trkpt lat="45.06678" lon="2.86997">
        <ele>1232.1</ele>
        <time>2021-07-23T15:55:55Z</time>
      </trkpt>
      <trkpt lat="45.06673" lon="2.87001">
        <ele>1231.5</ele>
        <time>2021-07-23T15:55:57Z</time>
      </trkpt>
      <trkpt lat="45.0667" lon="2.87007">
        <ele>1231.1</ele>
        <time>2021-07-23T15:55:59Z</time>
      </trkpt>
      <trkpt lat="45.06667" lon="2.87014">
        <ele>1230.7</ele>
        <time>2021-07-23T15:56:01Z</time>
      </trkpt>
      <trkpt lat="45.06669" lon="2.87005">
        <ele>1231.1</ele>
        <time>2021-07-23T15:56:19Z</time>
      </trkpt>
      <trkpt lat="45.06675" lon="2.86997">
        <ele>1231.9</ele>
        <time>2021-07-23T15:56:23Z</time>
      </trkpt>
      <trkpt lat="45.06682" lon="2.86993">
        <ele>1232.6</ele>
        <time>2021-07-23T15:56:27Z</time>
      </trkpt>
      <trkpt lat="45.06689" lon="2.8699">
        <ele>1233.3</ele>
        <time>2021-07-23T15:56:31Z</time>
      </trkpt>
      <trkpt lat="45.06696" lon="2.86983">
        <ele>1234.2</ele>
        <time>2021-07-23T15:56:35Z</time>
      </trkpt>
      <trkpt lat="45.06702" lon="2.86978">
        <ele>1234.9</ele>
        <time>2021-07-23T15:56:39Z</time>
      </trkpt>
      <trkpt lat="45.06709" lon="2.86973">
        <ele>1235.7</ele>
        <time>2021-07-23T15:56:43Z</time>
      </trkpt>
      <trkpt lat="45.06714" lon="2.8697">
        <ele>1236.3</ele>
        <time>2021-07-23T15:56:47Z</time>
      </trkpt>
      <trkpt lat="45.0672" lon="2.86966">
        <ele>1236.8</ele>
        <time>2021-07-23T15:56:51Z</time>
      </trkpt>
      <trkpt lat="45.06725" lon="2.86964">
        <ele>1237.3</ele>
        <time>2021-07-23T15:56:55Z</time>
      </trkpt>
      <trkpt lat="45.06732" lon="2.86965">
        <ele>1237.8</ele>
        <time>2021-07-23T15:56:59Z</time>
      </trkpt>
      <trkpt lat="45.06738" lon="2.86968">
        <ele>1238.2</ele>
        <time>2021-07-23T15:57:03Z</time>
      </trkpt>
      <trkpt lat="45.06741" lon="2.86972">
        <ele>1238.3</ele>
        <time>2021-07-23T15:57:05Z</time>
      </trkpt>
      <trkpt lat="45.06746" lon="2.86976">
        <ele>1238.5</ele>
        <time>2021-07-23T15:57:07Z</time>
      </trkpt>
      <trkpt lat="45.0675" lon="2.8698">
        <ele>1238.7</ele>
        <time>2021-07-23T15:57:09Z</time>
      </trkpt>
      <trkpt lat="45.06755" lon="2.86984">
        <ele>1238.8</ele>
        <time>2021-07-23T15:57:11Z</time>
      </trkpt>
      <trkpt lat="45.06759" lon="2.86988">
        <ele>1238.8</ele>
        <time>2021-07-23T15:57:13Z</time>
      </trkpt>
      <trkpt lat="45.06763" lon="2.86993">
        <ele>1238.9</ele>
        <time>2021-07-23T15:57:15Z</time>
      </trkpt>
      <trkpt lat="45.06767" lon="2.86996">
        <ele>1239</ele>
        <time>2021-07-23T15:57:17Z</time>
      </trkpt>
      <trkpt lat="45.06772" lon="2.87">
        <ele>1239.1</ele>
        <time>2021-07-23T15:57:19Z</time>
      </trkpt>
      <trkpt lat="45.06777" lon="2.87004">
        <ele>1239.1</ele>
        <time>2021-07-23T15:57:21Z</time>
      </trkpt>
      <trkpt lat="45.06781" lon="2.87009">
        <ele>1239.1</ele>
        <time>2021-07-23T15:57:23Z</time>
      </trkpt>
      <trkpt lat="45.06786" lon="2.87014">
        <ele>1239.1</ele>
        <time>2021-07-23T15:57:25Z</time>
      </trkpt>
      <trkpt lat="45.06791" lon="2.87019">
        <ele>1239.1</ele>
        <time>2021-07-23T15:57:27Z</time>
      </trkpt>
      <trkpt lat="45.06797" lon="2.87025">
        <ele>1239.2</ele>
        <time>2021-07-23T15:57:29Z</time>
      </trkpt>
      <trkpt lat="45.06802" lon="2.87029">
        <ele>1239.3</ele>
        <time>2021-07-23T15:57:31Z</time>
      </trkpt>
      <trkpt lat="45.06806" lon="2.87034">
        <ele>1239.4</ele>
        <time>2021-07-23T15:57:33Z</time>
      </trkpt>
      <trkpt lat="45.06811" lon="2.87038">
        <ele>1239.4</ele>
        <time>2021-07-23T15:57:35Z</time>
      </trkpt>
      <trkpt lat="45.06816" lon="2.87042">
        <ele>1239.5</ele>
        <time>2021-07-23T15:57:37Z</time>
      </trkpt>
      <trkpt lat="45.06821" lon="2.87047">
        <ele>1239.7</ele>
        <time>2021-07-23T15:57:39Z</time>
      </trkpt>
      <trkpt lat="45.06826" lon="2.87051">
        <ele>1239.8</ele>
        <time>2021-07-23T15:57:41Z</time>
      </trkpt>
      <trkpt lat="45.0683" lon="2.87055">
        <ele>1239.9</ele>
        <time>2021-07-23T15:57:43Z</time>
      </trkpt>
      <trkpt lat="45.06835" lon="2.8706">
        <ele>1239.9</ele>
        <time>2021-07-23T15:57:47Z</time>
      </trkpt>
      <trkpt lat="45.06839" lon="2.87065">
        <ele>1239.7</ele>
        <time>2021-07-23T15:57:51Z</time>
      </trkpt>
      <trkpt lat="45.06843" lon="2.87073">
        <ele>1239.5</ele>
        <time>2021-07-23T15:57:55Z</time>
      </trkpt>
      <trkpt lat="45.06848" lon="2.87085">
        <ele>1239.1</ele>
        <time>2021-07-23T15:57:59Z</time>
      </trkpt>
      <trkpt lat="45.0685" lon="2.87092">
        <ele>1238.7</ele>
        <time>2021-07-23T15:58:01Z</time>
      </trkpt>
      <trkpt lat="45.06852" lon="2.87101">
        <ele>1238.2</ele>
        <time>2021-07-23T15:58:03Z</time>
      </trkpt>
      <trkpt lat="45.06854" lon="2.87112">
        <ele>1237.6</ele>
        <time>2021-07-23T15:58:05Z</time>
      </trkpt>
      <trkpt lat="45.06856" lon="2.87124">
        <ele>1237</ele>
        <time>2021-07-23T15:58:07Z</time>
      </trkpt>
      <trkpt lat="45.06857" lon="2.87136">
        <ele>1236.3</ele>
        <time>2021-07-23T15:58:09Z</time>
      </trkpt>
      <trkpt lat="45.0686" lon="2.87149">
        <ele>1235.6</ele>
        <time>2021-07-23T15:58:11Z</time>
      </trkpt>
      <trkpt lat="45.06862" lon="2.87164">
        <ele>1234.8</ele>
        <time>2021-07-23T15:58:13Z</time>
      </trkpt>
      <trkpt lat="45.06864" lon="2.87181">
        <ele>1234.4</ele>
        <time>2021-07-23T15:58:15Z</time>
      </trkpt>
      <trkpt lat="45.06865" lon="2.872">
        <ele>1234</ele>
        <time>2021-07-23T15:58:17Z</time>
      </trkpt>
      <trkpt lat="45.06865" lon="2.87219">
        <ele>1233.5</ele>
        <time>2021-07-23T15:58:19Z</time>
      </trkpt>
      <trkpt lat="45.06864" lon="2.87238">
        <ele>1233</ele>
        <time>2021-07-23T15:58:21Z</time>
      </trkpt>
      <trkpt lat="45.06863" lon="2.87257">
        <ele>1232.4</ele>
        <time>2021-07-23T15:58:23Z</time>
      </trkpt>
      <trkpt lat="45.06861" lon="2.87277">
        <ele>1231.7</ele>
        <time>2021-07-23T15:58:25Z</time>
      </trkpt>
      <trkpt lat="45.0686" lon="2.87296">
        <ele>1231</ele>
        <time>2021-07-23T15:58:27Z</time>
      </trkpt>
      <trkpt lat="45.06858" lon="2.87315">
        <ele>1230.2</ele>
        <time>2021-07-23T15:58:29Z</time>
      </trkpt>
      <trkpt lat="45.06857" lon="2.87334">
        <ele>1229.6</ele>
        <time>2021-07-23T15:58:31Z</time>
      </trkpt>
      <trkpt lat="45.06855" lon="2.87352">
        <ele>1230</ele>
        <time>2021-07-23T15:58:33Z</time>
      </trkpt>
      <trkpt lat="45.06854" lon="2.87369">
        <ele>1230.4</ele>
        <time>2021-07-23T15:58:35Z</time>
      </trkpt>
      <trkpt lat="45.06854" lon="2.87386">
        <ele>1230.8</ele>
        <time>2021-07-23T15:58:37Z</time>
      </trkpt>
      <trkpt lat="45.06855" lon="2.87402">
        <ele>1231.2</ele>
        <time>2021-07-23T15:58:39Z</time>
      </trkpt>
      <trkpt lat="45.06855" lon="2.87418">
        <ele>1231.5</ele>
        <time>2021-07-23T15:58:41Z</time>
      </trkpt>
      <trkpt lat="45.06856" lon="2.87433">
        <ele>1231.6</ele>
        <time>2021-07-23T15:58:43Z</time>
      </trkpt>
      <trkpt lat="45.06856" lon="2.87448">
        <ele>1231.7</ele>
        <time>2021-07-23T15:58:45Z</time>
      </trkpt>
      <trkpt lat="45.06857" lon="2.87462">
        <ele>1231.8</ele>
        <time>2021-07-23T15:58:47Z</time>
      </trkpt>
      <trkpt lat="45.06857" lon="2.87475">
        <ele>1231.9</ele>
        <time>2021-07-23T15:58:49Z</time>
      </trkpt>
      <trkpt lat="45.06857" lon="2.87487">
        <ele>1231.9</ele>
        <time>2021-07-23T15:58:51Z</time>
      </trkpt>
      <trkpt lat="45.06857" lon="2.87499">
        <ele>1232</ele>
        <time>2021-07-23T15:58:53Z</time>
      </trkpt>
      <trkpt lat="45.06857" lon="2.87509">
        <ele>1231.9</ele>
        <time>2021-07-23T15:58:55Z</time>
      </trkpt>
      <trkpt lat="45.06857" lon="2.8752">
        <ele>1231.9</ele>
        <time>2021-07-23T15:58:57Z</time>
      </trkpt>
      <trkpt lat="45.06857" lon="2.87529">
        <ele>1231.8</ele>
        <time>2021-07-23T15:58:59Z</time>
      </trkpt>
      <trkpt lat="45.06857" lon="2.87539">
        <ele>1231.7</ele>
        <time>2021-07-23T15:59:01Z</time>
      </trkpt>
      <trkpt lat="45.06857" lon="2.87549">
        <ele>1231.7</ele>
        <time>2021-07-23T15:59:03Z</time>
      </trkpt>
      <trkpt lat="45.06857" lon="2.87559">
        <ele>1231.6</ele>
        <time>2021-07-23T15:59:05Z</time>
      </trkpt>
      <trkpt lat="45.06858" lon="2.87568">
        <ele>1231.5</ele>
        <time>2021-07-23T15:59:07Z</time>
      </trkpt>
      <trkpt lat="45.06858" lon="2.87578">
        <ele>1231.5</ele>
        <time>2021-07-23T15:59:09Z</time>
      </trkpt>
      <trkpt lat="45.06857" lon="2.87587">
        <ele>1231.4</ele>
        <time>2021-07-23T15:59:11Z</time>
      </trkpt>
      <trkpt lat="45.06857" lon="2.87598">
        <ele>1231.5</ele>
        <time>2021-07-23T15:59:13Z</time>
      </trkpt>
      <trkpt lat="45.06857" lon="2.87608">
        <ele>1231.5</ele>
        <time>2021-07-23T15:59:15Z</time>
      </trkpt>
      <trkpt lat="45.06856" lon="2.87618">
        <ele>1231.6</ele>
        <time>2021-07-23T15:59:17Z</time>
      </trkpt>
      <trkpt lat="45.06855" lon="2.87629">
        <ele>1231.6</ele>
        <time>2021-07-23T15:59:19Z</time>
      </trkpt>
      <trkpt lat="45.06853" lon="2.87641">
        <ele>1231.7</ele>
        <time>2021-07-23T15:59:21Z</time>
      </trkpt>
      <trkpt lat="45.06852" lon="2.87654">
        <ele>1231.7</ele>
        <time>2021-07-23T15:59:23Z</time>
      </trkpt>
      <trkpt lat="45.06849" lon="2.87666">
        <ele>1231.8</ele>
        <time>2021-07-23T15:59:25Z</time>
      </trkpt>
      <trkpt lat="45.06847" lon="2.87679">
        <ele>1231.9</ele>
        <time>2021-07-23T15:59:27Z</time>
      </trkpt>
      <trkpt lat="45.06844" lon="2.8769">
        <ele>1232.1</ele>
        <time>2021-07-23T15:59:29Z</time>
      </trkpt>
      <trkpt lat="45.06841" lon="2.877">
        <ele>1232.2</ele>
        <time>2021-07-23T15:59:31Z</time>
      </trkpt>
      <trkpt lat="45.06839" lon="2.8771">
        <ele>1232.4</ele>
        <time>2021-07-23T15:59:33Z</time>
      </trkpt>
      <trkpt lat="45.06836" lon="2.87721">
        <ele>1232.6</ele>
        <time>2021-07-23T15:59:35Z</time>
      </trkpt>
      <trkpt lat="45.06834" lon="2.8773">
        <ele>1232.7</ele>
        <time>2021-07-23T15:59:37Z</time>
      </trkpt>
      <trkpt lat="45.06831" lon="2.87739">
        <ele>1232.8</ele>
        <time>2021-07-23T15:59:39Z</time>
      </trkpt>
      <trkpt lat="45.06829" lon="2.87749">
        <ele>1232.9</ele>
        <time>2021-07-23T15:59:41Z</time>
      </trkpt>
      <trkpt lat="45.06827" lon="2.87758">
        <ele>1232.7</ele>
        <time>2021-07-23T15:59:43Z</time>
      </trkpt>
      <trkpt lat="45.06825" lon="2.87768">
        <ele>1232.6</ele>
        <time>2021-07-23T15:59:45Z</time>
      </trkpt>
      <trkpt lat="45.06823" lon="2.87779">
        <ele>1232.4</ele>
        <time>2021-07-23T15:59:47Z</time>
      </trkpt>
      <trkpt lat="45.06821" lon="2.87791">
        <ele>1232.1</ele>
        <time>2021-07-23T15:59:49Z</time>
      </trkpt>
      <trkpt lat="45.06818" lon="2.87802">
        <ele>1231.9</ele>
        <time>2021-07-23T15:59:51Z</time>
      </trkpt>
      <trkpt lat="45.06815" lon="2.87814">
        <ele>1231.6</ele>
        <time>2021-07-23T15:59:53Z</time>
      </trkpt>
      <trkpt lat="45.06813" lon="2.87826">
        <ele>1231.4</ele>
        <time>2021-07-23T15:59:55Z</time>
      </trkpt>
      <trkpt lat="45.0681" lon="2.87839">
        <ele>1230.9</ele>
        <time>2021-07-23T15:59:57Z</time>
      </trkpt>
      <trkpt lat="45.06807" lon="2.87852">
        <ele>1230.1</ele>
        <time>2021-07-23T15:59:59Z</time>
      </trkpt>
      <trkpt lat="45.06804" lon="2.87866">
        <ele>1229.3</ele>
        <time>2021-07-23T16:00:01Z</time>
      </trkpt>
      <trkpt lat="45.06801" lon="2.8788">
        <ele>1228.5</ele>
        <time>2021-07-23T16:00:03Z</time>
      </trkpt>
      <trkpt lat="45.06798" lon="2.87894">
        <ele>1227.7</ele>
        <time>2021-07-23T16:00:05Z</time>
      </trkpt>
      <trkpt lat="45.06796" lon="2.87909">
        <ele>1226.9</ele>
        <time>2021-07-23T16:00:07Z</time>
      </trkpt>
      <trkpt lat="45.06793" lon="2.87923">
        <ele>1226.3</ele>
        <time>2021-07-23T16:00:09Z</time>
      </trkpt>
      <trkpt lat="45.0679" lon="2.87937">
        <ele>1225.7</ele>
        <time>2021-07-23T16:00:11Z</time>
      </trkpt>
      <trkpt lat="45.06787" lon="2.87952">
        <ele>1225.2</ele>
        <time>2021-07-23T16:00:13Z</time>
      </trkpt>
      <trkpt lat="45.06783" lon="2.87965">
        <ele>1224.8</ele>
        <time>2021-07-23T16:00:15Z</time>
      </trkpt>
      <trkpt lat="45.06779" lon="2.87981">
        <ele>1224.3</ele>
        <time>2021-07-23T16:00:17Z</time>
      </trkpt>
      <trkpt lat="45.06775" lon="2.87995">
        <ele>1223.8</ele>
        <time>2021-07-23T16:00:19Z</time>
      </trkpt>
      <trkpt lat="45.0677" lon="2.88011">
        <ele>1223.1</ele>
        <time>2021-07-23T16:00:21Z</time>
      </trkpt>
      <trkpt lat="45.06766" lon="2.88026">
        <ele>1222.3</ele>
        <time>2021-07-23T16:00:23Z</time>
      </trkpt>
      <trkpt lat="45.06761" lon="2.88042">
        <ele>1221.4</ele>
        <time>2021-07-23T16:00:25Z</time>
      </trkpt>
      <trkpt lat="45.06757" lon="2.88056">
        <ele>1220.6</ele>
        <time>2021-07-23T16:00:27Z</time>
      </trkpt>
      <trkpt lat="45.06753" lon="2.8807">
        <ele>1219.8</ele>
        <time>2021-07-23T16:00:29Z</time>
      </trkpt>
      <trkpt lat="45.06749" lon="2.88083">
        <ele>1219</ele>
        <time>2021-07-23T16:00:31Z</time>
      </trkpt>
      <trkpt lat="45.06746" lon="2.88096">
        <ele>1217.9</ele>
        <time>2021-07-23T16:00:33Z</time>
      </trkpt>
      <trkpt lat="45.06744" lon="2.8811">
        <ele>1216.8</ele>
        <time>2021-07-23T16:00:35Z</time>
      </trkpt>
      <trkpt lat="45.06742" lon="2.88126">
        <ele>1215.5</ele>
        <time>2021-07-23T16:00:37Z</time>
      </trkpt>
      <trkpt lat="45.06742" lon="2.8814">
        <ele>1214.4</ele>
        <time>2021-07-23T16:00:39Z</time>
      </trkpt>
      <trkpt lat="45.06741" lon="2.88155">
        <ele>1213.4</ele>
        <time>2021-07-23T16:00:41Z</time>
      </trkpt>
      <trkpt lat="45.06742" lon="2.88169">
        <ele>1212.3</ele>
        <time>2021-07-23T16:00:43Z</time>
      </trkpt>
      <trkpt lat="45.06742" lon="2.88183">
        <ele>1211.2</ele>
        <time>2021-07-23T16:00:45Z</time>
      </trkpt>
      <trkpt lat="45.06743" lon="2.88197">
        <ele>1210</ele>
        <time>2021-07-23T16:00:47Z</time>
      </trkpt>
      <trkpt lat="45.06743" lon="2.88211">
        <ele>1208.9</ele>
        <time>2021-07-23T16:00:49Z</time>
      </trkpt>
      <trkpt lat="45.06745" lon="2.88225">
        <ele>1207.8</ele>
        <time>2021-07-23T16:00:51Z</time>
      </trkpt>
      <trkpt lat="45.06747" lon="2.88242">
        <ele>1206.5</ele>
        <time>2021-07-23T16:00:53Z</time>
      </trkpt>
      <trkpt lat="45.0675" lon="2.88264">
        <ele>1204.6</ele>
        <time>2021-07-23T16:00:55Z</time>
      </trkpt>
      <trkpt lat="45.06753" lon="2.88291">
        <ele>1202.1</ele>
        <time>2021-07-23T16:00:57Z</time>
      </trkpt>
      <trkpt lat="45.06754" lon="2.88316">
        <ele>1199.7</ele>
        <time>2021-07-23T16:00:59Z</time>
      </trkpt>
      <trkpt lat="45.06754" lon="2.88339">
        <ele>1197.8</ele>
        <time>2021-07-23T16:01:01Z</time>
      </trkpt>
      <trkpt lat="45.06749" lon="2.88363">
        <ele>1196.9</ele>
        <time>2021-07-23T16:01:03Z</time>
      </trkpt>
      <trkpt lat="45.06743" lon="2.88387">
        <ele>1195.9</ele>
        <time>2021-07-23T16:01:05Z</time>
      </trkpt>
      <trkpt lat="45.06736" lon="2.88411">
        <ele>1194.7</ele>
        <time>2021-07-23T16:01:07Z</time>
      </trkpt>
      <trkpt lat="45.0673" lon="2.88435">
        <ele>1193.8</ele>
        <time>2021-07-23T16:01:09Z</time>
      </trkpt>
      <trkpt lat="45.06721" lon="2.88457">
        <ele>1193</ele>
        <time>2021-07-23T16:01:11Z</time>
      </trkpt>
      <trkpt lat="45.06708" lon="2.88476">
        <ele>1192.1</ele>
        <time>2021-07-23T16:01:13Z</time>
      </trkpt>
      <trkpt lat="45.06694" lon="2.88491">
        <ele>1191.2</ele>
        <time>2021-07-23T16:01:15Z</time>
      </trkpt>
      <trkpt lat="45.06679" lon="2.88504">
        <ele>1190.4</ele>
        <time>2021-07-23T16:01:17Z</time>
      </trkpt>
      <trkpt lat="45.06667" lon="2.8852">
        <ele>1189.5</ele>
        <time>2021-07-23T16:01:19Z</time>
      </trkpt>
      <trkpt lat="45.06663" lon="2.88541">
        <ele>1188.8</ele>
        <time>2021-07-23T16:01:21Z</time>
      </trkpt>
      <trkpt lat="45.06664" lon="2.88562">
        <ele>1188.3</ele>
        <time>2021-07-23T16:01:23Z</time>
      </trkpt>
      <trkpt lat="45.06665" lon="2.88583">
        <ele>1187.9</ele>
        <time>2021-07-23T16:01:25Z</time>
      </trkpt>
      <trkpt lat="45.06665" lon="2.88604">
        <ele>1186.4</ele>
        <time>2021-07-23T16:01:27Z</time>
      </trkpt>
      <trkpt lat="45.06665" lon="2.88624">
        <ele>1185</ele>
        <time>2021-07-23T16:01:29Z</time>
      </trkpt>
      <trkpt lat="45.0667" lon="2.88647">
        <ele>1183.6</ele>
        <time>2021-07-23T16:01:31Z</time>
      </trkpt>
      <trkpt lat="45.06676" lon="2.88671">
        <ele>1182.3</ele>
        <time>2021-07-23T16:01:33Z</time>
      </trkpt>
      <trkpt lat="45.06682" lon="2.88697">
        <ele>1181.6</ele>
        <time>2021-07-23T16:01:35Z</time>
      </trkpt>
      <trkpt lat="45.06689" lon="2.88722">
        <ele>1181</ele>
        <time>2021-07-23T16:01:37Z</time>
      </trkpt>
      <trkpt lat="45.06696" lon="2.88749">
        <ele>1180.5</ele>
        <time>2021-07-23T16:01:39Z</time>
      </trkpt>
      <trkpt lat="45.06702" lon="2.88776">
        <ele>1179.3</ele>
        <time>2021-07-23T16:01:41Z</time>
      </trkpt>
      <trkpt lat="45.0671" lon="2.88803">
        <ele>1178.1</ele>
        <time>2021-07-23T16:01:43Z</time>
      </trkpt>
      <trkpt lat="45.06717" lon="2.88831">
        <ele>1176.8</ele>
        <time>2021-07-23T16:01:45Z</time>
      </trkpt>
      <trkpt lat="45.06723" lon="2.88855">
        <ele>1175.9</ele>
        <time>2021-07-23T16:01:47Z</time>
      </trkpt>
      <trkpt lat="45.06728" lon="2.88874">
        <ele>1175.3</ele>
        <time>2021-07-23T16:01:49Z</time>
      </trkpt>
      <trkpt lat="45.06732" lon="2.88888">
        <ele>1174.9</ele>
        <time>2021-07-23T16:01:51Z</time>
      </trkpt>
      <trkpt lat="45.06735" lon="2.88899">
        <ele>1174.6</ele>
        <time>2021-07-23T16:01:53Z</time>
      </trkpt>
      <trkpt lat="45.06736" lon="2.88908">
        <ele>1174.2</ele>
        <time>2021-07-23T16:01:55Z</time>
      </trkpt>
      <trkpt lat="45.06737" lon="2.88921">
        <ele>1173.7</ele>
        <time>2021-07-23T16:01:57Z</time>
      </trkpt>
      <trkpt lat="45.06742" lon="2.88931">
        <ele>1173.6</ele>
        <time>2021-07-23T16:01:59Z</time>
      </trkpt>
      <trkpt lat="45.06747" lon="2.88936">
        <ele>1173.8</ele>
        <time>2021-07-23T16:02:01Z</time>
      </trkpt>
      <trkpt lat="45.06752" lon="2.88939">
        <ele>1174.1</ele>
        <time>2021-07-23T16:02:03Z</time>
      </trkpt>
      <trkpt lat="45.06756" lon="2.88941">
        <ele>1174.4</ele>
        <time>2021-07-23T16:02:05Z</time>
      </trkpt>
      <trkpt lat="45.06764" lon="2.88947">
        <ele>1174.9</ele>
        <time>2021-07-23T16:02:09Z</time>
      </trkpt>
      <trkpt lat="45.06772" lon="2.8895">
        <ele>1175.4</ele>
        <time>2021-07-23T16:02:13Z</time>
      </trkpt>
      <trkpt lat="45.06781" lon="2.8895">
        <ele>1176.2</ele>
        <time>2021-07-23T16:02:17Z</time>
      </trkpt>
      <trkpt lat="45.06789" lon="2.88948">
        <ele>1177.1</ele>
        <time>2021-07-23T16:02:21Z</time>
      </trkpt>
      <trkpt lat="45.06795" lon="2.88944">
        <ele>1177.9</ele>
        <time>2021-07-23T16:02:25Z</time>
      </trkpt>
      <trkpt lat="45.06802" lon="2.88937">
        <ele>1178.9</ele>
        <time>2021-07-23T16:02:29Z</time>
      </trkpt>
      <trkpt lat="45.06809" lon="2.8893">
        <ele>1179.9</ele>
        <time>2021-07-23T16:02:33Z</time>
      </trkpt>
      <trkpt lat="45.06815" lon="2.88923">
        <ele>1180.9</ele>
        <time>2021-07-23T16:02:37Z</time>
      </trkpt>
      <trkpt lat="45.06821" lon="2.88916">
        <ele>1181.8</ele>
        <time>2021-07-23T16:02:41Z</time>
      </trkpt>
      <trkpt lat="45.06826" lon="2.88908">
        <ele>1182.5</ele>
        <time>2021-07-23T16:02:45Z</time>
      </trkpt>
      <trkpt lat="45.06831" lon="2.88901">
        <ele>1183.2</ele>
        <time>2021-07-23T16:02:49Z</time>
      </trkpt>
      <trkpt lat="45.06836" lon="2.88893">
        <ele>1183.5</ele>
        <time>2021-07-23T16:02:53Z</time>
      </trkpt>
      <trkpt lat="45.06842" lon="2.88884">
        <ele>1183.7</ele>
        <time>2021-07-23T16:02:57Z</time>
      </trkpt>
      <trkpt lat="45.06845" lon="2.88879">
        <ele>1183.8</ele>
        <time>2021-07-23T16:02:59Z</time>
      </trkpt>
      <trkpt lat="45.06848" lon="2.88874">
        <ele>1183.8</ele>
        <time>2021-07-23T16:03:01Z</time>
      </trkpt>
      <trkpt lat="45.06854" lon="2.88865">
        <ele>1184</ele>
        <time>2021-07-23T16:03:05Z</time>
      </trkpt>
      <trkpt lat="45.06857" lon="2.8886">
        <ele>1184.1</ele>
        <time>2021-07-23T16:03:07Z</time>
      </trkpt>
      <trkpt lat="45.06861" lon="2.88855">
        <ele>1184.1</ele>
        <time>2021-07-23T16:03:09Z</time>
      </trkpt>
      <trkpt lat="45.06865" lon="2.8885">
        <ele>1184.2</ele>
        <time>2021-07-23T16:03:11Z</time>
      </trkpt>
      <trkpt lat="45.06869" lon="2.88845">
        <ele>1184.3</ele>
        <time>2021-07-23T16:03:13Z</time>
      </trkpt>
      <trkpt lat="45.06873" lon="2.88841">
        <ele>1184.3</ele>
        <time>2021-07-23T16:03:15Z</time>
      </trkpt>
      <trkpt lat="45.06878" lon="2.88837">
        <ele>1184.4</ele>
        <time>2021-07-23T16:03:17Z</time>
      </trkpt>
      <trkpt lat="45.06883" lon="2.88833">
        <ele>1184.4</ele>
        <time>2021-07-23T16:03:19Z</time>
      </trkpt>
      <trkpt lat="45.06889" lon="2.88831">
        <ele>1184.4</ele>
        <time>2021-07-23T16:03:21Z</time>
      </trkpt>
      <trkpt lat="45.06896" lon="2.8883">
        <ele>1184.3</ele>
        <time>2021-07-23T16:03:23Z</time>
      </trkpt>
      <trkpt lat="45.06904" lon="2.88828">
        <ele>1184.2</ele>
        <time>2021-07-23T16:03:25Z</time>
      </trkpt>
      <trkpt lat="45.06912" lon="2.88827">
        <ele>1184.1</ele>
        <time>2021-07-23T16:03:27Z</time>
      </trkpt>
      <trkpt lat="45.06921" lon="2.88827">
        <ele>1183.8</ele>
        <time>2021-07-23T16:03:29Z</time>
      </trkpt>
      <trkpt lat="45.06927" lon="2.88826">
        <ele>1183.5</ele>
        <time>2021-07-23T16:03:31Z</time>
      </trkpt>
      <trkpt lat="45.06932" lon="2.88825">
        <ele>1183.3</ele>
        <time>2021-07-23T16:03:33Z</time>
      </trkpt>
      <trkpt lat="45.06937" lon="2.88825">
        <ele>1183</ele>
        <time>2021-07-23T16:03:59Z</time>
      </trkpt>
      <trkpt lat="45.06948" lon="2.88825">
        <ele>1182.5</ele>
        <time>2021-07-23T16:04:03Z</time>
      </trkpt>
      <trkpt lat="45.06956" lon="2.88826">
        <ele>1182.1</ele>
        <time>2021-07-23T16:04:05Z</time>
      </trkpt>
      <trkpt lat="45.06967" lon="2.88827">
        <ele>1181.6</ele>
        <time>2021-07-23T16:04:07Z</time>
      </trkpt>
      <trkpt lat="45.06978" lon="2.88827">
        <ele>1181.1</ele>
        <time>2021-07-23T16:04:09Z</time>
      </trkpt>
      <trkpt lat="45.0699" lon="2.88827">
        <ele>1180.5</ele>
        <time>2021-07-23T16:04:11Z</time>
      </trkpt>
      <trkpt lat="45.07003" lon="2.88828">
        <ele>1180</ele>
        <time>2021-07-23T16:04:13Z</time>
      </trkpt>
      <trkpt lat="45.07016" lon="2.88829">
        <ele>1179.7</ele>
        <time>2021-07-23T16:04:15Z</time>
      </trkpt>
      <trkpt lat="45.07029" lon="2.8883">
        <ele>1179.3</ele>
        <time>2021-07-23T16:04:17Z</time>
      </trkpt>
      <trkpt lat="45.07041" lon="2.88832">
        <ele>1179</ele>
        <time>2021-07-23T16:04:19Z</time>
      </trkpt>
      <trkpt lat="45.07053" lon="2.88833">
        <ele>1178.7</ele>
        <time>2021-07-23T16:04:21Z</time>
      </trkpt>
      <trkpt lat="45.07065" lon="2.88834">
        <ele>1178.4</ele>
        <time>2021-07-23T16:04:23Z</time>
      </trkpt>
      <trkpt lat="45.07077" lon="2.88835">
        <ele>1178.1</ele>
        <time>2021-07-23T16:04:25Z</time>
      </trkpt>
      <trkpt lat="45.07089" lon="2.88837">
        <ele>1177.7</ele>
        <time>2021-07-23T16:04:27Z</time>
      </trkpt>
      <trkpt lat="45.07101" lon="2.88839">
        <ele>1177</ele>
        <time>2021-07-23T16:04:29Z</time>
      </trkpt>
      <trkpt lat="45.07113" lon="2.88842">
        <ele>1176.4</ele>
        <time>2021-07-23T16:04:31Z</time>
      </trkpt>
      <trkpt lat="45.07125" lon="2.88845">
        <ele>1175.8</ele>
        <time>2021-07-23T16:04:33Z</time>
      </trkpt>
      <trkpt lat="45.07139" lon="2.88847">
        <ele>1175.1</ele>
        <time>2021-07-23T16:04:35Z</time>
      </trkpt>
      <trkpt lat="45.07152" lon="2.88849">
        <ele>1174.5</ele>
        <time>2021-07-23T16:04:37Z</time>
      </trkpt>
      <trkpt lat="45.07166" lon="2.88851">
        <ele>1173.8</ele>
        <time>2021-07-23T16:04:39Z</time>
      </trkpt>
      <trkpt lat="45.07181" lon="2.88853">
        <ele>1173.2</ele>
        <time>2021-07-23T16:04:41Z</time>
      </trkpt>
      <trkpt lat="45.07197" lon="2.88854">
        <ele>1172.5</ele>
        <time>2021-07-23T16:04:43Z</time>
      </trkpt>
      <trkpt lat="45.07213" lon="2.8886">
        <ele>1171.7</ele>
        <time>2021-07-23T16:04:45Z</time>
      </trkpt>
      <trkpt lat="45.07229" lon="2.88864">
        <ele>1170.8</ele>
        <time>2021-07-23T16:04:47Z</time>
      </trkpt>
      <trkpt lat="45.07246" lon="2.8887">
        <ele>1169.9</ele>
        <time>2021-07-23T16:04:49Z</time>
      </trkpt>
      <trkpt lat="45.07262" lon="2.88876">
        <ele>1169.1</ele>
        <time>2021-07-23T16:04:51Z</time>
      </trkpt>
      <trkpt lat="45.07272" lon="2.88882">
        <ele>1168.6</ele>
        <time>2021-07-23T16:04:53Z</time>
      </trkpt>
      <trkpt lat="45.07281" lon="2.88885">
        <ele>1168.2</ele>
        <time>2021-07-23T16:04:57Z</time>
      </trkpt>
      <trkpt lat="45.07286" lon="2.88887">
        <ele>1167.9</ele>
        <time>2021-07-23T16:04:59Z</time>
      </trkpt>
      <trkpt lat="45.07291" lon="2.88888">
        <ele>1167.7</ele>
        <time>2021-07-23T16:05:01Z</time>
      </trkpt>
      <trkpt lat="45.07297" lon="2.88889">
        <ele>1167.5</ele>
        <time>2021-07-23T16:05:03Z</time>
      </trkpt>
      <trkpt lat="45.07304" lon="2.88889">
        <ele>1167.3</ele>
        <time>2021-07-23T16:05:05Z</time>
      </trkpt>
      <trkpt lat="45.07311" lon="2.8889">
        <ele>1167</ele>
        <time>2021-07-23T16:05:07Z</time>
      </trkpt>
      <trkpt lat="45.07317" lon="2.8889">
        <ele>1166.8</ele>
        <time>2021-07-23T16:05:09Z</time>
      </trkpt>
      <trkpt lat="45.07324" lon="2.8889">
        <ele>1166.6</ele>
        <time>2021-07-23T16:05:11Z</time>
      </trkpt>
      <trkpt lat="45.0733" lon="2.88889">
        <ele>1166.4</ele>
        <time>2021-07-23T16:05:13Z</time>
      </trkpt>
      <trkpt lat="45.07337" lon="2.88888">
        <ele>1166.4</ele>
        <time>2021-07-23T16:05:15Z</time>
      </trkpt>
      <trkpt lat="45.07344" lon="2.88887">
        <ele>1166.5</ele>
        <time>2021-07-23T16:05:17Z</time>
      </trkpt>
      <trkpt lat="45.07351" lon="2.88885">
        <ele>1166.6</ele>
        <time>2021-07-23T16:05:19Z</time>
      </trkpt>
      <trkpt lat="45.07356" lon="2.88884">
        <ele>1166.8</ele>
        <time>2021-07-23T16:05:21Z</time>
      </trkpt>
      <trkpt lat="45.07361" lon="2.88882">
        <ele>1166.9</ele>
        <time>2021-07-23T16:05:23Z</time>
      </trkpt>
      <trkpt lat="45.07371" lon="2.8888">
        <ele>1167</ele>
        <time>2021-07-23T16:05:27Z</time>
      </trkpt>
      <trkpt lat="45.07377" lon="2.88878">
        <ele>1167.1</ele>
        <time>2021-07-23T16:05:29Z</time>
      </trkpt>
      <trkpt lat="45.07384" lon="2.88876">
        <ele>1167.3</ele>
        <time>2021-07-23T16:05:31Z</time>
      </trkpt>
      <trkpt lat="45.07391" lon="2.88874">
        <ele>1167.4</ele>
        <time>2021-07-23T16:05:33Z</time>
      </trkpt>
      <trkpt lat="45.07397" lon="2.88871">
        <ele>1167.6</ele>
        <time>2021-07-23T16:05:35Z</time>
      </trkpt>
      <trkpt lat="45.07404" lon="2.88869">
        <ele>1167.6</ele>
        <time>2021-07-23T16:05:37Z</time>
      </trkpt>
      <trkpt lat="45.07409" lon="2.88873">
        <ele>1167.5</ele>
        <time>2021-07-23T16:05:39Z</time>
      </trkpt>
      <trkpt lat="45.07413" lon="2.88882">
        <ele>1167.2</ele>
        <time>2021-07-23T16:05:41Z</time>
      </trkpt>
      <trkpt lat="45.07414" lon="2.88893">
        <ele>1166.8</ele>
        <time>2021-07-23T16:05:43Z</time>
      </trkpt>
      <trkpt lat="45.07416" lon="2.88905">
        <ele>1166.4</ele>
        <time>2021-07-23T16:05:45Z</time>
      </trkpt>
      <trkpt lat="45.07418" lon="2.88917">
        <ele>1166</ele>
        <time>2021-07-23T16:05:47Z</time>
      </trkpt>
      <trkpt lat="45.07419" lon="2.88925">
        <ele>1165.7</ele>
        <time>2021-07-23T16:05:49Z</time>
      </trkpt>
      <trkpt lat="45.07419" lon="2.88933">
        <ele>1165.4</ele>
        <time>2021-07-23T16:05:51Z</time>
      </trkpt>
      <trkpt lat="45.07419" lon="2.88942">
        <ele>1165.1</ele>
        <time>2021-07-23T16:05:53Z</time>
      </trkpt>
      <trkpt lat="45.07419" lon="2.8895">
        <ele>1164.8</ele>
        <time>2021-07-23T16:05:55Z</time>
      </trkpt>
      <trkpt lat="45.0742" lon="2.8896">
        <ele>1164.5</ele>
        <time>2021-07-23T16:05:57Z</time>
      </trkpt>
      <trkpt lat="45.07423" lon="2.88967">
        <ele>1164.2</ele>
        <time>2021-07-23T16:05:59Z</time>
      </trkpt>
      <trkpt lat="45.07426" lon="2.88975">
        <ele>1163.9</ele>
        <time>2021-07-23T16:06:01Z</time>
      </trkpt>
      <trkpt lat="45.07432" lon="2.88982">
        <ele>1163.7</ele>
        <time>2021-07-23T16:06:03Z</time>
      </trkpt>
      <trkpt lat="45.07437" lon="2.8899">
        <ele>1163.4</ele>
        <time>2021-07-23T16:06:05Z</time>
      </trkpt>
      <trkpt lat="45.0744" lon="2.89001">
        <ele>1163</ele>
        <time>2021-07-23T16:06:07Z</time>
      </trkpt>
      <trkpt lat="45.07445" lon="2.89011">
        <ele>1162.5</ele>
        <time>2021-07-23T16:06:09Z</time>
      </trkpt>
      <trkpt lat="45.0745" lon="2.89021">
        <ele>1162.1</ele>
        <time>2021-07-23T16:06:11Z</time>
      </trkpt>
      <trkpt lat="45.07456" lon="2.8903">
        <ele>1161.6</ele>
        <time>2021-07-23T16:06:13Z</time>
      </trkpt>
      <trkpt lat="45.07462" lon="2.89034">
        <ele>1161.3</ele>
        <time>2021-07-23T16:06:15Z</time>
      </trkpt>
      <trkpt lat="45.07468" lon="2.89034">
        <ele>1161.3</ele>
        <time>2021-07-23T16:06:17Z</time>
      </trkpt>
      <trkpt lat="45.07475" lon="2.89032">
        <ele>1161.3</ele>
        <time>2021-07-23T16:06:19Z</time>
      </trkpt>
      <trkpt lat="45.07482" lon="2.89028">
        <ele>1161.5</ele>
        <time>2021-07-23T16:06:21Z</time>
      </trkpt>
      <trkpt lat="45.07488" lon="2.89025">
        <ele>1161.6</ele>
        <time>2021-07-23T16:06:23Z</time>
      </trkpt>
      <trkpt lat="45.07496" lon="2.89023">
        <ele>1161.7</ele>
        <time>2021-07-23T16:06:25Z</time>
      </trkpt>
      <trkpt lat="45.07503" lon="2.89021">
        <ele>1161.6</ele>
        <time>2021-07-23T16:06:27Z</time>
      </trkpt>
      <trkpt lat="45.07511" lon="2.8902">
        <ele>1161.5</ele>
        <time>2021-07-23T16:06:29Z</time>
      </trkpt>
      <trkpt lat="45.07518" lon="2.89018">
        <ele>1161.3</ele>
        <time>2021-07-23T16:06:31Z</time>
      </trkpt>
      <trkpt lat="45.07525" lon="2.89016">
        <ele>1161.2</ele>
        <time>2021-07-23T16:06:33Z</time>
      </trkpt>
      <trkpt lat="45.07532" lon="2.89014">
        <ele>1161.1</ele>
        <time>2021-07-23T16:06:35Z</time>
      </trkpt>
      <trkpt lat="45.07538" lon="2.89012">
        <ele>1161</ele>
        <time>2021-07-23T16:06:37Z</time>
      </trkpt>
      <trkpt lat="45.07545" lon="2.89011">
        <ele>1160.8</ele>
        <time>2021-07-23T16:06:41Z</time>
      </trkpt>
      <trkpt lat="45.0755" lon="2.89011">
        <ele>1160.6</ele>
        <time>2021-07-23T16:06:45Z</time>
      </trkpt>
      <trkpt lat="45.07551" lon="2.89018">
        <ele>1160.2</ele>
        <time>2021-07-23T16:07:29Z</time>
      </trkpt>
      <trkpt lat="45.0755" lon="2.89026">
        <ele>1159.9</ele>
        <time>2021-07-23T16:07:51Z</time>
      </trkpt>
      <trkpt lat="45.07549" lon="2.89032">
        <ele>1159.5</ele>
        <time>2021-07-23T16:08:03Z</time>
      </trkpt>
      <trkpt lat="45.07547" lon="2.89041">
        <ele>1159.2</ele>
        <time>2021-07-23T16:08:45Z</time>
      </trkpt>
      <trkpt lat="45.07547" lon="2.89054">
        <ele>1158.4</ele>
        <time>2021-07-23T16:08:49Z</time>
      </trkpt>
      <trkpt lat="45.07549" lon="2.89062">
        <ele>1158</ele>
        <time>2021-07-23T16:08:51Z</time>
      </trkpt>
      <trkpt lat="45.07551" lon="2.8907">
        <ele>1157.5</ele>
        <time>2021-07-23T16:08:53Z</time>
      </trkpt>
      <trkpt lat="45.07553" lon="2.89079">
        <ele>1156.9</ele>
        <time>2021-07-23T16:08:55Z</time>
      </trkpt>
      <trkpt lat="45.07557" lon="2.89091">
        <ele>1156.3</ele>
        <time>2021-07-23T16:08:57Z</time>
      </trkpt>
      <trkpt lat="45.07562" lon="2.89103">
        <ele>1155.5</ele>
        <time>2021-07-23T16:08:59Z</time>
      </trkpt>
      <trkpt lat="45.07565" lon="2.89116">
        <ele>1154.7</ele>
        <time>2021-07-23T16:09:01Z</time>
      </trkpt>
      <trkpt lat="45.0757" lon="2.89128">
        <ele>1153.8</ele>
        <time>2021-07-23T16:09:03Z</time>
      </trkpt>
      <trkpt lat="45.07575" lon="2.8914">
        <ele>1152.9</ele>
        <time>2021-07-23T16:09:05Z</time>
      </trkpt>
      <trkpt lat="45.07579" lon="2.89153">
        <ele>1152</ele>
        <time>2021-07-23T16:09:07Z</time>
      </trkpt>
      <trkpt lat="45.07582" lon="2.89167">
        <ele>1151.1</ele>
        <time>2021-07-23T16:09:09Z</time>
      </trkpt>
      <trkpt lat="45.07585" lon="2.89181">
        <ele>1150.3</ele>
        <time>2021-07-23T16:09:11Z</time>
      </trkpt>
      <trkpt lat="45.07588" lon="2.89195">
        <ele>1149.1</ele>
        <time>2021-07-23T16:09:13Z</time>
      </trkpt>
      <trkpt lat="45.07591" lon="2.89211">
        <ele>1147.9</ele>
        <time>2021-07-23T16:09:15Z</time>
      </trkpt>
      <trkpt lat="45.07594" lon="2.89228">
        <ele>1146.8</ele>
        <time>2021-07-23T16:09:17Z</time>
      </trkpt>
      <trkpt lat="45.07596" lon="2.89246">
        <ele>1145.7</ele>
        <time>2021-07-23T16:09:19Z</time>
      </trkpt>
      <trkpt lat="45.07599" lon="2.89264">
        <ele>1144.6</ele>
        <time>2021-07-23T16:09:21Z</time>
      </trkpt>
      <trkpt lat="45.076" lon="2.89282">
        <ele>1143.9</ele>
        <time>2021-07-23T16:09:23Z</time>
      </trkpt>
      <trkpt lat="45.07601" lon="2.893">
        <ele>1143.3</ele>
        <time>2021-07-23T16:09:25Z</time>
      </trkpt>
      <trkpt lat="45.07601" lon="2.89319">
        <ele>1142.8</ele>
        <time>2021-07-23T16:09:27Z</time>
      </trkpt>
      <trkpt lat="45.076" lon="2.89337">
        <ele>1142.4</ele>
        <time>2021-07-23T16:09:29Z</time>
      </trkpt>
      <trkpt lat="45.076" lon="2.89356">
        <ele>1141.6</ele>
        <time>2021-07-23T16:09:31Z</time>
      </trkpt>
      <trkpt lat="45.076" lon="2.89375">
        <ele>1140.8</ele>
        <time>2021-07-23T16:09:33Z</time>
      </trkpt>
      <trkpt lat="45.07599" lon="2.89393">
        <ele>1140</ele>
        <time>2021-07-23T16:09:35Z</time>
      </trkpt>
      <trkpt lat="45.07598" lon="2.89412">
        <ele>1139.3</ele>
        <time>2021-07-23T16:09:37Z</time>
      </trkpt>
      <trkpt lat="45.07597" lon="2.89431">
        <ele>1138</ele>
        <time>2021-07-23T16:09:39Z</time>
      </trkpt>
      <trkpt lat="45.07595" lon="2.89451">
        <ele>1136.7</ele>
        <time>2021-07-23T16:09:41Z</time>
      </trkpt>
      <trkpt lat="45.07592" lon="2.89471">
        <ele>1135.5</ele>
        <time>2021-07-23T16:09:43Z</time>
      </trkpt>
      <trkpt lat="45.07589" lon="2.8949">
        <ele>1134.3</ele>
        <time>2021-07-23T16:09:45Z</time>
      </trkpt>
      <trkpt lat="45.07589" lon="2.89508">
        <ele>1133.3</ele>
        <time>2021-07-23T16:09:47Z</time>
      </trkpt>
      <trkpt lat="45.07592" lon="2.89526">
        <ele>1132.6</ele>
        <time>2021-07-23T16:09:49Z</time>
      </trkpt>
      <trkpt lat="45.07594" lon="2.89543">
        <ele>1131.9</ele>
        <time>2021-07-23T16:09:51Z</time>
      </trkpt>
      <trkpt lat="45.07596" lon="2.89562">
        <ele>1131.2</ele>
        <time>2021-07-23T16:09:53Z</time>
      </trkpt>
      <trkpt lat="45.07597" lon="2.8958">
        <ele>1130.6</ele>
        <time>2021-07-23T16:09:55Z</time>
      </trkpt>
      <trkpt lat="45.07598" lon="2.89599">
        <ele>1129.8</ele>
        <time>2021-07-23T16:09:57Z</time>
      </trkpt>
      <trkpt lat="45.07598" lon="2.89619">
        <ele>1129</ele>
        <time>2021-07-23T16:09:59Z</time>
      </trkpt>
      <trkpt lat="45.07598" lon="2.89638">
        <ele>1128.3</ele>
        <time>2021-07-23T16:10:01Z</time>
      </trkpt>
      <trkpt lat="45.076" lon="2.89657">
        <ele>1127.4</ele>
        <time>2021-07-23T16:10:03Z</time>
      </trkpt>
      <trkpt lat="45.07602" lon="2.89674">
        <ele>1126.6</ele>
        <time>2021-07-23T16:10:05Z</time>
      </trkpt>
      <trkpt lat="45.07608" lon="2.89691">
        <ele>1125.4</ele>
        <time>2021-07-23T16:10:07Z</time>
      </trkpt>
      <trkpt lat="45.07614" lon="2.89708">
        <ele>1124.1</ele>
        <time>2021-07-23T16:10:09Z</time>
      </trkpt>
      <trkpt lat="45.0762" lon="2.89724">
        <ele>1122.7</ele>
        <time>2021-07-23T16:10:11Z</time>
      </trkpt>
      <trkpt lat="45.07627" lon="2.89741">
        <ele>1121.1</ele>
        <time>2021-07-23T16:10:13Z</time>
      </trkpt>
      <trkpt lat="45.07634" lon="2.89758">
        <ele>1119.3</ele>
        <time>2021-07-23T16:10:15Z</time>
      </trkpt>
      <trkpt lat="45.07642" lon="2.89775">
        <ele>1117.5</ele>
        <time>2021-07-23T16:10:17Z</time>
      </trkpt>
      <trkpt lat="45.0765" lon="2.89791">
        <ele>1115.8</ele>
        <time>2021-07-23T16:10:19Z</time>
      </trkpt>
      <trkpt lat="45.07658" lon="2.89812">
        <ele>1114</ele>
        <time>2021-07-23T16:10:21Z</time>
      </trkpt>
      <trkpt lat="45.07663" lon="2.89837">
        <ele>1112.6</ele>
        <time>2021-07-23T16:10:23Z</time>
      </trkpt>
      <trkpt lat="45.07668" lon="2.89858">
        <ele>1111.7</ele>
        <time>2021-07-23T16:10:25Z</time>
      </trkpt>
      <trkpt lat="45.07674" lon="2.89878">
        <ele>1110.7</ele>
        <time>2021-07-23T16:10:27Z</time>
      </trkpt>
      <trkpt lat="45.07681" lon="2.89893">
        <ele>1109.5</ele>
        <time>2021-07-23T16:10:29Z</time>
      </trkpt>
      <trkpt lat="45.07689" lon="2.89905">
        <ele>1108.3</ele>
        <time>2021-07-23T16:10:31Z</time>
      </trkpt>
      <trkpt lat="45.07696" lon="2.89913">
        <ele>1107.1</ele>
        <time>2021-07-23T16:10:33Z</time>
      </trkpt>
      <trkpt lat="45.07705" lon="2.89921">
        <ele>1105.6</ele>
        <time>2021-07-23T16:10:35Z</time>
      </trkpt>
      <trkpt lat="45.07716" lon="2.89933">
        <ele>1103.7</ele>
        <time>2021-07-23T16:10:37Z</time>
      </trkpt>
      <trkpt lat="45.07726" lon="2.89951">
        <ele>1102</ele>
        <time>2021-07-23T16:10:39Z</time>
      </trkpt>
      <trkpt lat="45.07738" lon="2.8997">
        <ele>1100.4</ele>
        <time>2021-07-23T16:10:41Z</time>
      </trkpt>
      <trkpt lat="45.07749" lon="2.89989">
        <ele>1098.9</ele>
        <time>2021-07-23T16:10:43Z</time>
      </trkpt>
      <trkpt lat="45.07761" lon="2.90007">
        <ele>1097.8</ele>
        <time>2021-07-23T16:10:45Z</time>
      </trkpt>
      <trkpt lat="45.07771" lon="2.90027">
        <ele>1096.6</ele>
        <time>2021-07-23T16:10:47Z</time>
      </trkpt>
      <trkpt lat="45.07781" lon="2.90046">
        <ele>1095.7</ele>
        <time>2021-07-23T16:10:49Z</time>
      </trkpt>
      <trkpt lat="45.0779" lon="2.90066">
        <ele>1095</ele>
        <time>2021-07-23T16:10:51Z</time>
      </trkpt>
      <trkpt lat="45.078" lon="2.90085">
        <ele>1094.4</ele>
        <time>2021-07-23T16:10:53Z</time>
      </trkpt>
      <trkpt lat="45.07807" lon="2.90104">
        <ele>1094.3</ele>
        <time>2021-07-23T16:10:55Z</time>
      </trkpt>
      <trkpt lat="45.07814" lon="2.90123">
        <ele>1094.1</ele>
        <time>2021-07-23T16:10:57Z</time>
      </trkpt>
      <trkpt lat="45.0782" lon="2.90141">
        <ele>1094.1</ele>
        <time>2021-07-23T16:10:59Z</time>
      </trkpt>
      <trkpt lat="45.07825" lon="2.90159">
        <ele>1094.3</ele>
        <time>2021-07-23T16:11:01Z</time>
      </trkpt>
      <trkpt lat="45.0783" lon="2.90176">
        <ele>1094.1</ele>
        <time>2021-07-23T16:11:03Z</time>
      </trkpt>
      <trkpt lat="45.07836" lon="2.90192">
        <ele>1093.7</ele>
        <time>2021-07-23T16:11:05Z</time>
      </trkpt>
      <trkpt lat="45.0784" lon="2.90207">
        <ele>1093.1</ele>
        <time>2021-07-23T16:11:07Z</time>
      </trkpt>
      <trkpt lat="45.07845" lon="2.90224">
        <ele>1092.6</ele>
        <time>2021-07-23T16:11:09Z</time>
      </trkpt>
      <trkpt lat="45.07852" lon="2.90241">
        <ele>1091.9</ele>
        <time>2021-07-23T16:11:11Z</time>
      </trkpt>
      <trkpt lat="45.0786" lon="2.90259">
        <ele>1090.9</ele>
        <time>2021-07-23T16:11:13Z</time>
      </trkpt>
      <trkpt lat="45.07867" lon="2.90279">
        <ele>1089.6</ele>
        <time>2021-07-23T16:11:15Z</time>
      </trkpt>
      <trkpt lat="45.07872" lon="2.903">
        <ele>1088.6</ele>
        <time>2021-07-23T16:11:17Z</time>
      </trkpt>
      <trkpt lat="45.07877" lon="2.90321">
        <ele>1087.6</ele>
        <time>2021-07-23T16:11:19Z</time>
      </trkpt>
      <trkpt lat="45.07882" lon="2.90341">
        <ele>1086.8</ele>
        <time>2021-07-23T16:11:21Z</time>
      </trkpt>
      <trkpt lat="45.07888" lon="2.90358">
        <ele>1086.5</ele>
        <time>2021-07-23T16:11:23Z</time>
      </trkpt>
      <trkpt lat="45.07895" lon="2.9037">
        <ele>1086.1</ele>
        <time>2021-07-23T16:11:25Z</time>
      </trkpt>
      <trkpt lat="45.07905" lon="2.90377">
        <ele>1085.5</ele>
        <time>2021-07-23T16:11:27Z</time>
      </trkpt>
      <trkpt lat="45.07919" lon="2.90382">
        <ele>1084.6</ele>
        <time>2021-07-23T16:11:29Z</time>
      </trkpt>
      <trkpt lat="45.07934" lon="2.90387">
        <ele>1083.4</ele>
        <time>2021-07-23T16:11:31Z</time>
      </trkpt>
      <trkpt lat="45.0795" lon="2.90396">
        <ele>1082.5</ele>
        <time>2021-07-23T16:11:33Z</time>
      </trkpt>
      <trkpt lat="45.07965" lon="2.9041">
        <ele>1082.1</ele>
        <time>2021-07-23T16:11:35Z</time>
      </trkpt>
      <trkpt lat="45.07978" lon="2.90426">
        <ele>1081.8</ele>
        <time>2021-07-23T16:11:37Z</time>
      </trkpt>
      <trkpt lat="45.0799" lon="2.90442">
        <ele>1081.5</ele>
        <time>2021-07-23T16:11:39Z</time>
      </trkpt>
      <trkpt lat="45.07999" lon="2.90455">
        <ele>1081.4</ele>
        <time>2021-07-23T16:11:41Z</time>
      </trkpt>
      <trkpt lat="45.08006" lon="2.90466">
        <ele>1081.2</ele>
        <time>2021-07-23T16:11:43Z</time>
      </trkpt>
      <trkpt lat="45.08012" lon="2.90475">
        <ele>1081.1</ele>
        <time>2021-07-23T16:11:45Z</time>
      </trkpt>
      <trkpt lat="45.08019" lon="2.90483">
        <ele>1080.9</ele>
        <time>2021-07-23T16:11:47Z</time>
      </trkpt>
      <trkpt lat="45.08026" lon="2.90488">
        <ele>1080.6</ele>
        <time>2021-07-23T16:11:49Z</time>
      </trkpt>
      <trkpt lat="45.08033" lon="2.90491">
        <ele>1080.2</ele>
        <time>2021-07-23T16:11:51Z</time>
      </trkpt>
      <trkpt lat="45.0804" lon="2.90494">
        <ele>1079.8</ele>
        <time>2021-07-23T16:11:53Z</time>
      </trkpt>
      <trkpt lat="45.08048" lon="2.90498">
        <ele>1079.4</ele>
        <time>2021-07-23T16:11:55Z</time>
      </trkpt>
      <trkpt lat="45.08056" lon="2.90503">
        <ele>1079.1</ele>
        <time>2021-07-23T16:11:57Z</time>
      </trkpt>
      <trkpt lat="45.08064" lon="2.90509">
        <ele>1078.6</ele>
        <time>2021-07-23T16:11:59Z</time>
      </trkpt>
      <trkpt lat="45.08072" lon="2.90518">
        <ele>1078.2</ele>
        <time>2021-07-23T16:12:01Z</time>
      </trkpt>
      <trkpt lat="45.0808" lon="2.90528">
        <ele>1077.9</ele>
        <time>2021-07-23T16:12:03Z</time>
      </trkpt>
      <trkpt lat="45.08087" lon="2.90538">
        <ele>1077.4</ele>
        <time>2021-07-23T16:12:05Z</time>
      </trkpt>
      <trkpt lat="45.08096" lon="2.90548">
        <ele>1076.4</ele>
        <time>2021-07-23T16:12:07Z</time>
      </trkpt>
      <trkpt lat="45.08106" lon="2.90559">
        <ele>1075.2</ele>
        <time>2021-07-23T16:12:09Z</time>
      </trkpt>
      <trkpt lat="45.08115" lon="2.90571">
        <ele>1073.9</ele>
        <time>2021-07-23T16:12:11Z</time>
      </trkpt>
      <trkpt lat="45.08125" lon="2.90586">
        <ele>1072.5</ele>
        <time>2021-07-23T16:12:13Z</time>
      </trkpt>
      <trkpt lat="45.08136" lon="2.90604">
        <ele>1071.1</ele>
        <time>2021-07-23T16:12:15Z</time>
      </trkpt>
      <trkpt lat="45.08146" lon="2.90622">
        <ele>1070</ele>
        <time>2021-07-23T16:12:17Z</time>
      </trkpt>
      <trkpt lat="45.08156" lon="2.9064">
        <ele>1069.3</ele>
        <time>2021-07-23T16:12:19Z</time>
      </trkpt>
      <trkpt lat="45.08163" lon="2.90658">
        <ele>1069.1</ele>
        <time>2021-07-23T16:12:21Z</time>
      </trkpt>
      <trkpt lat="45.08168" lon="2.90676">
        <ele>1068.9</ele>
        <time>2021-07-23T16:12:23Z</time>
      </trkpt>
      <trkpt lat="45.08177" lon="2.90692">
        <ele>1068.2</ele>
        <time>2021-07-23T16:12:25Z</time>
      </trkpt>
      <trkpt lat="45.08187" lon="2.90707">
        <ele>1067.5</ele>
        <time>2021-07-23T16:12:27Z</time>
      </trkpt>
      <trkpt lat="45.08198" lon="2.90722">
        <ele>1066.9</ele>
        <time>2021-07-23T16:12:29Z</time>
      </trkpt>
      <trkpt lat="45.0821" lon="2.90736">
        <ele>1066.2</ele>
        <time>2021-07-23T16:12:31Z</time>
      </trkpt>
      <trkpt lat="45.08221" lon="2.90751">
        <ele>1065.7</ele>
        <time>2021-07-23T16:12:33Z</time>
      </trkpt>
      <trkpt lat="45.08232" lon="2.90766">
        <ele>1064.9</ele>
        <time>2021-07-23T16:12:35Z</time>
      </trkpt>
      <trkpt lat="45.08242" lon="2.90782">
        <ele>1064.1</ele>
        <time>2021-07-23T16:12:37Z</time>
      </trkpt>
      <trkpt lat="45.08253" lon="2.90798">
        <ele>1063.2</ele>
        <time>2021-07-23T16:12:39Z</time>
      </trkpt>
      <trkpt lat="45.08265" lon="2.90814">
        <ele>1062.3</ele>
        <time>2021-07-23T16:12:41Z</time>
      </trkpt>
      <trkpt lat="45.08276" lon="2.90829">
        <ele>1061.5</ele>
        <time>2021-07-23T16:12:43Z</time>
      </trkpt>
      <trkpt lat="45.08284" lon="2.90841">
        <ele>1061</ele>
        <time>2021-07-23T16:12:45Z</time>
      </trkpt>
      <trkpt lat="45.08289" lon="2.90848">
        <ele>1060.6</ele>
        <time>2021-07-23T16:12:47Z</time>
      </trkpt>
      <trkpt lat="45.08292" lon="2.90853">
        <ele>1060.5</ele>
        <time>2021-07-23T16:12:49Z</time>
      </trkpt>
      <trkpt lat="45.08296" lon="2.90861">
        <ele>1060.3</ele>
        <time>2021-07-23T16:12:53Z</time>
      </trkpt>
      <trkpt lat="45.08299" lon="2.90866">
        <ele>1060.1</ele>
        <time>2021-07-23T16:14:01Z</time>
      </trkpt>
      <trkpt lat="45.08301" lon="2.90875">
        <ele>1060.1</ele>
        <time>2021-07-23T16:14:15Z</time>
      </trkpt>
      <trkpt lat="45.08302" lon="2.90882">
        <ele>1060</ele>
        <time>2021-07-23T16:14:19Z</time>
      </trkpt>
      <trkpt lat="45.08302" lon="2.90889">
        <ele>1060</ele>
        <time>2021-07-23T16:14:41Z</time>
      </trkpt>
      <trkpt lat="45.08303" lon="2.90899">
        <ele>1060</ele>
        <time>2021-07-23T16:14:49Z</time>
      </trkpt>
      <trkpt lat="45.08304" lon="2.90907">
        <ele>1060</ele>
        <time>2021-07-23T16:14:51Z</time>
      </trkpt>
      <trkpt lat="45.08305" lon="2.90917">
        <ele>1060</ele>
        <time>2021-07-23T16:14:53Z</time>
      </trkpt>
      <trkpt lat="45.08305" lon="2.90927">
        <ele>1060</ele>
        <time>2021-07-23T16:14:55Z</time>
      </trkpt>
      <trkpt lat="45.08305" lon="2.90937">
        <ele>1059.9</ele>
        <time>2021-07-23T16:14:57Z</time>
      </trkpt>
      <trkpt lat="45.08306" lon="2.90947">
        <ele>1059.9</ele>
        <time>2021-07-23T16:14:59Z</time>
      </trkpt>
      <trkpt lat="45.08307" lon="2.90957">
        <ele>1059.7</ele>
        <time>2021-07-23T16:15:01Z</time>
      </trkpt>
      <trkpt lat="45.08309" lon="2.90967">
        <ele>1059.6</ele>
        <time>2021-07-23T16:15:03Z</time>
      </trkpt>
      <trkpt lat="45.0831" lon="2.90975">
        <ele>1059.6</ele>
        <time>2021-07-23T16:15:05Z</time>
      </trkpt>
      <trkpt lat="45.08311" lon="2.90984">
        <ele>1059.4</ele>
        <time>2021-07-23T16:15:07Z</time>
      </trkpt>
      <trkpt lat="45.08312" lon="2.90994">
        <ele>1059.3</ele>
        <time>2021-07-23T16:15:09Z</time>
      </trkpt>
      <trkpt lat="45.08312" lon="2.91003">
        <ele>1059.3</ele>
        <time>2021-07-23T16:15:11Z</time>
      </trkpt>
      <trkpt lat="45.08313" lon="2.91012">
        <ele>1059.5</ele>
        <time>2021-07-23T16:15:13Z</time>
      </trkpt>
      <trkpt lat="45.08314" lon="2.91022">
        <ele>1059.6</ele>
        <time>2021-07-23T16:15:15Z</time>
      </trkpt>
      <trkpt lat="45.08316" lon="2.91032">
        <ele>1059.7</ele>
        <time>2021-07-23T16:15:17Z</time>
      </trkpt>
      <trkpt lat="45.08316" lon="2.91041">
        <ele>1059.9</ele>
        <time>2021-07-23T16:15:19Z</time>
      </trkpt>
      <trkpt lat="45.08317" lon="2.91051">
        <ele>1060.1</ele>
        <time>2021-07-23T16:15:21Z</time>
      </trkpt>
      <trkpt lat="45.08318" lon="2.91061">
        <ele>1060.3</ele>
        <time>2021-07-23T16:15:23Z</time>
      </trkpt>
      <trkpt lat="45.08318" lon="2.91071">
        <ele>1060.5</ele>
        <time>2021-07-23T16:15:25Z</time>
      </trkpt>
      <trkpt lat="45.08318" lon="2.9108">
        <ele>1060.7</ele>
        <time>2021-07-23T16:15:27Z</time>
      </trkpt>
      <trkpt lat="45.08316" lon="2.91089">
        <ele>1060.9</ele>
        <time>2021-07-23T16:15:29Z</time>
      </trkpt>
      <trkpt lat="45.08313" lon="2.91096">
        <ele>1061.2</ele>
        <time>2021-07-23T16:15:31Z</time>
      </trkpt>
      <trkpt lat="45.0831" lon="2.91103">
        <ele>1061.5</ele>
        <time>2021-07-23T16:15:33Z</time>
      </trkpt>
      <trkpt lat="45.08305" lon="2.91108">
        <ele>1061.9</ele>
        <time>2021-07-23T16:15:35Z</time>
      </trkpt>
      <trkpt lat="45.08301" lon="2.91116">
        <ele>1062.2</ele>
        <time>2021-07-23T16:15:37Z</time>
      </trkpt>
      <trkpt lat="45.08298" lon="2.91123">
        <ele>1062.6</ele>
        <time>2021-07-23T16:15:39Z</time>
      </trkpt>
      <trkpt lat="45.08294" lon="2.91129">
        <ele>1063</ele>
        <time>2021-07-23T16:15:41Z</time>
      </trkpt>
      <trkpt lat="45.08288" lon="2.91136">
        <ele>1063.5</ele>
        <time>2021-07-23T16:15:45Z</time>
      </trkpt>
      <trkpt lat="45.08293" lon="2.91131">
        <ele>1063.1</ele>
        <time>2021-07-23T16:16:05Z</time>
      </trkpt>
      <trkpt lat="45.08298" lon="2.91123">
        <ele>1062.6</ele>
        <time>2021-07-23T16:16:09Z</time>
      </trkpt>
      <trkpt lat="45.08302" lon="2.91117">
        <ele>1062.2</ele>
        <time>2021-07-23T16:16:11Z</time>
      </trkpt>
      <trkpt lat="45.08309" lon="2.91113">
        <ele>1061.7</ele>
        <time>2021-07-23T16:16:13Z</time>
      </trkpt>
      <trkpt lat="45.08317" lon="2.91111">
        <ele>1061.2</ele>
        <time>2021-07-23T16:16:15Z</time>
      </trkpt>
      <trkpt lat="45.08327" lon="2.91109">
        <ele>1060.6</ele>
        <time>2021-07-23T16:16:17Z</time>
      </trkpt>
      <trkpt lat="45.08337" lon="2.91108">
        <ele>1060.2</ele>
        <time>2021-07-23T16:16:19Z</time>
      </trkpt>
      <trkpt lat="45.08349" lon="2.91108">
        <ele>1059.9</ele>
        <time>2021-07-23T16:16:21Z</time>
      </trkpt>
      <trkpt lat="45.08361" lon="2.91108">
        <ele>1059.7</ele>
        <time>2021-07-23T16:16:23Z</time>
      </trkpt>
      <trkpt lat="45.08372" lon="2.9111">
        <ele>1059.4</ele>
        <time>2021-07-23T16:16:25Z</time>
      </trkpt>
      <trkpt lat="45.08382" lon="2.91111">
        <ele>1059.2</ele>
        <time>2021-07-23T16:16:27Z</time>
      </trkpt>
      <trkpt lat="45.08394" lon="2.91113">
        <ele>1058.9</ele>
        <time>2021-07-23T16:16:29Z</time>
      </trkpt>
      <trkpt lat="45.08407" lon="2.91114">
        <ele>1058.5</ele>
        <time>2021-07-23T16:16:31Z</time>
      </trkpt>
      <trkpt lat="45.0842" lon="2.91114">
        <ele>1058.1</ele>
        <time>2021-07-23T16:16:33Z</time>
      </trkpt>
      <trkpt lat="45.08434" lon="2.91112">
        <ele>1057.7</ele>
        <time>2021-07-23T16:16:35Z</time>
      </trkpt>
      <trkpt lat="45.08448" lon="2.91111">
        <ele>1057.2</ele>
        <time>2021-07-23T16:16:37Z</time>
      </trkpt>
      <trkpt lat="45.08462" lon="2.91109">
        <ele>1056.8</ele>
        <time>2021-07-23T16:16:39Z</time>
      </trkpt>
      <trkpt lat="45.08476" lon="2.91109">
        <ele>1056.3</ele>
        <time>2021-07-23T16:16:41Z</time>
      </trkpt>
      <trkpt lat="45.08489" lon="2.91109">
        <ele>1055.8</ele>
        <time>2021-07-23T16:16:43Z</time>
      </trkpt>
      <trkpt lat="45.08502" lon="2.91111">
        <ele>1055.4</ele>
        <time>2021-07-23T16:16:45Z</time>
      </trkpt>
      <trkpt lat="45.08514" lon="2.91114">
        <ele>1055.5</ele>
        <time>2021-07-23T16:16:47Z</time>
      </trkpt>
      <trkpt lat="45.08525" lon="2.91118">
        <ele>1055.5</ele>
        <time>2021-07-23T16:16:49Z</time>
      </trkpt>
      <trkpt lat="45.08536" lon="2.91125">
        <ele>1055.6</ele>
        <time>2021-07-23T16:16:51Z</time>
      </trkpt>
      <trkpt lat="45.08544" lon="2.91134">
        <ele>1055.7</ele>
        <time>2021-07-23T16:16:53Z</time>
      </trkpt>
      <trkpt lat="45.08552" lon="2.91143">
        <ele>1055.9</ele>
        <time>2021-07-23T16:16:55Z</time>
      </trkpt>
      <trkpt lat="45.08559" lon="2.91152">
        <ele>1056.1</ele>
        <time>2021-07-23T16:16:57Z</time>
      </trkpt>
      <trkpt lat="45.08565" lon="2.9116">
        <ele>1056.3</ele>
        <time>2021-07-23T16:16:59Z</time>
      </trkpt>
      <trkpt lat="45.08572" lon="2.91169">
        <ele>1056.6</ele>
        <time>2021-07-23T16:17:01Z</time>
      </trkpt>
      <trkpt lat="45.08578" lon="2.91177">
        <ele>1056.8</ele>
        <time>2021-07-23T16:17:03Z</time>
      </trkpt>
      <trkpt lat="45.08584" lon="2.91184">
        <ele>1057</ele>
        <time>2021-07-23T16:17:05Z</time>
      </trkpt>
      <trkpt lat="45.0859" lon="2.91189">
        <ele>1057.5</ele>
        <time>2021-07-23T16:17:07Z</time>
      </trkpt>
      <trkpt lat="45.08597" lon="2.91195">
        <ele>1058</ele>
        <time>2021-07-23T16:17:09Z</time>
      </trkpt>
      <trkpt lat="45.08603" lon="2.91201">
        <ele>1058.4</ele>
        <time>2021-07-23T16:17:11Z</time>
      </trkpt>
      <trkpt lat="45.08608" lon="2.91208">
        <ele>1058.8</ele>
        <time>2021-07-23T16:17:13Z</time>
      </trkpt>
      <trkpt lat="45.08613" lon="2.91215">
        <ele>1059.1</ele>
        <time>2021-07-23T16:17:15Z</time>
      </trkpt>
      <trkpt lat="45.08617" lon="2.91222">
        <ele>1059.4</ele>
        <time>2021-07-23T16:17:17Z</time>
      </trkpt>
      <trkpt lat="45.0862" lon="2.91228">
        <ele>1059.6</ele>
        <time>2021-07-23T16:17:19Z</time>
      </trkpt>
      <trkpt lat="45.08623" lon="2.91234">
        <ele>1059.8</ele>
        <time>2021-07-23T16:17:21Z</time>
      </trkpt>
      <trkpt lat="45.08626" lon="2.91241">
        <ele>1060.1</ele>
        <time>2021-07-23T16:17:23Z</time>
      </trkpt>
      <trkpt lat="45.08629" lon="2.91249">
        <ele>1060.3</ele>
        <time>2021-07-23T16:17:25Z</time>
      </trkpt>
      <trkpt lat="45.08631" lon="2.91255">
        <ele>1060.2</ele>
        <time>2021-07-23T16:17:27Z</time>
      </trkpt>
      <trkpt lat="45.08634" lon="2.91261">
        <ele>1060.1</ele>
        <time>2021-07-23T16:17:29Z</time>
      </trkpt>
      <trkpt lat="45.08637" lon="2.91267">
        <ele>1060</ele>
        <time>2021-07-23T16:17:31Z</time>
      </trkpt>
      <trkpt lat="45.08639" lon="2.91274">
        <ele>1059.8</ele>
        <time>2021-07-23T16:17:33Z</time>
      </trkpt>
      <trkpt lat="45.08642" lon="2.9128">
        <ele>1059.7</ele>
        <time>2021-07-23T16:17:35Z</time>
      </trkpt>
      <trkpt lat="45.08645" lon="2.91286">
        <ele>1059.6</ele>
        <time>2021-07-23T16:17:37Z</time>
      </trkpt>
      <trkpt lat="45.08648" lon="2.91292">
        <ele>1059.6</ele>
        <time>2021-07-23T16:17:39Z</time>
      </trkpt>
      <trkpt lat="45.08651" lon="2.91298">
        <ele>1059.5</ele>
        <time>2021-07-23T16:17:41Z</time>
      </trkpt>
      <trkpt lat="45.08655" lon="2.91303">
        <ele>1059.5</ele>
        <time>2021-07-23T16:17:43Z</time>
      </trkpt>
      <trkpt lat="45.08659" lon="2.91308">
        <ele>1059.6</ele>
        <time>2021-07-23T16:17:45Z</time>
      </trkpt>
      <trkpt lat="45.08663" lon="2.91314">
        <ele>1059.7</ele>
        <time>2021-07-23T16:17:47Z</time>
      </trkpt>
      <trkpt lat="45.08667" lon="2.91319">
        <ele>1059.7</ele>
        <time>2021-07-23T16:17:49Z</time>
      </trkpt>
      <trkpt lat="45.08672" lon="2.91324">
        <ele>1059.7</ele>
        <time>2021-07-23T16:17:51Z</time>
      </trkpt>
      <trkpt lat="45.08676" lon="2.91328">
        <ele>1059.7</ele>
        <time>2021-07-23T16:17:53Z</time>
      </trkpt>
      <trkpt lat="45.0868" lon="2.91332">
        <ele>1059.7</ele>
        <time>2021-07-23T16:17:55Z</time>
      </trkpt>
      <trkpt lat="45.08685" lon="2.91335">
        <ele>1059.9</ele>
        <time>2021-07-23T16:17:57Z</time>
      </trkpt>
      <trkpt lat="45.0869" lon="2.91337">
        <ele>1060.1</ele>
        <time>2021-07-23T16:17:59Z</time>
      </trkpt>
      <trkpt lat="45.08695" lon="2.9134">
        <ele>1060.2</ele>
        <time>2021-07-23T16:18:01Z</time>
      </trkpt>
      <trkpt lat="45.08701" lon="2.91343">
        <ele>1060.5</ele>
        <time>2021-07-23T16:18:03Z</time>
      </trkpt>
      <trkpt lat="45.08707" lon="2.91346">
        <ele>1060.7</ele>
        <time>2021-07-23T16:18:05Z</time>
      </trkpt>
      <trkpt lat="45.08714" lon="2.91351">
        <ele>1061</ele>
        <time>2021-07-23T16:18:07Z</time>
      </trkpt>
      <trkpt lat="45.08721" lon="2.91359">
        <ele>1061.2</ele>
        <time>2021-07-23T16:18:09Z</time>
      </trkpt>
      <trkpt lat="45.08727" lon="2.91367">
        <ele>1061.4</ele>
        <time>2021-07-23T16:18:11Z</time>
      </trkpt>
      <trkpt lat="45.08732" lon="2.91376">
        <ele>1061.5</ele>
        <time>2021-07-23T16:18:13Z</time>
      </trkpt>
      <trkpt lat="45.08736" lon="2.91386">
        <ele>1061.6</ele>
        <time>2021-07-23T16:18:15Z</time>
      </trkpt>
      <trkpt lat="45.08741" lon="2.91396">
        <ele>1061.8</ele>
        <time>2021-07-23T16:18:17Z</time>
      </trkpt>
      <trkpt lat="45.08746" lon="2.91405">
        <ele>1061.9</ele>
        <time>2021-07-23T16:18:19Z</time>
      </trkpt>
      <trkpt lat="45.08752" lon="2.91414">
        <ele>1062.2</ele>
        <time>2021-07-23T16:18:21Z</time>
      </trkpt>
      <trkpt lat="45.08757" lon="2.91422">
        <ele>1062.8</ele>
        <time>2021-07-23T16:18:23Z</time>
      </trkpt>
      <trkpt lat="45.08761" lon="2.91432">
        <ele>1063.3</ele>
        <time>2021-07-23T16:18:25Z</time>
      </trkpt>
      <trkpt lat="45.08761" lon="2.91445">
        <ele>1063.4</ele>
        <time>2021-07-23T16:18:27Z</time>
      </trkpt>
      <trkpt lat="45.08755" lon="2.91456">
        <ele>1062.9</ele>
        <time>2021-07-23T16:18:29Z</time>
      </trkpt>
      <trkpt lat="45.08748" lon="2.91466">
        <ele>1062.5</ele>
        <time>2021-07-23T16:18:31Z</time>
      </trkpt>
      <trkpt lat="45.08743" lon="2.91479">
        <ele>1062.3</ele>
        <time>2021-07-23T16:18:33Z</time>
      </trkpt>
      <trkpt lat="45.0874" lon="2.91492">
        <ele>1062.3</ele>
        <time>2021-07-23T16:18:35Z</time>
      </trkpt>
      <trkpt lat="45.08739" lon="2.91506">
        <ele>1062.3</ele>
        <time>2021-07-23T16:18:37Z</time>
      </trkpt>
      <trkpt lat="45.08737" lon="2.9152">
        <ele>1062.2</ele>
        <time>2021-07-23T16:18:39Z</time>
      </trkpt>
      <trkpt lat="45.08736" lon="2.91535">
        <ele>1062.1</ele>
        <time>2021-07-23T16:18:41Z</time>
      </trkpt>
      <trkpt lat="45.08734" lon="2.91547">
        <ele>1062</ele>
        <time>2021-07-23T16:18:43Z</time>
      </trkpt>
      <trkpt lat="45.08733" lon="2.9156">
        <ele>1062</ele>
        <time>2021-07-23T16:18:45Z</time>
      </trkpt>
      <trkpt lat="45.08732" lon="2.91571">
        <ele>1061.9</ele>
        <time>2021-07-23T16:18:47Z</time>
      </trkpt>
      <trkpt lat="45.0873" lon="2.91582">
        <ele>1061.8</ele>
        <time>2021-07-23T16:18:49Z</time>
      </trkpt>
      <trkpt lat="45.08729" lon="2.91593">
        <ele>1061.8</ele>
        <time>2021-07-23T16:18:51Z</time>
      </trkpt>
      <trkpt lat="45.08728" lon="2.91604">
        <ele>1061.9</ele>
        <time>2021-07-23T16:18:53Z</time>
      </trkpt>
      <trkpt lat="45.08727" lon="2.91615">
        <ele>1061.9</ele>
        <time>2021-07-23T16:18:55Z</time>
      </trkpt>
      <trkpt lat="45.08727" lon="2.91625">
        <ele>1062</ele>
        <time>2021-07-23T16:18:57Z</time>
      </trkpt>
      <trkpt lat="45.08728" lon="2.91636">
        <ele>1062.1</ele>
        <time>2021-07-23T16:18:59Z</time>
      </trkpt>
      <trkpt lat="45.08729" lon="2.91647">
        <ele>1062.3</ele>
        <time>2021-07-23T16:19:01Z</time>
      </trkpt>
      <trkpt lat="45.08731" lon="2.91659">
        <ele>1062.6</ele>
        <time>2021-07-23T16:19:03Z</time>
      </trkpt>
      <trkpt lat="45.08735" lon="2.91668">
        <ele>1062.9</ele>
        <time>2021-07-23T16:19:05Z</time>
      </trkpt>
      <trkpt lat="45.08739" lon="2.91679">
        <ele>1063.4</ele>
        <time>2021-07-23T16:19:07Z</time>
      </trkpt>
      <trkpt lat="45.08743" lon="2.91689">
        <ele>1064</ele>
        <time>2021-07-23T16:19:09Z</time>
      </trkpt>
      <trkpt lat="45.08748" lon="2.91699">
        <ele>1064.6</ele>
        <time>2021-07-23T16:19:11Z</time>
      </trkpt>
      <trkpt lat="45.08753" lon="2.91709">
        <ele>1065.1</ele>
        <time>2021-07-23T16:19:13Z</time>
      </trkpt>
      <trkpt lat="45.08759" lon="2.91719">
        <ele>1065.4</ele>
        <time>2021-07-23T16:19:15Z</time>
      </trkpt>
      <trkpt lat="45.08763" lon="2.91729">
        <ele>1065.7</ele>
        <time>2021-07-23T16:19:17Z</time>
      </trkpt>
      <trkpt lat="45.08768" lon="2.91738">
        <ele>1066</ele>
        <time>2021-07-23T16:19:19Z</time>
      </trkpt>
      <trkpt lat="45.08772" lon="2.91746">
        <ele>1066.2</ele>
        <time>2021-07-23T16:19:21Z</time>
      </trkpt>
      <trkpt lat="45.08775" lon="2.91754">
        <ele>1066.2</ele>
        <time>2021-07-23T16:19:23Z</time>
      </trkpt>
      <trkpt lat="45.08778" lon="2.91762">
        <ele>1066.1</ele>
        <time>2021-07-23T16:19:25Z</time>
      </trkpt>
      <trkpt lat="45.08781" lon="2.91769">
        <ele>1066</ele>
        <time>2021-07-23T16:19:27Z</time>
      </trkpt>
      <trkpt lat="45.08785" lon="2.91776">
        <ele>1065.9</ele>
        <time>2021-07-23T16:19:29Z</time>
      </trkpt>
      <trkpt lat="45.08791" lon="2.9178">
        <ele>1065.9</ele>
        <time>2021-07-23T16:19:31Z</time>
      </trkpt>
      <trkpt lat="45.08797" lon="2.91783">
        <ele>1066</ele>
        <time>2021-07-23T16:19:33Z</time>
      </trkpt>
      <trkpt lat="45.08803" lon="2.91785">
        <ele>1066.1</ele>
        <time>2021-07-23T16:19:35Z</time>
      </trkpt>
      <trkpt lat="45.08809" lon="2.91787">
        <ele>1066.1</ele>
        <time>2021-07-23T16:19:37Z</time>
      </trkpt>
      <trkpt lat="45.08816" lon="2.91788">
        <ele>1066.3</ele>
        <time>2021-07-23T16:19:39Z</time>
      </trkpt>
      <trkpt lat="45.08824" lon="2.91788">
        <ele>1066.4</ele>
        <time>2021-07-23T16:19:41Z</time>
      </trkpt>
      <trkpt lat="45.08831" lon="2.91788">
        <ele>1066.5</ele>
        <time>2021-07-23T16:19:43Z</time>
      </trkpt>
      <trkpt lat="45.08838" lon="2.91789">
        <ele>1066.7</ele>
        <time>2021-07-23T16:19:45Z</time>
      </trkpt>
      <trkpt lat="45.08844" lon="2.91789">
        <ele>1067.1</ele>
        <time>2021-07-23T16:19:47Z</time>
      </trkpt>
      <trkpt lat="45.08851" lon="2.91789">
        <ele>1067.4</ele>
        <time>2021-07-23T16:19:49Z</time>
      </trkpt>
      <trkpt lat="45.08858" lon="2.91789">
        <ele>1067.7</ele>
        <time>2021-07-23T16:19:51Z</time>
      </trkpt>
      <trkpt lat="45.08865" lon="2.91791">
        <ele>1068</ele>
        <time>2021-07-23T16:19:53Z</time>
      </trkpt>
      <trkpt lat="45.08872" lon="2.91793">
        <ele>1068.3</ele>
        <time>2021-07-23T16:19:55Z</time>
      </trkpt>
      <trkpt lat="45.08878" lon="2.91796">
        <ele>1068.7</ele>
        <time>2021-07-23T16:19:57Z</time>
      </trkpt>
      <trkpt lat="45.08885" lon="2.91801">
        <ele>1069</ele>
        <time>2021-07-23T16:19:59Z</time>
      </trkpt>
      <trkpt lat="45.0889" lon="2.91808">
        <ele>1069.3</ele>
        <time>2021-07-23T16:20:01Z</time>
      </trkpt>
      <trkpt lat="45.08895" lon="2.91816">
        <ele>1069.6</ele>
        <time>2021-07-23T16:20:03Z</time>
      </trkpt>
      <trkpt lat="45.089" lon="2.91824">
        <ele>1069.9</ele>
        <time>2021-07-23T16:20:05Z</time>
      </trkpt>
      <trkpt lat="45.08904" lon="2.91833">
        <ele>1070.3</ele>
        <time>2021-07-23T16:20:07Z</time>
      </trkpt>
      <trkpt lat="45.08909" lon="2.91843">
        <ele>1070.7</ele>
        <time>2021-07-23T16:20:09Z</time>
      </trkpt>
      <trkpt lat="45.08915" lon="2.91851">
        <ele>1071.1</ele>
        <time>2021-07-23T16:20:11Z</time>
      </trkpt>
      <trkpt lat="45.08921" lon="2.91857">
        <ele>1071.3</ele>
        <time>2021-07-23T16:20:13Z</time>
      </trkpt>
      <trkpt lat="45.08928" lon="2.91861">
        <ele>1071.5</ele>
        <time>2021-07-23T16:20:15Z</time>
      </trkpt>
      <trkpt lat="45.08935" lon="2.91864">
        <ele>1071.6</ele>
        <time>2021-07-23T16:20:17Z</time>
      </trkpt>
      <trkpt lat="45.08942" lon="2.91866">
        <ele>1071.7</ele>
        <time>2021-07-23T16:20:19Z</time>
      </trkpt>
      <trkpt lat="45.08949" lon="2.91867">
        <ele>1071.8</ele>
        <time>2021-07-23T16:20:21Z</time>
      </trkpt>
      <trkpt lat="45.08957" lon="2.91868">
        <ele>1071.9</ele>
        <time>2021-07-23T16:20:23Z</time>
      </trkpt>
      <trkpt lat="45.08964" lon="2.91871">
        <ele>1072</ele>
        <time>2021-07-23T16:20:25Z</time>
      </trkpt>
      <trkpt lat="45.08971" lon="2.91874">
        <ele>1072.1</ele>
        <time>2021-07-23T16:20:27Z</time>
      </trkpt>
      <trkpt lat="45.08977" lon="2.91878">
        <ele>1072.3</ele>
        <time>2021-07-23T16:20:29Z</time>
      </trkpt>
      <trkpt lat="45.08983" lon="2.91884">
        <ele>1072.4</ele>
        <time>2021-07-23T16:20:31Z</time>
      </trkpt>
      <trkpt lat="45.08989" lon="2.91891">
        <ele>1072.6</ele>
        <time>2021-07-23T16:20:33Z</time>
      </trkpt>
      <trkpt lat="45.08994" lon="2.91898">
        <ele>1072.7</ele>
        <time>2021-07-23T16:20:35Z</time>
      </trkpt>
      <trkpt lat="45.09" lon="2.91906">
        <ele>1072.9</ele>
        <time>2021-07-23T16:20:37Z</time>
      </trkpt>
      <trkpt lat="45.09005" lon="2.91914">
        <ele>1073.1</ele>
        <time>2021-07-23T16:20:39Z</time>
      </trkpt>
      <trkpt lat="45.0901" lon="2.91921">
        <ele>1073.3</ele>
        <time>2021-07-23T16:20:41Z</time>
      </trkpt>
      <trkpt lat="45.09015" lon="2.91929">
        <ele>1073.5</ele>
        <time>2021-07-23T16:20:43Z</time>
      </trkpt>
      <trkpt lat="45.09019" lon="2.91937">
        <ele>1073.8</ele>
        <time>2021-07-23T16:20:45Z</time>
      </trkpt>
      <trkpt lat="45.09024" lon="2.91944">
        <ele>1074</ele>
        <time>2021-07-23T16:20:47Z</time>
      </trkpt>
      <trkpt lat="45.09029" lon="2.91951">
        <ele>1074.3</ele>
        <time>2021-07-23T16:20:49Z</time>
      </trkpt>
      <trkpt lat="45.09034" lon="2.91959">
        <ele>1074.5</ele>
        <time>2021-07-23T16:20:51Z</time>
      </trkpt>
      <trkpt lat="45.09038" lon="2.91967">
        <ele>1074.8</ele>
        <time>2021-07-23T16:20:53Z</time>
      </trkpt>
      <trkpt lat="45.09043" lon="2.91973">
        <ele>1075.1</ele>
        <time>2021-07-23T16:20:55Z</time>
      </trkpt>
      <trkpt lat="45.09048" lon="2.9198">
        <ele>1075.3</ele>
        <time>2021-07-23T16:20:57Z</time>
      </trkpt>
      <trkpt lat="45.09052" lon="2.91987">
        <ele>1075.6</ele>
        <time>2021-07-23T16:20:59Z</time>
      </trkpt>
      <trkpt lat="45.09056" lon="2.91994">
        <ele>1075.9</ele>
        <time>2021-07-23T16:21:01Z</time>
      </trkpt>
      <trkpt lat="45.0906" lon="2.92001">
        <ele>1076.2</ele>
        <time>2021-07-23T16:21:03Z</time>
      </trkpt>
      <trkpt lat="45.09065" lon="2.92008">
        <ele>1076.5</ele>
        <time>2021-07-23T16:21:05Z</time>
      </trkpt>
      <trkpt lat="45.0907" lon="2.92015">
        <ele>1076.8</ele>
        <time>2021-07-23T16:21:07Z</time>
      </trkpt>
      <trkpt lat="45.09074" lon="2.92022">
        <ele>1077.1</ele>
        <time>2021-07-23T16:21:09Z</time>
      </trkpt>
      <trkpt lat="45.09078" lon="2.92029">
        <ele>1077.5</ele>
        <time>2021-07-23T16:21:11Z</time>
      </trkpt>
      <trkpt lat="45.09082" lon="2.92037">
        <ele>1077.8</ele>
        <time>2021-07-23T16:21:13Z</time>
      </trkpt>
      <trkpt lat="45.09087" lon="2.92043">
        <ele>1078.2</ele>
        <time>2021-07-23T16:21:15Z</time>
      </trkpt>
      <trkpt lat="45.09092" lon="2.92048">
        <ele>1078.6</ele>
        <time>2021-07-23T16:21:17Z</time>
      </trkpt>
      <trkpt lat="45.09098" lon="2.9205">
        <ele>1078.9</ele>
        <time>2021-07-23T16:21:19Z</time>
      </trkpt>
      <trkpt lat="45.09104" lon="2.9205">
        <ele>1079.2</ele>
        <time>2021-07-23T16:21:21Z</time>
      </trkpt>
      <trkpt lat="45.09109" lon="2.92047">
        <ele>1079.4</ele>
        <time>2021-07-23T16:21:23Z</time>
      </trkpt>
      <trkpt lat="45.09115" lon="2.92043">
        <ele>1079.6</ele>
        <time>2021-07-23T16:21:25Z</time>
      </trkpt>
      <trkpt lat="45.09121" lon="2.92039">
        <ele>1079.7</ele>
        <time>2021-07-23T16:21:27Z</time>
      </trkpt>
      <trkpt lat="45.09127" lon="2.92035">
        <ele>1079.9</ele>
        <time>2021-07-23T16:21:29Z</time>
      </trkpt>
      <trkpt lat="45.09133" lon="2.92032">
        <ele>1080.2</ele>
        <time>2021-07-23T16:21:31Z</time>
      </trkpt>
      <trkpt lat="45.09138" lon="2.92028">
        <ele>1080.3</ele>
        <time>2021-07-23T16:21:33Z</time>
      </trkpt>
      <trkpt lat="45.09144" lon="2.92024">
        <ele>1080.5</ele>
        <time>2021-07-23T16:21:35Z</time>
      </trkpt>
      <trkpt lat="45.09149" lon="2.9202">
        <ele>1080.7</ele>
        <time>2021-07-23T16:21:37Z</time>
      </trkpt>
      <trkpt lat="45.09155" lon="2.92017">
        <ele>1080.9</ele>
        <time>2021-07-23T16:21:39Z</time>
      </trkpt>
      <trkpt lat="45.09161" lon="2.92013">
        <ele>1081</ele>
        <time>2021-07-23T16:21:41Z</time>
      </trkpt>
      <trkpt lat="45.09166" lon="2.92011">
        <ele>1081.2</ele>
        <time>2021-07-23T16:21:43Z</time>
      </trkpt>
      <trkpt lat="45.0917" lon="2.92008">
        <ele>1081.3</ele>
        <time>2021-07-23T16:21:45Z</time>
      </trkpt>
      <trkpt lat="45.09176" lon="2.92005">
        <ele>1081.4</ele>
        <time>2021-07-23T16:21:47Z</time>
      </trkpt>
      <trkpt lat="45.0918" lon="2.92002">
        <ele>1081.5</ele>
        <time>2021-07-23T16:21:49Z</time>
      </trkpt>
      <trkpt lat="45.09185" lon="2.91999">
        <ele>1081.7</ele>
        <time>2021-07-23T16:21:51Z</time>
      </trkpt>
      <trkpt lat="45.0919" lon="2.91995">
        <ele>1081.8</ele>
        <time>2021-07-23T16:21:53Z</time>
      </trkpt>
      <trkpt lat="45.09195" lon="2.91993">
        <ele>1082</ele>
        <time>2021-07-23T16:21:55Z</time>
      </trkpt>
      <trkpt lat="45.092" lon="2.91994">
        <ele>1082.2</ele>
        <time>2021-07-23T16:21:57Z</time>
      </trkpt>
      <trkpt lat="45.09205" lon="2.91999">
        <ele>1082.4</ele>
        <time>2021-07-23T16:21:59Z</time>
      </trkpt>
      <trkpt lat="45.09208" lon="2.92004">
        <ele>1082.5</ele>
        <time>2021-07-23T16:22:01Z</time>
      </trkpt>
      <trkpt lat="45.09211" lon="2.9201">
        <ele>1082.7</ele>
        <time>2021-07-23T16:22:03Z</time>
      </trkpt>
      <trkpt lat="45.09213" lon="2.92016">
        <ele>1082.8</ele>
        <time>2021-07-23T16:22:05Z</time>
      </trkpt>
      <trkpt lat="45.09216" lon="2.92023">
        <ele>1083</ele>
        <time>2021-07-23T16:22:07Z</time>
      </trkpt>
      <trkpt lat="45.09219" lon="2.92031">
        <ele>1083.2</ele>
        <time>2021-07-23T16:22:09Z</time>
      </trkpt>
      <trkpt lat="45.0922" lon="2.92038">
        <ele>1083.3</ele>
        <time>2021-07-23T16:22:11Z</time>
      </trkpt>
      <trkpt lat="45.09222" lon="2.92045">
        <ele>1083.3</ele>
        <time>2021-07-23T16:22:13Z</time>
      </trkpt>
      <trkpt lat="45.09225" lon="2.92052">
        <ele>1083.5</ele>
        <time>2021-07-23T16:22:15Z</time>
      </trkpt>
      <trkpt lat="45.09227" lon="2.92061">
        <ele>1083.6</ele>
        <time>2021-07-23T16:22:17Z</time>
      </trkpt>
      <trkpt lat="45.09231" lon="2.92069">
        <ele>1083.7</ele>
        <time>2021-07-23T16:22:19Z</time>
      </trkpt>
      <trkpt lat="45.09234" lon="2.92078">
        <ele>1083.8</ele>
        <time>2021-07-23T16:22:21Z</time>
      </trkpt>
      <trkpt lat="45.09235" lon="2.92086">
        <ele>1083.8</ele>
        <time>2021-07-23T16:22:23Z</time>
      </trkpt>
      <trkpt lat="45.09237" lon="2.92095">
        <ele>1083.7</ele>
        <time>2021-07-23T16:22:25Z</time>
      </trkpt>
      <trkpt lat="45.0924" lon="2.92103">
        <ele>1083.7</ele>
        <time>2021-07-23T16:22:27Z</time>
      </trkpt>
      <trkpt lat="45.09242" lon="2.92112">
        <ele>1083.6</ele>
        <time>2021-07-23T16:22:29Z</time>
      </trkpt>
      <trkpt lat="45.09243" lon="2.92121">
        <ele>1083.5</ele>
        <time>2021-07-23T16:22:31Z</time>
      </trkpt>
      <trkpt lat="45.09245" lon="2.92129">
        <ele>1083.4</ele>
        <time>2021-07-23T16:22:33Z</time>
      </trkpt>
      <trkpt lat="45.09247" lon="2.92138">
        <ele>1083.3</ele>
        <time>2021-07-23T16:22:35Z</time>
      </trkpt>
      <trkpt lat="45.09249" lon="2.92147">
        <ele>1083.2</ele>
        <time>2021-07-23T16:22:37Z</time>
      </trkpt>
      <trkpt lat="45.0925" lon="2.92156">
        <ele>1083.1</ele>
        <time>2021-07-23T16:22:39Z</time>
      </trkpt>
      <trkpt lat="45.09252" lon="2.92164">
        <ele>1083.1</ele>
        <time>2021-07-23T16:22:41Z</time>
      </trkpt>
      <trkpt lat="45.09254" lon="2.92174">
        <ele>1083</ele>
        <time>2021-07-23T16:22:43Z</time>
      </trkpt>
      <trkpt lat="45.09255" lon="2.92184">
        <ele>1082.9</ele>
        <time>2021-07-23T16:22:45Z</time>
      </trkpt>
      <trkpt lat="45.09257" lon="2.92194">
        <ele>1082.8</ele>
        <time>2021-07-23T16:22:47Z</time>
      </trkpt>
      <trkpt lat="45.0926" lon="2.92205">
        <ele>1082.7</ele>
        <time>2021-07-23T16:22:49Z</time>
      </trkpt>
      <trkpt lat="45.09265" lon="2.92214">
        <ele>1082.7</ele>
        <time>2021-07-23T16:22:51Z</time>
      </trkpt>
      <trkpt lat="45.09271" lon="2.92222">
        <ele>1082.7</ele>
        <time>2021-07-23T16:22:53Z</time>
      </trkpt>
      <trkpt lat="45.09277" lon="2.92228">
        <ele>1082.7</ele>
        <time>2021-07-23T16:22:55Z</time>
      </trkpt>
      <trkpt lat="45.09285" lon="2.92235">
        <ele>1082.7</ele>
        <time>2021-07-23T16:22:57Z</time>
      </trkpt>
      <trkpt lat="45.09292" lon="2.9224">
        <ele>1082.7</ele>
        <time>2021-07-23T16:22:59Z</time>
      </trkpt>
      <trkpt lat="45.09299" lon="2.92245">
        <ele>1082.7</ele>
        <time>2021-07-23T16:23:01Z</time>
      </trkpt>
      <trkpt lat="45.09307" lon="2.92252">
        <ele>1082.7</ele>
        <time>2021-07-23T16:23:03Z</time>
      </trkpt>
      <trkpt lat="45.09314" lon="2.92258">
        <ele>1082.7</ele>
        <time>2021-07-23T16:23:05Z</time>
      </trkpt>
      <trkpt lat="45.09321" lon="2.92265">
        <ele>1082.8</ele>
        <time>2021-07-23T16:23:07Z</time>
      </trkpt>
      <trkpt lat="45.09328" lon="2.92272">
        <ele>1082.7</ele>
        <time>2021-07-23T16:23:09Z</time>
      </trkpt>
      <trkpt lat="45.09335" lon="2.92279">
        <ele>1082.7</ele>
        <time>2021-07-23T16:23:11Z</time>
      </trkpt>
      <trkpt lat="45.09342" lon="2.92287">
        <ele>1082.6</ele>
        <time>2021-07-23T16:23:13Z</time>
      </trkpt>
      <trkpt lat="45.09348" lon="2.92295">
        <ele>1082.5</ele>
        <time>2021-07-23T16:23:15Z</time>
      </trkpt>
      <trkpt lat="45.09354" lon="2.92304">
        <ele>1082.4</ele>
        <time>2021-07-23T16:23:17Z</time>
      </trkpt>
      <trkpt lat="45.0936" lon="2.92313">
        <ele>1082.3</ele>
        <time>2021-07-23T16:23:19Z</time>
      </trkpt>
      <trkpt lat="45.09364" lon="2.92322">
        <ele>1082.2</ele>
        <time>2021-07-23T16:23:21Z</time>
      </trkpt>
      <trkpt lat="45.09368" lon="2.92331">
        <ele>1082</ele>
        <time>2021-07-23T16:23:23Z</time>
      </trkpt>
      <trkpt lat="45.09372" lon="2.92341">
        <ele>1081.8</ele>
        <time>2021-07-23T16:23:25Z</time>
      </trkpt>
      <trkpt lat="45.09377" lon="2.92354">
        <ele>1081.4</ele>
        <time>2021-07-23T16:23:27Z</time>
      </trkpt>
      <trkpt lat="45.09385" lon="2.92365">
        <ele>1081</ele>
        <time>2021-07-23T16:23:29Z</time>
      </trkpt>
      <trkpt lat="45.09394" lon="2.92376">
        <ele>1080.6</ele>
        <time>2021-07-23T16:23:31Z</time>
      </trkpt>
      <trkpt lat="45.09407" lon="2.92386">
        <ele>1080.2</ele>
        <time>2021-07-23T16:23:33Z</time>
      </trkpt>
      <trkpt lat="45.09416" lon="2.92402">
        <ele>1079.5</ele>
        <time>2021-07-23T16:23:35Z</time>
      </trkpt>
      <trkpt lat="45.09419" lon="2.92424">
        <ele>1078.3</ele>
        <time>2021-07-23T16:23:37Z</time>
      </trkpt>
      <trkpt lat="45.09421" lon="2.92449">
        <ele>1076.6</ele>
        <time>2021-07-23T16:23:39Z</time>
      </trkpt>
      <trkpt lat="45.09426" lon="2.92472">
        <ele>1074.7</ele>
        <time>2021-07-23T16:23:41Z</time>
      </trkpt>
      <trkpt lat="45.09436" lon="2.92495">
        <ele>1072.9</ele>
        <time>2021-07-23T16:23:43Z</time>
      </trkpt>
      <trkpt lat="45.09447" lon="2.92517">
        <ele>1072.1</ele>
        <time>2021-07-23T16:23:45Z</time>
      </trkpt>
      <trkpt lat="45.09457" lon="2.92536">
        <ele>1071.6</ele>
        <time>2021-07-23T16:23:47Z</time>
      </trkpt>
      <trkpt lat="45.09469" lon="2.92549">
        <ele>1071.2</ele>
        <time>2021-07-23T16:23:49Z</time>
      </trkpt>
      <trkpt lat="45.09483" lon="2.92552">
        <ele>1070.8</ele>
        <time>2021-07-23T16:23:51Z</time>
      </trkpt>
      <trkpt lat="45.09498" lon="2.92552">
        <ele>1070.4</ele>
        <time>2021-07-23T16:23:53Z</time>
      </trkpt>
      <trkpt lat="45.09514" lon="2.92553">
        <ele>1069.6</ele>
        <time>2021-07-23T16:23:55Z</time>
      </trkpt>
      <trkpt lat="45.09531" lon="2.92557">
        <ele>1068.7</ele>
        <time>2021-07-23T16:23:57Z</time>
      </trkpt>
      <trkpt lat="45.0955" lon="2.92556">
        <ele>1067.7</ele>
        <time>2021-07-23T16:23:59Z</time>
      </trkpt>
      <trkpt lat="45.0957" lon="2.92551">
        <ele>1066.7</ele>
        <time>2021-07-23T16:24:01Z</time>
      </trkpt>
      <trkpt lat="45.0959" lon="2.92545">
        <ele>1065.7</ele>
        <time>2021-07-23T16:24:03Z</time>
      </trkpt>
      <trkpt lat="45.09611" lon="2.92537">
        <ele>1065</ele>
        <time>2021-07-23T16:24:05Z</time>
      </trkpt>
      <trkpt lat="45.09632" lon="2.92528">
        <ele>1064.4</ele>
        <time>2021-07-23T16:24:07Z</time>
      </trkpt>
      <trkpt lat="45.09653" lon="2.92524">
        <ele>1063.8</ele>
        <time>2021-07-23T16:24:09Z</time>
      </trkpt>
      <trkpt lat="45.09675" lon="2.92526">
        <ele>1063.2</ele>
        <time>2021-07-23T16:24:11Z</time>
      </trkpt>
      <trkpt lat="45.09695" lon="2.92521">
        <ele>1063.1</ele>
        <time>2021-07-23T16:24:13Z</time>
      </trkpt>
      <trkpt lat="45.09714" lon="2.92511">
        <ele>1063.1</ele>
        <time>2021-07-23T16:24:15Z</time>
      </trkpt>
      <trkpt lat="45.09733" lon="2.92511">
        <ele>1062.8</ele>
        <time>2021-07-23T16:24:17Z</time>
      </trkpt>
      <trkpt lat="45.09751" lon="2.92516">
        <ele>1062.4</ele>
        <time>2021-07-23T16:24:19Z</time>
      </trkpt>
      <trkpt lat="45.09765" lon="2.9252">
        <ele>1062.4</ele>
        <time>2021-07-23T16:24:21Z</time>
      </trkpt>
      <trkpt lat="45.09777" lon="2.92524">
        <ele>1062.3</ele>
        <time>2021-07-23T16:24:23Z</time>
      </trkpt>
      <trkpt lat="45.09787" lon="2.92528">
        <ele>1062.1</ele>
        <time>2021-07-23T16:24:25Z</time>
      </trkpt>
      <trkpt lat="45.09795" lon="2.9253">
        <ele>1062.1</ele>
        <time>2021-07-23T16:24:27Z</time>
      </trkpt>
      <trkpt lat="45.09803" lon="2.92533">
        <ele>1062</ele>
        <time>2021-07-23T16:24:29Z</time>
      </trkpt>
      <trkpt lat="45.0981" lon="2.92534">
        <ele>1061.9</ele>
        <time>2021-07-23T16:24:31Z</time>
      </trkpt>
      <trkpt lat="45.09814" lon="2.92532">
        <ele>1062</ele>
        <time>2021-07-23T16:24:33Z</time>
      </trkpt>
      <trkpt lat="45.09817" lon="2.92527">
        <ele>1062.3</ele>
        <time>2021-07-23T16:26:55Z</time>
      </trkpt>
      <trkpt lat="45.09823" lon="2.92522">
        <ele>1062.6</ele>
        <time>2021-07-23T16:26:59Z</time>
      </trkpt>
      <trkpt lat="45.09832" lon="2.92518">
        <ele>1062.9</ele>
        <time>2021-07-23T16:27:03Z</time>
      </trkpt>
      <trkpt lat="45.09837" lon="2.92515">
        <ele>1062.9</ele>
        <time>2021-07-23T16:27:05Z</time>
      </trkpt>
      <trkpt lat="45.09844" lon="2.92512">
        <ele>1062.8</ele>
        <time>2021-07-23T16:27:07Z</time>
      </trkpt>
      <trkpt lat="45.09851" lon="2.92511">
        <ele>1062.5</ele>
        <time>2021-07-23T16:27:09Z</time>
      </trkpt>
      <trkpt lat="45.09856" lon="2.92508">
        <ele>1062.4</ele>
        <time>2021-07-23T16:27:11Z</time>
      </trkpt>
      <trkpt lat="45.09861" lon="2.92505">
        <ele>1062.4</ele>
        <time>2021-07-23T16:27:13Z</time>
      </trkpt>
      <trkpt lat="45.09869" lon="2.92503">
        <ele>1062.1</ele>
        <time>2021-07-23T16:27:17Z</time>
      </trkpt>
      <trkpt lat="45.09878" lon="2.92502">
        <ele>1061.8</ele>
        <time>2021-07-23T16:27:21Z</time>
      </trkpt>
      <trkpt lat="45.09884" lon="2.92504">
        <ele>1061.4</ele>
        <time>2021-07-23T16:27:25Z</time>
      </trkpt>
      <trkpt lat="45.09887" lon="2.9251">
        <ele>1060.9</ele>
        <time>2021-07-23T16:27:27Z</time>
      </trkpt>
      <trkpt lat="45.0989" lon="2.9252">
        <ele>1060.3</ele>
        <time>2021-07-23T16:27:29Z</time>
      </trkpt>
      <trkpt lat="45.09892" lon="2.92531">
        <ele>1059.6</ele>
        <time>2021-07-23T16:27:31Z</time>
      </trkpt>
      <trkpt lat="45.09896" lon="2.92541">
        <ele>1058.9</ele>
        <time>2021-07-23T16:27:33Z</time>
      </trkpt>
      <trkpt lat="45.09904" lon="2.92545">
        <ele>1058.4</ele>
        <time>2021-07-23T16:27:35Z</time>
      </trkpt>
      <trkpt lat="45.09912" lon="2.92545">
        <ele>1058</ele>
        <time>2021-07-23T16:27:37Z</time>
      </trkpt>
      <trkpt lat="45.09922" lon="2.92544">
        <ele>1057.5</ele>
        <time>2021-07-23T16:27:39Z</time>
      </trkpt>
      <trkpt lat="45.0993" lon="2.92545">
        <ele>1057</ele>
        <time>2021-07-23T16:27:41Z</time>
      </trkpt>
      <trkpt lat="45.09938" lon="2.92548">
        <ele>1056.3</ele>
        <time>2021-07-23T16:27:45Z</time>
      </trkpt>
      <trkpt lat="45.09942" lon="2.92551">
        <ele>1056</ele>
        <time>2021-07-23T16:27:47Z</time>
      </trkpt>
      <trkpt lat="45.09946" lon="2.92557">
        <ele>1055.5</ele>
        <time>2021-07-23T16:27:49Z</time>
      </trkpt>
      <trkpt lat="45.09951" lon="2.92562">
        <ele>1055.1</ele>
        <time>2021-07-23T16:27:51Z</time>
      </trkpt>
      <trkpt lat="45.09958" lon="2.92567">
        <ele>1054.5</ele>
        <time>2021-07-23T16:27:53Z</time>
      </trkpt>
      <trkpt lat="45.09968" lon="2.92574">
        <ele>1053.8</ele>
        <time>2021-07-23T16:27:55Z</time>
      </trkpt>
      <trkpt lat="45.0998" lon="2.92581">
        <ele>1053</ele>
        <time>2021-07-23T16:27:57Z</time>
      </trkpt>
      <trkpt lat="45.09994" lon="2.92588">
        <ele>1052.2</ele>
        <time>2021-07-23T16:27:59Z</time>
      </trkpt>
      <trkpt lat="45.10006" lon="2.92598">
        <ele>1051.2</ele>
        <time>2021-07-23T16:28:01Z</time>
      </trkpt>
      <trkpt lat="45.10019" lon="2.92613">
        <ele>1049.9</ele>
        <time>2021-07-23T16:28:03Z</time>
      </trkpt>
      <trkpt lat="45.1003" lon="2.9263">
        <ele>1048.7</ele>
        <time>2021-07-23T16:28:05Z</time>
      </trkpt>
      <trkpt lat="45.10042" lon="2.92646">
        <ele>1047.6</ele>
        <time>2021-07-23T16:28:07Z</time>
      </trkpt>
      <trkpt lat="45.10054" lon="2.92663">
        <ele>1046.5</ele>
        <time>2021-07-23T16:28:09Z</time>
      </trkpt>
      <trkpt lat="45.10066" lon="2.9268">
        <ele>1045.7</ele>
        <time>2021-07-23T16:28:11Z</time>
      </trkpt>
      <trkpt lat="45.10078" lon="2.92697">
        <ele>1045.2</ele>
        <time>2021-07-23T16:28:13Z</time>
      </trkpt>
      <trkpt lat="45.10087" lon="2.92716">
        <ele>1044.9</ele>
        <time>2021-07-23T16:28:15Z</time>
      </trkpt>
      <trkpt lat="45.10096" lon="2.92737">
        <ele>1044.7</ele>
        <time>2021-07-23T16:28:17Z</time>
      </trkpt>
      <trkpt lat="45.10104" lon="2.92758">
        <ele>1044.5</ele>
        <time>2021-07-23T16:28:19Z</time>
      </trkpt>
      <trkpt lat="45.10112" lon="2.92779">
        <ele>1044.2</ele>
        <time>2021-07-23T16:28:21Z</time>
      </trkpt>
      <trkpt lat="45.10121" lon="2.928">
        <ele>1043.8</ele>
        <time>2021-07-23T16:28:23Z</time>
      </trkpt>
      <trkpt lat="45.10129" lon="2.9282">
        <ele>1043.4</ele>
        <time>2021-07-23T16:28:25Z</time>
      </trkpt>
      <trkpt lat="45.10135" lon="2.92841">
        <ele>1043.1</ele>
        <time>2021-07-23T16:28:27Z</time>
      </trkpt>
      <trkpt lat="45.10139" lon="2.92862">
        <ele>1042.9</ele>
        <time>2021-07-23T16:28:29Z</time>
      </trkpt>
      <trkpt lat="45.10146" lon="2.92884">
        <ele>1042.5</ele>
        <time>2021-07-23T16:28:31Z</time>
      </trkpt>
      <trkpt lat="45.10154" lon="2.92903">
        <ele>1042</ele>
        <time>2021-07-23T16:28:33Z</time>
      </trkpt>
      <trkpt lat="45.10162" lon="2.92922">
        <ele>1041.6</ele>
        <time>2021-07-23T16:28:35Z</time>
      </trkpt>
      <trkpt lat="45.10174" lon="2.92937">
        <ele>1041.3</ele>
        <time>2021-07-23T16:28:37Z</time>
      </trkpt>
      <trkpt lat="45.10187" lon="2.92949">
        <ele>1040.9</ele>
        <time>2021-07-23T16:28:39Z</time>
      </trkpt>
      <trkpt lat="45.10202" lon="2.92959">
        <ele>1040.4</ele>
        <time>2021-07-23T16:28:41Z</time>
      </trkpt>
      <trkpt lat="45.10216" lon="2.92968">
        <ele>1039.9</ele>
        <time>2021-07-23T16:28:43Z</time>
      </trkpt>
      <trkpt lat="45.10231" lon="2.92975">
        <ele>1039.2</ele>
        <time>2021-07-23T16:28:45Z</time>
      </trkpt>
      <trkpt lat="45.10244" lon="2.92977">
        <ele>1038.5</ele>
        <time>2021-07-23T16:28:47Z</time>
      </trkpt>
      <trkpt lat="45.10252" lon="2.92977">
        <ele>1038.1</ele>
        <time>2021-07-23T16:28:49Z</time>
      </trkpt>
      <trkpt lat="45.10258" lon="2.92971">
        <ele>1037.6</ele>
        <time>2021-07-23T16:28:51Z</time>
      </trkpt>
      <trkpt lat="45.10263" lon="2.92964">
        <ele>1037.2</ele>
        <time>2021-07-23T16:28:53Z</time>
      </trkpt>
      <trkpt lat="45.10267" lon="2.92956">
        <ele>1036.8</ele>
        <time>2021-07-23T16:28:55Z</time>
      </trkpt>
      <trkpt lat="45.10271" lon="2.92948">
        <ele>1036.4</ele>
        <time>2021-07-23T16:28:57Z</time>
      </trkpt>
      <trkpt lat="45.10276" lon="2.92938">
        <ele>1036</ele>
        <time>2021-07-23T16:28:59Z</time>
      </trkpt>
      <trkpt lat="45.10281" lon="2.92929">
        <ele>1035.6</ele>
        <time>2021-07-23T16:29:01Z</time>
      </trkpt>
      <trkpt lat="45.10286" lon="2.92918">
        <ele>1035.2</ele>
        <time>2021-07-23T16:29:03Z</time>
      </trkpt>
      <trkpt lat="45.10291" lon="2.92908">
        <ele>1035.1</ele>
        <time>2021-07-23T16:29:05Z</time>
      </trkpt>
      <trkpt lat="45.10296" lon="2.92899">
        <ele>1035.1</ele>
        <time>2021-07-23T16:29:07Z</time>
      </trkpt>
      <trkpt lat="45.10302" lon="2.9289">
        <ele>1035.2</ele>
        <time>2021-07-23T16:29:09Z</time>
      </trkpt>
      <trkpt lat="45.10309" lon="2.92882">
        <ele>1035.2</ele>
        <time>2021-07-23T16:29:11Z</time>
      </trkpt>
      <trkpt lat="45.10316" lon="2.92877">
        <ele>1035.2</ele>
        <time>2021-07-23T16:29:13Z</time>
      </trkpt>
      <trkpt lat="45.10325" lon="2.92875">
        <ele>1035.1</ele>
        <time>2021-07-23T16:29:15Z</time>
      </trkpt>
      <trkpt lat="45.10333" lon="2.92874">
        <ele>1035</ele>
        <time>2021-07-23T16:29:17Z</time>
      </trkpt>
      <trkpt lat="45.10341" lon="2.92872">
        <ele>1035.1</ele>
        <time>2021-07-23T16:29:19Z</time>
      </trkpt>
      <trkpt lat="45.1035" lon="2.92871">
        <ele>1035.1</ele>
        <time>2021-07-23T16:29:21Z</time>
      </trkpt>
      <trkpt lat="45.10359" lon="2.92869">
        <ele>1035.1</ele>
        <time>2021-07-23T16:29:23Z</time>
      </trkpt>
      <trkpt lat="45.10367" lon="2.92868">
        <ele>1035.1</ele>
        <time>2021-07-23T16:29:25Z</time>
      </trkpt>
      <trkpt lat="45.10375" lon="2.92868">
        <ele>1035.1</ele>
        <time>2021-07-23T16:29:27Z</time>
      </trkpt>
      <trkpt lat="45.10384" lon="2.92867">
        <ele>1035.1</ele>
        <time>2021-07-23T16:29:29Z</time>
      </trkpt>
      <trkpt lat="45.10392" lon="2.92867">
        <ele>1035.1</ele>
        <time>2021-07-23T16:29:31Z</time>
      </trkpt>
      <trkpt lat="45.104" lon="2.92868">
        <ele>1035</ele>
        <time>2021-07-23T16:29:33Z</time>
      </trkpt>
      <trkpt lat="45.10408" lon="2.92871">
        <ele>1035</ele>
        <time>2021-07-23T16:29:35Z</time>
      </trkpt>
      <trkpt lat="45.10415" lon="2.92875">
        <ele>1035</ele>
        <time>2021-07-23T16:29:37Z</time>
      </trkpt>
      <trkpt lat="45.10423" lon="2.92879">
        <ele>1034.8</ele>
        <time>2021-07-23T16:29:39Z</time>
      </trkpt>
      <trkpt lat="45.1043" lon="2.92885">
        <ele>1034.6</ele>
        <time>2021-07-23T16:29:41Z</time>
      </trkpt>
      <trkpt lat="45.10436" lon="2.9289">
        <ele>1034.5</ele>
        <time>2021-07-23T16:29:43Z</time>
      </trkpt>
      <trkpt lat="45.10442" lon="2.92896">
        <ele>1034.3</ele>
        <time>2021-07-23T16:29:45Z</time>
      </trkpt>
      <trkpt lat="45.10449" lon="2.92901">
        <ele>1034.2</ele>
        <time>2021-07-23T16:29:47Z</time>
      </trkpt>
      <trkpt lat="45.10454" lon="2.92906">
        <ele>1034</ele>
        <time>2021-07-23T16:29:49Z</time>
      </trkpt>
      <trkpt lat="45.1046" lon="2.92911">
        <ele>1033.9</ele>
        <time>2021-07-23T16:29:51Z</time>
      </trkpt>
      <trkpt lat="45.10465" lon="2.92914">
        <ele>1033.8</ele>
        <time>2021-07-23T16:29:53Z</time>
      </trkpt>
      <trkpt lat="45.10472" lon="2.92917">
        <ele>1033.7</ele>
        <time>2021-07-23T16:29:55Z</time>
      </trkpt>
      <trkpt lat="45.10478" lon="2.9292">
        <ele>1033.5</ele>
        <time>2021-07-23T16:29:57Z</time>
      </trkpt>
      <trkpt lat="45.10485" lon="2.9292">
        <ele>1033.3</ele>
        <time>2021-07-23T16:29:59Z</time>
      </trkpt>
      <trkpt lat="45.10492" lon="2.92916">
        <ele>1033.2</ele>
        <time>2021-07-23T16:30:01Z</time>
      </trkpt>
      <trkpt lat="45.10498" lon="2.9291">
        <ele>1033</ele>
        <time>2021-07-23T16:30:03Z</time>
      </trkpt>
      <trkpt lat="45.10503" lon="2.92904">
        <ele>1032.7</ele>
        <time>2021-07-23T16:30:05Z</time>
      </trkpt>
      <trkpt lat="45.10508" lon="2.92898">
        <ele>1032.5</ele>
        <time>2021-07-23T16:30:07Z</time>
      </trkpt>
      <trkpt lat="45.10513" lon="2.92891">
        <ele>1032.2</ele>
        <time>2021-07-23T16:30:09Z</time>
      </trkpt>
      <trkpt lat="45.10519" lon="2.92884">
        <ele>1031.8</ele>
        <time>2021-07-23T16:30:11Z</time>
      </trkpt>
      <trkpt lat="45.10525" lon="2.92875">
        <ele>1031.4</ele>
        <time>2021-07-23T16:30:13Z</time>
      </trkpt>
      <trkpt lat="45.10532" lon="2.92863">
        <ele>1031</ele>
        <time>2021-07-23T16:30:15Z</time>
      </trkpt>
      <trkpt lat="45.10539" lon="2.92849">
        <ele>1030.4</ele>
        <time>2021-07-23T16:30:17Z</time>
      </trkpt>
      <trkpt lat="45.10544" lon="2.92832">
        <ele>1029.9</ele>
        <time>2021-07-23T16:30:19Z</time>
      </trkpt>
      <trkpt lat="45.10547" lon="2.92813">
        <ele>1029.2</ele>
        <time>2021-07-23T16:30:21Z</time>
      </trkpt>
      <trkpt lat="45.1055" lon="2.92793">
        <ele>1028.5</ele>
        <time>2021-07-23T16:30:23Z</time>
      </trkpt>
      <trkpt lat="45.10557" lon="2.92776">
        <ele>1027.9</ele>
        <time>2021-07-23T16:30:25Z</time>
      </trkpt>
      <trkpt lat="45.10566" lon="2.9276">
        <ele>1027.4</ele>
        <time>2021-07-23T16:30:27Z</time>
      </trkpt>
      <trkpt lat="45.10573" lon="2.92745">
        <ele>1027.1</ele>
        <time>2021-07-23T16:30:29Z</time>
      </trkpt>
      <trkpt lat="45.10581" lon="2.9273">
        <ele>1026.8</ele>
        <time>2021-07-23T16:30:31Z</time>
      </trkpt>
      <trkpt lat="45.10591" lon="2.92717">
        <ele>1026.5</ele>
        <time>2021-07-23T16:30:33Z</time>
      </trkpt>
      <trkpt lat="45.10601" lon="2.92705">
        <ele>1026.2</ele>
        <time>2021-07-23T16:30:35Z</time>
      </trkpt>
      <trkpt lat="45.10611" lon="2.92694">
        <ele>1026</ele>
        <time>2021-07-23T16:30:37Z</time>
      </trkpt>
      <trkpt lat="45.10619" lon="2.92681">
        <ele>1025.7</ele>
        <time>2021-07-23T16:30:39Z</time>
      </trkpt>
      <trkpt lat="45.10628" lon="2.92669">
        <ele>1025.5</ele>
        <time>2021-07-23T16:30:41Z</time>
      </trkpt>
      <trkpt lat="45.10636" lon="2.92657">
        <ele>1025.7</ele>
        <time>2021-07-23T16:30:43Z</time>
      </trkpt>
      <trkpt lat="45.10644" lon="2.92645">
        <ele>1026</ele>
        <time>2021-07-23T16:30:45Z</time>
      </trkpt>
      <trkpt lat="45.10651" lon="2.92635">
        <ele>1026.3</ele>
        <time>2021-07-23T16:30:47Z</time>
      </trkpt>
      <trkpt lat="45.10658" lon="2.92626">
        <ele>1026.6</ele>
        <time>2021-07-23T16:30:49Z</time>
      </trkpt>
      <trkpt lat="45.10667" lon="2.92619">
        <ele>1026.7</ele>
        <time>2021-07-23T16:30:51Z</time>
      </trkpt>
      <trkpt lat="45.10677" lon="2.92615">
        <ele>1026.3</ele>
        <time>2021-07-23T16:30:53Z</time>
      </trkpt>
      <trkpt lat="45.10687" lon="2.92611">
        <ele>1025.8</ele>
        <time>2021-07-23T16:30:55Z</time>
      </trkpt>
      <trkpt lat="45.10698" lon="2.92606">
        <ele>1025.2</ele>
        <time>2021-07-23T16:30:57Z</time>
      </trkpt>
      <trkpt lat="45.10709" lon="2.926">
        <ele>1024.7</ele>
        <time>2021-07-23T16:30:59Z</time>
      </trkpt>
      <trkpt lat="45.1072" lon="2.92595">
        <ele>1024</ele>
        <time>2021-07-23T16:31:01Z</time>
      </trkpt>
      <trkpt lat="45.10733" lon="2.92589">
        <ele>1023.2</ele>
        <time>2021-07-23T16:31:03Z</time>
      </trkpt>
      <trkpt lat="45.10744" lon="2.92582">
        <ele>1022.4</ele>
        <time>2021-07-23T16:31:05Z</time>
      </trkpt>
      <trkpt lat="45.10754" lon="2.92571">
        <ele>1022.2</ele>
        <time>2021-07-23T16:31:07Z</time>
      </trkpt>
      <trkpt lat="45.10763" lon="2.92562">
        <ele>1022.3</ele>
        <time>2021-07-23T16:31:09Z</time>
      </trkpt>
      <trkpt lat="45.10772" lon="2.92553">
        <ele>1022.6</ele>
        <time>2021-07-23T16:31:11Z</time>
      </trkpt>
      <trkpt lat="45.10778" lon="2.92547">
        <ele>1022.7</ele>
        <time>2021-07-23T16:31:13Z</time>
      </trkpt>
      <trkpt lat="45.10782" lon="2.92543">
        <ele>1022.9</ele>
        <time>2021-07-23T16:31:17Z</time>
      </trkpt>
      <trkpt lat="45.10785" lon="2.92549">
        <ele>1022.8</ele>
        <time>2021-07-23T16:31:47Z</time>
      </trkpt>
      <trkpt lat="45.10789" lon="2.92559">
        <ele>1022.6</ele>
        <time>2021-07-23T16:31:51Z</time>
      </trkpt>
      <trkpt lat="45.10793" lon="2.92566">
        <ele>1022.4</ele>
        <time>2021-07-23T16:31:53Z</time>
      </trkpt>
      <trkpt lat="45.10798" lon="2.92573">
        <ele>1022.3</ele>
        <time>2021-07-23T16:31:55Z</time>
      </trkpt>
      <trkpt lat="45.10803" lon="2.92582">
        <ele>1022</ele>
        <time>2021-07-23T16:31:57Z</time>
      </trkpt>
      <trkpt lat="45.10808" lon="2.9259">
        <ele>1022</ele>
        <time>2021-07-23T16:31:59Z</time>
      </trkpt>
      <trkpt lat="45.10814" lon="2.92599">
        <ele>1022</ele>
        <time>2021-07-23T16:32:01Z</time>
      </trkpt>
      <trkpt lat="45.1082" lon="2.92607">
        <ele>1022</ele>
        <time>2021-07-23T16:32:03Z</time>
      </trkpt>
      <trkpt lat="45.10827" lon="2.92614">
        <ele>1022</ele>
        <time>2021-07-23T16:32:05Z</time>
      </trkpt>
      <trkpt lat="45.10834" lon="2.92621">
        <ele>1022</ele>
        <time>2021-07-23T16:32:07Z</time>
      </trkpt>
      <trkpt lat="45.10843" lon="2.92628">
        <ele>1022</ele>
        <time>2021-07-23T16:32:09Z</time>
      </trkpt>
      <trkpt lat="45.1085" lon="2.92637">
        <ele>1022</ele>
        <time>2021-07-23T16:32:11Z</time>
      </trkpt>
      <trkpt lat="45.10856" lon="2.92648">
        <ele>1021.8</ele>
        <time>2021-07-23T16:32:13Z</time>
      </trkpt>
      <trkpt lat="45.10859" lon="2.92661">
        <ele>1021.5</ele>
        <time>2021-07-23T16:32:15Z</time>
      </trkpt>
      <trkpt lat="45.10862" lon="2.92674">
        <ele>1021.5</ele>
        <time>2021-07-23T16:32:17Z</time>
      </trkpt>
      <trkpt lat="45.10864" lon="2.92687">
        <ele>1021.7</ele>
        <time>2021-07-23T16:32:19Z</time>
      </trkpt>
      <trkpt lat="45.10868" lon="2.92699">
        <ele>1021.7</ele>
        <time>2021-07-23T16:32:21Z</time>
      </trkpt>
      <trkpt lat="45.10873" lon="2.92709">
        <ele>1021.6</ele>
        <time>2021-07-23T16:32:23Z</time>
      </trkpt>
      <trkpt lat="45.1088" lon="2.92718">
        <ele>1021.3</ele>
        <time>2021-07-23T16:32:25Z</time>
      </trkpt>
      <trkpt lat="45.10888" lon="2.92727">
        <ele>1020.7</ele>
        <time>2021-07-23T16:32:27Z</time>
      </trkpt>
      <trkpt lat="45.10898" lon="2.92737">
        <ele>1019.9</ele>
        <time>2021-07-23T16:32:29Z</time>
      </trkpt>
      <trkpt lat="45.10908" lon="2.92747">
        <ele>1018.9</ele>
        <time>2021-07-23T16:32:31Z</time>
      </trkpt>
      <trkpt lat="45.10917" lon="2.92761">
        <ele>1018</ele>
        <time>2021-07-23T16:32:33Z</time>
      </trkpt>
      <trkpt lat="45.10927" lon="2.92775">
        <ele>1018</ele>
        <time>2021-07-23T16:32:35Z</time>
      </trkpt>
      <trkpt lat="45.10934" lon="2.9279">
        <ele>1018</ele>
        <time>2021-07-23T16:32:37Z</time>
      </trkpt>
      <trkpt lat="45.10941" lon="2.92804">
        <ele>1018</ele>
        <time>2021-07-23T16:32:39Z</time>
      </trkpt>
      <trkpt lat="45.10947" lon="2.92818">
        <ele>1018</ele>
        <time>2021-07-23T16:32:41Z</time>
      </trkpt>
      <trkpt lat="45.10954" lon="2.92831">
        <ele>1018</ele>
        <time>2021-07-23T16:32:43Z</time>
      </trkpt>
      <trkpt lat="45.10961" lon="2.92844">
        <ele>1017.7</ele>
        <time>2021-07-23T16:32:45Z</time>
      </trkpt>
      <trkpt lat="45.10968" lon="2.92857">
        <ele>1017.4</ele>
        <time>2021-07-23T16:32:47Z</time>
      </trkpt>
      <trkpt lat="45.10975" lon="2.9287">
        <ele>1016.9</ele>
        <time>2021-07-23T16:32:49Z</time>
      </trkpt>
      <trkpt lat="45.10982" lon="2.92884">
        <ele>1016.4</ele>
        <time>2021-07-23T16:32:51Z</time>
      </trkpt>
      <trkpt lat="45.10989" lon="2.92897">
        <ele>1015.9</ele>
        <time>2021-07-23T16:32:53Z</time>
      </trkpt>
      <trkpt lat="45.10996" lon="2.9291">
        <ele>1015.3</ele>
        <time>2021-07-23T16:32:55Z</time>
      </trkpt>
      <trkpt lat="45.11002" lon="2.92923">
        <ele>1015.1</ele>
        <time>2021-07-23T16:32:57Z</time>
      </trkpt>
      <trkpt lat="45.11009" lon="2.92935">
        <ele>1015.3</ele>
        <time>2021-07-23T16:32:59Z</time>
      </trkpt>
      <trkpt lat="45.11015" lon="2.92948">
        <ele>1015.5</ele>
        <time>2021-07-23T16:33:01Z</time>
      </trkpt>
      <trkpt lat="45.11021" lon="2.9296">
        <ele>1015.6</ele>
        <time>2021-07-23T16:33:03Z</time>
      </trkpt>
      <trkpt lat="45.11027" lon="2.92971">
        <ele>1015.8</ele>
        <time>2021-07-23T16:33:05Z</time>
      </trkpt>
      <trkpt lat="45.11033" lon="2.92982">
        <ele>1015.9</ele>
        <time>2021-07-23T16:33:07Z</time>
      </trkpt>
      <trkpt lat="45.11039" lon="2.92993">
        <ele>1016</ele>
        <time>2021-07-23T16:33:09Z</time>
      </trkpt>
      <trkpt lat="45.11044" lon="2.93004">
        <ele>1016</ele>
        <time>2021-07-23T16:33:11Z</time>
      </trkpt>
      <trkpt lat="45.11049" lon="2.93015">
        <ele>1016.1</ele>
        <time>2021-07-23T16:33:13Z</time>
      </trkpt>
      <trkpt lat="45.11056" lon="2.93027">
        <ele>1016.2</ele>
        <time>2021-07-23T16:33:15Z</time>
      </trkpt>
      <trkpt lat="45.11062" lon="2.93038">
        <ele>1016.2</ele>
        <time>2021-07-23T16:33:17Z</time>
      </trkpt>
      <trkpt lat="45.11068" lon="2.93049">
        <ele>1016.2</ele>
        <time>2021-07-23T16:33:19Z</time>
      </trkpt>
      <trkpt lat="45.11074" lon="2.9306">
        <ele>1016.2</ele>
        <time>2021-07-23T16:33:21Z</time>
      </trkpt>
      <trkpt lat="45.1108" lon="2.93071">
        <ele>1016.1</ele>
        <time>2021-07-23T16:33:23Z</time>
      </trkpt>
      <trkpt lat="45.11085" lon="2.93082">
        <ele>1015.9</ele>
        <time>2021-07-23T16:33:25Z</time>
      </trkpt>
      <trkpt lat="45.11091" lon="2.93092">
        <ele>1015.8</ele>
        <time>2021-07-23T16:33:27Z</time>
      </trkpt>
      <trkpt lat="45.11097" lon="2.93101">
        <ele>1015.7</ele>
        <time>2021-07-23T16:33:29Z</time>
      </trkpt>
      <trkpt lat="45.11103" lon="2.9311">
        <ele>1015.7</ele>
        <time>2021-07-23T16:33:31Z</time>
      </trkpt>
      <trkpt lat="45.1111" lon="2.93119">
        <ele>1015.6</ele>
        <time>2021-07-23T16:33:33Z</time>
      </trkpt>
      <trkpt lat="45.11116" lon="2.93126">
        <ele>1015.4</ele>
        <time>2021-07-23T16:33:35Z</time>
      </trkpt>
      <trkpt lat="45.11122" lon="2.93134">
        <ele>1015.4</ele>
        <time>2021-07-23T16:33:37Z</time>
      </trkpt>
      <trkpt lat="45.11129" lon="2.93141">
        <ele>1015.2</ele>
        <time>2021-07-23T16:33:39Z</time>
      </trkpt>
      <trkpt lat="45.11135" lon="2.93147">
        <ele>1015</ele>
        <time>2021-07-23T16:33:41Z</time>
      </trkpt>
      <trkpt lat="45.11142" lon="2.93154">
        <ele>1014.9</ele>
        <time>2021-07-23T16:33:43Z</time>
      </trkpt>
      <trkpt lat="45.11147" lon="2.93162">
        <ele>1014.8</ele>
        <time>2021-07-23T16:33:45Z</time>
      </trkpt>
      <trkpt lat="45.11153" lon="2.93169">
        <ele>1014.6</ele>
        <time>2021-07-23T16:33:47Z</time>
      </trkpt>
      <trkpt lat="45.11158" lon="2.93175">
        <ele>1014.3</ele>
        <time>2021-07-23T16:33:49Z</time>
      </trkpt>
      <trkpt lat="45.11165" lon="2.93183">
        <ele>1013.9</ele>
        <time>2021-07-23T16:33:51Z</time>
      </trkpt>
      <trkpt lat="45.11169" lon="2.93193">
        <ele>1013.6</ele>
        <time>2021-07-23T16:33:53Z</time>
      </trkpt>
      <trkpt lat="45.11173" lon="2.93203">
        <ele>1013.3</ele>
        <time>2021-07-23T16:33:55Z</time>
      </trkpt>
      <trkpt lat="45.11177" lon="2.93215">
        <ele>1013</ele>
        <time>2021-07-23T16:33:57Z</time>
      </trkpt>
      <trkpt lat="45.11182" lon="2.93228">
        <ele>1012.7</ele>
        <time>2021-07-23T16:33:59Z</time>
      </trkpt>
      <trkpt lat="45.11191" lon="2.93239">
        <ele>1012.4</ele>
        <time>2021-07-23T16:34:01Z</time>
      </trkpt>
      <trkpt lat="45.11199" lon="2.9325">
        <ele>1012.2</ele>
        <time>2021-07-23T16:34:03Z</time>
      </trkpt>
      <trkpt lat="45.11209" lon="2.9326">
        <ele>1012</ele>
        <time>2021-07-23T16:34:05Z</time>
      </trkpt>
      <trkpt lat="45.11219" lon="2.93268">
        <ele>1011.8</ele>
        <time>2021-07-23T16:34:07Z</time>
      </trkpt>
      <trkpt lat="45.11229" lon="2.93273">
        <ele>1011.6</ele>
        <time>2021-07-23T16:34:09Z</time>
      </trkpt>
      <trkpt lat="45.1124" lon="2.93277">
        <ele>1011.3</ele>
        <time>2021-07-23T16:34:11Z</time>
      </trkpt>
      <trkpt lat="45.1125" lon="2.93282">
        <ele>1011</ele>
        <time>2021-07-23T16:34:13Z</time>
      </trkpt>
      <trkpt lat="45.1126" lon="2.93286">
        <ele>1011.1</ele>
        <time>2021-07-23T16:34:15Z</time>
      </trkpt>
      <trkpt lat="45.1127" lon="2.93289">
        <ele>1011.3</ele>
        <time>2021-07-23T16:34:17Z</time>
      </trkpt>
      <trkpt lat="45.11279" lon="2.93292">
        <ele>1011.3</ele>
        <time>2021-07-23T16:34:19Z</time>
      </trkpt>
      <trkpt lat="45.11289" lon="2.93296">
        <ele>1011.4</ele>
        <time>2021-07-23T16:34:21Z</time>
      </trkpt>
      <trkpt lat="45.11299" lon="2.933">
        <ele>1011.5</ele>
        <time>2021-07-23T16:34:23Z</time>
      </trkpt>
      <trkpt lat="45.11307" lon="2.93303">
        <ele>1011.5</ele>
        <time>2021-07-23T16:34:25Z</time>
      </trkpt>
      <trkpt lat="45.11316" lon="2.93306">
        <ele>1011.5</ele>
        <time>2021-07-23T16:34:27Z</time>
      </trkpt>
      <trkpt lat="45.11325" lon="2.9331">
        <ele>1011.5</ele>
        <time>2021-07-23T16:34:29Z</time>
      </trkpt>
      <trkpt lat="45.1133" lon="2.93318">
        <ele>1011.3</ele>
        <time>2021-07-23T16:34:31Z</time>
      </trkpt>
      <trkpt lat="45.11327" lon="2.93327">
        <ele>1011.1</ele>
        <time>2021-07-23T16:34:33Z</time>
      </trkpt>
      <trkpt lat="45.11322" lon="2.93335">
        <ele>1011</ele>
        <time>2021-07-23T16:34:35Z</time>
      </trkpt>
      <trkpt lat="45.11316" lon="2.93341">
        <ele>1011.1</ele>
        <time>2021-07-23T16:34:37Z</time>
      </trkpt>
      <trkpt lat="45.11311" lon="2.93349">
        <ele>1011.2</ele>
        <time>2021-07-23T16:34:39Z</time>
      </trkpt>
      <trkpt lat="45.11305" lon="2.93355">
        <ele>1011.3</ele>
        <time>2021-07-23T16:34:41Z</time>
      </trkpt>
      <trkpt lat="45.11299" lon="2.93362">
        <ele>1011.3</ele>
        <time>2021-07-23T16:34:43Z</time>
      </trkpt>
      <trkpt lat="45.11294" lon="2.93369">
        <ele>1011.4</ele>
        <time>2021-07-23T16:34:45Z</time>
      </trkpt>
      <trkpt lat="45.11288" lon="2.93376">
        <ele>1011.5</ele>
        <time>2021-07-23T16:34:47Z</time>
      </trkpt>
      <trkpt lat="45.11283" lon="2.93383">
        <ele>1011.6</ele>
        <time>2021-07-23T16:34:49Z</time>
      </trkpt>
      <trkpt lat="45.11278" lon="2.93389">
        <ele>1011.7</ele>
        <time>2021-07-23T16:34:51Z</time>
      </trkpt>
      <trkpt lat="45.11273" lon="2.93395">
        <ele>1011.7</ele>
        <time>2021-07-23T16:34:53Z</time>
      </trkpt>
      <trkpt lat="45.11268" lon="2.93402">
        <ele>1011.8</ele>
        <time>2021-07-23T16:34:55Z</time>
      </trkpt>
      <trkpt lat="45.11263" lon="2.93408">
        <ele>1011.9</ele>
        <time>2021-07-23T16:34:57Z</time>
      </trkpt>
      <trkpt lat="45.11258" lon="2.93415">
        <ele>1012</ele>
        <time>2021-07-23T16:34:59Z</time>
      </trkpt>
      <trkpt lat="45.11253" lon="2.93421">
        <ele>1011.9</ele>
        <time>2021-07-23T16:35:01Z</time>
      </trkpt>
      <trkpt lat="45.11249" lon="2.93428">
        <ele>1011.9</ele>
        <time>2021-07-23T16:35:03Z</time>
      </trkpt>
      <trkpt lat="45.11244" lon="2.93433">
        <ele>1012</ele>
        <time>2021-07-23T16:35:05Z</time>
      </trkpt>
      <trkpt lat="45.11239" lon="2.93439">
        <ele>1012</ele>
        <time>2021-07-23T16:35:07Z</time>
      </trkpt>
      <trkpt lat="45.11235" lon="2.93444">
        <ele>1012.1</ele>
        <time>2021-07-23T16:35:09Z</time>
      </trkpt>
      <trkpt lat="45.1123" lon="2.9345">
        <ele>1012.2</ele>
        <time>2021-07-23T16:35:11Z</time>
      </trkpt>
      <trkpt lat="45.11226" lon="2.93456">
        <ele>1012.2</ele>
        <time>2021-07-23T16:35:13Z</time>
      </trkpt>
      <trkpt lat="45.11221" lon="2.93462">
        <ele>1012.4</ele>
        <time>2021-07-23T16:35:15Z</time>
      </trkpt>
      <trkpt lat="45.11216" lon="2.93468">
        <ele>1012.4</ele>
        <time>2021-07-23T16:35:17Z</time>
      </trkpt>
      <trkpt lat="45.11211" lon="2.93474">
        <ele>1012.6</ele>
        <time>2021-07-23T16:35:19Z</time>
      </trkpt>
      <trkpt lat="45.11206" lon="2.93481">
        <ele>1012.7</ele>
        <time>2021-07-23T16:35:21Z</time>
      </trkpt>
      <trkpt lat="45.11202" lon="2.93488">
        <ele>1012.8</ele>
        <time>2021-07-23T16:35:23Z</time>
      </trkpt>
      <trkpt lat="45.11198" lon="2.93496">
        <ele>1012.9</ele>
        <time>2021-07-23T16:35:25Z</time>
      </trkpt>
      <trkpt lat="45.11194" lon="2.93505">
        <ele>1013.1</ele>
        <time>2021-07-23T16:35:27Z</time>
      </trkpt>
      <trkpt lat="45.11189" lon="2.93515">
        <ele>1013.4</ele>
        <time>2021-07-23T16:35:29Z</time>
      </trkpt>
      <trkpt lat="45.11185" lon="2.93525">
        <ele>1013.6</ele>
        <time>2021-07-23T16:35:31Z</time>
      </trkpt>
      <trkpt lat="45.11181" lon="2.93535">
        <ele>1013.9</ele>
        <time>2021-07-23T16:35:33Z</time>
      </trkpt>
      <trkpt lat="45.11177" lon="2.93544">
        <ele>1014.1</ele>
        <time>2021-07-23T16:35:35Z</time>
      </trkpt>
      <trkpt lat="45.11174" lon="2.93554">
        <ele>1014.4</ele>
        <time>2021-07-23T16:35:37Z</time>
      </trkpt>
      <trkpt lat="45.11171" lon="2.93563">
        <ele>1014.6</ele>
        <time>2021-07-23T16:35:39Z</time>
      </trkpt>
      <trkpt lat="45.11168" lon="2.93572">
        <ele>1014.8</ele>
        <time>2021-07-23T16:35:41Z</time>
      </trkpt>
      <trkpt lat="45.11164" lon="2.93581">
        <ele>1015.1</ele>
        <time>2021-07-23T16:35:43Z</time>
      </trkpt>
      <trkpt lat="45.11161" lon="2.93589">
        <ele>1015.2</ele>
        <time>2021-07-23T16:35:45Z</time>
      </trkpt>
      <trkpt lat="45.11158" lon="2.93596">
        <ele>1015.3</ele>
        <time>2021-07-23T16:35:47Z</time>
      </trkpt>
      <trkpt lat="45.11156" lon="2.93604">
        <ele>1015.3</ele>
        <time>2021-07-23T16:35:49Z</time>
      </trkpt>
      <trkpt lat="45.11153" lon="2.93612">
        <ele>1015.4</ele>
        <time>2021-07-23T16:35:51Z</time>
      </trkpt>
      <trkpt lat="45.11149" lon="2.9362">
        <ele>1015.4</ele>
        <time>2021-07-23T16:35:53Z</time>
      </trkpt>
      <trkpt lat="45.11146" lon="2.93628">
        <ele>1015.5</ele>
        <time>2021-07-23T16:35:55Z</time>
      </trkpt>
      <trkpt lat="45.11143" lon="2.93636">
        <ele>1015.5</ele>
        <time>2021-07-23T16:35:57Z</time>
      </trkpt>
      <trkpt lat="45.11141" lon="2.93643">
        <ele>1015.5</ele>
        <time>2021-07-23T16:35:59Z</time>
      </trkpt>
      <trkpt lat="45.11137" lon="2.93651">
        <ele>1015.5</ele>
        <time>2021-07-23T16:36:01Z</time>
      </trkpt>
      <trkpt lat="45.11135" lon="2.9366">
        <ele>1015.4</ele>
        <time>2021-07-23T16:36:03Z</time>
      </trkpt>
      <trkpt lat="45.11132" lon="2.93668">
        <ele>1015.4</ele>
        <time>2021-07-23T16:36:05Z</time>
      </trkpt>
      <trkpt lat="45.11128" lon="2.93676">
        <ele>1015.3</ele>
        <time>2021-07-23T16:36:07Z</time>
      </trkpt>
      <trkpt lat="45.11125" lon="2.93685">
        <ele>1015.3</ele>
        <time>2021-07-23T16:36:09Z</time>
      </trkpt>
      <trkpt lat="45.11122" lon="2.93693">
        <ele>1015.2</ele>
        <time>2021-07-23T16:36:11Z</time>
      </trkpt>
      <trkpt lat="45.11118" lon="2.93701">
        <ele>1015.2</ele>
        <time>2021-07-23T16:36:13Z</time>
      </trkpt>
      <trkpt lat="45.11115" lon="2.93709">
        <ele>1015.2</ele>
        <time>2021-07-23T16:36:15Z</time>
      </trkpt>
      <trkpt lat="45.11111" lon="2.93717">
        <ele>1015.3</ele>
        <time>2021-07-23T16:36:17Z</time>
      </trkpt>
      <trkpt lat="45.11108" lon="2.93724">
        <ele>1015.3</ele>
        <time>2021-07-23T16:36:19Z</time>
      </trkpt>
      <trkpt lat="45.11105" lon="2.9373">
        <ele>1015.3</ele>
        <time>2021-07-23T16:36:21Z</time>
      </trkpt>
      <trkpt lat="45.11104" lon="2.93737">
        <ele>1015.3</ele>
        <time>2021-07-23T16:36:23Z</time>
      </trkpt>
      <trkpt lat="45.11104" lon="2.93745">
        <ele>1015.3</ele>
        <time>2021-07-23T16:36:25Z</time>
      </trkpt>
      <trkpt lat="45.11105" lon="2.93753">
        <ele>1015.3</ele>
        <time>2021-07-23T16:36:27Z</time>
      </trkpt>
      <trkpt lat="45.11107" lon="2.93762">
        <ele>1015.3</ele>
        <time>2021-07-23T16:36:29Z</time>
      </trkpt>
      <trkpt lat="45.1111" lon="2.93771">
        <ele>1015.4</ele>
        <time>2021-07-23T16:36:31Z</time>
      </trkpt>
      <trkpt lat="45.11114" lon="2.9378">
        <ele>1015.4</ele>
        <time>2021-07-23T16:36:33Z</time>
      </trkpt>
      <trkpt lat="45.11117" lon="2.93789">
        <ele>1015.4</ele>
        <time>2021-07-23T16:36:35Z</time>
      </trkpt>
      <trkpt lat="45.11122" lon="2.93798">
        <ele>1015.5</ele>
        <time>2021-07-23T16:36:37Z</time>
      </trkpt>
      <trkpt lat="45.11127" lon="2.93808">
        <ele>1015.5</ele>
        <time>2021-07-23T16:36:39Z</time>
      </trkpt>
      <trkpt lat="45.11132" lon="2.93819">
        <ele>1015.6</ele>
        <time>2021-07-23T16:36:41Z</time>
      </trkpt>
      <trkpt lat="45.11137" lon="2.93831">
        <ele>1015.7</ele>
        <time>2021-07-23T16:36:43Z</time>
      </trkpt>
      <trkpt lat="45.11143" lon="2.93842">
        <ele>1015.5</ele>
        <time>2021-07-23T16:36:45Z</time>
      </trkpt>
      <trkpt lat="45.11149" lon="2.93855">
        <ele>1015.4</ele>
        <time>2021-07-23T16:36:47Z</time>
      </trkpt>
      <trkpt lat="45.11155" lon="2.93867">
        <ele>1015.2</ele>
        <time>2021-07-23T16:36:49Z</time>
      </trkpt>
      <trkpt lat="45.1116" lon="2.93879">
        <ele>1015.1</ele>
        <time>2021-07-23T16:36:51Z</time>
      </trkpt>
      <trkpt lat="45.11166" lon="2.93892">
        <ele>1015</ele>
        <time>2021-07-23T16:36:53Z</time>
      </trkpt>
      <trkpt lat="45.11172" lon="2.93903">
        <ele>1014.9</ele>
        <time>2021-07-23T16:36:55Z</time>
      </trkpt>
      <trkpt lat="45.11178" lon="2.93915">
        <ele>1014.7</ele>
        <time>2021-07-23T16:36:57Z</time>
      </trkpt>
      <trkpt lat="45.11183" lon="2.93926">
        <ele>1014.4</ele>
        <time>2021-07-23T16:36:59Z</time>
      </trkpt>
      <trkpt lat="45.11189" lon="2.93937">
        <ele>1014.1</ele>
        <time>2021-07-23T16:37:01Z</time>
      </trkpt>
      <trkpt lat="45.11194" lon="2.93949">
        <ele>1013.7</ele>
        <time>2021-07-23T16:37:03Z</time>
      </trkpt>
      <trkpt lat="45.112" lon="2.93961">
        <ele>1013.3</ele>
        <time>2021-07-23T16:37:05Z</time>
      </trkpt>
      <trkpt lat="45.11206" lon="2.93973">
        <ele>1013</ele>
        <time>2021-07-23T16:37:07Z</time>
      </trkpt>
      <trkpt lat="45.11212" lon="2.93986">
        <ele>1012.7</ele>
        <time>2021-07-23T16:37:09Z</time>
      </trkpt>
      <trkpt lat="45.11217" lon="2.93998">
        <ele>1012.4</ele>
        <time>2021-07-23T16:37:11Z</time>
      </trkpt>
      <trkpt lat="45.11223" lon="2.94011">
        <ele>1012.1</ele>
        <time>2021-07-23T16:37:13Z</time>
      </trkpt>
      <trkpt lat="45.1123" lon="2.94024">
        <ele>1011.7</ele>
        <time>2021-07-23T16:37:15Z</time>
      </trkpt>
      <trkpt lat="45.11236" lon="2.94039">
        <ele>1011.2</ele>
        <time>2021-07-23T16:37:17Z</time>
      </trkpt>
      <trkpt lat="45.11244" lon="2.94056">
        <ele>1010.7</ele>
        <time>2021-07-23T16:37:19Z</time>
      </trkpt>
      <trkpt lat="45.11253" lon="2.94075">
        <ele>1010.2</ele>
        <time>2021-07-23T16:37:21Z</time>
      </trkpt>
      <trkpt lat="45.11262" lon="2.94095">
        <ele>1009.8</ele>
        <time>2021-07-23T16:37:23Z</time>
      </trkpt>
      <trkpt lat="45.11272" lon="2.94116">
        <ele>1009.4</ele>
        <time>2021-07-23T16:37:25Z</time>
      </trkpt>
      <trkpt lat="45.11282" lon="2.94137">
        <ele>1008.9</ele>
        <time>2021-07-23T16:37:27Z</time>
      </trkpt>
      <trkpt lat="45.11293" lon="2.94157">
        <ele>1008.2</ele>
        <time>2021-07-23T16:37:29Z</time>
      </trkpt>
      <trkpt lat="45.11302" lon="2.94179">
        <ele>1007.8</ele>
        <time>2021-07-23T16:37:31Z</time>
      </trkpt>
      <trkpt lat="45.11311" lon="2.942">
        <ele>1007.6</ele>
        <time>2021-07-23T16:37:33Z</time>
      </trkpt>
      <trkpt lat="45.1132" lon="2.9422">
        <ele>1007.4</ele>
        <time>2021-07-23T16:37:35Z</time>
      </trkpt>
      <trkpt lat="45.11326" lon="2.9424">
        <ele>1007.3</ele>
        <time>2021-07-23T16:37:37Z</time>
      </trkpt>
      <trkpt lat="45.1133" lon="2.94259">
        <ele>1007.4</ele>
        <time>2021-07-23T16:37:39Z</time>
      </trkpt>
      <trkpt lat="45.11334" lon="2.94276">
        <ele>1007.9</ele>
        <time>2021-07-23T16:37:41Z</time>
      </trkpt>
      <trkpt lat="45.11337" lon="2.94291">
        <ele>1008.4</ele>
        <time>2021-07-23T16:37:43Z</time>
      </trkpt>
      <trkpt lat="45.1134" lon="2.94305">
        <ele>1008.7</ele>
        <time>2021-07-23T16:37:45Z</time>
      </trkpt>
      <trkpt lat="45.11344" lon="2.94318">
        <ele>1009</ele>
        <time>2021-07-23T16:37:47Z</time>
      </trkpt>
      <trkpt lat="45.11347" lon="2.94331">
        <ele>1009.3</ele>
        <time>2021-07-23T16:37:49Z</time>
      </trkpt>
      <trkpt lat="45.1135" lon="2.94344">
        <ele>1009.2</ele>
        <time>2021-07-23T16:37:51Z</time>
      </trkpt>
      <trkpt lat="45.11353" lon="2.94356">
        <ele>1009.1</ele>
        <time>2021-07-23T16:37:53Z</time>
      </trkpt>
      <trkpt lat="45.11357" lon="2.94368">
        <ele>1009</ele>
        <time>2021-07-23T16:37:55Z</time>
      </trkpt>
      <trkpt lat="45.11361" lon="2.94378">
        <ele>1008.9</ele>
        <time>2021-07-23T16:37:57Z</time>
      </trkpt>
      <trkpt lat="45.11365" lon="2.9439">
        <ele>1008.8</ele>
        <time>2021-07-23T16:37:59Z</time>
      </trkpt>
      <trkpt lat="45.11369" lon="2.944">
        <ele>1008.6</ele>
        <time>2021-07-23T16:38:01Z</time>
      </trkpt>
      <trkpt lat="45.11373" lon="2.94411">
        <ele>1008.6</ele>
        <time>2021-07-23T16:38:03Z</time>
      </trkpt>
      <trkpt lat="45.11375" lon="2.94423">
        <ele>1008.6</ele>
        <time>2021-07-23T16:38:05Z</time>
      </trkpt>
      <trkpt lat="45.11377" lon="2.94436">
        <ele>1008.6</ele>
        <time>2021-07-23T16:38:07Z</time>
      </trkpt>
      <trkpt lat="45.11379" lon="2.94449">
        <ele>1008.8</ele>
        <time>2021-07-23T16:38:09Z</time>
      </trkpt>
      <trkpt lat="45.11379" lon="2.94463">
        <ele>1008.9</ele>
        <time>2021-07-23T16:38:11Z</time>
      </trkpt>
      <trkpt lat="45.11379" lon="2.94476">
        <ele>1009</ele>
        <time>2021-07-23T16:38:13Z</time>
      </trkpt>
      <trkpt lat="45.11379" lon="2.94488">
        <ele>1009.2</ele>
        <time>2021-07-23T16:38:15Z</time>
      </trkpt>
      <trkpt lat="45.1138" lon="2.945">
        <ele>1009.3</ele>
        <time>2021-07-23T16:38:17Z</time>
      </trkpt>
      <trkpt lat="45.1138" lon="2.94511">
        <ele>1009.6</ele>
        <time>2021-07-23T16:38:19Z</time>
      </trkpt>
      <trkpt lat="45.11379" lon="2.94522">
        <ele>1009.8</ele>
        <time>2021-07-23T16:38:21Z</time>
      </trkpt>
      <trkpt lat="45.1138" lon="2.94533">
        <ele>1010</ele>
        <time>2021-07-23T16:38:23Z</time>
      </trkpt>
      <trkpt lat="45.1138" lon="2.94544">
        <ele>1010.2</ele>
        <time>2021-07-23T16:38:25Z</time>
      </trkpt>
      <trkpt lat="45.1138" lon="2.94555">
        <ele>1010.4</ele>
        <time>2021-07-23T16:38:27Z</time>
      </trkpt>
      <trkpt lat="45.1138" lon="2.94564">
        <ele>1010.6</ele>
        <time>2021-07-23T16:38:29Z</time>
      </trkpt>
      <trkpt lat="45.11381" lon="2.94574">
        <ele>1010.8</ele>
        <time>2021-07-23T16:38:31Z</time>
      </trkpt>
      <trkpt lat="45.11383" lon="2.94584">
        <ele>1011</ele>
        <time>2021-07-23T16:38:33Z</time>
      </trkpt>
      <trkpt lat="45.11385" lon="2.94593">
        <ele>1011.1</ele>
        <time>2021-07-23T16:38:35Z</time>
      </trkpt>
      <trkpt lat="45.11389" lon="2.94604">
        <ele>1011.2</ele>
        <time>2021-07-23T16:38:37Z</time>
      </trkpt>
      <trkpt lat="45.11393" lon="2.94614">
        <ele>1011.3</ele>
        <time>2021-07-23T16:38:39Z</time>
      </trkpt>
      <trkpt lat="45.11397" lon="2.94624">
        <ele>1011.4</ele>
        <time>2021-07-23T16:38:41Z</time>
      </trkpt>
      <trkpt lat="45.11402" lon="2.94634">
        <ele>1011.5</ele>
        <time>2021-07-23T16:38:43Z</time>
      </trkpt>
      <trkpt lat="45.11407" lon="2.94645">
        <ele>1011.7</ele>
        <time>2021-07-23T16:38:45Z</time>
      </trkpt>
      <trkpt lat="45.11412" lon="2.94655">
        <ele>1011.8</ele>
        <time>2021-07-23T16:38:47Z</time>
      </trkpt>
      <trkpt lat="45.11416" lon="2.94664">
        <ele>1012</ele>
        <time>2021-07-23T16:38:49Z</time>
      </trkpt>
      <trkpt lat="45.1142" lon="2.94675">
        <ele>1011.8</ele>
        <time>2021-07-23T16:38:51Z</time>
      </trkpt>
      <trkpt lat="45.11425" lon="2.94686">
        <ele>1011.6</ele>
        <time>2021-07-23T16:38:53Z</time>
      </trkpt>
      <trkpt lat="45.11428" lon="2.94697">
        <ele>1011.5</ele>
        <time>2021-07-23T16:38:55Z</time>
      </trkpt>
      <trkpt lat="45.11432" lon="2.94708">
        <ele>1011.3</ele>
        <time>2021-07-23T16:38:57Z</time>
      </trkpt>
      <trkpt lat="45.11435" lon="2.9472">
        <ele>1011.2</ele>
        <time>2021-07-23T16:38:59Z</time>
      </trkpt>
      <trkpt lat="45.11438" lon="2.94733">
        <ele>1011.1</ele>
        <time>2021-07-23T16:39:01Z</time>
      </trkpt>
      <trkpt lat="45.11439" lon="2.94746">
        <ele>1011</ele>
        <time>2021-07-23T16:39:03Z</time>
      </trkpt>
      <trkpt lat="45.1144" lon="2.94759">
        <ele>1011.2</ele>
        <time>2021-07-23T16:39:05Z</time>
      </trkpt>
      <trkpt lat="45.1144" lon="2.94772">
        <ele>1011.5</ele>
        <time>2021-07-23T16:39:07Z</time>
      </trkpt>
      <trkpt lat="45.1144" lon="2.94784">
        <ele>1011.8</ele>
        <time>2021-07-23T16:39:09Z</time>
      </trkpt>
      <trkpt lat="45.11441" lon="2.94797">
        <ele>1012</ele>
        <time>2021-07-23T16:39:11Z</time>
      </trkpt>
      <trkpt lat="45.11443" lon="2.9481">
        <ele>1012.3</ele>
        <time>2021-07-23T16:39:13Z</time>
      </trkpt>
      <trkpt lat="45.11445" lon="2.94822">
        <ele>1012.4</ele>
        <time>2021-07-23T16:39:15Z</time>
      </trkpt>
      <trkpt lat="45.11449" lon="2.94834">
        <ele>1012.5</ele>
        <time>2021-07-23T16:39:17Z</time>
      </trkpt>
      <trkpt lat="45.11453" lon="2.94845">
        <ele>1012.1</ele>
        <time>2021-07-23T16:39:19Z</time>
      </trkpt>
      <trkpt lat="45.11458" lon="2.94857">
        <ele>1011.7</ele>
        <time>2021-07-23T16:39:21Z</time>
      </trkpt>
      <trkpt lat="45.11465" lon="2.94869">
        <ele>1011.2</ele>
        <time>2021-07-23T16:39:23Z</time>
      </trkpt>
      <trkpt lat="45.11473" lon="2.94882">
        <ele>1010.7</ele>
        <time>2021-07-23T16:39:25Z</time>
      </trkpt>
      <trkpt lat="45.1148" lon="2.94895">
        <ele>1010.2</ele>
        <time>2021-07-23T16:39:27Z</time>
      </trkpt>
      <trkpt lat="45.11489" lon="2.94909">
        <ele>1009.6</ele>
        <time>2021-07-23T16:39:29Z</time>
      </trkpt>
      <trkpt lat="45.11496" lon="2.94923">
        <ele>1009.2</ele>
        <time>2021-07-23T16:39:31Z</time>
      </trkpt>
      <trkpt lat="45.11504" lon="2.94936">
        <ele>1008.9</ele>
        <time>2021-07-23T16:39:33Z</time>
      </trkpt>
      <trkpt lat="45.11511" lon="2.94952">
        <ele>1008.6</ele>
        <time>2021-07-23T16:39:35Z</time>
      </trkpt>
      <trkpt lat="45.11518" lon="2.94969">
        <ele>1008.3</ele>
        <time>2021-07-23T16:39:37Z</time>
      </trkpt>
      <trkpt lat="45.11522" lon="2.94989">
        <ele>1008</ele>
        <time>2021-07-23T16:39:39Z</time>
      </trkpt>
      <trkpt lat="45.11524" lon="2.9501">
        <ele>1008</ele>
        <time>2021-07-23T16:39:41Z</time>
      </trkpt>
      <trkpt lat="45.11524" lon="2.9503">
        <ele>1008.3</ele>
        <time>2021-07-23T16:39:43Z</time>
      </trkpt>
      <trkpt lat="45.11526" lon="2.95047">
        <ele>1008.5</ele>
        <time>2021-07-23T16:39:45Z</time>
      </trkpt>
      <trkpt lat="45.11529" lon="2.95062">
        <ele>1008.6</ele>
        <time>2021-07-23T16:39:47Z</time>
      </trkpt>
      <trkpt lat="45.11531" lon="2.95074">
        <ele>1008.6</ele>
        <time>2021-07-23T16:39:49Z</time>
      </trkpt>
      <trkpt lat="45.11533" lon="2.95084">
        <ele>1008.6</ele>
        <time>2021-07-23T16:39:51Z</time>
      </trkpt>
      <trkpt lat="45.11535" lon="2.95093">
        <ele>1008.5</ele>
        <time>2021-07-23T16:39:53Z</time>
      </trkpt>
      <trkpt lat="45.11537" lon="2.95102">
        <ele>1008.4</ele>
        <time>2021-07-23T16:39:55Z</time>
      </trkpt>
      <trkpt lat="45.11539" lon="2.9511">
        <ele>1008.4</ele>
        <time>2021-07-23T16:39:57Z</time>
      </trkpt>
      <trkpt lat="45.1154" lon="2.95117">
        <ele>1008.3</ele>
        <time>2021-07-23T16:39:59Z</time>
      </trkpt>
      <trkpt lat="45.1154" lon="2.95124">
        <ele>1008.4</ele>
        <time>2021-07-23T16:40:01Z</time>
      </trkpt>
      <trkpt lat="45.11541" lon="2.95131">
        <ele>1008.3</ele>
        <time>2021-07-23T16:40:03Z</time>
      </trkpt>
      <trkpt lat="45.11542" lon="2.95139">
        <ele>1008.3</ele>
        <time>2021-07-23T16:40:05Z</time>
      </trkpt>
      <trkpt lat="45.11542" lon="2.95149">
        <ele>1008.4</ele>
        <time>2021-07-23T16:40:07Z</time>
      </trkpt>
      <trkpt lat="45.11543" lon="2.95158">
        <ele>1008.4</ele>
        <time>2021-07-23T16:40:09Z</time>
      </trkpt>
      <trkpt lat="45.11544" lon="2.95167">
        <ele>1008.4</ele>
        <time>2021-07-23T16:40:11Z</time>
      </trkpt>
      <trkpt lat="45.11546" lon="2.95174">
        <ele>1008.3</ele>
        <time>2021-07-23T16:40:13Z</time>
      </trkpt>
      <trkpt lat="45.1155" lon="2.95181">
        <ele>1008.2</ele>
        <time>2021-07-23T16:40:15Z</time>
      </trkpt>
      <trkpt lat="45.11553" lon="2.95188">
        <ele>1008</ele>
        <time>2021-07-23T16:40:17Z</time>
      </trkpt>
      <trkpt lat="45.11557" lon="2.95196">
        <ele>1008</ele>
        <time>2021-07-23T16:40:19Z</time>
      </trkpt>
      <trkpt lat="45.1156" lon="2.95206">
        <ele>1008</ele>
        <time>2021-07-23T16:40:21Z</time>
      </trkpt>
      <trkpt lat="45.11564" lon="2.95217">
        <ele>1007.9</ele>
        <time>2021-07-23T16:40:23Z</time>
      </trkpt>
      <trkpt lat="45.11567" lon="2.95231">
        <ele>1008.1</ele>
        <time>2021-07-23T16:40:25Z</time>
      </trkpt>
      <trkpt lat="45.11566" lon="2.95247">
        <ele>1008.4</ele>
        <time>2021-07-23T16:40:27Z</time>
      </trkpt>
      <trkpt lat="45.11563" lon="2.95264">
        <ele>1008.2</ele>
        <time>2021-07-23T16:40:29Z</time>
      </trkpt>
      <trkpt lat="45.11564" lon="2.95282">
        <ele>1007.9</ele>
        <time>2021-07-23T16:40:31Z</time>
      </trkpt>
      <trkpt lat="45.11566" lon="2.95295">
        <ele>1007.6</ele>
        <time>2021-07-23T16:40:33Z</time>
      </trkpt>
      <trkpt lat="45.1157" lon="2.95301">
        <ele>1007.3</ele>
        <time>2021-07-23T16:40:35Z</time>
      </trkpt>
      <trkpt lat="45.11576" lon="2.95305">
        <ele>1007</ele>
        <time>2021-07-23T16:40:39Z</time>
      </trkpt>
      <trkpt lat="45.1158" lon="2.95304">
        <ele>1006.8</ele>
        <time>2021-07-23T16:40:49Z</time>
      </trkpt>
      <trkpt lat="45.11589" lon="2.95304">
        <ele>1006.3</ele>
        <time>2021-07-23T16:40:53Z</time>
      </trkpt>
      <trkpt lat="45.11596" lon="2.95303">
        <ele>1005.7</ele>
        <time>2021-07-23T16:40:55Z</time>
      </trkpt>
      <trkpt lat="45.11602" lon="2.95297">
        <ele>1005.3</ele>
        <time>2021-07-23T16:40:57Z</time>
      </trkpt>
      <trkpt lat="45.1161" lon="2.95291">
        <ele>1004.8</ele>
        <time>2021-07-23T16:40:59Z</time>
      </trkpt>
      <trkpt lat="45.11617" lon="2.95282">
        <ele>1004.3</ele>
        <time>2021-07-23T16:41:01Z</time>
      </trkpt>
      <trkpt lat="45.11626" lon="2.95273">
        <ele>1003.6</ele>
        <time>2021-07-23T16:41:03Z</time>
      </trkpt>
      <trkpt lat="45.11636" lon="2.95265">
        <ele>1002.8</ele>
        <time>2021-07-23T16:41:05Z</time>
      </trkpt>
      <trkpt lat="45.11644" lon="2.95258">
        <ele>1002.1</ele>
        <time>2021-07-23T16:41:07Z</time>
      </trkpt>
      <trkpt lat="45.11653" lon="2.9525">
        <ele>1001.3</ele>
        <time>2021-07-23T16:41:09Z</time>
      </trkpt>
      <trkpt lat="45.11664" lon="2.95243">
        <ele>1000.1</ele>
        <time>2021-07-23T16:41:11Z</time>
      </trkpt>
      <trkpt lat="45.11675" lon="2.95235">
        <ele>998.9</ele>
        <time>2021-07-23T16:41:13Z</time>
      </trkpt>
      <trkpt lat="45.11687" lon="2.95228">
        <ele>997.5</ele>
        <time>2021-07-23T16:41:15Z</time>
      </trkpt>
      <trkpt lat="45.117" lon="2.95222">
        <ele>996</ele>
        <time>2021-07-23T16:41:17Z</time>
      </trkpt>
      <trkpt lat="45.11713" lon="2.95214">
        <ele>994.7</ele>
        <time>2021-07-23T16:41:19Z</time>
      </trkpt>
      <trkpt lat="45.11727" lon="2.95206">
        <ele>993.4</ele>
        <time>2021-07-23T16:41:21Z</time>
      </trkpt>
      <trkpt lat="45.1174" lon="2.95195">
        <ele>992.3</ele>
        <time>2021-07-23T16:41:23Z</time>
      </trkpt>
      <trkpt lat="45.11751" lon="2.9518">
        <ele>991.3</ele>
        <time>2021-07-23T16:41:25Z</time>
      </trkpt>
      <trkpt lat="45.1176" lon="2.9516">
        <ele>988.5</ele>
        <time>2021-07-23T16:41:27Z</time>
      </trkpt>
      <trkpt lat="45.11768" lon="2.9514">
        <ele>986.2</ele>
        <time>2021-07-23T16:41:29Z</time>
      </trkpt>
      <trkpt lat="45.11775" lon="2.95119">
        <ele>984.4</ele>
        <time>2021-07-23T16:41:31Z</time>
      </trkpt>
      <trkpt lat="45.11783" lon="2.95099">
        <ele>982.6</ele>
        <time>2021-07-23T16:41:33Z</time>
      </trkpt>
      <trkpt lat="45.11791" lon="2.9508">
        <ele>980.9</ele>
        <time>2021-07-23T16:41:35Z</time>
      </trkpt>
      <trkpt lat="45.11799" lon="2.95062">
        <ele>979.3</ele>
        <time>2021-07-23T16:41:37Z</time>
      </trkpt>
      <trkpt lat="45.11804" lon="2.95042">
        <ele>978.8</ele>
        <time>2021-07-23T16:41:39Z</time>
      </trkpt>
      <trkpt lat="45.11807" lon="2.9502">
        <ele>979.5</ele>
        <time>2021-07-23T16:41:41Z</time>
      </trkpt>
      <trkpt lat="45.11805" lon="2.94996">
        <ele>981.2</ele>
        <time>2021-07-23T16:41:43Z</time>
      </trkpt>
      <trkpt lat="45.11803" lon="2.9497">
        <ele>982.2</ele>
        <time>2021-07-23T16:41:45Z</time>
      </trkpt>
      <trkpt lat="45.11803" lon="2.94942">
        <ele>982.8</ele>
        <time>2021-07-23T16:41:47Z</time>
      </trkpt>
      <trkpt lat="45.11807" lon="2.94913">
        <ele>982.2</ele>
        <time>2021-07-23T16:41:49Z</time>
      </trkpt>
      <trkpt lat="45.11812" lon="2.94884">
        <ele>980.2</ele>
        <time>2021-07-23T16:41:51Z</time>
      </trkpt>
      <trkpt lat="45.11815" lon="2.94853">
        <ele>978.8</ele>
        <time>2021-07-23T16:41:53Z</time>
      </trkpt>
      <trkpt lat="45.11816" lon="2.94821">
        <ele>977.8</ele>
        <time>2021-07-23T16:41:55Z</time>
      </trkpt>
      <trkpt lat="45.11817" lon="2.94789">
        <ele>977.6</ele>
        <time>2021-07-23T16:41:57Z</time>
      </trkpt>
      <trkpt lat="45.11819" lon="2.94757">
        <ele>977.1</ele>
        <time>2021-07-23T16:41:59Z</time>
      </trkpt>
      <trkpt lat="45.11819" lon="2.94727">
        <ele>975.7</ele>
        <time>2021-07-23T16:42:01Z</time>
      </trkpt>
      <trkpt lat="45.11819" lon="2.94705">
        <ele>974.3</ele>
        <time>2021-07-23T16:42:03Z</time>
      </trkpt>
      <trkpt lat="45.11821" lon="2.94691">
        <ele>972.8</ele>
        <time>2021-07-23T16:42:05Z</time>
      </trkpt>
      <trkpt lat="45.11829" lon="2.94691">
        <ele>970.3</ele>
        <time>2021-07-23T16:42:07Z</time>
      </trkpt>
      <trkpt lat="45.11833" lon="2.94703">
        <ele>969.8</ele>
        <time>2021-07-23T16:42:09Z</time>
      </trkpt>
      <trkpt lat="45.11832" lon="2.94721">
        <ele>971.5</ele>
        <time>2021-07-23T16:42:11Z</time>
      </trkpt>
      <trkpt lat="45.11832" lon="2.94743">
        <ele>972.7</ele>
        <time>2021-07-23T16:42:13Z</time>
      </trkpt>
      <trkpt lat="45.11836" lon="2.94766">
        <ele>972.2</ele>
        <time>2021-07-23T16:42:15Z</time>
      </trkpt>
      <trkpt lat="45.1184" lon="2.94792">
        <ele>970.5</ele>
        <time>2021-07-23T16:42:17Z</time>
      </trkpt>
      <trkpt lat="45.11845" lon="2.9482">
        <ele>968.5</ele>
        <time>2021-07-23T16:42:19Z</time>
      </trkpt>
      <trkpt lat="45.11851" lon="2.94849">
        <ele>966.7</ele>
        <time>2021-07-23T16:42:21Z</time>
      </trkpt>
      <trkpt lat="45.11859" lon="2.9488">
        <ele>964.7</ele>
        <time>2021-07-23T16:42:23Z</time>
      </trkpt>
      <trkpt lat="45.11869" lon="2.94909">
        <ele>961.9</ele>
        <time>2021-07-23T16:42:25Z</time>
      </trkpt>
      <trkpt lat="45.11877" lon="2.94939">
        <ele>959.4</ele>
        <time>2021-07-23T16:42:27Z</time>
      </trkpt>
      <trkpt lat="45.11882" lon="2.94969">
        <ele>958</ele>
        <time>2021-07-23T16:42:29Z</time>
      </trkpt>
      <trkpt lat="45.11884" lon="2.95">
        <ele>957.6</ele>
        <time>2021-07-23T16:42:31Z</time>
      </trkpt>
      <trkpt lat="45.11881" lon="2.95029">
        <ele>956.7</ele>
        <time>2021-07-23T16:42:33Z</time>
      </trkpt>
      <trkpt lat="45.11875" lon="2.95057">
        <ele>956.3</ele>
        <time>2021-07-23T16:42:35Z</time>
      </trkpt>
      <trkpt lat="45.11877" lon="2.95088">
        <ele>953.5</ele>
        <time>2021-07-23T16:42:37Z</time>
      </trkpt>
      <trkpt lat="45.11882" lon="2.95121">
        <ele>950.2</ele>
        <time>2021-07-23T16:42:39Z</time>
      </trkpt>
      <trkpt lat="45.11885" lon="2.95153">
        <ele>947.3</ele>
        <time>2021-07-23T16:42:41Z</time>
      </trkpt>
      <trkpt lat="45.11887" lon="2.95185">
        <ele>944.5</ele>
        <time>2021-07-23T16:42:43Z</time>
      </trkpt>
      <trkpt lat="45.11895" lon="2.95215">
        <ele>940.3</ele>
        <time>2021-07-23T16:42:45Z</time>
      </trkpt>
      <trkpt lat="45.11903" lon="2.95242">
        <ele>936.6</ele>
        <time>2021-07-23T16:42:47Z</time>
      </trkpt>
      <trkpt lat="45.11916" lon="2.9527">
        <ele>932.3</ele>
        <time>2021-07-23T16:42:49Z</time>
      </trkpt>
      <trkpt lat="45.11929" lon="2.95302">
        <ele>928.9</ele>
        <time>2021-07-23T16:42:51Z</time>
      </trkpt>
      <trkpt lat="45.11942" lon="2.95333">
        <ele>925.8</ele>
        <time>2021-07-23T16:42:53Z</time>
      </trkpt>
      <trkpt lat="45.11955" lon="2.95364">
        <ele>924.2</ele>
        <time>2021-07-23T16:42:55Z</time>
      </trkpt>
      <trkpt lat="45.11967" lon="2.95396">
        <ele>922.9</ele>
        <time>2021-07-23T16:42:57Z</time>
      </trkpt>
      <trkpt lat="45.11975" lon="2.95429">
        <ele>921.1</ele>
        <time>2021-07-23T16:42:59Z</time>
      </trkpt>
      <trkpt lat="45.11973" lon="2.95466">
        <ele>919.3</ele>
        <time>2021-07-23T16:43:01Z</time>
      </trkpt>
      <trkpt lat="45.11972" lon="2.95502">
        <ele>917.1</ele>
        <time>2021-07-23T16:43:03Z</time>
      </trkpt>
      <trkpt lat="45.11969" lon="2.95539">
        <ele>913.8</ele>
        <time>2021-07-23T16:43:05Z</time>
      </trkpt>
      <trkpt lat="45.11965" lon="2.95575">
        <ele>910.4</ele>
        <time>2021-07-23T16:43:07Z</time>
      </trkpt>
      <trkpt lat="45.11963" lon="2.95614">
        <ele>907.6</ele>
        <time>2021-07-23T16:43:09Z</time>
      </trkpt>
      <trkpt lat="45.11961" lon="2.95653">
        <ele>904.9</ele>
        <time>2021-07-23T16:43:11Z</time>
      </trkpt>
      <trkpt lat="45.11961" lon="2.95691">
        <ele>903.1</ele>
        <time>2021-07-23T16:43:13Z</time>
      </trkpt>
      <trkpt lat="45.11964" lon="2.95728">
        <ele>901.5</ele>
        <time>2021-07-23T16:43:15Z</time>
      </trkpt>
      <trkpt lat="45.11967" lon="2.95767">
        <ele>899.5</ele>
        <time>2021-07-23T16:43:17Z</time>
      </trkpt>
      <trkpt lat="45.11968" lon="2.95807">
        <ele>897.4</ele>
        <time>2021-07-23T16:43:19Z</time>
      </trkpt>
      <trkpt lat="45.11971" lon="2.95845">
        <ele>896.1</ele>
        <time>2021-07-23T16:43:21Z</time>
      </trkpt>
      <trkpt lat="45.11974" lon="2.95881">
        <ele>896.6</ele>
        <time>2021-07-23T16:43:23Z</time>
      </trkpt>
      <trkpt lat="45.11976" lon="2.95914">
        <ele>897</ele>
        <time>2021-07-23T16:43:25Z</time>
      </trkpt>
      <trkpt lat="45.11978" lon="2.95947">
        <ele>897.4</ele>
        <time>2021-07-23T16:43:27Z</time>
      </trkpt>
      <trkpt lat="45.1198" lon="2.95979">
        <ele>897.6</ele>
        <time>2021-07-23T16:43:29Z</time>
      </trkpt>
      <trkpt lat="45.11982" lon="2.96011">
        <ele>897.2</ele>
        <time>2021-07-23T16:43:31Z</time>
      </trkpt>
      <trkpt lat="45.11989" lon="2.96041">
        <ele>894.8</ele>
        <time>2021-07-23T16:43:33Z</time>
      </trkpt>
      <trkpt lat="45.11999" lon="2.96069">
        <ele>891.8</ele>
        <time>2021-07-23T16:43:35Z</time>
      </trkpt>
      <trkpt lat="45.12012" lon="2.96094">
        <ele>889.3</ele>
        <time>2021-07-23T16:43:37Z</time>
      </trkpt>
      <trkpt lat="45.12028" lon="2.96117">
        <ele>886.7</ele>
        <time>2021-07-23T16:43:39Z</time>
      </trkpt>
      <trkpt lat="45.12048" lon="2.96134">
        <ele>884.2</ele>
        <time>2021-07-23T16:43:41Z</time>
      </trkpt>
      <trkpt lat="45.12068" lon="2.9615">
        <ele>881.9</ele>
        <time>2021-07-23T16:43:43Z</time>
      </trkpt>
      <trkpt lat="45.12086" lon="2.96168">
        <ele>879.6</ele>
        <time>2021-07-23T16:43:45Z</time>
      </trkpt>
      <trkpt lat="45.121" lon="2.96192">
        <ele>877.4</ele>
        <time>2021-07-23T16:43:47Z</time>
      </trkpt>
      <trkpt lat="45.12107" lon="2.96222">
        <ele>875.9</ele>
        <time>2021-07-23T16:43:49Z</time>
      </trkpt>
      <trkpt lat="45.12112" lon="2.96252">
        <ele>874.9</ele>
        <time>2021-07-23T16:43:51Z</time>
      </trkpt>
      <trkpt lat="45.12121" lon="2.96279">
        <ele>874.7</ele>
        <time>2021-07-23T16:43:53Z</time>
      </trkpt>
      <trkpt lat="45.12136" lon="2.96299">
        <ele>874.5</ele>
        <time>2021-07-23T16:43:55Z</time>
      </trkpt>
      <trkpt lat="45.12153" lon="2.96313">
        <ele>874.4</ele>
        <time>2021-07-23T16:43:57Z</time>
      </trkpt>
      <trkpt lat="45.12171" lon="2.96323">
        <ele>873.9</ele>
        <time>2021-07-23T16:43:59Z</time>
      </trkpt>
      <trkpt lat="45.12191" lon="2.96329">
        <ele>871</ele>
        <time>2021-07-23T16:44:01Z</time>
      </trkpt>
      <trkpt lat="45.1221" lon="2.96332">
        <ele>868.2</ele>
        <time>2021-07-23T16:44:03Z</time>
      </trkpt>
      <trkpt lat="45.12227" lon="2.96339">
        <ele>866</ele>
        <time>2021-07-23T16:44:05Z</time>
      </trkpt>
      <trkpt lat="45.12243" lon="2.96353">
        <ele>864.5</ele>
        <time>2021-07-23T16:44:07Z</time>
      </trkpt>
      <trkpt lat="45.12257" lon="2.96373">
        <ele>863.8</ele>
        <time>2021-07-23T16:44:09Z</time>
      </trkpt>
      <trkpt lat="45.12271" lon="2.96395">
        <ele>863</ele>
        <time>2021-07-23T16:44:11Z</time>
      </trkpt>
      <trkpt lat="45.12284" lon="2.96419">
        <ele>862.4</ele>
        <time>2021-07-23T16:44:13Z</time>
      </trkpt>
      <trkpt lat="45.12295" lon="2.96445">
        <ele>861.7</ele>
        <time>2021-07-23T16:44:15Z</time>
      </trkpt>
      <trkpt lat="45.12306" lon="2.96473">
        <ele>861.1</ele>
        <time>2021-07-23T16:44:17Z</time>
      </trkpt>
      <trkpt lat="45.12314" lon="2.96503">
        <ele>860.8</ele>
        <time>2021-07-23T16:44:19Z</time>
      </trkpt>
      <trkpt lat="45.12319" lon="2.96534">
        <ele>860.3</ele>
        <time>2021-07-23T16:44:21Z</time>
      </trkpt>
      <trkpt lat="45.12325" lon="2.96566">
        <ele>859.2</ele>
        <time>2021-07-23T16:44:23Z</time>
      </trkpt>
      <trkpt lat="45.12331" lon="2.96599">
        <ele>858.1</ele>
        <time>2021-07-23T16:44:25Z</time>
      </trkpt>
      <trkpt lat="45.1234" lon="2.9663">
        <ele>857.1</ele>
        <time>2021-07-23T16:44:27Z</time>
      </trkpt>
      <trkpt lat="45.12351" lon="2.96661">
        <ele>855.8</ele>
        <time>2021-07-23T16:44:29Z</time>
      </trkpt>
      <trkpt lat="45.12364" lon="2.96691">
        <ele>855.5</ele>
        <time>2021-07-23T16:44:31Z</time>
      </trkpt>
      <trkpt lat="45.12378" lon="2.96721">
        <ele>855.4</ele>
        <time>2021-07-23T16:44:33Z</time>
      </trkpt>
      <trkpt lat="45.12393" lon="2.96749">
        <ele>854.8</ele>
        <time>2021-07-23T16:44:35Z</time>
      </trkpt>
      <trkpt lat="45.1241" lon="2.96775">
        <ele>853.8</ele>
        <time>2021-07-23T16:44:37Z</time>
      </trkpt>
      <trkpt lat="45.12428" lon="2.96798">
        <ele>852.6</ele>
        <time>2021-07-23T16:44:39Z</time>
      </trkpt>
      <trkpt lat="45.12445" lon="2.96823">
        <ele>851.2</ele>
        <time>2021-07-23T16:44:41Z</time>
      </trkpt>
      <trkpt lat="45.12458" lon="2.96853">
        <ele>849.8</ele>
        <time>2021-07-23T16:44:43Z</time>
      </trkpt>
      <trkpt lat="45.12469" lon="2.96885">
        <ele>847.7</ele>
        <time>2021-07-23T16:44:45Z</time>
      </trkpt>
      <trkpt lat="45.12478" lon="2.96914">
        <ele>845.3</ele>
        <time>2021-07-23T16:44:47Z</time>
      </trkpt>
      <trkpt lat="45.12479" lon="2.96944">
        <ele>844.2</ele>
        <time>2021-07-23T16:44:49Z</time>
      </trkpt>
      <trkpt lat="45.12475" lon="2.96974">
        <ele>845</ele>
        <time>2021-07-23T16:44:51Z</time>
      </trkpt>
      <trkpt lat="45.12472" lon="2.97006">
        <ele>845.2</ele>
        <time>2021-07-23T16:44:53Z</time>
      </trkpt>
      <trkpt lat="45.12471" lon="2.97038">
        <ele>843.2</ele>
        <time>2021-07-23T16:44:55Z</time>
      </trkpt>
      <trkpt lat="45.12471" lon="2.97071">
        <ele>840.5</ele>
        <time>2021-07-23T16:44:57Z</time>
      </trkpt>
      <trkpt lat="45.12468" lon="2.97103">
        <ele>840.3</ele>
        <time>2021-07-23T16:44:59Z</time>
      </trkpt>
      <trkpt lat="45.12464" lon="2.97135">
        <ele>841</ele>
        <time>2021-07-23T16:45:01Z</time>
      </trkpt>
      <trkpt lat="45.12464" lon="2.97168">
        <ele>839.2</ele>
        <time>2021-07-23T16:45:03Z</time>
      </trkpt>
      <trkpt lat="45.12468" lon="2.97199">
        <ele>836.2</ele>
        <time>2021-07-23T16:45:05Z</time>
      </trkpt>
      <trkpt lat="45.12473" lon="2.9723">
        <ele>832.9</ele>
        <time>2021-07-23T16:45:07Z</time>
      </trkpt>
      <trkpt lat="45.12477" lon="2.97262">
        <ele>830.6</ele>
        <time>2021-07-23T16:45:09Z</time>
      </trkpt>
      <trkpt lat="45.12479" lon="2.97293">
        <ele>828.7</ele>
        <time>2021-07-23T16:45:11Z</time>
      </trkpt>
      <trkpt lat="45.12481" lon="2.97321">
        <ele>826.9</ele>
        <time>2021-07-23T16:45:13Z</time>
      </trkpt>
      <trkpt lat="45.12483" lon="2.97342">
        <ele>825.3</ele>
        <time>2021-07-23T16:45:15Z</time>
      </trkpt>
      <trkpt lat="45.12484" lon="2.97361">
        <ele>823.9</ele>
        <time>2021-07-23T16:45:17Z</time>
      </trkpt>
      <trkpt lat="45.12484" lon="2.97379">
        <ele>823.1</ele>
        <time>2021-07-23T16:45:19Z</time>
      </trkpt>
      <trkpt lat="45.12483" lon="2.97393">
        <ele>822.8</ele>
        <time>2021-07-23T16:45:21Z</time>
      </trkpt>
      <trkpt lat="45.12481" lon="2.97405">
        <ele>823.2</ele>
        <time>2021-07-23T16:45:23Z</time>
      </trkpt>
      <trkpt lat="45.1248" lon="2.97414">
        <ele>823.1</ele>
        <time>2021-07-23T16:45:25Z</time>
      </trkpt>
      <trkpt lat="45.1248" lon="2.97421">
        <ele>822.8</ele>
        <time>2021-07-23T16:45:29Z</time>
      </trkpt>
      <trkpt lat="45.12478" lon="2.97428">
        <ele>822.7</ele>
        <time>2021-07-23T16:46:25Z</time>
      </trkpt>
      <trkpt lat="45.12477" lon="2.97436">
        <ele>822.3</ele>
        <time>2021-07-23T16:47:09Z</time>
      </trkpt>
      <trkpt lat="45.12476" lon="2.97446">
        <ele>822</ele>
        <time>2021-07-23T16:47:13Z</time>
      </trkpt>
      <trkpt lat="45.12475" lon="2.97454">
        <ele>821.6</ele>
        <time>2021-07-23T16:47:15Z</time>
      </trkpt>
      <trkpt lat="45.12474" lon="2.97462">
        <ele>820.9</ele>
        <time>2021-07-23T16:47:17Z</time>
      </trkpt>
      <trkpt lat="45.12474" lon="2.97472">
        <ele>820.3</ele>
        <time>2021-07-23T16:47:19Z</time>
      </trkpt>
      <trkpt lat="45.12472" lon="2.97483">
        <ele>819.8</ele>
        <time>2021-07-23T16:47:21Z</time>
      </trkpt>
      <trkpt lat="45.12471" lon="2.97495">
        <ele>819</ele>
        <time>2021-07-23T16:47:23Z</time>
      </trkpt>
      <trkpt lat="45.1247" lon="2.97508">
        <ele>818.4</ele>
        <time>2021-07-23T16:47:25Z</time>
      </trkpt>
      <trkpt lat="45.12469" lon="2.97521">
        <ele>818.4</ele>
        <time>2021-07-23T16:47:27Z</time>
      </trkpt>
      <trkpt lat="45.12469" lon="2.97535">
        <ele>817.9</ele>
        <time>2021-07-23T16:47:29Z</time>
      </trkpt>
      <trkpt lat="45.1247" lon="2.97548">
        <ele>817.4</ele>
        <time>2021-07-23T16:47:31Z</time>
      </trkpt>
      <trkpt lat="45.12471" lon="2.9756">
        <ele>817</ele>
        <time>2021-07-23T16:47:33Z</time>
      </trkpt>
      <trkpt lat="45.12472" lon="2.97571">
        <ele>816.6</ele>
        <time>2021-07-23T16:47:35Z</time>
      </trkpt>
      <trkpt lat="45.12472" lon="2.97578">
        <ele>816.4</ele>
        <time>2021-07-23T16:47:37Z</time>
      </trkpt>
      <trkpt lat="45.12473" lon="2.97586">
        <ele>816.3</ele>
        <time>2021-07-23T16:47:39Z</time>
      </trkpt>
      <trkpt lat="45.12474" lon="2.97593">
        <ele>816.1</ele>
        <time>2021-07-23T16:47:41Z</time>
      </trkpt>
      <trkpt lat="45.12475" lon="2.97601">
        <ele>815.9</ele>
        <time>2021-07-23T16:47:43Z</time>
      </trkpt>
      <trkpt lat="45.12476" lon="2.97607">
        <ele>815.7</ele>
        <time>2021-07-23T16:47:45Z</time>
      </trkpt>
      <trkpt lat="45.12476" lon="2.97615">
        <ele>815.6</ele>
        <time>2021-07-23T16:47:47Z</time>
      </trkpt>
      <trkpt lat="45.12475" lon="2.97623">
        <ele>815.7</ele>
        <time>2021-07-23T16:47:49Z</time>
      </trkpt>
      <trkpt lat="45.12475" lon="2.97633">
        <ele>815.8</ele>
        <time>2021-07-23T16:47:51Z</time>
      </trkpt>
      <trkpt lat="45.12477" lon="2.97641">
        <ele>815.4</ele>
        <time>2021-07-23T16:47:53Z</time>
      </trkpt>
      <trkpt lat="45.1248" lon="2.97647">
        <ele>815</ele>
        <time>2021-07-23T16:47:55Z</time>
      </trkpt>
      <trkpt lat="45.12485" lon="2.9765">
        <ele>814.2</ele>
        <time>2021-07-23T16:48:25Z</time>
      </trkpt>
      <trkpt lat="45.1249" lon="2.97642">
        <ele>813.5</ele>
        <time>2021-07-23T16:48:29Z</time>
      </trkpt>
      <trkpt lat="45.12491" lon="2.97634">
        <ele>813.4</ele>
        <time>2021-07-23T16:48:31Z</time>
      </trkpt>
      <trkpt lat="45.12491" lon="2.97622">
        <ele>813.4</ele>
        <time>2021-07-23T16:48:33Z</time>
      </trkpt>
      <trkpt lat="45.1249" lon="2.97608">
        <ele>813.5</ele>
        <time>2021-07-23T16:48:35Z</time>
      </trkpt>
      <trkpt lat="45.1249" lon="2.97593">
        <ele>813.6</ele>
        <time>2021-07-23T16:48:37Z</time>
      </trkpt>
      <trkpt lat="45.12489" lon="2.97577">
        <ele>813.7</ele>
        <time>2021-07-23T16:48:39Z</time>
      </trkpt>
      <trkpt lat="45.12489" lon="2.97559">
        <ele>813.8</ele>
        <time>2021-07-23T16:48:41Z</time>
      </trkpt>
      <trkpt lat="45.12491" lon="2.9754">
        <ele>813.4</ele>
        <time>2021-07-23T16:48:43Z</time>
      </trkpt>
      <trkpt lat="45.125" lon="2.97525">
        <ele>811.4</ele>
        <time>2021-07-23T16:48:45Z</time>
      </trkpt>
      <trkpt lat="45.12509" lon="2.9751">
        <ele>810.5</ele>
        <time>2021-07-23T16:48:47Z</time>
      </trkpt>
      <trkpt lat="45.12518" lon="2.97513">
        <ele>810</ele>
        <time>2021-07-23T16:48:49Z</time>
      </trkpt>
      <trkpt lat="45.12525" lon="2.97513">
        <ele>809.5</ele>
        <time>2021-07-23T16:48:51Z</time>
      </trkpt>
      <trkpt lat="45.12531" lon="2.9751">
        <ele>809.1</ele>
        <time>2021-07-23T16:48:53Z</time>
      </trkpt>
      <trkpt lat="45.12536" lon="2.97506">
        <ele>808.8</ele>
        <time>2021-07-23T16:48:55Z</time>
      </trkpt>
      <trkpt lat="45.12542" lon="2.97504">
        <ele>808.4</ele>
        <time>2021-07-23T16:48:57Z</time>
      </trkpt>
      <trkpt lat="45.12547" lon="2.97501">
        <ele>808.2</ele>
        <time>2021-07-23T16:48:59Z</time>
      </trkpt>
      <trkpt lat="45.12551" lon="2.97496">
        <ele>808.1</ele>
        <time>2021-07-23T16:49:01Z</time>
      </trkpt>
    </trkseg>
  </trk>
</gpx>